<?xml version="1.0" encoding="UTF-8" standalone="no" ?>
<gpx xmlns="http://www.topografix.com/GPX/1/1" xmlns:xsi="http://www.w3.org/2001/XMLSchema-instance" xsi:schemaLocation="http://www.topografix.com/GPX/1/1 http://www.topografix.com/GPX/1/1/gpx.xsd" version="1.1" creator="VisuGPX - https://www.visugpx.com">
  <metadata>
    <name>GTMC Realise</name>
  </metadata>
  <trk>
    <name><![CDATA[GTMC J2]]></name>
    <extensions>
      <line xmlns="http://www.topografix.com/GPX/gpx_style/0/2">
        <color>000088</color>
        <width>4</width>
      </line>
    </extensions>
    <trkseg>
      <trkpt lat="45.74027" lon="2.96418">
        <ele>983.408623</ele>
        <time>2021-07-07T08:39:30+0200</time>
      </trkpt>
      <trkpt lat="45.74027" lon="2.96418">
        <ele>983.408623</ele>
        <time>2021-07-07T08:39:30+0200</time>
      </trkpt>
      <trkpt lat="45.74031" lon="2.9642">
        <ele>980.552214</ele>
        <time>2021-07-07T08:39:49+0200</time>
      </trkpt>
      <trkpt lat="45.74031" lon="2.96428">
        <ele>980.634153</ele>
        <time>2021-07-07T08:39:55+0200</time>
      </trkpt>
      <trkpt lat="45.74028" lon="2.96434">
        <ele>981.26819</ele>
        <time>2021-07-07T08:39:58+0200</time>
      </trkpt>
      <trkpt lat="45.74026" lon="2.96443">
        <ele>982.403341</ele>
        <time>2021-07-07T08:40:01+0200</time>
      </trkpt>
      <trkpt lat="45.74027" lon="2.96453">
        <ele>982.192699</ele>
        <time>2021-07-07T08:40:04+0200</time>
      </trkpt>
      <trkpt lat="45.74033" lon="2.96456">
        <ele>983.506521</ele>
        <time>2021-07-07T08:40:07+0200</time>
      </trkpt>
      <trkpt lat="45.74041" lon="2.96458">
        <ele>984.18206</ele>
        <time>2021-07-07T08:40:10+0200</time>
      </trkpt>
      <trkpt lat="45.74046" lon="2.96459">
        <ele>983.730254</ele>
        <time>2021-07-07T08:40:12+0200</time>
      </trkpt>
      <trkpt lat="45.74052" lon="2.96463">
        <ele>982.398197</ele>
        <time>2021-07-07T08:40:15+0200</time>
      </trkpt>
      <trkpt lat="45.74058" lon="2.96466">
        <ele>981.462627</ele>
        <time>2021-07-07T08:40:17+0200</time>
      </trkpt>
      <trkpt lat="45.74063" lon="2.9647">
        <ele>980.72842</ele>
        <time>2021-07-07T08:40:20+0200</time>
      </trkpt>
      <trkpt lat="45.74068" lon="2.96473">
        <ele>979.409849</ele>
        <time>2021-07-07T08:40:23+0200</time>
      </trkpt>
      <trkpt lat="45.74073" lon="2.96476">
        <ele>979.640322</ele>
        <time>2021-07-07T08:40:28+0200</time>
      </trkpt>
      <trkpt lat="45.74079" lon="2.96477">
        <ele>980.311034</ele>
        <time>2021-07-07T08:40:32+0200</time>
      </trkpt>
      <trkpt lat="45.74084" lon="2.96482">
        <ele>980.844969</ele>
        <time>2021-07-07T08:40:35+0200</time>
      </trkpt>
      <trkpt lat="45.74088" lon="2.96486">
        <ele>979.45293</ele>
        <time>2021-07-07T08:40:38+0200</time>
      </trkpt>
      <trkpt lat="45.74089" lon="2.96492">
        <ele>977.307119</ele>
        <time>2021-07-07T08:41:52+0200</time>
      </trkpt>
      <trkpt lat="45.7409" lon="2.965">
        <ele>977.118661</ele>
        <time>2021-07-07T08:41:54+0200</time>
      </trkpt>
      <trkpt lat="45.74086" lon="2.96506">
        <ele>977.268857</ele>
        <time>2021-07-07T08:41:56+0200</time>
      </trkpt>
      <trkpt lat="45.74082" lon="2.96513">
        <ele>977.302818</ele>
        <time>2021-07-07T08:41:58+0200</time>
      </trkpt>
      <trkpt lat="45.74077" lon="2.9652">
        <ele>977.053076</ele>
        <time>2021-07-07T08:42:00+0200</time>
      </trkpt>
      <trkpt lat="45.74072" lon="2.96526">
        <ele>976.673178</ele>
        <time>2021-07-07T08:42:02+0200</time>
      </trkpt>
      <trkpt lat="45.74066" lon="2.96532">
        <ele>976.782556</ele>
        <time>2021-07-07T08:42:04+0200</time>
      </trkpt>
      <trkpt lat="45.74062" lon="2.9654">
        <ele>976.994982</ele>
        <time>2021-07-07T08:42:06+0200</time>
      </trkpt>
      <trkpt lat="45.74059" lon="2.96549">
        <ele>977.055179</ele>
        <time>2021-07-07T08:42:08+0200</time>
      </trkpt>
      <trkpt lat="45.74054" lon="2.96558">
        <ele>976.907227</ele>
        <time>2021-07-07T08:42:10+0200</time>
      </trkpt>
      <trkpt lat="45.74051" lon="2.96568">
        <ele>977.504429</ele>
        <time>2021-07-07T08:42:12+0200</time>
      </trkpt>
      <trkpt lat="45.74046" lon="2.96577">
        <ele>977.4746</ele>
        <time>2021-07-07T08:42:14+0200</time>
      </trkpt>
      <trkpt lat="45.74043" lon="2.96587">
        <ele>977.177165</ele>
        <time>2021-07-07T08:42:16+0200</time>
      </trkpt>
      <trkpt lat="45.74039" lon="2.96598">
        <ele>977.61341</ele>
        <time>2021-07-07T08:42:18+0200</time>
      </trkpt>
      <trkpt lat="45.74034" lon="2.96609">
        <ele>978.217452</ele>
        <time>2021-07-07T08:42:20+0200</time>
      </trkpt>
      <trkpt lat="45.74029" lon="2.96618">
        <ele>977.729526</ele>
        <time>2021-07-07T08:42:22+0200</time>
      </trkpt>
      <trkpt lat="45.74024" lon="2.96627">
        <ele>977.472651</ele>
        <time>2021-07-07T08:42:24+0200</time>
      </trkpt>
      <trkpt lat="45.74016" lon="2.96627">
        <ele>977.366783</ele>
        <time>2021-07-07T08:42:26+0200</time>
      </trkpt>
      <trkpt lat="45.74009" lon="2.96627">
        <ele>977.424659</ele>
        <time>2021-07-07T08:42:29+0200</time>
      </trkpt>
      <trkpt lat="45.74004" lon="2.96627">
        <ele>978.336629</ele>
        <time>2021-07-07T08:42:31+0200</time>
      </trkpt>
      <trkpt lat="45.73999" lon="2.96623">
        <ele>978.63729</ele>
        <time>2021-07-07T08:42:33+0200</time>
      </trkpt>
      <trkpt lat="45.73994" lon="2.96622">
        <ele>979.303947</ele>
        <time>2021-07-07T08:42:35+0200</time>
      </trkpt>
      <trkpt lat="45.73989" lon="2.96617">
        <ele>980.415665</ele>
        <time>2021-07-07T08:42:37+0200</time>
      </trkpt>
      <trkpt lat="45.73984" lon="2.96611">
        <ele>982.828348</ele>
        <time>2021-07-07T08:42:40+0200</time>
      </trkpt>
      <trkpt lat="45.73978" lon="2.96609">
        <ele>984.380394</ele>
        <time>2021-07-07T08:42:43+0200</time>
      </trkpt>
      <trkpt lat="45.73972" lon="2.96606">
        <ele>985.579256</ele>
        <time>2021-07-07T08:42:47+0200</time>
      </trkpt>
      <trkpt lat="45.73968" lon="2.96603">
        <ele>985.145401</ele>
        <time>2021-07-07T08:42:50+0200</time>
      </trkpt>
      <trkpt lat="45.73963" lon="2.96601">
        <ele>984.685984</ele>
        <time>2021-07-07T08:42:52+0200</time>
      </trkpt>
      <trkpt lat="45.73959" lon="2.96598">
        <ele>984.801954</ele>
        <time>2021-07-07T08:42:55+0200</time>
      </trkpt>
      <trkpt lat="45.73954" lon="2.96592">
        <ele>986.862474</ele>
        <time>2021-07-07T08:42:58+0200</time>
      </trkpt>
      <trkpt lat="45.73949" lon="2.9659">
        <ele>990.017961</ele>
        <time>2021-07-07T08:43:02+0200</time>
      </trkpt>
      <trkpt lat="45.73944" lon="2.96588">
        <ele>990.61721</ele>
        <time>2021-07-07T08:43:05+0200</time>
      </trkpt>
      <trkpt lat="45.7394" lon="2.96588">
        <ele>991.350014</ele>
        <time>2021-07-07T08:43:09+0200</time>
      </trkpt>
      <trkpt lat="45.73934" lon="2.9659">
        <ele>992.616558</ele>
        <time>2021-07-07T08:43:12+0200</time>
      </trkpt>
      <trkpt lat="45.73927" lon="2.96591">
        <ele>992.531555</ele>
        <time>2021-07-07T08:43:15+0200</time>
      </trkpt>
      <trkpt lat="45.73921" lon="2.96594">
        <ele>991.62013</ele>
        <time>2021-07-07T08:43:19+0200</time>
      </trkpt>
      <trkpt lat="45.73915" lon="2.96597">
        <ele>990.168</ele>
        <time>2021-07-07T08:43:22+0200</time>
      </trkpt>
      <trkpt lat="45.73909" lon="2.96599">
        <ele>991.130465</ele>
        <time>2021-07-07T08:43:24+0200</time>
      </trkpt>
      <trkpt lat="45.73905" lon="2.96598">
        <ele>991.097316</ele>
        <time>2021-07-07T08:43:34+0200</time>
      </trkpt>
      <trkpt lat="45.739" lon="2.96599">
        <ele>990.93126</ele>
        <time>2021-07-07T08:44:06+0200</time>
      </trkpt>
      <trkpt lat="45.73894" lon="2.96599">
        <ele>988.356129</ele>
        <time>2021-07-07T08:44:26+0200</time>
      </trkpt>
      <trkpt lat="45.73889" lon="2.96597">
        <ele>989.757288</ele>
        <time>2021-07-07T08:44:29+0200</time>
      </trkpt>
      <trkpt lat="45.73884" lon="2.96596">
        <ele>989.355315</ele>
        <time>2021-07-07T08:44:31+0200</time>
      </trkpt>
      <trkpt lat="45.73878" lon="2.96595">
        <ele>991.045873</ele>
        <time>2021-07-07T08:44:33+0200</time>
      </trkpt>
      <trkpt lat="45.7387" lon="2.96593">
        <ele>992.24276</ele>
        <time>2021-07-07T08:44:35+0200</time>
      </trkpt>
      <trkpt lat="45.73861" lon="2.96589">
        <ele>991.773078</ele>
        <time>2021-07-07T08:44:37+0200</time>
      </trkpt>
      <trkpt lat="45.73855" lon="2.96587">
        <ele>991.472137</ele>
        <time>2021-07-07T08:44:38+0200</time>
      </trkpt>
      <trkpt lat="45.7385" lon="2.96587">
        <ele>991.682673</ele>
        <time>2021-07-07T08:44:39+0200</time>
      </trkpt>
      <trkpt lat="45.73841" lon="2.96583">
        <ele>990.859703</ele>
        <time>2021-07-07T08:44:41+0200</time>
      </trkpt>
      <trkpt lat="45.73837" lon="2.9658">
        <ele>991.023654</ele>
        <time>2021-07-07T08:44:42+0200</time>
      </trkpt>
      <trkpt lat="45.73833" lon="2.96579">
        <ele>990.726688</ele>
        <time>2021-07-07T08:44:43+0200</time>
      </trkpt>
      <trkpt lat="45.73825" lon="2.96574">
        <ele>991.381943</ele>
        <time>2021-07-07T08:44:45+0200</time>
      </trkpt>
      <trkpt lat="45.73817" lon="2.96569">
        <ele>991.894883</ele>
        <time>2021-07-07T08:44:47+0200</time>
      </trkpt>
      <trkpt lat="45.73813" lon="2.96566">
        <ele>992.867523</ele>
        <time>2021-07-07T08:44:48+0200</time>
      </trkpt>
      <trkpt lat="45.73808" lon="2.96561">
        <ele>992.726269</ele>
        <time>2021-07-07T08:44:49+0200</time>
      </trkpt>
      <trkpt lat="45.73799" lon="2.96555">
        <ele>993.413653</ele>
        <time>2021-07-07T08:44:51+0200</time>
      </trkpt>
      <trkpt lat="45.73795" lon="2.96553">
        <ele>993.928411</ele>
        <time>2021-07-07T08:44:52+0200</time>
      </trkpt>
      <trkpt lat="45.73791" lon="2.96549">
        <ele>993.625421</ele>
        <time>2021-07-07T08:44:53+0200</time>
      </trkpt>
      <trkpt lat="45.73787" lon="2.96545">
        <ele>993.997256</ele>
        <time>2021-07-07T08:44:54+0200</time>
      </trkpt>
      <trkpt lat="45.7378" lon="2.96541">
        <ele>995.616648</ele>
        <time>2021-07-07T08:44:56+0200</time>
      </trkpt>
      <trkpt lat="45.73773" lon="2.96538">
        <ele>996.569251</ele>
        <time>2021-07-07T08:44:58+0200</time>
      </trkpt>
      <trkpt lat="45.73767" lon="2.96532">
        <ele>997.613003</ele>
        <time>2021-07-07T08:45:00+0200</time>
      </trkpt>
      <trkpt lat="45.73763" lon="2.96528">
        <ele>997.617354</ele>
        <time>2021-07-07T08:45:01+0200</time>
      </trkpt>
      <trkpt lat="45.73755" lon="2.9652">
        <ele>996.675047</ele>
        <time>2021-07-07T08:45:03+0200</time>
      </trkpt>
      <trkpt lat="45.73748" lon="2.96513">
        <ele>996.974364</ele>
        <time>2021-07-07T08:45:05+0200</time>
      </trkpt>
      <trkpt lat="45.73743" lon="2.96509">
        <ele>997.144849</ele>
        <time>2021-07-07T08:45:07+0200</time>
      </trkpt>
      <trkpt lat="45.73737" lon="2.96507">
        <ele>996.930146</ele>
        <time>2021-07-07T08:45:08+0200</time>
      </trkpt>
      <trkpt lat="45.7373" lon="2.96503">
        <ele>996.131626</ele>
        <time>2021-07-07T08:45:09+0200</time>
      </trkpt>
      <trkpt lat="45.73725" lon="2.965">
        <ele>995.297396</ele>
        <time>2021-07-07T08:45:10+0200</time>
      </trkpt>
      <trkpt lat="45.73721" lon="2.96498">
        <ele>995.709752</ele>
        <time>2021-07-07T08:45:11+0200</time>
      </trkpt>
      <trkpt lat="45.73716" lon="2.96493">
        <ele>996.715033</ele>
        <time>2021-07-07T08:45:12+0200</time>
      </trkpt>
      <trkpt lat="45.73709" lon="2.96489">
        <ele>998.349921</ele>
        <time>2021-07-07T08:45:14+0200</time>
      </trkpt>
      <trkpt lat="45.73703" lon="2.96484">
        <ele>998.986374</ele>
        <time>2021-07-07T08:45:16+0200</time>
      </trkpt>
      <trkpt lat="45.73694" lon="2.9648">
        <ele>999.179434</ele>
        <time>2021-07-07T08:45:18+0200</time>
      </trkpt>
      <trkpt lat="45.7369" lon="2.96476">
        <ele>998.858888</ele>
        <time>2021-07-07T08:45:19+0200</time>
      </trkpt>
      <trkpt lat="45.73684" lon="2.96475">
        <ele>999.01771</ele>
        <time>2021-07-07T08:45:20+0200</time>
      </trkpt>
      <trkpt lat="45.73679" lon="2.96472">
        <ele>998.64496</ele>
        <time>2021-07-07T08:45:21+0200</time>
      </trkpt>
      <trkpt lat="45.73672" lon="2.96469">
        <ele>997.686936</ele>
        <time>2021-07-07T08:45:22+0200</time>
      </trkpt>
      <trkpt lat="45.73668" lon="2.96465">
        <ele>996.413114</ele>
        <time>2021-07-07T08:45:23+0200</time>
      </trkpt>
      <trkpt lat="45.73664" lon="2.96461">
        <ele>995.406979</ele>
        <time>2021-07-07T08:45:24+0200</time>
      </trkpt>
      <trkpt lat="45.73658" lon="2.96458">
        <ele>995.260242</ele>
        <time>2021-07-07T08:45:25+0200</time>
      </trkpt>
      <trkpt lat="45.73652" lon="2.96455">
        <ele>994.727921</ele>
        <time>2021-07-07T08:45:26+0200</time>
      </trkpt>
      <trkpt lat="45.73648" lon="2.96451">
        <ele>994.312804</ele>
        <time>2021-07-07T08:45:27+0200</time>
      </trkpt>
      <trkpt lat="45.73644" lon="2.96448">
        <ele>993.996441</ele>
        <time>2021-07-07T08:45:28+0200</time>
      </trkpt>
      <trkpt lat="45.73637" lon="2.96443">
        <ele>993.166592</ele>
        <time>2021-07-07T08:45:30+0200</time>
      </trkpt>
      <trkpt lat="45.73631" lon="2.96436">
        <ele>992.668248</ele>
        <time>2021-07-07T08:45:32+0200</time>
      </trkpt>
      <trkpt lat="45.73625" lon="2.96433">
        <ele>992.493836</ele>
        <time>2021-07-07T08:45:34+0200</time>
      </trkpt>
      <trkpt lat="45.73618" lon="2.96429">
        <ele>992.76839</ele>
        <time>2021-07-07T08:45:36+0200</time>
      </trkpt>
      <trkpt lat="45.73613" lon="2.96427">
        <ele>993.389392</ele>
        <time>2021-07-07T08:45:38+0200</time>
      </trkpt>
      <trkpt lat="45.73607" lon="2.96425">
        <ele>993.187058</ele>
        <time>2021-07-07T08:45:40+0200</time>
      </trkpt>
      <trkpt lat="45.73601" lon="2.96422">
        <ele>994.076994</ele>
        <time>2021-07-07T08:45:42+0200</time>
      </trkpt>
      <trkpt lat="45.73595" lon="2.96419">
        <ele>994.36791</ele>
        <time>2021-07-07T08:45:44+0200</time>
      </trkpt>
      <trkpt lat="45.7359" lon="2.96416">
        <ele>994.19485</ele>
        <time>2021-07-07T08:45:46+0200</time>
      </trkpt>
      <trkpt lat="45.73584" lon="2.96413">
        <ele>994.372672</ele>
        <time>2021-07-07T08:45:48+0200</time>
      </trkpt>
      <trkpt lat="45.73579" lon="2.9641">
        <ele>994.990446</ele>
        <time>2021-07-07T08:45:50+0200</time>
      </trkpt>
      <trkpt lat="45.73574" lon="2.96407">
        <ele>995.182086</ele>
        <time>2021-07-07T08:45:52+0200</time>
      </trkpt>
      <trkpt lat="45.73569" lon="2.96405">
        <ele>995.05891</ele>
        <time>2021-07-07T08:45:54+0200</time>
      </trkpt>
      <trkpt lat="45.73563" lon="2.96398">
        <ele>993.050865</ele>
        <time>2021-07-07T08:45:56+0200</time>
      </trkpt>
      <trkpt lat="45.73558" lon="2.96395">
        <ele>993.320749</ele>
        <time>2021-07-07T08:45:58+0200</time>
      </trkpt>
      <trkpt lat="45.73553" lon="2.96391">
        <ele>993.92623</ele>
        <time>2021-07-07T08:46:00+0200</time>
      </trkpt>
      <trkpt lat="45.73548" lon="2.96388">
        <ele>994.178752</ele>
        <time>2021-07-07T08:46:02+0200</time>
      </trkpt>
      <trkpt lat="45.73544" lon="2.96384">
        <ele>993.827261</ele>
        <time>2021-07-07T08:46:04+0200</time>
      </trkpt>
      <trkpt lat="45.73538" lon="2.96381">
        <ele>994.248824</ele>
        <time>2021-07-07T08:46:06+0200</time>
      </trkpt>
      <trkpt lat="45.73533" lon="2.96378">
        <ele>993.870757</ele>
        <time>2021-07-07T08:46:08+0200</time>
      </trkpt>
      <trkpt lat="45.73528" lon="2.96376">
        <ele>995.021716</ele>
        <time>2021-07-07T08:46:10+0200</time>
      </trkpt>
      <trkpt lat="45.73521" lon="2.96373">
        <ele>994.976956</ele>
        <time>2021-07-07T08:46:12+0200</time>
      </trkpt>
      <trkpt lat="45.73517" lon="2.9637">
        <ele>995.199289</ele>
        <time>2021-07-07T08:46:14+0200</time>
      </trkpt>
      <trkpt lat="45.73509" lon="2.96366">
        <ele>995.022576</ele>
        <time>2021-07-07T08:46:17+0200</time>
      </trkpt>
      <trkpt lat="45.73504" lon="2.96364">
        <ele>996.153439</ele>
        <time>2021-07-07T08:46:19+0200</time>
      </trkpt>
      <trkpt lat="45.73499" lon="2.96363">
        <ele>996.306388</ele>
        <time>2021-07-07T08:46:21+0200</time>
      </trkpt>
      <trkpt lat="45.73493" lon="2.96361">
        <ele>996.627237</ele>
        <time>2021-07-07T08:46:23+0200</time>
      </trkpt>
      <trkpt lat="45.73486" lon="2.96359">
        <ele>998.560618</ele>
        <time>2021-07-07T08:46:26+0200</time>
      </trkpt>
      <trkpt lat="45.73482" lon="2.96356">
        <ele>1000.089885</ele>
        <time>2021-07-07T08:46:28+0200</time>
      </trkpt>
      <trkpt lat="45.73477" lon="2.96354">
        <ele>1000.052553</ele>
        <time>2021-07-07T08:46:30+0200</time>
      </trkpt>
      <trkpt lat="45.73472" lon="2.96352">
        <ele>1000.147643</ele>
        <time>2021-07-07T08:46:32+0200</time>
      </trkpt>
      <trkpt lat="45.73464" lon="2.96349">
        <ele>995.537903</ele>
        <time>2021-07-07T08:46:34+0200</time>
      </trkpt>
      <trkpt lat="45.73459" lon="2.96345">
        <ele>996.14806</ele>
        <time>2021-07-07T08:46:37+0200</time>
      </trkpt>
      <trkpt lat="45.73452" lon="2.96341">
        <ele>995.046775</ele>
        <time>2021-07-07T08:46:39+0200</time>
      </trkpt>
      <trkpt lat="45.73448" lon="2.96334">
        <ele>995.667025</ele>
        <time>2021-07-07T08:46:41+0200</time>
      </trkpt>
      <trkpt lat="45.73443" lon="2.96333">
        <ele>996.087434</ele>
        <time>2021-07-07T08:46:43+0200</time>
      </trkpt>
      <trkpt lat="45.73436" lon="2.9633">
        <ele>996.922751</ele>
        <time>2021-07-07T08:46:46+0200</time>
      </trkpt>
      <trkpt lat="45.7343" lon="2.96327">
        <ele>997.102217</ele>
        <time>2021-07-07T08:46:48+0200</time>
      </trkpt>
      <trkpt lat="45.73424" lon="2.96327">
        <ele>996.670406</ele>
        <time>2021-07-07T08:46:50+0200</time>
      </trkpt>
      <trkpt lat="45.73418" lon="2.96326">
        <ele>997.031847</ele>
        <time>2021-07-07T08:46:52+0200</time>
      </trkpt>
      <trkpt lat="45.73413" lon="2.96323">
        <ele>998.34446</ele>
        <time>2021-07-07T08:46:55+0200</time>
      </trkpt>
      <trkpt lat="45.73408" lon="2.9632">
        <ele>1000.373704</ele>
        <time>2021-07-07T08:46:57+0200</time>
      </trkpt>
      <trkpt lat="45.73401" lon="2.96317">
        <ele>1001.525269</ele>
        <time>2021-07-07T08:46:59+0200</time>
      </trkpt>
      <trkpt lat="45.73396" lon="2.96315">
        <ele>1001.726947</ele>
        <time>2021-07-07T08:47:01+0200</time>
      </trkpt>
      <trkpt lat="45.73388" lon="2.96311">
        <ele>999.712074</ele>
        <time>2021-07-07T08:47:03+0200</time>
      </trkpt>
      <trkpt lat="45.73382" lon="2.96309">
        <ele>997.984805</ele>
        <time>2021-07-07T08:47:04+0200</time>
      </trkpt>
      <trkpt lat="45.73377" lon="2.96307">
        <ele>998.046275</ele>
        <time>2021-07-07T08:47:06+0200</time>
      </trkpt>
      <trkpt lat="45.73368" lon="2.96301">
        <ele>997.854183</ele>
        <time>2021-07-07T08:47:08+0200</time>
      </trkpt>
      <trkpt lat="45.73362" lon="2.96299">
        <ele>998.479869</ele>
        <time>2021-07-07T08:47:10+0200</time>
      </trkpt>
      <trkpt lat="45.73357" lon="2.96294">
        <ele>998.889892</ele>
        <time>2021-07-07T08:47:12+0200</time>
      </trkpt>
      <trkpt lat="45.73351" lon="2.96293">
        <ele>999.951804</ele>
        <time>2021-07-07T08:47:14+0200</time>
      </trkpt>
      <trkpt lat="45.73342" lon="2.96289">
        <ele>1000.061545</ele>
        <time>2021-07-07T08:47:16+0200</time>
      </trkpt>
      <trkpt lat="45.73336" lon="2.96287">
        <ele>1000.06416</ele>
        <time>2021-07-07T08:47:18+0200</time>
      </trkpt>
      <trkpt lat="45.73331" lon="2.96285">
        <ele>999.642582</ele>
        <time>2021-07-07T08:47:20+0200</time>
      </trkpt>
      <trkpt lat="45.73326" lon="2.96287">
        <ele>999.305518</ele>
        <time>2021-07-07T08:47:22+0200</time>
      </trkpt>
      <trkpt lat="45.7332" lon="2.96287">
        <ele>998.999364</ele>
        <time>2021-07-07T08:47:24+0200</time>
      </trkpt>
      <trkpt lat="45.73315" lon="2.96285">
        <ele>998.600996</ele>
        <time>2021-07-07T08:47:26+0200</time>
      </trkpt>
      <trkpt lat="45.7331" lon="2.96282">
        <ele>997.864426</ele>
        <time>2021-07-07T08:47:27+0200</time>
      </trkpt>
      <trkpt lat="45.73303" lon="2.96278">
        <ele>997.557103</ele>
        <time>2021-07-07T08:47:29+0200</time>
      </trkpt>
      <trkpt lat="45.73297" lon="2.96275">
        <ele>998.38216</ele>
        <time>2021-07-07T08:47:31+0200</time>
      </trkpt>
      <trkpt lat="45.73292" lon="2.96268">
        <ele>997.497953</ele>
        <time>2021-07-07T08:47:33+0200</time>
      </trkpt>
      <trkpt lat="45.73287" lon="2.96263">
        <ele>998.000732</ele>
        <time>2021-07-07T08:47:35+0200</time>
      </trkpt>
      <trkpt lat="45.73283" lon="2.9626">
        <ele>998.352382</ele>
        <time>2021-07-07T08:47:37+0200</time>
      </trkpt>
      <trkpt lat="45.73277" lon="2.96257">
        <ele>998.458899</ele>
        <time>2021-07-07T08:47:39+0200</time>
      </trkpt>
      <trkpt lat="45.73271" lon="2.96254">
        <ele>998.982291</ele>
        <time>2021-07-07T08:47:41+0200</time>
      </trkpt>
      <trkpt lat="45.73265" lon="2.96251">
        <ele>999.287828</ele>
        <time>2021-07-07T08:47:43+0200</time>
      </trkpt>
      <trkpt lat="45.7326" lon="2.96248">
        <ele>1000.052799</ele>
        <time>2021-07-07T08:47:45+0200</time>
      </trkpt>
      <trkpt lat="45.73255" lon="2.96244">
        <ele>1001.433271</ele>
        <time>2021-07-07T08:47:47+0200</time>
      </trkpt>
      <trkpt lat="45.73249" lon="2.96242">
        <ele>1003.819227</ele>
        <time>2021-07-07T08:47:50+0200</time>
      </trkpt>
      <trkpt lat="45.73244" lon="2.96238">
        <ele>1004.72748</ele>
        <time>2021-07-07T08:47:52+0200</time>
      </trkpt>
      <trkpt lat="45.73239" lon="2.96235">
        <ele>1004.898167</ele>
        <time>2021-07-07T08:47:54+0200</time>
      </trkpt>
      <trkpt lat="45.73235" lon="2.96231">
        <ele>1006.782017</ele>
        <time>2021-07-07T08:47:56+0200</time>
      </trkpt>
      <trkpt lat="45.7323" lon="2.96227">
        <ele>1007.335693</ele>
        <time>2021-07-07T08:47:58+0200</time>
      </trkpt>
      <trkpt lat="45.73225" lon="2.96223">
        <ele>1007.206412</ele>
        <time>2021-07-07T08:48:00+0200</time>
      </trkpt>
      <trkpt lat="45.7322" lon="2.96218">
        <ele>1007.09543</ele>
        <time>2021-07-07T08:48:02+0200</time>
      </trkpt>
      <trkpt lat="45.73214" lon="2.96212">
        <ele>1006.334713</ele>
        <time>2021-07-07T08:48:04+0200</time>
      </trkpt>
      <trkpt lat="45.73209" lon="2.9621">
        <ele>1007.357659</ele>
        <time>2021-07-07T08:48:06+0200</time>
      </trkpt>
      <trkpt lat="45.73201" lon="2.96204">
        <ele>1006.55508</ele>
        <time>2021-07-07T08:48:08+0200</time>
      </trkpt>
      <trkpt lat="45.73195" lon="2.96197">
        <ele>1005.561272</ele>
        <time>2021-07-07T08:48:10+0200</time>
      </trkpt>
      <trkpt lat="45.7319" lon="2.96191">
        <ele>1004.914994</ele>
        <time>2021-07-07T08:48:12+0200</time>
      </trkpt>
      <trkpt lat="45.73183" lon="2.96187">
        <ele>1004.42936</ele>
        <time>2021-07-07T08:48:14+0200</time>
      </trkpt>
      <trkpt lat="45.73177" lon="2.96183">
        <ele>1005.242329</ele>
        <time>2021-07-07T08:48:16+0200</time>
      </trkpt>
      <trkpt lat="45.73172" lon="2.96181">
        <ele>1005.585328</ele>
        <time>2021-07-07T08:48:18+0200</time>
      </trkpt>
      <trkpt lat="45.73167" lon="2.96179">
        <ele>1006.442163</ele>
        <time>2021-07-07T08:48:20+0200</time>
      </trkpt>
      <trkpt lat="45.73161" lon="2.96176">
        <ele>1006.967546</ele>
        <time>2021-07-07T08:48:23+0200</time>
      </trkpt>
      <trkpt lat="45.73157" lon="2.9617">
        <ele>1007.324624</ele>
        <time>2021-07-07T08:48:25+0200</time>
      </trkpt>
      <trkpt lat="45.73151" lon="2.96167">
        <ele>1007.883107</ele>
        <time>2021-07-07T08:48:27+0200</time>
      </trkpt>
      <trkpt lat="45.73146" lon="2.96164">
        <ele>1007.781484</ele>
        <time>2021-07-07T08:48:29+0200</time>
      </trkpt>
      <trkpt lat="45.7314" lon="2.96163">
        <ele>1007.551886</ele>
        <time>2021-07-07T08:48:31+0200</time>
      </trkpt>
      <trkpt lat="45.73135" lon="2.96161">
        <ele>1007.704334</ele>
        <time>2021-07-07T08:48:33+0200</time>
      </trkpt>
      <trkpt lat="45.7313" lon="2.96157">
        <ele>1010.111266</ele>
        <time>2021-07-07T08:48:36+0200</time>
      </trkpt>
      <trkpt lat="45.73126" lon="2.96156">
        <ele>1011.68108</ele>
        <time>2021-07-07T08:48:38+0200</time>
      </trkpt>
      <trkpt lat="45.7312" lon="2.96156">
        <ele>1014.2273</ele>
        <time>2021-07-07T08:48:41+0200</time>
      </trkpt>
      <trkpt lat="45.73114" lon="2.96157">
        <ele>1015.964747</ele>
        <time>2021-07-07T08:48:44+0200</time>
      </trkpt>
      <trkpt lat="45.73109" lon="2.96155">
        <ele>1017.038757</ele>
        <time>2021-07-07T08:48:47+0200</time>
      </trkpt>
      <trkpt lat="45.73103" lon="2.96153">
        <ele>1019.000905</ele>
        <time>2021-07-07T08:48:51+0200</time>
      </trkpt>
      <trkpt lat="45.73096" lon="2.96152">
        <ele>1018.376876</ele>
        <time>2021-07-07T08:48:54+0200</time>
      </trkpt>
      <trkpt lat="45.73091" lon="2.96145">
        <ele>1017.407126</ele>
        <time>2021-07-07T08:48:57+0200</time>
      </trkpt>
      <trkpt lat="45.73086" lon="2.96143">
        <ele>1017.689395</ele>
        <time>2021-07-07T08:48:59+0200</time>
      </trkpt>
      <trkpt lat="45.73082" lon="2.96141">
        <ele>1018.955482</ele>
        <time>2021-07-07T08:49:01+0200</time>
      </trkpt>
      <trkpt lat="45.73077" lon="2.96138">
        <ele>1020.206973</ele>
        <time>2021-07-07T08:49:04+0200</time>
      </trkpt>
      <trkpt lat="45.73073" lon="2.96133">
        <ele>1021.033924</ele>
        <time>2021-07-07T08:49:07+0200</time>
      </trkpt>
      <trkpt lat="45.73069" lon="2.96128">
        <ele>1023.127732</ele>
        <time>2021-07-07T08:49:10+0200</time>
      </trkpt>
      <trkpt lat="45.73064" lon="2.96125">
        <ele>1022.642793</ele>
        <time>2021-07-07T08:49:12+0200</time>
      </trkpt>
      <trkpt lat="45.7306" lon="2.96121">
        <ele>1022.383654</ele>
        <time>2021-07-07T08:49:14+0200</time>
      </trkpt>
      <trkpt lat="45.73055" lon="2.96118">
        <ele>1023.184223</ele>
        <time>2021-07-07T08:49:16+0200</time>
      </trkpt>
      <trkpt lat="45.73049" lon="2.96115">
        <ele>1023.965236</ele>
        <time>2021-07-07T08:49:19+0200</time>
      </trkpt>
      <trkpt lat="45.73045" lon="2.96106">
        <ele>1023.776858</ele>
        <time>2021-07-07T08:49:23+0200</time>
      </trkpt>
      <trkpt lat="45.73041" lon="2.96101">
        <ele>1024.250651</ele>
        <time>2021-07-07T08:49:25+0200</time>
      </trkpt>
      <trkpt lat="45.73038" lon="2.96095">
        <ele>1025.570842</ele>
        <time>2021-07-07T08:49:28+0200</time>
      </trkpt>
      <trkpt lat="45.73033" lon="2.96092">
        <ele>1026.273066</ele>
        <time>2021-07-07T08:49:31+0200</time>
      </trkpt>
      <trkpt lat="45.73028" lon="2.96088">
        <ele>1027.324897</ele>
        <time>2021-07-07T08:49:34+0200</time>
      </trkpt>
      <trkpt lat="45.73024" lon="2.96083">
        <ele>1027.665431</ele>
        <time>2021-07-07T08:49:37+0200</time>
      </trkpt>
      <trkpt lat="45.73019" lon="2.9608">
        <ele>1027.631038</ele>
        <time>2021-07-07T08:49:40+0200</time>
      </trkpt>
      <trkpt lat="45.73015" lon="2.96075">
        <ele>1028.368194</ele>
        <time>2021-07-07T08:49:42+0200</time>
      </trkpt>
      <trkpt lat="45.73012" lon="2.96067">
        <ele>1027.159854</ele>
        <time>2021-07-07T08:49:45+0200</time>
      </trkpt>
      <trkpt lat="45.73009" lon="2.96059">
        <ele>1027.570494</ele>
        <time>2021-07-07T08:49:48+0200</time>
      </trkpt>
      <trkpt lat="45.73007" lon="2.96052">
        <ele>1029.399735</ele>
        <time>2021-07-07T08:49:51+0200</time>
      </trkpt>
      <trkpt lat="45.73005" lon="2.96046">
        <ele>1029.429046</ele>
        <time>2021-07-07T08:49:53+0200</time>
      </trkpt>
      <trkpt lat="45.73002" lon="2.96037">
        <ele>1030.901418</ele>
        <time>2021-07-07T08:49:56+0200</time>
      </trkpt>
      <trkpt lat="45.73" lon="2.96029">
        <ele>1031.154859</ele>
        <time>2021-07-07T08:49:59+0200</time>
      </trkpt>
      <trkpt lat="45.72997" lon="2.96024">
        <ele>1030.129898</ele>
        <time>2021-07-07T08:50:02+0200</time>
      </trkpt>
      <trkpt lat="45.72994" lon="2.96018">
        <ele>1030.681249</ele>
        <time>2021-07-07T08:50:05+0200</time>
      </trkpt>
      <trkpt lat="45.7299" lon="2.96012">
        <ele>1032.103927</ele>
        <time>2021-07-07T08:50:08+0200</time>
      </trkpt>
      <trkpt lat="45.72986" lon="2.96004">
        <ele>1033.322459</ele>
        <time>2021-07-07T08:50:11+0200</time>
      </trkpt>
      <trkpt lat="45.7298" lon="2.95997">
        <ele>1035.336576</ele>
        <time>2021-07-07T08:50:15+0200</time>
      </trkpt>
      <trkpt lat="45.72977" lon="2.95992">
        <ele>1036.743409</ele>
        <time>2021-07-07T08:50:18+0200</time>
      </trkpt>
      <trkpt lat="45.72973" lon="2.95987">
        <ele>1037.88486</ele>
        <time>2021-07-07T08:50:21+0200</time>
      </trkpt>
      <trkpt lat="45.72968" lon="2.95982">
        <ele>1038.394703</ele>
        <time>2021-07-07T08:50:25+0200</time>
      </trkpt>
      <trkpt lat="45.72964" lon="2.95978">
        <ele>1038.758435</ele>
        <time>2021-07-07T08:50:28+0200</time>
      </trkpt>
      <trkpt lat="45.72961" lon="2.95973">
        <ele>1038.560656</ele>
        <time>2021-07-07T08:50:31+0200</time>
      </trkpt>
      <trkpt lat="45.72954" lon="2.95968">
        <ele>1039.485197</ele>
        <time>2021-07-07T08:50:34+0200</time>
      </trkpt>
      <trkpt lat="45.7295" lon="2.95964">
        <ele>1040.904663</ele>
        <time>2021-07-07T08:50:37+0200</time>
      </trkpt>
      <trkpt lat="45.72947" lon="2.9596">
        <ele>1041.151505</ele>
        <time>2021-07-07T08:50:41+0200</time>
      </trkpt>
      <trkpt lat="45.72942" lon="2.95955">
        <ele>1041.445133</ele>
        <time>2021-07-07T08:50:44+0200</time>
      </trkpt>
      <trkpt lat="45.72936" lon="2.95947">
        <ele>1041.191688</ele>
        <time>2021-07-07T08:50:47+0200</time>
      </trkpt>
      <trkpt lat="45.72932" lon="2.95941">
        <ele>1042.140913</ele>
        <time>2021-07-07T08:50:51+0200</time>
      </trkpt>
      <trkpt lat="45.72927" lon="2.95938">
        <ele>1041.247302</ele>
        <time>2021-07-07T08:50:54+0200</time>
      </trkpt>
      <trkpt lat="45.72923" lon="2.95932">
        <ele>1041.915617</ele>
        <time>2021-07-07T08:50:58+0200</time>
      </trkpt>
      <trkpt lat="45.72919" lon="2.95928">
        <ele>1044.640227</ele>
        <time>2021-07-07T08:51:02+0200</time>
      </trkpt>
      <trkpt lat="45.72914" lon="2.95924">
        <ele>1045.388513</ele>
        <time>2021-07-07T08:51:06+0200</time>
      </trkpt>
      <trkpt lat="45.7291" lon="2.95921">
        <ele>1046.23808</ele>
        <time>2021-07-07T08:51:09+0200</time>
      </trkpt>
      <trkpt lat="45.72905" lon="2.95919">
        <ele>1047.610473</ele>
        <time>2021-07-07T08:51:12+0200</time>
      </trkpt>
      <trkpt lat="45.729" lon="2.95913">
        <ele>1046.432188</ele>
        <time>2021-07-07T08:51:15+0200</time>
      </trkpt>
      <trkpt lat="45.72896" lon="2.95911">
        <ele>1046.330413</ele>
        <time>2021-07-07T08:51:18+0200</time>
      </trkpt>
      <trkpt lat="45.72892" lon="2.95908">
        <ele>1047.267492</ele>
        <time>2021-07-07T08:51:21+0200</time>
      </trkpt>
      <trkpt lat="45.72887" lon="2.95903">
        <ele>1047.903524</ele>
        <time>2021-07-07T08:51:25+0200</time>
      </trkpt>
      <trkpt lat="45.72884" lon="2.95896">
        <ele>1046.902697</ele>
        <time>2021-07-07T08:51:27+0200</time>
      </trkpt>
      <trkpt lat="45.72881" lon="2.95893">
        <ele>1047.731198</ele>
        <time>2021-07-07T08:51:30+0200</time>
      </trkpt>
      <trkpt lat="45.72877" lon="2.95889">
        <ele>1047.929437</ele>
        <time>2021-07-07T08:51:32+0200</time>
      </trkpt>
      <trkpt lat="45.72873" lon="2.95884">
        <ele>1048.575726</ele>
        <time>2021-07-07T08:51:35+0200</time>
      </trkpt>
      <trkpt lat="45.72868" lon="2.95879">
        <ele>1048.669765</ele>
        <time>2021-07-07T08:51:39+0200</time>
      </trkpt>
      <trkpt lat="45.72864" lon="2.95874">
        <ele>1048.240175</ele>
        <time>2021-07-07T08:51:42+0200</time>
      </trkpt>
      <trkpt lat="45.72862" lon="2.95868">
        <ele>1047.87334</ele>
        <time>2021-07-07T08:51:43+0200</time>
      </trkpt>
      <trkpt lat="45.72859" lon="2.95862">
        <ele>1046.615726</ele>
        <time>2021-07-07T08:51:45+0200</time>
      </trkpt>
      <trkpt lat="45.72856" lon="2.95854">
        <ele>1047.484465</ele>
        <time>2021-07-07T08:51:49+0200</time>
      </trkpt>
      <trkpt lat="45.72852" lon="2.95847">
        <ele>1049.153795</ele>
        <time>2021-07-07T08:51:53+0200</time>
      </trkpt>
      <trkpt lat="45.72849" lon="2.95841">
        <ele>1048.438303</ele>
        <time>2021-07-07T08:51:56+0200</time>
      </trkpt>
      <trkpt lat="45.72846" lon="2.95833">
        <ele>1051.537685</ele>
        <time>2021-07-07T08:52:00+0200</time>
      </trkpt>
      <trkpt lat="45.72845" lon="2.95827">
        <ele>1052.098543</ele>
        <time>2021-07-07T08:52:03+0200</time>
      </trkpt>
      <trkpt lat="45.72841" lon="2.9582">
        <ele>1051.765534</ele>
        <time>2021-07-07T08:52:06+0200</time>
      </trkpt>
      <trkpt lat="45.72839" lon="2.95813">
        <ele>1051.724445</ele>
        <time>2021-07-07T08:52:08+0200</time>
      </trkpt>
      <trkpt lat="45.72837" lon="2.95807">
        <ele>1051.234647</ele>
        <time>2021-07-07T08:52:10+0200</time>
      </trkpt>
      <trkpt lat="45.72833" lon="2.95802">
        <ele>1051.268249</ele>
        <time>2021-07-07T08:52:13+0200</time>
      </trkpt>
      <trkpt lat="45.72828" lon="2.95796">
        <ele>1052.160311</ele>
        <time>2021-07-07T08:52:17+0200</time>
      </trkpt>
      <trkpt lat="45.72824" lon="2.95792">
        <ele>1051.033375</ele>
        <time>2021-07-07T08:52:19+0200</time>
      </trkpt>
      <trkpt lat="45.72821" lon="2.95785">
        <ele>1052.05166</ele>
        <time>2021-07-07T08:52:23+0200</time>
      </trkpt>
      <trkpt lat="45.72817" lon="2.95779">
        <ele>1054.03345</ele>
        <time>2021-07-07T08:52:27+0200</time>
      </trkpt>
      <trkpt lat="45.72816" lon="2.95772">
        <ele>1054.764266</ele>
        <time>2021-07-07T08:52:34+0200</time>
      </trkpt>
      <trkpt lat="45.72816" lon="2.95765">
        <ele>1053.604968</ele>
        <time>2021-07-07T08:52:47+0200</time>
      </trkpt>
      <trkpt lat="45.72815" lon="2.95771">
        <ele>1059.305965</ele>
        <time>2021-07-07T08:53:03+0200</time>
      </trkpt>
      <trkpt lat="45.72811" lon="2.95767">
        <ele>1055.331458</ele>
        <time>2021-07-07T08:53:24+0200</time>
      </trkpt>
      <trkpt lat="45.72807" lon="2.95761">
        <ele>1055.915839</ele>
        <time>2021-07-07T08:53:29+0200</time>
      </trkpt>
      <trkpt lat="45.72803" lon="2.95757">
        <ele>1054.638591</ele>
        <time>2021-07-07T08:53:33+0200</time>
      </trkpt>
      <trkpt lat="45.728" lon="2.95751">
        <ele>1054.965121</ele>
        <time>2021-07-07T08:53:36+0200</time>
      </trkpt>
      <trkpt lat="45.72796" lon="2.95747">
        <ele>1054.630858</ele>
        <time>2021-07-07T08:53:39+0200</time>
      </trkpt>
      <trkpt lat="45.72792" lon="2.9574">
        <ele>1054.78744</ele>
        <time>2021-07-07T08:53:42+0200</time>
      </trkpt>
      <trkpt lat="45.72788" lon="2.95736">
        <ele>1056.959321</ele>
        <time>2021-07-07T08:53:45+0200</time>
      </trkpt>
      <trkpt lat="45.72783" lon="2.9573">
        <ele>1055.405745</ele>
        <time>2021-07-07T08:53:47+0200</time>
      </trkpt>
      <trkpt lat="45.72778" lon="2.95722">
        <ele>1057.287514</ele>
        <time>2021-07-07T08:53:50+0200</time>
      </trkpt>
      <trkpt lat="45.72773" lon="2.95715">
        <ele>1057.750354</ele>
        <time>2021-07-07T08:53:53+0200</time>
      </trkpt>
      <trkpt lat="45.7277" lon="2.95709">
        <ele>1059.109281</ele>
        <time>2021-07-07T08:53:55+0200</time>
      </trkpt>
      <trkpt lat="45.72767" lon="2.95704">
        <ele>1060.226297</ele>
        <time>2021-07-07T08:53:57+0200</time>
      </trkpt>
      <trkpt lat="45.72763" lon="2.95697">
        <ele>1060.456186</ele>
        <time>2021-07-07T08:54:00+0200</time>
      </trkpt>
      <trkpt lat="45.72759" lon="2.95691">
        <ele>1060.309772</ele>
        <time>2021-07-07T08:54:02+0200</time>
      </trkpt>
      <trkpt lat="45.72756" lon="2.95685">
        <ele>1059.248042</ele>
        <time>2021-07-07T08:54:04+0200</time>
      </trkpt>
      <trkpt lat="45.72752" lon="2.95682">
        <ele>1059.321819</ele>
        <time>2021-07-07T08:54:07+0200</time>
      </trkpt>
      <trkpt lat="45.72747" lon="2.95677">
        <ele>1058.920446</ele>
        <time>2021-07-07T08:54:09+0200</time>
      </trkpt>
      <trkpt lat="45.72741" lon="2.95672">
        <ele>1059.514308</ele>
        <time>2021-07-07T08:54:12+0200</time>
      </trkpt>
      <trkpt lat="45.72738" lon="2.95667">
        <ele>1059.344427</ele>
        <time>2021-07-07T08:54:14+0200</time>
      </trkpt>
      <trkpt lat="45.72734" lon="2.95663">
        <ele>1060.022671</ele>
        <time>2021-07-07T08:54:16+0200</time>
      </trkpt>
      <trkpt lat="45.72729" lon="2.95658">
        <ele>1060.131407</ele>
        <time>2021-07-07T08:54:18+0200</time>
      </trkpt>
      <trkpt lat="45.72725" lon="2.95652">
        <ele>1059.708903</ele>
        <time>2021-07-07T08:54:20+0200</time>
      </trkpt>
      <trkpt lat="45.7272" lon="2.95647">
        <ele>1060.59513</ele>
        <time>2021-07-07T08:54:22+0200</time>
      </trkpt>
      <trkpt lat="45.72715" lon="2.95644">
        <ele>1061.197585</ele>
        <time>2021-07-07T08:54:25+0200</time>
      </trkpt>
      <trkpt lat="45.72707" lon="2.95642">
        <ele>1061.235184</ele>
        <time>2021-07-07T08:54:28+0200</time>
      </trkpt>
      <trkpt lat="45.72702" lon="2.95639">
        <ele>1060.382328</ele>
        <time>2021-07-07T08:54:29+0200</time>
      </trkpt>
      <trkpt lat="45.72695" lon="2.95638">
        <ele>1061.347694</ele>
        <time>2021-07-07T08:54:32+0200</time>
      </trkpt>
      <trkpt lat="45.72688" lon="2.95636">
        <ele>1061.64809</ele>
        <time>2021-07-07T08:54:35+0200</time>
      </trkpt>
      <trkpt lat="45.72683" lon="2.95637">
        <ele>1063.168904</ele>
        <time>2021-07-07T08:54:37+0200</time>
      </trkpt>
      <trkpt lat="45.72678" lon="2.95638">
        <ele>1063.890985</ele>
        <time>2021-07-07T08:54:39+0200</time>
      </trkpt>
      <trkpt lat="45.72673" lon="2.95644">
        <ele>1064.689882</ele>
        <time>2021-07-07T08:54:41+0200</time>
      </trkpt>
      <trkpt lat="45.72668" lon="2.95644">
        <ele>1064.904414</ele>
        <time>2021-07-07T08:54:42+0200</time>
      </trkpt>
      <trkpt lat="45.72663" lon="2.95643">
        <ele>1066.117842</ele>
        <time>2021-07-07T08:54:44+0200</time>
      </trkpt>
      <trkpt lat="45.72659" lon="2.95643">
        <ele>1066.414609</ele>
        <time>2021-07-07T08:54:46+0200</time>
      </trkpt>
      <trkpt lat="45.72653" lon="2.95643">
        <ele>1066.702123</ele>
        <time>2021-07-07T08:54:48+0200</time>
      </trkpt>
      <trkpt lat="45.72646" lon="2.95645">
        <ele>1066.280357</ele>
        <time>2021-07-07T08:54:50+0200</time>
      </trkpt>
      <trkpt lat="45.72639" lon="2.95645">
        <ele>1066.165671</ele>
        <time>2021-07-07T08:54:53+0200</time>
      </trkpt>
      <trkpt lat="45.72633" lon="2.95643">
        <ele>1065.885228</ele>
        <time>2021-07-07T08:54:55+0200</time>
      </trkpt>
      <trkpt lat="45.72626" lon="2.95641">
        <ele>1064.967016</ele>
        <time>2021-07-07T08:54:57+0200</time>
      </trkpt>
      <trkpt lat="45.7262" lon="2.95642">
        <ele>1065.664098</ele>
        <time>2021-07-07T08:54:59+0200</time>
      </trkpt>
      <trkpt lat="45.72615" lon="2.95642">
        <ele>1066.266239</ele>
        <time>2021-07-07T08:55:01+0200</time>
      </trkpt>
      <trkpt lat="45.72609" lon="2.9564">
        <ele>1065.988188</ele>
        <time>2021-07-07T08:55:03+0200</time>
      </trkpt>
      <trkpt lat="45.72602" lon="2.95637">
        <ele>1065.02764</ele>
        <time>2021-07-07T08:55:05+0200</time>
      </trkpt>
      <trkpt lat="45.72596" lon="2.95636">
        <ele>1065.186541</ele>
        <time>2021-07-07T08:55:07+0200</time>
      </trkpt>
      <trkpt lat="45.72589" lon="2.95632">
        <ele>1067.614181</ele>
        <time>2021-07-07T08:55:10+0200</time>
      </trkpt>
      <trkpt lat="45.72582" lon="2.95624">
        <ele>1068.631308</ele>
        <time>2021-07-07T08:55:13+0200</time>
      </trkpt>
      <trkpt lat="45.72577" lon="2.95621">
        <ele>1068.912139</ele>
        <time>2021-07-07T08:55:15+0200</time>
      </trkpt>
      <trkpt lat="45.7257" lon="2.95616">
        <ele>1069.615663</ele>
        <time>2021-07-07T08:55:18+0200</time>
      </trkpt>
      <trkpt lat="45.72563" lon="2.95608">
        <ele>1069.747889</ele>
        <time>2021-07-07T08:55:20+0200</time>
      </trkpt>
      <trkpt lat="45.72557" lon="2.95603">
        <ele>1069.294139</ele>
        <time>2021-07-07T08:55:23+0200</time>
      </trkpt>
      <trkpt lat="45.72551" lon="2.95601">
        <ele>1069.109813</ele>
        <time>2021-07-07T08:55:26+0200</time>
      </trkpt>
      <trkpt lat="45.72546" lon="2.95595">
        <ele>1068.203754</ele>
        <time>2021-07-07T08:55:28+0200</time>
      </trkpt>
      <trkpt lat="45.72541" lon="2.9559">
        <ele>1067.443682</ele>
        <time>2021-07-07T08:55:31+0200</time>
      </trkpt>
      <trkpt lat="45.72537" lon="2.95584">
        <ele>1069.145689</ele>
        <time>2021-07-07T08:55:33+0200</time>
      </trkpt>
      <trkpt lat="45.72531" lon="2.95579">
        <ele>1068.539674</ele>
        <time>2021-07-07T08:55:35+0200</time>
      </trkpt>
      <trkpt lat="45.72526" lon="2.95573">
        <ele>1068.443401</ele>
        <time>2021-07-07T08:55:37+0200</time>
      </trkpt>
      <trkpt lat="45.72518" lon="2.95566">
        <ele>1069.006102</ele>
        <time>2021-07-07T08:55:39+0200</time>
      </trkpt>
      <trkpt lat="45.72514" lon="2.95562">
        <ele>1068.047922</ele>
        <time>2021-07-07T08:55:41+0200</time>
      </trkpt>
      <trkpt lat="45.72509" lon="2.95558">
        <ele>1068.0649</ele>
        <time>2021-07-07T08:55:43+0200</time>
      </trkpt>
      <trkpt lat="45.72504" lon="2.95551">
        <ele>1066.107098</ele>
        <time>2021-07-07T08:55:45+0200</time>
      </trkpt>
      <trkpt lat="45.72499" lon="2.95549">
        <ele>1067.05463</ele>
        <time>2021-07-07T08:55:47+0200</time>
      </trkpt>
      <trkpt lat="45.72495" lon="2.95545">
        <ele>1067.926341</ele>
        <time>2021-07-07T08:55:50+0200</time>
      </trkpt>
      <trkpt lat="45.72491" lon="2.95542">
        <ele>1067.90026</ele>
        <time>2021-07-07T08:55:51+0200</time>
      </trkpt>
      <trkpt lat="45.72485" lon="2.95535">
        <ele>1068.419122</ele>
        <time>2021-07-07T08:55:53+0200</time>
      </trkpt>
      <trkpt lat="45.72481" lon="2.95531">
        <ele>1069.277336</ele>
        <time>2021-07-07T08:55:55+0200</time>
      </trkpt>
      <trkpt lat="45.72478" lon="2.95528">
        <ele>1069.66291</ele>
        <time>2021-07-07T08:55:57+0200</time>
      </trkpt>
      <trkpt lat="45.72472" lon="2.95522">
        <ele>1070.597758</ele>
        <time>2021-07-07T08:56:01+0200</time>
      </trkpt>
      <trkpt lat="45.72465" lon="2.95518">
        <ele>1070.288268</ele>
        <time>2021-07-07T08:56:03+0200</time>
      </trkpt>
      <trkpt lat="45.72461" lon="2.95515">
        <ele>1070.552496</ele>
        <time>2021-07-07T08:56:05+0200</time>
      </trkpt>
      <trkpt lat="45.72456" lon="2.95512">
        <ele>1071.814484</ele>
        <time>2021-07-07T08:56:07+0200</time>
      </trkpt>
      <trkpt lat="45.72453" lon="2.95503">
        <ele>1071.704691</ele>
        <time>2021-07-07T08:56:09+0200</time>
      </trkpt>
      <trkpt lat="45.72448" lon="2.955">
        <ele>1070.881069</ele>
        <time>2021-07-07T08:56:12+0200</time>
      </trkpt>
      <trkpt lat="45.72443" lon="2.95496">
        <ele>1070.174515</ele>
        <time>2021-07-07T08:56:15+0200</time>
      </trkpt>
      <trkpt lat="45.72439" lon="2.95487">
        <ele>1069.236315</ele>
        <time>2021-07-07T08:56:17+0200</time>
      </trkpt>
      <trkpt lat="45.72435" lon="2.95481">
        <ele>1069.98121</ele>
        <time>2021-07-07T08:56:19+0200</time>
      </trkpt>
      <trkpt lat="45.7243" lon="2.95474">
        <ele>1070.293365</ele>
        <time>2021-07-07T08:56:21+0200</time>
      </trkpt>
      <trkpt lat="45.72425" lon="2.95468">
        <ele>1071.763328</ele>
        <time>2021-07-07T08:56:24+0200</time>
      </trkpt>
      <trkpt lat="45.72421" lon="2.95464">
        <ele>1071.852258</ele>
        <time>2021-07-07T08:56:27+0200</time>
      </trkpt>
      <trkpt lat="45.72418" lon="2.95457">
        <ele>1072.798099</ele>
        <time>2021-07-07T08:56:29+0200</time>
      </trkpt>
      <trkpt lat="45.72414" lon="2.95451">
        <ele>1072.777594</ele>
        <time>2021-07-07T08:56:31+0200</time>
      </trkpt>
      <trkpt lat="45.7241" lon="2.95445">
        <ele>1073.075097</ele>
        <time>2021-07-07T08:56:33+0200</time>
      </trkpt>
      <trkpt lat="45.72405" lon="2.9544">
        <ele>1075.402105</ele>
        <time>2021-07-07T08:56:36+0200</time>
      </trkpt>
      <trkpt lat="45.72403" lon="2.95433">
        <ele>1074.87992</ele>
        <time>2021-07-07T08:56:38+0200</time>
      </trkpt>
      <trkpt lat="45.72399" lon="2.9543">
        <ele>1075.435636</ele>
        <time>2021-07-07T08:56:41+0200</time>
      </trkpt>
      <trkpt lat="45.72394" lon="2.95425">
        <ele>1076.525917</ele>
        <time>2021-07-07T08:56:45+0200</time>
      </trkpt>
      <trkpt lat="45.72389" lon="2.95422">
        <ele>1077.480996</ele>
        <time>2021-07-07T08:56:48+0200</time>
      </trkpt>
      <trkpt lat="45.72385" lon="2.95413">
        <ele>1076.118992</ele>
        <time>2021-07-07T08:56:50+0200</time>
      </trkpt>
      <trkpt lat="45.72381" lon="2.95406">
        <ele>1075.878413</ele>
        <time>2021-07-07T08:56:52+0200</time>
      </trkpt>
      <trkpt lat="45.72376" lon="2.95401">
        <ele>1075.144441</ele>
        <time>2021-07-07T08:56:54+0200</time>
      </trkpt>
      <trkpt lat="45.72372" lon="2.95393">
        <ele>1076.100707</ele>
        <time>2021-07-07T08:56:57+0200</time>
      </trkpt>
      <trkpt lat="45.72368" lon="2.9539">
        <ele>1076.33601</ele>
        <time>2021-07-07T08:57:00+0200</time>
      </trkpt>
      <trkpt lat="45.72362" lon="2.95386">
        <ele>1078.417646</ele>
        <time>2021-07-07T08:57:03+0200</time>
      </trkpt>
      <trkpt lat="45.72357" lon="2.95377">
        <ele>1079.027176</ele>
        <time>2021-07-07T08:57:06+0200</time>
      </trkpt>
      <trkpt lat="45.72355" lon="2.9537">
        <ele>1078.737542</ele>
        <time>2021-07-07T08:57:09+0200</time>
      </trkpt>
      <trkpt lat="45.7235" lon="2.95366">
        <ele>1080.466826</ele>
        <time>2021-07-07T08:57:12+0200</time>
      </trkpt>
      <trkpt lat="45.72345" lon="2.95362">
        <ele>1081.807187</ele>
        <time>2021-07-07T08:57:16+0200</time>
      </trkpt>
      <trkpt lat="45.72341" lon="2.95355">
        <ele>1081.893772</ele>
        <time>2021-07-07T08:57:19+0200</time>
      </trkpt>
      <trkpt lat="45.72336" lon="2.9535">
        <ele>1082.781672</ele>
        <time>2021-07-07T08:57:21+0200</time>
      </trkpt>
      <trkpt lat="45.72333" lon="2.95345">
        <ele>1083.066435</ele>
        <time>2021-07-07T08:57:24+0200</time>
      </trkpt>
      <trkpt lat="45.72329" lon="2.95341">
        <ele>1083.536143</ele>
        <time>2021-07-07T08:57:26+0200</time>
      </trkpt>
      <trkpt lat="45.72324" lon="2.95337">
        <ele>1085.840059</ele>
        <time>2021-07-07T08:57:29+0200</time>
      </trkpt>
      <trkpt lat="45.72319" lon="2.95334">
        <ele>1086.302256</ele>
        <time>2021-07-07T08:57:31+0200</time>
      </trkpt>
      <trkpt lat="45.72315" lon="2.9533">
        <ele>1087.03516</ele>
        <time>2021-07-07T08:57:34+0200</time>
      </trkpt>
      <trkpt lat="45.7231" lon="2.95325">
        <ele>1085.83485</ele>
        <time>2021-07-07T08:57:36+0200</time>
      </trkpt>
      <trkpt lat="45.72304" lon="2.95319">
        <ele>1085.015592</ele>
        <time>2021-07-07T08:57:39+0200</time>
      </trkpt>
      <trkpt lat="45.723" lon="2.95313">
        <ele>1083.84796</ele>
        <time>2021-07-07T08:57:42+0200</time>
      </trkpt>
      <trkpt lat="45.72297" lon="2.95305">
        <ele>1082.330992</ele>
        <time>2021-07-07T08:57:44+0200</time>
      </trkpt>
      <trkpt lat="45.72293" lon="2.953">
        <ele>1082.168165</ele>
        <time>2021-07-07T08:57:47+0200</time>
      </trkpt>
      <trkpt lat="45.72289" lon="2.95299">
        <ele>1083.746859</ele>
        <time>2021-07-07T08:57:49+0200</time>
      </trkpt>
      <trkpt lat="45.72284" lon="2.95296">
        <ele>1084.564431</ele>
        <time>2021-07-07T08:57:51+0200</time>
      </trkpt>
      <trkpt lat="45.72281" lon="2.95291">
        <ele>1084.424773</ele>
        <time>2021-07-07T08:57:53+0200</time>
      </trkpt>
      <trkpt lat="45.72275" lon="2.95287">
        <ele>1086.511361</ele>
        <time>2021-07-07T08:57:56+0200</time>
      </trkpt>
      <trkpt lat="45.72273" lon="2.95281">
        <ele>1086.91222</ele>
        <time>2021-07-07T08:57:59+0200</time>
      </trkpt>
      <trkpt lat="45.72269" lon="2.95274">
        <ele>1086.907664</ele>
        <time>2021-07-07T08:58:02+0200</time>
      </trkpt>
      <trkpt lat="45.72267" lon="2.95267">
        <ele>1088.298312</ele>
        <time>2021-07-07T08:58:05+0200</time>
      </trkpt>
      <trkpt lat="45.72263" lon="2.95262">
        <ele>1090.840598</ele>
        <time>2021-07-07T08:58:08+0200</time>
      </trkpt>
      <trkpt lat="45.72258" lon="2.95256">
        <ele>1091.084267</ele>
        <time>2021-07-07T08:58:10+0200</time>
      </trkpt>
      <trkpt lat="45.72253" lon="2.95254">
        <ele>1090.660419</ele>
        <time>2021-07-07T08:58:11+0200</time>
      </trkpt>
      <trkpt lat="45.72245" lon="2.95252">
        <ele>1091.80133</ele>
        <time>2021-07-07T08:58:13+0200</time>
      </trkpt>
      <trkpt lat="45.7224" lon="2.95247">
        <ele>1091.735809</ele>
        <time>2021-07-07T08:58:15+0200</time>
      </trkpt>
      <trkpt lat="45.72236" lon="2.95245">
        <ele>1091.413373</ele>
        <time>2021-07-07T08:58:17+0200</time>
      </trkpt>
      <trkpt lat="45.7223" lon="2.9524">
        <ele>1090.364068</ele>
        <time>2021-07-07T08:58:20+0200</time>
      </trkpt>
      <trkpt lat="45.72227" lon="2.95232">
        <ele>1090.212633</ele>
        <time>2021-07-07T08:58:22+0200</time>
      </trkpt>
      <trkpt lat="45.72222" lon="2.95227">
        <ele>1090.555858</ele>
        <time>2021-07-07T08:58:24+0200</time>
      </trkpt>
      <trkpt lat="45.72219" lon="2.9522">
        <ele>1090.713531</ele>
        <time>2021-07-07T08:58:26+0200</time>
      </trkpt>
      <trkpt lat="45.72216" lon="2.9521">
        <ele>1091.948105</ele>
        <time>2021-07-07T08:58:29+0200</time>
      </trkpt>
      <trkpt lat="45.72211" lon="2.95207">
        <ele>1093.334002</ele>
        <time>2021-07-07T08:58:31+0200</time>
      </trkpt>
      <trkpt lat="45.72207" lon="2.95208">
        <ele>1098.654165</ele>
        <time>2021-07-07T08:58:38+0200</time>
      </trkpt>
      <trkpt lat="45.72201" lon="2.95208">
        <ele>1099.872264</ele>
        <time>2021-07-07T08:59:14+0200</time>
      </trkpt>
      <trkpt lat="45.72205" lon="2.95213">
        <ele>1100.398027</ele>
        <time>2021-07-07T09:00:10+0200</time>
      </trkpt>
      <trkpt lat="45.722" lon="2.95216">
        <ele>1096.710472</ele>
        <time>2021-07-07T09:00:24+0200</time>
      </trkpt>
      <trkpt lat="45.72194" lon="2.95216">
        <ele>1097.966469</ele>
        <time>2021-07-07T09:00:28+0200</time>
      </trkpt>
      <trkpt lat="45.72186" lon="2.95211">
        <ele>1097.443935</ele>
        <time>2021-07-07T09:00:30+0200</time>
      </trkpt>
      <trkpt lat="45.72182" lon="2.95206">
        <ele>1097.911512</ele>
        <time>2021-07-07T09:00:31+0200</time>
      </trkpt>
      <trkpt lat="45.72178" lon="2.95202">
        <ele>1098.199439</ele>
        <time>2021-07-07T09:00:32+0200</time>
      </trkpt>
      <trkpt lat="45.72174" lon="2.95199">
        <ele>1097.905044</ele>
        <time>2021-07-07T09:00:33+0200</time>
      </trkpt>
      <trkpt lat="45.7217" lon="2.95194">
        <ele>1097.001923</ele>
        <time>2021-07-07T09:00:34+0200</time>
      </trkpt>
      <trkpt lat="45.72166" lon="2.9519">
        <ele>1096.589464</ele>
        <time>2021-07-07T09:00:35+0200</time>
      </trkpt>
      <trkpt lat="45.7216" lon="2.95187">
        <ele>1095.712271</ele>
        <time>2021-07-07T09:00:36+0200</time>
      </trkpt>
      <trkpt lat="45.72156" lon="2.95184">
        <ele>1094.443126</ele>
        <time>2021-07-07T09:00:37+0200</time>
      </trkpt>
      <trkpt lat="45.7215" lon="2.9518">
        <ele>1094.546992</ele>
        <time>2021-07-07T09:00:38+0200</time>
      </trkpt>
      <trkpt lat="45.72142" lon="2.95176">
        <ele>1092.9483</ele>
        <time>2021-07-07T09:00:39+0200</time>
      </trkpt>
      <trkpt lat="45.72135" lon="2.95173">
        <ele>1091.25707</ele>
        <time>2021-07-07T09:00:40+0200</time>
      </trkpt>
      <trkpt lat="45.72129" lon="2.95171">
        <ele>1090.105462</ele>
        <time>2021-07-07T09:00:41+0200</time>
      </trkpt>
      <trkpt lat="45.72124" lon="2.95167">
        <ele>1088.583075</ele>
        <time>2021-07-07T09:00:42+0200</time>
      </trkpt>
      <trkpt lat="45.7212" lon="2.95164">
        <ele>1087.782004</ele>
        <time>2021-07-07T09:00:43+0200</time>
      </trkpt>
      <trkpt lat="45.72114" lon="2.95165">
        <ele>1088.179065</ele>
        <time>2021-07-07T09:00:44+0200</time>
      </trkpt>
      <trkpt lat="45.72109" lon="2.95167">
        <ele>1088.365551</ele>
        <time>2021-07-07T09:00:45+0200</time>
      </trkpt>
      <trkpt lat="45.72103" lon="2.95164">
        <ele>1087.906372</ele>
        <time>2021-07-07T09:00:46+0200</time>
      </trkpt>
      <trkpt lat="45.72097" lon="2.95159">
        <ele>1087.825718</ele>
        <time>2021-07-07T09:00:47+0200</time>
      </trkpt>
      <trkpt lat="45.72092" lon="2.95156">
        <ele>1086.495014</ele>
        <time>2021-07-07T09:00:48+0200</time>
      </trkpt>
      <trkpt lat="45.72087" lon="2.95153">
        <ele>1085.074199</ele>
        <time>2021-07-07T09:00:49+0200</time>
      </trkpt>
      <trkpt lat="45.7208" lon="2.95153">
        <ele>1084.017738</ele>
        <time>2021-07-07T09:00:50+0200</time>
      </trkpt>
      <trkpt lat="45.72075" lon="2.9515">
        <ele>1082.798755</ele>
        <time>2021-07-07T09:00:51+0200</time>
      </trkpt>
      <trkpt lat="45.7207" lon="2.95149">
        <ele>1081.650396</ele>
        <time>2021-07-07T09:00:52+0200</time>
      </trkpt>
      <trkpt lat="45.72065" lon="2.95145">
        <ele>1081.27956</ele>
        <time>2021-07-07T09:00:53+0200</time>
      </trkpt>
      <trkpt lat="45.7206" lon="2.95143">
        <ele>1081.619573</ele>
        <time>2021-07-07T09:00:54+0200</time>
      </trkpt>
      <trkpt lat="45.72056" lon="2.95137">
        <ele>1082.236814</ele>
        <time>2021-07-07T09:00:55+0200</time>
      </trkpt>
      <trkpt lat="45.72049" lon="2.95134">
        <ele>1082.3942</ele>
        <time>2021-07-07T09:00:56+0200</time>
      </trkpt>
      <trkpt lat="45.72044" lon="2.95131">
        <ele>1083.268918</ele>
        <time>2021-07-07T09:00:57+0200</time>
      </trkpt>
      <trkpt lat="45.72036" lon="2.95125">
        <ele>1081.807789</ele>
        <time>2021-07-07T09:00:59+0200</time>
      </trkpt>
      <trkpt lat="45.72032" lon="2.95119">
        <ele>1080.410423</ele>
        <time>2021-07-07T09:01:00+0200</time>
      </trkpt>
      <trkpt lat="45.72026" lon="2.95113">
        <ele>1079.891185</ele>
        <time>2021-07-07T09:01:01+0200</time>
      </trkpt>
      <trkpt lat="45.7202" lon="2.9511">
        <ele>1079.858013</ele>
        <time>2021-07-07T09:01:02+0200</time>
      </trkpt>
      <trkpt lat="45.72013" lon="2.95107">
        <ele>1079.586998</ele>
        <time>2021-07-07T09:01:03+0200</time>
      </trkpt>
      <trkpt lat="45.72006" lon="2.95102">
        <ele>1078.880959</ele>
        <time>2021-07-07T09:01:04+0200</time>
      </trkpt>
      <trkpt lat="45.72" lon="2.95098">
        <ele>1077.983968</ele>
        <time>2021-07-07T09:01:05+0200</time>
      </trkpt>
      <trkpt lat="45.71994" lon="2.95096">
        <ele>1076.705439</ele>
        <time>2021-07-07T09:01:06+0200</time>
      </trkpt>
      <trkpt lat="45.71988" lon="2.95093">
        <ele>1077.054017</ele>
        <time>2021-07-07T09:01:07+0200</time>
      </trkpt>
      <trkpt lat="45.71983" lon="2.95092">
        <ele>1077.201991</ele>
        <time>2021-07-07T09:01:08+0200</time>
      </trkpt>
      <trkpt lat="45.71978" lon="2.9509">
        <ele>1076.191799</ele>
        <time>2021-07-07T09:01:09+0200</time>
      </trkpt>
      <trkpt lat="45.71971" lon="2.95084">
        <ele>1075.458131</ele>
        <time>2021-07-07T09:01:10+0200</time>
      </trkpt>
      <trkpt lat="45.71963" lon="2.9508">
        <ele>1074.470935</ele>
        <time>2021-07-07T09:01:11+0200</time>
      </trkpt>
      <trkpt lat="45.71959" lon="2.95078">
        <ele>1074.08079</ele>
        <time>2021-07-07T09:01:12+0200</time>
      </trkpt>
      <trkpt lat="45.71954" lon="2.95077">
        <ele>1073.967039</ele>
        <time>2021-07-07T09:01:13+0200</time>
      </trkpt>
      <trkpt lat="45.7195" lon="2.95073">
        <ele>1073.064678</ele>
        <time>2021-07-07T09:01:14+0200</time>
      </trkpt>
      <trkpt lat="45.71945" lon="2.95069">
        <ele>1072.778311</ele>
        <time>2021-07-07T09:01:15+0200</time>
      </trkpt>
      <trkpt lat="45.71939" lon="2.95065">
        <ele>1073.348059</ele>
        <time>2021-07-07T09:01:16+0200</time>
      </trkpt>
      <trkpt lat="45.71934" lon="2.95063">
        <ele>1073.041391</ele>
        <time>2021-07-07T09:01:17+0200</time>
      </trkpt>
      <trkpt lat="45.7193" lon="2.9506">
        <ele>1073.057081</ele>
        <time>2021-07-07T09:01:18+0200</time>
      </trkpt>
      <trkpt lat="45.71925" lon="2.95056">
        <ele>1073.431606</ele>
        <time>2021-07-07T09:01:19+0200</time>
      </trkpt>
      <trkpt lat="45.71917" lon="2.95047">
        <ele>1074.346328</ele>
        <time>2021-07-07T09:01:21+0200</time>
      </trkpt>
      <trkpt lat="45.7191" lon="2.95043">
        <ele>1074.469863</ele>
        <time>2021-07-07T09:01:23+0200</time>
      </trkpt>
      <trkpt lat="45.71905" lon="2.95039">
        <ele>1075.299069</ele>
        <time>2021-07-07T09:01:24+0200</time>
      </trkpt>
      <trkpt lat="45.71899" lon="2.95035">
        <ele>1076.925816</ele>
        <time>2021-07-07T09:01:25+0200</time>
      </trkpt>
      <trkpt lat="45.71892" lon="2.95029">
        <ele>1078.311986</ele>
        <time>2021-07-07T09:01:27+0200</time>
      </trkpt>
      <trkpt lat="45.71887" lon="2.95025">
        <ele>1078.202874</ele>
        <time>2021-07-07T09:01:28+0200</time>
      </trkpt>
      <trkpt lat="45.71879" lon="2.95022">
        <ele>1078.68331</ele>
        <time>2021-07-07T09:01:30+0200</time>
      </trkpt>
      <trkpt lat="45.71873" lon="2.95019">
        <ele>1077.945257</ele>
        <time>2021-07-07T09:01:31+0200</time>
      </trkpt>
      <trkpt lat="45.71867" lon="2.95016">
        <ele>1077.367318</ele>
        <time>2021-07-07T09:01:32+0200</time>
      </trkpt>
      <trkpt lat="45.71862" lon="2.95011">
        <ele>1076.675985</ele>
        <time>2021-07-07T09:01:33+0200</time>
      </trkpt>
      <trkpt lat="45.71857" lon="2.95007">
        <ele>1077.170581</ele>
        <time>2021-07-07T09:01:34+0200</time>
      </trkpt>
      <trkpt lat="45.71853" lon="2.95003">
        <ele>1077.162769</ele>
        <time>2021-07-07T09:01:35+0200</time>
      </trkpt>
      <trkpt lat="45.71848" lon="2.95">
        <ele>1076.97519</ele>
        <time>2021-07-07T09:01:36+0200</time>
      </trkpt>
      <trkpt lat="45.71844" lon="2.94996">
        <ele>1076.703866</ele>
        <time>2021-07-07T09:01:37+0200</time>
      </trkpt>
      <trkpt lat="45.71839" lon="2.94991">
        <ele>1076.682009</ele>
        <time>2021-07-07T09:01:38+0200</time>
      </trkpt>
      <trkpt lat="45.71833" lon="2.94986">
        <ele>1074.756499</ele>
        <time>2021-07-07T09:01:39+0200</time>
      </trkpt>
      <trkpt lat="45.71828" lon="2.94982">
        <ele>1074.236696</ele>
        <time>2021-07-07T09:01:40+0200</time>
      </trkpt>
      <trkpt lat="45.71822" lon="2.9498">
        <ele>1074.023522</ele>
        <time>2021-07-07T09:01:41+0200</time>
      </trkpt>
      <trkpt lat="45.71819" lon="2.94976">
        <ele>1074.068263</ele>
        <time>2021-07-07T09:01:42+0200</time>
      </trkpt>
      <trkpt lat="45.71811" lon="2.94968">
        <ele>1075.516215</ele>
        <time>2021-07-07T09:01:44+0200</time>
      </trkpt>
      <trkpt lat="45.71807" lon="2.9496">
        <ele>1077.020222</ele>
        <time>2021-07-07T09:01:45+0200</time>
      </trkpt>
      <trkpt lat="45.718" lon="2.94955">
        <ele>1076.974634</ele>
        <time>2021-07-07T09:01:47+0200</time>
      </trkpt>
      <trkpt lat="45.71793" lon="2.94949">
        <ele>1078.257749</ele>
        <time>2021-07-07T09:01:49+0200</time>
      </trkpt>
      <trkpt lat="45.71786" lon="2.94944">
        <ele>1077.073405</ele>
        <time>2021-07-07T09:01:51+0200</time>
      </trkpt>
      <trkpt lat="45.71778" lon="2.9494">
        <ele>1078.070698</ele>
        <time>2021-07-07T09:01:53+0200</time>
      </trkpt>
      <trkpt lat="45.71773" lon="2.94938">
        <ele>1076.866106</ele>
        <time>2021-07-07T09:01:55+0200</time>
      </trkpt>
      <trkpt lat="45.71767" lon="2.94934">
        <ele>1075.861386</ele>
        <time>2021-07-07T09:01:57+0200</time>
      </trkpt>
      <trkpt lat="45.71761" lon="2.94929">
        <ele>1076.899908</ele>
        <time>2021-07-07T09:01:59+0200</time>
      </trkpt>
      <trkpt lat="45.71756" lon="2.94927">
        <ele>1076.837081</ele>
        <time>2021-07-07T09:02:01+0200</time>
      </trkpt>
      <trkpt lat="45.71747" lon="2.94922">
        <ele>1074.05515</ele>
        <time>2021-07-07T09:02:03+0200</time>
      </trkpt>
      <trkpt lat="45.7174" lon="2.94918">
        <ele>1073.034661</ele>
        <time>2021-07-07T09:02:05+0200</time>
      </trkpt>
      <trkpt lat="45.71733" lon="2.94915">
        <ele>1072.236596</ele>
        <time>2021-07-07T09:02:07+0200</time>
      </trkpt>
      <trkpt lat="45.71727" lon="2.94912">
        <ele>1072.917543</ele>
        <time>2021-07-07T09:02:09+0200</time>
      </trkpt>
      <trkpt lat="45.7172" lon="2.94908">
        <ele>1074.942834</ele>
        <time>2021-07-07T09:02:12+0200</time>
      </trkpt>
      <trkpt lat="45.71714" lon="2.94908">
        <ele>1076.665444</ele>
        <time>2021-07-07T09:02:15+0200</time>
      </trkpt>
      <trkpt lat="45.71707" lon="2.94903">
        <ele>1077.346912</ele>
        <time>2021-07-07T09:02:18+0200</time>
      </trkpt>
      <trkpt lat="45.71701" lon="2.949">
        <ele>1077.462048</ele>
        <time>2021-07-07T09:02:22+0200</time>
      </trkpt>
      <trkpt lat="45.71695" lon="2.94899">
        <ele>1078.782531</ele>
        <time>2021-07-07T09:02:25+0200</time>
      </trkpt>
      <trkpt lat="45.71692" lon="2.94894">
        <ele>1081.235596</ele>
        <time>2021-07-07T09:02:28+0200</time>
      </trkpt>
      <trkpt lat="45.71687" lon="2.94891">
        <ele>1082.854768</ele>
        <time>2021-07-07T09:02:34+0200</time>
      </trkpt>
      <trkpt lat="45.71682" lon="2.94893">
        <ele>1081.486393</ele>
        <time>2021-07-07T09:02:38+0200</time>
      </trkpt>
      <trkpt lat="45.71677" lon="2.94893">
        <ele>1084.190917</ele>
        <time>2021-07-07T09:02:44+0200</time>
      </trkpt>
      <trkpt lat="45.71673" lon="2.94887">
        <ele>1084.832841</ele>
        <time>2021-07-07T09:02:53+0200</time>
      </trkpt>
      <trkpt lat="45.71667" lon="2.94882">
        <ele>1082.931929</ele>
        <time>2021-07-07T09:02:55+0200</time>
      </trkpt>
      <trkpt lat="45.71662" lon="2.94881">
        <ele>1081.974124</ele>
        <time>2021-07-07T09:02:56+0200</time>
      </trkpt>
      <trkpt lat="45.71657" lon="2.94878">
        <ele>1079.9878</ele>
        <time>2021-07-07T09:02:57+0200</time>
      </trkpt>
      <trkpt lat="45.71652" lon="2.94875">
        <ele>1078.016461</ele>
        <time>2021-07-07T09:02:58+0200</time>
      </trkpt>
      <trkpt lat="45.71647" lon="2.94873">
        <ele>1076.948683</ele>
        <time>2021-07-07T09:02:59+0200</time>
      </trkpt>
      <trkpt lat="45.71642" lon="2.94871">
        <ele>1075.915596</ele>
        <time>2021-07-07T09:03:00+0200</time>
      </trkpt>
      <trkpt lat="45.71634" lon="2.94868">
        <ele>1073.289236</ele>
        <time>2021-07-07T09:03:02+0200</time>
      </trkpt>
      <trkpt lat="45.71629" lon="2.94864">
        <ele>1071.923616</ele>
        <time>2021-07-07T09:03:04+0200</time>
      </trkpt>
      <trkpt lat="45.71621" lon="2.94861">
        <ele>1068.830879</ele>
        <time>2021-07-07T09:03:06+0200</time>
      </trkpt>
      <trkpt lat="45.71617" lon="2.94859">
        <ele>1068.720845</ele>
        <time>2021-07-07T09:03:07+0200</time>
      </trkpt>
      <trkpt lat="45.71609" lon="2.94856">
        <ele>1067.082067</ele>
        <time>2021-07-07T09:03:09+0200</time>
      </trkpt>
      <trkpt lat="45.71603" lon="2.94853">
        <ele>1065.439315</ele>
        <time>2021-07-07T09:03:11+0200</time>
      </trkpt>
      <trkpt lat="45.71597" lon="2.94851">
        <ele>1065.709356</ele>
        <time>2021-07-07T09:03:13+0200</time>
      </trkpt>
      <trkpt lat="45.71591" lon="2.94851">
        <ele>1064.864439</ele>
        <time>2021-07-07T09:03:16+0200</time>
      </trkpt>
      <trkpt lat="45.71586" lon="2.94846">
        <ele>1065.615082</ele>
        <time>2021-07-07T09:03:18+0200</time>
      </trkpt>
      <trkpt lat="45.7158" lon="2.9484">
        <ele>1065.914961</ele>
        <time>2021-07-07T09:03:19+0200</time>
      </trkpt>
      <trkpt lat="45.71575" lon="2.94838">
        <ele>1066.135241</ele>
        <time>2021-07-07T09:03:20+0200</time>
      </trkpt>
      <trkpt lat="45.71571" lon="2.94839">
        <ele>1066.342523</ele>
        <time>2021-07-07T09:03:21+0200</time>
      </trkpt>
      <trkpt lat="45.71566" lon="2.94841">
        <ele>1066.182725</ele>
        <time>2021-07-07T09:03:23+0200</time>
      </trkpt>
      <trkpt lat="45.71561" lon="2.9484">
        <ele>1066.391796</ele>
        <time>2021-07-07T09:03:25+0200</time>
      </trkpt>
      <trkpt lat="45.71554" lon="2.9484">
        <ele>1066.334205</ele>
        <time>2021-07-07T09:03:27+0200</time>
      </trkpt>
      <trkpt lat="45.71548" lon="2.94838">
        <ele>1064.425699</ele>
        <time>2021-07-07T09:03:29+0200</time>
      </trkpt>
      <trkpt lat="45.71544" lon="2.94835">
        <ele>1063.980172</ele>
        <time>2021-07-07T09:03:31+0200</time>
      </trkpt>
      <trkpt lat="45.71539" lon="2.94832">
        <ele>1063.906479</ele>
        <time>2021-07-07T09:03:32+0200</time>
      </trkpt>
      <trkpt lat="45.71534" lon="2.94829">
        <ele>1063.384578</ele>
        <time>2021-07-07T09:03:33+0200</time>
      </trkpt>
      <trkpt lat="45.71526" lon="2.94833">
        <ele>1061.420213</ele>
        <time>2021-07-07T09:03:35+0200</time>
      </trkpt>
      <trkpt lat="45.71517" lon="2.9483">
        <ele>1060.243546</ele>
        <time>2021-07-07T09:03:37+0200</time>
      </trkpt>
      <trkpt lat="45.71511" lon="2.94825">
        <ele>1061.131705</ele>
        <time>2021-07-07T09:03:39+0200</time>
      </trkpt>
      <trkpt lat="45.71505" lon="2.94823">
        <ele>1061.315748</ele>
        <time>2021-07-07T09:03:41+0200</time>
      </trkpt>
      <trkpt lat="45.71497" lon="2.94821">
        <ele>1060.017773</ele>
        <time>2021-07-07T09:03:43+0200</time>
      </trkpt>
      <trkpt lat="45.71493" lon="2.94819">
        <ele>1059.182427</ele>
        <time>2021-07-07T09:03:44+0200</time>
      </trkpt>
      <trkpt lat="45.71484" lon="2.94815">
        <ele>1057.678708</ele>
        <time>2021-07-07T09:03:46+0200</time>
      </trkpt>
      <trkpt lat="45.71479" lon="2.94812">
        <ele>1057.701345</ele>
        <time>2021-07-07T09:03:47+0200</time>
      </trkpt>
      <trkpt lat="45.71474" lon="2.9481">
        <ele>1057.319606</ele>
        <time>2021-07-07T09:03:48+0200</time>
      </trkpt>
      <trkpt lat="45.71467" lon="2.94808">
        <ele>1057.714078</ele>
        <time>2021-07-07T09:03:49+0200</time>
      </trkpt>
      <trkpt lat="45.71463" lon="2.94808">
        <ele>1056.926833</ele>
        <time>2021-07-07T09:03:50+0200</time>
      </trkpt>
      <trkpt lat="45.71454" lon="2.94805">
        <ele>1055.279119</ele>
        <time>2021-07-07T09:03:52+0200</time>
      </trkpt>
      <trkpt lat="45.71449" lon="2.94804">
        <ele>1053.631449</ele>
        <time>2021-07-07T09:03:53+0200</time>
      </trkpt>
      <trkpt lat="45.71444" lon="2.94802">
        <ele>1053.074506</ele>
        <time>2021-07-07T09:03:54+0200</time>
      </trkpt>
      <trkpt lat="45.7144" lon="2.94798">
        <ele>1054.854491</ele>
        <time>2021-07-07T09:03:55+0200</time>
      </trkpt>
      <trkpt lat="45.71433" lon="2.94791">
        <ele>1054.744635</ele>
        <time>2021-07-07T09:03:57+0200</time>
      </trkpt>
      <trkpt lat="45.71428" lon="2.94788">
        <ele>1055.685994</ele>
        <time>2021-07-07T09:03:58+0200</time>
      </trkpt>
      <trkpt lat="45.71421" lon="2.94782">
        <ele>1058.062416</ele>
        <time>2021-07-07T09:04:00+0200</time>
      </trkpt>
      <trkpt lat="45.71418" lon="2.94778">
        <ele>1058.674919</ele>
        <time>2021-07-07T09:04:01+0200</time>
      </trkpt>
      <trkpt lat="45.71414" lon="2.94772">
        <ele>1059.207089</ele>
        <time>2021-07-07T09:04:02+0200</time>
      </trkpt>
      <trkpt lat="45.71411" lon="2.94768">
        <ele>1059.484974</ele>
        <time>2021-07-07T09:04:03+0200</time>
      </trkpt>
      <trkpt lat="45.71407" lon="2.94764">
        <ele>1059.39759</ele>
        <time>2021-07-07T09:04:04+0200</time>
      </trkpt>
      <trkpt lat="45.71402" lon="2.94758">
        <ele>1058.873831</ele>
        <time>2021-07-07T09:04:05+0200</time>
      </trkpt>
      <trkpt lat="45.71397" lon="2.94753">
        <ele>1058.851103</ele>
        <time>2021-07-07T09:04:06+0200</time>
      </trkpt>
      <trkpt lat="45.71392" lon="2.94749">
        <ele>1058.195471</ele>
        <time>2021-07-07T09:04:07+0200</time>
      </trkpt>
      <trkpt lat="45.71388" lon="2.94745">
        <ele>1057.675227</ele>
        <time>2021-07-07T09:04:08+0200</time>
      </trkpt>
      <trkpt lat="45.7138" lon="2.94738">
        <ele>1057.956948</ele>
        <time>2021-07-07T09:04:10+0200</time>
      </trkpt>
      <trkpt lat="45.71375" lon="2.94729">
        <ele>1058.518091</ele>
        <time>2021-07-07T09:04:12+0200</time>
      </trkpt>
      <trkpt lat="45.71368" lon="2.94722">
        <ele>1059.935774</ele>
        <time>2021-07-07T09:04:14+0200</time>
      </trkpt>
      <trkpt lat="45.71363" lon="2.94722">
        <ele>1058.544268</ele>
        <time>2021-07-07T09:04:15+0200</time>
      </trkpt>
      <trkpt lat="45.71358" lon="2.9472">
        <ele>1057.612082</ele>
        <time>2021-07-07T09:04:16+0200</time>
      </trkpt>
      <trkpt lat="45.7135" lon="2.94718">
        <ele>1056.071682</ele>
        <time>2021-07-07T09:04:18+0200</time>
      </trkpt>
      <trkpt lat="45.71345" lon="2.94716">
        <ele>1056.429746</ele>
        <time>2021-07-07T09:04:20+0200</time>
      </trkpt>
      <trkpt lat="45.71339" lon="2.94711">
        <ele>1055.685287</ele>
        <time>2021-07-07T09:04:22+0200</time>
      </trkpt>
      <trkpt lat="45.71333" lon="2.94708">
        <ele>1055.25141</ele>
        <time>2021-07-07T09:04:24+0200</time>
      </trkpt>
      <trkpt lat="45.71327" lon="2.94707">
        <ele>1053.115361</ele>
        <time>2021-07-07T09:04:26+0200</time>
      </trkpt>
      <trkpt lat="45.71321" lon="2.94703">
        <ele>1052.239211</ele>
        <time>2021-07-07T09:04:28+0200</time>
      </trkpt>
      <trkpt lat="45.71317" lon="2.94701">
        <ele>1053.007535</ele>
        <time>2021-07-07T09:04:29+0200</time>
      </trkpt>
      <trkpt lat="45.71311" lon="2.94698">
        <ele>1049.160444</ele>
        <time>2021-07-07T09:04:31+0200</time>
      </trkpt>
      <trkpt lat="45.71307" lon="2.94694">
        <ele>1047.710713</ele>
        <time>2021-07-07T09:04:33+0200</time>
      </trkpt>
      <trkpt lat="45.71303" lon="2.94689">
        <ele>1048.476205</ele>
        <time>2021-07-07T09:04:34+0200</time>
      </trkpt>
      <trkpt lat="45.71299" lon="2.94685">
        <ele>1047.423143</ele>
        <time>2021-07-07T09:04:35+0200</time>
      </trkpt>
      <trkpt lat="45.71294" lon="2.94682">
        <ele>1046.027898</ele>
        <time>2021-07-07T09:04:37+0200</time>
      </trkpt>
      <trkpt lat="45.7129" lon="2.94682">
        <ele>1047.564305</ele>
        <time>2021-07-07T09:04:43+0200</time>
      </trkpt>
      <trkpt lat="45.71283" lon="2.94677">
        <ele>1048.298032</ele>
        <time>2021-07-07T09:04:46+0200</time>
      </trkpt>
      <trkpt lat="45.71277" lon="2.94673">
        <ele>1048.981488</ele>
        <time>2021-07-07T09:04:48+0200</time>
      </trkpt>
      <trkpt lat="45.71269" lon="2.94666">
        <ele>1048.111653</ele>
        <time>2021-07-07T09:04:50+0200</time>
      </trkpt>
      <trkpt lat="45.71264" lon="2.94664">
        <ele>1048.330027</ele>
        <time>2021-07-07T09:04:51+0200</time>
      </trkpt>
      <trkpt lat="45.71256" lon="2.94658">
        <ele>1047.031763</ele>
        <time>2021-07-07T09:04:53+0200</time>
      </trkpt>
      <trkpt lat="45.7125" lon="2.94657">
        <ele>1046.865847</ele>
        <time>2021-07-07T09:04:54+0200</time>
      </trkpt>
      <trkpt lat="45.71244" lon="2.94652">
        <ele>1046.4389</ele>
        <time>2021-07-07T09:04:56+0200</time>
      </trkpt>
      <trkpt lat="45.71238" lon="2.94644">
        <ele>1046.515697</ele>
        <time>2021-07-07T09:04:58+0200</time>
      </trkpt>
      <trkpt lat="45.71232" lon="2.94639">
        <ele>1046.774825</ele>
        <time>2021-07-07T09:05:00+0200</time>
      </trkpt>
      <trkpt lat="45.71226" lon="2.94636">
        <ele>1047.903661</ele>
        <time>2021-07-07T09:05:02+0200</time>
      </trkpt>
      <trkpt lat="45.71223" lon="2.94631">
        <ele>1048.140413</ele>
        <time>2021-07-07T09:05:04+0200</time>
      </trkpt>
      <trkpt lat="45.71218" lon="2.94625">
        <ele>1048.060579</ele>
        <time>2021-07-07T09:05:06+0200</time>
      </trkpt>
      <trkpt lat="45.71213" lon="2.94622">
        <ele>1048.910894</ele>
        <time>2021-07-07T09:05:08+0200</time>
      </trkpt>
      <trkpt lat="45.71209" lon="2.94617">
        <ele>1047.956176</ele>
        <time>2021-07-07T09:05:10+0200</time>
      </trkpt>
      <trkpt lat="45.71206" lon="2.9461">
        <ele>1049.054562</ele>
        <time>2021-07-07T09:05:13+0200</time>
      </trkpt>
      <trkpt lat="45.71201" lon="2.94605">
        <ele>1049.740914</ele>
        <time>2021-07-07T09:05:15+0200</time>
      </trkpt>
      <trkpt lat="45.71196" lon="2.94599">
        <ele>1048.531842</ele>
        <time>2021-07-07T09:05:17+0200</time>
      </trkpt>
      <trkpt lat="45.71192" lon="2.9459">
        <ele>1046.743978</ele>
        <time>2021-07-07T09:05:20+0200</time>
      </trkpt>
      <trkpt lat="45.71189" lon="2.94585">
        <ele>1045.930738</ele>
        <time>2021-07-07T09:05:22+0200</time>
      </trkpt>
      <trkpt lat="45.71185" lon="2.94579">
        <ele>1045.624431</ele>
        <time>2021-07-07T09:05:24+0200</time>
      </trkpt>
      <trkpt lat="45.71183" lon="2.94571">
        <ele>1044.752504</ele>
        <time>2021-07-07T09:05:26+0200</time>
      </trkpt>
      <trkpt lat="45.7118" lon="2.94564">
        <ele>1046.235668</ele>
        <time>2021-07-07T09:05:28+0200</time>
      </trkpt>
      <trkpt lat="45.71175" lon="2.94556">
        <ele>1045.729344</ele>
        <time>2021-07-07T09:05:30+0200</time>
      </trkpt>
      <trkpt lat="45.71171" lon="2.94549">
        <ele>1045.431833</ele>
        <time>2021-07-07T09:05:33+0200</time>
      </trkpt>
      <trkpt lat="45.71168" lon="2.94541">
        <ele>1045.318758</ele>
        <time>2021-07-07T09:05:35+0200</time>
      </trkpt>
      <trkpt lat="45.71165" lon="2.94536">
        <ele>1043.976008</ele>
        <time>2021-07-07T09:05:36+0200</time>
      </trkpt>
      <trkpt lat="45.7116" lon="2.94531">
        <ele>1044.120443</ele>
        <time>2021-07-07T09:05:38+0200</time>
      </trkpt>
      <trkpt lat="45.71157" lon="2.94524">
        <ele>1044.771925</ele>
        <time>2021-07-07T09:05:40+0200</time>
      </trkpt>
      <trkpt lat="45.71153" lon="2.94515">
        <ele>1045.11204</ele>
        <time>2021-07-07T09:05:42+0200</time>
      </trkpt>
      <trkpt lat="45.71149" lon="2.94509">
        <ele>1043.778388</ele>
        <time>2021-07-07T09:05:44+0200</time>
      </trkpt>
      <trkpt lat="45.71146" lon="2.94502">
        <ele>1043.73651</ele>
        <time>2021-07-07T09:05:46+0200</time>
      </trkpt>
      <trkpt lat="45.71141" lon="2.94492">
        <ele>1043.378904</ele>
        <time>2021-07-07T09:05:48+0200</time>
      </trkpt>
      <trkpt lat="45.71136" lon="2.94485">
        <ele>1042.923161</ele>
        <time>2021-07-07T09:05:50+0200</time>
      </trkpt>
      <trkpt lat="45.71133" lon="2.94479">
        <ele>1043.159181</ele>
        <time>2021-07-07T09:05:52+0200</time>
      </trkpt>
      <trkpt lat="45.71129" lon="2.94475">
        <ele>1042.911965</ele>
        <time>2021-07-07T09:05:54+0200</time>
      </trkpt>
      <trkpt lat="45.71125" lon="2.94469">
        <ele>1043.041701</ele>
        <time>2021-07-07T09:05:56+0200</time>
      </trkpt>
      <trkpt lat="45.71122" lon="2.94464">
        <ele>1042.079838</ele>
        <time>2021-07-07T09:05:58+0200</time>
      </trkpt>
      <trkpt lat="45.71118" lon="2.94454">
        <ele>1042.399183</ele>
        <time>2021-07-07T09:06:00+0200</time>
      </trkpt>
      <trkpt lat="45.71116" lon="2.94448">
        <ele>1042.259339</ele>
        <time>2021-07-07T09:06:01+0200</time>
      </trkpt>
      <trkpt lat="45.71112" lon="2.9444">
        <ele>1042.982813</ele>
        <time>2021-07-07T09:06:03+0200</time>
      </trkpt>
      <trkpt lat="45.71109" lon="2.9443">
        <ele>1043.352021</ele>
        <time>2021-07-07T09:06:05+0200</time>
      </trkpt>
      <trkpt lat="45.71105" lon="2.94423">
        <ele>1043.451095</ele>
        <time>2021-07-07T09:06:07+0200</time>
      </trkpt>
      <trkpt lat="45.71102" lon="2.94417">
        <ele>1042.924782</ele>
        <time>2021-07-07T09:06:08+0200</time>
      </trkpt>
      <trkpt lat="45.71099" lon="2.94412">
        <ele>1041.283126</ele>
        <time>2021-07-07T09:06:09+0200</time>
      </trkpt>
      <trkpt lat="45.71096" lon="2.94405">
        <ele>1041.709708</ele>
        <time>2021-07-07T09:06:12+0200</time>
      </trkpt>
      <trkpt lat="45.71093" lon="2.94396">
        <ele>1041.72984</ele>
        <time>2021-07-07T09:06:14+0200</time>
      </trkpt>
      <trkpt lat="45.71089" lon="2.94384">
        <ele>1041.108966</ele>
        <time>2021-07-07T09:06:16+0200</time>
      </trkpt>
      <trkpt lat="45.71086" lon="2.94376">
        <ele>1040.337987</ele>
        <time>2021-07-07T09:06:17+0200</time>
      </trkpt>
      <trkpt lat="45.71084" lon="2.94371">
        <ele>1040.868306</ele>
        <time>2021-07-07T09:06:18+0200</time>
      </trkpt>
      <trkpt lat="45.71082" lon="2.94362">
        <ele>1041.266295</ele>
        <time>2021-07-07T09:06:19+0200</time>
      </trkpt>
      <trkpt lat="45.71079" lon="2.94353">
        <ele>1040.70753</ele>
        <time>2021-07-07T09:06:20+0200</time>
      </trkpt>
      <trkpt lat="45.71076" lon="2.94346">
        <ele>1041.05758</ele>
        <time>2021-07-07T09:06:21+0200</time>
      </trkpt>
      <trkpt lat="45.71072" lon="2.9434">
        <ele>1040.746001</ele>
        <time>2021-07-07T09:06:22+0200</time>
      </trkpt>
      <trkpt lat="45.71069" lon="2.94333">
        <ele>1041.739816</ele>
        <time>2021-07-07T09:06:23+0200</time>
      </trkpt>
      <trkpt lat="45.71063" lon="2.94327">
        <ele>1042.565693</ele>
        <time>2021-07-07T09:06:24+0200</time>
      </trkpt>
      <trkpt lat="45.71059" lon="2.94323">
        <ele>1043.462099</ele>
        <time>2021-07-07T09:06:25+0200</time>
      </trkpt>
      <trkpt lat="45.71055" lon="2.94318">
        <ele>1043.617508</ele>
        <time>2021-07-07T09:06:26+0200</time>
      </trkpt>
      <trkpt lat="45.71047" lon="2.94319">
        <ele>1041.478523</ele>
        <time>2021-07-07T09:06:28+0200</time>
      </trkpt>
      <trkpt lat="45.71041" lon="2.94325">
        <ele>1040.2555</ele>
        <time>2021-07-07T09:06:30+0200</time>
      </trkpt>
      <trkpt lat="45.71037" lon="2.94333">
        <ele>1041.162463</ele>
        <time>2021-07-07T09:06:32+0200</time>
      </trkpt>
      <trkpt lat="45.71032" lon="2.94341">
        <ele>1041.245663</ele>
        <time>2021-07-07T09:06:34+0200</time>
      </trkpt>
      <trkpt lat="45.71026" lon="2.94348">
        <ele>1041.354769</ele>
        <time>2021-07-07T09:06:36+0200</time>
      </trkpt>
      <trkpt lat="45.7102" lon="2.94352">
        <ele>1041.070341</ele>
        <time>2021-07-07T09:06:38+0200</time>
      </trkpt>
      <trkpt lat="45.71014" lon="2.94357">
        <ele>1040.451352</ele>
        <time>2021-07-07T09:06:40+0200</time>
      </trkpt>
      <trkpt lat="45.7101" lon="2.9436">
        <ele>1040.411068</ele>
        <time>2021-07-07T09:06:42+0200</time>
      </trkpt>
      <trkpt lat="45.71007" lon="2.9437">
        <ele>1041.443095</ele>
        <time>2021-07-07T09:06:45+0200</time>
      </trkpt>
      <trkpt lat="45.71005" lon="2.94377">
        <ele>1041.710053</ele>
        <time>2021-07-07T09:06:47+0200</time>
      </trkpt>
      <trkpt lat="45.71001" lon="2.94384">
        <ele>1041.190224</ele>
        <time>2021-07-07T09:06:49+0200</time>
      </trkpt>
      <trkpt lat="45.70999" lon="2.94392">
        <ele>1041.086517</ele>
        <time>2021-07-07T09:06:51+0200</time>
      </trkpt>
      <trkpt lat="45.70999" lon="2.94401">
        <ele>1042.543383</ele>
        <time>2021-07-07T09:06:54+0200</time>
      </trkpt>
      <trkpt lat="45.70998" lon="2.94407">
        <ele>1042.408147</ele>
        <time>2021-07-07T09:06:56+0200</time>
      </trkpt>
      <trkpt lat="45.70996" lon="2.94415">
        <ele>1043.59068</ele>
        <time>2021-07-07T09:06:59+0200</time>
      </trkpt>
      <trkpt lat="45.70996" lon="2.94424">
        <ele>1043.892317</ele>
        <time>2021-07-07T09:07:01+0200</time>
      </trkpt>
      <trkpt lat="45.70994" lon="2.94431">
        <ele>1044.965683</ele>
        <time>2021-07-07T09:07:03+0200</time>
      </trkpt>
      <trkpt lat="45.70992" lon="2.94438">
        <ele>1046.761971</ele>
        <time>2021-07-07T09:07:05+0200</time>
      </trkpt>
      <trkpt lat="45.7099" lon="2.94445">
        <ele>1047.64226</ele>
        <time>2021-07-07T09:07:07+0200</time>
      </trkpt>
      <trkpt lat="45.70987" lon="2.94453">
        <ele>1048.173951</ele>
        <time>2021-07-07T09:07:10+0200</time>
      </trkpt>
      <trkpt lat="45.70984" lon="2.94461">
        <ele>1049.259618</ele>
        <time>2021-07-07T09:07:13+0200</time>
      </trkpt>
      <trkpt lat="45.70981" lon="2.94468">
        <ele>1049.138094</ele>
        <time>2021-07-07T09:07:15+0200</time>
      </trkpt>
      <trkpt lat="45.70979" lon="2.94476">
        <ele>1049.722308</ele>
        <time>2021-07-07T09:07:17+0200</time>
      </trkpt>
      <trkpt lat="45.70977" lon="2.94483">
        <ele>1050.028461</ele>
        <time>2021-07-07T09:07:19+0200</time>
      </trkpt>
      <trkpt lat="45.70973" lon="2.94488">
        <ele>1050.736357</ele>
        <time>2021-07-07T09:07:21+0200</time>
      </trkpt>
      <trkpt lat="45.70969" lon="2.94495">
        <ele>1051.622161</ele>
        <time>2021-07-07T09:07:24+0200</time>
      </trkpt>
      <trkpt lat="45.70966" lon="2.94501">
        <ele>1051.289659</ele>
        <time>2021-07-07T09:07:26+0200</time>
      </trkpt>
      <trkpt lat="45.70963" lon="2.94506">
        <ele>1052.162192</ele>
        <time>2021-07-07T09:07:28+0200</time>
      </trkpt>
      <trkpt lat="45.7096" lon="2.94513">
        <ele>1051.891329</ele>
        <time>2021-07-07T09:07:30+0200</time>
      </trkpt>
      <trkpt lat="45.70957" lon="2.94519">
        <ele>1052.6275</ele>
        <time>2021-07-07T09:07:32+0200</time>
      </trkpt>
      <trkpt lat="45.70955" lon="2.94525">
        <ele>1052.48062</ele>
        <time>2021-07-07T09:07:34+0200</time>
      </trkpt>
      <trkpt lat="45.70952" lon="2.94533">
        <ele>1051.369555</ele>
        <time>2021-07-07T09:07:36+0200</time>
      </trkpt>
      <trkpt lat="45.70949" lon="2.9454">
        <ele>1051.738408</ele>
        <time>2021-07-07T09:07:38+0200</time>
      </trkpt>
      <trkpt lat="45.70946" lon="2.94545">
        <ele>1051.432365</ele>
        <time>2021-07-07T09:07:40+0200</time>
      </trkpt>
      <trkpt lat="45.7094" lon="2.94549">
        <ele>1050.300644</ele>
        <time>2021-07-07T09:07:42+0200</time>
      </trkpt>
      <trkpt lat="45.70935" lon="2.94555">
        <ele>1050.217614</ele>
        <time>2021-07-07T09:07:44+0200</time>
      </trkpt>
      <trkpt lat="45.70931" lon="2.94561">
        <ele>1050.142975</ele>
        <time>2021-07-07T09:07:46+0200</time>
      </trkpt>
      <trkpt lat="45.70927" lon="2.94566">
        <ele>1050.664445</ele>
        <time>2021-07-07T09:07:48+0200</time>
      </trkpt>
      <trkpt lat="45.70924" lon="2.94572">
        <ele>1049.949133</ele>
        <time>2021-07-07T09:07:50+0200</time>
      </trkpt>
      <trkpt lat="45.70919" lon="2.94581">
        <ele>1049.551929</ele>
        <time>2021-07-07T09:07:52+0200</time>
      </trkpt>
      <trkpt lat="45.70917" lon="2.94588">
        <ele>1049.664682</ele>
        <time>2021-07-07T09:07:54+0200</time>
      </trkpt>
      <trkpt lat="45.70913" lon="2.94593">
        <ele>1050.192567</ele>
        <time>2021-07-07T09:07:56+0200</time>
      </trkpt>
      <trkpt lat="45.70908" lon="2.94597">
        <ele>1051.105553</ele>
        <time>2021-07-07T09:07:58+0200</time>
      </trkpt>
      <trkpt lat="45.70904" lon="2.94605">
        <ele>1051.709134</ele>
        <time>2021-07-07T09:08:00+0200</time>
      </trkpt>
      <trkpt lat="45.70901" lon="2.94611">
        <ele>1052.399794</ele>
        <time>2021-07-07T09:08:02+0200</time>
      </trkpt>
      <trkpt lat="45.70896" lon="2.94618">
        <ele>1053.206065</ele>
        <time>2021-07-07T09:08:04+0200</time>
      </trkpt>
      <trkpt lat="45.70893" lon="2.94623">
        <ele>1053.627303</ele>
        <time>2021-07-07T09:08:06+0200</time>
      </trkpt>
      <trkpt lat="45.70889" lon="2.94629">
        <ele>1054.12761</ele>
        <time>2021-07-07T09:08:08+0200</time>
      </trkpt>
      <trkpt lat="45.70885" lon="2.94639">
        <ele>1053.878546</ele>
        <time>2021-07-07T09:08:10+0200</time>
      </trkpt>
      <trkpt lat="45.70882" lon="2.94646">
        <ele>1052.270036</ele>
        <time>2021-07-07T09:08:12+0200</time>
      </trkpt>
      <trkpt lat="45.70878" lon="2.9465">
        <ele>1051.503099</ele>
        <time>2021-07-07T09:08:14+0200</time>
      </trkpt>
      <trkpt lat="45.70876" lon="2.94656">
        <ele>1052.546385</ele>
        <time>2021-07-07T09:08:16+0200</time>
      </trkpt>
      <trkpt lat="45.7087" lon="2.9466">
        <ele>1053.034924</ele>
        <time>2021-07-07T09:08:18+0200</time>
      </trkpt>
      <trkpt lat="45.70864" lon="2.94665">
        <ele>1052.207325</ele>
        <time>2021-07-07T09:08:20+0200</time>
      </trkpt>
      <trkpt lat="45.70857" lon="2.94668">
        <ele>1050.721652</ele>
        <time>2021-07-07T09:08:22+0200</time>
      </trkpt>
      <trkpt lat="45.70852" lon="2.94675">
        <ele>1047.713198</ele>
        <time>2021-07-07T09:08:24+0200</time>
      </trkpt>
      <trkpt lat="45.7085" lon="2.94681">
        <ele>1046.792945</ele>
        <time>2021-07-07T09:08:26+0200</time>
      </trkpt>
      <trkpt lat="45.70845" lon="2.94688">
        <ele>1045.395971</ele>
        <time>2021-07-07T09:08:28+0200</time>
      </trkpt>
      <trkpt lat="45.70841" lon="2.94697">
        <ele>1045.30216</ele>
        <time>2021-07-07T09:08:30+0200</time>
      </trkpt>
      <trkpt lat="45.70837" lon="2.94705">
        <ele>1045.148851</ele>
        <time>2021-07-07T09:08:32+0200</time>
      </trkpt>
      <trkpt lat="45.70833" lon="2.94717">
        <ele>1044.217373</ele>
        <time>2021-07-07T09:08:34+0200</time>
      </trkpt>
      <trkpt lat="45.70829" lon="2.94727">
        <ele>1043.897031</ele>
        <time>2021-07-07T09:08:36+0200</time>
      </trkpt>
      <trkpt lat="45.70826" lon="2.94733">
        <ele>1045.398452</ele>
        <time>2021-07-07T09:08:37+0200</time>
      </trkpt>
      <trkpt lat="45.70821" lon="2.94741">
        <ele>1047.637828</ele>
        <time>2021-07-07T09:08:39+0200</time>
      </trkpt>
      <trkpt lat="45.70816" lon="2.94748">
        <ele>1047.908608</ele>
        <time>2021-07-07T09:08:41+0200</time>
      </trkpt>
      <trkpt lat="45.70811" lon="2.94757">
        <ele>1048.261446</ele>
        <time>2021-07-07T09:08:43+0200</time>
      </trkpt>
      <trkpt lat="45.70807" lon="2.94764">
        <ele>1047.618592</ele>
        <time>2021-07-07T09:08:45+0200</time>
      </trkpt>
      <trkpt lat="45.70801" lon="2.94771">
        <ele>1046.2973</ele>
        <time>2021-07-07T09:08:47+0200</time>
      </trkpt>
      <trkpt lat="45.70797" lon="2.94778">
        <ele>1045.921235</ele>
        <time>2021-07-07T09:08:49+0200</time>
      </trkpt>
      <trkpt lat="45.70793" lon="2.94781">
        <ele>1045.141418</ele>
        <time>2021-07-07T09:08:50+0200</time>
      </trkpt>
      <trkpt lat="45.7079" lon="2.94786">
        <ele>1046.442261</ele>
        <time>2021-07-07T09:08:51+0200</time>
      </trkpt>
      <trkpt lat="45.70785" lon="2.94791">
        <ele>1047.403855</ele>
        <time>2021-07-07T09:08:52+0200</time>
      </trkpt>
      <trkpt lat="45.7078" lon="2.94796">
        <ele>1046.628441</ele>
        <time>2021-07-07T09:08:54+0200</time>
      </trkpt>
      <trkpt lat="45.70772" lon="2.94802">
        <ele>1045.552662</ele>
        <time>2021-07-07T09:08:56+0200</time>
      </trkpt>
      <trkpt lat="45.70766" lon="2.9481">
        <ele>1045.651727</ele>
        <time>2021-07-07T09:08:58+0200</time>
      </trkpt>
      <trkpt lat="45.70762" lon="2.94813">
        <ele>1045.155252</ele>
        <time>2021-07-07T09:08:59+0200</time>
      </trkpt>
      <trkpt lat="45.70758" lon="2.94818">
        <ele>1045.321921</ele>
        <time>2021-07-07T09:09:01+0200</time>
      </trkpt>
      <trkpt lat="45.70752" lon="2.94825">
        <ele>1045.527654</ele>
        <time>2021-07-07T09:09:03+0200</time>
      </trkpt>
      <trkpt lat="45.70748" lon="2.94831">
        <ele>1045.522094</ele>
        <time>2021-07-07T09:09:04+0200</time>
      </trkpt>
      <trkpt lat="45.70744" lon="2.94841">
        <ele>1044.928546</ele>
        <time>2021-07-07T09:09:06+0200</time>
      </trkpt>
      <trkpt lat="45.70742" lon="2.94848">
        <ele>1044.092588</ele>
        <time>2021-07-07T09:09:08+0200</time>
      </trkpt>
      <trkpt lat="45.7074" lon="2.94853">
        <ele>1044.951457</ele>
        <time>2021-07-07T09:09:09+0200</time>
      </trkpt>
      <trkpt lat="45.70738" lon="2.94861">
        <ele>1046.338145</ele>
        <time>2021-07-07T09:09:10+0200</time>
      </trkpt>
      <trkpt lat="45.70733" lon="2.94869">
        <ele>1046.667616</ele>
        <time>2021-07-07T09:09:12+0200</time>
      </trkpt>
      <trkpt lat="45.70728" lon="2.94879">
        <ele>1046.503045</ele>
        <time>2021-07-07T09:09:14+0200</time>
      </trkpt>
      <trkpt lat="45.70726" lon="2.94888">
        <ele>1047.432349</ele>
        <time>2021-07-07T09:09:15+0200</time>
      </trkpt>
      <trkpt lat="45.70724" lon="2.94894">
        <ele>1045.767605</ele>
        <time>2021-07-07T09:09:16+0200</time>
      </trkpt>
      <trkpt lat="45.70721" lon="2.94899">
        <ele>1047.295612</ele>
        <time>2021-07-07T09:09:17+0200</time>
      </trkpt>
      <trkpt lat="45.70721" lon="2.94908">
        <ele>1048.310125</ele>
        <time>2021-07-07T09:09:18+0200</time>
      </trkpt>
      <trkpt lat="45.7072" lon="2.94915">
        <ele>1049.235093</ele>
        <time>2021-07-07T09:09:19+0200</time>
      </trkpt>
      <trkpt lat="45.70719" lon="2.94926">
        <ele>1049.37174</ele>
        <time>2021-07-07T09:09:21+0200</time>
      </trkpt>
      <trkpt lat="45.70715" lon="2.94935">
        <ele>1047.456446</ele>
        <time>2021-07-07T09:09:23+0200</time>
      </trkpt>
      <trkpt lat="45.70712" lon="2.94945">
        <ele>1048.634082</ele>
        <time>2021-07-07T09:09:25+0200</time>
      </trkpt>
      <trkpt lat="45.70708" lon="2.94952">
        <ele>1048.467638</ele>
        <time>2021-07-07T09:09:26+0200</time>
      </trkpt>
      <trkpt lat="45.70706" lon="2.94959">
        <ele>1048.969742</ele>
        <time>2021-07-07T09:09:27+0200</time>
      </trkpt>
      <trkpt lat="45.70703" lon="2.94965">
        <ele>1048.999665</ele>
        <time>2021-07-07T09:09:28+0200</time>
      </trkpt>
      <trkpt lat="45.70699" lon="2.94971">
        <ele>1048.032369</ele>
        <time>2021-07-07T09:09:29+0200</time>
      </trkpt>
      <trkpt lat="45.70696" lon="2.94977">
        <ele>1047.874753</ele>
        <time>2021-07-07T09:09:30+0200</time>
      </trkpt>
      <trkpt lat="45.70692" lon="2.94984">
        <ele>1047.331755</ele>
        <time>2021-07-07T09:09:31+0200</time>
      </trkpt>
      <trkpt lat="45.70689" lon="2.94989">
        <ele>1046.537787</ele>
        <time>2021-07-07T09:09:32+0200</time>
      </trkpt>
      <trkpt lat="45.70686" lon="2.94995">
        <ele>1045.942176</ele>
        <time>2021-07-07T09:09:33+0200</time>
      </trkpt>
      <trkpt lat="45.70685" lon="2.95002">
        <ele>1045.441251</ele>
        <time>2021-07-07T09:09:34+0200</time>
      </trkpt>
      <trkpt lat="45.70682" lon="2.95011">
        <ele>1045.357487</ele>
        <time>2021-07-07T09:09:35+0200</time>
      </trkpt>
      <trkpt lat="45.7068" lon="2.95022">
        <ele>1047.383716</ele>
        <time>2021-07-07T09:09:36+0200</time>
      </trkpt>
      <trkpt lat="45.70679" lon="2.9503">
        <ele>1049.113299</ele>
        <time>2021-07-07T09:09:37+0200</time>
      </trkpt>
      <trkpt lat="45.70679" lon="2.95037">
        <ele>1049.322412</ele>
        <time>2021-07-07T09:09:38+0200</time>
      </trkpt>
      <trkpt lat="45.70679" lon="2.95043">
        <ele>1049.551537</ele>
        <time>2021-07-07T09:09:39+0200</time>
      </trkpt>
      <trkpt lat="45.70679" lon="2.95052">
        <ele>1049.329319</ele>
        <time>2021-07-07T09:09:40+0200</time>
      </trkpt>
      <trkpt lat="45.70678" lon="2.95061">
        <ele>1049.13802</ele>
        <time>2021-07-07T09:09:41+0200</time>
      </trkpt>
      <trkpt lat="45.70678" lon="2.95071">
        <ele>1049.295649</ele>
        <time>2021-07-07T09:09:42+0200</time>
      </trkpt>
      <trkpt lat="45.70677" lon="2.95078">
        <ele>1049.428965</ele>
        <time>2021-07-07T09:09:43+0200</time>
      </trkpt>
      <trkpt lat="45.70676" lon="2.95085">
        <ele>1049.945587</ele>
        <time>2021-07-07T09:09:44+0200</time>
      </trkpt>
      <trkpt lat="45.70677" lon="2.95099">
        <ele>1049.584785</ele>
        <time>2021-07-07T09:09:46+0200</time>
      </trkpt>
      <trkpt lat="45.70676" lon="2.95108">
        <ele>1049.506847</ele>
        <time>2021-07-07T09:09:47+0200</time>
      </trkpt>
      <trkpt lat="45.70676" lon="2.95119">
        <ele>1048.472546</ele>
        <time>2021-07-07T09:09:48+0200</time>
      </trkpt>
      <trkpt lat="45.70676" lon="2.95128">
        <ele>1047.538265</ele>
        <time>2021-07-07T09:09:49+0200</time>
      </trkpt>
      <trkpt lat="45.70674" lon="2.95136">
        <ele>1045.876269</ele>
        <time>2021-07-07T09:09:50+0200</time>
      </trkpt>
      <trkpt lat="45.70673" lon="2.95144">
        <ele>1044.884365</ele>
        <time>2021-07-07T09:09:51+0200</time>
      </trkpt>
      <trkpt lat="45.70671" lon="2.95152">
        <ele>1043.114843</ele>
        <time>2021-07-07T09:09:52+0200</time>
      </trkpt>
      <trkpt lat="45.7067" lon="2.9516">
        <ele>1042.616854</ele>
        <time>2021-07-07T09:09:53+0200</time>
      </trkpt>
      <trkpt lat="45.70667" lon="2.95166">
        <ele>1041.777433</ele>
        <time>2021-07-07T09:09:54+0200</time>
      </trkpt>
      <trkpt lat="45.70667" lon="2.95174">
        <ele>1041.778409</ele>
        <time>2021-07-07T09:09:55+0200</time>
      </trkpt>
      <trkpt lat="45.70664" lon="2.9518">
        <ele>1041.236359</ele>
        <time>2021-07-07T09:09:56+0200</time>
      </trkpt>
      <trkpt lat="45.70662" lon="2.95187">
        <ele>1040.703618</ele>
        <time>2021-07-07T09:09:57+0200</time>
      </trkpt>
      <trkpt lat="45.70659" lon="2.95193">
        <ele>1040.762883</ele>
        <time>2021-07-07T09:09:58+0200</time>
      </trkpt>
      <trkpt lat="45.70658" lon="2.952">
        <ele>1039.940351</ele>
        <time>2021-07-07T09:09:59+0200</time>
      </trkpt>
      <trkpt lat="45.70654" lon="2.95206">
        <ele>1039.042662</ele>
        <time>2021-07-07T09:10:00+0200</time>
      </trkpt>
      <trkpt lat="45.70651" lon="2.95212">
        <ele>1038.705297</ele>
        <time>2021-07-07T09:10:01+0200</time>
      </trkpt>
      <trkpt lat="45.70645" lon="2.95215">
        <ele>1038.768219</ele>
        <time>2021-07-07T09:10:02+0200</time>
      </trkpt>
      <trkpt lat="45.7064" lon="2.95222">
        <ele>1037.334733</ele>
        <time>2021-07-07T09:10:03+0200</time>
      </trkpt>
      <trkpt lat="45.70636" lon="2.95229">
        <ele>1035.647292</ele>
        <time>2021-07-07T09:10:04+0200</time>
      </trkpt>
      <trkpt lat="45.7063" lon="2.95234">
        <ele>1034.089121</ele>
        <time>2021-07-07T09:10:05+0200</time>
      </trkpt>
      <trkpt lat="45.70626" lon="2.95241">
        <ele>1033.337896</ele>
        <time>2021-07-07T09:10:06+0200</time>
      </trkpt>
      <trkpt lat="45.70621" lon="2.9525">
        <ele>1031.875581</ele>
        <time>2021-07-07T09:10:07+0200</time>
      </trkpt>
      <trkpt lat="45.7062" lon="2.95257">
        <ele>1030.099082</ele>
        <time>2021-07-07T09:10:08+0200</time>
      </trkpt>
      <trkpt lat="45.70618" lon="2.95264">
        <ele>1029.494337</ele>
        <time>2021-07-07T09:10:09+0200</time>
      </trkpt>
      <trkpt lat="45.70612" lon="2.95273">
        <ele>1028.729598</ele>
        <time>2021-07-07T09:10:11+0200</time>
      </trkpt>
      <trkpt lat="45.70607" lon="2.95277">
        <ele>1029.294962</ele>
        <time>2021-07-07T09:10:12+0200</time>
      </trkpt>
      <trkpt lat="45.70601" lon="2.95281">
        <ele>1028.810276</ele>
        <time>2021-07-07T09:10:13+0200</time>
      </trkpt>
      <trkpt lat="45.70595" lon="2.95289">
        <ele>1027.886652</ele>
        <time>2021-07-07T09:10:14+0200</time>
      </trkpt>
      <trkpt lat="45.70592" lon="2.95295">
        <ele>1026.594053</ele>
        <time>2021-07-07T09:10:15+0200</time>
      </trkpt>
      <trkpt lat="45.70585" lon="2.95296">
        <ele>1024.801695</ele>
        <time>2021-07-07T09:10:16+0200</time>
      </trkpt>
      <trkpt lat="45.70578" lon="2.95296">
        <ele>1023.301908</ele>
        <time>2021-07-07T09:10:17+0200</time>
      </trkpt>
      <trkpt lat="45.70571" lon="2.95297">
        <ele>1022.645827</ele>
        <time>2021-07-07T09:10:18+0200</time>
      </trkpt>
      <trkpt lat="45.70564" lon="2.95301">
        <ele>1022.953841</ele>
        <time>2021-07-07T09:10:19+0200</time>
      </trkpt>
      <trkpt lat="45.70555" lon="2.95305">
        <ele>1022.135739</ele>
        <time>2021-07-07T09:10:20+0200</time>
      </trkpt>
      <trkpt lat="45.70549" lon="2.95311">
        <ele>1021.13917</ele>
        <time>2021-07-07T09:10:21+0200</time>
      </trkpt>
      <trkpt lat="45.70542" lon="2.9532">
        <ele>1020.101697</ele>
        <time>2021-07-07T09:10:22+0200</time>
      </trkpt>
      <trkpt lat="45.70534" lon="2.9533">
        <ele>1019.914439</ele>
        <time>2021-07-07T09:10:23+0200</time>
      </trkpt>
      <trkpt lat="45.70526" lon="2.9534">
        <ele>1018.748516</ele>
        <time>2021-07-07T09:10:24+0200</time>
      </trkpt>
      <trkpt lat="45.70523" lon="2.95351">
        <ele>1017.615601</ele>
        <time>2021-07-07T09:10:25+0200</time>
      </trkpt>
      <trkpt lat="45.70523" lon="2.95361">
        <ele>1017.714066</ele>
        <time>2021-07-07T09:10:26+0200</time>
      </trkpt>
      <trkpt lat="45.70518" lon="2.95371">
        <ele>1015.994833</ele>
        <time>2021-07-07T09:10:27+0200</time>
      </trkpt>
      <trkpt lat="45.70509" lon="2.95381">
        <ele>1013.678061</ele>
        <time>2021-07-07T09:10:28+0200</time>
      </trkpt>
      <trkpt lat="45.70503" lon="2.95394">
        <ele>1012.410642</ele>
        <time>2021-07-07T09:10:29+0200</time>
      </trkpt>
      <trkpt lat="45.70497" lon="2.95406">
        <ele>1010.916872</ele>
        <time>2021-07-07T09:10:30+0200</time>
      </trkpt>
      <trkpt lat="45.7049" lon="2.9542">
        <ele>1009.20743</ele>
        <time>2021-07-07T09:10:31+0200</time>
      </trkpt>
      <trkpt lat="45.70486" lon="2.95432">
        <ele>1008.046276</ele>
        <time>2021-07-07T09:10:32+0200</time>
      </trkpt>
      <trkpt lat="45.7048" lon="2.95444">
        <ele>1006.455371</ele>
        <time>2021-07-07T09:10:33+0200</time>
      </trkpt>
      <trkpt lat="45.70475" lon="2.95458">
        <ele>1005.880697</ele>
        <time>2021-07-07T09:10:34+0200</time>
      </trkpt>
      <trkpt lat="45.70472" lon="2.95472">
        <ele>1004.787842</ele>
        <time>2021-07-07T09:10:35+0200</time>
      </trkpt>
      <trkpt lat="45.70471" lon="2.95485">
        <ele>1003.94617</ele>
        <time>2021-07-07T09:10:36+0200</time>
      </trkpt>
      <trkpt lat="45.70471" lon="2.95495">
        <ele>1002.668709</ele>
        <time>2021-07-07T09:10:37+0200</time>
      </trkpt>
      <trkpt lat="45.70472" lon="2.95503">
        <ele>1001.611356</ele>
        <time>2021-07-07T09:10:38+0200</time>
      </trkpt>
      <trkpt lat="45.7047" lon="2.95516">
        <ele>1000.890094</ele>
        <time>2021-07-07T09:10:39+0200</time>
      </trkpt>
      <trkpt lat="45.70465" lon="2.95527">
        <ele>1000.643025</ele>
        <time>2021-07-07T09:10:40+0200</time>
      </trkpt>
      <trkpt lat="45.70461" lon="2.95538">
        <ele>1000.01128</ele>
        <time>2021-07-07T09:10:41+0200</time>
      </trkpt>
      <trkpt lat="45.70457" lon="2.9555">
        <ele>998.810647</ele>
        <time>2021-07-07T09:10:42+0200</time>
      </trkpt>
      <trkpt lat="45.70453" lon="2.95564">
        <ele>997.514471</ele>
        <time>2021-07-07T09:10:43+0200</time>
      </trkpt>
      <trkpt lat="45.7045" lon="2.95576">
        <ele>997.380801</ele>
        <time>2021-07-07T09:10:44+0200</time>
      </trkpt>
      <trkpt lat="45.70445" lon="2.95586">
        <ele>997.526244</ele>
        <time>2021-07-07T09:10:45+0200</time>
      </trkpt>
      <trkpt lat="45.70442" lon="2.95594">
        <ele>997.618533</ele>
        <time>2021-07-07T09:10:46+0200</time>
      </trkpt>
      <trkpt lat="45.70438" lon="2.95602">
        <ele>997.208042</ele>
        <time>2021-07-07T09:10:47+0200</time>
      </trkpt>
      <trkpt lat="45.70433" lon="2.9561">
        <ele>997.068785</ele>
        <time>2021-07-07T09:10:48+0200</time>
      </trkpt>
      <trkpt lat="45.70427" lon="2.9562">
        <ele>996.16174</ele>
        <time>2021-07-07T09:10:48+0200</time>
      </trkpt>
      <trkpt lat="45.7042" lon="2.95625">
        <ele>995.266775</ele>
        <time>2021-07-07T09:10:49+0200</time>
      </trkpt>
      <trkpt lat="45.70412" lon="2.95631">
        <ele>994.837911</ele>
        <time>2021-07-07T09:10:50+0200</time>
      </trkpt>
      <trkpt lat="45.70404" lon="2.95641">
        <ele>995.489032</ele>
        <time>2021-07-07T09:10:51+0200</time>
      </trkpt>
      <trkpt lat="45.70399" lon="2.95654">
        <ele>992.542744</ele>
        <time>2021-07-07T09:10:52+0200</time>
      </trkpt>
      <trkpt lat="45.70392" lon="2.95662">
        <ele>993.025766</ele>
        <time>2021-07-07T09:10:53+0200</time>
      </trkpt>
      <trkpt lat="45.70386" lon="2.95669">
        <ele>992.548558</ele>
        <time>2021-07-07T09:10:54+0200</time>
      </trkpt>
      <trkpt lat="45.70379" lon="2.95674">
        <ele>993.913034</ele>
        <time>2021-07-07T09:10:55+0200</time>
      </trkpt>
      <trkpt lat="45.70375" lon="2.95682">
        <ele>993.307455</ele>
        <time>2021-07-07T09:10:56+0200</time>
      </trkpt>
      <trkpt lat="45.70372" lon="2.95691">
        <ele>991.972459</ele>
        <time>2021-07-07T09:10:58+0200</time>
      </trkpt>
      <trkpt lat="45.7037" lon="2.957">
        <ele>992.02261</ele>
        <time>2021-07-07T09:11:00+0200</time>
      </trkpt>
      <trkpt lat="45.70368" lon="2.95709">
        <ele>992.561486</ele>
        <time>2021-07-07T09:11:03+0200</time>
      </trkpt>
      <trkpt lat="45.70366" lon="2.95716">
        <ele>992.754891</ele>
        <time>2021-07-07T09:11:05+0200</time>
      </trkpt>
      <trkpt lat="45.70365" lon="2.95722">
        <ele>992.521132</ele>
        <time>2021-07-07T09:11:07+0200</time>
      </trkpt>
      <trkpt lat="45.70364" lon="2.9573">
        <ele>992.710685</ele>
        <time>2021-07-07T09:11:09+0200</time>
      </trkpt>
      <trkpt lat="45.70363" lon="2.95737">
        <ele>993.179404</ele>
        <time>2021-07-07T09:11:11+0200</time>
      </trkpt>
      <trkpt lat="45.7036" lon="2.95744">
        <ele>993.326131</ele>
        <time>2021-07-07T09:11:13+0200</time>
      </trkpt>
      <trkpt lat="45.70357" lon="2.9575">
        <ele>994.686643</ele>
        <time>2021-07-07T09:11:15+0200</time>
      </trkpt>
      <trkpt lat="45.70355" lon="2.95757">
        <ele>994.5018</ele>
        <time>2021-07-07T09:11:17+0200</time>
      </trkpt>
      <trkpt lat="45.70353" lon="2.95763">
        <ele>993.4823</ele>
        <time>2021-07-07T09:11:19+0200</time>
      </trkpt>
      <trkpt lat="45.70348" lon="2.95766">
        <ele>993.938999</ele>
        <time>2021-07-07T09:11:21+0200</time>
      </trkpt>
      <trkpt lat="45.70347" lon="2.95773">
        <ele>994.925373</ele>
        <time>2021-07-07T09:11:23+0200</time>
      </trkpt>
      <trkpt lat="45.70343" lon="2.95777">
        <ele>993.902096</ele>
        <time>2021-07-07T09:11:26+0200</time>
      </trkpt>
      <trkpt lat="45.7034" lon="2.95784">
        <ele>993.848897</ele>
        <time>2021-07-07T09:11:29+0200</time>
      </trkpt>
      <trkpt lat="45.70339" lon="2.9579">
        <ele>993.066519</ele>
        <time>2021-07-07T09:11:33+0200</time>
      </trkpt>
      <trkpt lat="45.70336" lon="2.95796">
        <ele>993.491128</ele>
        <time>2021-07-07T09:11:37+0200</time>
      </trkpt>
      <trkpt lat="45.70333" lon="2.95801">
        <ele>992.882285</ele>
        <time>2021-07-07T09:11:40+0200</time>
      </trkpt>
      <trkpt lat="45.70336" lon="2.95797">
        <ele>994.170115</ele>
        <time>2021-07-07T09:11:48+0200</time>
      </trkpt>
      <trkpt lat="45.7034" lon="2.95801">
        <ele>992.824464</ele>
        <time>2021-07-07T09:11:55+0200</time>
      </trkpt>
      <trkpt lat="45.70334" lon="2.95804">
        <ele>996.986861</ele>
        <time>2021-07-07T09:12:27+0200</time>
      </trkpt>
      <trkpt lat="45.7033" lon="2.9581">
        <ele>996.470281</ele>
        <time>2021-07-07T09:12:29+0200</time>
      </trkpt>
      <trkpt lat="45.70326" lon="2.95818">
        <ele>995.196108</ele>
        <time>2021-07-07T09:12:31+0200</time>
      </trkpt>
      <trkpt lat="45.70322" lon="2.95826">
        <ele>994.228737</ele>
        <time>2021-07-07T09:12:33+0200</time>
      </trkpt>
      <trkpt lat="45.70318" lon="2.95835">
        <ele>993.871997</ele>
        <time>2021-07-07T09:12:35+0200</time>
      </trkpt>
      <trkpt lat="45.70312" lon="2.95841">
        <ele>993.500104</ele>
        <time>2021-07-07T09:12:37+0200</time>
      </trkpt>
      <trkpt lat="45.70305" lon="2.95849">
        <ele>993.384875</ele>
        <time>2021-07-07T09:12:40+0200</time>
      </trkpt>
      <trkpt lat="45.70302" lon="2.95854">
        <ele>993.236388</ele>
        <time>2021-07-07T09:12:41+0200</time>
      </trkpt>
      <trkpt lat="45.70296" lon="2.95864">
        <ele>992.931745</ele>
        <time>2021-07-07T09:12:43+0200</time>
      </trkpt>
      <trkpt lat="45.70294" lon="2.95869">
        <ele>992.964263</ele>
        <time>2021-07-07T09:12:44+0200</time>
      </trkpt>
      <trkpt lat="45.70288" lon="2.9588">
        <ele>991.84569</ele>
        <time>2021-07-07T09:12:46+0200</time>
      </trkpt>
      <trkpt lat="45.70284" lon="2.95884">
        <ele>992.086918</ele>
        <time>2021-07-07T09:12:47+0200</time>
      </trkpt>
      <trkpt lat="45.7028" lon="2.9589">
        <ele>992.046738</ele>
        <time>2021-07-07T09:12:48+0200</time>
      </trkpt>
      <trkpt lat="45.70278" lon="2.95895">
        <ele>992.477633</ele>
        <time>2021-07-07T09:12:49+0200</time>
      </trkpt>
      <trkpt lat="45.70275" lon="2.95902">
        <ele>992.306572</ele>
        <time>2021-07-07T09:12:50+0200</time>
      </trkpt>
      <trkpt lat="45.70273" lon="2.95907">
        <ele>992.124832</ele>
        <time>2021-07-07T09:12:51+0200</time>
      </trkpt>
      <trkpt lat="45.7027" lon="2.95913">
        <ele>992.02291</ele>
        <time>2021-07-07T09:12:52+0200</time>
      </trkpt>
      <trkpt lat="45.70268" lon="2.95922">
        <ele>992.78985</ele>
        <time>2021-07-07T09:12:54+0200</time>
      </trkpt>
      <trkpt lat="45.70267" lon="2.95931">
        <ele>993.45924</ele>
        <time>2021-07-07T09:12:56+0200</time>
      </trkpt>
      <trkpt lat="45.70263" lon="2.95941">
        <ele>994.236841</ele>
        <time>2021-07-07T09:12:58+0200</time>
      </trkpt>
      <trkpt lat="45.70259" lon="2.95949">
        <ele>994.291341</ele>
        <time>2021-07-07T09:13:00+0200</time>
      </trkpt>
      <trkpt lat="45.70254" lon="2.95955">
        <ele>994.441815</ele>
        <time>2021-07-07T09:13:02+0200</time>
      </trkpt>
      <trkpt lat="45.70247" lon="2.95958">
        <ele>995.922142</ele>
        <time>2021-07-07T09:13:04+0200</time>
      </trkpt>
      <trkpt lat="45.7024" lon="2.9596">
        <ele>996.21034</ele>
        <time>2021-07-07T09:13:06+0200</time>
      </trkpt>
      <trkpt lat="45.70233" lon="2.95962">
        <ele>996.617327</ele>
        <time>2021-07-07T09:13:08+0200</time>
      </trkpt>
      <trkpt lat="45.70229" lon="2.95968">
        <ele>997.461008</ele>
        <time>2021-07-07T09:13:10+0200</time>
      </trkpt>
      <trkpt lat="45.70227" lon="2.95975">
        <ele>996.796266</ele>
        <time>2021-07-07T09:13:12+0200</time>
      </trkpt>
      <trkpt lat="45.70227" lon="2.95982">
        <ele>996.012776</ele>
        <time>2021-07-07T09:13:14+0200</time>
      </trkpt>
      <trkpt lat="45.70225" lon="2.95989">
        <ele>995.380289</ele>
        <time>2021-07-07T09:13:16+0200</time>
      </trkpt>
      <trkpt lat="45.70221" lon="2.95994">
        <ele>994.9334</ele>
        <time>2021-07-07T09:13:18+0200</time>
      </trkpt>
      <trkpt lat="45.70218" lon="2.96001">
        <ele>992.342614</ele>
        <time>2021-07-07T09:13:20+0200</time>
      </trkpt>
      <trkpt lat="45.70215" lon="2.9601">
        <ele>991.776025</ele>
        <time>2021-07-07T09:13:23+0200</time>
      </trkpt>
      <trkpt lat="45.7021" lon="2.96018">
        <ele>991.59645</ele>
        <time>2021-07-07T09:13:25+0200</time>
      </trkpt>
      <trkpt lat="45.70203" lon="2.96023">
        <ele>992.321168</ele>
        <time>2021-07-07T09:13:27+0200</time>
      </trkpt>
      <trkpt lat="45.70197" lon="2.96031">
        <ele>994.348488</ele>
        <time>2021-07-07T09:13:29+0200</time>
      </trkpt>
      <trkpt lat="45.70193" lon="2.96038">
        <ele>994.715845</ele>
        <time>2021-07-07T09:13:31+0200</time>
      </trkpt>
      <trkpt lat="45.7019" lon="2.96043">
        <ele>994.351207</ele>
        <time>2021-07-07T09:13:32+0200</time>
      </trkpt>
      <trkpt lat="45.70183" lon="2.96051">
        <ele>994.305127</ele>
        <time>2021-07-07T09:13:34+0200</time>
      </trkpt>
      <trkpt lat="45.70179" lon="2.96056">
        <ele>993.803857</ele>
        <time>2021-07-07T09:13:35+0200</time>
      </trkpt>
      <trkpt lat="45.70175" lon="2.96068">
        <ele>993.722866</ele>
        <time>2021-07-07T09:13:37+0200</time>
      </trkpt>
      <trkpt lat="45.70174" lon="2.96075">
        <ele>993.696121</ele>
        <time>2021-07-07T09:13:38+0200</time>
      </trkpt>
      <trkpt lat="45.7017" lon="2.96079">
        <ele>993.31117</ele>
        <time>2021-07-07T09:13:39+0200</time>
      </trkpt>
      <trkpt lat="45.70165" lon="2.96084">
        <ele>993.983064</ele>
        <time>2021-07-07T09:13:40+0200</time>
      </trkpt>
      <trkpt lat="45.70159" lon="2.96092">
        <ele>993.412575</ele>
        <time>2021-07-07T09:13:42+0200</time>
      </trkpt>
      <trkpt lat="45.70155" lon="2.961">
        <ele>993.587383</ele>
        <time>2021-07-07T09:13:44+0200</time>
      </trkpt>
      <trkpt lat="45.70149" lon="2.96107">
        <ele>992.823691</ele>
        <time>2021-07-07T09:13:46+0200</time>
      </trkpt>
      <trkpt lat="45.70145" lon="2.96113">
        <ele>992.740432</ele>
        <time>2021-07-07T09:13:48+0200</time>
      </trkpt>
      <trkpt lat="45.70142" lon="2.96119">
        <ele>993.642681</ele>
        <time>2021-07-07T09:13:49+0200</time>
      </trkpt>
      <trkpt lat="45.70139" lon="2.96124">
        <ele>994.625283</ele>
        <time>2021-07-07T09:13:50+0200</time>
      </trkpt>
      <trkpt lat="45.70134" lon="2.96136">
        <ele>997.065204</ele>
        <time>2021-07-07T09:13:52+0200</time>
      </trkpt>
      <trkpt lat="45.70128" lon="2.96144">
        <ele>995.476097</ele>
        <time>2021-07-07T09:13:54+0200</time>
      </trkpt>
      <trkpt lat="45.70125" lon="2.96151">
        <ele>995.358074</ele>
        <time>2021-07-07T09:13:56+0200</time>
      </trkpt>
      <trkpt lat="45.70122" lon="2.9616">
        <ele>996.08153</ele>
        <time>2021-07-07T09:13:58+0200</time>
      </trkpt>
      <trkpt lat="45.70119" lon="2.9617">
        <ele>997.277944</ele>
        <time>2021-07-07T09:14:00+0200</time>
      </trkpt>
      <trkpt lat="45.70116" lon="2.96177">
        <ele>998.667941</ele>
        <time>2021-07-07T09:14:02+0200</time>
      </trkpt>
      <trkpt lat="45.70114" lon="2.96185">
        <ele>999.151057</ele>
        <time>2021-07-07T09:14:04+0200</time>
      </trkpt>
      <trkpt lat="45.70111" lon="2.96194">
        <ele>998.850471</ele>
        <time>2021-07-07T09:14:06+0200</time>
      </trkpt>
      <trkpt lat="45.70107" lon="2.96201">
        <ele>998.500034</ele>
        <time>2021-07-07T09:14:08+0200</time>
      </trkpt>
      <trkpt lat="45.70104" lon="2.96207">
        <ele>999.619069</ele>
        <time>2021-07-07T09:14:10+0200</time>
      </trkpt>
      <trkpt lat="45.70101" lon="2.96212">
        <ele>1001.893429</ele>
        <time>2021-07-07T09:14:12+0200</time>
      </trkpt>
      <trkpt lat="45.70098" lon="2.96219">
        <ele>1001.993501</ele>
        <time>2021-07-07T09:14:14+0200</time>
      </trkpt>
      <trkpt lat="45.70096" lon="2.96226">
        <ele>1002.399101</ele>
        <time>2021-07-07T09:14:16+0200</time>
      </trkpt>
      <trkpt lat="45.70093" lon="2.96233">
        <ele>1003.275844</ele>
        <time>2021-07-07T09:14:18+0200</time>
      </trkpt>
      <trkpt lat="45.7009" lon="2.96239">
        <ele>1003.673064</ele>
        <time>2021-07-07T09:14:20+0200</time>
      </trkpt>
      <trkpt lat="45.70089" lon="2.96246">
        <ele>1004.103542</ele>
        <time>2021-07-07T09:14:22+0200</time>
      </trkpt>
      <trkpt lat="45.70086" lon="2.96253">
        <ele>1005.290615</ele>
        <time>2021-07-07T09:14:24+0200</time>
      </trkpt>
      <trkpt lat="45.70083" lon="2.96261">
        <ele>1004.728635</ele>
        <time>2021-07-07T09:14:26+0200</time>
      </trkpt>
      <trkpt lat="45.70081" lon="2.9627">
        <ele>1005.423584</ele>
        <time>2021-07-07T09:14:28+0200</time>
      </trkpt>
      <trkpt lat="45.70078" lon="2.96278">
        <ele>1005.401185</ele>
        <time>2021-07-07T09:14:30+0200</time>
      </trkpt>
      <trkpt lat="45.70078" lon="2.96286">
        <ele>1005.392764</ele>
        <time>2021-07-07T09:14:32+0200</time>
      </trkpt>
      <trkpt lat="45.70075" lon="2.96294">
        <ele>1005.793598</ele>
        <time>2021-07-07T09:14:34+0200</time>
      </trkpt>
      <trkpt lat="45.70072" lon="2.96302">
        <ele>1006.73365</ele>
        <time>2021-07-07T09:14:36+0200</time>
      </trkpt>
      <trkpt lat="45.70069" lon="2.96313">
        <ele>1006.779821</ele>
        <time>2021-07-07T09:14:38+0200</time>
      </trkpt>
      <trkpt lat="45.70067" lon="2.96319">
        <ele>1006.616623</ele>
        <time>2021-07-07T09:14:39+0200</time>
      </trkpt>
      <trkpt lat="45.70065" lon="2.96326">
        <ele>1004.829252</ele>
        <time>2021-07-07T09:14:41+0200</time>
      </trkpt>
      <trkpt lat="45.70065" lon="2.96333">
        <ele>1002.083769</ele>
        <time>2021-07-07T09:14:43+0200</time>
      </trkpt>
      <trkpt lat="45.70064" lon="2.9634">
        <ele>1001.399482</ele>
        <time>2021-07-07T09:14:48+0200</time>
      </trkpt>
      <trkpt lat="45.70066" lon="2.9635">
        <ele>1000.270431</ele>
        <time>2021-07-07T09:14:50+0200</time>
      </trkpt>
      <trkpt lat="45.70067" lon="2.96357">
        <ele>998.616134</ele>
        <time>2021-07-07T09:14:51+0200</time>
      </trkpt>
      <trkpt lat="45.70067" lon="2.96367">
        <ele>997.254434</ele>
        <time>2021-07-07T09:14:53+0200</time>
      </trkpt>
      <trkpt lat="45.70067" lon="2.96375">
        <ele>995.069021</ele>
        <time>2021-07-07T09:14:54+0200</time>
      </trkpt>
      <trkpt lat="45.70068" lon="2.96383">
        <ele>993.746281</ele>
        <time>2021-07-07T09:14:55+0200</time>
      </trkpt>
      <trkpt lat="45.70066" lon="2.9639">
        <ele>993.120868</ele>
        <time>2021-07-07T09:14:56+0200</time>
      </trkpt>
      <trkpt lat="45.70065" lon="2.96398">
        <ele>992.646754</ele>
        <time>2021-07-07T09:14:57+0200</time>
      </trkpt>
      <trkpt lat="45.70065" lon="2.96408">
        <ele>992.134821</ele>
        <time>2021-07-07T09:14:58+0200</time>
      </trkpt>
      <trkpt lat="45.70064" lon="2.96419">
        <ele>991.281097</ele>
        <time>2021-07-07T09:14:59+0200</time>
      </trkpt>
      <trkpt lat="45.70065" lon="2.96429">
        <ele>992.082779</ele>
        <time>2021-07-07T09:15:00+0200</time>
      </trkpt>
      <trkpt lat="45.70063" lon="2.96438">
        <ele>992.933064</ele>
        <time>2021-07-07T09:15:01+0200</time>
      </trkpt>
      <trkpt lat="45.70062" lon="2.96446">
        <ele>993.577956</ele>
        <time>2021-07-07T09:15:02+0200</time>
      </trkpt>
      <trkpt lat="45.70062" lon="2.96456">
        <ele>994.863028</ele>
        <time>2021-07-07T09:15:03+0200</time>
      </trkpt>
      <trkpt lat="45.70061" lon="2.96466">
        <ele>996.499207</ele>
        <time>2021-07-07T09:15:04+0200</time>
      </trkpt>
      <trkpt lat="45.70064" lon="2.96479">
        <ele>997.072406</ele>
        <time>2021-07-07T09:15:05+0200</time>
      </trkpt>
      <trkpt lat="45.70064" lon="2.96492">
        <ele>996.428716</ele>
        <time>2021-07-07T09:15:06+0200</time>
      </trkpt>
      <trkpt lat="45.7007" lon="2.96502">
        <ele>995.523347</ele>
        <time>2021-07-07T09:15:07+0200</time>
      </trkpt>
      <trkpt lat="45.70074" lon="2.96511">
        <ele>994.376165</ele>
        <time>2021-07-07T09:15:08+0200</time>
      </trkpt>
      <trkpt lat="45.70079" lon="2.96521">
        <ele>993.987752</ele>
        <time>2021-07-07T09:15:09+0200</time>
      </trkpt>
      <trkpt lat="45.70083" lon="2.96533">
        <ele>993.591998</ele>
        <time>2021-07-07T09:15:10+0200</time>
      </trkpt>
      <trkpt lat="45.70089" lon="2.96543">
        <ele>993.61464</ele>
        <time>2021-07-07T09:15:11+0200</time>
      </trkpt>
      <trkpt lat="45.70096" lon="2.96553">
        <ele>994.201925</ele>
        <time>2021-07-07T09:15:12+0200</time>
      </trkpt>
      <trkpt lat="45.70102" lon="2.9656">
        <ele>992.846975</ele>
        <time>2021-07-07T09:15:13+0200</time>
      </trkpt>
      <trkpt lat="45.70109" lon="2.9657">
        <ele>991.015662</ele>
        <time>2021-07-07T09:15:14+0200</time>
      </trkpt>
      <trkpt lat="45.70115" lon="2.96582">
        <ele>989.16368</ele>
        <time>2021-07-07T09:15:15+0200</time>
      </trkpt>
      <trkpt lat="45.7012" lon="2.96593">
        <ele>987.751082</ele>
        <time>2021-07-07T09:15:16+0200</time>
      </trkpt>
      <trkpt lat="45.70126" lon="2.96603">
        <ele>986.736533</ele>
        <time>2021-07-07T09:15:17+0200</time>
      </trkpt>
      <trkpt lat="45.70126" lon="2.96616">
        <ele>984.373704</ele>
        <time>2021-07-07T09:15:18+0200</time>
      </trkpt>
      <trkpt lat="45.70128" lon="2.96628">
        <ele>982.360455</ele>
        <time>2021-07-07T09:15:19+0200</time>
      </trkpt>
      <trkpt lat="45.7013" lon="2.96639">
        <ele>980.147956</ele>
        <time>2021-07-07T09:15:20+0200</time>
      </trkpt>
      <trkpt lat="45.70131" lon="2.96649">
        <ele>979.518186</ele>
        <time>2021-07-07T09:15:21+0200</time>
      </trkpt>
      <trkpt lat="45.70133" lon="2.96661">
        <ele>977.161531</ele>
        <time>2021-07-07T09:15:22+0200</time>
      </trkpt>
      <trkpt lat="45.70136" lon="2.96668">
        <ele>975.504893</ele>
        <time>2021-07-07T09:15:23+0200</time>
      </trkpt>
      <trkpt lat="45.70138" lon="2.96677">
        <ele>977.025605</ele>
        <time>2021-07-07T09:15:25+0200</time>
      </trkpt>
      <trkpt lat="45.70138" lon="2.96688">
        <ele>978.08446</ele>
        <time>2021-07-07T09:15:27+0200</time>
      </trkpt>
      <trkpt lat="45.70139" lon="2.96698">
        <ele>980.03345</ele>
        <time>2021-07-07T09:15:29+0200</time>
      </trkpt>
      <trkpt lat="45.70139" lon="2.96711">
        <ele>982.175899</ele>
        <time>2021-07-07T09:15:31+0200</time>
      </trkpt>
      <trkpt lat="45.70139" lon="2.96721">
        <ele>985.242753</ele>
        <time>2021-07-07T09:15:33+0200</time>
      </trkpt>
      <trkpt lat="45.70138" lon="2.9673">
        <ele>987.239181</ele>
        <time>2021-07-07T09:15:35+0200</time>
      </trkpt>
      <trkpt lat="45.70139" lon="2.9674">
        <ele>988.389446</ele>
        <time>2021-07-07T09:15:37+0200</time>
      </trkpt>
      <trkpt lat="45.70141" lon="2.96748">
        <ele>989.819149</ele>
        <time>2021-07-07T09:15:39+0200</time>
      </trkpt>
      <trkpt lat="45.70141" lon="2.96756">
        <ele>988.841582</ele>
        <time>2021-07-07T09:15:42+0200</time>
      </trkpt>
      <trkpt lat="45.70145" lon="2.96761">
        <ele>990.064723</ele>
        <time>2021-07-07T09:15:49+0200</time>
      </trkpt>
      <trkpt lat="45.7014" lon="2.96761">
        <ele>992.634286</ele>
        <time>2021-07-07T09:15:59+0200</time>
      </trkpt>
      <trkpt lat="45.70141" lon="2.96755">
        <ele>987.848941</ele>
        <time>2021-07-07T09:16:15+0200</time>
      </trkpt>
      <trkpt lat="45.70139" lon="2.96762">
        <ele>982.775918</ele>
        <time>2021-07-07T09:16:22+0200</time>
      </trkpt>
      <trkpt lat="45.70136" lon="2.96769">
        <ele>982.388437</ele>
        <time>2021-07-07T09:16:24+0200</time>
      </trkpt>
      <trkpt lat="45.70131" lon="2.96777">
        <ele>983.137707</ele>
        <time>2021-07-07T09:16:26+0200</time>
      </trkpt>
      <trkpt lat="45.70127" lon="2.96788">
        <ele>983.351627</ele>
        <time>2021-07-07T09:16:28+0200</time>
      </trkpt>
      <trkpt lat="45.70125" lon="2.96798">
        <ele>984.822171</ele>
        <time>2021-07-07T09:16:30+0200</time>
      </trkpt>
      <trkpt lat="45.70122" lon="2.96808">
        <ele>984.543248</ele>
        <time>2021-07-07T09:16:32+0200</time>
      </trkpt>
      <trkpt lat="45.70119" lon="2.96816">
        <ele>983.204915</ele>
        <time>2021-07-07T09:16:35+0200</time>
      </trkpt>
      <trkpt lat="45.70114" lon="2.96822">
        <ele>985.002891</ele>
        <time>2021-07-07T09:16:39+0200</time>
      </trkpt>
      <trkpt lat="45.7011" lon="2.96831">
        <ele>986.76356</ele>
        <time>2021-07-07T09:16:41+0200</time>
      </trkpt>
      <trkpt lat="45.70108" lon="2.96841">
        <ele>987.942457</ele>
        <time>2021-07-07T09:16:43+0200</time>
      </trkpt>
      <trkpt lat="45.70106" lon="2.96851">
        <ele>988.446864</ele>
        <time>2021-07-07T09:16:45+0200</time>
      </trkpt>
      <trkpt lat="45.70101" lon="2.96859">
        <ele>988.509261</ele>
        <time>2021-07-07T09:16:47+0200</time>
      </trkpt>
      <trkpt lat="45.70097" lon="2.96869">
        <ele>987.110477</ele>
        <time>2021-07-07T09:16:49+0200</time>
      </trkpt>
      <trkpt lat="45.70093" lon="2.96878">
        <ele>987.351967</ele>
        <time>2021-07-07T09:16:51+0200</time>
      </trkpt>
      <trkpt lat="45.70088" lon="2.9689">
        <ele>986.100548</ele>
        <time>2021-07-07T09:16:53+0200</time>
      </trkpt>
      <trkpt lat="45.70087" lon="2.96897">
        <ele>985.621452</ele>
        <time>2021-07-07T09:16:54+0200</time>
      </trkpt>
      <trkpt lat="45.70085" lon="2.96909">
        <ele>985.018508</ele>
        <time>2021-07-07T09:16:56+0200</time>
      </trkpt>
      <trkpt lat="45.70082" lon="2.96918">
        <ele>983.937175</ele>
        <time>2021-07-07T09:16:58+0200</time>
      </trkpt>
      <trkpt lat="45.70084" lon="2.96925">
        <ele>983.179532</ele>
        <time>2021-07-07T09:17:00+0200</time>
      </trkpt>
      <trkpt lat="45.70081" lon="2.96933">
        <ele>981.262336</ele>
        <time>2021-07-07T09:17:02+0200</time>
      </trkpt>
      <trkpt lat="45.70078" lon="2.96939">
        <ele>980.112127</ele>
        <time>2021-07-07T09:17:04+0200</time>
      </trkpt>
      <trkpt lat="45.70072" lon="2.96948">
        <ele>979.4312</ele>
        <time>2021-07-07T09:17:06+0200</time>
      </trkpt>
      <trkpt lat="45.70071" lon="2.96957">
        <ele>978.950816</ele>
        <time>2021-07-07T09:17:08+0200</time>
      </trkpt>
      <trkpt lat="45.70067" lon="2.96967">
        <ele>979.635992</ele>
        <time>2021-07-07T09:17:10+0200</time>
      </trkpt>
      <trkpt lat="45.70063" lon="2.96974">
        <ele>980.405851</ele>
        <time>2021-07-07T09:17:12+0200</time>
      </trkpt>
      <trkpt lat="45.7006" lon="2.9698">
        <ele>981.286381</ele>
        <time>2021-07-07T09:17:13+0200</time>
      </trkpt>
      <trkpt lat="45.70055" lon="2.9699">
        <ele>981.406431</ele>
        <time>2021-07-07T09:17:15+0200</time>
      </trkpt>
      <trkpt lat="45.70051" lon="2.96995">
        <ele>982.118567</ele>
        <time>2021-07-07T09:17:17+0200</time>
      </trkpt>
      <trkpt lat="45.70047" lon="2.97003">
        <ele>983.232868</ele>
        <time>2021-07-07T09:17:19+0200</time>
      </trkpt>
      <trkpt lat="45.70044" lon="2.97008">
        <ele>983.912077</ele>
        <time>2021-07-07T09:17:21+0200</time>
      </trkpt>
      <trkpt lat="45.70039" lon="2.97013">
        <ele>982.731622</ele>
        <time>2021-07-07T09:17:24+0200</time>
      </trkpt>
      <trkpt lat="45.70035" lon="2.9702">
        <ele>982.706167</ele>
        <time>2021-07-07T09:17:27+0200</time>
      </trkpt>
      <trkpt lat="45.70032" lon="2.97028">
        <ele>983.303295</ele>
        <time>2021-07-07T09:17:29+0200</time>
      </trkpt>
      <trkpt lat="45.70027" lon="2.97036">
        <ele>983.768466</ele>
        <time>2021-07-07T09:17:32+0200</time>
      </trkpt>
      <trkpt lat="45.70024" lon="2.9704">
        <ele>984.219645</ele>
        <time>2021-07-07T09:17:34+0200</time>
      </trkpt>
      <trkpt lat="45.70021" lon="2.97048">
        <ele>983.904791</ele>
        <time>2021-07-07T09:17:36+0200</time>
      </trkpt>
      <trkpt lat="45.70017" lon="2.97053">
        <ele>984.390786</ele>
        <time>2021-07-07T09:17:38+0200</time>
      </trkpt>
      <trkpt lat="45.70015" lon="2.9706">
        <ele>985.591718</ele>
        <time>2021-07-07T09:17:40+0200</time>
      </trkpt>
      <trkpt lat="45.70013" lon="2.97066">
        <ele>986.760215</ele>
        <time>2021-07-07T09:17:42+0200</time>
      </trkpt>
      <trkpt lat="45.70011" lon="2.97075">
        <ele>989.382789</ele>
        <time>2021-07-07T09:17:44+0200</time>
      </trkpt>
      <trkpt lat="45.70009" lon="2.97081">
        <ele>990.357886</ele>
        <time>2021-07-07T09:17:45+0200</time>
      </trkpt>
      <trkpt lat="45.70007" lon="2.97088">
        <ele>991.61286</ele>
        <time>2021-07-07T09:17:47+0200</time>
      </trkpt>
      <trkpt lat="45.70004" lon="2.97097">
        <ele>992.548669</ele>
        <time>2021-07-07T09:17:49+0200</time>
      </trkpt>
      <trkpt lat="45.70002" lon="2.97105">
        <ele>991.97414</ele>
        <time>2021-07-07T09:17:51+0200</time>
      </trkpt>
      <trkpt lat="45.69998" lon="2.97112">
        <ele>989.813501</ele>
        <time>2021-07-07T09:17:54+0200</time>
      </trkpt>
      <trkpt lat="45.69995" lon="2.97122">
        <ele>988.462836</ele>
        <time>2021-07-07T09:17:57+0200</time>
      </trkpt>
      <trkpt lat="45.69992" lon="2.97129">
        <ele>989.673984</ele>
        <time>2021-07-07T09:17:59+0200</time>
      </trkpt>
      <trkpt lat="45.69987" lon="2.97137">
        <ele>989.369799</ele>
        <time>2021-07-07T09:18:01+0200</time>
      </trkpt>
      <trkpt lat="45.69984" lon="2.97147">
        <ele>990.254684</ele>
        <time>2021-07-07T09:18:04+0200</time>
      </trkpt>
      <trkpt lat="45.69979" lon="2.97152">
        <ele>990.812778</ele>
        <time>2021-07-07T09:18:06+0200</time>
      </trkpt>
      <trkpt lat="45.69978" lon="2.9716">
        <ele>990.991253</ele>
        <time>2021-07-07T09:18:08+0200</time>
      </trkpt>
      <trkpt lat="45.69975" lon="2.97168">
        <ele>990.000134</ele>
        <time>2021-07-07T09:18:10+0200</time>
      </trkpt>
      <trkpt lat="45.69972" lon="2.97178">
        <ele>989.135948</ele>
        <time>2021-07-07T09:18:13+0200</time>
      </trkpt>
      <trkpt lat="45.6997" lon="2.97188">
        <ele>989.315779</ele>
        <time>2021-07-07T09:18:15+0200</time>
      </trkpt>
      <trkpt lat="45.69968" lon="2.97198">
        <ele>989.053764</ele>
        <time>2021-07-07T09:18:17+0200</time>
      </trkpt>
      <trkpt lat="45.69966" lon="2.97205">
        <ele>988.914326</ele>
        <time>2021-07-07T09:18:18+0200</time>
      </trkpt>
      <trkpt lat="45.69964" lon="2.97214">
        <ele>989.393953</ele>
        <time>2021-07-07T09:18:20+0200</time>
      </trkpt>
      <trkpt lat="45.69961" lon="2.97224">
        <ele>989.048805</ele>
        <time>2021-07-07T09:18:23+0200</time>
      </trkpt>
      <trkpt lat="45.69959" lon="2.97236">
        <ele>988.658353</ele>
        <time>2021-07-07T09:18:25+0200</time>
      </trkpt>
      <trkpt lat="45.69957" lon="2.97246">
        <ele>986.898233</ele>
        <time>2021-07-07T09:18:27+0200</time>
      </trkpt>
      <trkpt lat="45.69955" lon="2.97258">
        <ele>987.280985</ele>
        <time>2021-07-07T09:18:29+0200</time>
      </trkpt>
      <trkpt lat="45.69953" lon="2.97265">
        <ele>987.64043</ele>
        <time>2021-07-07T09:18:30+0200</time>
      </trkpt>
      <trkpt lat="45.6995" lon="2.97271">
        <ele>987.437601</ele>
        <time>2021-07-07T09:18:31+0200</time>
      </trkpt>
      <trkpt lat="45.69946" lon="2.97282">
        <ele>987.495648</ele>
        <time>2021-07-07T09:18:33+0200</time>
      </trkpt>
      <trkpt lat="45.69944" lon="2.97288">
        <ele>987.904707</ele>
        <time>2021-07-07T09:18:34+0200</time>
      </trkpt>
      <trkpt lat="45.69942" lon="2.97303">
        <ele>988.775764</ele>
        <time>2021-07-07T09:18:36+0200</time>
      </trkpt>
      <trkpt lat="45.6994" lon="2.97311">
        <ele>987.421386</ele>
        <time>2021-07-07T09:18:37+0200</time>
      </trkpt>
      <trkpt lat="45.69939" lon="2.97318">
        <ele>986.27829</ele>
        <time>2021-07-07T09:18:38+0200</time>
      </trkpt>
      <trkpt lat="45.69937" lon="2.97327">
        <ele>984.708868</ele>
        <time>2021-07-07T09:18:39+0200</time>
      </trkpt>
      <trkpt lat="45.69934" lon="2.97332">
        <ele>984.054687</ele>
        <time>2021-07-07T09:18:40+0200</time>
      </trkpt>
      <trkpt lat="45.69932" lon="2.97339">
        <ele>983.543154</ele>
        <time>2021-07-07T09:18:41+0200</time>
      </trkpt>
      <trkpt lat="45.69929" lon="2.97351">
        <ele>982.885855</ele>
        <time>2021-07-07T09:18:43+0200</time>
      </trkpt>
      <trkpt lat="45.69928" lon="2.97358">
        <ele>982.155023</ele>
        <time>2021-07-07T09:18:44+0200</time>
      </trkpt>
      <trkpt lat="45.69926" lon="2.97364">
        <ele>982.004547</ele>
        <time>2021-07-07T09:18:45+0200</time>
      </trkpt>
      <trkpt lat="45.69923" lon="2.9737">
        <ele>982.251578</ele>
        <time>2021-07-07T09:18:46+0200</time>
      </trkpt>
      <trkpt lat="45.69921" lon="2.97378">
        <ele>982.915405</ele>
        <time>2021-07-07T09:18:47+0200</time>
      </trkpt>
      <trkpt lat="45.69918" lon="2.97384">
        <ele>982.775855</ele>
        <time>2021-07-07T09:18:48+0200</time>
      </trkpt>
      <trkpt lat="45.69915" lon="2.97391">
        <ele>982.24649</ele>
        <time>2021-07-07T09:18:49+0200</time>
      </trkpt>
      <trkpt lat="45.69911" lon="2.97397">
        <ele>981.497314</ele>
        <time>2021-07-07T09:18:50+0200</time>
      </trkpt>
      <trkpt lat="45.69907" lon="2.97405">
        <ele>980.295131</ele>
        <time>2021-07-07T09:18:52+0200</time>
      </trkpt>
      <trkpt lat="45.69903" lon="2.97411">
        <ele>980.033859</ele>
        <time>2021-07-07T09:18:53+0200</time>
      </trkpt>
      <trkpt lat="45.69898" lon="2.97417">
        <ele>978.514545</ele>
        <time>2021-07-07T09:18:54+0200</time>
      </trkpt>
      <trkpt lat="45.69895" lon="2.97426">
        <ele>978.084869</ele>
        <time>2021-07-07T09:18:55+0200</time>
      </trkpt>
      <trkpt lat="45.69891" lon="2.97437">
        <ele>976.709441</ele>
        <time>2021-07-07T09:18:57+0200</time>
      </trkpt>
      <trkpt lat="45.69887" lon="2.97448">
        <ele>975.654875</ele>
        <time>2021-07-07T09:18:59+0200</time>
      </trkpt>
      <trkpt lat="45.69887" lon="2.97454">
        <ele>974.793406</ele>
        <time>2021-07-07T09:19:00+0200</time>
      </trkpt>
      <trkpt lat="45.69884" lon="2.97462">
        <ele>973.644306</ele>
        <time>2021-07-07T09:19:01+0200</time>
      </trkpt>
      <trkpt lat="45.69882" lon="2.9747">
        <ele>972.662432</ele>
        <time>2021-07-07T09:19:02+0200</time>
      </trkpt>
      <trkpt lat="45.69879" lon="2.97479">
        <ele>971.592054</ele>
        <time>2021-07-07T09:19:03+0200</time>
      </trkpt>
      <trkpt lat="45.69877" lon="2.97486">
        <ele>971.454642</ele>
        <time>2021-07-07T09:19:04+0200</time>
      </trkpt>
      <trkpt lat="45.69874" lon="2.97493">
        <ele>971.917088</ele>
        <time>2021-07-07T09:19:05+0200</time>
      </trkpt>
      <trkpt lat="45.69871" lon="2.975">
        <ele>971.907489</ele>
        <time>2021-07-07T09:19:06+0200</time>
      </trkpt>
      <trkpt lat="45.69868" lon="2.97509">
        <ele>971.611603</ele>
        <time>2021-07-07T09:19:07+0200</time>
      </trkpt>
      <trkpt lat="45.69864" lon="2.97516">
        <ele>971.1663</ele>
        <time>2021-07-07T09:19:08+0200</time>
      </trkpt>
      <trkpt lat="45.69861" lon="2.97523">
        <ele>970.758027</ele>
        <time>2021-07-07T09:19:09+0200</time>
      </trkpt>
      <trkpt lat="45.69859" lon="2.97531">
        <ele>970.430126</ele>
        <time>2021-07-07T09:19:10+0200</time>
      </trkpt>
      <trkpt lat="45.69856" lon="2.97538">
        <ele>970.125595</ele>
        <time>2021-07-07T09:19:11+0200</time>
      </trkpt>
      <trkpt lat="45.69854" lon="2.97548">
        <ele>969.466734</ele>
        <time>2021-07-07T09:19:12+0200</time>
      </trkpt>
      <trkpt lat="45.69851" lon="2.97554">
        <ele>969.105914</ele>
        <time>2021-07-07T09:19:13+0200</time>
      </trkpt>
      <trkpt lat="45.69848" lon="2.9756">
        <ele>968.603604</ele>
        <time>2021-07-07T09:19:14+0200</time>
      </trkpt>
      <trkpt lat="45.69846" lon="2.97568">
        <ele>967.542436</ele>
        <time>2021-07-07T09:19:15+0200</time>
      </trkpt>
      <trkpt lat="45.69843" lon="2.97579">
        <ele>967.017742</ele>
        <time>2021-07-07T09:19:16+0200</time>
      </trkpt>
      <trkpt lat="45.69839" lon="2.97587">
        <ele>967.060565</ele>
        <time>2021-07-07T09:19:17+0200</time>
      </trkpt>
      <trkpt lat="45.69837" lon="2.97593">
        <ele>966.159982</ele>
        <time>2021-07-07T09:19:18+0200</time>
      </trkpt>
      <trkpt lat="45.69835" lon="2.97599">
        <ele>965.626634</ele>
        <time>2021-07-07T09:19:19+0200</time>
      </trkpt>
      <trkpt lat="45.69834" lon="2.97608">
        <ele>964.669911</ele>
        <time>2021-07-07T09:19:20+0200</time>
      </trkpt>
      <trkpt lat="45.69832" lon="2.97617">
        <ele>963.427524</ele>
        <time>2021-07-07T09:19:21+0200</time>
      </trkpt>
      <trkpt lat="45.69828" lon="2.9763">
        <ele>955.789818</ele>
        <time>2021-07-07T09:19:23+0200</time>
      </trkpt>
      <trkpt lat="45.69828" lon="2.97639">
        <ele>954.754121</ele>
        <time>2021-07-07T09:19:24+0200</time>
      </trkpt>
      <trkpt lat="45.69826" lon="2.97648">
        <ele>954.166722</ele>
        <time>2021-07-07T09:19:25+0200</time>
      </trkpt>
      <trkpt lat="45.69825" lon="2.97656">
        <ele>953.721529</ele>
        <time>2021-07-07T09:19:26+0200</time>
      </trkpt>
      <trkpt lat="45.69824" lon="2.97663">
        <ele>953.925647</ele>
        <time>2021-07-07T09:19:27+0200</time>
      </trkpt>
      <trkpt lat="45.69825" lon="2.97671">
        <ele>953.869999</ele>
        <time>2021-07-07T09:19:28+0200</time>
      </trkpt>
      <trkpt lat="45.69824" lon="2.9768">
        <ele>953.244528</ele>
        <time>2021-07-07T09:19:29+0200</time>
      </trkpt>
      <trkpt lat="45.69822" lon="2.97689">
        <ele>953.149726</ele>
        <time>2021-07-07T09:19:30+0200</time>
      </trkpt>
      <trkpt lat="45.69819" lon="2.97698">
        <ele>953.322781</ele>
        <time>2021-07-07T09:19:31+0200</time>
      </trkpt>
      <trkpt lat="45.69816" lon="2.97707">
        <ele>953.003384</ele>
        <time>2021-07-07T09:19:32+0200</time>
      </trkpt>
      <trkpt lat="45.69814" lon="2.97714">
        <ele>953.142898</ele>
        <time>2021-07-07T09:19:33+0200</time>
      </trkpt>
      <trkpt lat="45.69815" lon="2.97722">
        <ele>953.317913</ele>
        <time>2021-07-07T09:19:34+0200</time>
      </trkpt>
      <trkpt lat="45.69812" lon="2.97729">
        <ele>953.231355</ele>
        <time>2021-07-07T09:19:35+0200</time>
      </trkpt>
      <trkpt lat="45.69811" lon="2.97736">
        <ele>952.924137</ele>
        <time>2021-07-07T09:19:36+0200</time>
      </trkpt>
      <trkpt lat="45.69808" lon="2.97742">
        <ele>952.289348</ele>
        <time>2021-07-07T09:19:37+0200</time>
      </trkpt>
      <trkpt lat="45.69805" lon="2.97748">
        <ele>951.919927</ele>
        <time>2021-07-07T09:19:38+0200</time>
      </trkpt>
      <trkpt lat="45.69804" lon="2.97754">
        <ele>951.92734</ele>
        <time>2021-07-07T09:19:39+0200</time>
      </trkpt>
      <trkpt lat="45.69801" lon="2.97761">
        <ele>952.138275</ele>
        <time>2021-07-07T09:19:40+0200</time>
      </trkpt>
      <trkpt lat="45.69799" lon="2.97768">
        <ele>952.233521</ele>
        <time>2021-07-07T09:19:41+0200</time>
      </trkpt>
      <trkpt lat="45.69796" lon="2.97774">
        <ele>952.071575</ele>
        <time>2021-07-07T09:19:42+0200</time>
      </trkpt>
      <trkpt lat="45.69791" lon="2.97784">
        <ele>951.812677</ele>
        <time>2021-07-07T09:19:44+0200</time>
      </trkpt>
      <trkpt lat="45.69787" lon="2.97789">
        <ele>951.303478</ele>
        <time>2021-07-07T09:19:45+0200</time>
      </trkpt>
      <trkpt lat="45.69784" lon="2.97794">
        <ele>950.891318</ele>
        <time>2021-07-07T09:19:46+0200</time>
      </trkpt>
      <trkpt lat="45.6978" lon="2.978">
        <ele>950.737593</ele>
        <time>2021-07-07T09:19:47+0200</time>
      </trkpt>
      <trkpt lat="45.69777" lon="2.97806">
        <ele>950.554257</ele>
        <time>2021-07-07T09:19:48+0200</time>
      </trkpt>
      <trkpt lat="45.69773" lon="2.9781">
        <ele>950.339498</ele>
        <time>2021-07-07T09:19:49+0200</time>
      </trkpt>
      <trkpt lat="45.69771" lon="2.97817">
        <ele>949.990321</ele>
        <time>2021-07-07T09:19:50+0200</time>
      </trkpt>
      <trkpt lat="45.69768" lon="2.97825">
        <ele>949.933717</ele>
        <time>2021-07-07T09:19:51+0200</time>
      </trkpt>
      <trkpt lat="45.69766" lon="2.97831">
        <ele>949.954464</ele>
        <time>2021-07-07T09:19:52+0200</time>
      </trkpt>
      <trkpt lat="45.69764" lon="2.97837">
        <ele>948.889083</ele>
        <time>2021-07-07T09:19:53+0200</time>
      </trkpt>
      <trkpt lat="45.69762" lon="2.97843">
        <ele>948.193791</ele>
        <time>2021-07-07T09:19:54+0200</time>
      </trkpt>
      <trkpt lat="45.69759" lon="2.97851">
        <ele>947.845158</ele>
        <time>2021-07-07T09:19:55+0200</time>
      </trkpt>
      <trkpt lat="45.69757" lon="2.97857">
        <ele>948.021</ele>
        <time>2021-07-07T09:19:56+0200</time>
      </trkpt>
      <trkpt lat="45.69755" lon="2.97865">
        <ele>947.974353</ele>
        <time>2021-07-07T09:19:57+0200</time>
      </trkpt>
      <trkpt lat="45.69754" lon="2.97876">
        <ele>948.210526</ele>
        <time>2021-07-07T09:19:58+0200</time>
      </trkpt>
      <trkpt lat="45.69751" lon="2.97882">
        <ele>948.662327</ele>
        <time>2021-07-07T09:19:59+0200</time>
      </trkpt>
      <trkpt lat="45.69749" lon="2.97888">
        <ele>948.556504</ele>
        <time>2021-07-07T09:20:00+0200</time>
      </trkpt>
      <trkpt lat="45.69746" lon="2.97896">
        <ele>948.249746</ele>
        <time>2021-07-07T09:20:01+0200</time>
      </trkpt>
      <trkpt lat="45.69743" lon="2.97902">
        <ele>947.647475</ele>
        <time>2021-07-07T09:20:02+0200</time>
      </trkpt>
      <trkpt lat="45.6974" lon="2.97907">
        <ele>947.362464</ele>
        <time>2021-07-07T09:20:03+0200</time>
      </trkpt>
      <trkpt lat="45.69736" lon="2.97913">
        <ele>947.141306</ele>
        <time>2021-07-07T09:20:04+0200</time>
      </trkpt>
      <trkpt lat="45.69734" lon="2.97919">
        <ele>946.762474</ele>
        <time>2021-07-07T09:20:05+0200</time>
      </trkpt>
      <trkpt lat="45.69732" lon="2.97928">
        <ele>946.26702</ele>
        <time>2021-07-07T09:20:06+0200</time>
      </trkpt>
      <trkpt lat="45.69731" lon="2.9794">
        <ele>945.651468</ele>
        <time>2021-07-07T09:20:08+0200</time>
      </trkpt>
      <trkpt lat="45.6973" lon="2.97948">
        <ele>945.427872</ele>
        <time>2021-07-07T09:20:09+0200</time>
      </trkpt>
      <trkpt lat="45.69726" lon="2.97962">
        <ele>945.138718</ele>
        <time>2021-07-07T09:20:11+0200</time>
      </trkpt>
      <trkpt lat="45.69724" lon="2.97972">
        <ele>945.093882</ele>
        <time>2021-07-07T09:20:12+0200</time>
      </trkpt>
      <trkpt lat="45.69724" lon="2.97982">
        <ele>944.828813</ele>
        <time>2021-07-07T09:20:13+0200</time>
      </trkpt>
      <trkpt lat="45.69722" lon="2.9799">
        <ele>944.583127</ele>
        <time>2021-07-07T09:20:14+0200</time>
      </trkpt>
      <trkpt lat="45.6972" lon="2.97998">
        <ele>944.342656</ele>
        <time>2021-07-07T09:20:15+0200</time>
      </trkpt>
      <trkpt lat="45.69717" lon="2.98006">
        <ele>944.412975</ele>
        <time>2021-07-07T09:20:16+0200</time>
      </trkpt>
      <trkpt lat="45.69715" lon="2.98015">
        <ele>944.773086</ele>
        <time>2021-07-07T09:20:17+0200</time>
      </trkpt>
      <trkpt lat="45.69713" lon="2.98025">
        <ele>944.474749</ele>
        <time>2021-07-07T09:20:18+0200</time>
      </trkpt>
      <trkpt lat="45.69711" lon="2.98034">
        <ele>944.074331</ele>
        <time>2021-07-07T09:20:19+0200</time>
      </trkpt>
      <trkpt lat="45.69709" lon="2.98044">
        <ele>943.801924</ele>
        <time>2021-07-07T09:20:20+0200</time>
      </trkpt>
      <trkpt lat="45.69707" lon="2.98051">
        <ele>943.871732</ele>
        <time>2021-07-07T09:20:21+0200</time>
      </trkpt>
      <trkpt lat="45.69705" lon="2.98058">
        <ele>943.859134</ele>
        <time>2021-07-07T09:20:22+0200</time>
      </trkpt>
      <trkpt lat="45.69703" lon="2.9807">
        <ele>944.272546</ele>
        <time>2021-07-07T09:20:24+0200</time>
      </trkpt>
      <trkpt lat="45.69703" lon="2.98076">
        <ele>944.488971</ele>
        <time>2021-07-07T09:20:25+0200</time>
      </trkpt>
      <trkpt lat="45.69701" lon="2.98087">
        <ele>944.841102</ele>
        <time>2021-07-07T09:20:27+0200</time>
      </trkpt>
      <trkpt lat="45.697" lon="2.98096">
        <ele>944.702662</ele>
        <time>2021-07-07T09:20:29+0200</time>
      </trkpt>
      <trkpt lat="45.69699" lon="2.98104">
        <ele>944.31611</ele>
        <time>2021-07-07T09:20:31+0200</time>
      </trkpt>
      <trkpt lat="45.69699" lon="2.98116">
        <ele>944.081968</ele>
        <time>2021-07-07T09:20:33+0200</time>
      </trkpt>
      <trkpt lat="45.69697" lon="2.98124">
        <ele>943.794601</ele>
        <time>2021-07-07T09:20:35+0200</time>
      </trkpt>
      <trkpt lat="45.69696" lon="2.98131">
        <ele>943.596994</ele>
        <time>2021-07-07T09:20:36+0200</time>
      </trkpt>
      <trkpt lat="45.69694" lon="2.98143">
        <ele>943.099417</ele>
        <time>2021-07-07T09:20:38+0200</time>
      </trkpt>
      <trkpt lat="45.69691" lon="2.98149">
        <ele>943.026925</ele>
        <time>2021-07-07T09:20:40+0200</time>
      </trkpt>
      <trkpt lat="45.6969" lon="2.98159">
        <ele>942.973805</ele>
        <time>2021-07-07T09:20:42+0200</time>
      </trkpt>
      <trkpt lat="45.69689" lon="2.98166">
        <ele>942.876917</ele>
        <time>2021-07-07T09:20:44+0200</time>
      </trkpt>
      <trkpt lat="45.69689" lon="2.98174">
        <ele>942.945912</ele>
        <time>2021-07-07T09:20:46+0200</time>
      </trkpt>
      <trkpt lat="45.69687" lon="2.98182">
        <ele>943.618316</ele>
        <time>2021-07-07T09:20:48+0200</time>
      </trkpt>
      <trkpt lat="45.69686" lon="2.98191">
        <ele>944.431134</ele>
        <time>2021-07-07T09:20:50+0200</time>
      </trkpt>
      <trkpt lat="45.69688" lon="2.98199">
        <ele>945.677886</ele>
        <time>2021-07-07T09:20:52+0200</time>
      </trkpt>
      <trkpt lat="45.6969" lon="2.98211">
        <ele>946.595988</ele>
        <time>2021-07-07T09:20:54+0200</time>
      </trkpt>
      <trkpt lat="45.69687" lon="2.98218">
        <ele>946.06535</ele>
        <time>2021-07-07T09:20:56+0200</time>
      </trkpt>
      <trkpt lat="45.69685" lon="2.98228">
        <ele>945.890411</ele>
        <time>2021-07-07T09:20:58+0200</time>
      </trkpt>
      <trkpt lat="45.69683" lon="2.98235">
        <ele>945.497172</ele>
        <time>2021-07-07T09:21:00+0200</time>
      </trkpt>
      <trkpt lat="45.69681" lon="2.98243">
        <ele>944.965532</ele>
        <time>2021-07-07T09:21:02+0200</time>
      </trkpt>
      <trkpt lat="45.69678" lon="2.98252">
        <ele>943.845473</ele>
        <time>2021-07-07T09:21:04+0200</time>
      </trkpt>
      <trkpt lat="45.69677" lon="2.98264">
        <ele>943.930584</ele>
        <time>2021-07-07T09:21:06+0200</time>
      </trkpt>
      <trkpt lat="45.69674" lon="2.98274">
        <ele>944.301963</ele>
        <time>2021-07-07T09:21:08+0200</time>
      </trkpt>
      <trkpt lat="45.69671" lon="2.98282">
        <ele>944.604111</ele>
        <time>2021-07-07T09:21:10+0200</time>
      </trkpt>
      <trkpt lat="45.69667" lon="2.9829">
        <ele>944.598874</ele>
        <time>2021-07-07T09:21:12+0200</time>
      </trkpt>
      <trkpt lat="45.69664" lon="2.983">
        <ele>944.515623</ele>
        <time>2021-07-07T09:21:14+0200</time>
      </trkpt>
      <trkpt lat="45.69661" lon="2.98309">
        <ele>944.350596</ele>
        <time>2021-07-07T09:21:16+0200</time>
      </trkpt>
      <trkpt lat="45.69659" lon="2.98317">
        <ele>944.110895</ele>
        <time>2021-07-07T09:21:18+0200</time>
      </trkpt>
      <trkpt lat="45.69659" lon="2.98324">
        <ele>944.119496</ele>
        <time>2021-07-07T09:21:20+0200</time>
      </trkpt>
      <trkpt lat="45.69662" lon="2.98333">
        <ele>944.222727</ele>
        <time>2021-07-07T09:21:22+0200</time>
      </trkpt>
      <trkpt lat="45.69661" lon="2.9834">
        <ele>943.948411</ele>
        <time>2021-07-07T09:21:24+0200</time>
      </trkpt>
      <trkpt lat="45.6966" lon="2.98347">
        <ele>943.907758</ele>
        <time>2021-07-07T09:21:26+0200</time>
      </trkpt>
      <trkpt lat="45.6966" lon="2.98356">
        <ele>943.139374</ele>
        <time>2021-07-07T09:21:28+0200</time>
      </trkpt>
      <trkpt lat="45.69656" lon="2.98363">
        <ele>943.017278</ele>
        <time>2021-07-07T09:21:30+0200</time>
      </trkpt>
      <trkpt lat="45.69656" lon="2.98375">
        <ele>942.536742</ele>
        <time>2021-07-07T09:21:32+0200</time>
      </trkpt>
      <trkpt lat="45.69654" lon="2.98383">
        <ele>942.294213</ele>
        <time>2021-07-07T09:21:33+0200</time>
      </trkpt>
      <trkpt lat="45.69653" lon="2.9839">
        <ele>941.897416</ele>
        <time>2021-07-07T09:21:34+0200</time>
      </trkpt>
      <trkpt lat="45.69652" lon="2.98396">
        <ele>942.030785</ele>
        <time>2021-07-07T09:21:35+0200</time>
      </trkpt>
      <trkpt lat="45.6965" lon="2.98406">
        <ele>941.441973</ele>
        <time>2021-07-07T09:21:36+0200</time>
      </trkpt>
      <trkpt lat="45.69649" lon="2.98413">
        <ele>940.885784</ele>
        <time>2021-07-07T09:21:37+0200</time>
      </trkpt>
      <trkpt lat="45.69648" lon="2.98425">
        <ele>940.171696</ele>
        <time>2021-07-07T09:21:38+0200</time>
      </trkpt>
      <trkpt lat="45.69646" lon="2.98437">
        <ele>939.792306</ele>
        <time>2021-07-07T09:21:39+0200</time>
      </trkpt>
      <trkpt lat="45.69645" lon="2.98448">
        <ele>939.000858</ele>
        <time>2021-07-07T09:21:40+0200</time>
      </trkpt>
      <trkpt lat="45.69642" lon="2.98461">
        <ele>938.920152</ele>
        <time>2021-07-07T09:21:41+0200</time>
      </trkpt>
      <trkpt lat="45.6964" lon="2.98475">
        <ele>938.124762</ele>
        <time>2021-07-07T09:21:42+0200</time>
      </trkpt>
      <trkpt lat="45.6964" lon="2.98487">
        <ele>938.24146</ele>
        <time>2021-07-07T09:21:43+0200</time>
      </trkpt>
      <trkpt lat="45.69641" lon="2.985">
        <ele>937.910124</ele>
        <time>2021-07-07T09:21:44+0200</time>
      </trkpt>
      <trkpt lat="45.6964" lon="2.98513">
        <ele>937.025192</ele>
        <time>2021-07-07T09:21:45+0200</time>
      </trkpt>
      <trkpt lat="45.69642" lon="2.98524">
        <ele>936.444992</ele>
        <time>2021-07-07T09:21:46+0200</time>
      </trkpt>
      <trkpt lat="45.69641" lon="2.98534">
        <ele>935.787792</ele>
        <time>2021-07-07T09:21:47+0200</time>
      </trkpt>
      <trkpt lat="45.69636" lon="2.98541">
        <ele>935.417285</ele>
        <time>2021-07-07T09:21:48+0200</time>
      </trkpt>
      <trkpt lat="45.69631" lon="2.98551">
        <ele>934.663295</ele>
        <time>2021-07-07T09:21:49+0200</time>
      </trkpt>
      <trkpt lat="45.69628" lon="2.98562">
        <ele>933.951148</ele>
        <time>2021-07-07T09:21:50+0200</time>
      </trkpt>
      <trkpt lat="45.69626" lon="2.98574">
        <ele>933.701961</ele>
        <time>2021-07-07T09:21:51+0200</time>
      </trkpt>
      <trkpt lat="45.69623" lon="2.98582">
        <ele>933.207546</ele>
        <time>2021-07-07T09:21:52+0200</time>
      </trkpt>
      <trkpt lat="45.6962" lon="2.98592">
        <ele>932.247452</ele>
        <time>2021-07-07T09:21:53+0200</time>
      </trkpt>
      <trkpt lat="45.69618" lon="2.98605">
        <ele>932.211628</ele>
        <time>2021-07-07T09:21:54+0200</time>
      </trkpt>
      <trkpt lat="45.69617" lon="2.98615">
        <ele>931.539723</ele>
        <time>2021-07-07T09:21:55+0200</time>
      </trkpt>
      <trkpt lat="45.69616" lon="2.98625">
        <ele>930.979019</ele>
        <time>2021-07-07T09:21:56+0200</time>
      </trkpt>
      <trkpt lat="45.69613" lon="2.98636">
        <ele>930.892343</ele>
        <time>2021-07-07T09:21:57+0200</time>
      </trkpt>
      <trkpt lat="45.6961" lon="2.98648">
        <ele>931.138209</ele>
        <time>2021-07-07T09:21:58+0200</time>
      </trkpt>
      <trkpt lat="45.69609" lon="2.98658">
        <ele>931.627479</ele>
        <time>2021-07-07T09:21:59+0200</time>
      </trkpt>
      <trkpt lat="45.69608" lon="2.98666">
        <ele>931.620234</ele>
        <time>2021-07-07T09:22:00+0200</time>
      </trkpt>
      <trkpt lat="45.69605" lon="2.98672">
        <ele>931.588733</ele>
        <time>2021-07-07T09:22:01+0200</time>
      </trkpt>
      <trkpt lat="45.69602" lon="2.98678">
        <ele>932.011044</ele>
        <time>2021-07-07T09:22:02+0200</time>
      </trkpt>
      <trkpt lat="45.69599" lon="2.98684">
        <ele>931.886246</ele>
        <time>2021-07-07T09:22:03+0200</time>
      </trkpt>
      <trkpt lat="45.69598" lon="2.9869">
        <ele>931.949478</ele>
        <time>2021-07-07T09:22:04+0200</time>
      </trkpt>
      <trkpt lat="45.69595" lon="2.987">
        <ele>931.672852</ele>
        <time>2021-07-07T09:22:06+0200</time>
      </trkpt>
      <trkpt lat="45.69594" lon="2.98709">
        <ele>931.029286</ele>
        <time>2021-07-07T09:22:08+0200</time>
      </trkpt>
      <trkpt lat="45.69592" lon="2.98718">
        <ele>932.35187</ele>
        <time>2021-07-07T09:22:10+0200</time>
      </trkpt>
      <trkpt lat="45.6959" lon="2.98725">
        <ele>933.288172</ele>
        <time>2021-07-07T09:22:12+0200</time>
      </trkpt>
      <trkpt lat="45.69587" lon="2.98731">
        <ele>933.880547</ele>
        <time>2021-07-07T09:22:14+0200</time>
      </trkpt>
      <trkpt lat="45.69585" lon="2.98737">
        <ele>933.784856</ele>
        <time>2021-07-07T09:22:16+0200</time>
      </trkpt>
      <trkpt lat="45.69582" lon="2.98743">
        <ele>934.069649</ele>
        <time>2021-07-07T09:22:18+0200</time>
      </trkpt>
      <trkpt lat="45.69579" lon="2.98749">
        <ele>933.764778</ele>
        <time>2021-07-07T09:22:21+0200</time>
      </trkpt>
      <trkpt lat="45.69578" lon="2.98758">
        <ele>934.173513</ele>
        <time>2021-07-07T09:22:23+0200</time>
      </trkpt>
      <trkpt lat="45.69577" lon="2.98766">
        <ele>934.031464</ele>
        <time>2021-07-07T09:22:25+0200</time>
      </trkpt>
      <trkpt lat="45.69574" lon="2.98776">
        <ele>933.928306</ele>
        <time>2021-07-07T09:22:27+0200</time>
      </trkpt>
      <trkpt lat="45.69572" lon="2.98789">
        <ele>933.677288</ele>
        <time>2021-07-07T09:22:29+0200</time>
      </trkpt>
      <trkpt lat="45.69572" lon="2.98796">
        <ele>933.257518</ele>
        <time>2021-07-07T09:22:30+0200</time>
      </trkpt>
      <trkpt lat="45.69571" lon="2.98803">
        <ele>933.261739</ele>
        <time>2021-07-07T09:22:31+0200</time>
      </trkpt>
      <trkpt lat="45.69572" lon="2.98811">
        <ele>933.234285</ele>
        <time>2021-07-07T09:22:32+0200</time>
      </trkpt>
      <trkpt lat="45.6957" lon="2.98818">
        <ele>933.193295</ele>
        <time>2021-07-07T09:22:33+0200</time>
      </trkpt>
      <trkpt lat="45.69568" lon="2.98825">
        <ele>932.891631</ele>
        <time>2021-07-07T09:22:34+0200</time>
      </trkpt>
      <trkpt lat="45.69567" lon="2.98832">
        <ele>932.683709</ele>
        <time>2021-07-07T09:22:35+0200</time>
      </trkpt>
      <trkpt lat="45.69565" lon="2.98837">
        <ele>932.566925</ele>
        <time>2021-07-07T09:22:36+0200</time>
      </trkpt>
      <trkpt lat="45.69562" lon="2.98844">
        <ele>932.170277</ele>
        <time>2021-07-07T09:22:37+0200</time>
      </trkpt>
      <trkpt lat="45.69561" lon="2.98855">
        <ele>931.594434</ele>
        <time>2021-07-07T09:22:38+0200</time>
      </trkpt>
      <trkpt lat="45.69558" lon="2.98861">
        <ele>930.85507</ele>
        <time>2021-07-07T09:22:39+0200</time>
      </trkpt>
      <trkpt lat="45.69554" lon="2.98866">
        <ele>930.305392</ele>
        <time>2021-07-07T09:22:40+0200</time>
      </trkpt>
      <trkpt lat="45.69551" lon="2.98871">
        <ele>929.313214</ele>
        <time>2021-07-07T09:22:41+0200</time>
      </trkpt>
      <trkpt lat="45.69546" lon="2.98875">
        <ele>928.36182</ele>
        <time>2021-07-07T09:22:42+0200</time>
      </trkpt>
      <trkpt lat="45.69543" lon="2.98882">
        <ele>928.053294</ele>
        <time>2021-07-07T09:22:43+0200</time>
      </trkpt>
      <trkpt lat="45.69541" lon="2.98888">
        <ele>927.88481</ele>
        <time>2021-07-07T09:22:44+0200</time>
      </trkpt>
      <trkpt lat="45.69538" lon="2.98898">
        <ele>927.721297</ele>
        <time>2021-07-07T09:22:45+0200</time>
      </trkpt>
      <trkpt lat="45.69535" lon="2.98905">
        <ele>927.636553</ele>
        <time>2021-07-07T09:22:46+0200</time>
      </trkpt>
      <trkpt lat="45.69533" lon="2.98913">
        <ele>927.640665</ele>
        <time>2021-07-07T09:22:47+0200</time>
      </trkpt>
      <trkpt lat="45.69531" lon="2.98921">
        <ele>927.673466</ele>
        <time>2021-07-07T09:22:48+0200</time>
      </trkpt>
      <trkpt lat="45.69527" lon="2.98926">
        <ele>927.53817</ele>
        <time>2021-07-07T09:22:49+0200</time>
      </trkpt>
      <trkpt lat="45.69523" lon="2.98931">
        <ele>927.834142</ele>
        <time>2021-07-07T09:22:50+0200</time>
      </trkpt>
      <trkpt lat="45.69523" lon="2.98943">
        <ele>928.302116</ele>
        <time>2021-07-07T09:22:52+0200</time>
      </trkpt>
      <trkpt lat="45.69523" lon="2.98951">
        <ele>928.939952</ele>
        <time>2021-07-07T09:22:53+0200</time>
      </trkpt>
      <trkpt lat="45.69523" lon="2.98957">
        <ele>929.480604</ele>
        <time>2021-07-07T09:22:54+0200</time>
      </trkpt>
      <trkpt lat="45.69524" lon="2.98971">
        <ele>930.118196</ele>
        <time>2021-07-07T09:22:56+0200</time>
      </trkpt>
      <trkpt lat="45.69526" lon="2.98981">
        <ele>931.07358</ele>
        <time>2021-07-07T09:22:58+0200</time>
      </trkpt>
      <trkpt lat="45.69528" lon="2.9899">
        <ele>931.122162</ele>
        <time>2021-07-07T09:23:00+0200</time>
      </trkpt>
      <trkpt lat="45.69531" lon="2.99003">
        <ele>932.161953</ele>
        <time>2021-07-07T09:23:02+0200</time>
      </trkpt>
      <trkpt lat="45.69534" lon="2.99011">
        <ele>932.706555</ele>
        <time>2021-07-07T09:23:04+0200</time>
      </trkpt>
      <trkpt lat="45.69537" lon="2.99017">
        <ele>932.281634</ele>
        <time>2021-07-07T09:23:06+0200</time>
      </trkpt>
      <trkpt lat="45.6954" lon="2.99022">
        <ele>932.310508</ele>
        <time>2021-07-07T09:23:08+0200</time>
      </trkpt>
      <trkpt lat="45.69544" lon="2.99031">
        <ele>933.139814</ele>
        <time>2021-07-07T09:23:10+0200</time>
      </trkpt>
      <trkpt lat="45.69545" lon="2.99038">
        <ele>933.364383</ele>
        <time>2021-07-07T09:23:12+0200</time>
      </trkpt>
      <trkpt lat="45.69547" lon="2.99045">
        <ele>932.92186</ele>
        <time>2021-07-07T09:23:14+0200</time>
      </trkpt>
      <trkpt lat="45.6955" lon="2.99054">
        <ele>932.183844</ele>
        <time>2021-07-07T09:23:16+0200</time>
      </trkpt>
      <trkpt lat="45.69552" lon="2.99066">
        <ele>932.348605</ele>
        <time>2021-07-07T09:23:18+0200</time>
      </trkpt>
      <trkpt lat="45.69555" lon="2.99076">
        <ele>932.763617</ele>
        <time>2021-07-07T09:23:20+0200</time>
      </trkpt>
      <trkpt lat="45.69558" lon="2.99084">
        <ele>933.383156</ele>
        <time>2021-07-07T09:23:22+0200</time>
      </trkpt>
      <trkpt lat="45.69562" lon="2.99093">
        <ele>933.125732</ele>
        <time>2021-07-07T09:23:24+0200</time>
      </trkpt>
      <trkpt lat="45.69563" lon="2.99104">
        <ele>932.399644</ele>
        <time>2021-07-07T09:23:26+0200</time>
      </trkpt>
      <trkpt lat="45.69565" lon="2.99118">
        <ele>931.630412</ele>
        <time>2021-07-07T09:23:28+0200</time>
      </trkpt>
      <trkpt lat="45.69563" lon="2.99127">
        <ele>930.656858</ele>
        <time>2021-07-07T09:23:29+0200</time>
      </trkpt>
      <trkpt lat="45.69559" lon="2.99133">
        <ele>929.88808</ele>
        <time>2021-07-07T09:23:30+0200</time>
      </trkpt>
      <trkpt lat="45.69556" lon="2.99141">
        <ele>929.618627</ele>
        <time>2021-07-07T09:23:31+0200</time>
      </trkpt>
      <trkpt lat="45.69552" lon="2.99148">
        <ele>929.316318</ele>
        <time>2021-07-07T09:23:32+0200</time>
      </trkpt>
      <trkpt lat="45.69549" lon="2.99155">
        <ele>928.725177</ele>
        <time>2021-07-07T09:23:33+0200</time>
      </trkpt>
      <trkpt lat="45.69547" lon="2.99166">
        <ele>927.786101</ele>
        <time>2021-07-07T09:23:34+0200</time>
      </trkpt>
      <trkpt lat="45.69544" lon="2.99171">
        <ele>927.041935</ele>
        <time>2021-07-07T09:23:35+0200</time>
      </trkpt>
      <trkpt lat="45.69541" lon="2.9918">
        <ele>926.830057</ele>
        <time>2021-07-07T09:23:36+0200</time>
      </trkpt>
      <trkpt lat="45.69539" lon="2.99187">
        <ele>927.238259</ele>
        <time>2021-07-07T09:23:37+0200</time>
      </trkpt>
      <trkpt lat="45.69537" lon="2.99195">
        <ele>927.273541</ele>
        <time>2021-07-07T09:23:38+0200</time>
      </trkpt>
      <trkpt lat="45.69535" lon="2.99203">
        <ele>927.054342</ele>
        <time>2021-07-07T09:23:39+0200</time>
      </trkpt>
      <trkpt lat="45.69532" lon="2.99211">
        <ele>926.791545</ele>
        <time>2021-07-07T09:23:40+0200</time>
      </trkpt>
      <trkpt lat="45.69528" lon="2.9922">
        <ele>927.063172</ele>
        <time>2021-07-07T09:23:41+0200</time>
      </trkpt>
      <trkpt lat="45.69526" lon="2.99232">
        <ele>927.077777</ele>
        <time>2021-07-07T09:23:43+0200</time>
      </trkpt>
      <trkpt lat="45.69525" lon="2.99238">
        <ele>926.904979</ele>
        <time>2021-07-07T09:23:44+0200</time>
      </trkpt>
      <trkpt lat="45.69523" lon="2.99252">
        <ele>926.337249</ele>
        <time>2021-07-07T09:23:46+0200</time>
      </trkpt>
      <trkpt lat="45.6952" lon="2.99261">
        <ele>925.388347</ele>
        <time>2021-07-07T09:23:47+0200</time>
      </trkpt>
      <trkpt lat="45.69519" lon="2.99269">
        <ele>924.72964</ele>
        <time>2021-07-07T09:23:48+0200</time>
      </trkpt>
      <trkpt lat="45.69517" lon="2.9928">
        <ele>924.683255</ele>
        <time>2021-07-07T09:23:49+0200</time>
      </trkpt>
      <trkpt lat="45.69515" lon="2.99289">
        <ele>924.113037</ele>
        <time>2021-07-07T09:23:50+0200</time>
      </trkpt>
      <trkpt lat="45.69513" lon="2.99297">
        <ele>923.51185</ele>
        <time>2021-07-07T09:23:51+0200</time>
      </trkpt>
      <trkpt lat="45.6951" lon="2.99305">
        <ele>922.847716</ele>
        <time>2021-07-07T09:23:52+0200</time>
      </trkpt>
      <trkpt lat="45.69507" lon="2.99313">
        <ele>922.550931</ele>
        <time>2021-07-07T09:23:53+0200</time>
      </trkpt>
      <trkpt lat="45.69504" lon="2.99321">
        <ele>922.148957</ele>
        <time>2021-07-07T09:23:54+0200</time>
      </trkpt>
      <trkpt lat="45.695" lon="2.99331">
        <ele>921.646596</ele>
        <time>2021-07-07T09:23:55+0200</time>
      </trkpt>
      <trkpt lat="45.69497" lon="2.99339">
        <ele>920.886132</ele>
        <time>2021-07-07T09:23:56+0200</time>
      </trkpt>
      <trkpt lat="45.69493" lon="2.99349">
        <ele>920.545741</ele>
        <time>2021-07-07T09:23:57+0200</time>
      </trkpt>
      <trkpt lat="45.69487" lon="2.99356">
        <ele>919.994789</ele>
        <time>2021-07-07T09:23:58+0200</time>
      </trkpt>
      <trkpt lat="45.69483" lon="2.99365">
        <ele>919.67422</ele>
        <time>2021-07-07T09:23:59+0200</time>
      </trkpt>
      <trkpt lat="45.69482" lon="2.99374">
        <ele>918.862893</ele>
        <time>2021-07-07T09:24:00+0200</time>
      </trkpt>
      <trkpt lat="45.69474" lon="2.9938">
        <ele>917.827345</ele>
        <time>2021-07-07T09:24:01+0200</time>
      </trkpt>
      <trkpt lat="45.69468" lon="2.99386">
        <ele>917.9203</ele>
        <time>2021-07-07T09:24:02+0200</time>
      </trkpt>
      <trkpt lat="45.6946" lon="2.99393">
        <ele>917.719188</ele>
        <time>2021-07-07T09:24:03+0200</time>
      </trkpt>
      <trkpt lat="45.69454" lon="2.99398">
        <ele>917.581015</ele>
        <time>2021-07-07T09:24:04+0200</time>
      </trkpt>
      <trkpt lat="45.69446" lon="2.99403">
        <ele>917.464489</ele>
        <time>2021-07-07T09:24:05+0200</time>
      </trkpt>
      <trkpt lat="45.69442" lon="2.99407">
        <ele>917.094273</ele>
        <time>2021-07-07T09:24:06+0200</time>
      </trkpt>
      <trkpt lat="45.69436" lon="2.99411">
        <ele>917.316554</ele>
        <time>2021-07-07T09:24:07+0200</time>
      </trkpt>
      <trkpt lat="45.69431" lon="2.99417">
        <ele>917.302014</ele>
        <time>2021-07-07T09:24:08+0200</time>
      </trkpt>
      <trkpt lat="45.69427" lon="2.99423">
        <ele>916.468733</ele>
        <time>2021-07-07T09:24:09+0200</time>
      </trkpt>
      <trkpt lat="45.69425" lon="2.9943">
        <ele>916.509792</ele>
        <time>2021-07-07T09:24:10+0200</time>
      </trkpt>
      <trkpt lat="45.69422" lon="2.99438">
        <ele>915.579495</ele>
        <time>2021-07-07T09:24:11+0200</time>
      </trkpt>
      <trkpt lat="45.69421" lon="2.99445">
        <ele>915.235798</ele>
        <time>2021-07-07T09:24:12+0200</time>
      </trkpt>
      <trkpt lat="45.69419" lon="2.99453">
        <ele>915.051344</ele>
        <time>2021-07-07T09:24:13+0200</time>
      </trkpt>
      <trkpt lat="45.69417" lon="2.99463">
        <ele>914.850217</ele>
        <time>2021-07-07T09:24:14+0200</time>
      </trkpt>
      <trkpt lat="45.69416" lon="2.99477">
        <ele>914.640579</ele>
        <time>2021-07-07T09:24:15+0200</time>
      </trkpt>
      <trkpt lat="45.69416" lon="2.99488">
        <ele>914.715055</ele>
        <time>2021-07-07T09:24:16+0200</time>
      </trkpt>
      <trkpt lat="45.69415" lon="2.995">
        <ele>914.83113</ele>
        <time>2021-07-07T09:24:17+0200</time>
      </trkpt>
      <trkpt lat="45.69413" lon="2.99511">
        <ele>914.552923</ele>
        <time>2021-07-07T09:24:18+0200</time>
      </trkpt>
      <trkpt lat="45.69412" lon="2.99522">
        <ele>914.9044</ele>
        <time>2021-07-07T09:24:19+0200</time>
      </trkpt>
      <trkpt lat="45.69411" lon="2.99532">
        <ele>914.850638</ele>
        <time>2021-07-07T09:24:20+0200</time>
      </trkpt>
      <trkpt lat="45.6941" lon="2.99539">
        <ele>914.073031</ele>
        <time>2021-07-07T09:24:21+0200</time>
      </trkpt>
      <trkpt lat="45.69408" lon="2.99547">
        <ele>913.489246</ele>
        <time>2021-07-07T09:24:22+0200</time>
      </trkpt>
      <trkpt lat="45.69405" lon="2.99552">
        <ele>912.962284</ele>
        <time>2021-07-07T09:24:23+0200</time>
      </trkpt>
      <trkpt lat="45.69399" lon="2.99557">
        <ele>912.682791</ele>
        <time>2021-07-07T09:24:25+0200</time>
      </trkpt>
      <trkpt lat="45.69394" lon="2.99551">
        <ele>912.888334</ele>
        <time>2021-07-07T09:24:27+0200</time>
      </trkpt>
      <trkpt lat="45.69389" lon="2.99548">
        <ele>912.950199</ele>
        <time>2021-07-07T09:24:29+0200</time>
      </trkpt>
      <trkpt lat="45.69385" lon="2.99543">
        <ele>913.158685</ele>
        <time>2021-07-07T09:24:32+0200</time>
      </trkpt>
      <trkpt lat="45.69382" lon="2.99536">
        <ele>913.757277</ele>
        <time>2021-07-07T09:24:35+0200</time>
      </trkpt>
      <trkpt lat="45.6938" lon="2.9953">
        <ele>913.573298</ele>
        <time>2021-07-07T09:24:38+0200</time>
      </trkpt>
      <trkpt lat="45.69377" lon="2.99523">
        <ele>914.121963</ele>
        <time>2021-07-07T09:24:41+0200</time>
      </trkpt>
      <trkpt lat="45.69374" lon="2.99517">
        <ele>914.244242</ele>
        <time>2021-07-07T09:24:45+0200</time>
      </trkpt>
      <trkpt lat="45.6937" lon="2.9951">
        <ele>914.792497</ele>
        <time>2021-07-07T09:24:48+0200</time>
      </trkpt>
      <trkpt lat="45.69367" lon="2.99505">
        <ele>915.013113</ele>
        <time>2021-07-07T09:24:50+0200</time>
      </trkpt>
      <trkpt lat="45.69364" lon="2.99498">
        <ele>914.878542</ele>
        <time>2021-07-07T09:24:52+0200</time>
      </trkpt>
      <trkpt lat="45.6936" lon="2.99491">
        <ele>915.122536</ele>
        <time>2021-07-07T09:24:54+0200</time>
      </trkpt>
      <trkpt lat="45.69356" lon="2.99485">
        <ele>915.700135</ele>
        <time>2021-07-07T09:24:56+0200</time>
      </trkpt>
      <trkpt lat="45.69352" lon="2.9948">
        <ele>916.167241</ele>
        <time>2021-07-07T09:24:58+0200</time>
      </trkpt>
      <trkpt lat="45.69347" lon="2.99474">
        <ele>916.678174</ele>
        <time>2021-07-07T09:25:00+0200</time>
      </trkpt>
      <trkpt lat="45.69343" lon="2.9947">
        <ele>916.96848</ele>
        <time>2021-07-07T09:25:02+0200</time>
      </trkpt>
      <trkpt lat="45.69338" lon="2.99467">
        <ele>916.828056</ele>
        <time>2021-07-07T09:25:04+0200</time>
      </trkpt>
      <trkpt lat="45.69332" lon="2.99462">
        <ele>916.890081</ele>
        <time>2021-07-07T09:25:06+0200</time>
      </trkpt>
      <trkpt lat="45.69326" lon="2.99458">
        <ele>916.703306</ele>
        <time>2021-07-07T09:25:08+0200</time>
      </trkpt>
      <trkpt lat="45.6932" lon="2.99453">
        <ele>915.712951</ele>
        <time>2021-07-07T09:25:11+0200</time>
      </trkpt>
      <trkpt lat="45.69314" lon="2.99449">
        <ele>915.05649</ele>
        <time>2021-07-07T09:25:13+0200</time>
      </trkpt>
      <trkpt lat="45.69309" lon="2.99443">
        <ele>914.696757</ele>
        <time>2021-07-07T09:25:15+0200</time>
      </trkpt>
      <trkpt lat="45.69304" lon="2.99438">
        <ele>914.028772</ele>
        <time>2021-07-07T09:25:17+0200</time>
      </trkpt>
      <trkpt lat="45.693" lon="2.99431">
        <ele>913.481825</ele>
        <time>2021-07-07T09:25:19+0200</time>
      </trkpt>
      <trkpt lat="45.69297" lon="2.99424">
        <ele>914.247313</ele>
        <time>2021-07-07T09:25:21+0200</time>
      </trkpt>
      <trkpt lat="45.69293" lon="2.99419">
        <ele>915.095041</ele>
        <time>2021-07-07T09:25:23+0200</time>
      </trkpt>
      <trkpt lat="45.69289" lon="2.99413">
        <ele>915.218885</ele>
        <time>2021-07-07T09:25:25+0200</time>
      </trkpt>
      <trkpt lat="45.69284" lon="2.99408">
        <ele>915.257815</ele>
        <time>2021-07-07T09:25:27+0200</time>
      </trkpt>
      <trkpt lat="45.6928" lon="2.994">
        <ele>915.99925</ele>
        <time>2021-07-07T09:25:29+0200</time>
      </trkpt>
      <trkpt lat="45.69276" lon="2.99394">
        <ele>916.600004</ele>
        <time>2021-07-07T09:25:31+0200</time>
      </trkpt>
      <trkpt lat="45.69272" lon="2.99388">
        <ele>916.266792</ele>
        <time>2021-07-07T09:25:33+0200</time>
      </trkpt>
      <trkpt lat="45.69268" lon="2.9938">
        <ele>916.204456</ele>
        <time>2021-07-07T09:25:35+0200</time>
      </trkpt>
      <trkpt lat="45.69265" lon="2.99373">
        <ele>917.018485</ele>
        <time>2021-07-07T09:25:37+0200</time>
      </trkpt>
      <trkpt lat="45.69262" lon="2.99365">
        <ele>917.214265</ele>
        <time>2021-07-07T09:25:39+0200</time>
      </trkpt>
      <trkpt lat="45.69257" lon="2.99358">
        <ele>917.262278</ele>
        <time>2021-07-07T09:25:41+0200</time>
      </trkpt>
      <trkpt lat="45.69253" lon="2.99351">
        <ele>917.738737</ele>
        <time>2021-07-07T09:25:43+0200</time>
      </trkpt>
      <trkpt lat="45.69249" lon="2.99343">
        <ele>917.225394</ele>
        <time>2021-07-07T09:25:45+0200</time>
      </trkpt>
      <trkpt lat="45.69246" lon="2.99335">
        <ele>917.179209</ele>
        <time>2021-07-07T09:25:47+0200</time>
      </trkpt>
      <trkpt lat="45.69244" lon="2.99327">
        <ele>917.15916</ele>
        <time>2021-07-07T09:25:49+0200</time>
      </trkpt>
      <trkpt lat="45.6924" lon="2.99319">
        <ele>917.58764</ele>
        <time>2021-07-07T09:25:51+0200</time>
      </trkpt>
      <trkpt lat="45.69236" lon="2.99311">
        <ele>917.644768</ele>
        <time>2021-07-07T09:25:53+0200</time>
      </trkpt>
      <trkpt lat="45.69233" lon="2.99302">
        <ele>917.611727</ele>
        <time>2021-07-07T09:25:55+0200</time>
      </trkpt>
      <trkpt lat="45.69228" lon="2.99294">
        <ele>917.776778</ele>
        <time>2021-07-07T09:25:57+0200</time>
      </trkpt>
      <trkpt lat="45.69224" lon="2.99286">
        <ele>917.685161</ele>
        <time>2021-07-07T09:25:59+0200</time>
      </trkpt>
      <trkpt lat="45.6922" lon="2.99276">
        <ele>917.695251</ele>
        <time>2021-07-07T09:26:01+0200</time>
      </trkpt>
      <trkpt lat="45.69215" lon="2.99267">
        <ele>917.391881</ele>
        <time>2021-07-07T09:26:03+0200</time>
      </trkpt>
      <trkpt lat="45.6921" lon="2.99256">
        <ele>917.011282</ele>
        <time>2021-07-07T09:26:05+0200</time>
      </trkpt>
      <trkpt lat="45.69208" lon="2.9925">
        <ele>916.740839</ele>
        <time>2021-07-07T09:26:06+0200</time>
      </trkpt>
      <trkpt lat="45.69207" lon="2.99243">
        <ele>916.397435</ele>
        <time>2021-07-07T09:26:07+0200</time>
      </trkpt>
      <trkpt lat="45.69206" lon="2.99237">
        <ele>916.324743</ele>
        <time>2021-07-07T09:26:08+0200</time>
      </trkpt>
      <trkpt lat="45.69203" lon="2.99224">
        <ele>916.197797</ele>
        <time>2021-07-07T09:26:10+0200</time>
      </trkpt>
      <trkpt lat="45.69201" lon="2.99212">
        <ele>916.69414</ele>
        <time>2021-07-07T09:26:12+0200</time>
      </trkpt>
      <trkpt lat="45.692" lon="2.992">
        <ele>917.157102</ele>
        <time>2021-07-07T09:26:14+0200</time>
      </trkpt>
      <trkpt lat="45.692" lon="2.99193">
        <ele>917.676344</ele>
        <time>2021-07-07T09:26:15+0200</time>
      </trkpt>
      <trkpt lat="45.69199" lon="2.99187">
        <ele>917.963112</ele>
        <time>2021-07-07T09:26:16+0200</time>
      </trkpt>
      <trkpt lat="45.692" lon="2.9918">
        <ele>918.202868</ele>
        <time>2021-07-07T09:26:17+0200</time>
      </trkpt>
      <trkpt lat="45.692" lon="2.99173">
        <ele>918.429704</ele>
        <time>2021-07-07T09:26:18+0200</time>
      </trkpt>
      <trkpt lat="45.69199" lon="2.99166">
        <ele>918.755272</ele>
        <time>2021-07-07T09:26:19+0200</time>
      </trkpt>
      <trkpt lat="45.69198" lon="2.99159">
        <ele>919.02182</ele>
        <time>2021-07-07T09:26:20+0200</time>
      </trkpt>
      <trkpt lat="45.69198" lon="2.99152">
        <ele>919.3923</ele>
        <time>2021-07-07T09:26:21+0200</time>
      </trkpt>
      <trkpt lat="45.69197" lon="2.9914">
        <ele>919.633826</ele>
        <time>2021-07-07T09:26:23+0200</time>
      </trkpt>
      <trkpt lat="45.69196" lon="2.99133">
        <ele>919.516462</ele>
        <time>2021-07-07T09:26:24+0200</time>
      </trkpt>
      <trkpt lat="45.69195" lon="2.99121">
        <ele>919.787033</ele>
        <time>2021-07-07T09:26:26+0200</time>
      </trkpt>
      <trkpt lat="45.69193" lon="2.99109">
        <ele>920.148966</ele>
        <time>2021-07-07T09:26:28+0200</time>
      </trkpt>
      <trkpt lat="45.69192" lon="2.99103">
        <ele>920.022454</ele>
        <time>2021-07-07T09:26:29+0200</time>
      </trkpt>
      <trkpt lat="45.6919" lon="2.99097">
        <ele>919.894678</ele>
        <time>2021-07-07T09:26:30+0200</time>
      </trkpt>
      <trkpt lat="45.69184" lon="2.99086">
        <ele>919.872422</ele>
        <time>2021-07-07T09:26:32+0200</time>
      </trkpt>
      <trkpt lat="45.69182" lon="2.9908">
        <ele>919.425799</ele>
        <time>2021-07-07T09:26:33+0200</time>
      </trkpt>
      <trkpt lat="45.69179" lon="2.99074">
        <ele>919.412005</ele>
        <time>2021-07-07T09:26:34+0200</time>
      </trkpt>
      <trkpt lat="45.69176" lon="2.99069">
        <ele>919.826079</ele>
        <time>2021-07-07T09:26:35+0200</time>
      </trkpt>
      <trkpt lat="45.69171" lon="2.99059">
        <ele>920.021678</ele>
        <time>2021-07-07T09:26:37+0200</time>
      </trkpt>
      <trkpt lat="45.69167" lon="2.99055">
        <ele>919.747807</ele>
        <time>2021-07-07T09:26:38+0200</time>
      </trkpt>
      <trkpt lat="45.69164" lon="2.99051">
        <ele>919.237151</ele>
        <time>2021-07-07T09:26:39+0200</time>
      </trkpt>
      <trkpt lat="45.6916" lon="2.99046">
        <ele>918.643975</ele>
        <time>2021-07-07T09:26:40+0200</time>
      </trkpt>
      <trkpt lat="45.69154" lon="2.99037">
        <ele>917.812046</ele>
        <time>2021-07-07T09:26:42+0200</time>
      </trkpt>
      <trkpt lat="45.6915" lon="2.99032">
        <ele>917.584311</ele>
        <time>2021-07-07T09:26:43+0200</time>
      </trkpt>
      <trkpt lat="45.69145" lon="2.99023">
        <ele>917.346159</ele>
        <time>2021-07-07T09:26:45+0200</time>
      </trkpt>
      <trkpt lat="45.69141" lon="2.99018">
        <ele>917.102144</ele>
        <time>2021-07-07T09:26:46+0200</time>
      </trkpt>
      <trkpt lat="45.69138" lon="2.99012">
        <ele>917.003618</ele>
        <time>2021-07-07T09:26:47+0200</time>
      </trkpt>
      <trkpt lat="45.69134" lon="2.99007">
        <ele>917.088975</ele>
        <time>2021-07-07T09:26:48+0200</time>
      </trkpt>
      <trkpt lat="45.69131" lon="2.99003">
        <ele>917.143785</ele>
        <time>2021-07-07T09:26:49+0200</time>
      </trkpt>
      <trkpt lat="45.69124" lon="2.98993">
        <ele>916.987548</ele>
        <time>2021-07-07T09:26:51+0200</time>
      </trkpt>
      <trkpt lat="45.69118" lon="2.98983">
        <ele>916.899449</ele>
        <time>2021-07-07T09:26:53+0200</time>
      </trkpt>
      <trkpt lat="45.69115" lon="2.98978">
        <ele>916.714323</ele>
        <time>2021-07-07T09:26:54+0200</time>
      </trkpt>
      <trkpt lat="45.69109" lon="2.98968">
        <ele>916.954995</ele>
        <time>2021-07-07T09:26:56+0200</time>
      </trkpt>
      <trkpt lat="45.69106" lon="2.98963">
        <ele>916.772682</ele>
        <time>2021-07-07T09:26:57+0200</time>
      </trkpt>
      <trkpt lat="45.69103" lon="2.98956">
        <ele>916.508313</ele>
        <time>2021-07-07T09:26:58+0200</time>
      </trkpt>
      <trkpt lat="45.69101" lon="2.9895">
        <ele>916.334526</ele>
        <time>2021-07-07T09:26:59+0200</time>
      </trkpt>
      <trkpt lat="45.69099" lon="2.98943">
        <ele>916.138018</ele>
        <time>2021-07-07T09:27:00+0200</time>
      </trkpt>
      <trkpt lat="45.69097" lon="2.98936">
        <ele>915.788474</ele>
        <time>2021-07-07T09:27:01+0200</time>
      </trkpt>
      <trkpt lat="45.69096" lon="2.98928">
        <ele>915.992155</ele>
        <time>2021-07-07T09:27:02+0200</time>
      </trkpt>
      <trkpt lat="45.69096" lon="2.9892">
        <ele>916.104443</ele>
        <time>2021-07-07T09:27:03+0200</time>
      </trkpt>
      <trkpt lat="45.69096" lon="2.98912">
        <ele>916.524512</ele>
        <time>2021-07-07T09:27:04+0200</time>
      </trkpt>
      <trkpt lat="45.69095" lon="2.98905">
        <ele>916.552736</ele>
        <time>2021-07-07T09:27:05+0200</time>
      </trkpt>
      <trkpt lat="45.69095" lon="2.98897">
        <ele>916.613209</ele>
        <time>2021-07-07T09:27:06+0200</time>
      </trkpt>
      <trkpt lat="45.69095" lon="2.98891">
        <ele>916.753249</ele>
        <time>2021-07-07T09:27:07+0200</time>
      </trkpt>
      <trkpt lat="45.69095" lon="2.98881">
        <ele>917.466818</ele>
        <time>2021-07-07T09:27:09+0200</time>
      </trkpt>
      <trkpt lat="45.69095" lon="2.98869">
        <ele>917.550645</ele>
        <time>2021-07-07T09:27:11+0200</time>
      </trkpt>
      <trkpt lat="45.69097" lon="2.98858">
        <ele>917.924157</ele>
        <time>2021-07-07T09:27:13+0200</time>
      </trkpt>
      <trkpt lat="45.69097" lon="2.98851">
        <ele>917.992353</ele>
        <time>2021-07-07T09:27:14+0200</time>
      </trkpt>
      <trkpt lat="45.69099" lon="2.98844">
        <ele>918.082386</ele>
        <time>2021-07-07T09:27:15+0200</time>
      </trkpt>
      <trkpt lat="45.69101" lon="2.98832">
        <ele>917.95789</ele>
        <time>2021-07-07T09:27:17+0200</time>
      </trkpt>
      <trkpt lat="45.69105" lon="2.98821">
        <ele>917.924995</ele>
        <time>2021-07-07T09:27:19+0200</time>
      </trkpt>
      <trkpt lat="45.69109" lon="2.98811">
        <ele>918.054154</ele>
        <time>2021-07-07T09:27:21+0200</time>
      </trkpt>
      <trkpt lat="45.69115" lon="2.98801">
        <ele>917.792185</ele>
        <time>2021-07-07T09:27:23+0200</time>
      </trkpt>
      <trkpt lat="45.69119" lon="2.98793">
        <ele>917.497535</ele>
        <time>2021-07-07T09:27:24+0200</time>
      </trkpt>
      <trkpt lat="45.69122" lon="2.98785">
        <ele>917.433366</ele>
        <time>2021-07-07T09:27:25+0200</time>
      </trkpt>
      <trkpt lat="45.69125" lon="2.98778">
        <ele>917.232338</ele>
        <time>2021-07-07T09:27:26+0200</time>
      </trkpt>
      <trkpt lat="45.69125" lon="2.98767">
        <ele>917.276111</ele>
        <time>2021-07-07T09:27:28+0200</time>
      </trkpt>
      <trkpt lat="45.69118" lon="2.98762">
        <ele>916.973807</ele>
        <time>2021-07-07T09:27:30+0200</time>
      </trkpt>
      <trkpt lat="45.6911" lon="2.98761">
        <ele>917.435486</ele>
        <time>2021-07-07T09:27:32+0200</time>
      </trkpt>
      <trkpt lat="45.69103" lon="2.98757">
        <ele>918.217021</ele>
        <time>2021-07-07T09:27:34+0200</time>
      </trkpt>
      <trkpt lat="45.69097" lon="2.98752">
        <ele>918.711263</ele>
        <time>2021-07-07T09:27:36+0200</time>
      </trkpt>
      <trkpt lat="45.69089" lon="2.98749">
        <ele>918.961252</ele>
        <time>2021-07-07T09:27:38+0200</time>
      </trkpt>
      <trkpt lat="45.69081" lon="2.98748">
        <ele>919.404519</ele>
        <time>2021-07-07T09:27:40+0200</time>
      </trkpt>
      <trkpt lat="45.69073" lon="2.98748">
        <ele>919.46377</ele>
        <time>2021-07-07T09:27:42+0200</time>
      </trkpt>
      <trkpt lat="45.69068" lon="2.98748">
        <ele>919.285607</ele>
        <time>2021-07-07T09:27:43+0200</time>
      </trkpt>
      <trkpt lat="45.69064" lon="2.98748">
        <ele>919.405983</ele>
        <time>2021-07-07T09:27:44+0200</time>
      </trkpt>
      <trkpt lat="45.69059" lon="2.98748">
        <ele>919.105111</ele>
        <time>2021-07-07T09:27:45+0200</time>
      </trkpt>
      <trkpt lat="45.69052" lon="2.98754">
        <ele>919.156181</ele>
        <time>2021-07-07T09:27:47+0200</time>
      </trkpt>
      <trkpt lat="45.69046" lon="2.98762">
        <ele>919.555625</ele>
        <time>2021-07-07T09:27:49+0200</time>
      </trkpt>
      <trkpt lat="45.69042" lon="2.98773">
        <ele>919.019843</ele>
        <time>2021-07-07T09:27:51+0200</time>
      </trkpt>
      <trkpt lat="45.69039" lon="2.98782">
        <ele>918.763765</ele>
        <time>2021-07-07T09:27:53+0200</time>
      </trkpt>
      <trkpt lat="45.69036" lon="2.98792">
        <ele>917.955564</ele>
        <time>2021-07-07T09:27:55+0200</time>
      </trkpt>
      <trkpt lat="45.69034" lon="2.98804">
        <ele>917.240784</ele>
        <time>2021-07-07T09:27:57+0200</time>
      </trkpt>
      <trkpt lat="45.69028" lon="2.98809">
        <ele>917.026251</ele>
        <time>2021-07-07T09:27:59+0200</time>
      </trkpt>
      <trkpt lat="45.69024" lon="2.98803">
        <ele>917.184691</ele>
        <time>2021-07-07T09:28:01+0200</time>
      </trkpt>
      <trkpt lat="45.69022" lon="2.98794">
        <ele>917.512277</ele>
        <time>2021-07-07T09:28:03+0200</time>
      </trkpt>
      <trkpt lat="45.69019" lon="2.98786">
        <ele>917.512521</ele>
        <time>2021-07-07T09:28:05+0200</time>
      </trkpt>
      <trkpt lat="45.69015" lon="2.98777">
        <ele>917.377484</ele>
        <time>2021-07-07T09:28:07+0200</time>
      </trkpt>
      <trkpt lat="45.69014" lon="2.98767">
        <ele>917.227181</ele>
        <time>2021-07-07T09:28:09+0200</time>
      </trkpt>
      <trkpt lat="45.69009" lon="2.98758">
        <ele>917.929835</ele>
        <time>2021-07-07T09:28:11+0200</time>
      </trkpt>
      <trkpt lat="45.69005" lon="2.98751">
        <ele>917.575051</ele>
        <time>2021-07-07T09:28:13+0200</time>
      </trkpt>
      <trkpt lat="45.69" lon="2.98744">
        <ele>918.492848</ele>
        <time>2021-07-07T09:28:15+0200</time>
      </trkpt>
      <trkpt lat="45.68994" lon="2.98738">
        <ele>918.950046</ele>
        <time>2021-07-07T09:28:17+0200</time>
      </trkpt>
      <trkpt lat="45.68989" lon="2.98733">
        <ele>918.913372</ele>
        <time>2021-07-07T09:28:19+0200</time>
      </trkpt>
      <trkpt lat="45.68982" lon="2.98727">
        <ele>918.347565</ele>
        <time>2021-07-07T09:28:21+0200</time>
      </trkpt>
      <trkpt lat="45.68976" lon="2.98721">
        <ele>917.546683</ele>
        <time>2021-07-07T09:28:23+0200</time>
      </trkpt>
      <trkpt lat="45.68972" lon="2.98716">
        <ele>916.881758</ele>
        <time>2021-07-07T09:28:24+0200</time>
      </trkpt>
      <trkpt lat="45.68968" lon="2.98712">
        <ele>916.315447</ele>
        <time>2021-07-07T09:28:25+0200</time>
      </trkpt>
      <trkpt lat="45.68963" lon="2.98704">
        <ele>915.385647</ele>
        <time>2021-07-07T09:28:27+0200</time>
      </trkpt>
      <trkpt lat="45.68959" lon="2.98696">
        <ele>915.631189</ele>
        <time>2021-07-07T09:28:29+0200</time>
      </trkpt>
      <trkpt lat="45.68957" lon="2.9869">
        <ele>915.851753</ele>
        <time>2021-07-07T09:28:32+0200</time>
      </trkpt>
      <trkpt lat="45.68952" lon="2.98684">
        <ele>915.960118</ele>
        <time>2021-07-07T09:28:35+0200</time>
      </trkpt>
      <trkpt lat="45.68947" lon="2.98681">
        <ele>914.807328</ele>
        <time>2021-07-07T09:28:37+0200</time>
      </trkpt>
      <trkpt lat="45.68941" lon="2.98677">
        <ele>914.725551</ele>
        <time>2021-07-07T09:28:39+0200</time>
      </trkpt>
      <trkpt lat="45.68937" lon="2.98673">
        <ele>915.228943</ele>
        <time>2021-07-07T09:28:41+0200</time>
      </trkpt>
      <trkpt lat="45.68932" lon="2.9867">
        <ele>915.777465</ele>
        <time>2021-07-07T09:28:44+0200</time>
      </trkpt>
      <trkpt lat="45.68926" lon="2.9867">
        <ele>915.895981</ele>
        <time>2021-07-07T09:28:48+0200</time>
      </trkpt>
      <trkpt lat="45.68921" lon="2.98674">
        <ele>916.003017</ele>
        <time>2021-07-07T09:28:50+0200</time>
      </trkpt>
      <trkpt lat="45.68916" lon="2.98676">
        <ele>915.973379</ele>
        <time>2021-07-07T09:28:52+0200</time>
      </trkpt>
      <trkpt lat="45.68911" lon="2.9868">
        <ele>915.953224</ele>
        <time>2021-07-07T09:28:54+0200</time>
      </trkpt>
      <trkpt lat="45.68902" lon="2.98681">
        <ele>914.660936</ele>
        <time>2021-07-07T09:28:56+0200</time>
      </trkpt>
      <trkpt lat="45.68897" lon="2.9868">
        <ele>914.169586</ele>
        <time>2021-07-07T09:28:57+0200</time>
      </trkpt>
      <trkpt lat="45.6889" lon="2.98678">
        <ele>913.769088</ele>
        <time>2021-07-07T09:28:58+0200</time>
      </trkpt>
      <trkpt lat="45.68884" lon="2.98675">
        <ele>913.051387</ele>
        <time>2021-07-07T09:28:59+0200</time>
      </trkpt>
      <trkpt lat="45.68878" lon="2.98674">
        <ele>912.563553</ele>
        <time>2021-07-07T09:29:00+0200</time>
      </trkpt>
      <trkpt lat="45.68869" lon="2.98668">
        <ele>912.081891</ele>
        <time>2021-07-07T09:29:02+0200</time>
      </trkpt>
      <trkpt lat="45.68863" lon="2.98666">
        <ele>911.865795</ele>
        <time>2021-07-07T09:29:03+0200</time>
      </trkpt>
      <trkpt lat="45.68858" lon="2.98665">
        <ele>911.772989</ele>
        <time>2021-07-07T09:29:04+0200</time>
      </trkpt>
      <trkpt lat="45.6885" lon="2.9866">
        <ele>911.88407</ele>
        <time>2021-07-07T09:29:05+0200</time>
      </trkpt>
      <trkpt lat="45.68843" lon="2.98655">
        <ele>911.6524</ele>
        <time>2021-07-07T09:29:06+0200</time>
      </trkpt>
      <trkpt lat="45.68837" lon="2.9865">
        <ele>911.036693</ele>
        <time>2021-07-07T09:29:07+0200</time>
      </trkpt>
      <trkpt lat="45.68831" lon="2.98645">
        <ele>910.515296</ele>
        <time>2021-07-07T09:29:08+0200</time>
      </trkpt>
      <trkpt lat="45.68826" lon="2.98641">
        <ele>910.166261</ele>
        <time>2021-07-07T09:29:09+0200</time>
      </trkpt>
      <trkpt lat="45.6882" lon="2.98636">
        <ele>909.950293</ele>
        <time>2021-07-07T09:29:10+0200</time>
      </trkpt>
      <trkpt lat="45.68815" lon="2.98631">
        <ele>909.590841</ele>
        <time>2021-07-07T09:29:11+0200</time>
      </trkpt>
      <trkpt lat="45.68809" lon="2.98622">
        <ele>909.089025</ele>
        <time>2021-07-07T09:29:12+0200</time>
      </trkpt>
      <trkpt lat="45.68807" lon="2.98617">
        <ele>908.45702</ele>
        <time>2021-07-07T09:29:13+0200</time>
      </trkpt>
      <trkpt lat="45.68802" lon="2.98608">
        <ele>907.793923</ele>
        <time>2021-07-07T09:29:14+0200</time>
      </trkpt>
      <trkpt lat="45.68797" lon="2.986">
        <ele>907.210507</ele>
        <time>2021-07-07T09:29:15+0200</time>
      </trkpt>
      <trkpt lat="45.68794" lon="2.98592">
        <ele>906.388253</ele>
        <time>2021-07-07T09:29:16+0200</time>
      </trkpt>
      <trkpt lat="45.68786" lon="2.98581">
        <ele>905.644676</ele>
        <time>2021-07-07T09:29:17+0200</time>
      </trkpt>
      <trkpt lat="45.68781" lon="2.98573">
        <ele>904.884459</ele>
        <time>2021-07-07T09:29:18+0200</time>
      </trkpt>
      <trkpt lat="45.68776" lon="2.98565">
        <ele>904.08684</ele>
        <time>2021-07-07T09:29:19+0200</time>
      </trkpt>
      <trkpt lat="45.6877" lon="2.98559">
        <ele>903.806867</ele>
        <time>2021-07-07T09:29:20+0200</time>
      </trkpt>
      <trkpt lat="45.68764" lon="2.98548">
        <ele>903.524075</ele>
        <time>2021-07-07T09:29:21+0200</time>
      </trkpt>
      <trkpt lat="45.6876" lon="2.98541">
        <ele>903.554231</ele>
        <time>2021-07-07T09:29:22+0200</time>
      </trkpt>
      <trkpt lat="45.68756" lon="2.98535">
        <ele>903.872345</ele>
        <time>2021-07-07T09:29:23+0200</time>
      </trkpt>
      <trkpt lat="45.68753" lon="2.98528">
        <ele>904.519724</ele>
        <time>2021-07-07T09:29:24+0200</time>
      </trkpt>
      <trkpt lat="45.68748" lon="2.98521">
        <ele>904.728627</ele>
        <time>2021-07-07T09:29:25+0200</time>
      </trkpt>
      <trkpt lat="45.68747" lon="2.98513">
        <ele>905.03466</ele>
        <time>2021-07-07T09:29:27+0200</time>
      </trkpt>
      <trkpt lat="45.68746" lon="2.98505">
        <ele>905.239644</ele>
        <time>2021-07-07T09:29:28+0200</time>
      </trkpt>
      <trkpt lat="45.68743" lon="2.98497">
        <ele>905.156433</ele>
        <time>2021-07-07T09:29:29+0200</time>
      </trkpt>
      <trkpt lat="45.68742" lon="2.98488">
        <ele>905.867411</ele>
        <time>2021-07-07T09:29:32+0200</time>
      </trkpt>
      <trkpt lat="45.68739" lon="2.98478">
        <ele>905.975426</ele>
        <time>2021-07-07T09:29:35+0200</time>
      </trkpt>
      <trkpt lat="45.68736" lon="2.9847">
        <ele>906.044485</ele>
        <time>2021-07-07T09:29:38+0200</time>
      </trkpt>
      <trkpt lat="45.68732" lon="2.98465">
        <ele>906.313575</ele>
        <time>2021-07-07T09:29:40+0200</time>
      </trkpt>
      <trkpt lat="45.68727" lon="2.98459">
        <ele>906.478161</ele>
        <time>2021-07-07T09:29:42+0200</time>
      </trkpt>
      <trkpt lat="45.68723" lon="2.98455">
        <ele>906.347828</ele>
        <time>2021-07-07T09:29:44+0200</time>
      </trkpt>
      <trkpt lat="45.68719" lon="2.9845">
        <ele>906.463997</ele>
        <time>2021-07-07T09:29:45+0200</time>
      </trkpt>
      <trkpt lat="45.68715" lon="2.98447">
        <ele>906.807547</ele>
        <time>2021-07-07T09:29:47+0200</time>
      </trkpt>
      <trkpt lat="45.68711" lon="2.98442">
        <ele>906.518843</ele>
        <time>2021-07-07T09:29:49+0200</time>
      </trkpt>
      <trkpt lat="45.68706" lon="2.9844">
        <ele>906.612403</ele>
        <time>2021-07-07T09:29:51+0200</time>
      </trkpt>
      <trkpt lat="45.68702" lon="2.98434">
        <ele>906.606757</ele>
        <time>2021-07-07T09:29:53+0200</time>
      </trkpt>
      <trkpt lat="45.68694" lon="2.98426">
        <ele>906.567221</ele>
        <time>2021-07-07T09:29:55+0200</time>
      </trkpt>
      <trkpt lat="45.68688" lon="2.98418">
        <ele>905.905659</ele>
        <time>2021-07-07T09:29:57+0200</time>
      </trkpt>
      <trkpt lat="45.68685" lon="2.98408">
        <ele>905.622441</ele>
        <time>2021-07-07T09:29:59+0200</time>
      </trkpt>
      <trkpt lat="45.68682" lon="2.98399">
        <ele>905.671406</ele>
        <time>2021-07-07T09:30:01+0200</time>
      </trkpt>
      <trkpt lat="45.68681" lon="2.9839">
        <ele>906.236374</ele>
        <time>2021-07-07T09:30:03+0200</time>
      </trkpt>
      <trkpt lat="45.68679" lon="2.98379">
        <ele>906.320977</ele>
        <time>2021-07-07T09:30:05+0200</time>
      </trkpt>
      <trkpt lat="45.68679" lon="2.98372">
        <ele>906.973045</ele>
        <time>2021-07-07T09:30:07+0200</time>
      </trkpt>
      <trkpt lat="45.68679" lon="2.98363">
        <ele>907.958296</ele>
        <time>2021-07-07T09:30:09+0200</time>
      </trkpt>
      <trkpt lat="45.68681" lon="2.98357">
        <ele>908.406094</ele>
        <time>2021-07-07T09:30:11+0200</time>
      </trkpt>
      <trkpt lat="45.68681" lon="2.98349">
        <ele>908.806586</ele>
        <time>2021-07-07T09:30:13+0200</time>
      </trkpt>
      <trkpt lat="45.68681" lon="2.98341">
        <ele>909.167077</ele>
        <time>2021-07-07T09:30:15+0200</time>
      </trkpt>
      <trkpt lat="45.68679" lon="2.98334">
        <ele>909.616389</ele>
        <time>2021-07-07T09:30:16+0200</time>
      </trkpt>
      <trkpt lat="45.68678" lon="2.98325">
        <ele>910.373643</ele>
        <time>2021-07-07T09:30:18+0200</time>
      </trkpt>
      <trkpt lat="45.68678" lon="2.98315">
        <ele>910.450631</ele>
        <time>2021-07-07T09:30:20+0200</time>
      </trkpt>
      <trkpt lat="45.68678" lon="2.98309">
        <ele>910.782688</ele>
        <time>2021-07-07T09:30:21+0200</time>
      </trkpt>
      <trkpt lat="45.68678" lon="2.983">
        <ele>910.601643</ele>
        <time>2021-07-07T09:30:23+0200</time>
      </trkpt>
      <trkpt lat="45.68677" lon="2.98288">
        <ele>910.168075</ele>
        <time>2021-07-07T09:30:25+0200</time>
      </trkpt>
      <trkpt lat="45.68674" lon="2.98279">
        <ele>910.520558</ele>
        <time>2021-07-07T09:30:27+0200</time>
      </trkpt>
      <trkpt lat="45.68672" lon="2.98268">
        <ele>910.500221</ele>
        <time>2021-07-07T09:30:29+0200</time>
      </trkpt>
      <trkpt lat="45.68671" lon="2.98262">
        <ele>910.303009</ele>
        <time>2021-07-07T09:30:30+0200</time>
      </trkpt>
      <trkpt lat="45.68668" lon="2.98256">
        <ele>910.377146</ele>
        <time>2021-07-07T09:30:31+0200</time>
      </trkpt>
      <trkpt lat="45.68664" lon="2.98244">
        <ele>910.273981</ele>
        <time>2021-07-07T09:30:33+0200</time>
      </trkpt>
      <trkpt lat="45.68662" lon="2.98238">
        <ele>910.484056</ele>
        <time>2021-07-07T09:30:34+0200</time>
      </trkpt>
      <trkpt lat="45.68658" lon="2.98229">
        <ele>910.153052</ele>
        <time>2021-07-07T09:30:36+0200</time>
      </trkpt>
      <trkpt lat="45.68655" lon="2.98224">
        <ele>909.944381</ele>
        <time>2021-07-07T09:30:38+0200</time>
      </trkpt>
      <trkpt lat="45.68651" lon="2.98219">
        <ele>910.114789</ele>
        <time>2021-07-07T09:30:39+0200</time>
      </trkpt>
      <trkpt lat="45.68646" lon="2.98213">
        <ele>910.454616</ele>
        <time>2021-07-07T09:30:41+0200</time>
      </trkpt>
      <trkpt lat="45.68643" lon="2.98208">
        <ele>910.34318</ele>
        <time>2021-07-07T09:30:43+0200</time>
      </trkpt>
      <trkpt lat="45.68639" lon="2.98202">
        <ele>910.463634</ele>
        <time>2021-07-07T09:30:46+0200</time>
      </trkpt>
      <trkpt lat="45.68634" lon="2.98195">
        <ele>910.353717</ele>
        <time>2021-07-07T09:30:48+0200</time>
      </trkpt>
      <trkpt lat="45.6863" lon="2.98189">
        <ele>910.236949</ele>
        <time>2021-07-07T09:30:50+0200</time>
      </trkpt>
      <trkpt lat="45.68626" lon="2.98182">
        <ele>909.98572</ele>
        <time>2021-07-07T09:30:52+0200</time>
      </trkpt>
      <trkpt lat="45.68622" lon="2.98175">
        <ele>910.208177</ele>
        <time>2021-07-07T09:30:54+0200</time>
      </trkpt>
      <trkpt lat="45.68619" lon="2.98169">
        <ele>910.091479</ele>
        <time>2021-07-07T09:30:56+0200</time>
      </trkpt>
      <trkpt lat="45.68617" lon="2.98162">
        <ele>909.510927</ele>
        <time>2021-07-07T09:30:58+0200</time>
      </trkpt>
      <trkpt lat="45.68616" lon="2.98156">
        <ele>909.222887</ele>
        <time>2021-07-07T09:31:00+0200</time>
      </trkpt>
      <trkpt lat="45.68613" lon="2.98147">
        <ele>909.822424</ele>
        <time>2021-07-07T09:31:02+0200</time>
      </trkpt>
      <trkpt lat="45.68611" lon="2.98139">
        <ele>910.534855</ele>
        <time>2021-07-07T09:31:04+0200</time>
      </trkpt>
      <trkpt lat="45.68609" lon="2.98131">
        <ele>911.611614</ele>
        <time>2021-07-07T09:31:06+0200</time>
      </trkpt>
      <trkpt lat="45.68605" lon="2.9812">
        <ele>912.592145</ele>
        <time>2021-07-07T09:31:08+0200</time>
      </trkpt>
      <trkpt lat="45.68605" lon="2.98114">
        <ele>912.797344</ele>
        <time>2021-07-07T09:31:09+0200</time>
      </trkpt>
      <trkpt lat="45.68603" lon="2.98107">
        <ele>913.007708</ele>
        <time>2021-07-07T09:31:10+0200</time>
      </trkpt>
      <trkpt lat="45.686" lon="2.98099">
        <ele>913.605057</ele>
        <time>2021-07-07T09:31:12+0200</time>
      </trkpt>
      <trkpt lat="45.68599" lon="2.98092">
        <ele>913.522832</ele>
        <time>2021-07-07T09:31:14+0200</time>
      </trkpt>
      <trkpt lat="45.68596" lon="2.98085">
        <ele>913.99267</ele>
        <time>2021-07-07T09:31:17+0200</time>
      </trkpt>
      <trkpt lat="45.68592" lon="2.98074">
        <ele>913.829063</ele>
        <time>2021-07-07T09:31:20+0200</time>
      </trkpt>
      <trkpt lat="45.68587" lon="2.98067">
        <ele>914.287888</ele>
        <time>2021-07-07T09:31:22+0200</time>
      </trkpt>
      <trkpt lat="45.68583" lon="2.98062">
        <ele>914.933493</ele>
        <time>2021-07-07T09:31:24+0200</time>
      </trkpt>
      <trkpt lat="45.68579" lon="2.98056">
        <ele>915.173347</ele>
        <time>2021-07-07T09:31:26+0200</time>
      </trkpt>
      <trkpt lat="45.68574" lon="2.98052">
        <ele>915.356</ele>
        <time>2021-07-07T09:31:28+0200</time>
      </trkpt>
      <trkpt lat="45.68568" lon="2.98049">
        <ele>915.260352</ele>
        <time>2021-07-07T09:31:31+0200</time>
      </trkpt>
      <trkpt lat="45.68563" lon="2.98046">
        <ele>915.067309</ele>
        <time>2021-07-07T09:31:33+0200</time>
      </trkpt>
      <trkpt lat="45.68555" lon="2.98043">
        <ele>915.531011</ele>
        <time>2021-07-07T09:31:35+0200</time>
      </trkpt>
      <trkpt lat="45.68549" lon="2.98044">
        <ele>915.954811</ele>
        <time>2021-07-07T09:31:37+0200</time>
      </trkpt>
      <trkpt lat="45.68541" lon="2.9804">
        <ele>916.260928</ele>
        <time>2021-07-07T09:31:40+0200</time>
      </trkpt>
      <trkpt lat="45.68535" lon="2.98035">
        <ele>916.73068</ele>
        <time>2021-07-07T09:31:42+0200</time>
      </trkpt>
      <trkpt lat="45.68527" lon="2.98029">
        <ele>917.2328</ele>
        <time>2021-07-07T09:31:44+0200</time>
      </trkpt>
      <trkpt lat="45.6852" lon="2.98025">
        <ele>917.002257</ele>
        <time>2021-07-07T09:31:46+0200</time>
      </trkpt>
      <trkpt lat="45.68513" lon="2.98018">
        <ele>916.963492</ele>
        <time>2021-07-07T09:31:48+0200</time>
      </trkpt>
      <trkpt lat="45.68506" lon="2.98017">
        <ele>916.379617</ele>
        <time>2021-07-07T09:31:50+0200</time>
      </trkpt>
      <trkpt lat="45.68499" lon="2.98014">
        <ele>915.78231</ele>
        <time>2021-07-07T09:31:52+0200</time>
      </trkpt>
      <trkpt lat="45.68494" lon="2.98009">
        <ele>916.062131</ele>
        <time>2021-07-07T09:31:54+0200</time>
      </trkpt>
      <trkpt lat="45.6849" lon="2.98006">
        <ele>915.590061</ele>
        <time>2021-07-07T09:31:56+0200</time>
      </trkpt>
      <trkpt lat="45.68486" lon="2.98002">
        <ele>915.730921</ele>
        <time>2021-07-07T09:31:58+0200</time>
      </trkpt>
      <trkpt lat="45.68482" lon="2.97997">
        <ele>915.721664</ele>
        <time>2021-07-07T09:31:59+0200</time>
      </trkpt>
      <trkpt lat="45.68478" lon="2.97988">
        <ele>915.924691</ele>
        <time>2021-07-07T09:32:01+0200</time>
      </trkpt>
      <trkpt lat="45.68475" lon="2.97982">
        <ele>916.038536</ele>
        <time>2021-07-07T09:32:03+0200</time>
      </trkpt>
      <trkpt lat="45.6847" lon="2.97974">
        <ele>916.290609</ele>
        <time>2021-07-07T09:32:05+0200</time>
      </trkpt>
      <trkpt lat="45.68467" lon="2.97969">
        <ele>916.857505</ele>
        <time>2021-07-07T09:32:06+0200</time>
      </trkpt>
      <trkpt lat="45.68464" lon="2.97962">
        <ele>917.324036</ele>
        <time>2021-07-07T09:32:07+0200</time>
      </trkpt>
      <trkpt lat="45.68461" lon="2.97958">
        <ele>917.502141</ele>
        <time>2021-07-07T09:32:08+0200</time>
      </trkpt>
      <trkpt lat="45.68452" lon="2.97957">
        <ele>917.430335</ele>
        <time>2021-07-07T09:32:10+0200</time>
      </trkpt>
      <trkpt lat="45.68446" lon="2.97959">
        <ele>917.08498</ele>
        <time>2021-07-07T09:32:11+0200</time>
      </trkpt>
      <trkpt lat="45.68439" lon="2.9796">
        <ele>916.551079</ele>
        <time>2021-07-07T09:32:12+0200</time>
      </trkpt>
      <trkpt lat="45.68434" lon="2.97966">
        <ele>916.090754</ele>
        <time>2021-07-07T09:32:13+0200</time>
      </trkpt>
      <trkpt lat="45.68429" lon="2.9797">
        <ele>915.282779</ele>
        <time>2021-07-07T09:32:14+0200</time>
      </trkpt>
      <trkpt lat="45.68422" lon="2.97972">
        <ele>914.434195</ele>
        <time>2021-07-07T09:32:15+0200</time>
      </trkpt>
      <trkpt lat="45.68418" lon="2.97977">
        <ele>913.558833</ele>
        <time>2021-07-07T09:32:16+0200</time>
      </trkpt>
      <trkpt lat="45.68412" lon="2.97981">
        <ele>912.778821</ele>
        <time>2021-07-07T09:32:17+0200</time>
      </trkpt>
      <trkpt lat="45.68407" lon="2.97982">
        <ele>911.966168</ele>
        <time>2021-07-07T09:32:18+0200</time>
      </trkpt>
      <trkpt lat="45.684" lon="2.97981">
        <ele>911.318609</ele>
        <time>2021-07-07T09:32:19+0200</time>
      </trkpt>
      <trkpt lat="45.68394" lon="2.97977">
        <ele>910.904274</ele>
        <time>2021-07-07T09:32:20+0200</time>
      </trkpt>
      <trkpt lat="45.68387" lon="2.97975">
        <ele>910.371864</ele>
        <time>2021-07-07T09:32:21+0200</time>
      </trkpt>
      <trkpt lat="45.68379" lon="2.97971">
        <ele>909.81418</ele>
        <time>2021-07-07T09:32:22+0200</time>
      </trkpt>
      <trkpt lat="45.68375" lon="2.97967">
        <ele>909.266553</ele>
        <time>2021-07-07T09:32:23+0200</time>
      </trkpt>
      <trkpt lat="45.68368" lon="2.97959">
        <ele>909.143912</ele>
        <time>2021-07-07T09:32:24+0200</time>
      </trkpt>
      <trkpt lat="45.68363" lon="2.97951">
        <ele>909.050206</ele>
        <time>2021-07-07T09:32:25+0200</time>
      </trkpt>
      <trkpt lat="45.68359" lon="2.97947">
        <ele>909.204556</ele>
        <time>2021-07-07T09:32:26+0200</time>
      </trkpt>
      <trkpt lat="45.68353" lon="2.97945">
        <ele>909.10764</ele>
        <time>2021-07-07T09:32:27+0200</time>
      </trkpt>
      <trkpt lat="45.68348" lon="2.97946">
        <ele>909.132188</ele>
        <time>2021-07-07T09:32:28+0200</time>
      </trkpt>
      <trkpt lat="45.68339" lon="2.97945">
        <ele>909.016702</ele>
        <time>2021-07-07T09:32:30+0200</time>
      </trkpt>
      <trkpt lat="45.68335" lon="2.97946">
        <ele>908.923418</ele>
        <time>2021-07-07T09:32:31+0200</time>
      </trkpt>
      <trkpt lat="45.6833" lon="2.97947">
        <ele>908.777078</ele>
        <time>2021-07-07T09:32:32+0200</time>
      </trkpt>
      <trkpt lat="45.68325" lon="2.97946">
        <ele>908.742907</ele>
        <time>2021-07-07T09:32:33+0200</time>
      </trkpt>
      <trkpt lat="45.68315" lon="2.97944">
        <ele>908.717434</ele>
        <time>2021-07-07T09:32:35+0200</time>
      </trkpt>
      <trkpt lat="45.68306" lon="2.97945">
        <ele>908.490942</ele>
        <time>2021-07-07T09:32:36+0200</time>
      </trkpt>
      <trkpt lat="45.68298" lon="2.97947">
        <ele>908.42818</ele>
        <time>2021-07-07T09:32:37+0200</time>
      </trkpt>
      <trkpt lat="45.68289" lon="2.97947">
        <ele>907.494339</ele>
        <time>2021-07-07T09:32:39+0200</time>
      </trkpt>
      <trkpt lat="45.68284" lon="2.97945">
        <ele>906.745102</ele>
        <time>2021-07-07T09:32:40+0200</time>
      </trkpt>
      <trkpt lat="45.68277" lon="2.97945">
        <ele>906.104891</ele>
        <time>2021-07-07T09:32:41+0200</time>
      </trkpt>
      <trkpt lat="45.68271" lon="2.97945">
        <ele>905.96831</ele>
        <time>2021-07-07T09:32:42+0200</time>
      </trkpt>
      <trkpt lat="45.68266" lon="2.97947">
        <ele>905.808505</ele>
        <time>2021-07-07T09:32:43+0200</time>
      </trkpt>
      <trkpt lat="45.68259" lon="2.97946">
        <ele>905.682562</ele>
        <time>2021-07-07T09:32:44+0200</time>
      </trkpt>
      <trkpt lat="45.68253" lon="2.97942">
        <ele>905.107029</ele>
        <time>2021-07-07T09:32:45+0200</time>
      </trkpt>
      <trkpt lat="45.68246" lon="2.97939">
        <ele>904.542655</ele>
        <time>2021-07-07T09:32:46+0200</time>
      </trkpt>
      <trkpt lat="45.6824" lon="2.97938">
        <ele>903.967649</ele>
        <time>2021-07-07T09:32:47+0200</time>
      </trkpt>
      <trkpt lat="45.68234" lon="2.97938">
        <ele>903.34566</ele>
        <time>2021-07-07T09:32:48+0200</time>
      </trkpt>
      <trkpt lat="45.68228" lon="2.97936">
        <ele>903.009666</ele>
        <time>2021-07-07T09:32:49+0200</time>
      </trkpt>
      <trkpt lat="45.68222" lon="2.97934">
        <ele>902.454005</ele>
        <time>2021-07-07T09:32:50+0200</time>
      </trkpt>
      <trkpt lat="45.68216" lon="2.97933">
        <ele>901.850684</ele>
        <time>2021-07-07T09:32:51+0200</time>
      </trkpt>
      <trkpt lat="45.6821" lon="2.97933">
        <ele>901.532619</ele>
        <time>2021-07-07T09:32:52+0200</time>
      </trkpt>
      <trkpt lat="45.68205" lon="2.97931">
        <ele>901.408543</ele>
        <time>2021-07-07T09:32:53+0200</time>
      </trkpt>
      <trkpt lat="45.68199" lon="2.97929">
        <ele>901.019216</ele>
        <time>2021-07-07T09:32:54+0200</time>
      </trkpt>
      <trkpt lat="45.68193" lon="2.97926">
        <ele>900.938351</ele>
        <time>2021-07-07T09:32:55+0200</time>
      </trkpt>
      <trkpt lat="45.68187" lon="2.97926">
        <ele>901.135152</ele>
        <time>2021-07-07T09:32:56+0200</time>
      </trkpt>
      <trkpt lat="45.68181" lon="2.97925">
        <ele>901.115245</ele>
        <time>2021-07-07T09:32:57+0200</time>
      </trkpt>
      <trkpt lat="45.68175" lon="2.97924">
        <ele>901.346831</ele>
        <time>2021-07-07T09:32:58+0200</time>
      </trkpt>
      <trkpt lat="45.68172" lon="2.9792">
        <ele>901.249714</ele>
        <time>2021-07-07T09:32:59+0200</time>
      </trkpt>
      <trkpt lat="45.68166" lon="2.97917">
        <ele>901.120539</ele>
        <time>2021-07-07T09:33:00+0200</time>
      </trkpt>
      <trkpt lat="45.6816" lon="2.97914">
        <ele>901.433588</ele>
        <time>2021-07-07T09:33:01+0200</time>
      </trkpt>
      <trkpt lat="45.68156" lon="2.97912">
        <ele>901.4677</ele>
        <time>2021-07-07T09:33:02+0200</time>
      </trkpt>
      <trkpt lat="45.6815" lon="2.97907">
        <ele>901.392842</ele>
        <time>2021-07-07T09:33:03+0200</time>
      </trkpt>
      <trkpt lat="45.68147" lon="2.97903">
        <ele>901.544833</ele>
        <time>2021-07-07T09:33:04+0200</time>
      </trkpt>
      <trkpt lat="45.68144" lon="2.97898">
        <ele>901.471583</ele>
        <time>2021-07-07T09:33:05+0200</time>
      </trkpt>
      <trkpt lat="45.68135" lon="2.9789">
        <ele>901.236512</ele>
        <time>2021-07-07T09:33:07+0200</time>
      </trkpt>
      <trkpt lat="45.68132" lon="2.97885">
        <ele>901.497146</ele>
        <time>2021-07-07T09:33:09+0200</time>
      </trkpt>
      <trkpt lat="45.68131" lon="2.97879">
        <ele>901.928266</ele>
        <time>2021-07-07T09:33:11+0200</time>
      </trkpt>
      <trkpt lat="45.68127" lon="2.97872">
        <ele>902.224136</ele>
        <time>2021-07-07T09:33:13+0200</time>
      </trkpt>
      <trkpt lat="45.68123" lon="2.97864">
        <ele>902.825937</ele>
        <time>2021-07-07T09:33:15+0200</time>
      </trkpt>
      <trkpt lat="45.68119" lon="2.97857">
        <ele>903.446515</ele>
        <time>2021-07-07T09:33:17+0200</time>
      </trkpt>
      <trkpt lat="45.68117" lon="2.97851">
        <ele>903.871843</ele>
        <time>2021-07-07T09:33:19+0200</time>
      </trkpt>
      <trkpt lat="45.68114" lon="2.97844">
        <ele>903.877126</ele>
        <time>2021-07-07T09:33:21+0200</time>
      </trkpt>
      <trkpt lat="45.6811" lon="2.97837">
        <ele>903.815239</ele>
        <time>2021-07-07T09:33:23+0200</time>
      </trkpt>
      <trkpt lat="45.68108" lon="2.97828">
        <ele>904.196803</ele>
        <time>2021-07-07T09:33:25+0200</time>
      </trkpt>
      <trkpt lat="45.68106" lon="2.97823">
        <ele>904.560669</ele>
        <time>2021-07-07T09:33:27+0200</time>
      </trkpt>
      <trkpt lat="45.68103" lon="2.97816">
        <ele>904.865891</ele>
        <time>2021-07-07T09:33:29+0200</time>
      </trkpt>
      <trkpt lat="45.68101" lon="2.9781">
        <ele>904.807092</ele>
        <time>2021-07-07T09:33:31+0200</time>
      </trkpt>
      <trkpt lat="45.68099" lon="2.97803">
        <ele>904.312121</ele>
        <time>2021-07-07T09:33:34+0200</time>
      </trkpt>
      <trkpt lat="45.68099" lon="2.97796">
        <ele>904.225049</ele>
        <time>2021-07-07T09:33:36+0200</time>
      </trkpt>
      <trkpt lat="45.68098" lon="2.9779">
        <ele>904.156318</ele>
        <time>2021-07-07T09:33:38+0200</time>
      </trkpt>
      <trkpt lat="45.68095" lon="2.97782">
        <ele>904.475196</ele>
        <time>2021-07-07T09:33:41+0200</time>
      </trkpt>
      <trkpt lat="45.68093" lon="2.97775">
        <ele>904.929995</ele>
        <time>2021-07-07T09:33:44+0200</time>
      </trkpt>
      <trkpt lat="45.6809" lon="2.9777">
        <ele>905.05645</ele>
        <time>2021-07-07T09:33:47+0200</time>
      </trkpt>
      <trkpt lat="45.68087" lon="2.97762">
        <ele>905.168483</ele>
        <time>2021-07-07T09:33:50+0200</time>
      </trkpt>
      <trkpt lat="45.68085" lon="2.97755">
        <ele>905.813813</ele>
        <time>2021-07-07T09:33:53+0200</time>
      </trkpt>
      <trkpt lat="45.68082" lon="2.97746">
        <ele>906.298609</ele>
        <time>2021-07-07T09:33:56+0200</time>
      </trkpt>
      <trkpt lat="45.68081" lon="2.9774">
        <ele>906.688141</ele>
        <time>2021-07-07T09:33:59+0200</time>
      </trkpt>
      <trkpt lat="45.68077" lon="2.97733">
        <ele>906.821697</ele>
        <time>2021-07-07T09:34:02+0200</time>
      </trkpt>
      <trkpt lat="45.68076" lon="2.97726">
        <ele>908.06098</ele>
        <time>2021-07-07T09:34:04+0200</time>
      </trkpt>
      <trkpt lat="45.68073" lon="2.9772">
        <ele>908.437353</ele>
        <time>2021-07-07T09:34:05+0200</time>
      </trkpt>
      <trkpt lat="45.6807" lon="2.97714">
        <ele>908.597198</ele>
        <time>2021-07-07T09:34:07+0200</time>
      </trkpt>
      <trkpt lat="45.68068" lon="2.97708">
        <ele>909.222129</ele>
        <time>2021-07-07T09:34:09+0200</time>
      </trkpt>
      <trkpt lat="45.68065" lon="2.97701">
        <ele>909.583705</ele>
        <time>2021-07-07T09:34:11+0200</time>
      </trkpt>
      <trkpt lat="45.6806" lon="2.97693">
        <ele>910.142451</ele>
        <time>2021-07-07T09:34:13+0200</time>
      </trkpt>
      <trkpt lat="45.68056" lon="2.97687">
        <ele>909.980381</ele>
        <time>2021-07-07T09:34:15+0200</time>
      </trkpt>
      <trkpt lat="45.68052" lon="2.97682">
        <ele>910.504562</ele>
        <time>2021-07-07T09:34:17+0200</time>
      </trkpt>
      <trkpt lat="45.6805" lon="2.97675">
        <ele>910.805698</ele>
        <time>2021-07-07T09:34:19+0200</time>
      </trkpt>
      <trkpt lat="45.68046" lon="2.97667">
        <ele>911.178756</ele>
        <time>2021-07-07T09:34:22+0200</time>
      </trkpt>
      <trkpt lat="45.68041" lon="2.97661">
        <ele>911.012114</ele>
        <time>2021-07-07T09:34:24+0200</time>
      </trkpt>
      <trkpt lat="45.68037" lon="2.97655">
        <ele>911.160434</ele>
        <time>2021-07-07T09:34:26+0200</time>
      </trkpt>
      <trkpt lat="45.68032" lon="2.97649">
        <ele>911.399644</ele>
        <time>2021-07-07T09:34:28+0200</time>
      </trkpt>
      <trkpt lat="45.68026" lon="2.97646">
        <ele>912.058127</ele>
        <time>2021-07-07T09:34:30+0200</time>
      </trkpt>
      <trkpt lat="45.68021" lon="2.97641">
        <ele>912.500207</ele>
        <time>2021-07-07T09:34:32+0200</time>
      </trkpt>
      <trkpt lat="45.68014" lon="2.97637">
        <ele>912.845359</ele>
        <time>2021-07-07T09:34:34+0200</time>
      </trkpt>
      <trkpt lat="45.68007" lon="2.97633">
        <ele>912.968899</ele>
        <time>2021-07-07T09:34:36+0200</time>
      </trkpt>
      <trkpt lat="45.68002" lon="2.97627">
        <ele>913.279951</ele>
        <time>2021-07-07T09:34:38+0200</time>
      </trkpt>
      <trkpt lat="45.67996" lon="2.97622">
        <ele>913.90636</ele>
        <time>2021-07-07T09:34:40+0200</time>
      </trkpt>
      <trkpt lat="45.6799" lon="2.97617">
        <ele>913.904916</ele>
        <time>2021-07-07T09:34:42+0200</time>
      </trkpt>
      <trkpt lat="45.67984" lon="2.97611">
        <ele>914.042773</ele>
        <time>2021-07-07T09:34:44+0200</time>
      </trkpt>
      <trkpt lat="45.67976" lon="2.97606">
        <ele>914.349051</ele>
        <time>2021-07-07T09:34:46+0200</time>
      </trkpt>
      <trkpt lat="45.6797" lon="2.97601">
        <ele>914.713639</ele>
        <time>2021-07-07T09:34:48+0200</time>
      </trkpt>
      <trkpt lat="45.67965" lon="2.97595">
        <ele>914.408368</ele>
        <time>2021-07-07T09:34:50+0200</time>
      </trkpt>
      <trkpt lat="45.67959" lon="2.97589">
        <ele>914.229625</ele>
        <time>2021-07-07T09:34:52+0200</time>
      </trkpt>
      <trkpt lat="45.67952" lon="2.97584">
        <ele>914.212824</ele>
        <time>2021-07-07T09:34:54+0200</time>
      </trkpt>
      <trkpt lat="45.67944" lon="2.97579">
        <ele>914.413873</ele>
        <time>2021-07-07T09:34:56+0200</time>
      </trkpt>
      <trkpt lat="45.6794" lon="2.97575">
        <ele>914.508604</ele>
        <time>2021-07-07T09:34:57+0200</time>
      </trkpt>
      <trkpt lat="45.67934" lon="2.9757">
        <ele>914.89246</ele>
        <time>2021-07-07T09:34:59+0200</time>
      </trkpt>
      <trkpt lat="45.67927" lon="2.97564">
        <ele>915.012687</ele>
        <time>2021-07-07T09:35:01+0200</time>
      </trkpt>
      <trkpt lat="45.67921" lon="2.97557">
        <ele>914.947694</ele>
        <time>2021-07-07T09:35:03+0200</time>
      </trkpt>
      <trkpt lat="45.67917" lon="2.97553">
        <ele>914.882553</ele>
        <time>2021-07-07T09:35:04+0200</time>
      </trkpt>
      <trkpt lat="45.6791" lon="2.97545">
        <ele>914.636012</ele>
        <time>2021-07-07T09:35:06+0200</time>
      </trkpt>
      <trkpt lat="45.67907" lon="2.9754">
        <ele>914.583828</ele>
        <time>2021-07-07T09:35:07+0200</time>
      </trkpt>
      <trkpt lat="45.67904" lon="2.97535">
        <ele>914.426319</ele>
        <time>2021-07-07T09:35:08+0200</time>
      </trkpt>
      <trkpt lat="45.67902" lon="2.97529">
        <ele>914.246157</ele>
        <time>2021-07-07T09:35:09+0200</time>
      </trkpt>
      <trkpt lat="45.679" lon="2.97522">
        <ele>914.534285</ele>
        <time>2021-07-07T09:35:10+0200</time>
      </trkpt>
      <trkpt lat="45.67896" lon="2.97518">
        <ele>914.673715</ele>
        <time>2021-07-07T09:35:11+0200</time>
      </trkpt>
      <trkpt lat="45.67891" lon="2.9751">
        <ele>914.770579</ele>
        <time>2021-07-07T09:35:13+0200</time>
      </trkpt>
      <trkpt lat="45.67886" lon="2.97501">
        <ele>915.45416</ele>
        <time>2021-07-07T09:35:15+0200</time>
      </trkpt>
      <trkpt lat="45.67884" lon="2.97495">
        <ele>915.757061</ele>
        <time>2021-07-07T09:35:16+0200</time>
      </trkpt>
      <trkpt lat="45.67881" lon="2.9749">
        <ele>916.009512</ele>
        <time>2021-07-07T09:35:17+0200</time>
      </trkpt>
      <trkpt lat="45.67876" lon="2.9748">
        <ele>916.501613</ele>
        <time>2021-07-07T09:35:19+0200</time>
      </trkpt>
      <trkpt lat="45.67871" lon="2.9747">
        <ele>916.898123</ele>
        <time>2021-07-07T09:35:21+0200</time>
      </trkpt>
      <trkpt lat="45.67867" lon="2.9746">
        <ele>916.659556</ele>
        <time>2021-07-07T09:35:23+0200</time>
      </trkpt>
      <trkpt lat="45.67863" lon="2.97451">
        <ele>916.278199</ele>
        <time>2021-07-07T09:35:25+0200</time>
      </trkpt>
      <trkpt lat="45.67859" lon="2.97443">
        <ele>916.725727</ele>
        <time>2021-07-07T09:35:27+0200</time>
      </trkpt>
      <trkpt lat="45.67854" lon="2.97434">
        <ele>916.70913</ele>
        <time>2021-07-07T09:35:29+0200</time>
      </trkpt>
      <trkpt lat="45.67849" lon="2.97428">
        <ele>917.143048</ele>
        <time>2021-07-07T09:35:31+0200</time>
      </trkpt>
      <trkpt lat="45.67845" lon="2.97419">
        <ele>917.534727</ele>
        <time>2021-07-07T09:35:33+0200</time>
      </trkpt>
      <trkpt lat="45.67839" lon="2.97412">
        <ele>917.378003</ele>
        <time>2021-07-07T09:35:35+0200</time>
      </trkpt>
      <trkpt lat="45.67834" lon="2.97404">
        <ele>917.267349</ele>
        <time>2021-07-07T09:35:37+0200</time>
      </trkpt>
      <trkpt lat="45.6783" lon="2.97395">
        <ele>917.302024</ele>
        <time>2021-07-07T09:35:39+0200</time>
      </trkpt>
      <trkpt lat="45.67826" lon="2.97387">
        <ele>916.541983</ele>
        <time>2021-07-07T09:35:41+0200</time>
      </trkpt>
      <trkpt lat="45.67822" lon="2.97379">
        <ele>916.611295</ele>
        <time>2021-07-07T09:35:43+0200</time>
      </trkpt>
      <trkpt lat="45.67818" lon="2.97371">
        <ele>917.223628</ele>
        <time>2021-07-07T09:35:45+0200</time>
      </trkpt>
      <trkpt lat="45.67814" lon="2.97365">
        <ele>917.726679</ele>
        <time>2021-07-07T09:35:48+0200</time>
      </trkpt>
      <trkpt lat="45.6781" lon="2.97356">
        <ele>917.752014</ele>
        <time>2021-07-07T09:35:50+0200</time>
      </trkpt>
      <trkpt lat="45.67807" lon="2.97347">
        <ele>917.778843</ele>
        <time>2021-07-07T09:35:51+0200</time>
      </trkpt>
      <trkpt lat="45.67803" lon="2.97338">
        <ele>918.011913</ele>
        <time>2021-07-07T09:35:53+0200</time>
      </trkpt>
      <trkpt lat="45.678" lon="2.97331">
        <ele>918.456598</ele>
        <time>2021-07-07T09:35:55+0200</time>
      </trkpt>
      <trkpt lat="45.67797" lon="2.97324">
        <ele>918.356505</ele>
        <time>2021-07-07T09:35:57+0200</time>
      </trkpt>
      <trkpt lat="45.67794" lon="2.97316">
        <ele>917.757242</ele>
        <time>2021-07-07T09:36:04+0200</time>
      </trkpt>
      <trkpt lat="45.67791" lon="2.97306">
        <ele>917.539845</ele>
        <time>2021-07-07T09:36:06+0200</time>
      </trkpt>
      <trkpt lat="45.67789" lon="2.973">
        <ele>917.42067</ele>
        <time>2021-07-07T09:36:07+0200</time>
      </trkpt>
      <trkpt lat="45.67785" lon="2.97289">
        <ele>917.177093</ele>
        <time>2021-07-07T09:36:09+0200</time>
      </trkpt>
      <trkpt lat="45.67779" lon="2.9728">
        <ele>917.631758</ele>
        <time>2021-07-07T09:36:11+0200</time>
      </trkpt>
      <trkpt lat="45.67774" lon="2.97271">
        <ele>917.711034</ele>
        <time>2021-07-07T09:36:13+0200</time>
      </trkpt>
      <trkpt lat="45.67771" lon="2.97265">
        <ele>917.771682</ele>
        <time>2021-07-07T09:36:14+0200</time>
      </trkpt>
      <trkpt lat="45.67767" lon="2.97261">
        <ele>918.039286</ele>
        <time>2021-07-07T09:36:15+0200</time>
      </trkpt>
      <trkpt lat="45.67763" lon="2.97257">
        <ele>918.041782</ele>
        <time>2021-07-07T09:36:16+0200</time>
      </trkpt>
      <trkpt lat="45.67756" lon="2.9725">
        <ele>917.982363</ele>
        <time>2021-07-07T09:36:18+0200</time>
      </trkpt>
      <trkpt lat="45.6775" lon="2.97242">
        <ele>917.89482</ele>
        <time>2021-07-07T09:36:20+0200</time>
      </trkpt>
      <trkpt lat="45.67746" lon="2.97238">
        <ele>917.753141</ele>
        <time>2021-07-07T09:36:21+0200</time>
      </trkpt>
      <trkpt lat="45.67742" lon="2.97235">
        <ele>918.272167</ele>
        <time>2021-07-07T09:36:22+0200</time>
      </trkpt>
      <trkpt lat="45.67738" lon="2.97231">
        <ele>918.327021</ele>
        <time>2021-07-07T09:36:23+0200</time>
      </trkpt>
      <trkpt lat="45.67732" lon="2.97223">
        <ele>918.334067</ele>
        <time>2021-07-07T09:36:25+0200</time>
      </trkpt>
      <trkpt lat="45.67725" lon="2.97215">
        <ele>918.503283</ele>
        <time>2021-07-07T09:36:27+0200</time>
      </trkpt>
      <trkpt lat="45.6772" lon="2.97207">
        <ele>918.568637</ele>
        <time>2021-07-07T09:36:29+0200</time>
      </trkpt>
      <trkpt lat="45.67714" lon="2.97198">
        <ele>918.692081</ele>
        <time>2021-07-07T09:36:31+0200</time>
      </trkpt>
      <trkpt lat="45.67708" lon="2.97189">
        <ele>919.680438</ele>
        <time>2021-07-07T09:36:33+0200</time>
      </trkpt>
      <trkpt lat="45.67702" lon="2.97181">
        <ele>920.229029</ele>
        <time>2021-07-07T09:36:35+0200</time>
      </trkpt>
      <trkpt lat="45.67696" lon="2.97174">
        <ele>920.543508</ele>
        <time>2021-07-07T09:36:37+0200</time>
      </trkpt>
      <trkpt lat="45.67692" lon="2.9717">
        <ele>920.745493</ele>
        <time>2021-07-07T09:36:38+0200</time>
      </trkpt>
      <trkpt lat="45.67685" lon="2.97166">
        <ele>921.24015</ele>
        <time>2021-07-07T09:36:40+0200</time>
      </trkpt>
      <trkpt lat="45.67679" lon="2.97162">
        <ele>921.89474</ele>
        <time>2021-07-07T09:36:42+0200</time>
      </trkpt>
      <trkpt lat="45.67672" lon="2.97157">
        <ele>922.601338</ele>
        <time>2021-07-07T09:36:44+0200</time>
      </trkpt>
      <trkpt lat="45.67665" lon="2.97154">
        <ele>923.004314</ele>
        <time>2021-07-07T09:36:46+0200</time>
      </trkpt>
      <trkpt lat="45.67659" lon="2.97152">
        <ele>923.869469</ele>
        <time>2021-07-07T09:36:48+0200</time>
      </trkpt>
      <trkpt lat="45.67652" lon="2.9715">
        <ele>924.208143</ele>
        <time>2021-07-07T09:36:50+0200</time>
      </trkpt>
      <trkpt lat="45.67646" lon="2.97147">
        <ele>924.781909</ele>
        <time>2021-07-07T09:36:52+0200</time>
      </trkpt>
      <trkpt lat="45.6764" lon="2.97142">
        <ele>924.357205</ele>
        <time>2021-07-07T09:36:54+0200</time>
      </trkpt>
      <trkpt lat="45.67634" lon="2.97136">
        <ele>924.158163</ele>
        <time>2021-07-07T09:36:56+0200</time>
      </trkpt>
      <trkpt lat="45.6763" lon="2.9713">
        <ele>924.339395</ele>
        <time>2021-07-07T09:36:58+0200</time>
      </trkpt>
      <trkpt lat="45.67625" lon="2.97125">
        <ele>924.924771</ele>
        <time>2021-07-07T09:37:00+0200</time>
      </trkpt>
      <trkpt lat="45.6762" lon="2.97124">
        <ele>925.561936</ele>
        <time>2021-07-07T09:37:02+0200</time>
      </trkpt>
      <trkpt lat="45.67615" lon="2.97122">
        <ele>926.558627</ele>
        <time>2021-07-07T09:37:04+0200</time>
      </trkpt>
      <trkpt lat="45.6761" lon="2.97118">
        <ele>926.953545</ele>
        <time>2021-07-07T09:37:06+0200</time>
      </trkpt>
      <trkpt lat="45.67605" lon="2.97116">
        <ele>927.90622</ele>
        <time>2021-07-07T09:37:08+0200</time>
      </trkpt>
      <trkpt lat="45.67601" lon="2.97112">
        <ele>928.752983</ele>
        <time>2021-07-07T09:37:10+0200</time>
      </trkpt>
      <trkpt lat="45.67598" lon="2.97107">
        <ele>929.25052</ele>
        <time>2021-07-07T09:37:12+0200</time>
      </trkpt>
      <trkpt lat="45.67599" lon="2.971">
        <ele>930.225369</ele>
        <time>2021-07-07T09:37:15+0200</time>
      </trkpt>
      <trkpt lat="45.67594" lon="2.97094">
        <ele>929.233151</ele>
        <time>2021-07-07T09:38:02+0200</time>
      </trkpt>
      <trkpt lat="45.67591" lon="2.97089">
        <ele>930.019425</ele>
        <time>2021-07-07T09:38:04+0200</time>
      </trkpt>
      <trkpt lat="45.67587" lon="2.97084">
        <ele>929.894874</ele>
        <time>2021-07-07T09:38:31+0200</time>
      </trkpt>
      <trkpt lat="45.67582" lon="2.97079">
        <ele>930.81735</ele>
        <time>2021-07-07T09:38:34+0200</time>
      </trkpt>
      <trkpt lat="45.67579" lon="2.97075">
        <ele>931.307868</ele>
        <time>2021-07-07T09:38:39+0200</time>
      </trkpt>
      <trkpt lat="45.67576" lon="2.97069">
        <ele>932.06477</ele>
        <time>2021-07-07T09:38:43+0200</time>
      </trkpt>
      <trkpt lat="45.67574" lon="2.97063">
        <ele>932.188785</ele>
        <time>2021-07-07T09:39:02+0200</time>
      </trkpt>
      <trkpt lat="45.67571" lon="2.97058">
        <ele>931.774799</ele>
        <time>2021-07-07T09:39:05+0200</time>
      </trkpt>
      <trkpt lat="45.67569" lon="2.97052">
        <ele>931.964181</ele>
        <time>2021-07-07T09:39:07+0200</time>
      </trkpt>
      <trkpt lat="45.67566" lon="2.97046">
        <ele>932.590491</ele>
        <time>2021-07-07T09:39:09+0200</time>
      </trkpt>
      <trkpt lat="45.67565" lon="2.97038">
        <ele>933.708428</ele>
        <time>2021-07-07T09:39:11+0200</time>
      </trkpt>
      <trkpt lat="45.67561" lon="2.97034">
        <ele>934.001356</ele>
        <time>2021-07-07T09:39:13+0200</time>
      </trkpt>
      <trkpt lat="45.67556" lon="2.97027">
        <ele>934.214161</ele>
        <time>2021-07-07T09:39:16+0200</time>
      </trkpt>
      <trkpt lat="45.67554" lon="2.97021">
        <ele>934.370554</ele>
        <time>2021-07-07T09:39:18+0200</time>
      </trkpt>
      <trkpt lat="45.6755" lon="2.97015">
        <ele>934.996939</ele>
        <time>2021-07-07T09:39:20+0200</time>
      </trkpt>
      <trkpt lat="45.67546" lon="2.97009">
        <ele>935.6814</ele>
        <time>2021-07-07T09:39:23+0200</time>
      </trkpt>
      <trkpt lat="45.67543" lon="2.97002">
        <ele>935.936747</ele>
        <time>2021-07-07T09:39:25+0200</time>
      </trkpt>
      <trkpt lat="45.6754" lon="2.96996">
        <ele>936.305363</ele>
        <time>2021-07-07T09:39:27+0200</time>
      </trkpt>
      <trkpt lat="45.67538" lon="2.9699">
        <ele>936.718591</ele>
        <time>2021-07-07T09:39:29+0200</time>
      </trkpt>
      <trkpt lat="45.67535" lon="2.96984">
        <ele>937.14408</ele>
        <time>2021-07-07T09:39:31+0200</time>
      </trkpt>
      <trkpt lat="45.67533" lon="2.96977">
        <ele>937.379015</ele>
        <time>2021-07-07T09:39:33+0200</time>
      </trkpt>
      <trkpt lat="45.67531" lon="2.96971">
        <ele>937.770253</ele>
        <time>2021-07-07T09:39:35+0200</time>
      </trkpt>
      <trkpt lat="45.67529" lon="2.96966">
        <ele>938.058623</ele>
        <time>2021-07-07T09:39:37+0200</time>
      </trkpt>
      <trkpt lat="45.67527" lon="2.9696">
        <ele>938.575405</ele>
        <time>2021-07-07T09:39:39+0200</time>
      </trkpt>
      <trkpt lat="45.67524" lon="2.96954">
        <ele>939.194465</ele>
        <time>2021-07-07T09:39:41+0200</time>
      </trkpt>
      <trkpt lat="45.67522" lon="2.96948">
        <ele>939.391378</ele>
        <time>2021-07-07T09:39:43+0200</time>
      </trkpt>
      <trkpt lat="45.6752" lon="2.96942">
        <ele>939.759664</ele>
        <time>2021-07-07T09:39:45+0200</time>
      </trkpt>
      <trkpt lat="45.67517" lon="2.96937">
        <ele>940.292187</ele>
        <time>2021-07-07T09:39:47+0200</time>
      </trkpt>
      <trkpt lat="45.67515" lon="2.9693">
        <ele>940.607705</ele>
        <time>2021-07-07T09:39:49+0200</time>
      </trkpt>
      <trkpt lat="45.67512" lon="2.96925">
        <ele>940.894157</ele>
        <time>2021-07-07T09:39:51+0200</time>
      </trkpt>
      <trkpt lat="45.67509" lon="2.96918">
        <ele>941.087395</ele>
        <time>2021-07-07T09:39:53+0200</time>
      </trkpt>
      <trkpt lat="45.67506" lon="2.96912">
        <ele>941.198623</ele>
        <time>2021-07-07T09:39:55+0200</time>
      </trkpt>
      <trkpt lat="45.67502" lon="2.96906">
        <ele>941.633224</ele>
        <time>2021-07-07T09:39:57+0200</time>
      </trkpt>
      <trkpt lat="45.67499" lon="2.969">
        <ele>941.648916</ele>
        <time>2021-07-07T09:39:59+0200</time>
      </trkpt>
      <trkpt lat="45.67496" lon="2.96894">
        <ele>941.736519</ele>
        <time>2021-07-07T09:40:01+0200</time>
      </trkpt>
      <trkpt lat="45.67493" lon="2.96886">
        <ele>942.021944</ele>
        <time>2021-07-07T09:40:03+0200</time>
      </trkpt>
      <trkpt lat="45.6749" lon="2.9688">
        <ele>942.27557</ele>
        <time>2021-07-07T09:40:05+0200</time>
      </trkpt>
      <trkpt lat="45.67486" lon="2.96873">
        <ele>942.705844</ele>
        <time>2021-07-07T09:40:07+0200</time>
      </trkpt>
      <trkpt lat="45.67484" lon="2.96866">
        <ele>943.187698</ele>
        <time>2021-07-07T09:40:09+0200</time>
      </trkpt>
      <trkpt lat="45.67481" lon="2.96859">
        <ele>943.019848</ele>
        <time>2021-07-07T09:40:11+0200</time>
      </trkpt>
      <trkpt lat="45.67478" lon="2.96853">
        <ele>943.660951</ele>
        <time>2021-07-07T09:40:13+0200</time>
      </trkpt>
      <trkpt lat="45.67476" lon="2.96845">
        <ele>943.926763</ele>
        <time>2021-07-07T09:40:15+0200</time>
      </trkpt>
      <trkpt lat="45.67473" lon="2.96837">
        <ele>943.85949</ele>
        <time>2021-07-07T09:40:17+0200</time>
      </trkpt>
      <trkpt lat="45.67469" lon="2.96829">
        <ele>944.06207</ele>
        <time>2021-07-07T09:40:19+0200</time>
      </trkpt>
      <trkpt lat="45.67467" lon="2.9682">
        <ele>944.53857</ele>
        <time>2021-07-07T09:40:21+0200</time>
      </trkpt>
      <trkpt lat="45.67464" lon="2.96812">
        <ele>944.621319</ele>
        <time>2021-07-07T09:40:23+0200</time>
      </trkpt>
      <trkpt lat="45.67461" lon="2.96805">
        <ele>945.936327</ele>
        <time>2021-07-07T09:40:25+0200</time>
      </trkpt>
      <trkpt lat="45.67456" lon="2.96798">
        <ele>946.680993</ele>
        <time>2021-07-07T09:40:27+0200</time>
      </trkpt>
      <trkpt lat="45.67452" lon="2.9679">
        <ele>946.292551</ele>
        <time>2021-07-07T09:40:29+0200</time>
      </trkpt>
      <trkpt lat="45.67448" lon="2.96783">
        <ele>946.673615</ele>
        <time>2021-07-07T09:40:31+0200</time>
      </trkpt>
      <trkpt lat="45.67445" lon="2.96776">
        <ele>946.929689</ele>
        <time>2021-07-07T09:40:33+0200</time>
      </trkpt>
      <trkpt lat="45.67439" lon="2.96769">
        <ele>947.421621</ele>
        <time>2021-07-07T09:40:35+0200</time>
      </trkpt>
      <trkpt lat="45.67436" lon="2.96763">
        <ele>947.724936</ele>
        <time>2021-07-07T09:40:37+0200</time>
      </trkpt>
      <trkpt lat="45.67433" lon="2.96758">
        <ele>948.396132</ele>
        <time>2021-07-07T09:40:39+0200</time>
      </trkpt>
      <trkpt lat="45.67427" lon="2.96751">
        <ele>948.893204</ele>
        <time>2021-07-07T09:40:41+0200</time>
      </trkpt>
      <trkpt lat="45.67422" lon="2.96749">
        <ele>949.354472</ele>
        <time>2021-07-07T09:40:43+0200</time>
      </trkpt>
      <trkpt lat="45.67417" lon="2.96747">
        <ele>949.770854</ele>
        <time>2021-07-07T09:40:45+0200</time>
      </trkpt>
      <trkpt lat="45.67412" lon="2.96749">
        <ele>950.076831</ele>
        <time>2021-07-07T09:40:47+0200</time>
      </trkpt>
      <trkpt lat="45.67406" lon="2.9675">
        <ele>950.143795</ele>
        <time>2021-07-07T09:40:49+0200</time>
      </trkpt>
      <trkpt lat="45.67399" lon="2.96747">
        <ele>949.895873</ele>
        <time>2021-07-07T09:40:51+0200</time>
      </trkpt>
      <trkpt lat="45.6739" lon="2.96743">
        <ele>949.167649</ele>
        <time>2021-07-07T09:40:53+0200</time>
      </trkpt>
      <trkpt lat="45.67382" lon="2.9674">
        <ele>948.449215</ele>
        <time>2021-07-07T09:40:55+0200</time>
      </trkpt>
      <trkpt lat="45.67377" lon="2.96739">
        <ele>948.042311</ele>
        <time>2021-07-07T09:40:56+0200</time>
      </trkpt>
      <trkpt lat="45.67372" lon="2.96739">
        <ele>947.801031</ele>
        <time>2021-07-07T09:40:57+0200</time>
      </trkpt>
      <trkpt lat="45.67366" lon="2.96738">
        <ele>947.982422</ele>
        <time>2021-07-07T09:40:58+0200</time>
      </trkpt>
      <trkpt lat="45.67361" lon="2.96737">
        <ele>947.895409</ele>
        <time>2021-07-07T09:40:59+0200</time>
      </trkpt>
      <trkpt lat="45.67356" lon="2.96737">
        <ele>947.782657</ele>
        <time>2021-07-07T09:41:00+0200</time>
      </trkpt>
      <trkpt lat="45.6735" lon="2.96738">
        <ele>947.379365</ele>
        <time>2021-07-07T09:41:01+0200</time>
      </trkpt>
      <trkpt lat="45.67345" lon="2.9674">
        <ele>946.85301</ele>
        <time>2021-07-07T09:41:02+0200</time>
      </trkpt>
      <trkpt lat="45.67339" lon="2.96741">
        <ele>946.530435</ele>
        <time>2021-07-07T09:41:03+0200</time>
      </trkpt>
      <trkpt lat="45.67334" lon="2.96744">
        <ele>946.272604</ele>
        <time>2021-07-07T09:41:04+0200</time>
      </trkpt>
      <trkpt lat="45.67329" lon="2.96745">
        <ele>946.577169</ele>
        <time>2021-07-07T09:41:05+0200</time>
      </trkpt>
      <trkpt lat="45.67321" lon="2.96751">
        <ele>947.480293</ele>
        <time>2021-07-07T09:41:07+0200</time>
      </trkpt>
      <trkpt lat="45.67316" lon="2.96752">
        <ele>947.666973</ele>
        <time>2021-07-07T09:41:08+0200</time>
      </trkpt>
      <trkpt lat="45.6731" lon="2.96752">
        <ele>947.979425</ele>
        <time>2021-07-07T09:41:09+0200</time>
      </trkpt>
      <trkpt lat="45.67304" lon="2.96754">
        <ele>947.73355</ele>
        <time>2021-07-07T09:41:10+0200</time>
      </trkpt>
      <trkpt lat="45.67296" lon="2.96756">
        <ele>947.498517</ele>
        <time>2021-07-07T09:41:12+0200</time>
      </trkpt>
      <trkpt lat="45.67291" lon="2.96759">
        <ele>947.270345</ele>
        <time>2021-07-07T09:41:13+0200</time>
      </trkpt>
      <trkpt lat="45.67286" lon="2.9676">
        <ele>947.438181</ele>
        <time>2021-07-07T09:41:14+0200</time>
      </trkpt>
      <trkpt lat="45.6728" lon="2.96758">
        <ele>947.506115</ele>
        <time>2021-07-07T09:41:15+0200</time>
      </trkpt>
      <trkpt lat="45.67274" lon="2.9676">
        <ele>947.046224</ele>
        <time>2021-07-07T09:41:16+0200</time>
      </trkpt>
      <trkpt lat="45.67269" lon="2.96763">
        <ele>946.777035</ele>
        <time>2021-07-07T09:41:17+0200</time>
      </trkpt>
      <trkpt lat="45.67264" lon="2.96765">
        <ele>946.478802</ele>
        <time>2021-07-07T09:41:18+0200</time>
      </trkpt>
      <trkpt lat="45.67258" lon="2.96767">
        <ele>946.330765</ele>
        <time>2021-07-07T09:41:19+0200</time>
      </trkpt>
      <trkpt lat="45.67253" lon="2.96768">
        <ele>946.586486</ele>
        <time>2021-07-07T09:41:20+0200</time>
      </trkpt>
      <trkpt lat="45.67246" lon="2.9677">
        <ele>946.268238</ele>
        <time>2021-07-07T09:41:21+0200</time>
      </trkpt>
      <trkpt lat="45.67241" lon="2.96772">
        <ele>945.985573</ele>
        <time>2021-07-07T09:41:22+0200</time>
      </trkpt>
      <trkpt lat="45.67236" lon="2.96773">
        <ele>945.450443</ele>
        <time>2021-07-07T09:41:23+0200</time>
      </trkpt>
      <trkpt lat="45.67231" lon="2.96775">
        <ele>945.238056</ele>
        <time>2021-07-07T09:41:24+0200</time>
      </trkpt>
      <trkpt lat="45.67226" lon="2.96776">
        <ele>945.263585</ele>
        <time>2021-07-07T09:41:25+0200</time>
      </trkpt>
      <trkpt lat="45.67218" lon="2.96776">
        <ele>945.030829</ele>
        <time>2021-07-07T09:41:26+0200</time>
      </trkpt>
      <trkpt lat="45.67211" lon="2.96777">
        <ele>945.024496</ele>
        <time>2021-07-07T09:41:27+0200</time>
      </trkpt>
      <trkpt lat="45.67205" lon="2.96777">
        <ele>945.03529</ele>
        <time>2021-07-07T09:41:28+0200</time>
      </trkpt>
      <trkpt lat="45.67199" lon="2.96778">
        <ele>945.07358</ele>
        <time>2021-07-07T09:41:29+0200</time>
      </trkpt>
      <trkpt lat="45.67193" lon="2.9678">
        <ele>944.984216</ele>
        <time>2021-07-07T09:41:30+0200</time>
      </trkpt>
      <trkpt lat="45.67187" lon="2.96781">
        <ele>944.816974</ele>
        <time>2021-07-07T09:41:31+0200</time>
      </trkpt>
      <trkpt lat="45.67182" lon="2.96782">
        <ele>944.648562</ele>
        <time>2021-07-07T09:41:32+0200</time>
      </trkpt>
      <trkpt lat="45.67177" lon="2.96784">
        <ele>944.808473</ele>
        <time>2021-07-07T09:41:33+0200</time>
      </trkpt>
      <trkpt lat="45.67171" lon="2.96786">
        <ele>945.103158</ele>
        <time>2021-07-07T09:41:34+0200</time>
      </trkpt>
      <trkpt lat="45.67166" lon="2.96786">
        <ele>945.16761</ele>
        <time>2021-07-07T09:41:35+0200</time>
      </trkpt>
      <trkpt lat="45.6716" lon="2.96786">
        <ele>945.517711</ele>
        <time>2021-07-07T09:41:36+0200</time>
      </trkpt>
      <trkpt lat="45.67154" lon="2.96787">
        <ele>945.255962</ele>
        <time>2021-07-07T09:41:37+0200</time>
      </trkpt>
      <trkpt lat="45.67148" lon="2.96789">
        <ele>945.302292</ele>
        <time>2021-07-07T09:41:38+0200</time>
      </trkpt>
      <trkpt lat="45.67143" lon="2.96791">
        <ele>945.248904</ele>
        <time>2021-07-07T09:41:39+0200</time>
      </trkpt>
      <trkpt lat="45.67138" lon="2.96792">
        <ele>945.277614</ele>
        <time>2021-07-07T09:41:40+0200</time>
      </trkpt>
      <trkpt lat="45.67132" lon="2.96793">
        <ele>945.31714</ele>
        <time>2021-07-07T09:41:41+0200</time>
      </trkpt>
      <trkpt lat="45.67128" lon="2.96793">
        <ele>944.77403</ele>
        <time>2021-07-07T09:41:42+0200</time>
      </trkpt>
      <trkpt lat="45.67123" lon="2.96794">
        <ele>945.177183</ele>
        <time>2021-07-07T09:41:43+0200</time>
      </trkpt>
      <trkpt lat="45.67115" lon="2.96793">
        <ele>945.667355</ele>
        <time>2021-07-07T09:41:45+0200</time>
      </trkpt>
      <trkpt lat="45.67111" lon="2.96794">
        <ele>945.965645</ele>
        <time>2021-07-07T09:41:46+0200</time>
      </trkpt>
      <trkpt lat="45.67106" lon="2.96794">
        <ele>945.960319</ele>
        <time>2021-07-07T09:41:47+0200</time>
      </trkpt>
      <trkpt lat="45.67101" lon="2.96794">
        <ele>946.023617</ele>
        <time>2021-07-07T09:41:48+0200</time>
      </trkpt>
      <trkpt lat="45.67096" lon="2.96794">
        <ele>946.24336</ele>
        <time>2021-07-07T09:41:49+0200</time>
      </trkpt>
      <trkpt lat="45.67091" lon="2.96794">
        <ele>946.38338</ele>
        <time>2021-07-07T09:41:50+0200</time>
      </trkpt>
      <trkpt lat="45.67086" lon="2.96794">
        <ele>946.424327</ele>
        <time>2021-07-07T09:41:51+0200</time>
      </trkpt>
      <trkpt lat="45.67077" lon="2.96792">
        <ele>946.867933</ele>
        <time>2021-07-07T09:41:53+0200</time>
      </trkpt>
      <trkpt lat="45.67072" lon="2.96791">
        <ele>946.909122</ele>
        <time>2021-07-07T09:41:54+0200</time>
      </trkpt>
      <trkpt lat="45.67064" lon="2.96787">
        <ele>946.710735</ele>
        <time>2021-07-07T09:41:56+0200</time>
      </trkpt>
      <trkpt lat="45.6706" lon="2.96784">
        <ele>946.343423</ele>
        <time>2021-07-07T09:41:57+0200</time>
      </trkpt>
      <trkpt lat="45.67056" lon="2.96781">
        <ele>945.844198</ele>
        <time>2021-07-07T09:41:58+0200</time>
      </trkpt>
      <trkpt lat="45.6705" lon="2.96776">
        <ele>944.888433</ele>
        <time>2021-07-07T09:42:00+0200</time>
      </trkpt>
      <trkpt lat="45.67045" lon="2.96771">
        <ele>944.564045</ele>
        <time>2021-07-07T09:42:02+0200</time>
      </trkpt>
      <trkpt lat="45.67039" lon="2.96767">
        <ele>943.824878</ele>
        <time>2021-07-07T09:42:04+0200</time>
      </trkpt>
      <trkpt lat="45.67044" lon="2.96769">
        <ele>945.772203</ele>
        <time>2021-07-07T09:43:07+0200</time>
      </trkpt>
      <trkpt lat="45.67049" lon="2.96773">
        <ele>946.162393</ele>
        <time>2021-07-07T09:43:10+0200</time>
      </trkpt>
      <trkpt lat="45.67053" lon="2.96776">
        <ele>946.457327</ele>
        <time>2021-07-07T09:43:12+0200</time>
      </trkpt>
      <trkpt lat="45.67058" lon="2.96781">
        <ele>946.314696</ele>
        <time>2021-07-07T09:43:14+0200</time>
      </trkpt>
      <trkpt lat="45.67064" lon="2.96779">
        <ele>947.042846</ele>
        <time>2021-07-07T09:43:16+0200</time>
      </trkpt>
      <trkpt lat="45.67065" lon="2.96772">
        <ele>946.520149</ele>
        <time>2021-07-07T09:43:18+0200</time>
      </trkpt>
      <trkpt lat="45.67065" lon="2.96764">
        <ele>946.586884</ele>
        <time>2021-07-07T09:43:21+0200</time>
      </trkpt>
      <trkpt lat="45.67067" lon="2.96754">
        <ele>946.97833</ele>
        <time>2021-07-07T09:43:24+0200</time>
      </trkpt>
      <trkpt lat="45.67069" lon="2.96748">
        <ele>947.089178</ele>
        <time>2021-07-07T09:43:26+0200</time>
      </trkpt>
      <trkpt lat="45.67071" lon="2.9674">
        <ele>947.322051</ele>
        <time>2021-07-07T09:43:28+0200</time>
      </trkpt>
      <trkpt lat="45.67073" lon="2.96733">
        <ele>947.626459</ele>
        <time>2021-07-07T09:43:30+0200</time>
      </trkpt>
      <trkpt lat="45.67074" lon="2.96725">
        <ele>947.764599</ele>
        <time>2021-07-07T09:43:32+0200</time>
      </trkpt>
      <trkpt lat="45.67075" lon="2.96717">
        <ele>948.315795</ele>
        <time>2021-07-07T09:43:34+0200</time>
      </trkpt>
      <trkpt lat="45.67075" lon="2.96709">
        <ele>948.723461</ele>
        <time>2021-07-07T09:43:36+0200</time>
      </trkpt>
      <trkpt lat="45.67075" lon="2.967">
        <ele>949.017515</ele>
        <time>2021-07-07T09:43:38+0200</time>
      </trkpt>
      <trkpt lat="45.67074" lon="2.96691">
        <ele>949.304684</ele>
        <time>2021-07-07T09:43:40+0200</time>
      </trkpt>
      <trkpt lat="45.67073" lon="2.96683">
        <ele>949.539833</ele>
        <time>2021-07-07T09:43:42+0200</time>
      </trkpt>
      <trkpt lat="45.67072" lon="2.96675">
        <ele>949.523204</ele>
        <time>2021-07-07T09:43:44+0200</time>
      </trkpt>
      <trkpt lat="45.6707" lon="2.96666">
        <ele>950.279772</ele>
        <time>2021-07-07T09:43:46+0200</time>
      </trkpt>
      <trkpt lat="45.67069" lon="2.96659">
        <ele>951.130219</ele>
        <time>2021-07-07T09:43:48+0200</time>
      </trkpt>
      <trkpt lat="45.67069" lon="2.96649">
        <ele>951.118958</ele>
        <time>2021-07-07T09:43:50+0200</time>
      </trkpt>
      <trkpt lat="45.67068" lon="2.96641">
        <ele>951.597982</ele>
        <time>2021-07-07T09:43:52+0200</time>
      </trkpt>
      <trkpt lat="45.67067" lon="2.96633">
        <ele>952.085572</ele>
        <time>2021-07-07T09:43:54+0200</time>
      </trkpt>
      <trkpt lat="45.67066" lon="2.96627">
        <ele>952.642806</ele>
        <time>2021-07-07T09:43:56+0200</time>
      </trkpt>
      <trkpt lat="45.67064" lon="2.96618">
        <ele>953.265718</ele>
        <time>2021-07-07T09:43:58+0200</time>
      </trkpt>
      <trkpt lat="45.67063" lon="2.96611">
        <ele>953.793864</ele>
        <time>2021-07-07T09:44:00+0200</time>
      </trkpt>
      <trkpt lat="45.67063" lon="2.96601">
        <ele>955.179927</ele>
        <time>2021-07-07T09:44:03+0200</time>
      </trkpt>
      <trkpt lat="45.67062" lon="2.96594">
        <ele>955.900039</ele>
        <time>2021-07-07T09:44:05+0200</time>
      </trkpt>
      <trkpt lat="45.67062" lon="2.96586">
        <ele>956.158369</ele>
        <time>2021-07-07T09:44:07+0200</time>
      </trkpt>
      <trkpt lat="45.67062" lon="2.96578">
        <ele>956.72127</ele>
        <time>2021-07-07T09:44:10+0200</time>
      </trkpt>
      <trkpt lat="45.67061" lon="2.96569">
        <ele>956.932429</ele>
        <time>2021-07-07T09:44:13+0200</time>
      </trkpt>
      <trkpt lat="45.67058" lon="2.96561">
        <ele>957.074949</ele>
        <time>2021-07-07T09:44:16+0200</time>
      </trkpt>
      <trkpt lat="45.67056" lon="2.96552">
        <ele>957.587887</ele>
        <time>2021-07-07T09:44:19+0200</time>
      </trkpt>
      <trkpt lat="45.67053" lon="2.96544">
        <ele>957.956681</ele>
        <time>2021-07-07T09:44:22+0200</time>
      </trkpt>
      <trkpt lat="45.67051" lon="2.96538">
        <ele>958.274112</ele>
        <time>2021-07-07T09:44:24+0200</time>
      </trkpt>
      <trkpt lat="45.67049" lon="2.96532">
        <ele>958.139663</ele>
        <time>2021-07-07T09:44:26+0200</time>
      </trkpt>
      <trkpt lat="45.67046" lon="2.96524">
        <ele>958.690824</ele>
        <time>2021-07-07T09:44:29+0200</time>
      </trkpt>
      <trkpt lat="45.67044" lon="2.96518">
        <ele>959.037548</ele>
        <time>2021-07-07T09:44:31+0200</time>
      </trkpt>
      <trkpt lat="45.67041" lon="2.96512">
        <ele>960.428464</ele>
        <time>2021-07-07T09:44:34+0200</time>
      </trkpt>
      <trkpt lat="45.67038" lon="2.96505">
        <ele>961.924969</ele>
        <time>2021-07-07T09:44:37+0200</time>
      </trkpt>
      <trkpt lat="45.67037" lon="2.96497">
        <ele>962.132358</ele>
        <time>2021-07-07T09:44:40+0200</time>
      </trkpt>
      <trkpt lat="45.67034" lon="2.9649">
        <ele>962.580921</ele>
        <time>2021-07-07T09:44:43+0200</time>
      </trkpt>
      <trkpt lat="45.67032" lon="2.96483">
        <ele>962.907985</ele>
        <time>2021-07-07T09:44:46+0200</time>
      </trkpt>
      <trkpt lat="45.67031" lon="2.96477">
        <ele>963.305409</ele>
        <time>2021-07-07T09:44:48+0200</time>
      </trkpt>
      <trkpt lat="45.67028" lon="2.96469">
        <ele>963.898051</ele>
        <time>2021-07-07T09:44:51+0200</time>
      </trkpt>
      <trkpt lat="45.67026" lon="2.96463">
        <ele>965.059658</ele>
        <time>2021-07-07T09:44:53+0200</time>
      </trkpt>
      <trkpt lat="45.67022" lon="2.96457">
        <ele>965.908902</ele>
        <time>2021-07-07T09:44:56+0200</time>
      </trkpt>
      <trkpt lat="45.67019" lon="2.96448">
        <ele>967.227996</ele>
        <time>2021-07-07T09:45:00+0200</time>
      </trkpt>
      <trkpt lat="45.67018" lon="2.96441">
        <ele>967.661662</ele>
        <time>2021-07-07T09:45:02+0200</time>
      </trkpt>
      <trkpt lat="45.67016" lon="2.96433">
        <ele>967.6489</ele>
        <time>2021-07-07T09:45:04+0200</time>
      </trkpt>
      <trkpt lat="45.67016" lon="2.96425">
        <ele>968.186289</ele>
        <time>2021-07-07T09:45:07+0200</time>
      </trkpt>
      <trkpt lat="45.67015" lon="2.96418">
        <ele>969.007891</ele>
        <time>2021-07-07T09:45:09+0200</time>
      </trkpt>
      <trkpt lat="45.67015" lon="2.96411">
        <ele>969.933542</ele>
        <time>2021-07-07T09:45:11+0200</time>
      </trkpt>
      <trkpt lat="45.67014" lon="2.96403">
        <ele>970.506151</ele>
        <time>2021-07-07T09:45:13+0200</time>
      </trkpt>
      <trkpt lat="45.67015" lon="2.96393">
        <ele>971.823258</ele>
        <time>2021-07-07T09:45:16+0200</time>
      </trkpt>
      <trkpt lat="45.67014" lon="2.96384">
        <ele>973.01103</ele>
        <time>2021-07-07T09:45:18+0200</time>
      </trkpt>
      <trkpt lat="45.67014" lon="2.96376">
        <ele>973.010497</ele>
        <time>2021-07-07T09:45:20+0200</time>
      </trkpt>
      <trkpt lat="45.67015" lon="2.96367">
        <ele>972.964123</ele>
        <time>2021-07-07T09:45:22+0200</time>
      </trkpt>
      <trkpt lat="45.67013" lon="2.96358">
        <ele>973.257388</ele>
        <time>2021-07-07T09:45:24+0200</time>
      </trkpt>
      <trkpt lat="45.67013" lon="2.96351">
        <ele>972.842289</ele>
        <time>2021-07-07T09:45:26+0200</time>
      </trkpt>
      <trkpt lat="45.67013" lon="2.96343">
        <ele>972.304132</ele>
        <time>2021-07-07T09:45:28+0200</time>
      </trkpt>
      <trkpt lat="45.67014" lon="2.96335">
        <ele>972.146827</ele>
        <time>2021-07-07T09:45:31+0200</time>
      </trkpt>
      <trkpt lat="45.67016" lon="2.96328">
        <ele>972.289394</ele>
        <time>2021-07-07T09:45:33+0200</time>
      </trkpt>
      <trkpt lat="45.67018" lon="2.96318">
        <ele>972.054676</ele>
        <time>2021-07-07T09:45:35+0200</time>
      </trkpt>
      <trkpt lat="45.67021" lon="2.9631">
        <ele>972.194396</ele>
        <time>2021-07-07T09:45:37+0200</time>
      </trkpt>
      <trkpt lat="45.67022" lon="2.963">
        <ele>972.239206</ele>
        <time>2021-07-07T09:45:40+0200</time>
      </trkpt>
      <trkpt lat="45.67022" lon="2.96292">
        <ele>971.940616</ele>
        <time>2021-07-07T09:45:42+0200</time>
      </trkpt>
      <trkpt lat="45.67026" lon="2.96282">
        <ele>971.354068</ele>
        <time>2021-07-07T09:45:44+0200</time>
      </trkpt>
      <trkpt lat="45.67029" lon="2.96267">
        <ele>970.238807</ele>
        <time>2021-07-07T09:45:46+0200</time>
      </trkpt>
      <trkpt lat="45.67027" lon="2.96255">
        <ele>969.5785</ele>
        <time>2021-07-07T09:45:47+0200</time>
      </trkpt>
      <trkpt lat="45.67022" lon="2.96247">
        <ele>968.947447</ele>
        <time>2021-07-07T09:45:48+0200</time>
      </trkpt>
      <trkpt lat="45.6702" lon="2.96239">
        <ele>968.591068</ele>
        <time>2021-07-07T09:45:49+0200</time>
      </trkpt>
      <trkpt lat="45.67007" lon="2.96242">
        <ele>967.068753</ele>
        <time>2021-07-07T09:45:50+0200</time>
      </trkpt>
      <trkpt lat="45.66998" lon="2.96239">
        <ele>966.041124</ele>
        <time>2021-07-07T09:45:51+0200</time>
      </trkpt>
      <trkpt lat="45.66991" lon="2.96238">
        <ele>965.057503</ele>
        <time>2021-07-07T09:45:52+0200</time>
      </trkpt>
      <trkpt lat="45.66982" lon="2.96235">
        <ele>963.888829</ele>
        <time>2021-07-07T09:45:53+0200</time>
      </trkpt>
      <trkpt lat="45.66973" lon="2.9623">
        <ele>962.924418</ele>
        <time>2021-07-07T09:45:54+0200</time>
      </trkpt>
      <trkpt lat="45.66964" lon="2.96225">
        <ele>962.080123</ele>
        <time>2021-07-07T09:45:55+0200</time>
      </trkpt>
      <trkpt lat="45.66955" lon="2.96218">
        <ele>961.408704</ele>
        <time>2021-07-07T09:45:56+0200</time>
      </trkpt>
      <trkpt lat="45.66946" lon="2.96212">
        <ele>960.648764</ele>
        <time>2021-07-07T09:45:57+0200</time>
      </trkpt>
      <trkpt lat="45.66936" lon="2.96206">
        <ele>960.052027</ele>
        <time>2021-07-07T09:45:58+0200</time>
      </trkpt>
      <trkpt lat="45.66926" lon="2.96203">
        <ele>959.377677</ele>
        <time>2021-07-07T09:45:59+0200</time>
      </trkpt>
      <trkpt lat="45.66917" lon="2.962">
        <ele>958.797339</ele>
        <time>2021-07-07T09:46:00+0200</time>
      </trkpt>
      <trkpt lat="45.66908" lon="2.96198">
        <ele>958.424521</ele>
        <time>2021-07-07T09:46:01+0200</time>
      </trkpt>
      <trkpt lat="45.66899" lon="2.96197">
        <ele>958.180192</ele>
        <time>2021-07-07T09:46:02+0200</time>
      </trkpt>
      <trkpt lat="45.66894" lon="2.96195">
        <ele>958.101791</ele>
        <time>2021-07-07T09:46:03+0200</time>
      </trkpt>
      <trkpt lat="45.6689" lon="2.9619">
        <ele>958.032167</ele>
        <time>2021-07-07T09:46:04+0200</time>
      </trkpt>
      <trkpt lat="45.66892" lon="2.96182">
        <ele>958.468076</ele>
        <time>2021-07-07T09:46:06+0200</time>
      </trkpt>
      <trkpt lat="45.66897" lon="2.96175">
        <ele>959.032925</ele>
        <time>2021-07-07T09:46:08+0200</time>
      </trkpt>
      <trkpt lat="45.66901" lon="2.96169">
        <ele>959.347741</ele>
        <time>2021-07-07T09:46:10+0200</time>
      </trkpt>
      <trkpt lat="45.66906" lon="2.96161">
        <ele>959.689286</ele>
        <time>2021-07-07T09:46:12+0200</time>
      </trkpt>
      <trkpt lat="45.6691" lon="2.96153">
        <ele>959.922652</ele>
        <time>2021-07-07T09:46:14+0200</time>
      </trkpt>
      <trkpt lat="45.66915" lon="2.96145">
        <ele>960.205336</ele>
        <time>2021-07-07T09:46:16+0200</time>
      </trkpt>
      <trkpt lat="45.6692" lon="2.96137">
        <ele>960.435827</ele>
        <time>2021-07-07T09:46:18+0200</time>
      </trkpt>
      <trkpt lat="45.66924" lon="2.96129">
        <ele>960.578496</ele>
        <time>2021-07-07T09:46:20+0200</time>
      </trkpt>
      <trkpt lat="45.66929" lon="2.96121">
        <ele>960.952457</ele>
        <time>2021-07-07T09:46:22+0200</time>
      </trkpt>
      <trkpt lat="45.66934" lon="2.96113">
        <ele>961.334236</ele>
        <time>2021-07-07T09:46:24+0200</time>
      </trkpt>
      <trkpt lat="45.6694" lon="2.96108">
        <ele>962.678446</ele>
        <time>2021-07-07T09:46:25+0200</time>
      </trkpt>
      <trkpt lat="45.66945" lon="2.96101">
        <ele>963.019975</ele>
        <time>2021-07-07T09:46:27+0200</time>
      </trkpt>
      <trkpt lat="45.66949" lon="2.96095">
        <ele>963.300699</ele>
        <time>2021-07-07T09:46:29+0200</time>
      </trkpt>
      <trkpt lat="45.66952" lon="2.96088">
        <ele>963.706846</ele>
        <time>2021-07-07T09:46:31+0200</time>
      </trkpt>
      <trkpt lat="45.66956" lon="2.96081">
        <ele>963.748598</ele>
        <time>2021-07-07T09:46:33+0200</time>
      </trkpt>
      <trkpt lat="45.6696" lon="2.96075">
        <ele>963.829595</ele>
        <time>2021-07-07T09:46:35+0200</time>
      </trkpt>
      <trkpt lat="45.66965" lon="2.96067">
        <ele>963.93106</ele>
        <time>2021-07-07T09:46:37+0200</time>
      </trkpt>
      <trkpt lat="45.66968" lon="2.96059">
        <ele>964.510464</ele>
        <time>2021-07-07T09:46:39+0200</time>
      </trkpt>
      <trkpt lat="45.66973" lon="2.96051">
        <ele>964.902089</ele>
        <time>2021-07-07T09:46:41+0200</time>
      </trkpt>
      <trkpt lat="45.66977" lon="2.96042">
        <ele>964.70465</ele>
        <time>2021-07-07T09:46:43+0200</time>
      </trkpt>
      <trkpt lat="45.6698" lon="2.96035">
        <ele>964.595758</ele>
        <time>2021-07-07T09:46:45+0200</time>
      </trkpt>
      <trkpt lat="45.66984" lon="2.96026">
        <ele>964.581024</ele>
        <time>2021-07-07T09:46:47+0200</time>
      </trkpt>
      <trkpt lat="45.66988" lon="2.96019">
        <ele>964.632436</ele>
        <time>2021-07-07T09:46:49+0200</time>
      </trkpt>
      <trkpt lat="45.66991" lon="2.96011">
        <ele>965.059155</ele>
        <time>2021-07-07T09:46:51+0200</time>
      </trkpt>
      <trkpt lat="45.66995" lon="2.96003">
        <ele>965.441665</ele>
        <time>2021-07-07T09:46:53+0200</time>
      </trkpt>
      <trkpt lat="45.66999" lon="2.95995">
        <ele>965.406676</ele>
        <time>2021-07-07T09:46:55+0200</time>
      </trkpt>
      <trkpt lat="45.67003" lon="2.95987">
        <ele>965.650993</ele>
        <time>2021-07-07T09:46:57+0200</time>
      </trkpt>
      <trkpt lat="45.67007" lon="2.9598">
        <ele>965.908976</ele>
        <time>2021-07-07T09:46:59+0200</time>
      </trkpt>
      <trkpt lat="45.6701" lon="2.95972">
        <ele>966.354441</ele>
        <time>2021-07-07T09:47:01+0200</time>
      </trkpt>
      <trkpt lat="45.67015" lon="2.95965">
        <ele>966.645581</ele>
        <time>2021-07-07T09:47:03+0200</time>
      </trkpt>
      <trkpt lat="45.67019" lon="2.95958">
        <ele>967.067365</ele>
        <time>2021-07-07T09:47:05+0200</time>
      </trkpt>
      <trkpt lat="45.67022" lon="2.9595">
        <ele>967.265325</ele>
        <time>2021-07-07T09:47:07+0200</time>
      </trkpt>
      <trkpt lat="45.67026" lon="2.95942">
        <ele>967.766216</ele>
        <time>2021-07-07T09:47:09+0200</time>
      </trkpt>
      <trkpt lat="45.6703" lon="2.95933">
        <ele>968.331987</ele>
        <time>2021-07-07T09:47:11+0200</time>
      </trkpt>
      <trkpt lat="45.67034" lon="2.95927">
        <ele>968.593253</ele>
        <time>2021-07-07T09:47:13+0200</time>
      </trkpt>
      <trkpt lat="45.67037" lon="2.95921">
        <ele>968.867479</ele>
        <time>2021-07-07T09:47:15+0200</time>
      </trkpt>
      <trkpt lat="45.67041" lon="2.95915">
        <ele>969.374851</ele>
        <time>2021-07-07T09:47:17+0200</time>
      </trkpt>
      <trkpt lat="45.67045" lon="2.95908">
        <ele>969.722584</ele>
        <time>2021-07-07T09:47:19+0200</time>
      </trkpt>
      <trkpt lat="45.67049" lon="2.95902">
        <ele>969.686435</ele>
        <time>2021-07-07T09:47:21+0200</time>
      </trkpt>
      <trkpt lat="45.67053" lon="2.95894">
        <ele>969.992584</ele>
        <time>2021-07-07T09:47:23+0200</time>
      </trkpt>
      <trkpt lat="45.67056" lon="2.95886">
        <ele>969.873802</ele>
        <time>2021-07-07T09:47:25+0200</time>
      </trkpt>
      <trkpt lat="45.6706" lon="2.95878">
        <ele>969.676669</ele>
        <time>2021-07-07T09:47:27+0200</time>
      </trkpt>
      <trkpt lat="45.67063" lon="2.95871">
        <ele>969.392894</ele>
        <time>2021-07-07T09:47:29+0200</time>
      </trkpt>
      <trkpt lat="45.67067" lon="2.95864">
        <ele>969.25936</ele>
        <time>2021-07-07T09:47:31+0200</time>
      </trkpt>
      <trkpt lat="45.67071" lon="2.95857">
        <ele>969.451031</ele>
        <time>2021-07-07T09:47:33+0200</time>
      </trkpt>
      <trkpt lat="45.67074" lon="2.95849">
        <ele>969.341796</ele>
        <time>2021-07-07T09:47:35+0200</time>
      </trkpt>
      <trkpt lat="45.67078" lon="2.95842">
        <ele>969.920436</ele>
        <time>2021-07-07T09:47:37+0200</time>
      </trkpt>
      <trkpt lat="45.67081" lon="2.95834">
        <ele>970.403682</ele>
        <time>2021-07-07T09:47:39+0200</time>
      </trkpt>
      <trkpt lat="45.67084" lon="2.95826">
        <ele>970.595491</ele>
        <time>2021-07-07T09:47:41+0200</time>
      </trkpt>
      <trkpt lat="45.67087" lon="2.95818">
        <ele>970.831084</ele>
        <time>2021-07-07T09:47:43+0200</time>
      </trkpt>
      <trkpt lat="45.67088" lon="2.95811">
        <ele>970.831177</ele>
        <time>2021-07-07T09:47:45+0200</time>
      </trkpt>
      <trkpt lat="45.67091" lon="2.95803">
        <ele>971.300243</ele>
        <time>2021-07-07T09:47:47+0200</time>
      </trkpt>
      <trkpt lat="45.67094" lon="2.95793">
        <ele>972.139839</ele>
        <time>2021-07-07T09:47:49+0200</time>
      </trkpt>
      <trkpt lat="45.67096" lon="2.95785">
        <ele>972.148552</ele>
        <time>2021-07-07T09:47:51+0200</time>
      </trkpt>
      <trkpt lat="45.67099" lon="2.95776">
        <ele>972.64667</ele>
        <time>2021-07-07T09:47:53+0200</time>
      </trkpt>
      <trkpt lat="45.67101" lon="2.95766">
        <ele>973.061034</ele>
        <time>2021-07-07T09:47:55+0200</time>
      </trkpt>
      <trkpt lat="45.67104" lon="2.95757">
        <ele>973.289251</ele>
        <time>2021-07-07T09:47:57+0200</time>
      </trkpt>
      <trkpt lat="45.67106" lon="2.95747">
        <ele>973.44515</ele>
        <time>2021-07-07T09:47:59+0200</time>
      </trkpt>
      <trkpt lat="45.67109" lon="2.9574">
        <ele>973.558636</ele>
        <time>2021-07-07T09:48:01+0200</time>
      </trkpt>
      <trkpt lat="45.67112" lon="2.95734">
        <ele>973.911382</ele>
        <time>2021-07-07T09:48:03+0200</time>
      </trkpt>
      <trkpt lat="45.67114" lon="2.95727">
        <ele>974.141465</ele>
        <time>2021-07-07T09:48:05+0200</time>
      </trkpt>
      <trkpt lat="45.67116" lon="2.9572">
        <ele>974.289529</ele>
        <time>2021-07-07T09:48:07+0200</time>
      </trkpt>
      <trkpt lat="45.67118" lon="2.95713">
        <ele>973.965797</ele>
        <time>2021-07-07T09:48:09+0200</time>
      </trkpt>
      <trkpt lat="45.67122" lon="2.95706">
        <ele>974.928733</ele>
        <time>2021-07-07T09:48:11+0200</time>
      </trkpt>
      <trkpt lat="45.67126" lon="2.95699">
        <ele>975.436542</ele>
        <time>2021-07-07T09:48:13+0200</time>
      </trkpt>
      <trkpt lat="45.6713" lon="2.9569">
        <ele>975.65217</ele>
        <time>2021-07-07T09:48:15+0200</time>
      </trkpt>
      <trkpt lat="45.67135" lon="2.95682">
        <ele>975.466818</ele>
        <time>2021-07-07T09:48:17+0200</time>
      </trkpt>
      <trkpt lat="45.6714" lon="2.95674">
        <ele>975.672411</ele>
        <time>2021-07-07T09:48:19+0200</time>
      </trkpt>
      <trkpt lat="45.67143" lon="2.95666">
        <ele>976.240002</ele>
        <time>2021-07-07T09:48:21+0200</time>
      </trkpt>
      <trkpt lat="45.67148" lon="2.95659">
        <ele>977.119822</ele>
        <time>2021-07-07T09:48:23+0200</time>
      </trkpt>
      <trkpt lat="45.67152" lon="2.95651">
        <ele>977.889609</ele>
        <time>2021-07-07T09:48:25+0200</time>
      </trkpt>
      <trkpt lat="45.67156" lon="2.95645">
        <ele>978.114473</ele>
        <time>2021-07-07T09:48:27+0200</time>
      </trkpt>
      <trkpt lat="45.6716" lon="2.95637">
        <ele>978.318344</ele>
        <time>2021-07-07T09:48:29+0200</time>
      </trkpt>
      <trkpt lat="45.67165" lon="2.9563">
        <ele>978.831814</ele>
        <time>2021-07-07T09:48:31+0200</time>
      </trkpt>
      <trkpt lat="45.67169" lon="2.95623">
        <ele>979.13871</ele>
        <time>2021-07-07T09:48:33+0200</time>
      </trkpt>
      <trkpt lat="45.67173" lon="2.95615">
        <ele>979.530794</ele>
        <time>2021-07-07T09:48:35+0200</time>
      </trkpt>
      <trkpt lat="45.67178" lon="2.95608">
        <ele>979.795121</ele>
        <time>2021-07-07T09:48:37+0200</time>
      </trkpt>
      <trkpt lat="45.67182" lon="2.956">
        <ele>980.054563</ele>
        <time>2021-07-07T09:48:39+0200</time>
      </trkpt>
      <trkpt lat="45.67185" lon="2.95592">
        <ele>979.908235</ele>
        <time>2021-07-07T09:48:41+0200</time>
      </trkpt>
      <trkpt lat="45.6719" lon="2.95585">
        <ele>979.817303</ele>
        <time>2021-07-07T09:48:43+0200</time>
      </trkpt>
      <trkpt lat="45.67194" lon="2.95577">
        <ele>979.524181</ele>
        <time>2021-07-07T09:48:45+0200</time>
      </trkpt>
      <trkpt lat="45.67199" lon="2.95569">
        <ele>979.730133</ele>
        <time>2021-07-07T09:48:47+0200</time>
      </trkpt>
      <trkpt lat="45.67203" lon="2.9556">
        <ele>979.681735</ele>
        <time>2021-07-07T09:48:49+0200</time>
      </trkpt>
      <trkpt lat="45.67208" lon="2.95552">
        <ele>979.712789</ele>
        <time>2021-07-07T09:48:51+0200</time>
      </trkpt>
      <trkpt lat="45.67213" lon="2.95542">
        <ele>979.73157</ele>
        <time>2021-07-07T09:48:53+0200</time>
      </trkpt>
      <trkpt lat="45.67218" lon="2.95533">
        <ele>979.819695</ele>
        <time>2021-07-07T09:48:55+0200</time>
      </trkpt>
      <trkpt lat="45.67223" lon="2.95524">
        <ele>979.895816</ele>
        <time>2021-07-07T09:48:57+0200</time>
      </trkpt>
      <trkpt lat="45.67228" lon="2.95514">
        <ele>980.065753</ele>
        <time>2021-07-07T09:48:59+0200</time>
      </trkpt>
      <trkpt lat="45.67233" lon="2.95505">
        <ele>980.223231</ele>
        <time>2021-07-07T09:49:01+0200</time>
      </trkpt>
      <trkpt lat="45.67237" lon="2.95495">
        <ele>980.371494</ele>
        <time>2021-07-07T09:49:03+0200</time>
      </trkpt>
      <trkpt lat="45.67241" lon="2.95484">
        <ele>980.576693</ele>
        <time>2021-07-07T09:49:05+0200</time>
      </trkpt>
      <trkpt lat="45.67245" lon="2.95474">
        <ele>980.710295</ele>
        <time>2021-07-07T09:49:07+0200</time>
      </trkpt>
      <trkpt lat="45.67249" lon="2.95464">
        <ele>980.71642</ele>
        <time>2021-07-07T09:49:09+0200</time>
      </trkpt>
      <trkpt lat="45.67253" lon="2.95454">
        <ele>981.192807</ele>
        <time>2021-07-07T09:49:11+0200</time>
      </trkpt>
      <trkpt lat="45.67257" lon="2.95443">
        <ele>981.185532</ele>
        <time>2021-07-07T09:49:13+0200</time>
      </trkpt>
      <trkpt lat="45.67261" lon="2.95434">
        <ele>980.979095</ele>
        <time>2021-07-07T09:49:15+0200</time>
      </trkpt>
      <trkpt lat="45.67265" lon="2.95425">
        <ele>980.889943</ele>
        <time>2021-07-07T09:49:17+0200</time>
      </trkpt>
      <trkpt lat="45.67269" lon="2.95416">
        <ele>980.885171</ele>
        <time>2021-07-07T09:49:19+0200</time>
      </trkpt>
      <trkpt lat="45.67272" lon="2.95409">
        <ele>980.831808</ele>
        <time>2021-07-07T09:49:21+0200</time>
      </trkpt>
      <trkpt lat="45.67276" lon="2.95401">
        <ele>980.528517</ele>
        <time>2021-07-07T09:49:23+0200</time>
      </trkpt>
      <trkpt lat="45.67281" lon="2.95393">
        <ele>980.289684</ele>
        <time>2021-07-07T09:49:25+0200</time>
      </trkpt>
      <trkpt lat="45.67285" lon="2.95385">
        <ele>980.106456</ele>
        <time>2021-07-07T09:49:27+0200</time>
      </trkpt>
      <trkpt lat="45.67289" lon="2.95377">
        <ele>979.953038</ele>
        <time>2021-07-07T09:49:29+0200</time>
      </trkpt>
      <trkpt lat="45.67293" lon="2.9537">
        <ele>979.930828</ele>
        <time>2021-07-07T09:49:31+0200</time>
      </trkpt>
      <trkpt lat="45.67297" lon="2.95361">
        <ele>980.004341</ele>
        <time>2021-07-07T09:49:33+0200</time>
      </trkpt>
      <trkpt lat="45.67301" lon="2.95353">
        <ele>979.867054</ele>
        <time>2021-07-07T09:49:35+0200</time>
      </trkpt>
      <trkpt lat="45.67305" lon="2.95345">
        <ele>979.510163</ele>
        <time>2021-07-07T09:49:37+0200</time>
      </trkpt>
      <trkpt lat="45.67309" lon="2.95338">
        <ele>979.41631</ele>
        <time>2021-07-07T09:49:39+0200</time>
      </trkpt>
      <trkpt lat="45.67312" lon="2.95331">
        <ele>978.984774</ele>
        <time>2021-07-07T09:49:41+0200</time>
      </trkpt>
      <trkpt lat="45.67309" lon="2.95325">
        <ele>978.775331</ele>
        <time>2021-07-07T09:49:43+0200</time>
      </trkpt>
      <trkpt lat="45.67304" lon="2.95323">
        <ele>978.977473</ele>
        <time>2021-07-07T09:49:52+0200</time>
      </trkpt>
      <trkpt lat="45.67304" lon="2.95316">
        <ele>980.379172</ele>
        <time>2021-07-07T09:51:08+0200</time>
      </trkpt>
      <trkpt lat="45.673" lon="2.95312">
        <ele>980.960952</ele>
        <time>2021-07-07T09:51:10+0200</time>
      </trkpt>
      <trkpt lat="45.67294" lon="2.95309">
        <ele>981.065652</ele>
        <time>2021-07-07T09:51:12+0200</time>
      </trkpt>
      <trkpt lat="45.67289" lon="2.95307">
        <ele>981.001739</ele>
        <time>2021-07-07T09:51:14+0200</time>
      </trkpt>
      <trkpt lat="45.67284" lon="2.95303">
        <ele>981.607236</ele>
        <time>2021-07-07T09:51:16+0200</time>
      </trkpt>
      <trkpt lat="45.67278" lon="2.953">
        <ele>981.728856</ele>
        <time>2021-07-07T09:51:18+0200</time>
      </trkpt>
      <trkpt lat="45.67272" lon="2.95296">
        <ele>981.907285</ele>
        <time>2021-07-07T09:51:20+0200</time>
      </trkpt>
      <trkpt lat="45.67267" lon="2.95291">
        <ele>982.046365</ele>
        <time>2021-07-07T09:51:22+0200</time>
      </trkpt>
      <trkpt lat="45.67261" lon="2.95288">
        <ele>982.094036</ele>
        <time>2021-07-07T09:51:24+0200</time>
      </trkpt>
      <trkpt lat="45.67255" lon="2.95283">
        <ele>982.319459</ele>
        <time>2021-07-07T09:51:26+0200</time>
      </trkpt>
      <trkpt lat="45.6725" lon="2.95279">
        <ele>982.616781</ele>
        <time>2021-07-07T09:51:28+0200</time>
      </trkpt>
      <trkpt lat="45.67244" lon="2.95274">
        <ele>983.325855</ele>
        <time>2021-07-07T09:51:30+0200</time>
      </trkpt>
      <trkpt lat="45.67239" lon="2.9527">
        <ele>983.738961</ele>
        <time>2021-07-07T09:51:32+0200</time>
      </trkpt>
      <trkpt lat="45.67234" lon="2.95265">
        <ele>984.061577</ele>
        <time>2021-07-07T09:51:34+0200</time>
      </trkpt>
      <trkpt lat="45.67229" lon="2.9526">
        <ele>984.493854</ele>
        <time>2021-07-07T09:51:36+0200</time>
      </trkpt>
      <trkpt lat="45.67223" lon="2.95257">
        <ele>984.92669</ele>
        <time>2021-07-07T09:51:38+0200</time>
      </trkpt>
      <trkpt lat="45.67218" lon="2.95253">
        <ele>985.442128</ele>
        <time>2021-07-07T09:51:40+0200</time>
      </trkpt>
      <trkpt lat="45.67213" lon="2.95249">
        <ele>985.893438</ele>
        <time>2021-07-07T09:51:42+0200</time>
      </trkpt>
      <trkpt lat="45.67208" lon="2.95244">
        <ele>987.007728</ele>
        <time>2021-07-07T09:51:44+0200</time>
      </trkpt>
      <trkpt lat="45.67204" lon="2.95241">
        <ele>986.698539</ele>
        <time>2021-07-07T09:51:46+0200</time>
      </trkpt>
      <trkpt lat="45.67199" lon="2.95239">
        <ele>986.48664</ele>
        <time>2021-07-07T09:51:48+0200</time>
      </trkpt>
      <trkpt lat="45.67194" lon="2.95235">
        <ele>986.677854</ele>
        <time>2021-07-07T09:51:50+0200</time>
      </trkpt>
      <trkpt lat="45.6719" lon="2.95231">
        <ele>987.049187</ele>
        <time>2021-07-07T09:51:52+0200</time>
      </trkpt>
      <trkpt lat="45.67186" lon="2.95226">
        <ele>987.517447</ele>
        <time>2021-07-07T09:51:54+0200</time>
      </trkpt>
      <trkpt lat="45.67182" lon="2.95222">
        <ele>987.566238</ele>
        <time>2021-07-07T09:51:56+0200</time>
      </trkpt>
      <trkpt lat="45.67177" lon="2.95219">
        <ele>987.882351</ele>
        <time>2021-07-07T09:51:58+0200</time>
      </trkpt>
      <trkpt lat="45.67173" lon="2.95215">
        <ele>988.344005</ele>
        <time>2021-07-07T09:52:00+0200</time>
      </trkpt>
      <trkpt lat="45.67167" lon="2.9521">
        <ele>988.408259</ele>
        <time>2021-07-07T09:52:02+0200</time>
      </trkpt>
      <trkpt lat="45.67162" lon="2.95207">
        <ele>988.922176</ele>
        <time>2021-07-07T09:52:04+0200</time>
      </trkpt>
      <trkpt lat="45.67158" lon="2.95203">
        <ele>989.022959</ele>
        <time>2021-07-07T09:52:06+0200</time>
      </trkpt>
      <trkpt lat="45.67154" lon="2.95199">
        <ele>989.479456</ele>
        <time>2021-07-07T09:52:08+0200</time>
      </trkpt>
      <trkpt lat="45.67148" lon="2.95195">
        <ele>989.816929</ele>
        <time>2021-07-07T09:52:11+0200</time>
      </trkpt>
      <trkpt lat="45.67144" lon="2.95192">
        <ele>990.510554</ele>
        <time>2021-07-07T09:52:13+0200</time>
      </trkpt>
      <trkpt lat="45.67139" lon="2.9519">
        <ele>990.767675</ele>
        <time>2021-07-07T09:52:15+0200</time>
      </trkpt>
      <trkpt lat="45.67135" lon="2.95188">
        <ele>990.609273</ele>
        <time>2021-07-07T09:52:17+0200</time>
      </trkpt>
      <trkpt lat="45.67129" lon="2.95183">
        <ele>991.435932</ele>
        <time>2021-07-07T09:52:20+0200</time>
      </trkpt>
      <trkpt lat="45.67125" lon="2.95179">
        <ele>991.798241</ele>
        <time>2021-07-07T09:52:22+0200</time>
      </trkpt>
      <trkpt lat="45.67121" lon="2.95175">
        <ele>992.089638</ele>
        <time>2021-07-07T09:52:24+0200</time>
      </trkpt>
      <trkpt lat="45.67117" lon="2.95172">
        <ele>992.052103</ele>
        <time>2021-07-07T09:52:26+0200</time>
      </trkpt>
      <trkpt lat="45.6711" lon="2.95169">
        <ele>991.710214</ele>
        <time>2021-07-07T09:52:29+0200</time>
      </trkpt>
      <trkpt lat="45.67105" lon="2.95165">
        <ele>992.63876</ele>
        <time>2021-07-07T09:52:32+0200</time>
      </trkpt>
      <trkpt lat="45.671" lon="2.95161">
        <ele>993.387764</ele>
        <time>2021-07-07T09:52:35+0200</time>
      </trkpt>
      <trkpt lat="45.67095" lon="2.95158">
        <ele>993.871481</ele>
        <time>2021-07-07T09:52:38+0200</time>
      </trkpt>
      <trkpt lat="45.67091" lon="2.95155">
        <ele>994.239656</ele>
        <time>2021-07-07T09:52:40+0200</time>
      </trkpt>
      <trkpt lat="45.67087" lon="2.95151">
        <ele>994.591986</ele>
        <time>2021-07-07T09:52:42+0200</time>
      </trkpt>
      <trkpt lat="45.67082" lon="2.95148">
        <ele>994.695763</ele>
        <time>2021-07-07T09:52:44+0200</time>
      </trkpt>
      <trkpt lat="45.67078" lon="2.95142">
        <ele>995.546436</ele>
        <time>2021-07-07T09:52:47+0200</time>
      </trkpt>
      <trkpt lat="45.67073" lon="2.95137">
        <ele>995.82837</ele>
        <time>2021-07-07T09:52:50+0200</time>
      </trkpt>
      <trkpt lat="45.67069" lon="2.95131">
        <ele>996.37098</ele>
        <time>2021-07-07T09:52:53+0200</time>
      </trkpt>
      <trkpt lat="45.67065" lon="2.95127">
        <ele>997.94953</ele>
        <time>2021-07-07T09:53:02+0200</time>
      </trkpt>
      <trkpt lat="45.6706" lon="2.95122">
        <ele>998.217222</ele>
        <time>2021-07-07T09:53:04+0200</time>
      </trkpt>
      <trkpt lat="45.67055" lon="2.95119">
        <ele>999.007885</ele>
        <time>2021-07-07T09:53:08+0200</time>
      </trkpt>
      <trkpt lat="45.67049" lon="2.95117">
        <ele>999.143481</ele>
        <time>2021-07-07T09:53:10+0200</time>
      </trkpt>
      <trkpt lat="45.67043" lon="2.95115">
        <ele>999.731584</ele>
        <time>2021-07-07T09:53:13+0200</time>
      </trkpt>
      <trkpt lat="45.67036" lon="2.95114">
        <ele>1000.453139</ele>
        <time>2021-07-07T09:53:16+0200</time>
      </trkpt>
      <trkpt lat="45.67031" lon="2.95115">
        <ele>1000.972659</ele>
        <time>2021-07-07T09:53:19+0200</time>
      </trkpt>
      <trkpt lat="45.67025" lon="2.95119">
        <ele>1001.359608</ele>
        <time>2021-07-07T09:53:22+0200</time>
      </trkpt>
      <trkpt lat="45.67021" lon="2.95126">
        <ele>1001.948557</ele>
        <time>2021-07-07T09:53:25+0200</time>
      </trkpt>
      <trkpt lat="45.67017" lon="2.95129">
        <ele>1002.343793</ele>
        <time>2021-07-07T09:53:27+0200</time>
      </trkpt>
      <trkpt lat="45.67013" lon="2.95132">
        <ele>1002.364336</ele>
        <time>2021-07-07T09:53:29+0200</time>
      </trkpt>
      <trkpt lat="45.67009" lon="2.95135">
        <ele>1002.818378</ele>
        <time>2021-07-07T09:53:31+0200</time>
      </trkpt>
      <trkpt lat="45.67005" lon="2.9514">
        <ele>1002.886515</ele>
        <time>2021-07-07T09:53:33+0200</time>
      </trkpt>
      <trkpt lat="45.67002" lon="2.95145">
        <ele>1003.524887</ele>
        <time>2021-07-07T09:53:35+0200</time>
      </trkpt>
      <trkpt lat="45.66996" lon="2.95148">
        <ele>1004.099178</ele>
        <time>2021-07-07T09:53:38+0200</time>
      </trkpt>
      <trkpt lat="45.66991" lon="2.95152">
        <ele>1004.920952</ele>
        <time>2021-07-07T09:53:41+0200</time>
      </trkpt>
      <trkpt lat="45.66986" lon="2.95159">
        <ele>1005.835161</ele>
        <time>2021-07-07T09:53:44+0200</time>
      </trkpt>
      <trkpt lat="45.66982" lon="2.95166">
        <ele>1006.073432</ele>
        <time>2021-07-07T09:53:47+0200</time>
      </trkpt>
      <trkpt lat="45.66978" lon="2.9517">
        <ele>1005.580782</ele>
        <time>2021-07-07T09:53:49+0200</time>
      </trkpt>
      <trkpt lat="45.66974" lon="2.95173">
        <ele>1005.075109</ele>
        <time>2021-07-07T09:53:51+0200</time>
      </trkpt>
      <trkpt lat="45.6697" lon="2.95179">
        <ele>1005.456787</ele>
        <time>2021-07-07T09:53:54+0200</time>
      </trkpt>
      <trkpt lat="45.66967" lon="2.95183">
        <ele>1006.056738</ele>
        <time>2021-07-07T09:53:56+0200</time>
      </trkpt>
      <trkpt lat="45.66963" lon="2.95189">
        <ele>1006.31448</ele>
        <time>2021-07-07T09:53:58+0200</time>
      </trkpt>
      <trkpt lat="45.6696" lon="2.95193">
        <ele>1006.19698</ele>
        <time>2021-07-07T09:54:00+0200</time>
      </trkpt>
      <trkpt lat="45.66955" lon="2.95195">
        <ele>1006.372368</ele>
        <time>2021-07-07T09:54:02+0200</time>
      </trkpt>
      <trkpt lat="45.66951" lon="2.95198">
        <ele>1006.51168</ele>
        <time>2021-07-07T09:54:04+0200</time>
      </trkpt>
      <trkpt lat="45.66945" lon="2.95204">
        <ele>1007.253343</ele>
        <time>2021-07-07T09:54:07+0200</time>
      </trkpt>
      <trkpt lat="45.66942" lon="2.95208">
        <ele>1007.433702</ele>
        <time>2021-07-07T09:54:09+0200</time>
      </trkpt>
      <trkpt lat="45.66936" lon="2.95213">
        <ele>1007.777226</ele>
        <time>2021-07-07T09:54:12+0200</time>
      </trkpt>
      <trkpt lat="45.66932" lon="2.9522">
        <ele>1008.570167</ele>
        <time>2021-07-07T09:54:15+0200</time>
      </trkpt>
      <trkpt lat="45.66928" lon="2.95224">
        <ele>1008.787427</ele>
        <time>2021-07-07T09:54:17+0200</time>
      </trkpt>
      <trkpt lat="45.66923" lon="2.95228">
        <ele>1009.222399</ele>
        <time>2021-07-07T09:54:20+0200</time>
      </trkpt>
      <trkpt lat="45.66917" lon="2.95234">
        <ele>1009.150483</ele>
        <time>2021-07-07T09:54:23+0200</time>
      </trkpt>
      <trkpt lat="45.66913" lon="2.95239">
        <ele>1009.312387</ele>
        <time>2021-07-07T09:54:26+0200</time>
      </trkpt>
      <trkpt lat="45.66908" lon="2.95243">
        <ele>1009.415332</ele>
        <time>2021-07-07T09:54:30+0200</time>
      </trkpt>
      <trkpt lat="45.66902" lon="2.95247">
        <ele>1009.777582</ele>
        <time>2021-07-07T09:54:33+0200</time>
      </trkpt>
      <trkpt lat="45.66898" lon="2.9525">
        <ele>1009.665895</ele>
        <time>2021-07-07T09:54:35+0200</time>
      </trkpt>
      <trkpt lat="45.66893" lon="2.95255">
        <ele>1009.674187</ele>
        <time>2021-07-07T09:54:38+0200</time>
      </trkpt>
      <trkpt lat="45.66887" lon="2.95257">
        <ele>1009.938451</ele>
        <time>2021-07-07T09:54:41+0200</time>
      </trkpt>
      <trkpt lat="45.66881" lon="2.95261">
        <ele>1010.30024</ele>
        <time>2021-07-07T09:54:44+0200</time>
      </trkpt>
      <trkpt lat="45.66876" lon="2.95266">
        <ele>1010.893307</ele>
        <time>2021-07-07T09:54:47+0200</time>
      </trkpt>
      <trkpt lat="45.6687" lon="2.9527">
        <ele>1011.591141</ele>
        <time>2021-07-07T09:54:50+0200</time>
      </trkpt>
      <trkpt lat="45.66866" lon="2.95273">
        <ele>1012.198851</ele>
        <time>2021-07-07T09:54:52+0200</time>
      </trkpt>
      <trkpt lat="45.66862" lon="2.95277">
        <ele>1013.008768</ele>
        <time>2021-07-07T09:54:54+0200</time>
      </trkpt>
      <trkpt lat="45.66857" lon="2.95281">
        <ele>1013.569087</ele>
        <time>2021-07-07T09:54:57+0200</time>
      </trkpt>
      <trkpt lat="45.66852" lon="2.95286">
        <ele>1013.70217</ele>
        <time>2021-07-07T09:55:00+0200</time>
      </trkpt>
      <trkpt lat="45.66847" lon="2.95289">
        <ele>1014.295424</ele>
        <time>2021-07-07T09:55:03+0200</time>
      </trkpt>
      <trkpt lat="45.66841" lon="2.95292">
        <ele>1015.532154</ele>
        <time>2021-07-07T09:55:06+0200</time>
      </trkpt>
      <trkpt lat="45.66836" lon="2.95297">
        <ele>1015.94181</ele>
        <time>2021-07-07T09:55:09+0200</time>
      </trkpt>
      <trkpt lat="45.66831" lon="2.95299">
        <ele>1016.591918</ele>
        <time>2021-07-07T09:55:11+0200</time>
      </trkpt>
      <trkpt lat="45.66824" lon="2.953">
        <ele>1017.31735</ele>
        <time>2021-07-07T09:55:14+0200</time>
      </trkpt>
      <trkpt lat="45.66819" lon="2.95303">
        <ele>1018.507444</ele>
        <time>2021-07-07T09:55:17+0200</time>
      </trkpt>
      <trkpt lat="45.66814" lon="2.95306">
        <ele>1019.888019</ele>
        <time>2021-07-07T09:55:20+0200</time>
      </trkpt>
      <trkpt lat="45.6681" lon="2.95311">
        <ele>1020.256653</ele>
        <time>2021-07-07T09:55:23+0200</time>
      </trkpt>
      <trkpt lat="45.66804" lon="2.95312">
        <ele>1020.724457</ele>
        <time>2021-07-07T09:55:26+0200</time>
      </trkpt>
      <trkpt lat="45.668" lon="2.95316">
        <ele>1020.920841</ele>
        <time>2021-07-07T09:55:28+0200</time>
      </trkpt>
      <trkpt lat="45.66795" lon="2.9532">
        <ele>1021.596719</ele>
        <time>2021-07-07T09:55:31+0200</time>
      </trkpt>
      <trkpt lat="45.66791" lon="2.95322">
        <ele>1022.291706</ele>
        <time>2021-07-07T09:55:33+0200</time>
      </trkpt>
      <trkpt lat="45.66786" lon="2.95326">
        <ele>1022.870267</ele>
        <time>2021-07-07T09:55:36+0200</time>
      </trkpt>
      <trkpt lat="45.66779" lon="2.9533">
        <ele>1023.666439</ele>
        <time>2021-07-07T09:55:39+0200</time>
      </trkpt>
      <trkpt lat="45.66773" lon="2.95331">
        <ele>1024.870951</ele>
        <time>2021-07-07T09:55:42+0200</time>
      </trkpt>
      <trkpt lat="45.66768" lon="2.95335">
        <ele>1026.066852</ele>
        <time>2021-07-07T09:55:45+0200</time>
      </trkpt>
      <trkpt lat="45.66762" lon="2.95337">
        <ele>1026.877877</ele>
        <time>2021-07-07T09:55:48+0200</time>
      </trkpt>
      <trkpt lat="45.66757" lon="2.95337">
        <ele>1027.131126</ele>
        <time>2021-07-07T09:55:50+0200</time>
      </trkpt>
      <trkpt lat="45.66752" lon="2.95338">
        <ele>1028.458888</ele>
        <time>2021-07-07T09:55:53+0200</time>
      </trkpt>
      <trkpt lat="45.66745" lon="2.95337">
        <ele>1029.385168</ele>
        <time>2021-07-07T09:55:56+0200</time>
      </trkpt>
      <trkpt lat="45.66738" lon="2.95337">
        <ele>1031.042087</ele>
        <time>2021-07-07T09:55:59+0200</time>
      </trkpt>
      <trkpt lat="45.66732" lon="2.95337">
        <ele>1031.889211</ele>
        <time>2021-07-07T09:56:02+0200</time>
      </trkpt>
      <trkpt lat="45.66726" lon="2.95338">
        <ele>1033.18895</ele>
        <time>2021-07-07T09:56:05+0200</time>
      </trkpt>
      <trkpt lat="45.6672" lon="2.95336">
        <ele>1034.184793</ele>
        <time>2021-07-07T09:56:08+0200</time>
      </trkpt>
      <trkpt lat="45.66714" lon="2.95333">
        <ele>1034.568182</ele>
        <time>2021-07-07T09:56:10+0200</time>
      </trkpt>
      <trkpt lat="45.66708" lon="2.95333">
        <ele>1035.111301</ele>
        <time>2021-07-07T09:56:13+0200</time>
      </trkpt>
      <trkpt lat="45.66704" lon="2.95331">
        <ele>1035.562884</ele>
        <time>2021-07-07T09:56:15+0200</time>
      </trkpt>
      <trkpt lat="45.66698" lon="2.95331">
        <ele>1036.211945</ele>
        <time>2021-07-07T09:56:18+0200</time>
      </trkpt>
      <trkpt lat="45.66693" lon="2.95329">
        <ele>1036.275335</ele>
        <time>2021-07-07T09:56:20+0200</time>
      </trkpt>
      <trkpt lat="45.66687" lon="2.95329">
        <ele>1036.463404</ele>
        <time>2021-07-07T09:56:22+0200</time>
      </trkpt>
      <trkpt lat="45.66682" lon="2.95329">
        <ele>1036.437087</ele>
        <time>2021-07-07T09:56:24+0200</time>
      </trkpt>
      <trkpt lat="45.66675" lon="2.95328">
        <ele>1036.778573</ele>
        <time>2021-07-07T09:56:27+0200</time>
      </trkpt>
      <trkpt lat="45.66669" lon="2.95326">
        <ele>1036.417484</ele>
        <time>2021-07-07T09:56:30+0200</time>
      </trkpt>
      <trkpt lat="45.66664" lon="2.95325">
        <ele>1035.963858</ele>
        <time>2021-07-07T09:56:32+0200</time>
      </trkpt>
      <trkpt lat="45.66658" lon="2.95321">
        <ele>1036.131151</ele>
        <time>2021-07-07T09:56:35+0200</time>
      </trkpt>
      <trkpt lat="45.66653" lon="2.95317">
        <ele>1036.307177</ele>
        <time>2021-07-07T09:56:38+0200</time>
      </trkpt>
      <trkpt lat="45.66647" lon="2.95314">
        <ele>1036.567893</ele>
        <time>2021-07-07T09:56:42+0200</time>
      </trkpt>
      <trkpt lat="45.66652" lon="2.95311">
        <ele>1036.636138</ele>
        <time>2021-07-07T09:57:41+0200</time>
      </trkpt>
      <trkpt lat="45.66647" lon="2.95314">
        <ele>1036.40182</ele>
        <time>2021-07-07T09:58:45+0200</time>
      </trkpt>
      <trkpt lat="45.66642" lon="2.95311">
        <ele>1036.428786</ele>
        <time>2021-07-07T10:00:08+0200</time>
      </trkpt>
      <trkpt lat="45.66638" lon="2.95308">
        <ele>1036.456051</ele>
        <time>2021-07-07T10:00:10+0200</time>
      </trkpt>
      <trkpt lat="45.66633" lon="2.95306">
        <ele>1036.483233</ele>
        <time>2021-07-07T10:00:12+0200</time>
      </trkpt>
      <trkpt lat="45.66627" lon="2.95302">
        <ele>1036.762046</ele>
        <time>2021-07-07T10:00:14+0200</time>
      </trkpt>
      <trkpt lat="45.66622" lon="2.95299">
        <ele>1037.032998</ele>
        <time>2021-07-07T10:00:16+0200</time>
      </trkpt>
      <trkpt lat="45.66618" lon="2.95296">
        <ele>1036.977435</ele>
        <time>2021-07-07T10:00:18+0200</time>
      </trkpt>
      <trkpt lat="45.66614" lon="2.95293">
        <ele>1037.435323</ele>
        <time>2021-07-07T10:00:20+0200</time>
      </trkpt>
      <trkpt lat="45.66609" lon="2.9529">
        <ele>1037.199571</ele>
        <time>2021-07-07T10:00:22+0200</time>
      </trkpt>
      <trkpt lat="45.66603" lon="2.95287">
        <ele>1037.702882</ele>
        <time>2021-07-07T10:00:24+0200</time>
      </trkpt>
      <trkpt lat="45.66598" lon="2.95284">
        <ele>1038.286799</ele>
        <time>2021-07-07T10:00:26+0200</time>
      </trkpt>
      <trkpt lat="45.66594" lon="2.95281">
        <ele>1038.719449</ele>
        <time>2021-07-07T10:00:28+0200</time>
      </trkpt>
      <trkpt lat="45.66589" lon="2.95278">
        <ele>1038.525099</ele>
        <time>2021-07-07T10:00:30+0200</time>
      </trkpt>
      <trkpt lat="45.66584" lon="2.95274">
        <ele>1038.620597</ele>
        <time>2021-07-07T10:00:32+0200</time>
      </trkpt>
      <trkpt lat="45.6658" lon="2.95267">
        <ele>1038.670023</ele>
        <time>2021-07-07T10:00:34+0200</time>
      </trkpt>
      <trkpt lat="45.66575" lon="2.95262">
        <ele>1038.561844</ele>
        <time>2021-07-07T10:00:36+0200</time>
      </trkpt>
      <trkpt lat="45.6657" lon="2.95256">
        <ele>1038.514758</ele>
        <time>2021-07-07T10:00:38+0200</time>
      </trkpt>
      <trkpt lat="45.66565" lon="2.9525">
        <ele>1038.190866</ele>
        <time>2021-07-07T10:00:40+0200</time>
      </trkpt>
      <trkpt lat="45.66559" lon="2.95244">
        <ele>1038.054533</ele>
        <time>2021-07-07T10:00:42+0200</time>
      </trkpt>
      <trkpt lat="45.66554" lon="2.95239">
        <ele>1038.228629</ele>
        <time>2021-07-07T10:00:44+0200</time>
      </trkpt>
      <trkpt lat="45.66549" lon="2.95233">
        <ele>1038.509871</ele>
        <time>2021-07-07T10:00:46+0200</time>
      </trkpt>
      <trkpt lat="45.66543" lon="2.95228">
        <ele>1038.162804</ele>
        <time>2021-07-07T10:00:48+0200</time>
      </trkpt>
      <trkpt lat="45.66538" lon="2.95223">
        <ele>1038.749242</ele>
        <time>2021-07-07T10:00:50+0200</time>
      </trkpt>
      <trkpt lat="45.66532" lon="2.95218">
        <ele>1038.983354</ele>
        <time>2021-07-07T10:00:52+0200</time>
      </trkpt>
      <trkpt lat="45.66527" lon="2.95212">
        <ele>1039.189397</ele>
        <time>2021-07-07T10:00:54+0200</time>
      </trkpt>
      <trkpt lat="45.66521" lon="2.95206">
        <ele>1039.277818</ele>
        <time>2021-07-07T10:00:56+0200</time>
      </trkpt>
      <trkpt lat="45.66515" lon="2.952">
        <ele>1039.212499</ele>
        <time>2021-07-07T10:00:58+0200</time>
      </trkpt>
      <trkpt lat="45.66508" lon="2.95194">
        <ele>1038.838545</ele>
        <time>2021-07-07T10:01:00+0200</time>
      </trkpt>
      <trkpt lat="45.66502" lon="2.95186">
        <ele>1038.380973</ele>
        <time>2021-07-07T10:01:02+0200</time>
      </trkpt>
      <trkpt lat="45.66495" lon="2.95179">
        <ele>1038.290371</ele>
        <time>2021-07-07T10:01:04+0200</time>
      </trkpt>
      <trkpt lat="45.66488" lon="2.95172">
        <ele>1037.347488</ele>
        <time>2021-07-07T10:01:06+0200</time>
      </trkpt>
      <trkpt lat="45.66481" lon="2.95165">
        <ele>1037.211314</ele>
        <time>2021-07-07T10:01:08+0200</time>
      </trkpt>
      <trkpt lat="45.66477" lon="2.9516">
        <ele>1037.239455</ele>
        <time>2021-07-07T10:01:09+0200</time>
      </trkpt>
      <trkpt lat="45.66474" lon="2.95155">
        <ele>1037.210966</ele>
        <time>2021-07-07T10:01:10+0200</time>
      </trkpt>
      <trkpt lat="45.6647" lon="2.95149">
        <ele>1037.098436</ele>
        <time>2021-07-07T10:01:11+0200</time>
      </trkpt>
      <trkpt lat="45.66467" lon="2.95144">
        <ele>1036.499543</ele>
        <time>2021-07-07T10:01:12+0200</time>
      </trkpt>
      <trkpt lat="45.66464" lon="2.95139">
        <ele>1036.601381</ele>
        <time>2021-07-07T10:01:13+0200</time>
      </trkpt>
      <trkpt lat="45.6646" lon="2.95134">
        <ele>1036.704271</ele>
        <time>2021-07-07T10:01:14+0200</time>
      </trkpt>
      <trkpt lat="45.66457" lon="2.95129">
        <ele>1036.698959</ele>
        <time>2021-07-07T10:01:15+0200</time>
      </trkpt>
      <trkpt lat="45.66453" lon="2.95123">
        <ele>1036.570635</ele>
        <time>2021-07-07T10:01:16+0200</time>
      </trkpt>
      <trkpt lat="45.66449" lon="2.95117">
        <ele>1036.206226</ele>
        <time>2021-07-07T10:01:17+0200</time>
      </trkpt>
      <trkpt lat="45.66444" lon="2.95111">
        <ele>1035.891534</ele>
        <time>2021-07-07T10:01:18+0200</time>
      </trkpt>
      <trkpt lat="45.6644" lon="2.95104">
        <ele>1035.335199</ele>
        <time>2021-07-07T10:01:19+0200</time>
      </trkpt>
      <trkpt lat="45.66435" lon="2.95099">
        <ele>1034.899665</ele>
        <time>2021-07-07T10:01:20+0200</time>
      </trkpt>
      <trkpt lat="45.6643" lon="2.95092">
        <ele>1033.98448</ele>
        <time>2021-07-07T10:01:21+0200</time>
      </trkpt>
      <trkpt lat="45.66424" lon="2.95087">
        <ele>1033.293168</ele>
        <time>2021-07-07T10:01:22+0200</time>
      </trkpt>
      <trkpt lat="45.6642" lon="2.9508">
        <ele>1033.260488</ele>
        <time>2021-07-07T10:01:23+0200</time>
      </trkpt>
      <trkpt lat="45.66415" lon="2.95073">
        <ele>1033.049425</ele>
        <time>2021-07-07T10:01:24+0200</time>
      </trkpt>
      <trkpt lat="45.6641" lon="2.95067">
        <ele>1032.330049</ele>
        <time>2021-07-07T10:01:25+0200</time>
      </trkpt>
      <trkpt lat="45.66405" lon="2.95061">
        <ele>1032.408052</ele>
        <time>2021-07-07T10:01:26+0200</time>
      </trkpt>
      <trkpt lat="45.66399" lon="2.95056">
        <ele>1032.245045</ele>
        <time>2021-07-07T10:01:27+0200</time>
      </trkpt>
      <trkpt lat="45.66394" lon="2.95049">
        <ele>1031.938356</ele>
        <time>2021-07-07T10:01:28+0200</time>
      </trkpt>
      <trkpt lat="45.66389" lon="2.95043">
        <ele>1031.705878</ele>
        <time>2021-07-07T10:01:29+0200</time>
      </trkpt>
      <trkpt lat="45.66384" lon="2.95038">
        <ele>1031.329572</ele>
        <time>2021-07-07T10:01:30+0200</time>
      </trkpt>
      <trkpt lat="45.66378" lon="2.95033">
        <ele>1031.455972</ele>
        <time>2021-07-07T10:01:31+0200</time>
      </trkpt>
      <trkpt lat="45.66373" lon="2.95027">
        <ele>1031.349124</ele>
        <time>2021-07-07T10:01:32+0200</time>
      </trkpt>
      <trkpt lat="45.66368" lon="2.95021">
        <ele>1030.849222</ele>
        <time>2021-07-07T10:01:33+0200</time>
      </trkpt>
      <trkpt lat="45.66363" lon="2.95016">
        <ele>1030.596539</ele>
        <time>2021-07-07T10:01:34+0200</time>
      </trkpt>
      <trkpt lat="45.66358" lon="2.95009">
        <ele>1030.876296</ele>
        <time>2021-07-07T10:01:35+0200</time>
      </trkpt>
      <trkpt lat="45.66352" lon="2.95004">
        <ele>1030.681209</ele>
        <time>2021-07-07T10:01:36+0200</time>
      </trkpt>
      <trkpt lat="45.66346" lon="2.95">
        <ele>1030.283778</ele>
        <time>2021-07-07T10:01:37+0200</time>
      </trkpt>
      <trkpt lat="45.66341" lon="2.94995">
        <ele>1030.083499</ele>
        <time>2021-07-07T10:01:38+0200</time>
      </trkpt>
      <trkpt lat="45.66336" lon="2.94989">
        <ele>1029.988254</ele>
        <time>2021-07-07T10:01:39+0200</time>
      </trkpt>
      <trkpt lat="45.6633" lon="2.94986">
        <ele>1029.706062</ele>
        <time>2021-07-07T10:01:40+0200</time>
      </trkpt>
      <trkpt lat="45.66324" lon="2.94982">
        <ele>1029.339195</ele>
        <time>2021-07-07T10:01:41+0200</time>
      </trkpt>
      <trkpt lat="45.66319" lon="2.94978">
        <ele>1028.592498</ele>
        <time>2021-07-07T10:01:42+0200</time>
      </trkpt>
      <trkpt lat="45.66315" lon="2.94975">
        <ele>1028.116681</ele>
        <time>2021-07-07T10:01:43+0200</time>
      </trkpt>
      <trkpt lat="45.6631" lon="2.9497">
        <ele>1027.907598</ele>
        <time>2021-07-07T10:01:44+0200</time>
      </trkpt>
      <trkpt lat="45.66308" lon="2.94965">
        <ele>1027.655586</ele>
        <time>2021-07-07T10:01:45+0200</time>
      </trkpt>
      <trkpt lat="45.66304" lon="2.94953">
        <ele>1028.257385</ele>
        <time>2021-07-07T10:01:47+0200</time>
      </trkpt>
      <trkpt lat="45.66299" lon="2.94945">
        <ele>1028.514636</ele>
        <time>2021-07-07T10:01:49+0200</time>
      </trkpt>
      <trkpt lat="45.66297" lon="2.94936">
        <ele>1029.090336</ele>
        <time>2021-07-07T10:01:51+0200</time>
      </trkpt>
      <trkpt lat="45.663" lon="2.94928">
        <ele>1029.712566</ele>
        <time>2021-07-07T10:01:54+0200</time>
      </trkpt>
      <trkpt lat="45.66305" lon="2.94922">
        <ele>1029.270809</ele>
        <time>2021-07-07T10:01:56+0200</time>
      </trkpt>
      <trkpt lat="45.66308" lon="2.94917">
        <ele>1028.558444</ele>
        <time>2021-07-07T10:01:57+0200</time>
      </trkpt>
      <trkpt lat="45.66315" lon="2.9491">
        <ele>1028.932566</ele>
        <time>2021-07-07T10:01:59+0200</time>
      </trkpt>
      <trkpt lat="45.6632" lon="2.94904">
        <ele>1028.445225</ele>
        <time>2021-07-07T10:02:00+0200</time>
      </trkpt>
      <trkpt lat="45.66324" lon="2.94896">
        <ele>1028.603561</ele>
        <time>2021-07-07T10:02:01+0200</time>
      </trkpt>
      <trkpt lat="45.66328" lon="2.9489">
        <ele>1029.632994</ele>
        <time>2021-07-07T10:02:02+0200</time>
      </trkpt>
      <trkpt lat="45.66335" lon="2.94879">
        <ele>1030.160796</ele>
        <time>2021-07-07T10:02:04+0200</time>
      </trkpt>
      <trkpt lat="45.66339" lon="2.94875">
        <ele>1030.652379</ele>
        <time>2021-07-07T10:02:05+0200</time>
      </trkpt>
      <trkpt lat="45.66345" lon="2.94867">
        <ele>1031.92337</ele>
        <time>2021-07-07T10:02:07+0200</time>
      </trkpt>
      <trkpt lat="45.66351" lon="2.94861">
        <ele>1033.01246</ele>
        <time>2021-07-07T10:02:09+0200</time>
      </trkpt>
      <trkpt lat="45.66355" lon="2.94856">
        <ele>1033.144704</ele>
        <time>2021-07-07T10:02:10+0200</time>
      </trkpt>
      <trkpt lat="45.66361" lon="2.94846">
        <ele>1033.222573</ele>
        <time>2021-07-07T10:02:12+0200</time>
      </trkpt>
      <trkpt lat="45.66365" lon="2.94841">
        <ele>1032.992044</ele>
        <time>2021-07-07T10:02:13+0200</time>
      </trkpt>
      <trkpt lat="45.66369" lon="2.94837">
        <ele>1032.869612</ele>
        <time>2021-07-07T10:02:14+0200</time>
      </trkpt>
      <trkpt lat="45.66372" lon="2.94832">
        <ele>1032.753624</ele>
        <time>2021-07-07T10:02:15+0200</time>
      </trkpt>
      <trkpt lat="45.66378" lon="2.94823">
        <ele>1032.918198</ele>
        <time>2021-07-07T10:02:17+0200</time>
      </trkpt>
      <trkpt lat="45.66381" lon="2.94814">
        <ele>1033.692241</ele>
        <time>2021-07-07T10:02:19+0200</time>
      </trkpt>
      <trkpt lat="45.66378" lon="2.94805">
        <ele>1033.97749</ele>
        <time>2021-07-07T10:02:21+0200</time>
      </trkpt>
      <trkpt lat="45.66374" lon="2.94797">
        <ele>1033.864178</ele>
        <time>2021-07-07T10:02:23+0200</time>
      </trkpt>
      <trkpt lat="45.66372" lon="2.94787">
        <ele>1033.583086</ele>
        <time>2021-07-07T10:02:25+0200</time>
      </trkpt>
      <trkpt lat="45.66369" lon="2.94778">
        <ele>1034.156234</ele>
        <time>2021-07-07T10:02:27+0200</time>
      </trkpt>
      <trkpt lat="45.66365" lon="2.94768">
        <ele>1035.219216</ele>
        <time>2021-07-07T10:02:29+0200</time>
      </trkpt>
      <trkpt lat="45.66361" lon="2.94759">
        <ele>1035.589748</ele>
        <time>2021-07-07T10:02:31+0200</time>
      </trkpt>
      <trkpt lat="45.66357" lon="2.94751">
        <ele>1036.14984</ele>
        <time>2021-07-07T10:02:33+0200</time>
      </trkpt>
      <trkpt lat="45.66354" lon="2.94742">
        <ele>1036.495473</ele>
        <time>2021-07-07T10:02:35+0200</time>
      </trkpt>
      <trkpt lat="45.6635" lon="2.94733">
        <ele>1036.418414</ele>
        <time>2021-07-07T10:02:37+0200</time>
      </trkpt>
      <trkpt lat="45.66345" lon="2.94725">
        <ele>1035.920017</ele>
        <time>2021-07-07T10:02:39+0200</time>
      </trkpt>
      <trkpt lat="45.66343" lon="2.94719">
        <ele>1035.951826</ele>
        <time>2021-07-07T10:02:40+0200</time>
      </trkpt>
      <trkpt lat="45.6634" lon="2.94714">
        <ele>1036.201258</ele>
        <time>2021-07-07T10:02:41+0200</time>
      </trkpt>
      <trkpt lat="45.66337" lon="2.94708">
        <ele>1036.296587</ele>
        <time>2021-07-07T10:02:42+0200</time>
      </trkpt>
      <trkpt lat="45.66334" lon="2.94702">
        <ele>1036.747572</ele>
        <time>2021-07-07T10:02:43+0200</time>
      </trkpt>
      <trkpt lat="45.66332" lon="2.94695">
        <ele>1037.198075</ele>
        <time>2021-07-07T10:02:44+0200</time>
      </trkpt>
      <trkpt lat="45.66329" lon="2.9469">
        <ele>1037.268525</ele>
        <time>2021-07-07T10:02:45+0200</time>
      </trkpt>
      <trkpt lat="45.66324" lon="2.94681">
        <ele>1036.709547</ele>
        <time>2021-07-07T10:02:47+0200</time>
      </trkpt>
      <trkpt lat="45.66321" lon="2.94676">
        <ele>1037.412113</ele>
        <time>2021-07-07T10:02:48+0200</time>
      </trkpt>
      <trkpt lat="45.66316" lon="2.94667">
        <ele>1037.304959</ele>
        <time>2021-07-07T10:02:50+0200</time>
      </trkpt>
      <trkpt lat="45.66311" lon="2.94657">
        <ele>1037.54095</ele>
        <time>2021-07-07T10:02:52+0200</time>
      </trkpt>
      <trkpt lat="45.66306" lon="2.94651">
        <ele>1037.433876</ele>
        <time>2021-07-07T10:02:54+0200</time>
      </trkpt>
      <trkpt lat="45.66302" lon="2.94644">
        <ele>1038.114964</ele>
        <time>2021-07-07T10:02:56+0200</time>
      </trkpt>
      <trkpt lat="45.66298" lon="2.94637">
        <ele>1037.487164</ele>
        <time>2021-07-07T10:02:58+0200</time>
      </trkpt>
      <trkpt lat="45.66295" lon="2.94633">
        <ele>1037.002982</ele>
        <time>2021-07-07T10:03:00+0200</time>
      </trkpt>
      <trkpt lat="45.66293" lon="2.94627">
        <ele>1037.287162</ele>
        <time>2021-07-07T10:03:02+0200</time>
      </trkpt>
      <trkpt lat="45.6629" lon="2.94623">
        <ele>1037.936353</ele>
        <time>2021-07-07T10:03:04+0200</time>
      </trkpt>
      <trkpt lat="45.66286" lon="2.94616">
        <ele>1037.72279</ele>
        <time>2021-07-07T10:03:06+0200</time>
      </trkpt>
      <trkpt lat="45.66283" lon="2.94611">
        <ele>1038.157875</ele>
        <time>2021-07-07T10:03:08+0200</time>
      </trkpt>
      <trkpt lat="45.6628" lon="2.94606">
        <ele>1038.177298</ele>
        <time>2021-07-07T10:03:10+0200</time>
      </trkpt>
      <trkpt lat="45.66276" lon="2.94598">
        <ele>1038.19546</ele>
        <time>2021-07-07T10:03:12+0200</time>
      </trkpt>
      <trkpt lat="45.66272" lon="2.94591">
        <ele>1037.95064</ele>
        <time>2021-07-07T10:03:14+0200</time>
      </trkpt>
      <trkpt lat="45.66269" lon="2.94584">
        <ele>1037.607893</ele>
        <time>2021-07-07T10:03:16+0200</time>
      </trkpt>
      <trkpt lat="45.66266" lon="2.94576">
        <ele>1037.320567</ele>
        <time>2021-07-07T10:03:18+0200</time>
      </trkpt>
      <trkpt lat="45.66263" lon="2.94569">
        <ele>1036.892258</ele>
        <time>2021-07-07T10:03:20+0200</time>
      </trkpt>
      <trkpt lat="45.6626" lon="2.94561">
        <ele>1037.173413</ele>
        <time>2021-07-07T10:03:22+0200</time>
      </trkpt>
      <trkpt lat="45.66255" lon="2.94553">
        <ele>1038.607197</ele>
        <time>2021-07-07T10:03:24+0200</time>
      </trkpt>
      <trkpt lat="45.66252" lon="2.94546">
        <ele>1038.693422</ele>
        <time>2021-07-07T10:03:26+0200</time>
      </trkpt>
      <trkpt lat="45.66247" lon="2.94536">
        <ele>1037.718589</ele>
        <time>2021-07-07T10:03:28+0200</time>
      </trkpt>
      <trkpt lat="45.66242" lon="2.94527">
        <ele>1037.695135</ele>
        <time>2021-07-07T10:03:30+0200</time>
      </trkpt>
      <trkpt lat="45.6624" lon="2.94521">
        <ele>1037.656941</ele>
        <time>2021-07-07T10:03:31+0200</time>
      </trkpt>
      <trkpt lat="45.66235" lon="2.94513">
        <ele>1037.163524</ele>
        <time>2021-07-07T10:03:33+0200</time>
      </trkpt>
      <trkpt lat="45.66231" lon="2.94503">
        <ele>1037.964204</ele>
        <time>2021-07-07T10:03:35+0200</time>
      </trkpt>
      <trkpt lat="45.66226" lon="2.94494">
        <ele>1037.875909</ele>
        <time>2021-07-07T10:03:37+0200</time>
      </trkpt>
      <trkpt lat="45.66223" lon="2.94488">
        <ele>1038.011692</ele>
        <time>2021-07-07T10:03:38+0200</time>
      </trkpt>
      <trkpt lat="45.66219" lon="2.9448">
        <ele>1037.957345</ele>
        <time>2021-07-07T10:03:40+0200</time>
      </trkpt>
      <trkpt lat="45.66214" lon="2.9447">
        <ele>1038.191252</ele>
        <time>2021-07-07T10:03:42+0200</time>
      </trkpt>
      <trkpt lat="45.66209" lon="2.9446">
        <ele>1038.599435</ele>
        <time>2021-07-07T10:03:44+0200</time>
      </trkpt>
      <trkpt lat="45.66205" lon="2.94451">
        <ele>1037.990431</ele>
        <time>2021-07-07T10:03:46+0200</time>
      </trkpt>
      <trkpt lat="45.66201" lon="2.94443">
        <ele>1037.636224</ele>
        <time>2021-07-07T10:03:48+0200</time>
      </trkpt>
      <trkpt lat="45.66196" lon="2.94434">
        <ele>1037.033843</ele>
        <time>2021-07-07T10:03:50+0200</time>
      </trkpt>
      <trkpt lat="45.66192" lon="2.94426">
        <ele>1036.67047</ele>
        <time>2021-07-07T10:03:52+0200</time>
      </trkpt>
      <trkpt lat="45.66188" lon="2.94416">
        <ele>1036.662801</ele>
        <time>2021-07-07T10:03:54+0200</time>
      </trkpt>
      <trkpt lat="45.66184" lon="2.94408">
        <ele>1036.567436</ele>
        <time>2021-07-07T10:03:56+0200</time>
      </trkpt>
      <trkpt lat="45.66179" lon="2.94396">
        <ele>1036.014848</ele>
        <time>2021-07-07T10:03:58+0200</time>
      </trkpt>
      <trkpt lat="45.66176" lon="2.9439">
        <ele>1035.510783</ele>
        <time>2021-07-07T10:03:59+0200</time>
      </trkpt>
      <trkpt lat="45.66174" lon="2.94384">
        <ele>1035.244053</ele>
        <time>2021-07-07T10:04:00+0200</time>
      </trkpt>
      <trkpt lat="45.66171" lon="2.94378">
        <ele>1034.908196</ele>
        <time>2021-07-07T10:04:01+0200</time>
      </trkpt>
      <trkpt lat="45.66168" lon="2.94371">
        <ele>1034.557089</ele>
        <time>2021-07-07T10:04:02+0200</time>
      </trkpt>
      <trkpt lat="45.66165" lon="2.94364">
        <ele>1034.177114</ele>
        <time>2021-07-07T10:04:03+0200</time>
      </trkpt>
      <trkpt lat="45.66162" lon="2.94355">
        <ele>1033.981744</ele>
        <time>2021-07-07T10:04:04+0200</time>
      </trkpt>
      <trkpt lat="45.66159" lon="2.94347">
        <ele>1033.816948</ele>
        <time>2021-07-07T10:04:05+0200</time>
      </trkpt>
      <trkpt lat="45.66157" lon="2.94338">
        <ele>1033.361017</ele>
        <time>2021-07-07T10:04:06+0200</time>
      </trkpt>
      <trkpt lat="45.66156" lon="2.94329">
        <ele>1033.302251</ele>
        <time>2021-07-07T10:04:07+0200</time>
      </trkpt>
      <trkpt lat="45.66153" lon="2.94319">
        <ele>1032.907744</ele>
        <time>2021-07-07T10:04:08+0200</time>
      </trkpt>
      <trkpt lat="45.66152" lon="2.9431">
        <ele>1032.894663</ele>
        <time>2021-07-07T10:04:09+0200</time>
      </trkpt>
      <trkpt lat="45.6615" lon="2.94301">
        <ele>1032.603331</ele>
        <time>2021-07-07T10:04:10+0200</time>
      </trkpt>
      <trkpt lat="45.66147" lon="2.94292">
        <ele>1032.633403</ele>
        <time>2021-07-07T10:04:11+0200</time>
      </trkpt>
      <trkpt lat="45.66145" lon="2.94284">
        <ele>1032.686505</ele>
        <time>2021-07-07T10:04:12+0200</time>
      </trkpt>
      <trkpt lat="45.66143" lon="2.94276">
        <ele>1032.638191</ele>
        <time>2021-07-07T10:04:13+0200</time>
      </trkpt>
      <trkpt lat="45.66141" lon="2.94269">
        <ele>1032.334877</ele>
        <time>2021-07-07T10:04:14+0200</time>
      </trkpt>
      <trkpt lat="45.66139" lon="2.94261">
        <ele>1032.398777</ele>
        <time>2021-07-07T10:04:15+0200</time>
      </trkpt>
      <trkpt lat="45.66136" lon="2.94254">
        <ele>1032.661848</ele>
        <time>2021-07-07T10:04:16+0200</time>
      </trkpt>
      <trkpt lat="45.66133" lon="2.94248">
        <ele>1032.711638</ele>
        <time>2021-07-07T10:04:17+0200</time>
      </trkpt>
      <trkpt lat="45.66131" lon="2.9424">
        <ele>1032.197547</ele>
        <time>2021-07-07T10:04:18+0200</time>
      </trkpt>
      <trkpt lat="45.66129" lon="2.94233">
        <ele>1032.501488</ele>
        <time>2021-07-07T10:04:19+0200</time>
      </trkpt>
      <trkpt lat="45.66126" lon="2.94225">
        <ele>1033.130363</ele>
        <time>2021-07-07T10:04:20+0200</time>
      </trkpt>
      <trkpt lat="45.66123" lon="2.94219">
        <ele>1032.849046</ele>
        <time>2021-07-07T10:04:21+0200</time>
      </trkpt>
      <trkpt lat="45.6612" lon="2.94212">
        <ele>1032.811306</ele>
        <time>2021-07-07T10:04:22+0200</time>
      </trkpt>
      <trkpt lat="45.66117" lon="2.94206">
        <ele>1032.664805</ele>
        <time>2021-07-07T10:04:23+0200</time>
      </trkpt>
      <trkpt lat="45.66115" lon="2.94199">
        <ele>1032.717769</ele>
        <time>2021-07-07T10:04:24+0200</time>
      </trkpt>
      <trkpt lat="45.66113" lon="2.94193">
        <ele>1032.73697</ele>
        <time>2021-07-07T10:04:25+0200</time>
      </trkpt>
      <trkpt lat="45.6611" lon="2.94186">
        <ele>1033.230683</ele>
        <time>2021-07-07T10:04:26+0200</time>
      </trkpt>
      <trkpt lat="45.66109" lon="2.9418">
        <ele>1033.524786</ele>
        <time>2021-07-07T10:04:27+0200</time>
      </trkpt>
      <trkpt lat="45.66104" lon="2.94171">
        <ele>1032.72163</ele>
        <time>2021-07-07T10:04:29+0200</time>
      </trkpt>
      <trkpt lat="45.661" lon="2.94161">
        <ele>1032.643399</ele>
        <time>2021-07-07T10:04:31+0200</time>
      </trkpt>
      <trkpt lat="45.66097" lon="2.9415">
        <ele>1032.190482</ele>
        <time>2021-07-07T10:04:33+0200</time>
      </trkpt>
      <trkpt lat="45.66093" lon="2.94139">
        <ele>1031.466163</ele>
        <time>2021-07-07T10:04:35+0200</time>
      </trkpt>
      <trkpt lat="45.66089" lon="2.94127">
        <ele>1031.351769</ele>
        <time>2021-07-07T10:04:37+0200</time>
      </trkpt>
      <trkpt lat="45.66084" lon="2.94116">
        <ele>1031.141183</ele>
        <time>2021-07-07T10:04:39+0200</time>
      </trkpt>
      <trkpt lat="45.66081" lon="2.94111">
        <ele>1031.193046</ele>
        <time>2021-07-07T10:04:40+0200</time>
      </trkpt>
      <trkpt lat="45.66079" lon="2.94104">
        <ele>1031.216054</ele>
        <time>2021-07-07T10:04:41+0200</time>
      </trkpt>
      <trkpt lat="45.66076" lon="2.94097">
        <ele>1031.263932</ele>
        <time>2021-07-07T10:04:42+0200</time>
      </trkpt>
      <trkpt lat="45.66073" lon="2.94091">
        <ele>1031.079406</ele>
        <time>2021-07-07T10:04:43+0200</time>
      </trkpt>
      <trkpt lat="45.6607" lon="2.94085">
        <ele>1030.705497</ele>
        <time>2021-07-07T10:04:44+0200</time>
      </trkpt>
      <trkpt lat="45.66066" lon="2.94077">
        <ele>1030.25885</ele>
        <time>2021-07-07T10:04:45+0200</time>
      </trkpt>
      <trkpt lat="45.66063" lon="2.94069">
        <ele>1029.767257</ele>
        <time>2021-07-07T10:04:46+0200</time>
      </trkpt>
      <trkpt lat="45.6606" lon="2.94063">
        <ele>1029.332982</ele>
        <time>2021-07-07T10:04:47+0200</time>
      </trkpt>
      <trkpt lat="45.66056" lon="2.94056">
        <ele>1029.236069</ele>
        <time>2021-07-07T10:04:48+0200</time>
      </trkpt>
      <trkpt lat="45.66053" lon="2.94047">
        <ele>1028.73598</ele>
        <time>2021-07-07T10:04:49+0200</time>
      </trkpt>
      <trkpt lat="45.6605" lon="2.94039">
        <ele>1028.405568</ele>
        <time>2021-07-07T10:04:50+0200</time>
      </trkpt>
      <trkpt lat="45.66046" lon="2.94031">
        <ele>1028.005901</ele>
        <time>2021-07-07T10:04:51+0200</time>
      </trkpt>
      <trkpt lat="45.66043" lon="2.94023">
        <ele>1027.698825</ele>
        <time>2021-07-07T10:04:52+0200</time>
      </trkpt>
      <trkpt lat="45.66039" lon="2.94015">
        <ele>1027.405865</ele>
        <time>2021-07-07T10:04:53+0200</time>
      </trkpt>
      <trkpt lat="45.66036" lon="2.94006">
        <ele>1027.145033</ele>
        <time>2021-07-07T10:04:54+0200</time>
      </trkpt>
      <trkpt lat="45.66033" lon="2.93998">
        <ele>1026.886865</ele>
        <time>2021-07-07T10:04:55+0200</time>
      </trkpt>
      <trkpt lat="45.66029" lon="2.9399">
        <ele>1026.624228</ele>
        <time>2021-07-07T10:04:56+0200</time>
      </trkpt>
      <trkpt lat="45.66026" lon="2.93982">
        <ele>1026.440648</ele>
        <time>2021-07-07T10:04:57+0200</time>
      </trkpt>
      <trkpt lat="45.66023" lon="2.93973">
        <ele>1026.310071</ele>
        <time>2021-07-07T10:04:58+0200</time>
      </trkpt>
      <trkpt lat="45.66019" lon="2.93965">
        <ele>1025.943655</ele>
        <time>2021-07-07T10:04:59+0200</time>
      </trkpt>
      <trkpt lat="45.66016" lon="2.93958">
        <ele>1025.984385</ele>
        <time>2021-07-07T10:05:00+0200</time>
      </trkpt>
      <trkpt lat="45.66012" lon="2.93951">
        <ele>1026.119135</ele>
        <time>2021-07-07T10:05:01+0200</time>
      </trkpt>
      <trkpt lat="45.66007" lon="2.93945">
        <ele>1026.19245</ele>
        <time>2021-07-07T10:05:02+0200</time>
      </trkpt>
      <trkpt lat="45.66003" lon="2.93939">
        <ele>1026.196217</ele>
        <time>2021-07-07T10:05:03+0200</time>
      </trkpt>
      <trkpt lat="45.65998" lon="2.93934">
        <ele>1025.718138</ele>
        <time>2021-07-07T10:05:04+0200</time>
      </trkpt>
      <trkpt lat="45.65993" lon="2.93932">
        <ele>1025.933393</ele>
        <time>2021-07-07T10:05:05+0200</time>
      </trkpt>
      <trkpt lat="45.6599" lon="2.93921">
        <ele>1025.986741</ele>
        <time>2021-07-07T10:05:07+0200</time>
      </trkpt>
      <trkpt lat="45.65993" lon="2.93911">
        <ele>1025.506829</ele>
        <time>2021-07-07T10:05:09+0200</time>
      </trkpt>
      <trkpt lat="45.65994" lon="2.93902">
        <ele>1025.556851</ele>
        <time>2021-07-07T10:05:11+0200</time>
      </trkpt>
      <trkpt lat="45.65994" lon="2.93892">
        <ele>1025.129967</ele>
        <time>2021-07-07T10:05:13+0200</time>
      </trkpt>
      <trkpt lat="45.6599" lon="2.93885">
        <ele>1024.95187</ele>
        <time>2021-07-07T10:05:15+0200</time>
      </trkpt>
      <trkpt lat="45.65983" lon="2.93887">
        <ele>1024.947221</ele>
        <time>2021-07-07T10:05:17+0200</time>
      </trkpt>
      <trkpt lat="45.65978" lon="2.93889">
        <ele>1025.457476</ele>
        <time>2021-07-07T10:05:19+0200</time>
      </trkpt>
      <trkpt lat="45.65972" lon="2.93889">
        <ele>1026.02027</ele>
        <time>2021-07-07T10:05:21+0200</time>
      </trkpt>
      <trkpt lat="45.65965" lon="2.93887">
        <ele>1026.046428</ele>
        <time>2021-07-07T10:05:23+0200</time>
      </trkpt>
      <trkpt lat="45.65957" lon="2.93885">
        <ele>1026.185617</ele>
        <time>2021-07-07T10:05:25+0200</time>
      </trkpt>
      <trkpt lat="45.65949" lon="2.93881">
        <ele>1026.164246</ele>
        <time>2021-07-07T10:05:27+0200</time>
      </trkpt>
      <trkpt lat="45.65942" lon="2.93879">
        <ele>1026.083151</ele>
        <time>2021-07-07T10:05:29+0200</time>
      </trkpt>
      <trkpt lat="45.65935" lon="2.93875">
        <ele>1026.333525</ele>
        <time>2021-07-07T10:05:31+0200</time>
      </trkpt>
      <trkpt lat="45.65926" lon="2.93872">
        <ele>1026.670327</ele>
        <time>2021-07-07T10:05:33+0200</time>
      </trkpt>
      <trkpt lat="45.65918" lon="2.93868">
        <ele>1026.82079</ele>
        <time>2021-07-07T10:05:35+0200</time>
      </trkpt>
      <trkpt lat="45.6591" lon="2.93866">
        <ele>1026.520482</ele>
        <time>2021-07-07T10:05:37+0200</time>
      </trkpt>
      <trkpt lat="45.65901" lon="2.93863">
        <ele>1026.728605</ele>
        <time>2021-07-07T10:05:39+0200</time>
      </trkpt>
      <trkpt lat="45.65897" lon="2.93861">
        <ele>1026.810406</ele>
        <time>2021-07-07T10:05:40+0200</time>
      </trkpt>
      <trkpt lat="45.65892" lon="2.9386">
        <ele>1026.690097</ele>
        <time>2021-07-07T10:05:41+0200</time>
      </trkpt>
      <trkpt lat="45.65888" lon="2.93859">
        <ele>1026.639603</ele>
        <time>2021-07-07T10:05:42+0200</time>
      </trkpt>
      <trkpt lat="45.65883" lon="2.93857">
        <ele>1026.474572</ele>
        <time>2021-07-07T10:05:43+0200</time>
      </trkpt>
      <trkpt lat="45.65876" lon="2.93855">
        <ele>1027.699181</ele>
        <time>2021-07-07T10:05:45+0200</time>
      </trkpt>
      <trkpt lat="45.65868" lon="2.93852">
        <ele>1027.932831</ele>
        <time>2021-07-07T10:05:47+0200</time>
      </trkpt>
      <trkpt lat="45.6586" lon="2.93849">
        <ele>1028.406309</ele>
        <time>2021-07-07T10:05:49+0200</time>
      </trkpt>
      <trkpt lat="45.65853" lon="2.93848">
        <ele>1028.451429</ele>
        <time>2021-07-07T10:05:51+0200</time>
      </trkpt>
      <trkpt lat="45.65844" lon="2.93846">
        <ele>1028.414882</ele>
        <time>2021-07-07T10:05:53+0200</time>
      </trkpt>
      <trkpt lat="45.65836" lon="2.93846">
        <ele>1028.151034</ele>
        <time>2021-07-07T10:05:55+0200</time>
      </trkpt>
      <trkpt lat="45.65828" lon="2.93841">
        <ele>1027.958046</ele>
        <time>2021-07-07T10:05:57+0200</time>
      </trkpt>
      <trkpt lat="45.65821" lon="2.93836">
        <ele>1028.309568</ele>
        <time>2021-07-07T10:05:59+0200</time>
      </trkpt>
      <trkpt lat="45.65814" lon="2.93828">
        <ele>1028.087507</ele>
        <time>2021-07-07T10:06:01+0200</time>
      </trkpt>
      <trkpt lat="45.6581" lon="2.93824">
        <ele>1028.341076</ele>
        <time>2021-07-07T10:06:02+0200</time>
      </trkpt>
      <trkpt lat="45.65802" lon="2.93818">
        <ele>1028.486231</ele>
        <time>2021-07-07T10:06:04+0200</time>
      </trkpt>
      <trkpt lat="45.65794" lon="2.93812">
        <ele>1028.447175</ele>
        <time>2021-07-07T10:06:06+0200</time>
      </trkpt>
      <trkpt lat="45.65789" lon="2.93809">
        <ele>1028.411181</ele>
        <time>2021-07-07T10:06:07+0200</time>
      </trkpt>
      <trkpt lat="45.65784" lon="2.93806">
        <ele>1028.282458</ele>
        <time>2021-07-07T10:06:08+0200</time>
      </trkpt>
      <trkpt lat="45.6578" lon="2.93803">
        <ele>1028.119616</ele>
        <time>2021-07-07T10:06:09+0200</time>
      </trkpt>
      <trkpt lat="45.65775" lon="2.938">
        <ele>1028.072249</ele>
        <time>2021-07-07T10:06:10+0200</time>
      </trkpt>
      <trkpt lat="45.6577" lon="2.93797">
        <ele>1027.706533</ele>
        <time>2021-07-07T10:06:11+0200</time>
      </trkpt>
      <trkpt lat="45.65766" lon="2.93794">
        <ele>1028.115077</ele>
        <time>2021-07-07T10:06:12+0200</time>
      </trkpt>
      <trkpt lat="45.65761" lon="2.93791">
        <ele>1028.089795</ele>
        <time>2021-07-07T10:06:13+0200</time>
      </trkpt>
      <trkpt lat="45.65757" lon="2.93788">
        <ele>1027.681366</ele>
        <time>2021-07-07T10:06:14+0200</time>
      </trkpt>
      <trkpt lat="45.65752" lon="2.93784">
        <ele>1027.527856</ele>
        <time>2021-07-07T10:06:15+0200</time>
      </trkpt>
      <trkpt lat="45.65747" lon="2.93779">
        <ele>1027.449993</ele>
        <time>2021-07-07T10:06:16+0200</time>
      </trkpt>
      <trkpt lat="45.65742" lon="2.93776">
        <ele>1026.782862</ele>
        <time>2021-07-07T10:06:17+0200</time>
      </trkpt>
      <trkpt lat="45.65738" lon="2.93771">
        <ele>1026.643665</ele>
        <time>2021-07-07T10:06:18+0200</time>
      </trkpt>
      <trkpt lat="45.65733" lon="2.93768">
        <ele>1026.502301</ele>
        <time>2021-07-07T10:06:19+0200</time>
      </trkpt>
      <trkpt lat="45.65728" lon="2.93765">
        <ele>1026.613285</ele>
        <time>2021-07-07T10:06:20+0200</time>
      </trkpt>
      <trkpt lat="45.65724" lon="2.93762">
        <ele>1026.89996</ele>
        <time>2021-07-07T10:06:21+0200</time>
      </trkpt>
      <trkpt lat="45.65719" lon="2.93759">
        <ele>1026.902274</ele>
        <time>2021-07-07T10:06:22+0200</time>
      </trkpt>
      <trkpt lat="45.65714" lon="2.93756">
        <ele>1026.773875</ele>
        <time>2021-07-07T10:06:23+0200</time>
      </trkpt>
      <trkpt lat="45.65709" lon="2.93751">
        <ele>1026.590118</ele>
        <time>2021-07-07T10:06:24+0200</time>
      </trkpt>
      <trkpt lat="45.65705" lon="2.93745">
        <ele>1026.64275</ele>
        <time>2021-07-07T10:06:25+0200</time>
      </trkpt>
      <trkpt lat="45.65701" lon="2.93741">
        <ele>1026.515989</ele>
        <time>2021-07-07T10:06:26+0200</time>
      </trkpt>
      <trkpt lat="45.65696" lon="2.93738">
        <ele>1026.05479</ele>
        <time>2021-07-07T10:06:27+0200</time>
      </trkpt>
      <trkpt lat="45.65691" lon="2.93734">
        <ele>1026.226534</ele>
        <time>2021-07-07T10:06:28+0200</time>
      </trkpt>
      <trkpt lat="45.65687" lon="2.93729">
        <ele>1026.375157</ele>
        <time>2021-07-07T10:06:29+0200</time>
      </trkpt>
      <trkpt lat="45.65682" lon="2.93725">
        <ele>1026.400431</ele>
        <time>2021-07-07T10:06:30+0200</time>
      </trkpt>
      <trkpt lat="45.65678" lon="2.9372">
        <ele>1026.101893</ele>
        <time>2021-07-07T10:06:31+0200</time>
      </trkpt>
      <trkpt lat="45.65674" lon="2.93714">
        <ele>1025.853257</ele>
        <time>2021-07-07T10:06:32+0200</time>
      </trkpt>
      <trkpt lat="45.6567" lon="2.93709">
        <ele>1025.790981</ele>
        <time>2021-07-07T10:06:33+0200</time>
      </trkpt>
      <trkpt lat="45.65667" lon="2.93705">
        <ele>1026.069263</ele>
        <time>2021-07-07T10:06:34+0200</time>
      </trkpt>
      <trkpt lat="45.65663" lon="2.93701">
        <ele>1026.219972</ele>
        <time>2021-07-07T10:06:35+0200</time>
      </trkpt>
      <trkpt lat="45.6566" lon="2.93695">
        <ele>1026.137139</ele>
        <time>2021-07-07T10:06:36+0200</time>
      </trkpt>
      <trkpt lat="45.65657" lon="2.9369">
        <ele>1026.163633</ele>
        <time>2021-07-07T10:06:37+0200</time>
      </trkpt>
      <trkpt lat="45.65653" lon="2.93684">
        <ele>1026.223923</ele>
        <time>2021-07-07T10:06:38+0200</time>
      </trkpt>
      <trkpt lat="45.65649" lon="2.93679">
        <ele>1026.073823</ele>
        <time>2021-07-07T10:06:39+0200</time>
      </trkpt>
      <trkpt lat="45.65645" lon="2.93676">
        <ele>1025.806025</ele>
        <time>2021-07-07T10:06:40+0200</time>
      </trkpt>
      <trkpt lat="45.65642" lon="2.93671">
        <ele>1025.72015</ele>
        <time>2021-07-07T10:06:41+0200</time>
      </trkpt>
      <trkpt lat="45.65634" lon="2.93664">
        <ele>1025.885348</ele>
        <time>2021-07-07T10:06:43+0200</time>
      </trkpt>
      <trkpt lat="45.6563" lon="2.93659">
        <ele>1025.727674</ele>
        <time>2021-07-07T10:06:44+0200</time>
      </trkpt>
      <trkpt lat="45.65623" lon="2.9365">
        <ele>1025.940263</ele>
        <time>2021-07-07T10:06:46+0200</time>
      </trkpt>
      <trkpt lat="45.65619" lon="2.93645">
        <ele>1026.081838</ele>
        <time>2021-07-07T10:06:47+0200</time>
      </trkpt>
      <trkpt lat="45.65616" lon="2.9364">
        <ele>1026.47404</ele>
        <time>2021-07-07T10:06:48+0200</time>
      </trkpt>
      <trkpt lat="45.6561" lon="2.93631">
        <ele>1026.476524</ele>
        <time>2021-07-07T10:06:50+0200</time>
      </trkpt>
      <trkpt lat="45.65606" lon="2.93626">
        <ele>1026.057786</ele>
        <time>2021-07-07T10:06:51+0200</time>
      </trkpt>
      <trkpt lat="45.65602" lon="2.93621">
        <ele>1026.003992</ele>
        <time>2021-07-07T10:06:52+0200</time>
      </trkpt>
      <trkpt lat="45.65598" lon="2.93615">
        <ele>1026.332327</ele>
        <time>2021-07-07T10:06:53+0200</time>
      </trkpt>
      <trkpt lat="45.65594" lon="2.93608">
        <ele>1026.053277</ele>
        <time>2021-07-07T10:06:54+0200</time>
      </trkpt>
      <trkpt lat="45.65589" lon="2.93602">
        <ele>1026.062537</ele>
        <time>2021-07-07T10:06:55+0200</time>
      </trkpt>
      <trkpt lat="45.65585" lon="2.93596">
        <ele>1026.011243</ele>
        <time>2021-07-07T10:06:56+0200</time>
      </trkpt>
      <trkpt lat="45.65581" lon="2.93589">
        <ele>1025.228347</ele>
        <time>2021-07-07T10:06:57+0200</time>
      </trkpt>
      <trkpt lat="45.65576" lon="2.93583">
        <ele>1025.406398</ele>
        <time>2021-07-07T10:06:58+0200</time>
      </trkpt>
      <trkpt lat="45.65572" lon="2.93579">
        <ele>1025.176247</ele>
        <time>2021-07-07T10:06:59+0200</time>
      </trkpt>
      <trkpt lat="45.65568" lon="2.93574">
        <ele>1025.230674</ele>
        <time>2021-07-07T10:07:00+0200</time>
      </trkpt>
      <trkpt lat="45.65564" lon="2.93568">
        <ele>1025.055912</ele>
        <time>2021-07-07T10:07:01+0200</time>
      </trkpt>
      <trkpt lat="45.6556" lon="2.93563">
        <ele>1024.884848</ele>
        <time>2021-07-07T10:07:02+0200</time>
      </trkpt>
      <trkpt lat="45.65556" lon="2.93557">
        <ele>1024.586243</ele>
        <time>2021-07-07T10:07:03+0200</time>
      </trkpt>
      <trkpt lat="45.65551" lon="2.9355">
        <ele>1024.21691</ele>
        <time>2021-07-07T10:07:04+0200</time>
      </trkpt>
      <trkpt lat="45.65546" lon="2.93544">
        <ele>1023.896611</ele>
        <time>2021-07-07T10:07:05+0200</time>
      </trkpt>
      <trkpt lat="45.65541" lon="2.93539">
        <ele>1023.857122</ele>
        <time>2021-07-07T10:07:06+0200</time>
      </trkpt>
      <trkpt lat="45.65535" lon="2.93534">
        <ele>1023.58306</ele>
        <time>2021-07-07T10:07:07+0200</time>
      </trkpt>
      <trkpt lat="45.6553" lon="2.93529">
        <ele>1023.418949</ele>
        <time>2021-07-07T10:07:08+0200</time>
      </trkpt>
      <trkpt lat="45.65525" lon="2.93524">
        <ele>1023.454601</ele>
        <time>2021-07-07T10:07:09+0200</time>
      </trkpt>
      <trkpt lat="45.6552" lon="2.93519">
        <ele>1023.568702</ele>
        <time>2021-07-07T10:07:10+0200</time>
      </trkpt>
      <trkpt lat="45.65515" lon="2.93515">
        <ele>1023.545199</ele>
        <time>2021-07-07T10:07:11+0200</time>
      </trkpt>
      <trkpt lat="45.6551" lon="2.93511">
        <ele>1023.731299</ele>
        <time>2021-07-07T10:07:12+0200</time>
      </trkpt>
      <trkpt lat="45.65504" lon="2.93508">
        <ele>1023.466905</ele>
        <time>2021-07-07T10:07:13+0200</time>
      </trkpt>
      <trkpt lat="45.65498" lon="2.93505">
        <ele>1023.071063</ele>
        <time>2021-07-07T10:07:14+0200</time>
      </trkpt>
      <trkpt lat="45.65494" lon="2.93501">
        <ele>1022.826068</ele>
        <time>2021-07-07T10:07:15+0200</time>
      </trkpt>
      <trkpt lat="45.65489" lon="2.93497">
        <ele>1022.685728</ele>
        <time>2021-07-07T10:07:16+0200</time>
      </trkpt>
      <trkpt lat="45.65483" lon="2.93493">
        <ele>1022.883943</ele>
        <time>2021-07-07T10:07:17+0200</time>
      </trkpt>
      <trkpt lat="45.65477" lon="2.93489">
        <ele>1022.406481</ele>
        <time>2021-07-07T10:07:18+0200</time>
      </trkpt>
      <trkpt lat="45.65471" lon="2.93484">
        <ele>1021.957065</ele>
        <time>2021-07-07T10:07:19+0200</time>
      </trkpt>
      <trkpt lat="45.65465" lon="2.9348">
        <ele>1021.660747</ele>
        <time>2021-07-07T10:07:20+0200</time>
      </trkpt>
      <trkpt lat="45.65458" lon="2.93475">
        <ele>1021.127383</ele>
        <time>2021-07-07T10:07:21+0200</time>
      </trkpt>
      <trkpt lat="45.65451" lon="2.9347">
        <ele>1020.433513</ele>
        <time>2021-07-07T10:07:22+0200</time>
      </trkpt>
      <trkpt lat="45.65445" lon="2.93463">
        <ele>1019.961744</ele>
        <time>2021-07-07T10:07:23+0200</time>
      </trkpt>
      <trkpt lat="45.65439" lon="2.93457">
        <ele>1019.45861</ele>
        <time>2021-07-07T10:07:24+0200</time>
      </trkpt>
      <trkpt lat="45.65433" lon="2.93451">
        <ele>1018.454738</ele>
        <time>2021-07-07T10:07:25+0200</time>
      </trkpt>
      <trkpt lat="45.65426" lon="2.93445">
        <ele>1017.983955</ele>
        <time>2021-07-07T10:07:26+0200</time>
      </trkpt>
      <trkpt lat="45.65419" lon="2.9344">
        <ele>1017.064622</ele>
        <time>2021-07-07T10:07:27+0200</time>
      </trkpt>
      <trkpt lat="45.65413" lon="2.93433">
        <ele>1016.623943</ele>
        <time>2021-07-07T10:07:28+0200</time>
      </trkpt>
      <trkpt lat="45.65408" lon="2.93426">
        <ele>1016.170082</ele>
        <time>2021-07-07T10:07:29+0200</time>
      </trkpt>
      <trkpt lat="45.65402" lon="2.93419">
        <ele>1015.655598</ele>
        <time>2021-07-07T10:07:30+0200</time>
      </trkpt>
      <trkpt lat="45.65396" lon="2.93413">
        <ele>1015.294102</ele>
        <time>2021-07-07T10:07:31+0200</time>
      </trkpt>
      <trkpt lat="45.6539" lon="2.93404">
        <ele>1014.024543</ele>
        <time>2021-07-07T10:07:32+0200</time>
      </trkpt>
      <trkpt lat="45.65387" lon="2.93393">
        <ele>1013.44797</ele>
        <time>2021-07-07T10:07:33+0200</time>
      </trkpt>
      <trkpt lat="45.65381" lon="2.93384">
        <ele>1013.205928</ele>
        <time>2021-07-07T10:07:34+0200</time>
      </trkpt>
      <trkpt lat="45.65376" lon="2.93374">
        <ele>1012.679406</ele>
        <time>2021-07-07T10:07:35+0200</time>
      </trkpt>
      <trkpt lat="45.6537" lon="2.93364">
        <ele>1012.090166</ele>
        <time>2021-07-07T10:07:36+0200</time>
      </trkpt>
      <trkpt lat="45.65365" lon="2.93354">
        <ele>1011.440243</ele>
        <time>2021-07-07T10:07:37+0200</time>
      </trkpt>
      <trkpt lat="45.65359" lon="2.93345">
        <ele>1010.625314</ele>
        <time>2021-07-07T10:07:38+0200</time>
      </trkpt>
      <trkpt lat="45.65354" lon="2.93335">
        <ele>1010.074104</ele>
        <time>2021-07-07T10:07:39+0200</time>
      </trkpt>
      <trkpt lat="45.65348" lon="2.93325">
        <ele>1009.91768</ele>
        <time>2021-07-07T10:07:40+0200</time>
      </trkpt>
      <trkpt lat="45.65343" lon="2.93315">
        <ele>1009.249423</ele>
        <time>2021-07-07T10:07:41+0200</time>
      </trkpt>
      <trkpt lat="45.65337" lon="2.93304">
        <ele>1008.347668</ele>
        <time>2021-07-07T10:07:42+0200</time>
      </trkpt>
      <trkpt lat="45.65332" lon="2.93292">
        <ele>1007.559187</ele>
        <time>2021-07-07T10:07:43+0200</time>
      </trkpt>
      <trkpt lat="45.65326" lon="2.93281">
        <ele>1006.824246</ele>
        <time>2021-07-07T10:07:44+0200</time>
      </trkpt>
      <trkpt lat="45.65319" lon="2.93271">
        <ele>1005.337184</ele>
        <time>2021-07-07T10:07:45+0200</time>
      </trkpt>
      <trkpt lat="45.65313" lon="2.93261">
        <ele>1004.91541</ele>
        <time>2021-07-07T10:07:46+0200</time>
      </trkpt>
      <trkpt lat="45.65308" lon="2.93251">
        <ele>1004.448234</ele>
        <time>2021-07-07T10:07:47+0200</time>
      </trkpt>
      <trkpt lat="45.65302" lon="2.93241">
        <ele>1004.208448</ele>
        <time>2021-07-07T10:07:48+0200</time>
      </trkpt>
      <trkpt lat="45.65296" lon="2.93231">
        <ele>1003.919754</ele>
        <time>2021-07-07T10:07:49+0200</time>
      </trkpt>
      <trkpt lat="45.6529" lon="2.93221">
        <ele>1003.262155</ele>
        <time>2021-07-07T10:07:50+0200</time>
      </trkpt>
      <trkpt lat="45.65284" lon="2.93211">
        <ele>1002.71402</ele>
        <time>2021-07-07T10:07:51+0200</time>
      </trkpt>
      <trkpt lat="45.65279" lon="2.93202">
        <ele>1002.269103</ele>
        <time>2021-07-07T10:07:52+0200</time>
      </trkpt>
      <trkpt lat="45.65275" lon="2.93194">
        <ele>1001.783763</ele>
        <time>2021-07-07T10:07:53+0200</time>
      </trkpt>
      <trkpt lat="45.65269" lon="2.93184">
        <ele>1001.685754</ele>
        <time>2021-07-07T10:07:54+0200</time>
      </trkpt>
      <trkpt lat="45.65264" lon="2.93175">
        <ele>1001.217508</ele>
        <time>2021-07-07T10:07:55+0200</time>
      </trkpt>
      <trkpt lat="45.6526" lon="2.93165">
        <ele>1000.71516</ele>
        <time>2021-07-07T10:07:56+0200</time>
      </trkpt>
      <trkpt lat="45.65257" lon="2.93155">
        <ele>1000.195119</ele>
        <time>2021-07-07T10:07:57+0200</time>
      </trkpt>
      <trkpt lat="45.65255" lon="2.93145">
        <ele>999.911614</ele>
        <time>2021-07-07T10:07:58+0200</time>
      </trkpt>
      <trkpt lat="45.65252" lon="2.93135">
        <ele>999.295491</ele>
        <time>2021-07-07T10:07:59+0200</time>
      </trkpt>
      <trkpt lat="45.6525" lon="2.93125">
        <ele>999.044936</ele>
        <time>2021-07-07T10:08:00+0200</time>
      </trkpt>
      <trkpt lat="45.65248" lon="2.93115">
        <ele>998.674482</ele>
        <time>2021-07-07T10:08:01+0200</time>
      </trkpt>
      <trkpt lat="45.65245" lon="2.93106">
        <ele>998.409923</ele>
        <time>2021-07-07T10:08:02+0200</time>
      </trkpt>
      <trkpt lat="45.65243" lon="2.93097">
        <ele>997.936601</ele>
        <time>2021-07-07T10:08:03+0200</time>
      </trkpt>
      <trkpt lat="45.6524" lon="2.93088">
        <ele>997.5123</ele>
        <time>2021-07-07T10:08:04+0200</time>
      </trkpt>
      <trkpt lat="45.65238" lon="2.93078">
        <ele>997.271308</ele>
        <time>2021-07-07T10:08:05+0200</time>
      </trkpt>
      <trkpt lat="45.65236" lon="2.9307">
        <ele>996.890116</ele>
        <time>2021-07-07T10:08:06+0200</time>
      </trkpt>
      <trkpt lat="45.65234" lon="2.93061">
        <ele>996.68972</ele>
        <time>2021-07-07T10:08:07+0200</time>
      </trkpt>
      <trkpt lat="45.65231" lon="2.93051">
        <ele>996.598246</ele>
        <time>2021-07-07T10:08:08+0200</time>
      </trkpt>
      <trkpt lat="45.65229" lon="2.93043">
        <ele>996.594595</ele>
        <time>2021-07-07T10:08:09+0200</time>
      </trkpt>
      <trkpt lat="45.65226" lon="2.93035">
        <ele>996.512436</ele>
        <time>2021-07-07T10:08:10+0200</time>
      </trkpt>
      <trkpt lat="45.65224" lon="2.93026">
        <ele>996.496073</ele>
        <time>2021-07-07T10:08:11+0200</time>
      </trkpt>
      <trkpt lat="45.65222" lon="2.93018">
        <ele>996.399023</ele>
        <time>2021-07-07T10:08:12+0200</time>
      </trkpt>
      <trkpt lat="45.6522" lon="2.9301">
        <ele>996.286335</ele>
        <time>2021-07-07T10:08:13+0200</time>
      </trkpt>
      <trkpt lat="45.65217" lon="2.93001">
        <ele>996.099024</ele>
        <time>2021-07-07T10:08:14+0200</time>
      </trkpt>
      <trkpt lat="45.65216" lon="2.92993">
        <ele>995.997986</ele>
        <time>2021-07-07T10:08:15+0200</time>
      </trkpt>
      <trkpt lat="45.65213" lon="2.92985">
        <ele>995.62182</ele>
        <time>2021-07-07T10:08:16+0200</time>
      </trkpt>
      <trkpt lat="45.65211" lon="2.92976">
        <ele>995.392825</ele>
        <time>2021-07-07T10:08:17+0200</time>
      </trkpt>
      <trkpt lat="45.65208" lon="2.92967">
        <ele>995.216172</ele>
        <time>2021-07-07T10:08:18+0200</time>
      </trkpt>
      <trkpt lat="45.65205" lon="2.92959">
        <ele>994.610469</ele>
        <time>2021-07-07T10:08:19+0200</time>
      </trkpt>
      <trkpt lat="45.65204" lon="2.9295">
        <ele>994.072902</ele>
        <time>2021-07-07T10:08:20+0200</time>
      </trkpt>
      <trkpt lat="45.65203" lon="2.9294">
        <ele>994.181191</ele>
        <time>2021-07-07T10:08:21+0200</time>
      </trkpt>
      <trkpt lat="45.652" lon="2.92931">
        <ele>993.682499</ele>
        <time>2021-07-07T10:08:22+0200</time>
      </trkpt>
      <trkpt lat="45.65198" lon="2.92922">
        <ele>992.910949</ele>
        <time>2021-07-07T10:08:23+0200</time>
      </trkpt>
      <trkpt lat="45.65196" lon="2.92914">
        <ele>992.124896</ele>
        <time>2021-07-07T10:08:24+0200</time>
      </trkpt>
      <trkpt lat="45.65195" lon="2.92907">
        <ele>991.416982</ele>
        <time>2021-07-07T10:08:25+0200</time>
      </trkpt>
      <trkpt lat="45.65194" lon="2.929">
        <ele>990.935662</ele>
        <time>2021-07-07T10:08:26+0200</time>
      </trkpt>
      <trkpt lat="45.6519" lon="2.92895">
        <ele>990.225472</ele>
        <time>2021-07-07T10:08:27+0200</time>
      </trkpt>
      <trkpt lat="45.65184" lon="2.92892">
        <ele>989.780428</ele>
        <time>2021-07-07T10:08:28+0200</time>
      </trkpt>
      <trkpt lat="45.6518" lon="2.92888">
        <ele>989.678985</ele>
        <time>2021-07-07T10:08:29+0200</time>
      </trkpt>
      <trkpt lat="45.65175" lon="2.92887">
        <ele>989.282829</ele>
        <time>2021-07-07T10:08:30+0200</time>
      </trkpt>
      <trkpt lat="45.65169" lon="2.92887">
        <ele>989.536917</ele>
        <time>2021-07-07T10:08:31+0200</time>
      </trkpt>
      <trkpt lat="45.65164" lon="2.92887">
        <ele>989.445167</ele>
        <time>2021-07-07T10:08:32+0200</time>
      </trkpt>
      <trkpt lat="45.65159" lon="2.92886">
        <ele>990.026442</ele>
        <time>2021-07-07T10:08:33+0200</time>
      </trkpt>
      <trkpt lat="45.65154" lon="2.92883">
        <ele>990.195429</ele>
        <time>2021-07-07T10:08:34+0200</time>
      </trkpt>
      <trkpt lat="45.65147" lon="2.92881">
        <ele>990.678772</ele>
        <time>2021-07-07T10:08:36+0200</time>
      </trkpt>
      <trkpt lat="45.65141" lon="2.92882">
        <ele>991.021557</ele>
        <time>2021-07-07T10:08:38+0200</time>
      </trkpt>
      <trkpt lat="45.65137" lon="2.92881">
        <ele>991.544111</ele>
        <time>2021-07-07T10:08:40+0200</time>
      </trkpt>
      <trkpt lat="45.65132" lon="2.92884">
        <ele>991.866613</ele>
        <time>2021-07-07T10:08:42+0200</time>
      </trkpt>
      <trkpt lat="45.65128" lon="2.92887">
        <ele>992.488492</ele>
        <time>2021-07-07T10:08:44+0200</time>
      </trkpt>
      <trkpt lat="45.65124" lon="2.9289">
        <ele>993.094841</ele>
        <time>2021-07-07T10:08:46+0200</time>
      </trkpt>
      <trkpt lat="45.6512" lon="2.92894">
        <ele>993.928813</ele>
        <time>2021-07-07T10:08:48+0200</time>
      </trkpt>
      <trkpt lat="45.65116" lon="2.92897">
        <ele>994.227089</ele>
        <time>2021-07-07T10:08:50+0200</time>
      </trkpt>
      <trkpt lat="45.65113" lon="2.92905">
        <ele>994.977261</ele>
        <time>2021-07-07T10:08:52+0200</time>
      </trkpt>
      <trkpt lat="45.65108" lon="2.9291">
        <ele>995.66478</ele>
        <time>2021-07-07T10:08:54+0200</time>
      </trkpt>
      <trkpt lat="45.65104" lon="2.92916">
        <ele>996.378483</ele>
        <time>2021-07-07T10:08:56+0200</time>
      </trkpt>
      <trkpt lat="45.65099" lon="2.92921">
        <ele>996.859092</ele>
        <time>2021-07-07T10:08:58+0200</time>
      </trkpt>
      <trkpt lat="45.65093" lon="2.92924">
        <ele>997.416959</ele>
        <time>2021-07-07T10:09:00+0200</time>
      </trkpt>
      <trkpt lat="45.65089" lon="2.9292">
        <ele>996.642657</ele>
        <time>2021-07-07T10:12:43+0200</time>
      </trkpt>
      <trkpt lat="45.65093" lon="2.92924">
        <ele>997.540148</ele>
        <time>2021-07-07T10:13:42+0200</time>
      </trkpt>
      <trkpt lat="45.65087" lon="2.92923">
        <ele>998.523357</ele>
        <time>2021-07-07T10:16:09+0200</time>
      </trkpt>
      <trkpt lat="45.65084" lon="2.92928">
        <ele>999.575116</ele>
        <time>2021-07-07T10:16:12+0200</time>
      </trkpt>
      <trkpt lat="45.65078" lon="2.92931">
        <ele>999.938554</ele>
        <time>2021-07-07T10:16:15+0200</time>
      </trkpt>
      <trkpt lat="45.65072" lon="2.92933">
        <ele>1000.796766</ele>
        <time>2021-07-07T10:16:18+0200</time>
      </trkpt>
      <trkpt lat="45.65067" lon="2.92935">
        <ele>1001.144528</ele>
        <time>2021-07-07T10:16:20+0200</time>
      </trkpt>
      <trkpt lat="45.65061" lon="2.92938">
        <ele>1001.997667</ele>
        <time>2021-07-07T10:16:23+0200</time>
      </trkpt>
      <trkpt lat="45.65056" lon="2.92941">
        <ele>1002.646184</ele>
        <time>2021-07-07T10:16:25+0200</time>
      </trkpt>
      <trkpt lat="45.65052" lon="2.92943">
        <ele>1003.254301</ele>
        <time>2021-07-07T10:16:27+0200</time>
      </trkpt>
      <trkpt lat="45.65047" lon="2.92944">
        <ele>1004.082773</ele>
        <time>2021-07-07T10:16:29+0200</time>
      </trkpt>
      <trkpt lat="45.65042" lon="2.92945">
        <ele>1004.42261</ele>
        <time>2021-07-07T10:16:31+0200</time>
      </trkpt>
      <trkpt lat="45.65037" lon="2.92946">
        <ele>1004.634373</ele>
        <time>2021-07-07T10:16:33+0200</time>
      </trkpt>
      <trkpt lat="45.65032" lon="2.92947">
        <ele>1005.373895</ele>
        <time>2021-07-07T10:16:35+0200</time>
      </trkpt>
      <trkpt lat="45.65028" lon="2.92947">
        <ele>1006.016623</ele>
        <time>2021-07-07T10:16:37+0200</time>
      </trkpt>
      <trkpt lat="45.65023" lon="2.92949">
        <ele>1006.337365</ele>
        <time>2021-07-07T10:16:39+0200</time>
      </trkpt>
      <trkpt lat="45.65018" lon="2.9295">
        <ele>1006.6956</ele>
        <time>2021-07-07T10:16:41+0200</time>
      </trkpt>
      <trkpt lat="45.65011" lon="2.92951">
        <ele>1007.380854</ele>
        <time>2021-07-07T10:16:44+0200</time>
      </trkpt>
      <trkpt lat="45.65005" lon="2.92951">
        <ele>1008.866701</ele>
        <time>2021-07-07T10:16:47+0200</time>
      </trkpt>
      <trkpt lat="45.64999" lon="2.92952">
        <ele>1009.739553</ele>
        <time>2021-07-07T10:16:50+0200</time>
      </trkpt>
      <trkpt lat="45.64992" lon="2.92953">
        <ele>1010.531379</ele>
        <time>2021-07-07T10:16:53+0200</time>
      </trkpt>
      <trkpt lat="45.64986" lon="2.92953">
        <ele>1010.79297</ele>
        <time>2021-07-07T10:16:56+0200</time>
      </trkpt>
      <trkpt lat="45.64979" lon="2.92954">
        <ele>1011.557416</ele>
        <time>2021-07-07T10:16:59+0200</time>
      </trkpt>
      <trkpt lat="45.64973" lon="2.92954">
        <ele>1012.386329</ele>
        <time>2021-07-07T10:17:02+0200</time>
      </trkpt>
      <trkpt lat="45.64968" lon="2.92954">
        <ele>1012.797418</ele>
        <time>2021-07-07T10:17:04+0200</time>
      </trkpt>
      <trkpt lat="45.64963" lon="2.92954">
        <ele>1013.003466</ele>
        <time>2021-07-07T10:17:06+0200</time>
      </trkpt>
      <trkpt lat="45.64958" lon="2.92955">
        <ele>1013.232548</ele>
        <time>2021-07-07T10:17:08+0200</time>
      </trkpt>
      <trkpt lat="45.64952" lon="2.92957">
        <ele>1013.372527</ele>
        <time>2021-07-07T10:17:10+0200</time>
      </trkpt>
      <trkpt lat="45.64945" lon="2.92959">
        <ele>1013.629935</ele>
        <time>2021-07-07T10:17:13+0200</time>
      </trkpt>
      <trkpt lat="45.6494" lon="2.92962">
        <ele>1014.171484</ele>
        <time>2021-07-07T10:17:15+0200</time>
      </trkpt>
      <trkpt lat="45.64935" lon="2.92963">
        <ele>1014.423744</ele>
        <time>2021-07-07T10:17:17+0200</time>
      </trkpt>
      <trkpt lat="45.6493" lon="2.92966">
        <ele>1014.137687</ele>
        <time>2021-07-07T10:17:19+0200</time>
      </trkpt>
      <trkpt lat="45.64924" lon="2.92968">
        <ele>1013.915387</ele>
        <time>2021-07-07T10:17:21+0200</time>
      </trkpt>
      <trkpt lat="45.64918" lon="2.92971">
        <ele>1013.478275</ele>
        <time>2021-07-07T10:17:23+0200</time>
      </trkpt>
      <trkpt lat="45.64911" lon="2.92973">
        <ele>1013.61606</ele>
        <time>2021-07-07T10:17:25+0200</time>
      </trkpt>
      <trkpt lat="45.64904" lon="2.92975">
        <ele>1013.353485</ele>
        <time>2021-07-07T10:17:27+0200</time>
      </trkpt>
      <trkpt lat="45.64896" lon="2.92976">
        <ele>1012.995079</ele>
        <time>2021-07-07T10:17:29+0200</time>
      </trkpt>
      <trkpt lat="45.64889" lon="2.92972">
        <ele>1012.925829</ele>
        <time>2021-07-07T10:17:31+0200</time>
      </trkpt>
      <trkpt lat="45.64882" lon="2.92969">
        <ele>1012.673831</ele>
        <time>2021-07-07T10:17:33+0200</time>
      </trkpt>
      <trkpt lat="45.64876" lon="2.9296">
        <ele>1012.792417</ele>
        <time>2021-07-07T10:17:35+0200</time>
      </trkpt>
      <trkpt lat="45.64871" lon="2.92952">
        <ele>1013.459978</ele>
        <time>2021-07-07T10:17:37+0200</time>
      </trkpt>
      <trkpt lat="45.64866" lon="2.92945">
        <ele>1013.755601</ele>
        <time>2021-07-07T10:17:39+0200</time>
      </trkpt>
      <trkpt lat="45.64862" lon="2.92936">
        <ele>1014.308725</ele>
        <time>2021-07-07T10:17:41+0200</time>
      </trkpt>
      <trkpt lat="45.64856" lon="2.92929">
        <ele>1015.175453</ele>
        <time>2021-07-07T10:17:43+0200</time>
      </trkpt>
      <trkpt lat="45.64852" lon="2.92919">
        <ele>1015.702351</ele>
        <time>2021-07-07T10:17:45+0200</time>
      </trkpt>
      <trkpt lat="45.64847" lon="2.92911">
        <ele>1016.08206</ele>
        <time>2021-07-07T10:17:47+0200</time>
      </trkpt>
      <trkpt lat="45.64842" lon="2.92904">
        <ele>1016.379356</ele>
        <time>2021-07-07T10:17:49+0200</time>
      </trkpt>
      <trkpt lat="45.64837" lon="2.92896">
        <ele>1016.664205</ele>
        <time>2021-07-07T10:17:51+0200</time>
      </trkpt>
      <trkpt lat="45.64831" lon="2.92889">
        <ele>1017.354683</ele>
        <time>2021-07-07T10:17:53+0200</time>
      </trkpt>
      <trkpt lat="45.64825" lon="2.92882">
        <ele>1017.478203</ele>
        <time>2021-07-07T10:17:55+0200</time>
      </trkpt>
      <trkpt lat="45.64819" lon="2.92875">
        <ele>1017.155213</ele>
        <time>2021-07-07T10:17:57+0200</time>
      </trkpt>
      <trkpt lat="45.64813" lon="2.92868">
        <ele>1017.179603</ele>
        <time>2021-07-07T10:17:59+0200</time>
      </trkpt>
      <trkpt lat="45.64806" lon="2.92862">
        <ele>1017.292872</ele>
        <time>2021-07-07T10:18:01+0200</time>
      </trkpt>
      <trkpt lat="45.64803" lon="2.92856">
        <ele>1016.837408</ele>
        <time>2021-07-07T10:18:02+0200</time>
      </trkpt>
      <trkpt lat="45.64799" lon="2.92852">
        <ele>1016.679508</ele>
        <time>2021-07-07T10:18:03+0200</time>
      </trkpt>
      <trkpt lat="45.64793" lon="2.92844">
        <ele>1017.025116</ele>
        <time>2021-07-07T10:18:05+0200</time>
      </trkpt>
      <trkpt lat="45.64789" lon="2.9284">
        <ele>1017.109199</ele>
        <time>2021-07-07T10:18:06+0200</time>
      </trkpt>
      <trkpt lat="45.64785" lon="2.92836">
        <ele>1017.251013</ele>
        <time>2021-07-07T10:18:07+0200</time>
      </trkpt>
      <trkpt lat="45.64781" lon="2.92832">
        <ele>1017.375227</ele>
        <time>2021-07-07T10:18:08+0200</time>
      </trkpt>
      <trkpt lat="45.64777" lon="2.92828">
        <ele>1017.172345</ele>
        <time>2021-07-07T10:18:09+0200</time>
      </trkpt>
      <trkpt lat="45.64773" lon="2.92824">
        <ele>1017.228162</ele>
        <time>2021-07-07T10:18:10+0200</time>
      </trkpt>
      <trkpt lat="45.64769" lon="2.92818">
        <ele>1017.033315</ele>
        <time>2021-07-07T10:18:11+0200</time>
      </trkpt>
      <trkpt lat="45.64766" lon="2.92813">
        <ele>1016.93619</ele>
        <time>2021-07-07T10:18:12+0200</time>
      </trkpt>
      <trkpt lat="45.64761" lon="2.92808">
        <ele>1016.575865</ele>
        <time>2021-07-07T10:18:13+0200</time>
      </trkpt>
      <trkpt lat="45.64758" lon="2.92803">
        <ele>1016.96672</ele>
        <time>2021-07-07T10:18:14+0200</time>
      </trkpt>
      <trkpt lat="45.64753" lon="2.92799">
        <ele>1016.98937</ele>
        <time>2021-07-07T10:18:15+0200</time>
      </trkpt>
      <trkpt lat="45.64749" lon="2.92795">
        <ele>1016.718618</ele>
        <time>2021-07-07T10:18:16+0200</time>
      </trkpt>
      <trkpt lat="45.64745" lon="2.92791">
        <ele>1016.553205</ele>
        <time>2021-07-07T10:18:17+0200</time>
      </trkpt>
      <trkpt lat="45.64741" lon="2.92787">
        <ele>1016.489356</ele>
        <time>2021-07-07T10:18:18+0200</time>
      </trkpt>
      <trkpt lat="45.64737" lon="2.92782">
        <ele>1016.204428</ele>
        <time>2021-07-07T10:18:19+0200</time>
      </trkpt>
      <trkpt lat="45.64733" lon="2.92776">
        <ele>1016.328721</ele>
        <time>2021-07-07T10:18:20+0200</time>
      </trkpt>
      <trkpt lat="45.6473" lon="2.92771">
        <ele>1016.133303</ele>
        <time>2021-07-07T10:18:21+0200</time>
      </trkpt>
      <trkpt lat="45.64726" lon="2.92765">
        <ele>1016.01104</ele>
        <time>2021-07-07T10:18:22+0200</time>
      </trkpt>
      <trkpt lat="45.64723" lon="2.92759">
        <ele>1015.874179</ele>
        <time>2021-07-07T10:18:23+0200</time>
      </trkpt>
      <trkpt lat="45.64718" lon="2.92748">
        <ele>1016.076602</ele>
        <time>2021-07-07T10:18:25+0200</time>
      </trkpt>
      <trkpt lat="45.64717" lon="2.92741">
        <ele>1015.882409</ele>
        <time>2021-07-07T10:18:26+0200</time>
      </trkpt>
      <trkpt lat="45.64715" lon="2.92735">
        <ele>1015.959911</ele>
        <time>2021-07-07T10:18:27+0200</time>
      </trkpt>
      <trkpt lat="45.64711" lon="2.92724">
        <ele>1015.85616</ele>
        <time>2021-07-07T10:18:29+0200</time>
      </trkpt>
      <trkpt lat="45.64707" lon="2.92713">
        <ele>1016.225423</ele>
        <time>2021-07-07T10:18:31+0200</time>
      </trkpt>
      <trkpt lat="45.64703" lon="2.92702">
        <ele>1016.223845</ele>
        <time>2021-07-07T10:18:33+0200</time>
      </trkpt>
      <trkpt lat="45.647" lon="2.92693">
        <ele>1016.518253</ele>
        <time>2021-07-07T10:18:35+0200</time>
      </trkpt>
      <trkpt lat="45.64698" lon="2.92684">
        <ele>1017.061448</ele>
        <time>2021-07-07T10:18:37+0200</time>
      </trkpt>
      <trkpt lat="45.64693" lon="2.92679">
        <ele>1017.80254</ele>
        <time>2021-07-07T10:18:40+0200</time>
      </trkpt>
      <trkpt lat="45.64688" lon="2.92675">
        <ele>1018.443198</ele>
        <time>2021-07-07T10:18:42+0200</time>
      </trkpt>
      <trkpt lat="45.64684" lon="2.9267">
        <ele>1018.463553</ele>
        <time>2021-07-07T10:18:44+0200</time>
      </trkpt>
      <trkpt lat="45.64679" lon="2.92667">
        <ele>1018.381556</ele>
        <time>2021-07-07T10:18:46+0200</time>
      </trkpt>
      <trkpt lat="45.64673" lon="2.92662">
        <ele>1019.689266</ele>
        <time>2021-07-07T10:18:49+0200</time>
      </trkpt>
      <trkpt lat="45.6467" lon="2.92656">
        <ele>1019.650313</ele>
        <time>2021-07-07T10:18:51+0200</time>
      </trkpt>
      <trkpt lat="45.64664" lon="2.92649">
        <ele>1020.063682</ele>
        <time>2021-07-07T10:18:53+0200</time>
      </trkpt>
      <trkpt lat="45.64658" lon="2.92645">
        <ele>1020.767287</ele>
        <time>2021-07-07T10:18:55+0200</time>
      </trkpt>
      <trkpt lat="45.64652" lon="2.92639">
        <ele>1021.243391</ele>
        <time>2021-07-07T10:18:57+0200</time>
      </trkpt>
      <trkpt lat="45.64647" lon="2.92633">
        <ele>1021.31751</ele>
        <time>2021-07-07T10:18:59+0200</time>
      </trkpt>
      <trkpt lat="45.6464" lon="2.92627">
        <ele>1021.519698</ele>
        <time>2021-07-07T10:19:01+0200</time>
      </trkpt>
      <trkpt lat="45.64633" lon="2.9262">
        <ele>1022.00106</ele>
        <time>2021-07-07T10:19:03+0200</time>
      </trkpt>
      <trkpt lat="45.64627" lon="2.92612">
        <ele>1022.25777</ele>
        <time>2021-07-07T10:19:05+0200</time>
      </trkpt>
      <trkpt lat="45.64621" lon="2.92605">
        <ele>1023.124579</ele>
        <time>2021-07-07T10:19:07+0200</time>
      </trkpt>
      <trkpt lat="45.64615" lon="2.92599">
        <ele>1024.097287</ele>
        <time>2021-07-07T10:19:09+0200</time>
      </trkpt>
      <trkpt lat="45.64609" lon="2.92594">
        <ele>1024.695795</ele>
        <time>2021-07-07T10:19:11+0200</time>
      </trkpt>
      <trkpt lat="45.64602" lon="2.92592">
        <ele>1024.955813</ele>
        <time>2021-07-07T10:19:13+0200</time>
      </trkpt>
      <trkpt lat="45.64595" lon="2.92588">
        <ele>1025.217505</ele>
        <time>2021-07-07T10:19:15+0200</time>
      </trkpt>
      <trkpt lat="45.64588" lon="2.92583">
        <ele>1025.416244</ele>
        <time>2021-07-07T10:19:17+0200</time>
      </trkpt>
      <trkpt lat="45.64581" lon="2.92578">
        <ele>1025.807502</ele>
        <time>2021-07-07T10:19:19+0200</time>
      </trkpt>
      <trkpt lat="45.64576" lon="2.9257">
        <ele>1025.682781</ele>
        <time>2021-07-07T10:19:21+0200</time>
      </trkpt>
      <trkpt lat="45.64571" lon="2.92561">
        <ele>1025.915842</ele>
        <time>2021-07-07T10:19:23+0200</time>
      </trkpt>
      <trkpt lat="45.64568" lon="2.92552">
        <ele>1026.662087</ele>
        <time>2021-07-07T10:19:25+0200</time>
      </trkpt>
      <trkpt lat="45.64564" lon="2.92543">
        <ele>1027.49185</ele>
        <time>2021-07-07T10:19:27+0200</time>
      </trkpt>
      <trkpt lat="45.64563" lon="2.92533">
        <ele>1027.60862</ele>
        <time>2021-07-07T10:19:29+0200</time>
      </trkpt>
      <trkpt lat="45.64561" lon="2.92523">
        <ele>1028.288679</ele>
        <time>2021-07-07T10:19:31+0200</time>
      </trkpt>
      <trkpt lat="45.64558" lon="2.92514">
        <ele>1028.744591</ele>
        <time>2021-07-07T10:19:33+0200</time>
      </trkpt>
      <trkpt lat="45.64555" lon="2.92505">
        <ele>1029.213562</ele>
        <time>2021-07-07T10:19:35+0200</time>
      </trkpt>
      <trkpt lat="45.64552" lon="2.92496">
        <ele>1029.442262</ele>
        <time>2021-07-07T10:19:37+0200</time>
      </trkpt>
      <trkpt lat="45.6455" lon="2.92486">
        <ele>1029.715651</ele>
        <time>2021-07-07T10:19:39+0200</time>
      </trkpt>
      <trkpt lat="45.64546" lon="2.92477">
        <ele>1030.039049</ele>
        <time>2021-07-07T10:19:41+0200</time>
      </trkpt>
      <trkpt lat="45.64544" lon="2.92468">
        <ele>1030.819107</ele>
        <time>2021-07-07T10:19:43+0200</time>
      </trkpt>
      <trkpt lat="45.64541" lon="2.92459">
        <ele>1029.866063</ele>
        <time>2021-07-07T10:19:45+0200</time>
      </trkpt>
      <trkpt lat="45.64537" lon="2.92449">
        <ele>1029.224278</ele>
        <time>2021-07-07T10:19:47+0200</time>
      </trkpt>
      <trkpt lat="45.64535" lon="2.9244">
        <ele>1029.099034</ele>
        <time>2021-07-07T10:19:49+0200</time>
      </trkpt>
      <trkpt lat="45.64532" lon="2.92431">
        <ele>1029.424599</ele>
        <time>2021-07-07T10:19:51+0200</time>
      </trkpt>
      <trkpt lat="45.64528" lon="2.92423">
        <ele>1029.558001</ele>
        <time>2021-07-07T10:19:53+0200</time>
      </trkpt>
      <trkpt lat="45.64524" lon="2.92413">
        <ele>1029.752598</ele>
        <time>2021-07-07T10:19:55+0200</time>
      </trkpt>
      <trkpt lat="45.64519" lon="2.92406">
        <ele>1029.69642</ele>
        <time>2021-07-07T10:19:57+0200</time>
      </trkpt>
      <trkpt lat="45.64514" lon="2.92397">
        <ele>1029.710804</ele>
        <time>2021-07-07T10:19:59+0200</time>
      </trkpt>
      <trkpt lat="45.6451" lon="2.92387">
        <ele>1030.184955</ele>
        <time>2021-07-07T10:20:01+0200</time>
      </trkpt>
      <trkpt lat="45.64505" lon="2.92378">
        <ele>1029.998566</ele>
        <time>2021-07-07T10:20:03+0200</time>
      </trkpt>
      <trkpt lat="45.645" lon="2.92369">
        <ele>1029.420299</ele>
        <time>2021-07-07T10:20:05+0200</time>
      </trkpt>
      <trkpt lat="45.64494" lon="2.92358">
        <ele>1029.53948</ele>
        <time>2021-07-07T10:20:07+0200</time>
      </trkpt>
      <trkpt lat="45.64489" lon="2.92348">
        <ele>1029.573025</ele>
        <time>2021-07-07T10:20:09+0200</time>
      </trkpt>
      <trkpt lat="45.64485" lon="2.92343">
        <ele>1029.481497</ele>
        <time>2021-07-07T10:20:10+0200</time>
      </trkpt>
      <trkpt lat="45.64483" lon="2.92338">
        <ele>1029.911536</ele>
        <time>2021-07-07T10:20:11+0200</time>
      </trkpt>
      <trkpt lat="45.6448" lon="2.92332">
        <ele>1030.035754</ele>
        <time>2021-07-07T10:20:12+0200</time>
      </trkpt>
      <trkpt lat="45.64477" lon="2.92326">
        <ele>1030.227657</ele>
        <time>2021-07-07T10:20:13+0200</time>
      </trkpt>
      <trkpt lat="45.64474" lon="2.9232">
        <ele>1030.489423</ele>
        <time>2021-07-07T10:20:14+0200</time>
      </trkpt>
      <trkpt lat="45.64471" lon="2.92315">
        <ele>1030.504857</ele>
        <time>2021-07-07T10:20:15+0200</time>
      </trkpt>
      <trkpt lat="45.64468" lon="2.9231">
        <ele>1030.471075</ele>
        <time>2021-07-07T10:20:16+0200</time>
      </trkpt>
      <trkpt lat="45.64467" lon="2.92303">
        <ele>1030.334061</ele>
        <time>2021-07-07T10:20:17+0200</time>
      </trkpt>
      <trkpt lat="45.64465" lon="2.92297">
        <ele>1030.070866</ele>
        <time>2021-07-07T10:20:18+0200</time>
      </trkpt>
      <trkpt lat="45.64462" lon="2.9229">
        <ele>1030.286843</ele>
        <time>2021-07-07T10:20:19+0200</time>
      </trkpt>
      <trkpt lat="45.6446" lon="2.92283">
        <ele>1030.437546</ele>
        <time>2021-07-07T10:20:20+0200</time>
      </trkpt>
      <trkpt lat="45.64459" lon="2.92276">
        <ele>1029.991089</ele>
        <time>2021-07-07T10:20:21+0200</time>
      </trkpt>
      <trkpt lat="45.64457" lon="2.9227">
        <ele>1030.175579</ele>
        <time>2021-07-07T10:20:22+0200</time>
      </trkpt>
      <trkpt lat="45.64456" lon="2.92264">
        <ele>1030.425294</ele>
        <time>2021-07-07T10:20:23+0200</time>
      </trkpt>
      <trkpt lat="45.64453" lon="2.92252">
        <ele>1030.758221</ele>
        <time>2021-07-07T10:20:25+0200</time>
      </trkpt>
      <trkpt lat="45.6445" lon="2.92243">
        <ele>1031.176096</ele>
        <time>2021-07-07T10:20:27+0200</time>
      </trkpt>
      <trkpt lat="45.64448" lon="2.92232">
        <ele>1031.166098</ele>
        <time>2021-07-07T10:20:29+0200</time>
      </trkpt>
      <trkpt lat="45.64446" lon="2.92221">
        <ele>1031.163243</ele>
        <time>2021-07-07T10:20:31+0200</time>
      </trkpt>
      <trkpt lat="45.64445" lon="2.92209">
        <ele>1031.082724</ele>
        <time>2021-07-07T10:20:33+0200</time>
      </trkpt>
      <trkpt lat="45.64442" lon="2.92198">
        <ele>1031.019501</ele>
        <time>2021-07-07T10:20:35+0200</time>
      </trkpt>
      <trkpt lat="45.6444" lon="2.92192">
        <ele>1030.863071</ele>
        <time>2021-07-07T10:20:36+0200</time>
      </trkpt>
      <trkpt lat="45.64436" lon="2.92181">
        <ele>1030.543916</ele>
        <time>2021-07-07T10:20:38+0200</time>
      </trkpt>
      <trkpt lat="45.64431" lon="2.92171">
        <ele>1029.532079</ele>
        <time>2021-07-07T10:20:40+0200</time>
      </trkpt>
      <trkpt lat="45.64428" lon="2.92164">
        <ele>1029.167825</ele>
        <time>2021-07-07T10:20:41+0200</time>
      </trkpt>
      <trkpt lat="45.64426" lon="2.92158">
        <ele>1028.627038</ele>
        <time>2021-07-07T10:20:42+0200</time>
      </trkpt>
      <trkpt lat="45.64423" lon="2.92153">
        <ele>1028.471398</ele>
        <time>2021-07-07T10:20:43+0200</time>
      </trkpt>
      <trkpt lat="45.6442" lon="2.92147">
        <ele>1028.253914</ele>
        <time>2021-07-07T10:20:44+0200</time>
      </trkpt>
      <trkpt lat="45.64417" lon="2.92141">
        <ele>1027.976176</ele>
        <time>2021-07-07T10:20:45+0200</time>
      </trkpt>
      <trkpt lat="45.64414" lon="2.92134">
        <ele>1028.014261</ele>
        <time>2021-07-07T10:20:46+0200</time>
      </trkpt>
      <trkpt lat="45.64412" lon="2.92127">
        <ele>1027.691546</ele>
        <time>2021-07-07T10:20:47+0200</time>
      </trkpt>
      <trkpt lat="45.64408" lon="2.92122">
        <ele>1027.793981</ele>
        <time>2021-07-07T10:20:48+0200</time>
      </trkpt>
      <trkpt lat="45.64405" lon="2.92116">
        <ele>1027.83592</ele>
        <time>2021-07-07T10:20:49+0200</time>
      </trkpt>
      <trkpt lat="45.64402" lon="2.92111">
        <ele>1027.705216</ele>
        <time>2021-07-07T10:20:50+0200</time>
      </trkpt>
      <trkpt lat="45.64398" lon="2.92106">
        <ele>1027.619935</ele>
        <time>2021-07-07T10:20:51+0200</time>
      </trkpt>
      <trkpt lat="45.64395" lon="2.921">
        <ele>1028.027099</ele>
        <time>2021-07-07T10:20:52+0200</time>
      </trkpt>
      <trkpt lat="45.64391" lon="2.92095">
        <ele>1027.970648</ele>
        <time>2021-07-07T10:20:53+0200</time>
      </trkpt>
      <trkpt lat="45.64389" lon="2.9209">
        <ele>1027.892706</ele>
        <time>2021-07-07T10:20:54+0200</time>
      </trkpt>
      <trkpt lat="45.64385" lon="2.92084">
        <ele>1027.512821</ele>
        <time>2021-07-07T10:20:55+0200</time>
      </trkpt>
      <trkpt lat="45.64382" lon="2.92078">
        <ele>1027.646544</ele>
        <time>2021-07-07T10:20:56+0200</time>
      </trkpt>
      <trkpt lat="45.64378" lon="2.92073">
        <ele>1027.671658</ele>
        <time>2021-07-07T10:20:57+0200</time>
      </trkpt>
      <trkpt lat="45.64371" lon="2.92063">
        <ele>1027.94606</ele>
        <time>2021-07-07T10:20:59+0200</time>
      </trkpt>
      <trkpt lat="45.64368" lon="2.92056">
        <ele>1028.00486</ele>
        <time>2021-07-07T10:21:00+0200</time>
      </trkpt>
      <trkpt lat="45.64364" lon="2.92051">
        <ele>1028.336608</ele>
        <time>2021-07-07T10:21:01+0200</time>
      </trkpt>
      <trkpt lat="45.6436" lon="2.92047">
        <ele>1028.372425</ele>
        <time>2021-07-07T10:21:02+0200</time>
      </trkpt>
      <trkpt lat="45.64355" lon="2.92037">
        <ele>1028.393389</ele>
        <time>2021-07-07T10:21:04+0200</time>
      </trkpt>
      <trkpt lat="45.64352" lon="2.92028">
        <ele>1029.041388</ele>
        <time>2021-07-07T10:21:06+0200</time>
      </trkpt>
      <trkpt lat="45.64348" lon="2.9202">
        <ele>1029.962947</ele>
        <time>2021-07-07T10:21:08+0200</time>
      </trkpt>
      <trkpt lat="45.64345" lon="2.92011">
        <ele>1030.189266</ele>
        <time>2021-07-07T10:21:10+0200</time>
      </trkpt>
      <trkpt lat="45.64341" lon="2.92001">
        <ele>1030.904034</ele>
        <time>2021-07-07T10:21:12+0200</time>
      </trkpt>
      <trkpt lat="45.64339" lon="2.91991">
        <ele>1031.369827</ele>
        <time>2021-07-07T10:21:14+0200</time>
      </trkpt>
      <trkpt lat="45.64336" lon="2.91982">
        <ele>1031.597585</ele>
        <time>2021-07-07T10:21:16+0200</time>
      </trkpt>
      <trkpt lat="45.64335" lon="2.91972">
        <ele>1032.106146</ele>
        <time>2021-07-07T10:21:18+0200</time>
      </trkpt>
      <trkpt lat="45.64335" lon="2.91963">
        <ele>1032.772929</ele>
        <time>2021-07-07T10:21:20+0200</time>
      </trkpt>
      <trkpt lat="45.64335" lon="2.91954">
        <ele>1033.892101</ele>
        <time>2021-07-07T10:21:22+0200</time>
      </trkpt>
      <trkpt lat="45.64333" lon="2.91945">
        <ele>1034.681271</ele>
        <time>2021-07-07T10:21:24+0200</time>
      </trkpt>
      <trkpt lat="45.64332" lon="2.91935">
        <ele>1034.753263</ele>
        <time>2021-07-07T10:21:26+0200</time>
      </trkpt>
      <trkpt lat="45.6433" lon="2.91926">
        <ele>1034.810137</ele>
        <time>2021-07-07T10:21:28+0200</time>
      </trkpt>
      <trkpt lat="45.64325" lon="2.91915">
        <ele>1034.555152</ele>
        <time>2021-07-07T10:21:30+0200</time>
      </trkpt>
      <trkpt lat="45.6432" lon="2.91908">
        <ele>1035.537258</ele>
        <time>2021-07-07T10:21:32+0200</time>
      </trkpt>
      <trkpt lat="45.64314" lon="2.91902">
        <ele>1035.984954</ele>
        <time>2021-07-07T10:21:34+0200</time>
      </trkpt>
      <trkpt lat="45.64308" lon="2.91899">
        <ele>1036.621295</ele>
        <time>2021-07-07T10:21:36+0200</time>
      </trkpt>
      <trkpt lat="45.643" lon="2.91895">
        <ele>1036.596162</ele>
        <time>2021-07-07T10:21:38+0200</time>
      </trkpt>
      <trkpt lat="45.64292" lon="2.91891">
        <ele>1036.278707</ele>
        <time>2021-07-07T10:21:40+0200</time>
      </trkpt>
      <trkpt lat="45.64284" lon="2.91889">
        <ele>1036.19446</ele>
        <time>2021-07-07T10:21:42+0200</time>
      </trkpt>
      <trkpt lat="45.6428" lon="2.91887">
        <ele>1036.386999</ele>
        <time>2021-07-07T10:21:43+0200</time>
      </trkpt>
      <trkpt lat="45.64275" lon="2.91882">
        <ele>1035.942282</ele>
        <time>2021-07-07T10:21:45+0200</time>
      </trkpt>
      <trkpt lat="45.64268" lon="2.91879">
        <ele>1035.54397</ele>
        <time>2021-07-07T10:21:47+0200</time>
      </trkpt>
      <trkpt lat="45.64262" lon="2.91876">
        <ele>1034.921714</ele>
        <time>2021-07-07T10:21:49+0200</time>
      </trkpt>
      <trkpt lat="45.64258" lon="2.91873">
        <ele>1034.201791</ele>
        <time>2021-07-07T10:21:51+0200</time>
      </trkpt>
      <trkpt lat="45.64253" lon="2.91868">
        <ele>1034.108652</ele>
        <time>2021-07-07T10:21:54+0200</time>
      </trkpt>
      <trkpt lat="45.6425" lon="2.91863">
        <ele>1033.688462</ele>
        <time>2021-07-07T10:21:57+0200</time>
      </trkpt>
      <trkpt lat="45.64247" lon="2.91857">
        <ele>1032.808719</ele>
        <time>2021-07-07T10:22:33+0200</time>
      </trkpt>
      <trkpt lat="45.64242" lon="2.91853">
        <ele>1034.33831</ele>
        <time>2021-07-07T10:23:43+0200</time>
      </trkpt>
      <trkpt lat="45.64236" lon="2.91857">
        <ele>1034.905502</ele>
        <time>2021-07-07T10:23:46+0200</time>
      </trkpt>
      <trkpt lat="45.64231" lon="2.91862">
        <ele>1034.391636</ele>
        <time>2021-07-07T10:23:48+0200</time>
      </trkpt>
      <trkpt lat="45.64226" lon="2.9186">
        <ele>1033.488618</ele>
        <time>2021-07-07T10:23:54+0200</time>
      </trkpt>
      <trkpt lat="45.64231" lon="2.9186">
        <ele>1031.96804</ele>
        <time>2021-07-07T10:23:58+0200</time>
      </trkpt>
      <trkpt lat="45.64235" lon="2.91856">
        <ele>1032.771685</ele>
        <time>2021-07-07T10:24:01+0200</time>
      </trkpt>
      <trkpt lat="45.64231" lon="2.9185">
        <ele>1033.487707</ele>
        <time>2021-07-07T10:24:03+0200</time>
      </trkpt>
      <trkpt lat="45.64227" lon="2.91846">
        <ele>1034.251144</ele>
        <time>2021-07-07T10:24:05+0200</time>
      </trkpt>
      <trkpt lat="45.64222" lon="2.91841">
        <ele>1033.710577</ele>
        <time>2021-07-07T10:24:07+0200</time>
      </trkpt>
      <trkpt lat="45.64216" lon="2.91837">
        <ele>1033.205414</ele>
        <time>2021-07-07T10:24:09+0200</time>
      </trkpt>
      <trkpt lat="45.64209" lon="2.91838">
        <ele>1034.367196</ele>
        <time>2021-07-07T10:24:11+0200</time>
      </trkpt>
      <trkpt lat="45.64204" lon="2.91838">
        <ele>1034.770186</ele>
        <time>2021-07-07T10:24:12+0200</time>
      </trkpt>
      <trkpt lat="45.64197" lon="2.91836">
        <ele>1034.730399</ele>
        <time>2021-07-07T10:24:14+0200</time>
      </trkpt>
      <trkpt lat="45.64191" lon="2.91832">
        <ele>1033.903999</ele>
        <time>2021-07-07T10:24:16+0200</time>
      </trkpt>
      <trkpt lat="45.64185" lon="2.91835">
        <ele>1033.844098</ele>
        <time>2021-07-07T10:24:18+0200</time>
      </trkpt>
      <trkpt lat="45.64177" lon="2.91835">
        <ele>1033.671258</ele>
        <time>2021-07-07T10:24:20+0200</time>
      </trkpt>
      <trkpt lat="45.64169" lon="2.91838">
        <ele>1033.070844</ele>
        <time>2021-07-07T10:24:22+0200</time>
      </trkpt>
      <trkpt lat="45.64164" lon="2.91843">
        <ele>1032.44946</ele>
        <time>2021-07-07T10:24:23+0200</time>
      </trkpt>
      <trkpt lat="45.64157" lon="2.91843">
        <ele>1032.187058</ele>
        <time>2021-07-07T10:24:24+0200</time>
      </trkpt>
      <trkpt lat="45.64151" lon="2.91844">
        <ele>1031.722777</ele>
        <time>2021-07-07T10:24:25+0200</time>
      </trkpt>
      <trkpt lat="45.64145" lon="2.91841">
        <ele>1031.155737</ele>
        <time>2021-07-07T10:24:26+0200</time>
      </trkpt>
      <trkpt lat="45.6414" lon="2.91836">
        <ele>1031.502733</ele>
        <time>2021-07-07T10:24:27+0200</time>
      </trkpt>
      <trkpt lat="45.64136" lon="2.91824">
        <ele>1031.867863</ele>
        <time>2021-07-07T10:24:29+0200</time>
      </trkpt>
      <trkpt lat="45.64137" lon="2.91833">
        <ele>1033.500843</ele>
        <time>2021-07-07T10:24:35+0200</time>
      </trkpt>
      <trkpt lat="45.64143" lon="2.9184">
        <ele>1033.478116</ele>
        <time>2021-07-07T10:24:37+0200</time>
      </trkpt>
      <trkpt lat="45.64147" lon="2.9185">
        <ele>1033.116913</ele>
        <time>2021-07-07T10:24:39+0200</time>
      </trkpt>
      <trkpt lat="45.6414" lon="2.91853">
        <ele>1033.920644</ele>
        <time>2021-07-07T10:24:41+0200</time>
      </trkpt>
      <trkpt lat="45.64129" lon="2.91847">
        <ele>1032.242494</ele>
        <time>2021-07-07T10:24:43+0200</time>
      </trkpt>
      <trkpt lat="45.64123" lon="2.91842">
        <ele>1031.521071</ele>
        <time>2021-07-07T10:24:44+0200</time>
      </trkpt>
      <trkpt lat="45.64118" lon="2.91839">
        <ele>1030.781829</ele>
        <time>2021-07-07T10:24:45+0200</time>
      </trkpt>
      <trkpt lat="45.64112" lon="2.91841">
        <ele>1030.40224</ele>
        <time>2021-07-07T10:24:46+0200</time>
      </trkpt>
      <trkpt lat="45.64107" lon="2.91844">
        <ele>1030.099534</ele>
        <time>2021-07-07T10:24:47+0200</time>
      </trkpt>
      <trkpt lat="45.64102" lon="2.91849">
        <ele>1030.237217</ele>
        <time>2021-07-07T10:24:48+0200</time>
      </trkpt>
      <trkpt lat="45.64097" lon="2.91853">
        <ele>1030.134759</ele>
        <time>2021-07-07T10:24:49+0200</time>
      </trkpt>
      <trkpt lat="45.64089" lon="2.9186">
        <ele>1031.13338</ele>
        <time>2021-07-07T10:24:51+0200</time>
      </trkpt>
      <trkpt lat="45.64083" lon="2.91867">
        <ele>1031.502643</ele>
        <time>2021-07-07T10:24:53+0200</time>
      </trkpt>
      <trkpt lat="45.64077" lon="2.91873">
        <ele>1031.678187</ele>
        <time>2021-07-07T10:24:55+0200</time>
      </trkpt>
      <trkpt lat="45.64071" lon="2.9188">
        <ele>1031.821538</ele>
        <time>2021-07-07T10:24:57+0200</time>
      </trkpt>
      <trkpt lat="45.64065" lon="2.91886">
        <ele>1031.628425</ele>
        <time>2021-07-07T10:24:59+0200</time>
      </trkpt>
      <trkpt lat="45.6406" lon="2.91893">
        <ele>1031.986305</ele>
        <time>2021-07-07T10:25:01+0200</time>
      </trkpt>
      <trkpt lat="45.64054" lon="2.91899">
        <ele>1032.76681</ele>
        <time>2021-07-07T10:25:03+0200</time>
      </trkpt>
      <trkpt lat="45.6405" lon="2.91905">
        <ele>1033.441484</ele>
        <time>2021-07-07T10:25:05+0200</time>
      </trkpt>
      <trkpt lat="45.64046" lon="2.91909">
        <ele>1034.53243</ele>
        <time>2021-07-07T10:25:07+0200</time>
      </trkpt>
      <trkpt lat="45.64041" lon="2.91916">
        <ele>1035.430625</ele>
        <time>2021-07-07T10:25:10+0200</time>
      </trkpt>
      <trkpt lat="45.64036" lon="2.9192">
        <ele>1035.95658</ele>
        <time>2021-07-07T10:25:12+0200</time>
      </trkpt>
      <trkpt lat="45.64031" lon="2.91925">
        <ele>1036.599847</ele>
        <time>2021-07-07T10:25:14+0200</time>
      </trkpt>
      <trkpt lat="45.64027" lon="2.91931">
        <ele>1037.380914</ele>
        <time>2021-07-07T10:25:16+0200</time>
      </trkpt>
      <trkpt lat="45.64024" lon="2.91938">
        <ele>1038.005573</ele>
        <time>2021-07-07T10:25:18+0200</time>
      </trkpt>
      <trkpt lat="45.64023" lon="2.91944">
        <ele>1038.758677</ele>
        <time>2021-07-07T10:25:20+0200</time>
      </trkpt>
      <trkpt lat="45.64021" lon="2.91952">
        <ele>1039.635123</ele>
        <time>2021-07-07T10:25:22+0200</time>
      </trkpt>
      <trkpt lat="45.6402" lon="2.9196">
        <ele>1040.169703</ele>
        <time>2021-07-07T10:25:24+0200</time>
      </trkpt>
      <trkpt lat="45.64019" lon="2.91968">
        <ele>1040.513191</ele>
        <time>2021-07-07T10:25:26+0200</time>
      </trkpt>
      <trkpt lat="45.64016" lon="2.91976">
        <ele>1041.115787</ele>
        <time>2021-07-07T10:25:28+0200</time>
      </trkpt>
      <trkpt lat="45.64013" lon="2.91982">
        <ele>1041.816553</ele>
        <time>2021-07-07T10:25:30+0200</time>
      </trkpt>
      <trkpt lat="45.64011" lon="2.91989">
        <ele>1042.370734</ele>
        <time>2021-07-07T10:25:32+0200</time>
      </trkpt>
      <trkpt lat="45.64007" lon="2.91995">
        <ele>1042.436046</ele>
        <time>2021-07-07T10:25:34+0200</time>
      </trkpt>
      <trkpt lat="45.64003" lon="2.92001">
        <ele>1042.856024</ele>
        <time>2021-07-07T10:25:36+0200</time>
      </trkpt>
      <trkpt lat="45.63999" lon="2.92007">
        <ele>1043.348357</ele>
        <time>2021-07-07T10:25:38+0200</time>
      </trkpt>
      <trkpt lat="45.63995" lon="2.92011">
        <ele>1043.817851</ele>
        <time>2021-07-07T10:25:40+0200</time>
      </trkpt>
      <trkpt lat="45.63991" lon="2.92016">
        <ele>1043.92702</ele>
        <time>2021-07-07T10:25:42+0200</time>
      </trkpt>
      <trkpt lat="45.63986" lon="2.92019">
        <ele>1044.11081</ele>
        <time>2021-07-07T10:25:44+0200</time>
      </trkpt>
      <trkpt lat="45.63982" lon="2.92021">
        <ele>1044.490123</ele>
        <time>2021-07-07T10:25:46+0200</time>
      </trkpt>
      <trkpt lat="45.63977" lon="2.92019">
        <ele>1045.186877</ele>
        <time>2021-07-07T10:25:49+0200</time>
      </trkpt>
      <trkpt lat="45.63975" lon="2.92012">
        <ele>1045.273069</ele>
        <time>2021-07-07T10:25:51+0200</time>
      </trkpt>
      <trkpt lat="45.63972" lon="2.92004">
        <ele>1045.274943</ele>
        <time>2021-07-07T10:25:54+0200</time>
      </trkpt>
      <trkpt lat="45.63969" lon="2.91998">
        <ele>1045.885304</ele>
        <time>2021-07-07T10:25:56+0200</time>
      </trkpt>
      <trkpt lat="45.63968" lon="2.91991">
        <ele>1045.894706</ele>
        <time>2021-07-07T10:25:58+0200</time>
      </trkpt>
      <trkpt lat="45.63965" lon="2.91983">
        <ele>1046.335558</ele>
        <time>2021-07-07T10:26:00+0200</time>
      </trkpt>
      <trkpt lat="45.63962" lon="2.91976">
        <ele>1046.8964</ele>
        <time>2021-07-07T10:26:02+0200</time>
      </trkpt>
      <trkpt lat="45.63959" lon="2.91969">
        <ele>1047.003461</ele>
        <time>2021-07-07T10:26:04+0200</time>
      </trkpt>
      <trkpt lat="45.63956" lon="2.91963">
        <ele>1047.652061</ele>
        <time>2021-07-07T10:26:06+0200</time>
      </trkpt>
      <trkpt lat="45.63954" lon="2.91956">
        <ele>1048.256111</ele>
        <time>2021-07-07T10:26:08+0200</time>
      </trkpt>
      <trkpt lat="45.63952" lon="2.91948">
        <ele>1048.090387</ele>
        <time>2021-07-07T10:26:10+0200</time>
      </trkpt>
      <trkpt lat="45.63948" lon="2.9194">
        <ele>1048.345645</ele>
        <time>2021-07-07T10:26:12+0200</time>
      </trkpt>
      <trkpt lat="45.63946" lon="2.91933">
        <ele>1048.86882</ele>
        <time>2021-07-07T10:26:14+0200</time>
      </trkpt>
      <trkpt lat="45.63943" lon="2.91925">
        <ele>1048.713617</ele>
        <time>2021-07-07T10:26:16+0200</time>
      </trkpt>
      <trkpt lat="45.63941" lon="2.91917">
        <ele>1049.457813</ele>
        <time>2021-07-07T10:26:18+0200</time>
      </trkpt>
      <trkpt lat="45.63938" lon="2.9191">
        <ele>1049.991534</ele>
        <time>2021-07-07T10:26:20+0200</time>
      </trkpt>
      <trkpt lat="45.63935" lon="2.91903">
        <ele>1050.667253</ele>
        <time>2021-07-07T10:26:22+0200</time>
      </trkpt>
      <trkpt lat="45.63933" lon="2.91895">
        <ele>1051.065665</ele>
        <time>2021-07-07T10:26:24+0200</time>
      </trkpt>
      <trkpt lat="45.63931" lon="2.91888">
        <ele>1051.225955</ele>
        <time>2021-07-07T10:26:26+0200</time>
      </trkpt>
      <trkpt lat="45.63929" lon="2.9188">
        <ele>1051.185273</ele>
        <time>2021-07-07T10:26:28+0200</time>
      </trkpt>
      <trkpt lat="45.63927" lon="2.91874">
        <ele>1051.080971</ele>
        <time>2021-07-07T10:26:30+0200</time>
      </trkpt>
      <trkpt lat="45.63925" lon="2.91867">
        <ele>1050.876608</ele>
        <time>2021-07-07T10:26:32+0200</time>
      </trkpt>
      <trkpt lat="45.63923" lon="2.9186">
        <ele>1051.753358</ele>
        <time>2021-07-07T10:26:34+0200</time>
      </trkpt>
      <trkpt lat="45.6392" lon="2.91854">
        <ele>1052.351033</ele>
        <time>2021-07-07T10:26:36+0200</time>
      </trkpt>
      <trkpt lat="45.63918" lon="2.91847">
        <ele>1053.181391</ele>
        <time>2021-07-07T10:26:38+0200</time>
      </trkpt>
      <trkpt lat="45.63915" lon="2.9184">
        <ele>1053.779934</ele>
        <time>2021-07-07T10:26:40+0200</time>
      </trkpt>
      <trkpt lat="45.63913" lon="2.91834">
        <ele>1054.520305</ele>
        <time>2021-07-07T10:26:42+0200</time>
      </trkpt>
      <trkpt lat="45.63911" lon="2.91829">
        <ele>1055.511216</ele>
        <time>2021-07-07T10:26:44+0200</time>
      </trkpt>
      <trkpt lat="45.63908" lon="2.91821">
        <ele>1056.240353</ele>
        <time>2021-07-07T10:26:46+0200</time>
      </trkpt>
      <trkpt lat="45.63907" lon="2.91812">
        <ele>1056.612933</ele>
        <time>2021-07-07T10:26:49+0200</time>
      </trkpt>
      <trkpt lat="45.63903" lon="2.91805">
        <ele>1057.158636</ele>
        <time>2021-07-07T10:26:51+0200</time>
      </trkpt>
      <trkpt lat="45.639" lon="2.91798">
        <ele>1058.153534</ele>
        <time>2021-07-07T10:26:53+0200</time>
      </trkpt>
      <trkpt lat="45.63898" lon="2.91791">
        <ele>1058.815199</ele>
        <time>2021-07-07T10:26:56+0200</time>
      </trkpt>
      <trkpt lat="45.63895" lon="2.91784">
        <ele>1059.468312</ele>
        <time>2021-07-07T10:26:59+0200</time>
      </trkpt>
      <trkpt lat="45.63893" lon="2.91776">
        <ele>1060.222037</ele>
        <time>2021-07-07T10:27:02+0200</time>
      </trkpt>
      <trkpt lat="45.6389" lon="2.91768">
        <ele>1061.145074</ele>
        <time>2021-07-07T10:27:05+0200</time>
      </trkpt>
      <trkpt lat="45.63888" lon="2.91759">
        <ele>1061.77957</ele>
        <time>2021-07-07T10:27:08+0200</time>
      </trkpt>
      <trkpt lat="45.63884" lon="2.91752">
        <ele>1062.435073</ele>
        <time>2021-07-07T10:27:11+0200</time>
      </trkpt>
      <trkpt lat="45.63882" lon="2.91744">
        <ele>1062.988062</ele>
        <time>2021-07-07T10:27:14+0200</time>
      </trkpt>
      <trkpt lat="45.63878" lon="2.91736">
        <ele>1063.546132</ele>
        <time>2021-07-07T10:27:17+0200</time>
      </trkpt>
      <trkpt lat="45.63875" lon="2.9173">
        <ele>1064.011814</ele>
        <time>2021-07-07T10:27:19+0200</time>
      </trkpt>
      <trkpt lat="45.63873" lon="2.91723">
        <ele>1064.724273</ele>
        <time>2021-07-07T10:27:22+0200</time>
      </trkpt>
      <trkpt lat="45.63871" lon="2.91715">
        <ele>1065.368079</ele>
        <time>2021-07-07T10:27:25+0200</time>
      </trkpt>
      <trkpt lat="45.63867" lon="2.91706">
        <ele>1065.989888</ele>
        <time>2021-07-07T10:27:28+0200</time>
      </trkpt>
      <trkpt lat="45.63865" lon="2.917">
        <ele>1066.422962</ele>
        <time>2021-07-07T10:27:30+0200</time>
      </trkpt>
      <trkpt lat="45.63864" lon="2.91694">
        <ele>1067.423393</ele>
        <time>2021-07-07T10:27:32+0200</time>
      </trkpt>
      <trkpt lat="45.63862" lon="2.91685">
        <ele>1067.730709</ele>
        <time>2021-07-07T10:27:35+0200</time>
      </trkpt>
      <trkpt lat="45.63859" lon="2.91677">
        <ele>1068.149191</ele>
        <time>2021-07-07T10:27:38+0200</time>
      </trkpt>
      <trkpt lat="45.63855" lon="2.91669">
        <ele>1068.688914</ele>
        <time>2021-07-07T10:27:41+0200</time>
      </trkpt>
      <trkpt lat="45.63853" lon="2.91663">
        <ele>1068.892833</ele>
        <time>2021-07-07T10:27:43+0200</time>
      </trkpt>
      <trkpt lat="45.63851" lon="2.91657">
        <ele>1068.939213</ele>
        <time>2021-07-07T10:27:45+0200</time>
      </trkpt>
      <trkpt lat="45.63849" lon="2.9165">
        <ele>1069.290132</ele>
        <time>2021-07-07T10:27:47+0200</time>
      </trkpt>
      <trkpt lat="45.63847" lon="2.91644">
        <ele>1069.944323</ele>
        <time>2021-07-07T10:27:49+0200</time>
      </trkpt>
      <trkpt lat="45.63844" lon="2.91637">
        <ele>1069.926965</ele>
        <time>2021-07-07T10:27:51+0200</time>
      </trkpt>
      <trkpt lat="45.63841" lon="2.9163">
        <ele>1070.048179</ele>
        <time>2021-07-07T10:27:53+0200</time>
      </trkpt>
      <trkpt lat="45.63838" lon="2.91621">
        <ele>1070.183828</ele>
        <time>2021-07-07T10:27:55+0200</time>
      </trkpt>
      <trkpt lat="45.63836" lon="2.91613">
        <ele>1069.90423</ele>
        <time>2021-07-07T10:27:57+0200</time>
      </trkpt>
      <trkpt lat="45.63834" lon="2.91604">
        <ele>1070.207437</ele>
        <time>2021-07-07T10:27:59+0200</time>
      </trkpt>
      <trkpt lat="45.63831" lon="2.91595">
        <ele>1070.824727</ele>
        <time>2021-07-07T10:28:01+0200</time>
      </trkpt>
      <trkpt lat="45.63828" lon="2.91586">
        <ele>1070.905779</ele>
        <time>2021-07-07T10:28:03+0200</time>
      </trkpt>
      <trkpt lat="45.63825" lon="2.91577">
        <ele>1071.368291</ele>
        <time>2021-07-07T10:28:05+0200</time>
      </trkpt>
      <trkpt lat="45.63821" lon="2.91569">
        <ele>1071.577877</ele>
        <time>2021-07-07T10:28:07+0200</time>
      </trkpt>
      <trkpt lat="45.63817" lon="2.9156">
        <ele>1071.968126</ele>
        <time>2021-07-07T10:28:09+0200</time>
      </trkpt>
      <trkpt lat="45.63814" lon="2.9155">
        <ele>1072.053884</ele>
        <time>2021-07-07T10:28:11+0200</time>
      </trkpt>
      <trkpt lat="45.6381" lon="2.9154">
        <ele>1071.994087</ele>
        <time>2021-07-07T10:28:13+0200</time>
      </trkpt>
      <trkpt lat="45.63806" lon="2.91531">
        <ele>1072.294327</ele>
        <time>2021-07-07T10:28:15+0200</time>
      </trkpt>
      <trkpt lat="45.63803" lon="2.91521">
        <ele>1072.446512</ele>
        <time>2021-07-07T10:28:17+0200</time>
      </trkpt>
      <trkpt lat="45.63799" lon="2.91511">
        <ele>1072.568477</ele>
        <time>2021-07-07T10:28:19+0200</time>
      </trkpt>
      <trkpt lat="45.63795" lon="2.91501">
        <ele>1072.487625</ele>
        <time>2021-07-07T10:28:21+0200</time>
      </trkpt>
      <trkpt lat="45.6379" lon="2.91491">
        <ele>1072.411809</ele>
        <time>2021-07-07T10:28:23+0200</time>
      </trkpt>
      <trkpt lat="45.63787" lon="2.91481">
        <ele>1072.403781</ele>
        <time>2021-07-07T10:28:25+0200</time>
      </trkpt>
      <trkpt lat="45.63783" lon="2.9147">
        <ele>1072.346136</ele>
        <time>2021-07-07T10:28:27+0200</time>
      </trkpt>
      <trkpt lat="45.63781" lon="2.91464">
        <ele>1072.389561</ele>
        <time>2021-07-07T10:28:28+0200</time>
      </trkpt>
      <trkpt lat="45.6378" lon="2.91458">
        <ele>1072.535555</ele>
        <time>2021-07-07T10:28:29+0200</time>
      </trkpt>
      <trkpt lat="45.63776" lon="2.91448">
        <ele>1072.490422</ele>
        <time>2021-07-07T10:28:31+0200</time>
      </trkpt>
      <trkpt lat="45.63774" lon="2.91442">
        <ele>1072.533218</ele>
        <time>2021-07-07T10:28:32+0200</time>
      </trkpt>
      <trkpt lat="45.63772" lon="2.91436">
        <ele>1072.638817</ele>
        <time>2021-07-07T10:28:33+0200</time>
      </trkpt>
      <trkpt lat="45.63768" lon="2.91425">
        <ele>1072.239292</ele>
        <time>2021-07-07T10:28:35+0200</time>
      </trkpt>
      <trkpt lat="45.63765" lon="2.91416">
        <ele>1072.14953</ele>
        <time>2021-07-07T10:28:37+0200</time>
      </trkpt>
      <trkpt lat="45.63761" lon="2.91404">
        <ele>1072.085432</ele>
        <time>2021-07-07T10:28:39+0200</time>
      </trkpt>
      <trkpt lat="45.63759" lon="2.91393">
        <ele>1072.618552</ele>
        <time>2021-07-07T10:28:41+0200</time>
      </trkpt>
      <trkpt lat="45.63756" lon="2.91387">
        <ele>1072.67465</ele>
        <time>2021-07-07T10:28:42+0200</time>
      </trkpt>
      <trkpt lat="45.63752" lon="2.91377">
        <ele>1072.840016</ele>
        <time>2021-07-07T10:28:44+0200</time>
      </trkpt>
      <trkpt lat="45.6375" lon="2.91371">
        <ele>1072.670839</ele>
        <time>2021-07-07T10:28:45+0200</time>
      </trkpt>
      <trkpt lat="45.63747" lon="2.91359">
        <ele>1073.027357</ele>
        <time>2021-07-07T10:28:47+0200</time>
      </trkpt>
      <trkpt lat="45.63743" lon="2.91349">
        <ele>1073.598526</ele>
        <time>2021-07-07T10:28:49+0200</time>
      </trkpt>
      <trkpt lat="45.6374" lon="2.91338">
        <ele>1073.733977</ele>
        <time>2021-07-07T10:28:51+0200</time>
      </trkpt>
      <trkpt lat="45.63735" lon="2.91327">
        <ele>1074.219439</ele>
        <time>2021-07-07T10:28:53+0200</time>
      </trkpt>
      <trkpt lat="45.63731" lon="2.91316">
        <ele>1074.981021</ele>
        <time>2021-07-07T10:28:55+0200</time>
      </trkpt>
      <trkpt lat="45.63728" lon="2.91307">
        <ele>1075.619952</ele>
        <time>2021-07-07T10:28:57+0200</time>
      </trkpt>
      <trkpt lat="45.63725" lon="2.91297">
        <ele>1075.949991</ele>
        <time>2021-07-07T10:28:59+0200</time>
      </trkpt>
      <trkpt lat="45.63722" lon="2.91288">
        <ele>1076.601771</ele>
        <time>2021-07-07T10:29:01+0200</time>
      </trkpt>
      <trkpt lat="45.63719" lon="2.91278">
        <ele>1077.149844</ele>
        <time>2021-07-07T10:29:03+0200</time>
      </trkpt>
      <trkpt lat="45.63715" lon="2.91269">
        <ele>1077.65071</ele>
        <time>2021-07-07T10:29:05+0200</time>
      </trkpt>
      <trkpt lat="45.63712" lon="2.9126">
        <ele>1078.004647</ele>
        <time>2021-07-07T10:29:07+0200</time>
      </trkpt>
      <trkpt lat="45.63709" lon="2.9125">
        <ele>1078.208867</ele>
        <time>2021-07-07T10:29:09+0200</time>
      </trkpt>
      <trkpt lat="45.63706" lon="2.91242">
        <ele>1079.083107</ele>
        <time>2021-07-07T10:29:11+0200</time>
      </trkpt>
      <trkpt lat="45.63703" lon="2.91235">
        <ele>1079.995157</ele>
        <time>2021-07-07T10:29:13+0200</time>
      </trkpt>
      <trkpt lat="45.637" lon="2.91227">
        <ele>1080.523145</ele>
        <time>2021-07-07T10:29:15+0200</time>
      </trkpt>
      <trkpt lat="45.63697" lon="2.9122">
        <ele>1081.207991</ele>
        <time>2021-07-07T10:29:17+0200</time>
      </trkpt>
      <trkpt lat="45.63694" lon="2.91214">
        <ele>1081.688667</ele>
        <time>2021-07-07T10:29:19+0200</time>
      </trkpt>
      <trkpt lat="45.63692" lon="2.91206">
        <ele>1081.862502</ele>
        <time>2021-07-07T10:29:21+0200</time>
      </trkpt>
      <trkpt lat="45.6369" lon="2.91199">
        <ele>1082.237248</ele>
        <time>2021-07-07T10:29:23+0200</time>
      </trkpt>
      <trkpt lat="45.63688" lon="2.91191">
        <ele>1082.437723</ele>
        <time>2021-07-07T10:29:25+0200</time>
      </trkpt>
      <trkpt lat="45.63685" lon="2.91184">
        <ele>1082.483653</ele>
        <time>2021-07-07T10:29:27+0200</time>
      </trkpt>
      <trkpt lat="45.63683" lon="2.91176">
        <ele>1083.069617</ele>
        <time>2021-07-07T10:29:29+0200</time>
      </trkpt>
      <trkpt lat="45.6368" lon="2.91168">
        <ele>1083.176774</ele>
        <time>2021-07-07T10:29:31+0200</time>
      </trkpt>
      <trkpt lat="45.63677" lon="2.9116">
        <ele>1083.638451</ele>
        <time>2021-07-07T10:29:33+0200</time>
      </trkpt>
      <trkpt lat="45.63674" lon="2.91152">
        <ele>1083.958342</ele>
        <time>2021-07-07T10:29:35+0200</time>
      </trkpt>
      <trkpt lat="45.63671" lon="2.91144">
        <ele>1084.363466</ele>
        <time>2021-07-07T10:29:37+0200</time>
      </trkpt>
      <trkpt lat="45.63668" lon="2.91136">
        <ele>1084.800795</ele>
        <time>2021-07-07T10:29:39+0200</time>
      </trkpt>
      <trkpt lat="45.63666" lon="2.91128">
        <ele>1084.871598</ele>
        <time>2021-07-07T10:29:41+0200</time>
      </trkpt>
      <trkpt lat="45.63663" lon="2.91121">
        <ele>1084.946059</ele>
        <time>2021-07-07T10:29:43+0200</time>
      </trkpt>
      <trkpt lat="45.63661" lon="2.91114">
        <ele>1084.746994</ele>
        <time>2021-07-07T10:29:45+0200</time>
      </trkpt>
      <trkpt lat="45.63658" lon="2.91107">
        <ele>1084.80048</ele>
        <time>2021-07-07T10:29:47+0200</time>
      </trkpt>
      <trkpt lat="45.63655" lon="2.911">
        <ele>1084.544798</ele>
        <time>2021-07-07T10:29:49+0200</time>
      </trkpt>
      <trkpt lat="45.63653" lon="2.91093">
        <ele>1084.549636</ele>
        <time>2021-07-07T10:29:51+0200</time>
      </trkpt>
      <trkpt lat="45.6365" lon="2.91084">
        <ele>1084.80598</ele>
        <time>2021-07-07T10:29:53+0200</time>
      </trkpt>
      <trkpt lat="45.63648" lon="2.91077">
        <ele>1085.06551</ele>
        <time>2021-07-07T10:29:55+0200</time>
      </trkpt>
      <trkpt lat="45.63647" lon="2.91085">
        <ele>1084.968058</ele>
        <time>2021-07-07T10:29:58+0200</time>
      </trkpt>
      <trkpt lat="45.63649" lon="2.9109">
        <ele>1084.987361</ele>
        <time>2021-07-07T10:30:00+0200</time>
      </trkpt>
      <trkpt lat="45.63651" lon="2.91083">
        <ele>1084.637862</ele>
        <time>2021-07-07T10:31:39+0200</time>
      </trkpt>
      <trkpt lat="45.63646" lon="2.91075">
        <ele>1084.469301</ele>
        <time>2021-07-07T10:31:42+0200</time>
      </trkpt>
      <trkpt lat="45.63644" lon="2.91068">
        <ele>1084.429938</ele>
        <time>2021-07-07T10:31:44+0200</time>
      </trkpt>
      <trkpt lat="45.63642" lon="2.91061">
        <ele>1084.89735</ele>
        <time>2021-07-07T10:31:46+0200</time>
      </trkpt>
      <trkpt lat="45.63639" lon="2.91052">
        <ele>1085.333721</ele>
        <time>2021-07-07T10:31:48+0200</time>
      </trkpt>
      <trkpt lat="45.63636" lon="2.91042">
        <ele>1085.802169</ele>
        <time>2021-07-07T10:31:50+0200</time>
      </trkpt>
      <trkpt lat="45.63633" lon="2.91033">
        <ele>1086.31856</ele>
        <time>2021-07-07T10:31:52+0200</time>
      </trkpt>
      <trkpt lat="45.6363" lon="2.91025">
        <ele>1086.402384</ele>
        <time>2021-07-07T10:31:54+0200</time>
      </trkpt>
      <trkpt lat="45.63627" lon="2.91017">
        <ele>1087.1233</ele>
        <time>2021-07-07T10:31:56+0200</time>
      </trkpt>
      <trkpt lat="45.63624" lon="2.9101">
        <ele>1087.539055</ele>
        <time>2021-07-07T10:31:58+0200</time>
      </trkpt>
      <trkpt lat="45.63621" lon="2.91002">
        <ele>1087.64415</ele>
        <time>2021-07-07T10:32:00+0200</time>
      </trkpt>
      <trkpt lat="45.63618" lon="2.90993">
        <ele>1087.878797</ele>
        <time>2021-07-07T10:32:02+0200</time>
      </trkpt>
      <trkpt lat="45.63615" lon="2.90985">
        <ele>1087.793068</ele>
        <time>2021-07-07T10:32:04+0200</time>
      </trkpt>
      <trkpt lat="45.63611" lon="2.90977">
        <ele>1088.032743</ele>
        <time>2021-07-07T10:32:06+0200</time>
      </trkpt>
      <trkpt lat="45.63608" lon="2.90967">
        <ele>1087.70933</ele>
        <time>2021-07-07T10:32:08+0200</time>
      </trkpt>
      <trkpt lat="45.63605" lon="2.90955">
        <ele>1086.993878</ele>
        <time>2021-07-07T10:32:10+0200</time>
      </trkpt>
      <trkpt lat="45.63602" lon="2.90944">
        <ele>1086.681861</ele>
        <time>2021-07-07T10:32:12+0200</time>
      </trkpt>
      <trkpt lat="45.63598" lon="2.90933">
        <ele>1086.557454</ele>
        <time>2021-07-07T10:32:14+0200</time>
      </trkpt>
      <trkpt lat="45.63596" lon="2.90927">
        <ele>1086.463485</ele>
        <time>2021-07-07T10:32:15+0200</time>
      </trkpt>
      <trkpt lat="45.63593" lon="2.90921">
        <ele>1086.397619</ele>
        <time>2021-07-07T10:32:16+0200</time>
      </trkpt>
      <trkpt lat="45.63589" lon="2.9091">
        <ele>1085.384266</ele>
        <time>2021-07-07T10:32:18+0200</time>
      </trkpt>
      <trkpt lat="45.63584" lon="2.90899">
        <ele>1085.581244</ele>
        <time>2021-07-07T10:32:20+0200</time>
      </trkpt>
      <trkpt lat="45.63581" lon="2.90889">
        <ele>1086.112627</ele>
        <time>2021-07-07T10:32:22+0200</time>
      </trkpt>
      <trkpt lat="45.63578" lon="2.90879">
        <ele>1086.14416</ele>
        <time>2021-07-07T10:32:24+0200</time>
      </trkpt>
      <trkpt lat="45.63574" lon="2.90869">
        <ele>1085.793146</ele>
        <time>2021-07-07T10:32:26+0200</time>
      </trkpt>
      <trkpt lat="45.63572" lon="2.90863">
        <ele>1085.48978</ele>
        <time>2021-07-07T10:32:27+0200</time>
      </trkpt>
      <trkpt lat="45.6357" lon="2.90858">
        <ele>1084.963375</ele>
        <time>2021-07-07T10:32:28+0200</time>
      </trkpt>
      <trkpt lat="45.63566" lon="2.90847">
        <ele>1084.320242</ele>
        <time>2021-07-07T10:32:30+0200</time>
      </trkpt>
      <trkpt lat="45.63563" lon="2.9084">
        <ele>1084.08318</ele>
        <time>2021-07-07T10:32:31+0200</time>
      </trkpt>
      <trkpt lat="45.63561" lon="2.90834">
        <ele>1084.106202</ele>
        <time>2021-07-07T10:32:32+0200</time>
      </trkpt>
      <trkpt lat="45.63559" lon="2.90827">
        <ele>1084.129516</ele>
        <time>2021-07-07T10:32:33+0200</time>
      </trkpt>
      <trkpt lat="45.63558" lon="2.90821">
        <ele>1084.640021</ele>
        <time>2021-07-07T10:32:34+0200</time>
      </trkpt>
      <trkpt lat="45.63556" lon="2.90815">
        <ele>1084.81981</ele>
        <time>2021-07-07T10:32:35+0200</time>
      </trkpt>
      <trkpt lat="45.63551" lon="2.90804">
        <ele>1085.497691</ele>
        <time>2021-07-07T10:32:37+0200</time>
      </trkpt>
      <trkpt lat="45.6355" lon="2.90797">
        <ele>1085.31921</ele>
        <time>2021-07-07T10:32:38+0200</time>
      </trkpt>
      <trkpt lat="45.63547" lon="2.90791">
        <ele>1085.209791</ele>
        <time>2021-07-07T10:32:39+0200</time>
      </trkpt>
      <trkpt lat="45.63543" lon="2.9078">
        <ele>1085.37491</ele>
        <time>2021-07-07T10:32:41+0200</time>
      </trkpt>
      <trkpt lat="45.63539" lon="2.90769">
        <ele>1085.671393</ele>
        <time>2021-07-07T10:32:43+0200</time>
      </trkpt>
      <trkpt lat="45.63536" lon="2.90758">
        <ele>1086.119655</ele>
        <time>2021-07-07T10:32:45+0200</time>
      </trkpt>
      <trkpt lat="45.63532" lon="2.90748">
        <ele>1086.804073</ele>
        <time>2021-07-07T10:32:47+0200</time>
      </trkpt>
      <trkpt lat="45.6353" lon="2.90742">
        <ele>1086.803157</ele>
        <time>2021-07-07T10:32:48+0200</time>
      </trkpt>
      <trkpt lat="45.63527" lon="2.90737">
        <ele>1086.932627</ele>
        <time>2021-07-07T10:32:49+0200</time>
      </trkpt>
      <trkpt lat="45.63522" lon="2.90727">
        <ele>1087.0198</ele>
        <time>2021-07-07T10:32:51+0200</time>
      </trkpt>
      <trkpt lat="45.63519" lon="2.90717">
        <ele>1087.243168</ele>
        <time>2021-07-07T10:32:53+0200</time>
      </trkpt>
      <trkpt lat="45.63518" lon="2.90707">
        <ele>1087.508619</ele>
        <time>2021-07-07T10:32:55+0200</time>
      </trkpt>
      <trkpt lat="45.6352" lon="2.90698">
        <ele>1087.167516</ele>
        <time>2021-07-07T10:32:57+0200</time>
      </trkpt>
      <trkpt lat="45.63524" lon="2.90692">
        <ele>1086.721228</ele>
        <time>2021-07-07T10:32:59+0200</time>
      </trkpt>
      <trkpt lat="45.6353" lon="2.90687">
        <ele>1087.503221</ele>
        <time>2021-07-07T10:33:02+0200</time>
      </trkpt>
      <trkpt lat="45.63535" lon="2.90682">
        <ele>1087.862118</ele>
        <time>2021-07-07T10:33:04+0200</time>
      </trkpt>
      <trkpt lat="45.63541" lon="2.90679">
        <ele>1089.006938</ele>
        <time>2021-07-07T10:33:06+0200</time>
      </trkpt>
      <trkpt lat="45.63546" lon="2.90675">
        <ele>1089.511318</ele>
        <time>2021-07-07T10:33:08+0200</time>
      </trkpt>
      <trkpt lat="45.63552" lon="2.90671">
        <ele>1089.902667</ele>
        <time>2021-07-07T10:33:10+0200</time>
      </trkpt>
      <trkpt lat="45.63558" lon="2.90668">
        <ele>1090.338217</ele>
        <time>2021-07-07T10:33:12+0200</time>
      </trkpt>
      <trkpt lat="45.63563" lon="2.90664">
        <ele>1091.169686</ele>
        <time>2021-07-07T10:33:14+0200</time>
      </trkpt>
      <trkpt lat="45.63569" lon="2.90661">
        <ele>1091.583597</ele>
        <time>2021-07-07T10:33:16+0200</time>
      </trkpt>
      <trkpt lat="45.63573" lon="2.90656">
        <ele>1091.741456</ele>
        <time>2021-07-07T10:33:18+0200</time>
      </trkpt>
      <trkpt lat="45.63579" lon="2.90653">
        <ele>1092.834601</ele>
        <time>2021-07-07T10:33:20+0200</time>
      </trkpt>
      <trkpt lat="45.63584" lon="2.90649">
        <ele>1093.573515</ele>
        <time>2021-07-07T10:33:22+0200</time>
      </trkpt>
      <trkpt lat="45.63589" lon="2.90646">
        <ele>1094.332811</ele>
        <time>2021-07-07T10:33:24+0200</time>
      </trkpt>
      <trkpt lat="45.63595" lon="2.90642">
        <ele>1094.886012</ele>
        <time>2021-07-07T10:33:27+0200</time>
      </trkpt>
      <trkpt lat="45.636" lon="2.90638">
        <ele>1095.820416</ele>
        <time>2021-07-07T10:33:29+0200</time>
      </trkpt>
      <trkpt lat="45.63605" lon="2.90634">
        <ele>1096.461604</ele>
        <time>2021-07-07T10:33:31+0200</time>
      </trkpt>
      <trkpt lat="45.63609" lon="2.90631">
        <ele>1096.812248</ele>
        <time>2021-07-07T10:33:33+0200</time>
      </trkpt>
      <trkpt lat="45.63614" lon="2.90625">
        <ele>1097.674174</ele>
        <time>2021-07-07T10:33:36+0200</time>
      </trkpt>
      <trkpt lat="45.63619" lon="2.90623">
        <ele>1098.124769</ele>
        <time>2021-07-07T10:33:38+0200</time>
      </trkpt>
      <trkpt lat="45.63623" lon="2.90618">
        <ele>1098.296752</ele>
        <time>2021-07-07T10:33:41+0200</time>
      </trkpt>
      <trkpt lat="45.63628" lon="2.90613">
        <ele>1099.066906</ele>
        <time>2021-07-07T10:33:44+0200</time>
      </trkpt>
      <trkpt lat="45.63634" lon="2.90609">
        <ele>1099.462129</ele>
        <time>2021-07-07T10:33:47+0200</time>
      </trkpt>
      <trkpt lat="45.63639" lon="2.90606">
        <ele>1099.96128</ele>
        <time>2021-07-07T10:33:49+0200</time>
      </trkpt>
      <trkpt lat="45.63645" lon="2.90602">
        <ele>1100.637639</ele>
        <time>2021-07-07T10:33:52+0200</time>
      </trkpt>
      <trkpt lat="45.63649" lon="2.906">
        <ele>1101.086987</ele>
        <time>2021-07-07T10:33:54+0200</time>
      </trkpt>
      <trkpt lat="45.63654" lon="2.90597">
        <ele>1101.582905</ele>
        <time>2021-07-07T10:33:56+0200</time>
      </trkpt>
      <trkpt lat="45.63659" lon="2.90592">
        <ele>1101.978893</ele>
        <time>2021-07-07T10:33:59+0200</time>
      </trkpt>
      <trkpt lat="45.63665" lon="2.90589">
        <ele>1102.678116</ele>
        <time>2021-07-07T10:34:02+0200</time>
      </trkpt>
      <trkpt lat="45.63669" lon="2.90586">
        <ele>1102.885204</ele>
        <time>2021-07-07T10:34:04+0200</time>
      </trkpt>
      <trkpt lat="45.63674" lon="2.90583">
        <ele>1103.21763</ele>
        <time>2021-07-07T10:34:06+0200</time>
      </trkpt>
      <trkpt lat="45.63678" lon="2.9058">
        <ele>1103.599458</ele>
        <time>2021-07-07T10:34:08+0200</time>
      </trkpt>
      <trkpt lat="45.63683" lon="2.90576">
        <ele>1103.886707</ele>
        <time>2021-07-07T10:34:10+0200</time>
      </trkpt>
      <trkpt lat="45.63688" lon="2.90572">
        <ele>1104.977148</ele>
        <time>2021-07-07T10:34:13+0200</time>
      </trkpt>
      <trkpt lat="45.63694" lon="2.90568">
        <ele>1105.963082</ele>
        <time>2021-07-07T10:34:16+0200</time>
      </trkpt>
      <trkpt lat="45.637" lon="2.90563">
        <ele>1106.431933</ele>
        <time>2021-07-07T10:34:19+0200</time>
      </trkpt>
      <trkpt lat="45.63705" lon="2.90556">
        <ele>1106.896159</ele>
        <time>2021-07-07T10:34:22+0200</time>
      </trkpt>
      <trkpt lat="45.63708" lon="2.90551">
        <ele>1106.008785</ele>
        <time>2021-07-07T10:34:24+0200</time>
      </trkpt>
      <trkpt lat="45.63708" lon="2.90543">
        <ele>1105.209408</ele>
        <time>2021-07-07T10:34:26+0200</time>
      </trkpt>
      <trkpt lat="45.63707" lon="2.90536">
        <ele>1105.695857</ele>
        <time>2021-07-07T10:34:28+0200</time>
      </trkpt>
      <trkpt lat="45.63704" lon="2.90529">
        <ele>1106.10116</ele>
        <time>2021-07-07T10:34:30+0200</time>
      </trkpt>
      <trkpt lat="45.63702" lon="2.90522">
        <ele>1106.091728</ele>
        <time>2021-07-07T10:34:32+0200</time>
      </trkpt>
      <trkpt lat="45.637" lon="2.90515">
        <ele>1106.239772</ele>
        <time>2021-07-07T10:34:34+0200</time>
      </trkpt>
      <trkpt lat="45.63698" lon="2.90507">
        <ele>1106.48235</ele>
        <time>2021-07-07T10:34:36+0200</time>
      </trkpt>
      <trkpt lat="45.63696" lon="2.905">
        <ele>1107.19578</ele>
        <time>2021-07-07T10:34:38+0200</time>
      </trkpt>
      <trkpt lat="45.63693" lon="2.90492">
        <ele>1107.165084</ele>
        <time>2021-07-07T10:34:40+0200</time>
      </trkpt>
      <trkpt lat="45.63691" lon="2.90485">
        <ele>1107.129704</ele>
        <time>2021-07-07T10:34:42+0200</time>
      </trkpt>
      <trkpt lat="45.63688" lon="2.90478">
        <ele>1107.678267</ele>
        <time>2021-07-07T10:34:44+0200</time>
      </trkpt>
      <trkpt lat="45.63686" lon="2.9047">
        <ele>1108.048949</ele>
        <time>2021-07-07T10:34:46+0200</time>
      </trkpt>
      <trkpt lat="45.63684" lon="2.90462">
        <ele>1108.521999</ele>
        <time>2021-07-07T10:34:48+0200</time>
      </trkpt>
      <trkpt lat="45.63681" lon="2.90454">
        <ele>1108.86668</ele>
        <time>2021-07-07T10:34:50+0200</time>
      </trkpt>
      <trkpt lat="45.63678" lon="2.90445">
        <ele>1109.096962</ele>
        <time>2021-07-07T10:34:52+0200</time>
      </trkpt>
      <trkpt lat="45.63676" lon="2.90438">
        <ele>1109.359818</ele>
        <time>2021-07-07T10:34:54+0200</time>
      </trkpt>
      <trkpt lat="45.63673" lon="2.90431">
        <ele>1109.802765</ele>
        <time>2021-07-07T10:34:56+0200</time>
      </trkpt>
      <trkpt lat="45.63671" lon="2.90424">
        <ele>1110.378491</ele>
        <time>2021-07-07T10:34:58+0200</time>
      </trkpt>
      <trkpt lat="45.63668" lon="2.90416">
        <ele>1111.276662</ele>
        <time>2021-07-07T10:35:00+0200</time>
      </trkpt>
      <trkpt lat="45.63665" lon="2.90408">
        <ele>1111.869234</ele>
        <time>2021-07-07T10:35:02+0200</time>
      </trkpt>
      <trkpt lat="45.63662" lon="2.904">
        <ele>1112.261503</ele>
        <time>2021-07-07T10:35:04+0200</time>
      </trkpt>
      <trkpt lat="45.6366" lon="2.90392">
        <ele>1112.24573</ele>
        <time>2021-07-07T10:35:06+0200</time>
      </trkpt>
      <trkpt lat="45.63658" lon="2.90382">
        <ele>1112.222506</ele>
        <time>2021-07-07T10:35:08+0200</time>
      </trkpt>
      <trkpt lat="45.63655" lon="2.90374">
        <ele>1112.824098</ele>
        <time>2021-07-07T10:35:10+0200</time>
      </trkpt>
      <trkpt lat="45.63653" lon="2.90365">
        <ele>1113.55077</ele>
        <time>2021-07-07T10:35:12+0200</time>
      </trkpt>
      <trkpt lat="45.63649" lon="2.90356">
        <ele>1113.220367</ele>
        <time>2021-07-07T10:35:14+0200</time>
      </trkpt>
      <trkpt lat="45.63647" lon="2.90347">
        <ele>1113.575277</ele>
        <time>2021-07-07T10:35:16+0200</time>
      </trkpt>
      <trkpt lat="45.63643" lon="2.90339">
        <ele>1113.841928</ele>
        <time>2021-07-07T10:35:18+0200</time>
      </trkpt>
      <trkpt lat="45.63641" lon="2.90331">
        <ele>1114.288109</ele>
        <time>2021-07-07T10:35:20+0200</time>
      </trkpt>
      <trkpt lat="45.63638" lon="2.90322">
        <ele>1114.685743</ele>
        <time>2021-07-07T10:35:22+0200</time>
      </trkpt>
      <trkpt lat="45.63635" lon="2.90314">
        <ele>1114.924795</ele>
        <time>2021-07-07T10:35:24+0200</time>
      </trkpt>
      <trkpt lat="45.63632" lon="2.90305">
        <ele>1115.397143</ele>
        <time>2021-07-07T10:35:26+0200</time>
      </trkpt>
      <trkpt lat="45.63629" lon="2.90297">
        <ele>1116.074507</ele>
        <time>2021-07-07T10:35:28+0200</time>
      </trkpt>
      <trkpt lat="45.63626" lon="2.90288">
        <ele>1116.541743</ele>
        <time>2021-07-07T10:35:30+0200</time>
      </trkpt>
      <trkpt lat="45.63624" lon="2.90279">
        <ele>1116.613805</ele>
        <time>2021-07-07T10:35:32+0200</time>
      </trkpt>
      <trkpt lat="45.63622" lon="2.90271">
        <ele>1116.697457</ele>
        <time>2021-07-07T10:35:34+0200</time>
      </trkpt>
      <trkpt lat="45.63619" lon="2.90264">
        <ele>1116.562496</ele>
        <time>2021-07-07T10:35:36+0200</time>
      </trkpt>
      <trkpt lat="45.63617" lon="2.90258">
        <ele>1116.503386</ele>
        <time>2021-07-07T10:35:38+0200</time>
      </trkpt>
      <trkpt lat="45.63615" lon="2.9025">
        <ele>1116.978157</ele>
        <time>2021-07-07T10:35:41+0200</time>
      </trkpt>
      <trkpt lat="45.63612" lon="2.90244">
        <ele>1116.620372</ele>
        <time>2021-07-07T10:35:43+0200</time>
      </trkpt>
      <trkpt lat="45.6361" lon="2.90238">
        <ele>1116.516863</ele>
        <time>2021-07-07T10:35:47+0200</time>
      </trkpt>
      <trkpt lat="45.6361" lon="2.90231">
        <ele>1118.025001</ele>
        <time>2021-07-07T10:36:36+0200</time>
      </trkpt>
      <trkpt lat="45.63607" lon="2.90223">
        <ele>1117.753819</ele>
        <time>2021-07-07T10:36:39+0200</time>
      </trkpt>
      <trkpt lat="45.63604" lon="2.90215">
        <ele>1117.476479</ele>
        <time>2021-07-07T10:36:41+0200</time>
      </trkpt>
      <trkpt lat="45.63601" lon="2.90207">
        <ele>1117.21958</ele>
        <time>2021-07-07T10:36:43+0200</time>
      </trkpt>
      <trkpt lat="45.63599" lon="2.902">
        <ele>1117.580798</ele>
        <time>2021-07-07T10:36:45+0200</time>
      </trkpt>
      <trkpt lat="45.63597" lon="2.90193">
        <ele>1117.550364</ele>
        <time>2021-07-07T10:36:47+0200</time>
      </trkpt>
      <trkpt lat="45.63594" lon="2.90186">
        <ele>1117.060521</ele>
        <time>2021-07-07T10:36:49+0200</time>
      </trkpt>
      <trkpt lat="45.63592" lon="2.90178">
        <ele>1117.344024</ele>
        <time>2021-07-07T10:36:51+0200</time>
      </trkpt>
      <trkpt lat="45.63589" lon="2.90171">
        <ele>1118.197656</ele>
        <time>2021-07-07T10:36:53+0200</time>
      </trkpt>
      <trkpt lat="45.63586" lon="2.90163">
        <ele>1118.366785</ele>
        <time>2021-07-07T10:36:55+0200</time>
      </trkpt>
      <trkpt lat="45.63583" lon="2.90155">
        <ele>1118.397351</ele>
        <time>2021-07-07T10:36:57+0200</time>
      </trkpt>
      <trkpt lat="45.63581" lon="2.90146">
        <ele>1118.513715</ele>
        <time>2021-07-07T10:36:59+0200</time>
      </trkpt>
      <trkpt lat="45.63579" lon="2.90136">
        <ele>1118.727009</ele>
        <time>2021-07-07T10:37:01+0200</time>
      </trkpt>
      <trkpt lat="45.63577" lon="2.90128">
        <ele>1119.040116</ele>
        <time>2021-07-07T10:37:03+0200</time>
      </trkpt>
      <trkpt lat="45.63574" lon="2.90121">
        <ele>1119.254325</ele>
        <time>2021-07-07T10:37:05+0200</time>
      </trkpt>
      <trkpt lat="45.63571" lon="2.90113">
        <ele>1119.933793</ele>
        <time>2021-07-07T10:37:07+0200</time>
      </trkpt>
      <trkpt lat="45.63567" lon="2.90104">
        <ele>1120.142246</ele>
        <time>2021-07-07T10:37:09+0200</time>
      </trkpt>
      <trkpt lat="45.63565" lon="2.90096">
        <ele>1119.940791</ele>
        <time>2021-07-07T10:37:11+0200</time>
      </trkpt>
      <trkpt lat="45.63562" lon="2.90088">
        <ele>1119.834124</ele>
        <time>2021-07-07T10:37:13+0200</time>
      </trkpt>
      <trkpt lat="45.6356" lon="2.90079">
        <ele>1120.395685</ele>
        <time>2021-07-07T10:37:15+0200</time>
      </trkpt>
      <trkpt lat="45.63557" lon="2.90071">
        <ele>1120.982491</ele>
        <time>2021-07-07T10:37:17+0200</time>
      </trkpt>
      <trkpt lat="45.63554" lon="2.90063">
        <ele>1121.134668</ele>
        <time>2021-07-07T10:37:19+0200</time>
      </trkpt>
      <trkpt lat="45.63551" lon="2.90051">
        <ele>1120.893407</ele>
        <time>2021-07-07T10:37:21+0200</time>
      </trkpt>
      <trkpt lat="45.63547" lon="2.90042">
        <ele>1121.039497</ele>
        <time>2021-07-07T10:37:23+0200</time>
      </trkpt>
      <trkpt lat="45.63544" lon="2.90031">
        <ele>1120.945608</ele>
        <time>2021-07-07T10:37:25+0200</time>
      </trkpt>
      <trkpt lat="45.63541" lon="2.90022">
        <ele>1121.113884</ele>
        <time>2021-07-07T10:37:27+0200</time>
      </trkpt>
      <trkpt lat="45.63538" lon="2.90012">
        <ele>1120.707145</ele>
        <time>2021-07-07T10:37:29+0200</time>
      </trkpt>
      <trkpt lat="45.63535" lon="2.90001">
        <ele>1120.774723</ele>
        <time>2021-07-07T10:37:31+0200</time>
      </trkpt>
      <trkpt lat="45.63531" lon="2.89991">
        <ele>1121.20321</ele>
        <time>2021-07-07T10:37:33+0200</time>
      </trkpt>
      <trkpt lat="45.63529" lon="2.89981">
        <ele>1121.646035</ele>
        <time>2021-07-07T10:37:35+0200</time>
      </trkpt>
      <trkpt lat="45.63526" lon="2.89971">
        <ele>1122.038729</ele>
        <time>2021-07-07T10:37:37+0200</time>
      </trkpt>
      <trkpt lat="45.63521" lon="2.89961">
        <ele>1122.466537</ele>
        <time>2021-07-07T10:37:39+0200</time>
      </trkpt>
      <trkpt lat="45.63518" lon="2.8995">
        <ele>1122.360358</ele>
        <time>2021-07-07T10:37:41+0200</time>
      </trkpt>
      <trkpt lat="45.63516" lon="2.89943">
        <ele>1122.232724</ele>
        <time>2021-07-07T10:37:42+0200</time>
      </trkpt>
      <trkpt lat="45.63513" lon="2.89931">
        <ele>1122.369097</ele>
        <time>2021-07-07T10:37:44+0200</time>
      </trkpt>
      <trkpt lat="45.63509" lon="2.89922">
        <ele>1122.195776</ele>
        <time>2021-07-07T10:37:46+0200</time>
      </trkpt>
      <trkpt lat="45.63506" lon="2.89913">
        <ele>1122.725187</ele>
        <time>2021-07-07T10:37:48+0200</time>
      </trkpt>
      <trkpt lat="45.63503" lon="2.89903">
        <ele>1122.787286</ele>
        <time>2021-07-07T10:37:50+0200</time>
      </trkpt>
      <trkpt lat="45.63499" lon="2.89891">
        <ele>1122.986803</ele>
        <time>2021-07-07T10:37:52+0200</time>
      </trkpt>
      <trkpt lat="45.63495" lon="2.89882">
        <ele>1122.979621</ele>
        <time>2021-07-07T10:37:54+0200</time>
      </trkpt>
      <trkpt lat="45.63492" lon="2.89872">
        <ele>1123.313326</ele>
        <time>2021-07-07T10:37:56+0200</time>
      </trkpt>
      <trkpt lat="45.63489" lon="2.89863">
        <ele>1123.522835</ele>
        <time>2021-07-07T10:37:58+0200</time>
      </trkpt>
      <trkpt lat="45.63486" lon="2.89853">
        <ele>1123.65086</ele>
        <time>2021-07-07T10:38:00+0200</time>
      </trkpt>
      <trkpt lat="45.63482" lon="2.89843">
        <ele>1123.557874</ele>
        <time>2021-07-07T10:38:02+0200</time>
      </trkpt>
      <trkpt lat="45.63479" lon="2.89831">
        <ele>1123.170076</ele>
        <time>2021-07-07T10:38:04+0200</time>
      </trkpt>
      <trkpt lat="45.63476" lon="2.89819">
        <ele>1122.217087</ele>
        <time>2021-07-07T10:38:06+0200</time>
      </trkpt>
      <trkpt lat="45.63472" lon="2.89809">
        <ele>1122.00202</ele>
        <time>2021-07-07T10:38:08+0200</time>
      </trkpt>
      <trkpt lat="45.63469" lon="2.89798">
        <ele>1122.253502</ele>
        <time>2021-07-07T10:38:10+0200</time>
      </trkpt>
      <trkpt lat="45.63465" lon="2.89787">
        <ele>1121.744052</ele>
        <time>2021-07-07T10:38:12+0200</time>
      </trkpt>
      <trkpt lat="45.63462" lon="2.89776">
        <ele>1122.411006</ele>
        <time>2021-07-07T10:38:14+0200</time>
      </trkpt>
      <trkpt lat="45.63459" lon="2.89765">
        <ele>1122.150587</ele>
        <time>2021-07-07T10:38:16+0200</time>
      </trkpt>
      <trkpt lat="45.63457" lon="2.89755">
        <ele>1121.792787</ele>
        <time>2021-07-07T10:38:18+0200</time>
      </trkpt>
      <trkpt lat="45.63455" lon="2.89745">
        <ele>1122.093069</ele>
        <time>2021-07-07T10:38:20+0200</time>
      </trkpt>
      <trkpt lat="45.63454" lon="2.89734">
        <ele>1121.683238</ele>
        <time>2021-07-07T10:38:22+0200</time>
      </trkpt>
      <trkpt lat="45.63454" lon="2.89727">
        <ele>1121.556957</ele>
        <time>2021-07-07T10:38:23+0200</time>
      </trkpt>
      <trkpt lat="45.63455" lon="2.89718">
        <ele>1121.598959</ele>
        <time>2021-07-07T10:38:25+0200</time>
      </trkpt>
      <trkpt lat="45.63456" lon="2.89708">
        <ele>1121.649301</ele>
        <time>2021-07-07T10:38:27+0200</time>
      </trkpt>
      <trkpt lat="45.63457" lon="2.89699">
        <ele>1121.509178</ele>
        <time>2021-07-07T10:38:29+0200</time>
      </trkpt>
      <trkpt lat="45.63458" lon="2.89688">
        <ele>1121.132451</ele>
        <time>2021-07-07T10:38:31+0200</time>
      </trkpt>
      <trkpt lat="45.63459" lon="2.89678">
        <ele>1121.918987</ele>
        <time>2021-07-07T10:38:33+0200</time>
      </trkpt>
      <trkpt lat="45.6346" lon="2.89668">
        <ele>1122.615803</ele>
        <time>2021-07-07T10:38:35+0200</time>
      </trkpt>
      <trkpt lat="45.63461" lon="2.89657">
        <ele>1123.01329</ele>
        <time>2021-07-07T10:38:37+0200</time>
      </trkpt>
      <trkpt lat="45.63462" lon="2.89646">
        <ele>1123.312043</ele>
        <time>2021-07-07T10:38:39+0200</time>
      </trkpt>
      <trkpt lat="45.63463" lon="2.89635">
        <ele>1123.499681</ele>
        <time>2021-07-07T10:38:41+0200</time>
      </trkpt>
      <trkpt lat="45.63463" lon="2.89624">
        <ele>1124.134659</ele>
        <time>2021-07-07T10:38:43+0200</time>
      </trkpt>
      <trkpt lat="45.63464" lon="2.89614">
        <ele>1124.240665</ele>
        <time>2021-07-07T10:38:45+0200</time>
      </trkpt>
      <trkpt lat="45.63465" lon="2.89604">
        <ele>1124.574806</ele>
        <time>2021-07-07T10:38:47+0200</time>
      </trkpt>
      <trkpt lat="45.63465" lon="2.89594">
        <ele>1124.837989</ele>
        <time>2021-07-07T10:38:49+0200</time>
      </trkpt>
      <trkpt lat="45.63467" lon="2.89585">
        <ele>1124.756414</ele>
        <time>2021-07-07T10:38:51+0200</time>
      </trkpt>
      <trkpt lat="45.63468" lon="2.89575">
        <ele>1124.590092</ele>
        <time>2021-07-07T10:38:53+0200</time>
      </trkpt>
      <trkpt lat="45.63468" lon="2.89566">
        <ele>1125.6442</ele>
        <time>2021-07-07T10:38:55+0200</time>
      </trkpt>
      <trkpt lat="45.63469" lon="2.89556">
        <ele>1125.911552</ele>
        <time>2021-07-07T10:38:57+0200</time>
      </trkpt>
      <trkpt lat="45.6347" lon="2.89548">
        <ele>1126.435817</ele>
        <time>2021-07-07T10:38:59+0200</time>
      </trkpt>
      <trkpt lat="45.63471" lon="2.8954">
        <ele>1127.471491</ele>
        <time>2021-07-07T10:39:01+0200</time>
      </trkpt>
      <trkpt lat="45.63471" lon="2.89531">
        <ele>1127.876461</ele>
        <time>2021-07-07T10:39:03+0200</time>
      </trkpt>
      <trkpt lat="45.63472" lon="2.89523">
        <ele>1127.370232</ele>
        <time>2021-07-07T10:39:05+0200</time>
      </trkpt>
      <trkpt lat="45.63469" lon="2.89516">
        <ele>1127.445797</ele>
        <time>2021-07-07T10:39:08+0200</time>
      </trkpt>
      <trkpt lat="45.63464" lon="2.89516">
        <ele>1128.31921</ele>
        <time>2021-07-07T10:39:11+0200</time>
      </trkpt>
      <trkpt lat="45.63458" lon="2.89515">
        <ele>1128.327059</ele>
        <time>2021-07-07T10:39:18+0200</time>
      </trkpt>
      <trkpt lat="45.63453" lon="2.89518">
        <ele>1129.325848</ele>
        <time>2021-07-07T10:39:20+0200</time>
      </trkpt>
      <trkpt lat="45.63446" lon="2.89522">
        <ele>1128.870605</ele>
        <time>2021-07-07T10:39:22+0200</time>
      </trkpt>
      <trkpt lat="45.63441" lon="2.89524">
        <ele>1127.904061</ele>
        <time>2021-07-07T10:39:23+0200</time>
      </trkpt>
      <trkpt lat="45.63435" lon="2.89526">
        <ele>1127.068244</ele>
        <time>2021-07-07T10:39:24+0200</time>
      </trkpt>
      <trkpt lat="45.63428" lon="2.89528">
        <ele>1125.880248</ele>
        <time>2021-07-07T10:39:25+0200</time>
      </trkpt>
      <trkpt lat="45.63421" lon="2.89531">
        <ele>1125.007378</ele>
        <time>2021-07-07T10:39:26+0200</time>
      </trkpt>
      <trkpt lat="45.63414" lon="2.89532">
        <ele>1124.314087</ele>
        <time>2021-07-07T10:39:27+0200</time>
      </trkpt>
      <trkpt lat="45.63406" lon="2.89534">
        <ele>1123.660157</ele>
        <time>2021-07-07T10:39:28+0200</time>
      </trkpt>
      <trkpt lat="45.63398" lon="2.89537">
        <ele>1122.519003</ele>
        <time>2021-07-07T10:39:29+0200</time>
      </trkpt>
      <trkpt lat="45.63391" lon="2.89542">
        <ele>1121.153282</ele>
        <time>2021-07-07T10:39:30+0200</time>
      </trkpt>
      <trkpt lat="45.63385" lon="2.89551">
        <ele>1120.322809</ele>
        <time>2021-07-07T10:39:31+0200</time>
      </trkpt>
      <trkpt lat="45.63379" lon="2.89562">
        <ele>1119.022986</ele>
        <time>2021-07-07T10:39:32+0200</time>
      </trkpt>
      <trkpt lat="45.63373" lon="2.89574">
        <ele>1118.18429</ele>
        <time>2021-07-07T10:39:33+0200</time>
      </trkpt>
      <trkpt lat="45.63366" lon="2.89586">
        <ele>1117.340316</ele>
        <time>2021-07-07T10:39:34+0200</time>
      </trkpt>
      <trkpt lat="45.6336" lon="2.89599">
        <ele>1116.155468</ele>
        <time>2021-07-07T10:39:35+0200</time>
      </trkpt>
      <trkpt lat="45.63353" lon="2.89611">
        <ele>1115.14151</ele>
        <time>2021-07-07T10:39:36+0200</time>
      </trkpt>
      <trkpt lat="45.63346" lon="2.89624">
        <ele>1114.12723</ele>
        <time>2021-07-07T10:39:37+0200</time>
      </trkpt>
      <trkpt lat="45.63339" lon="2.89636">
        <ele>1113.064928</ele>
        <time>2021-07-07T10:39:38+0200</time>
      </trkpt>
      <trkpt lat="45.63332" lon="2.89649">
        <ele>1112.235793</ele>
        <time>2021-07-07T10:39:39+0200</time>
      </trkpt>
      <trkpt lat="45.63325" lon="2.89662">
        <ele>1111.483347</ele>
        <time>2021-07-07T10:39:40+0200</time>
      </trkpt>
      <trkpt lat="45.63319" lon="2.89674">
        <ele>1110.661623</ele>
        <time>2021-07-07T10:39:41+0200</time>
      </trkpt>
      <trkpt lat="45.63311" lon="2.89686">
        <ele>1109.736604</ele>
        <time>2021-07-07T10:39:42+0200</time>
      </trkpt>
      <trkpt lat="45.63303" lon="2.89697">
        <ele>1108.600594</ele>
        <time>2021-07-07T10:39:43+0200</time>
      </trkpt>
      <trkpt lat="45.63297" lon="2.89708">
        <ele>1108.004626</ele>
        <time>2021-07-07T10:39:44+0200</time>
      </trkpt>
      <trkpt lat="45.63291" lon="2.89713">
        <ele>1106.912721</ele>
        <time>2021-07-07T10:39:45+0200</time>
      </trkpt>
      <trkpt lat="45.63284" lon="2.89717">
        <ele>1105.41654</ele>
        <time>2021-07-07T10:39:46+0200</time>
      </trkpt>
      <trkpt lat="45.63278" lon="2.89721">
        <ele>1103.838093</ele>
        <time>2021-07-07T10:39:47+0200</time>
      </trkpt>
      <trkpt lat="45.63269" lon="2.89726">
        <ele>1102.752645</ele>
        <time>2021-07-07T10:39:48+0200</time>
      </trkpt>
      <trkpt lat="45.63261" lon="2.89731">
        <ele>1101.915682</ele>
        <time>2021-07-07T10:39:49+0200</time>
      </trkpt>
      <trkpt lat="45.63253" lon="2.89739">
        <ele>1100.69138</ele>
        <time>2021-07-07T10:39:50+0200</time>
      </trkpt>
      <trkpt lat="45.63245" lon="2.89748">
        <ele>1099.874083</ele>
        <time>2021-07-07T10:39:51+0200</time>
      </trkpt>
      <trkpt lat="45.63237" lon="2.8976">
        <ele>1098.488594</ele>
        <time>2021-07-07T10:39:52+0200</time>
      </trkpt>
      <trkpt lat="45.6323" lon="2.89771">
        <ele>1096.637996</ele>
        <time>2021-07-07T10:39:53+0200</time>
      </trkpt>
      <trkpt lat="45.63222" lon="2.89784">
        <ele>1095.982316</ele>
        <time>2021-07-07T10:39:54+0200</time>
      </trkpt>
      <trkpt lat="45.63215" lon="2.89796">
        <ele>1094.454856</ele>
        <time>2021-07-07T10:39:55+0200</time>
      </trkpt>
      <trkpt lat="45.63209" lon="2.89809">
        <ele>1093.547921</ele>
        <time>2021-07-07T10:39:56+0200</time>
      </trkpt>
      <trkpt lat="45.63204" lon="2.89823">
        <ele>1092.034936</ele>
        <time>2021-07-07T10:39:57+0200</time>
      </trkpt>
      <trkpt lat="45.63198" lon="2.89838">
        <ele>1090.961328</ele>
        <time>2021-07-07T10:39:58+0200</time>
      </trkpt>
      <trkpt lat="45.63192" lon="2.89853">
        <ele>1089.357944</ele>
        <time>2021-07-07T10:39:59+0200</time>
      </trkpt>
      <trkpt lat="45.63186" lon="2.89868">
        <ele>1088.158505</ele>
        <time>2021-07-07T10:40:00+0200</time>
      </trkpt>
      <trkpt lat="45.63181" lon="2.89882">
        <ele>1086.446303</ele>
        <time>2021-07-07T10:40:01+0200</time>
      </trkpt>
      <trkpt lat="45.63176" lon="2.89895">
        <ele>1085.503353</ele>
        <time>2021-07-07T10:40:02+0200</time>
      </trkpt>
      <trkpt lat="45.6317" lon="2.89904">
        <ele>1084.451254</ele>
        <time>2021-07-07T10:40:03+0200</time>
      </trkpt>
      <trkpt lat="45.63163" lon="2.89915">
        <ele>1083.510764</ele>
        <time>2021-07-07T10:40:04+0200</time>
      </trkpt>
      <trkpt lat="45.63157" lon="2.89926">
        <ele>1082.35292</ele>
        <time>2021-07-07T10:40:05+0200</time>
      </trkpt>
      <trkpt lat="45.6315" lon="2.89937">
        <ele>1081.173246</ele>
        <time>2021-07-07T10:40:06+0200</time>
      </trkpt>
      <trkpt lat="45.63145" lon="2.89947">
        <ele>1080.85973</ele>
        <time>2021-07-07T10:40:07+0200</time>
      </trkpt>
      <trkpt lat="45.6314" lon="2.89957">
        <ele>1080.060598</ele>
        <time>2021-07-07T10:40:08+0200</time>
      </trkpt>
      <trkpt lat="45.63136" lon="2.8997">
        <ele>1078.879716</ele>
        <time>2021-07-07T10:40:09+0200</time>
      </trkpt>
      <trkpt lat="45.63133" lon="2.89983">
        <ele>1078.413406</ele>
        <time>2021-07-07T10:40:10+0200</time>
      </trkpt>
      <trkpt lat="45.63132" lon="2.89997">
        <ele>1077.337901</ele>
        <time>2021-07-07T10:40:11+0200</time>
      </trkpt>
      <trkpt lat="45.63131" lon="2.90012">
        <ele>1076.592527</ele>
        <time>2021-07-07T10:40:12+0200</time>
      </trkpt>
      <trkpt lat="45.63133" lon="2.90026">
        <ele>1075.212307</ele>
        <time>2021-07-07T10:40:13+0200</time>
      </trkpt>
      <trkpt lat="45.63135" lon="2.9004">
        <ele>1074.898905</ele>
        <time>2021-07-07T10:40:14+0200</time>
      </trkpt>
      <trkpt lat="45.63137" lon="2.90053">
        <ele>1074.463838</ele>
        <time>2021-07-07T10:40:15+0200</time>
      </trkpt>
      <trkpt lat="45.63139" lon="2.90062">
        <ele>1073.907773</ele>
        <time>2021-07-07T10:40:16+0200</time>
      </trkpt>
      <trkpt lat="45.63145" lon="2.90069">
        <ele>1072.514148</ele>
        <time>2021-07-07T10:40:18+0200</time>
      </trkpt>
      <trkpt lat="45.63147" lon="2.90078">
        <ele>1071.821037</ele>
        <time>2021-07-07T10:40:20+0200</time>
      </trkpt>
      <trkpt lat="45.63149" lon="2.90086">
        <ele>1072.746747</ele>
        <time>2021-07-07T10:40:22+0200</time>
      </trkpt>
      <trkpt lat="45.63146" lon="2.90081">
        <ele>1074.894521</ele>
        <time>2021-07-07T10:40:44+0200</time>
      </trkpt>
      <trkpt lat="45.63146" lon="2.90071">
        <ele>1072.296823</ele>
        <time>2021-07-07T10:40:47+0200</time>
      </trkpt>
      <trkpt lat="45.63143" lon="2.90065">
        <ele>1071.938749</ele>
        <time>2021-07-07T10:40:50+0200</time>
      </trkpt>
      <trkpt lat="45.63138" lon="2.90072">
        <ele>1071.843875</ele>
        <time>2021-07-07T10:40:53+0200</time>
      </trkpt>
      <trkpt lat="45.63136" lon="2.90078">
        <ele>1072.03502</ele>
        <time>2021-07-07T10:40:54+0200</time>
      </trkpt>
      <trkpt lat="45.63134" lon="2.90085">
        <ele>1071.495734</ele>
        <time>2021-07-07T10:40:55+0200</time>
      </trkpt>
      <trkpt lat="45.63132" lon="2.90093">
        <ele>1070.586912</ele>
        <time>2021-07-07T10:40:56+0200</time>
      </trkpt>
      <trkpt lat="45.63129" lon="2.90102">
        <ele>1069.427804</ele>
        <time>2021-07-07T10:40:57+0200</time>
      </trkpt>
      <trkpt lat="45.63124" lon="2.9011">
        <ele>1068.251</ele>
        <time>2021-07-07T10:40:58+0200</time>
      </trkpt>
      <trkpt lat="45.63118" lon="2.90117">
        <ele>1067.438633</ele>
        <time>2021-07-07T10:40:59+0200</time>
      </trkpt>
      <trkpt lat="45.63112" lon="2.90124">
        <ele>1066.743945</ele>
        <time>2021-07-07T10:41:00+0200</time>
      </trkpt>
      <trkpt lat="45.63107" lon="2.90131">
        <ele>1065.919301</ele>
        <time>2021-07-07T10:41:01+0200</time>
      </trkpt>
      <trkpt lat="45.63102" lon="2.90138">
        <ele>1065.323904</ele>
        <time>2021-07-07T10:41:02+0200</time>
      </trkpt>
      <trkpt lat="45.63097" lon="2.90145">
        <ele>1064.597731</ele>
        <time>2021-07-07T10:41:03+0200</time>
      </trkpt>
      <trkpt lat="45.63092" lon="2.9015">
        <ele>1063.908876</ele>
        <time>2021-07-07T10:41:04+0200</time>
      </trkpt>
      <trkpt lat="45.63087" lon="2.90154">
        <ele>1063.61518</ele>
        <time>2021-07-07T10:41:05+0200</time>
      </trkpt>
      <trkpt lat="45.63083" lon="2.90159">
        <ele>1063.450027</ele>
        <time>2021-07-07T10:41:06+0200</time>
      </trkpt>
      <trkpt lat="45.63078" lon="2.90163">
        <ele>1062.275925</ele>
        <time>2021-07-07T10:41:07+0200</time>
      </trkpt>
      <trkpt lat="45.63074" lon="2.90169">
        <ele>1061.247071</ele>
        <time>2021-07-07T10:41:08+0200</time>
      </trkpt>
      <trkpt lat="45.63069" lon="2.90174">
        <ele>1059.95668</ele>
        <time>2021-07-07T10:41:09+0200</time>
      </trkpt>
      <trkpt lat="45.63064" lon="2.9018">
        <ele>1058.349276</ele>
        <time>2021-07-07T10:41:10+0200</time>
      </trkpt>
      <trkpt lat="45.63059" lon="2.90185">
        <ele>1057.82319</ele>
        <time>2021-07-07T10:41:11+0200</time>
      </trkpt>
      <trkpt lat="45.63055" lon="2.9019">
        <ele>1057.20796</ele>
        <time>2021-07-07T10:41:12+0200</time>
      </trkpt>
      <trkpt lat="45.63051" lon="2.90195">
        <ele>1056.444243</ele>
        <time>2021-07-07T10:41:13+0200</time>
      </trkpt>
      <trkpt lat="45.63047" lon="2.902">
        <ele>1055.948766</ele>
        <time>2021-07-07T10:41:14+0200</time>
      </trkpt>
      <trkpt lat="45.63041" lon="2.90205">
        <ele>1055.365033</ele>
        <time>2021-07-07T10:41:16+0200</time>
      </trkpt>
      <trkpt lat="45.63037" lon="2.90208">
        <ele>1056.872213</ele>
        <time>2021-07-07T10:41:21+0200</time>
      </trkpt>
      <trkpt lat="45.63033" lon="2.90215">
        <ele>1058.420103</ele>
        <time>2021-07-07T10:41:27+0200</time>
      </trkpt>
      <trkpt lat="45.63028" lon="2.90219">
        <ele>1059.351226</ele>
        <time>2021-07-07T10:41:32+0200</time>
      </trkpt>
      <trkpt lat="45.63024" lon="2.90224">
        <ele>1059.665176</ele>
        <time>2021-07-07T10:41:35+0200</time>
      </trkpt>
      <trkpt lat="45.63022" lon="2.90232">
        <ele>1059.568596</ele>
        <time>2021-07-07T10:41:38+0200</time>
      </trkpt>
      <trkpt lat="45.63021" lon="2.9024">
        <ele>1060.031605</ele>
        <time>2021-07-07T10:41:41+0200</time>
      </trkpt>
      <trkpt lat="45.63019" lon="2.90248">
        <ele>1060.282666</ele>
        <time>2021-07-07T10:41:44+0200</time>
      </trkpt>
      <trkpt lat="45.6302" lon="2.90255">
        <ele>1060.025816</ele>
        <time>2021-07-07T10:41:46+0200</time>
      </trkpt>
      <trkpt lat="45.63021" lon="2.90261">
        <ele>1059.412564</ele>
        <time>2021-07-07T10:41:48+0200</time>
      </trkpt>
      <trkpt lat="45.63024" lon="2.90269">
        <ele>1058.592867</ele>
        <time>2021-07-07T10:41:51+0200</time>
      </trkpt>
      <trkpt lat="45.63027" lon="2.90276">
        <ele>1056.896641</ele>
        <time>2021-07-07T10:41:54+0200</time>
      </trkpt>
      <trkpt lat="45.6303" lon="2.90285">
        <ele>1055.541508</ele>
        <time>2021-07-07T10:41:58+0200</time>
      </trkpt>
      <trkpt lat="45.63032" lon="2.9029">
        <ele>1055.583637</ele>
        <time>2021-07-07T10:42:00+0200</time>
      </trkpt>
      <trkpt lat="45.63034" lon="2.90298">
        <ele>1054.879721</ele>
        <time>2021-07-07T10:42:04+0200</time>
      </trkpt>
      <trkpt lat="45.63036" lon="2.90306">
        <ele>1055.101071</ele>
        <time>2021-07-07T10:42:07+0200</time>
      </trkpt>
      <trkpt lat="45.63036" lon="2.90314">
        <ele>1054.743642</ele>
        <time>2021-07-07T10:42:10+0200</time>
      </trkpt>
      <trkpt lat="45.63038" lon="2.9032">
        <ele>1054.917769</ele>
        <time>2021-07-07T10:42:12+0200</time>
      </trkpt>
      <trkpt lat="45.63039" lon="2.90327">
        <ele>1054.922187</ele>
        <time>2021-07-07T10:42:15+0200</time>
      </trkpt>
      <trkpt lat="45.6304" lon="2.90333">
        <ele>1054.556342</ele>
        <time>2021-07-07T10:42:21+0200</time>
      </trkpt>
      <trkpt lat="45.63041" lon="2.9034">
        <ele>1055.272009</ele>
        <time>2021-07-07T10:42:36+0200</time>
      </trkpt>
      <trkpt lat="45.63041" lon="2.90348">
        <ele>1055.110771</ele>
        <time>2021-07-07T10:42:39+0200</time>
      </trkpt>
      <trkpt lat="45.63041" lon="2.90355">
        <ele>1054.419924</ele>
        <time>2021-07-07T10:42:43+0200</time>
      </trkpt>
      <trkpt lat="45.63044" lon="2.90362">
        <ele>1054.269318</ele>
        <time>2021-07-07T10:42:49+0200</time>
      </trkpt>
      <trkpt lat="45.63046" lon="2.90372">
        <ele>1055.332675</ele>
        <time>2021-07-07T10:42:52+0200</time>
      </trkpt>
      <trkpt lat="45.63048" lon="2.9038">
        <ele>1054.747783</ele>
        <time>2021-07-07T10:42:54+0200</time>
      </trkpt>
      <trkpt lat="45.63049" lon="2.90388">
        <ele>1053.255652</ele>
        <time>2021-07-07T10:42:57+0200</time>
      </trkpt>
      <trkpt lat="45.63049" lon="2.90397">
        <ele>1052.993785</ele>
        <time>2021-07-07T10:42:59+0200</time>
      </trkpt>
      <trkpt lat="45.63051" lon="2.90404">
        <ele>1053.436329</ele>
        <time>2021-07-07T10:43:01+0200</time>
      </trkpt>
      <trkpt lat="45.63053" lon="2.90413">
        <ele>1053.35734</ele>
        <time>2021-07-07T10:43:03+0200</time>
      </trkpt>
      <trkpt lat="45.63055" lon="2.90418">
        <ele>1053.129287</ele>
        <time>2021-07-07T10:43:04+0200</time>
      </trkpt>
      <trkpt lat="45.63057" lon="2.90428">
        <ele>1052.79964</ele>
        <time>2021-07-07T10:43:06+0200</time>
      </trkpt>
      <trkpt lat="45.63058" lon="2.90436">
        <ele>1053.49551</ele>
        <time>2021-07-07T10:43:09+0200</time>
      </trkpt>
      <trkpt lat="45.63059" lon="2.90444">
        <ele>1053.272016</ele>
        <time>2021-07-07T10:43:11+0200</time>
      </trkpt>
      <trkpt lat="45.6306" lon="2.90452">
        <ele>1053.482142</ele>
        <time>2021-07-07T10:43:13+0200</time>
      </trkpt>
      <trkpt lat="45.63064" lon="2.90461">
        <ele>1054.265405</ele>
        <time>2021-07-07T10:43:15+0200</time>
      </trkpt>
      <trkpt lat="45.63066" lon="2.9047">
        <ele>1053.790527</ele>
        <time>2021-07-07T10:43:17+0200</time>
      </trkpt>
      <trkpt lat="45.63069" lon="2.90479">
        <ele>1053.229911</ele>
        <time>2021-07-07T10:43:19+0200</time>
      </trkpt>
      <trkpt lat="45.63071" lon="2.90485">
        <ele>1053.428684</ele>
        <time>2021-07-07T10:43:22+0200</time>
      </trkpt>
      <trkpt lat="45.63073" lon="2.90492">
        <ele>1053.186668</ele>
        <time>2021-07-07T10:43:25+0200</time>
      </trkpt>
      <trkpt lat="45.63073" lon="2.90499">
        <ele>1052.686926</ele>
        <time>2021-07-07T10:43:28+0200</time>
      </trkpt>
      <trkpt lat="45.63076" lon="2.90509">
        <ele>1052.009515</ele>
        <time>2021-07-07T10:43:31+0200</time>
      </trkpt>
      <trkpt lat="45.63078" lon="2.90515">
        <ele>1051.803576</ele>
        <time>2021-07-07T10:43:33+0200</time>
      </trkpt>
      <trkpt lat="45.6308" lon="2.90523">
        <ele>1052.363082</ele>
        <time>2021-07-07T10:43:35+0200</time>
      </trkpt>
      <trkpt lat="45.6308" lon="2.90531">
        <ele>1053.234288</ele>
        <time>2021-07-07T10:43:37+0200</time>
      </trkpt>
      <trkpt lat="45.63083" lon="2.90539">
        <ele>1053.68001</ele>
        <time>2021-07-07T10:43:39+0200</time>
      </trkpt>
      <trkpt lat="45.63084" lon="2.90548">
        <ele>1053.452796</ele>
        <time>2021-07-07T10:43:41+0200</time>
      </trkpt>
      <trkpt lat="45.63086" lon="2.90556">
        <ele>1053.384043</ele>
        <time>2021-07-07T10:43:43+0200</time>
      </trkpt>
      <trkpt lat="45.63086" lon="2.90564">
        <ele>1054.856575</ele>
        <time>2021-07-07T10:43:45+0200</time>
      </trkpt>
      <trkpt lat="45.63088" lon="2.90572">
        <ele>1055.2525</ele>
        <time>2021-07-07T10:43:47+0200</time>
      </trkpt>
      <trkpt lat="45.63089" lon="2.90578">
        <ele>1054.611805</ele>
        <time>2021-07-07T10:43:49+0200</time>
      </trkpt>
      <trkpt lat="45.6309" lon="2.90588">
        <ele>1055.677985</ele>
        <time>2021-07-07T10:43:51+0200</time>
      </trkpt>
      <trkpt lat="45.63094" lon="2.90596">
        <ele>1055.117109</ele>
        <time>2021-07-07T10:43:53+0200</time>
      </trkpt>
      <trkpt lat="45.63098" lon="2.90602">
        <ele>1054.474347</ele>
        <time>2021-07-07T10:43:55+0200</time>
      </trkpt>
      <trkpt lat="45.63099" lon="2.9061">
        <ele>1054.842863</ele>
        <time>2021-07-07T10:43:57+0200</time>
      </trkpt>
      <trkpt lat="45.63101" lon="2.90618">
        <ele>1054.709799</ele>
        <time>2021-07-07T10:43:59+0200</time>
      </trkpt>
      <trkpt lat="45.63105" lon="2.90627">
        <ele>1054.368528</ele>
        <time>2021-07-07T10:44:01+0200</time>
      </trkpt>
      <trkpt lat="45.63109" lon="2.90633">
        <ele>1053.798117</ele>
        <time>2021-07-07T10:44:03+0200</time>
      </trkpt>
      <trkpt lat="45.63113" lon="2.90643">
        <ele>1053.19338</ele>
        <time>2021-07-07T10:44:05+0200</time>
      </trkpt>
      <trkpt lat="45.63118" lon="2.90646">
        <ele>1052.554592</ele>
        <time>2021-07-07T10:44:06+0200</time>
      </trkpt>
      <trkpt lat="45.63123" lon="2.90649">
        <ele>1051.853318</ele>
        <time>2021-07-07T10:44:07+0200</time>
      </trkpt>
      <trkpt lat="45.63127" lon="2.90654">
        <ele>1051.40579</ele>
        <time>2021-07-07T10:44:08+0200</time>
      </trkpt>
      <trkpt lat="45.63132" lon="2.90658">
        <ele>1050.781542</ele>
        <time>2021-07-07T10:44:09+0200</time>
      </trkpt>
      <trkpt lat="45.63136" lon="2.90664">
        <ele>1050.439412</ele>
        <time>2021-07-07T10:44:10+0200</time>
      </trkpt>
      <trkpt lat="45.6314" lon="2.90668">
        <ele>1050.075294</ele>
        <time>2021-07-07T10:44:11+0200</time>
      </trkpt>
      <trkpt lat="45.63145" lon="2.90672">
        <ele>1049.359971</ele>
        <time>2021-07-07T10:44:12+0200</time>
      </trkpt>
      <trkpt lat="45.63151" lon="2.90676">
        <ele>1048.448856</ele>
        <time>2021-07-07T10:44:13+0200</time>
      </trkpt>
      <trkpt lat="45.63156" lon="2.90681">
        <ele>1047.593976</ele>
        <time>2021-07-07T10:44:14+0200</time>
      </trkpt>
      <trkpt lat="45.63161" lon="2.90686">
        <ele>1046.843573</ele>
        <time>2021-07-07T10:44:15+0200</time>
      </trkpt>
      <trkpt lat="45.63167" lon="2.90691">
        <ele>1046.479936</ele>
        <time>2021-07-07T10:44:16+0200</time>
      </trkpt>
      <trkpt lat="45.63174" lon="2.90698">
        <ele>1045.657251</ele>
        <time>2021-07-07T10:44:17+0200</time>
      </trkpt>
      <trkpt lat="45.63179" lon="2.90704">
        <ele>1045.125671</ele>
        <time>2021-07-07T10:44:18+0200</time>
      </trkpt>
      <trkpt lat="45.63185" lon="2.90708">
        <ele>1044.446265</ele>
        <time>2021-07-07T10:44:19+0200</time>
      </trkpt>
      <trkpt lat="45.63191" lon="2.90714">
        <ele>1043.776223</ele>
        <time>2021-07-07T10:44:20+0200</time>
      </trkpt>
      <trkpt lat="45.63197" lon="2.90719">
        <ele>1043.004381</ele>
        <time>2021-07-07T10:44:21+0200</time>
      </trkpt>
      <trkpt lat="45.63203" lon="2.90725">
        <ele>1042.442261</ele>
        <time>2021-07-07T10:44:22+0200</time>
      </trkpt>
      <trkpt lat="45.63209" lon="2.90732">
        <ele>1042.4672</ele>
        <time>2021-07-07T10:44:23+0200</time>
      </trkpt>
      <trkpt lat="45.63216" lon="2.90736">
        <ele>1042.045384</ele>
        <time>2021-07-07T10:44:24+0200</time>
      </trkpt>
      <trkpt lat="45.63222" lon="2.90741">
        <ele>1041.516605</ele>
        <time>2021-07-07T10:44:25+0200</time>
      </trkpt>
      <trkpt lat="45.63228" lon="2.90751">
        <ele>1041.43467</ele>
        <time>2021-07-07T10:44:26+0200</time>
      </trkpt>
      <trkpt lat="45.63232" lon="2.90759">
        <ele>1041.289327</ele>
        <time>2021-07-07T10:44:27+0200</time>
      </trkpt>
      <trkpt lat="45.63237" lon="2.90767">
        <ele>1041.53869</ele>
        <time>2021-07-07T10:44:28+0200</time>
      </trkpt>
      <trkpt lat="45.63241" lon="2.90773">
        <ele>1041.555567</ele>
        <time>2021-07-07T10:44:29+0200</time>
      </trkpt>
      <trkpt lat="45.63247" lon="2.90779">
        <ele>1041.59433</ele>
        <time>2021-07-07T10:44:30+0200</time>
      </trkpt>
      <trkpt lat="45.6325" lon="2.90785">
        <ele>1041.486925</ele>
        <time>2021-07-07T10:44:31+0200</time>
      </trkpt>
      <trkpt lat="45.63254" lon="2.9079">
        <ele>1041.338772</ele>
        <time>2021-07-07T10:44:32+0200</time>
      </trkpt>
      <trkpt lat="45.63257" lon="2.90795">
        <ele>1041.671508</ele>
        <time>2021-07-07T10:44:33+0200</time>
      </trkpt>
      <trkpt lat="45.63263" lon="2.90805">
        <ele>1041.7451</ele>
        <time>2021-07-07T10:44:35+0200</time>
      </trkpt>
      <trkpt lat="45.63264" lon="2.90812">
        <ele>1041.53525</ele>
        <time>2021-07-07T10:44:36+0200</time>
      </trkpt>
      <trkpt lat="45.63266" lon="2.90822">
        <ele>1041.376031</ele>
        <time>2021-07-07T10:44:38+0200</time>
      </trkpt>
      <trkpt lat="45.63266" lon="2.90833">
        <ele>1040.818557</ele>
        <time>2021-07-07T10:44:40+0200</time>
      </trkpt>
      <trkpt lat="45.63267" lon="2.90844">
        <ele>1039.966808</ele>
        <time>2021-07-07T10:44:42+0200</time>
      </trkpt>
      <trkpt lat="45.63268" lon="2.90857">
        <ele>1040.265639</ele>
        <time>2021-07-07T10:44:44+0200</time>
      </trkpt>
      <trkpt lat="45.63268" lon="2.90866">
        <ele>1040.675038</ele>
        <time>2021-07-07T10:44:46+0200</time>
      </trkpt>
      <trkpt lat="45.6327" lon="2.90877">
        <ele>1039.923126</ele>
        <time>2021-07-07T10:44:48+0200</time>
      </trkpt>
      <trkpt lat="45.63273" lon="2.90888">
        <ele>1039.354495</ele>
        <time>2021-07-07T10:44:50+0200</time>
      </trkpt>
      <trkpt lat="45.63275" lon="2.90894">
        <ele>1039.626094</ele>
        <time>2021-07-07T10:44:51+0200</time>
      </trkpt>
      <trkpt lat="45.63277" lon="2.909">
        <ele>1039.333545</ele>
        <time>2021-07-07T10:44:52+0200</time>
      </trkpt>
      <trkpt lat="45.6328" lon="2.90911">
        <ele>1038.195502</ele>
        <time>2021-07-07T10:44:54+0200</time>
      </trkpt>
      <trkpt lat="45.63283" lon="2.90921">
        <ele>1038.893826</ele>
        <time>2021-07-07T10:44:56+0200</time>
      </trkpt>
      <trkpt lat="45.63288" lon="2.90929">
        <ele>1039.637149</ele>
        <time>2021-07-07T10:44:58+0200</time>
      </trkpt>
      <trkpt lat="45.63292" lon="2.90934">
        <ele>1038.985941</ele>
        <time>2021-07-07T10:45:00+0200</time>
      </trkpt>
      <trkpt lat="45.63296" lon="2.90939">
        <ele>1038.671032</ele>
        <time>2021-07-07T10:45:02+0200</time>
      </trkpt>
      <trkpt lat="45.63301" lon="2.90944">
        <ele>1038.316192</ele>
        <time>2021-07-07T10:45:05+0200</time>
      </trkpt>
      <trkpt lat="45.63308" lon="2.90949">
        <ele>1037.510989</ele>
        <time>2021-07-07T10:45:07+0200</time>
      </trkpt>
      <trkpt lat="45.63314" lon="2.90954">
        <ele>1037.151123</ele>
        <time>2021-07-07T10:45:09+0200</time>
      </trkpt>
      <trkpt lat="45.63318" lon="2.9096">
        <ele>1037.859662</ele>
        <time>2021-07-07T10:45:11+0200</time>
      </trkpt>
      <trkpt lat="45.63324" lon="2.90969">
        <ele>1037.985618</ele>
        <time>2021-07-07T10:45:13+0200</time>
      </trkpt>
      <trkpt lat="45.63328" lon="2.90978">
        <ele>1037.802704</ele>
        <time>2021-07-07T10:45:15+0200</time>
      </trkpt>
      <trkpt lat="45.63329" lon="2.90986">
        <ele>1037.790203</ele>
        <time>2021-07-07T10:45:17+0200</time>
      </trkpt>
      <trkpt lat="45.63329" lon="2.90996">
        <ele>1037.506271</ele>
        <time>2021-07-07T10:45:19+0200</time>
      </trkpt>
      <trkpt lat="45.6333" lon="2.91005">
        <ele>1038.291357</ele>
        <time>2021-07-07T10:45:21+0200</time>
      </trkpt>
      <trkpt lat="45.63332" lon="2.91016">
        <ele>1038.548066</ele>
        <time>2021-07-07T10:45:23+0200</time>
      </trkpt>
      <trkpt lat="45.63333" lon="2.91025">
        <ele>1038.426035</ele>
        <time>2021-07-07T10:45:25+0200</time>
      </trkpt>
      <trkpt lat="45.63334" lon="2.91034">
        <ele>1038.313427</ele>
        <time>2021-07-07T10:45:27+0200</time>
      </trkpt>
      <trkpt lat="45.63335" lon="2.91045">
        <ele>1037.990278</ele>
        <time>2021-07-07T10:45:29+0200</time>
      </trkpt>
      <trkpt lat="45.63335" lon="2.91058">
        <ele>1038.011136</ele>
        <time>2021-07-07T10:45:31+0200</time>
      </trkpt>
      <trkpt lat="45.63335" lon="2.91067">
        <ele>1037.942674</ele>
        <time>2021-07-07T10:45:33+0200</time>
      </trkpt>
      <trkpt lat="45.63336" lon="2.9108">
        <ele>1038.155413</ele>
        <time>2021-07-07T10:45:35+0200</time>
      </trkpt>
      <trkpt lat="45.63337" lon="2.91093">
        <ele>1038.47699</ele>
        <time>2021-07-07T10:45:37+0200</time>
      </trkpt>
      <trkpt lat="45.63337" lon="2.91099">
        <ele>1038.425527</ele>
        <time>2021-07-07T10:45:38+0200</time>
      </trkpt>
      <trkpt lat="45.63336" lon="2.91111">
        <ele>1038.201368</ele>
        <time>2021-07-07T10:45:40+0200</time>
      </trkpt>
      <trkpt lat="45.63337" lon="2.91118">
        <ele>1038.218534</ele>
        <time>2021-07-07T10:45:41+0200</time>
      </trkpt>
      <trkpt lat="45.63337" lon="2.91125">
        <ele>1037.836217</ele>
        <time>2021-07-07T10:45:42+0200</time>
      </trkpt>
      <trkpt lat="45.63339" lon="2.9114">
        <ele>1038.344043</ele>
        <time>2021-07-07T10:45:44+0200</time>
      </trkpt>
      <trkpt lat="45.63341" lon="2.91148">
        <ele>1037.891462</ele>
        <time>2021-07-07T10:45:45+0200</time>
      </trkpt>
      <trkpt lat="45.63343" lon="2.91154">
        <ele>1037.513496</ele>
        <time>2021-07-07T10:45:46+0200</time>
      </trkpt>
      <trkpt lat="45.63344" lon="2.91161">
        <ele>1037.556252</ele>
        <time>2021-07-07T10:45:47+0200</time>
      </trkpt>
      <trkpt lat="45.63348" lon="2.91172">
        <ele>1036.765995</ele>
        <time>2021-07-07T10:45:49+0200</time>
      </trkpt>
      <trkpt lat="45.63349" lon="2.9118">
        <ele>1036.841027</ele>
        <time>2021-07-07T10:45:50+0200</time>
      </trkpt>
      <trkpt lat="45.63349" lon="2.91188">
        <ele>1036.51814</ele>
        <time>2021-07-07T10:45:51+0200</time>
      </trkpt>
      <trkpt lat="45.63351" lon="2.91198">
        <ele>1037.101059</ele>
        <time>2021-07-07T10:45:53+0200</time>
      </trkpt>
      <trkpt lat="45.63352" lon="2.91205">
        <ele>1037.054103</ele>
        <time>2021-07-07T10:45:54+0200</time>
      </trkpt>
      <trkpt lat="45.63354" lon="2.91211">
        <ele>1036.923168</ele>
        <time>2021-07-07T10:45:55+0200</time>
      </trkpt>
      <trkpt lat="45.63357" lon="2.91225">
        <ele>1036.140972</ele>
        <time>2021-07-07T10:45:57+0200</time>
      </trkpt>
      <trkpt lat="45.63358" lon="2.91232">
        <ele>1035.505261</ele>
        <time>2021-07-07T10:45:58+0200</time>
      </trkpt>
      <trkpt lat="45.6336" lon="2.9124">
        <ele>1034.504451</ele>
        <time>2021-07-07T10:45:59+0200</time>
      </trkpt>
      <trkpt lat="45.63361" lon="2.91248">
        <ele>1034.090015</ele>
        <time>2021-07-07T10:46:00+0200</time>
      </trkpt>
      <trkpt lat="45.63363" lon="2.91257">
        <ele>1034.31889</ele>
        <time>2021-07-07T10:46:01+0200</time>
      </trkpt>
      <trkpt lat="45.63366" lon="2.91266">
        <ele>1033.781433</ele>
        <time>2021-07-07T10:46:02+0200</time>
      </trkpt>
      <trkpt lat="45.63367" lon="2.91275">
        <ele>1033.345693</ele>
        <time>2021-07-07T10:46:03+0200</time>
      </trkpt>
      <trkpt lat="45.63368" lon="2.91284">
        <ele>1032.919403</ele>
        <time>2021-07-07T10:46:04+0200</time>
      </trkpt>
      <trkpt lat="45.6337" lon="2.91292">
        <ele>1033.324658</ele>
        <time>2021-07-07T10:46:05+0200</time>
      </trkpt>
      <trkpt lat="45.63372" lon="2.913">
        <ele>1033.515324</ele>
        <time>2021-07-07T10:46:06+0200</time>
      </trkpt>
      <trkpt lat="45.63374" lon="2.91309">
        <ele>1032.804356</ele>
        <time>2021-07-07T10:46:07+0200</time>
      </trkpt>
      <trkpt lat="45.63377" lon="2.91316">
        <ele>1032.032351</ele>
        <time>2021-07-07T10:46:08+0200</time>
      </trkpt>
      <trkpt lat="45.63378" lon="2.91325">
        <ele>1031.583888</ele>
        <time>2021-07-07T10:46:09+0200</time>
      </trkpt>
      <trkpt lat="45.6338" lon="2.91333">
        <ele>1031.426739</ele>
        <time>2021-07-07T10:46:10+0200</time>
      </trkpt>
      <trkpt lat="45.63383" lon="2.91341">
        <ele>1031.213779</ele>
        <time>2021-07-07T10:46:11+0200</time>
      </trkpt>
      <trkpt lat="45.63385" lon="2.91349">
        <ele>1030.669993</ele>
        <time>2021-07-07T10:46:12+0200</time>
      </trkpt>
      <trkpt lat="45.63387" lon="2.91358">
        <ele>1030.38287</ele>
        <time>2021-07-07T10:46:13+0200</time>
      </trkpt>
      <trkpt lat="45.63388" lon="2.91365">
        <ele>1029.988634</ele>
        <time>2021-07-07T10:46:14+0200</time>
      </trkpt>
      <trkpt lat="45.63389" lon="2.91372">
        <ele>1029.799165</ele>
        <time>2021-07-07T10:46:15+0200</time>
      </trkpt>
      <trkpt lat="45.63389" lon="2.9138">
        <ele>1029.657082</ele>
        <time>2021-07-07T10:46:16+0200</time>
      </trkpt>
      <trkpt lat="45.6339" lon="2.91388">
        <ele>1029.424021</ele>
        <time>2021-07-07T10:46:17+0200</time>
      </trkpt>
      <trkpt lat="45.63391" lon="2.91395">
        <ele>1029.268863</ele>
        <time>2021-07-07T10:46:18+0200</time>
      </trkpt>
      <trkpt lat="45.63392" lon="2.91405">
        <ele>1029.184192</ele>
        <time>2021-07-07T10:46:19+0200</time>
      </trkpt>
      <trkpt lat="45.63393" lon="2.91414">
        <ele>1029.314912</ele>
        <time>2021-07-07T10:46:20+0200</time>
      </trkpt>
      <trkpt lat="45.63394" lon="2.91423">
        <ele>1029.142225</ele>
        <time>2021-07-07T10:46:21+0200</time>
      </trkpt>
      <trkpt lat="45.63395" lon="2.91431">
        <ele>1029.125869</ele>
        <time>2021-07-07T10:46:22+0200</time>
      </trkpt>
      <trkpt lat="45.63395" lon="2.91438">
        <ele>1029.503472</ele>
        <time>2021-07-07T10:46:23+0200</time>
      </trkpt>
      <trkpt lat="45.63397" lon="2.91446">
        <ele>1029.573889</ele>
        <time>2021-07-07T10:46:24+0200</time>
      </trkpt>
      <trkpt lat="45.63398" lon="2.91453">
        <ele>1029.392272</ele>
        <time>2021-07-07T10:46:25+0200</time>
      </trkpt>
      <trkpt lat="45.634" lon="2.91462">
        <ele>1029.239043</ele>
        <time>2021-07-07T10:46:26+0200</time>
      </trkpt>
      <trkpt lat="45.63402" lon="2.9147">
        <ele>1028.803867</ele>
        <time>2021-07-07T10:46:27+0200</time>
      </trkpt>
      <trkpt lat="45.63404" lon="2.91479">
        <ele>1028.524492</ele>
        <time>2021-07-07T10:46:28+0200</time>
      </trkpt>
      <trkpt lat="45.63406" lon="2.91486">
        <ele>1028.467738</ele>
        <time>2021-07-07T10:46:29+0200</time>
      </trkpt>
      <trkpt lat="45.63408" lon="2.91494">
        <ele>1028.200671</ele>
        <time>2021-07-07T10:46:30+0200</time>
      </trkpt>
      <trkpt lat="45.63411" lon="2.91502">
        <ele>1027.780227</ele>
        <time>2021-07-07T10:46:31+0200</time>
      </trkpt>
      <trkpt lat="45.63414" lon="2.91511">
        <ele>1027.625735</ele>
        <time>2021-07-07T10:46:32+0200</time>
      </trkpt>
      <trkpt lat="45.63416" lon="2.9152">
        <ele>1027.395487</ele>
        <time>2021-07-07T10:46:33+0200</time>
      </trkpt>
      <trkpt lat="45.63419" lon="2.91528">
        <ele>1027.116814</ele>
        <time>2021-07-07T10:46:34+0200</time>
      </trkpt>
      <trkpt lat="45.63422" lon="2.91535">
        <ele>1027.042805</ele>
        <time>2021-07-07T10:46:35+0200</time>
      </trkpt>
      <trkpt lat="45.63425" lon="2.91544">
        <ele>1026.709116</ele>
        <time>2021-07-07T10:46:36+0200</time>
      </trkpt>
      <trkpt lat="45.63428" lon="2.91552">
        <ele>1026.581667</ele>
        <time>2021-07-07T10:46:37+0200</time>
      </trkpt>
      <trkpt lat="45.6343" lon="2.9156">
        <ele>1026.503778</ele>
        <time>2021-07-07T10:46:38+0200</time>
      </trkpt>
      <trkpt lat="45.63432" lon="2.91568">
        <ele>1026.498271</ele>
        <time>2021-07-07T10:46:39+0200</time>
      </trkpt>
      <trkpt lat="45.63434" lon="2.91575">
        <ele>1026.290407</ele>
        <time>2021-07-07T10:46:40+0200</time>
      </trkpt>
      <trkpt lat="45.63436" lon="2.91583">
        <ele>1026.019452</ele>
        <time>2021-07-07T10:46:41+0200</time>
      </trkpt>
      <trkpt lat="45.63439" lon="2.9159">
        <ele>1025.842322</ele>
        <time>2021-07-07T10:46:42+0200</time>
      </trkpt>
      <trkpt lat="45.63441" lon="2.91597">
        <ele>1025.58767</ele>
        <time>2021-07-07T10:46:43+0200</time>
      </trkpt>
      <trkpt lat="45.63443" lon="2.91604">
        <ele>1025.724402</ele>
        <time>2021-07-07T10:46:44+0200</time>
      </trkpt>
      <trkpt lat="45.63446" lon="2.91612">
        <ele>1025.943441</ele>
        <time>2021-07-07T10:46:45+0200</time>
      </trkpt>
      <trkpt lat="45.63448" lon="2.91619">
        <ele>1025.826886</ele>
        <time>2021-07-07T10:46:46+0200</time>
      </trkpt>
      <trkpt lat="45.6345" lon="2.91626">
        <ele>1025.582077</ele>
        <time>2021-07-07T10:46:47+0200</time>
      </trkpt>
      <trkpt lat="45.63452" lon="2.91633">
        <ele>1025.356269</ele>
        <time>2021-07-07T10:46:48+0200</time>
      </trkpt>
      <trkpt lat="45.63454" lon="2.91639">
        <ele>1025.314488</ele>
        <time>2021-07-07T10:46:49+0200</time>
      </trkpt>
      <trkpt lat="45.63457" lon="2.91644">
        <ele>1025.373414</ele>
        <time>2021-07-07T10:46:50+0200</time>
      </trkpt>
      <trkpt lat="45.63461" lon="2.91648">
        <ele>1025.438928</ele>
        <time>2021-07-07T10:46:51+0200</time>
      </trkpt>
      <trkpt lat="45.63466" lon="2.91651">
        <ele>1025.356897</ele>
        <time>2021-07-07T10:46:52+0200</time>
      </trkpt>
      <trkpt lat="45.63471" lon="2.91653">
        <ele>1024.938819</ele>
        <time>2021-07-07T10:46:53+0200</time>
      </trkpt>
      <trkpt lat="45.63477" lon="2.91654">
        <ele>1024.836859</ele>
        <time>2021-07-07T10:46:54+0200</time>
      </trkpt>
      <trkpt lat="45.63485" lon="2.91657">
        <ele>1025.074793</ele>
        <time>2021-07-07T10:46:56+0200</time>
      </trkpt>
      <trkpt lat="45.6349" lon="2.9166">
        <ele>1024.797045</ele>
        <time>2021-07-07T10:46:57+0200</time>
      </trkpt>
      <trkpt lat="45.63494" lon="2.91668">
        <ele>1024.762323</ele>
        <time>2021-07-07T10:46:58+0200</time>
      </trkpt>
      <trkpt lat="45.63496" lon="2.91676">
        <ele>1024.4326</ele>
        <time>2021-07-07T10:46:59+0200</time>
      </trkpt>
      <trkpt lat="45.63497" lon="2.91683">
        <ele>1024.453462</ele>
        <time>2021-07-07T10:47:00+0200</time>
      </trkpt>
      <trkpt lat="45.63498" lon="2.91689">
        <ele>1024.381545</ele>
        <time>2021-07-07T10:47:01+0200</time>
      </trkpt>
      <trkpt lat="45.63499" lon="2.91697">
        <ele>1024.575314</ele>
        <time>2021-07-07T10:47:02+0200</time>
      </trkpt>
      <trkpt lat="45.635" lon="2.91704">
        <ele>1024.109984</ele>
        <time>2021-07-07T10:47:03+0200</time>
      </trkpt>
      <trkpt lat="45.63501" lon="2.9171">
        <ele>1023.644695</ele>
        <time>2021-07-07T10:47:04+0200</time>
      </trkpt>
      <trkpt lat="45.63502" lon="2.91717">
        <ele>1023.637131</ele>
        <time>2021-07-07T10:47:05+0200</time>
      </trkpt>
      <trkpt lat="45.63503" lon="2.91729">
        <ele>1023.475264</ele>
        <time>2021-07-07T10:47:07+0200</time>
      </trkpt>
      <trkpt lat="45.63506" lon="2.91741">
        <ele>1023.820972</ele>
        <time>2021-07-07T10:47:09+0200</time>
      </trkpt>
      <trkpt lat="45.63507" lon="2.91753">
        <ele>1023.083861</ele>
        <time>2021-07-07T10:47:11+0200</time>
      </trkpt>
      <trkpt lat="45.63509" lon="2.91759">
        <ele>1022.922203</ele>
        <time>2021-07-07T10:47:12+0200</time>
      </trkpt>
      <trkpt lat="45.6351" lon="2.91766">
        <ele>1023.10686</ele>
        <time>2021-07-07T10:47:13+0200</time>
      </trkpt>
      <trkpt lat="45.63511" lon="2.91773">
        <ele>1022.96272</ele>
        <time>2021-07-07T10:47:14+0200</time>
      </trkpt>
      <trkpt lat="45.63512" lon="2.91779">
        <ele>1022.97801</ele>
        <time>2021-07-07T10:47:15+0200</time>
      </trkpt>
      <trkpt lat="45.63513" lon="2.91785">
        <ele>1023.114086</ele>
        <time>2021-07-07T10:47:16+0200</time>
      </trkpt>
      <trkpt lat="45.63514" lon="2.91799">
        <ele>1022.781261</ele>
        <time>2021-07-07T10:47:18+0200</time>
      </trkpt>
      <trkpt lat="45.63515" lon="2.9181">
        <ele>1022.270549</ele>
        <time>2021-07-07T10:47:20+0200</time>
      </trkpt>
      <trkpt lat="45.63517" lon="2.91821">
        <ele>1022.045822</ele>
        <time>2021-07-07T10:47:22+0200</time>
      </trkpt>
      <trkpt lat="45.63522" lon="2.91828">
        <ele>1021.377466</ele>
        <time>2021-07-07T10:47:24+0200</time>
      </trkpt>
      <trkpt lat="45.6353" lon="2.91832">
        <ele>1021.729714</ele>
        <time>2021-07-07T10:47:26+0200</time>
      </trkpt>
      <trkpt lat="45.63537" lon="2.91837">
        <ele>1021.942948</ele>
        <time>2021-07-07T10:47:28+0200</time>
      </trkpt>
      <trkpt lat="45.63542" lon="2.91842">
        <ele>1022.338264</ele>
        <time>2021-07-07T10:47:30+0200</time>
      </trkpt>
      <trkpt lat="45.63546" lon="2.91846">
        <ele>1023.881207</ele>
        <time>2021-07-07T10:47:34+0200</time>
      </trkpt>
      <trkpt lat="45.63544" lon="2.91853">
        <ele>1024.23069</ele>
        <time>2021-07-07T10:47:40+0200</time>
      </trkpt>
      <trkpt lat="45.6354" lon="2.91857">
        <ele>1023.834403</ele>
        <time>2021-07-07T10:47:43+0200</time>
      </trkpt>
      <trkpt lat="45.63535" lon="2.91864">
        <ele>1024.743071</ele>
        <time>2021-07-07T10:47:46+0200</time>
      </trkpt>
      <trkpt lat="45.63532" lon="2.91872">
        <ele>1024.333016</ele>
        <time>2021-07-07T10:47:48+0200</time>
      </trkpt>
      <trkpt lat="45.6353" lon="2.91879">
        <ele>1024.274472</ele>
        <time>2021-07-07T10:47:50+0200</time>
      </trkpt>
      <trkpt lat="45.63528" lon="2.91886">
        <ele>1023.654293</ele>
        <time>2021-07-07T10:47:52+0200</time>
      </trkpt>
      <trkpt lat="45.63526" lon="2.91896">
        <ele>1023.62995</ele>
        <time>2021-07-07T10:47:54+0200</time>
      </trkpt>
      <trkpt lat="45.63525" lon="2.91905">
        <ele>1023.789063</ele>
        <time>2021-07-07T10:47:56+0200</time>
      </trkpt>
      <trkpt lat="45.63523" lon="2.91914">
        <ele>1023.447236</ele>
        <time>2021-07-07T10:47:58+0200</time>
      </trkpt>
      <trkpt lat="45.63522" lon="2.91923">
        <ele>1023.373494</ele>
        <time>2021-07-07T10:48:00+0200</time>
      </trkpt>
      <trkpt lat="45.63521" lon="2.91932">
        <ele>1023.493041</ele>
        <time>2021-07-07T10:48:02+0200</time>
      </trkpt>
      <trkpt lat="45.63519" lon="2.91942">
        <ele>1024.081995</ele>
        <time>2021-07-07T10:48:04+0200</time>
      </trkpt>
      <trkpt lat="45.63518" lon="2.91952">
        <ele>1025.040734</ele>
        <time>2021-07-07T10:48:06+0200</time>
      </trkpt>
      <trkpt lat="45.63517" lon="2.91962">
        <ele>1025.818052</ele>
        <time>2021-07-07T10:48:08+0200</time>
      </trkpt>
      <trkpt lat="45.63516" lon="2.91972">
        <ele>1026.281413</ele>
        <time>2021-07-07T10:48:10+0200</time>
      </trkpt>
      <trkpt lat="45.63515" lon="2.9198">
        <ele>1026.549008</ele>
        <time>2021-07-07T10:48:12+0200</time>
      </trkpt>
      <trkpt lat="45.63513" lon="2.91986">
        <ele>1027.476829</ele>
        <time>2021-07-07T10:48:14+0200</time>
      </trkpt>
      <trkpt lat="45.6351" lon="2.91994">
        <ele>1027.900522</ele>
        <time>2021-07-07T10:48:16+0200</time>
      </trkpt>
      <trkpt lat="45.63506" lon="2.92002">
        <ele>1028.825445</ele>
        <time>2021-07-07T10:48:18+0200</time>
      </trkpt>
      <trkpt lat="45.63502" lon="2.9201">
        <ele>1028.800065</ele>
        <time>2021-07-07T10:48:20+0200</time>
      </trkpt>
      <trkpt lat="45.63499" lon="2.92017">
        <ele>1029.189194</ele>
        <time>2021-07-07T10:48:22+0200</time>
      </trkpt>
      <trkpt lat="45.63496" lon="2.92024">
        <ele>1029.515257</ele>
        <time>2021-07-07T10:48:24+0200</time>
      </trkpt>
      <trkpt lat="45.63493" lon="2.9203">
        <ele>1030.162427</ele>
        <time>2021-07-07T10:48:26+0200</time>
      </trkpt>
      <trkpt lat="45.63492" lon="2.92038">
        <ele>1030.895254</ele>
        <time>2021-07-07T10:48:29+0200</time>
      </trkpt>
      <trkpt lat="45.63488" lon="2.92047">
        <ele>1031.700372</ele>
        <time>2021-07-07T10:48:32+0200</time>
      </trkpt>
      <trkpt lat="45.63486" lon="2.92053">
        <ele>1032.110899</ele>
        <time>2021-07-07T10:48:34+0200</time>
      </trkpt>
      <trkpt lat="45.63483" lon="2.92062">
        <ele>1032.015179</ele>
        <time>2021-07-07T10:48:37+0200</time>
      </trkpt>
      <trkpt lat="45.63481" lon="2.92068">
        <ele>1032.378846</ele>
        <time>2021-07-07T10:48:39+0200</time>
      </trkpt>
      <trkpt lat="45.63478" lon="2.92075">
        <ele>1033.27609</ele>
        <time>2021-07-07T10:48:42+0200</time>
      </trkpt>
      <trkpt lat="45.63475" lon="2.92082">
        <ele>1032.78738</ele>
        <time>2021-07-07T10:48:44+0200</time>
      </trkpt>
      <trkpt lat="45.63472" lon="2.92089">
        <ele>1034.120479</ele>
        <time>2021-07-07T10:48:47+0200</time>
      </trkpt>
      <trkpt lat="45.63471" lon="2.92095">
        <ele>1035.263795</ele>
        <time>2021-07-07T10:48:49+0200</time>
      </trkpt>
      <trkpt lat="45.63468" lon="2.92102">
        <ele>1036.219495</ele>
        <time>2021-07-07T10:48:52+0200</time>
      </trkpt>
      <trkpt lat="45.63465" lon="2.92108">
        <ele>1036.579243</ele>
        <time>2021-07-07T10:48:55+0200</time>
      </trkpt>
      <trkpt lat="45.63463" lon="2.92116">
        <ele>1037.106592</ele>
        <time>2021-07-07T10:48:58+0200</time>
      </trkpt>
      <trkpt lat="45.63459" lon="2.92125">
        <ele>1037.285772</ele>
        <time>2021-07-07T10:49:01+0200</time>
      </trkpt>
      <trkpt lat="45.63456" lon="2.92131">
        <ele>1037.431712</ele>
        <time>2021-07-07T10:49:03+0200</time>
      </trkpt>
      <trkpt lat="45.63453" lon="2.92137">
        <ele>1037.413118</ele>
        <time>2021-07-07T10:49:05+0200</time>
      </trkpt>
      <trkpt lat="45.63451" lon="2.92144">
        <ele>1037.558592</ele>
        <time>2021-07-07T10:49:07+0200</time>
      </trkpt>
      <trkpt lat="45.63447" lon="2.92149">
        <ele>1037.630599</ele>
        <time>2021-07-07T10:49:09+0200</time>
      </trkpt>
      <trkpt lat="45.63444" lon="2.92157">
        <ele>1038.410806</ele>
        <time>2021-07-07T10:49:12+0200</time>
      </trkpt>
      <trkpt lat="45.63442" lon="2.92163">
        <ele>1039.994774</ele>
        <time>2021-07-07T10:49:15+0200</time>
      </trkpt>
      <trkpt lat="45.63439" lon="2.92169">
        <ele>1041.216488</ele>
        <time>2021-07-07T10:49:18+0200</time>
      </trkpt>
      <trkpt lat="45.63436" lon="2.92176">
        <ele>1041.82498</ele>
        <time>2021-07-07T10:49:20+0200</time>
      </trkpt>
      <trkpt lat="45.63435" lon="2.92182">
        <ele>1042.288619</ele>
        <time>2021-07-07T10:49:22+0200</time>
      </trkpt>
      <trkpt lat="45.63432" lon="2.92189">
        <ele>1042.905012</ele>
        <time>2021-07-07T10:49:25+0200</time>
      </trkpt>
      <trkpt lat="45.63431" lon="2.92197">
        <ele>1043.242678</ele>
        <time>2021-07-07T10:49:28+0200</time>
      </trkpt>
      <trkpt lat="45.63428" lon="2.92205">
        <ele>1043.276283</ele>
        <time>2021-07-07T10:49:31+0200</time>
      </trkpt>
      <trkpt lat="45.63425" lon="2.92212">
        <ele>1043.977842</ele>
        <time>2021-07-07T10:49:34+0200</time>
      </trkpt>
      <trkpt lat="45.63422" lon="2.92219">
        <ele>1044.196493</ele>
        <time>2021-07-07T10:49:37+0200</time>
      </trkpt>
      <trkpt lat="45.6342" lon="2.92226">
        <ele>1044.616624</ele>
        <time>2021-07-07T10:49:40+0200</time>
      </trkpt>
      <trkpt lat="45.63418" lon="2.92232">
        <ele>1045.258747</ele>
        <time>2021-07-07T10:49:42+0200</time>
      </trkpt>
      <trkpt lat="45.63415" lon="2.9224">
        <ele>1045.759895</ele>
        <time>2021-07-07T10:49:45+0200</time>
      </trkpt>
      <trkpt lat="45.63412" lon="2.92248">
        <ele>1046.653003</ele>
        <time>2021-07-07T10:49:48+0200</time>
      </trkpt>
      <trkpt lat="45.63411" lon="2.92255">
        <ele>1047.432147</ele>
        <time>2021-07-07T10:49:51+0200</time>
      </trkpt>
      <trkpt lat="45.63407" lon="2.92263">
        <ele>1047.877157</ele>
        <time>2021-07-07T10:49:54+0200</time>
      </trkpt>
      <trkpt lat="45.63404" lon="2.9227">
        <ele>1048.362656</ele>
        <time>2021-07-07T10:49:57+0200</time>
      </trkpt>
      <trkpt lat="45.63401" lon="2.92276">
        <ele>1049.531278</ele>
        <time>2021-07-07T10:49:59+0200</time>
      </trkpt>
      <trkpt lat="45.63398" lon="2.92285">
        <ele>1050.28897</ele>
        <time>2021-07-07T10:50:02+0200</time>
      </trkpt>
      <trkpt lat="45.63396" lon="2.92292">
        <ele>1051.236029</ele>
        <time>2021-07-07T10:50:05+0200</time>
      </trkpt>
      <trkpt lat="45.63394" lon="2.92301">
        <ele>1051.922744</ele>
        <time>2021-07-07T10:50:08+0200</time>
      </trkpt>
      <trkpt lat="45.63392" lon="2.92309">
        <ele>1052.763462</ele>
        <time>2021-07-07T10:50:11+0200</time>
      </trkpt>
      <trkpt lat="45.6339" lon="2.92317">
        <ele>1053.645293</ele>
        <time>2021-07-07T10:50:14+0200</time>
      </trkpt>
      <trkpt lat="45.63388" lon="2.92325">
        <ele>1054.794788</ele>
        <time>2021-07-07T10:50:17+0200</time>
      </trkpt>
      <trkpt lat="45.63387" lon="2.92331">
        <ele>1055.087349</ele>
        <time>2021-07-07T10:50:19+0200</time>
      </trkpt>
      <trkpt lat="45.63384" lon="2.92338">
        <ele>1057.128578</ele>
        <time>2021-07-07T10:50:23+0200</time>
      </trkpt>
      <trkpt lat="45.63379" lon="2.92342">
        <ele>1057.812916</ele>
        <time>2021-07-07T10:50:26+0200</time>
      </trkpt>
      <trkpt lat="45.63374" lon="2.92343">
        <ele>1057.53716</ele>
        <time>2021-07-07T10:50:29+0200</time>
      </trkpt>
      <trkpt lat="45.6337" lon="2.92348">
        <ele>1058.226841</ele>
        <time>2021-07-07T10:50:32+0200</time>
      </trkpt>
      <trkpt lat="45.63366" lon="2.92351">
        <ele>1058.33523</ele>
        <time>2021-07-07T10:50:35+0200</time>
      </trkpt>
      <trkpt lat="45.63362" lon="2.92354">
        <ele>1059.705681</ele>
        <time>2021-07-07T10:50:38+0200</time>
      </trkpt>
      <trkpt lat="45.63358" lon="2.92358">
        <ele>1060.215217</ele>
        <time>2021-07-07T10:50:41+0200</time>
      </trkpt>
      <trkpt lat="45.63354" lon="2.92363">
        <ele>1061.297527</ele>
        <time>2021-07-07T10:50:44+0200</time>
      </trkpt>
      <trkpt lat="45.63349" lon="2.92367">
        <ele>1062.187832</ele>
        <time>2021-07-07T10:50:47+0200</time>
      </trkpt>
      <trkpt lat="45.63344" lon="2.92372">
        <ele>1062.487025</ele>
        <time>2021-07-07T10:50:50+0200</time>
      </trkpt>
      <trkpt lat="45.6334" lon="2.92378">
        <ele>1063.33087</ele>
        <time>2021-07-07T10:50:53+0200</time>
      </trkpt>
      <trkpt lat="45.63335" lon="2.92381">
        <ele>1063.854575</ele>
        <time>2021-07-07T10:50:56+0200</time>
      </trkpt>
      <trkpt lat="45.63332" lon="2.92387">
        <ele>1063.877584</ele>
        <time>2021-07-07T10:50:59+0200</time>
      </trkpt>
      <trkpt lat="45.63327" lon="2.92392">
        <ele>1064.545849</ele>
        <time>2021-07-07T10:51:02+0200</time>
      </trkpt>
      <trkpt lat="45.63321" lon="2.92398">
        <ele>1065.784689</ele>
        <time>2021-07-07T10:51:05+0200</time>
      </trkpt>
      <trkpt lat="45.63316" lon="2.92402">
        <ele>1066.552902</ele>
        <time>2021-07-07T10:51:07+0200</time>
      </trkpt>
      <trkpt lat="45.63311" lon="2.92408">
        <ele>1067.508915</ele>
        <time>2021-07-07T10:51:10+0200</time>
      </trkpt>
      <trkpt lat="45.63307" lon="2.92412">
        <ele>1067.797931</ele>
        <time>2021-07-07T10:51:12+0200</time>
      </trkpt>
      <trkpt lat="45.63303" lon="2.92416">
        <ele>1068.223171</ele>
        <time>2021-07-07T10:51:14+0200</time>
      </trkpt>
      <trkpt lat="45.63299" lon="2.9242">
        <ele>1068.367486</ele>
        <time>2021-07-07T10:51:16+0200</time>
      </trkpt>
      <trkpt lat="45.63293" lon="2.92425">
        <ele>1068.958343</ele>
        <time>2021-07-07T10:51:19+0200</time>
      </trkpt>
      <trkpt lat="45.63289" lon="2.9243">
        <ele>1069.347708</ele>
        <time>2021-07-07T10:51:21+0200</time>
      </trkpt>
      <trkpt lat="45.63285" lon="2.92433">
        <ele>1069.911812</ele>
        <time>2021-07-07T10:51:23+0200</time>
      </trkpt>
      <trkpt lat="45.63279" lon="2.92437">
        <ele>1070.341659</ele>
        <time>2021-07-07T10:51:26+0200</time>
      </trkpt>
      <trkpt lat="45.63274" lon="2.92442">
        <ele>1070.620997</ele>
        <time>2021-07-07T10:51:29+0200</time>
      </trkpt>
      <trkpt lat="45.63269" lon="2.92448">
        <ele>1071.58971</ele>
        <time>2021-07-07T10:51:32+0200</time>
      </trkpt>
      <trkpt lat="45.63264" lon="2.92452">
        <ele>1072.582532</ele>
        <time>2021-07-07T10:51:35+0200</time>
      </trkpt>
      <trkpt lat="45.63258" lon="2.92458">
        <ele>1072.343471</ele>
        <time>2021-07-07T10:51:38+0200</time>
      </trkpt>
      <trkpt lat="45.63254" lon="2.92463">
        <ele>1072.316404</ele>
        <time>2021-07-07T10:51:40+0200</time>
      </trkpt>
      <trkpt lat="45.6325" lon="2.92466">
        <ele>1071.905427</ele>
        <time>2021-07-07T10:51:42+0200</time>
      </trkpt>
      <trkpt lat="45.63244" lon="2.9247">
        <ele>1072.420677</ele>
        <time>2021-07-07T10:51:45+0200</time>
      </trkpt>
      <trkpt lat="45.63238" lon="2.92475">
        <ele>1072.591778</ele>
        <time>2021-07-07T10:51:48+0200</time>
      </trkpt>
      <trkpt lat="45.63233" lon="2.92476">
        <ele>1073.143114</ele>
        <time>2021-07-07T10:51:52+0200</time>
      </trkpt>
      <trkpt lat="45.63227" lon="2.92476">
        <ele>1074.141151</ele>
        <time>2021-07-07T10:51:56+0200</time>
      </trkpt>
      <trkpt lat="45.63223" lon="2.92472">
        <ele>1074.213942</ele>
        <time>2021-07-07T10:52:01+0200</time>
      </trkpt>
      <trkpt lat="45.63228" lon="2.9247">
        <ele>1074.720481</ele>
        <time>2021-07-07T10:52:06+0200</time>
      </trkpt>
      <trkpt lat="45.63224" lon="2.92472">
        <ele>1074.182716</ele>
        <time>2021-07-07T10:52:18+0200</time>
      </trkpt>
      <trkpt lat="45.63228" lon="2.92475">
        <ele>1074.614805</ele>
        <time>2021-07-07T10:53:15+0200</time>
      </trkpt>
      <trkpt lat="45.63223" lon="2.92478">
        <ele>1073.188747</ele>
        <time>2021-07-07T10:53:40+0200</time>
      </trkpt>
      <trkpt lat="45.63227" lon="2.92474">
        <ele>1073.897523</ele>
        <time>2021-07-07T10:54:01+0200</time>
      </trkpt>
      <trkpt lat="45.6323" lon="2.92468">
        <ele>1074.203504</ele>
        <time>2021-07-07T10:54:34+0200</time>
      </trkpt>
      <trkpt lat="45.63225" lon="2.92471">
        <ele>1073.719452</ele>
        <time>2021-07-07T10:54:53+0200</time>
      </trkpt>
      <trkpt lat="45.63222" lon="2.92476">
        <ele>1074.763566</ele>
        <time>2021-07-07T10:56:12+0200</time>
      </trkpt>
      <trkpt lat="45.63217" lon="2.92477">
        <ele>1076.452931</ele>
        <time>2021-07-07T10:56:17+0200</time>
      </trkpt>
      <trkpt lat="45.63212" lon="2.9248">
        <ele>1076.612762</ele>
        <time>2021-07-07T10:56:20+0200</time>
      </trkpt>
      <trkpt lat="45.63207" lon="2.9248">
        <ele>1076.743019</ele>
        <time>2021-07-07T10:56:22+0200</time>
      </trkpt>
      <trkpt lat="45.63202" lon="2.92482">
        <ele>1077.117439</ele>
        <time>2021-07-07T10:56:24+0200</time>
      </trkpt>
      <trkpt lat="45.63197" lon="2.92483">
        <ele>1076.892037</ele>
        <time>2021-07-07T10:56:26+0200</time>
      </trkpt>
      <trkpt lat="45.63192" lon="2.92484">
        <ele>1077.290963</ele>
        <time>2021-07-07T10:56:28+0200</time>
      </trkpt>
      <trkpt lat="45.63185" lon="2.92484">
        <ele>1077.615196</ele>
        <time>2021-07-07T10:56:30+0200</time>
      </trkpt>
      <trkpt lat="45.63179" lon="2.92485">
        <ele>1077.757019</ele>
        <time>2021-07-07T10:56:32+0200</time>
      </trkpt>
      <trkpt lat="45.63172" lon="2.92488">
        <ele>1077.812645</ele>
        <time>2021-07-07T10:56:34+0200</time>
      </trkpt>
      <trkpt lat="45.63166" lon="2.9249">
        <ele>1077.631926</ele>
        <time>2021-07-07T10:56:36+0200</time>
      </trkpt>
      <trkpt lat="45.6316" lon="2.92492">
        <ele>1077.575746</ele>
        <time>2021-07-07T10:56:38+0200</time>
      </trkpt>
      <trkpt lat="45.63153" lon="2.92494">
        <ele>1077.623083</ele>
        <time>2021-07-07T10:56:40+0200</time>
      </trkpt>
      <trkpt lat="45.63146" lon="2.92497">
        <ele>1077.62607</ele>
        <time>2021-07-07T10:56:42+0200</time>
      </trkpt>
      <trkpt lat="45.63139" lon="2.92497">
        <ele>1077.692459</ele>
        <time>2021-07-07T10:56:44+0200</time>
      </trkpt>
      <trkpt lat="45.63131" lon="2.92499">
        <ele>1077.795759</ele>
        <time>2021-07-07T10:56:46+0200</time>
      </trkpt>
      <trkpt lat="45.63124" lon="2.92501">
        <ele>1078.007827</ele>
        <time>2021-07-07T10:56:48+0200</time>
      </trkpt>
      <trkpt lat="45.63116" lon="2.92502">
        <ele>1078.08924</ele>
        <time>2021-07-07T10:56:50+0200</time>
      </trkpt>
      <trkpt lat="45.63108" lon="2.92504">
        <ele>1078.565949</ele>
        <time>2021-07-07T10:56:52+0200</time>
      </trkpt>
      <trkpt lat="45.63101" lon="2.92507">
        <ele>1078.91736</ele>
        <time>2021-07-07T10:56:54+0200</time>
      </trkpt>
      <trkpt lat="45.63096" lon="2.92507">
        <ele>1079.070678</ele>
        <time>2021-07-07T10:56:55+0200</time>
      </trkpt>
      <trkpt lat="45.63089" lon="2.92509">
        <ele>1079.435542</ele>
        <time>2021-07-07T10:56:57+0200</time>
      </trkpt>
      <trkpt lat="45.63081" lon="2.92512">
        <ele>1078.865256</ele>
        <time>2021-07-07T10:56:59+0200</time>
      </trkpt>
      <trkpt lat="45.63073" lon="2.92515">
        <ele>1079.167523</ele>
        <time>2021-07-07T10:57:01+0200</time>
      </trkpt>
      <trkpt lat="45.63064" lon="2.92517">
        <ele>1078.980969</ele>
        <time>2021-07-07T10:57:03+0200</time>
      </trkpt>
      <trkpt lat="45.63056" lon="2.92519">
        <ele>1078.778975</ele>
        <time>2021-07-07T10:57:05+0200</time>
      </trkpt>
      <trkpt lat="45.63048" lon="2.92522">
        <ele>1078.366513</ele>
        <time>2021-07-07T10:57:07+0200</time>
      </trkpt>
      <trkpt lat="45.6304" lon="2.92524">
        <ele>1078.481729</ele>
        <time>2021-07-07T10:57:09+0200</time>
      </trkpt>
      <trkpt lat="45.63031" lon="2.92526">
        <ele>1078.064082</ele>
        <time>2021-07-07T10:57:11+0200</time>
      </trkpt>
      <trkpt lat="45.63022" lon="2.92529">
        <ele>1078.251806</ele>
        <time>2021-07-07T10:57:13+0200</time>
      </trkpt>
      <trkpt lat="45.63014" lon="2.92531">
        <ele>1078.102512</ele>
        <time>2021-07-07T10:57:15+0200</time>
      </trkpt>
      <trkpt lat="45.63009" lon="2.92533">
        <ele>1077.984737</ele>
        <time>2021-07-07T10:57:16+0200</time>
      </trkpt>
      <trkpt lat="45.63004" lon="2.92533">
        <ele>1077.682779</ele>
        <time>2021-07-07T10:57:17+0200</time>
      </trkpt>
      <trkpt lat="45.62995" lon="2.92536">
        <ele>1077.650077</ele>
        <time>2021-07-07T10:57:19+0200</time>
      </trkpt>
      <trkpt lat="45.62988" lon="2.92537">
        <ele>1077.355173</ele>
        <time>2021-07-07T10:57:21+0200</time>
      </trkpt>
      <trkpt lat="45.62979" lon="2.92539">
        <ele>1077.406377</ele>
        <time>2021-07-07T10:57:23+0200</time>
      </trkpt>
      <trkpt lat="45.62971" lon="2.9254">
        <ele>1077.054977</ele>
        <time>2021-07-07T10:57:25+0200</time>
      </trkpt>
      <trkpt lat="45.62967" lon="2.92543">
        <ele>1077.110652</ele>
        <time>2021-07-07T10:57:26+0200</time>
      </trkpt>
      <trkpt lat="45.62962" lon="2.92544">
        <ele>1077.395403</ele>
        <time>2021-07-07T10:57:27+0200</time>
      </trkpt>
      <trkpt lat="45.62954" lon="2.92546">
        <ele>1077.406549</ele>
        <time>2021-07-07T10:57:29+0200</time>
      </trkpt>
      <trkpt lat="45.62949" lon="2.92549">
        <ele>1077.596788</ele>
        <time>2021-07-07T10:57:30+0200</time>
      </trkpt>
      <trkpt lat="45.62944" lon="2.92551">
        <ele>1077.415775</ele>
        <time>2021-07-07T10:57:31+0200</time>
      </trkpt>
      <trkpt lat="45.62939" lon="2.92551">
        <ele>1077.35637</ele>
        <time>2021-07-07T10:57:32+0200</time>
      </trkpt>
      <trkpt lat="45.62934" lon="2.92552">
        <ele>1077.470758</ele>
        <time>2021-07-07T10:57:33+0200</time>
      </trkpt>
      <trkpt lat="45.62925" lon="2.92554">
        <ele>1078.486799</ele>
        <time>2021-07-07T10:57:35+0200</time>
      </trkpt>
      <trkpt lat="45.62921" lon="2.92555">
        <ele>1078.521895</ele>
        <time>2021-07-07T10:57:36+0200</time>
      </trkpt>
      <trkpt lat="45.62916" lon="2.92556">
        <ele>1078.472482</ele>
        <time>2021-07-07T10:57:37+0200</time>
      </trkpt>
      <trkpt lat="45.62911" lon="2.92557">
        <ele>1078.414127</ele>
        <time>2021-07-07T10:57:38+0200</time>
      </trkpt>
      <trkpt lat="45.62906" lon="2.92558">
        <ele>1078.350531</ele>
        <time>2021-07-07T10:57:39+0200</time>
      </trkpt>
      <trkpt lat="45.62902" lon="2.9256">
        <ele>1078.302577</ele>
        <time>2021-07-07T10:57:40+0200</time>
      </trkpt>
      <trkpt lat="45.62893" lon="2.92562">
        <ele>1078.445955</ele>
        <time>2021-07-07T10:57:42+0200</time>
      </trkpt>
      <trkpt lat="45.62889" lon="2.92564">
        <ele>1078.477921</ele>
        <time>2021-07-07T10:57:43+0200</time>
      </trkpt>
      <trkpt lat="45.6288" lon="2.92566">
        <ele>1078.794555</ele>
        <time>2021-07-07T10:57:45+0200</time>
      </trkpt>
      <trkpt lat="45.62871" lon="2.9257">
        <ele>1078.907113</ele>
        <time>2021-07-07T10:57:47+0200</time>
      </trkpt>
      <trkpt lat="45.62863" lon="2.92572">
        <ele>1078.898172</ele>
        <time>2021-07-07T10:57:49+0200</time>
      </trkpt>
      <trkpt lat="45.62854" lon="2.92574">
        <ele>1078.748125</ele>
        <time>2021-07-07T10:57:51+0200</time>
      </trkpt>
      <trkpt lat="45.62846" lon="2.92575">
        <ele>1078.887772</ele>
        <time>2021-07-07T10:57:53+0200</time>
      </trkpt>
      <trkpt lat="45.62837" lon="2.92578">
        <ele>1079.163417</ele>
        <time>2021-07-07T10:57:55+0200</time>
      </trkpt>
      <trkpt lat="45.62833" lon="2.92579">
        <ele>1079.232638</ele>
        <time>2021-07-07T10:57:56+0200</time>
      </trkpt>
      <trkpt lat="45.62828" lon="2.92581">
        <ele>1079.413739</ele>
        <time>2021-07-07T10:57:57+0200</time>
      </trkpt>
      <trkpt lat="45.62824" lon="2.92581">
        <ele>1079.371343</ele>
        <time>2021-07-07T10:57:58+0200</time>
      </trkpt>
      <trkpt lat="45.62815" lon="2.92583">
        <ele>1079.478685</ele>
        <time>2021-07-07T10:58:00+0200</time>
      </trkpt>
      <trkpt lat="45.62811" lon="2.92584">
        <ele>1079.428653</ele>
        <time>2021-07-07T10:58:01+0200</time>
      </trkpt>
      <trkpt lat="45.62806" lon="2.92585">
        <ele>1079.422763</ele>
        <time>2021-07-07T10:58:02+0200</time>
      </trkpt>
      <trkpt lat="45.62801" lon="2.92586">
        <ele>1079.348113</ele>
        <time>2021-07-07T10:58:03+0200</time>
      </trkpt>
      <trkpt lat="45.62797" lon="2.92587">
        <ele>1079.18698</ele>
        <time>2021-07-07T10:58:04+0200</time>
      </trkpt>
      <trkpt lat="45.62792" lon="2.92587">
        <ele>1079.03245</ele>
        <time>2021-07-07T10:58:05+0200</time>
      </trkpt>
      <trkpt lat="45.62787" lon="2.92589">
        <ele>1078.929496</ele>
        <time>2021-07-07T10:58:06+0200</time>
      </trkpt>
      <trkpt lat="45.62782" lon="2.9259">
        <ele>1078.419404</ele>
        <time>2021-07-07T10:58:07+0200</time>
      </trkpt>
      <trkpt lat="45.62778" lon="2.92591">
        <ele>1078.78463</ele>
        <time>2021-07-07T10:58:08+0200</time>
      </trkpt>
      <trkpt lat="45.62772" lon="2.92593">
        <ele>1078.530479</ele>
        <time>2021-07-07T10:58:09+0200</time>
      </trkpt>
      <trkpt lat="45.62767" lon="2.92594">
        <ele>1078.049046</ele>
        <time>2021-07-07T10:58:10+0200</time>
      </trkpt>
      <trkpt lat="45.6276" lon="2.92597">
        <ele>1078.184123</ele>
        <time>2021-07-07T10:58:11+0200</time>
      </trkpt>
      <trkpt lat="45.62755" lon="2.92599">
        <ele>1077.921882</ele>
        <time>2021-07-07T10:58:12+0200</time>
      </trkpt>
      <trkpt lat="45.62748" lon="2.92601">
        <ele>1077.019129</ele>
        <time>2021-07-07T10:58:13+0200</time>
      </trkpt>
      <trkpt lat="45.6274" lon="2.92604">
        <ele>1075.713911</ele>
        <time>2021-07-07T10:58:14+0200</time>
      </trkpt>
      <trkpt lat="45.62731" lon="2.92607">
        <ele>1074.324686</ele>
        <time>2021-07-07T10:58:15+0200</time>
      </trkpt>
      <trkpt lat="45.62722" lon="2.92607">
        <ele>1072.502474</ele>
        <time>2021-07-07T10:58:16+0200</time>
      </trkpt>
      <trkpt lat="45.62712" lon="2.92611">
        <ele>1071.19118</ele>
        <time>2021-07-07T10:58:17+0200</time>
      </trkpt>
      <trkpt lat="45.62703" lon="2.92616">
        <ele>1069.116242</ele>
        <time>2021-07-07T10:58:18+0200</time>
      </trkpt>
      <trkpt lat="45.62693" lon="2.9262">
        <ele>1067.409931</ele>
        <time>2021-07-07T10:58:19+0200</time>
      </trkpt>
      <trkpt lat="45.62683" lon="2.92625">
        <ele>1066.053408</ele>
        <time>2021-07-07T10:58:20+0200</time>
      </trkpt>
      <trkpt lat="45.62672" lon="2.9263">
        <ele>1064.459169</ele>
        <time>2021-07-07T10:58:21+0200</time>
      </trkpt>
      <trkpt lat="45.6266" lon="2.92636">
        <ele>1062.786271</ele>
        <time>2021-07-07T10:58:22+0200</time>
      </trkpt>
      <trkpt lat="45.62648" lon="2.92641">
        <ele>1060.988522</ele>
        <time>2021-07-07T10:58:23+0200</time>
      </trkpt>
      <trkpt lat="45.62636" lon="2.92646">
        <ele>1059.275864</ele>
        <time>2021-07-07T10:58:24+0200</time>
      </trkpt>
      <trkpt lat="45.62624" lon="2.92651">
        <ele>1057.732677</ele>
        <time>2021-07-07T10:58:25+0200</time>
      </trkpt>
      <trkpt lat="45.62613" lon="2.92659">
        <ele>1056.607998</ele>
        <time>2021-07-07T10:58:26+0200</time>
      </trkpt>
      <trkpt lat="45.62603" lon="2.92667">
        <ele>1055.896476</ele>
        <time>2021-07-07T10:58:27+0200</time>
      </trkpt>
      <trkpt lat="45.62594" lon="2.92677">
        <ele>1055.494263</ele>
        <time>2021-07-07T10:58:28+0200</time>
      </trkpt>
      <trkpt lat="45.62586" lon="2.92686">
        <ele>1055.351172</ele>
        <time>2021-07-07T10:58:29+0200</time>
      </trkpt>
      <trkpt lat="45.62579" lon="2.92697">
        <ele>1055.242608</ele>
        <time>2021-07-07T10:58:30+0200</time>
      </trkpt>
      <trkpt lat="45.62573" lon="2.92707">
        <ele>1055.122231</ele>
        <time>2021-07-07T10:58:31+0200</time>
      </trkpt>
      <trkpt lat="45.62566" lon="2.92715">
        <ele>1055.062152</ele>
        <time>2021-07-07T10:58:32+0200</time>
      </trkpt>
      <trkpt lat="45.62559" lon="2.92723">
        <ele>1054.991389</ele>
        <time>2021-07-07T10:58:33+0200</time>
      </trkpt>
      <trkpt lat="45.62552" lon="2.92727">
        <ele>1055.054096</ele>
        <time>2021-07-07T10:58:34+0200</time>
      </trkpt>
      <trkpt lat="45.62544" lon="2.9273">
        <ele>1054.84749</ele>
        <time>2021-07-07T10:58:35+0200</time>
      </trkpt>
      <trkpt lat="45.62537" lon="2.92733">
        <ele>1054.783439</ele>
        <time>2021-07-07T10:58:36+0200</time>
      </trkpt>
      <trkpt lat="45.6253" lon="2.92736">
        <ele>1054.649924</ele>
        <time>2021-07-07T10:58:37+0200</time>
      </trkpt>
      <trkpt lat="45.62524" lon="2.92739">
        <ele>1054.604447</ele>
        <time>2021-07-07T10:58:38+0200</time>
      </trkpt>
      <trkpt lat="45.62518" lon="2.92742">
        <ele>1054.479034</ele>
        <time>2021-07-07T10:58:39+0200</time>
      </trkpt>
      <trkpt lat="45.62511" lon="2.92745">
        <ele>1054.970614</ele>
        <time>2021-07-07T10:58:40+0200</time>
      </trkpt>
      <trkpt lat="45.62505" lon="2.92748">
        <ele>1055.200035</ele>
        <time>2021-07-07T10:58:41+0200</time>
      </trkpt>
      <trkpt lat="45.625" lon="2.9275">
        <ele>1055.369525</ele>
        <time>2021-07-07T10:58:42+0200</time>
      </trkpt>
      <trkpt lat="45.62495" lon="2.92753">
        <ele>1055.559375</ele>
        <time>2021-07-07T10:58:43+0200</time>
      </trkpt>
      <trkpt lat="45.62491" lon="2.92756">
        <ele>1055.646699</ele>
        <time>2021-07-07T10:58:44+0200</time>
      </trkpt>
      <trkpt lat="45.62487" lon="2.92761">
        <ele>1055.730523</ele>
        <time>2021-07-07T10:58:45+0200</time>
      </trkpt>
      <trkpt lat="45.62483" lon="2.92764">
        <ele>1055.627302</ele>
        <time>2021-07-07T10:58:46+0200</time>
      </trkpt>
      <trkpt lat="45.62478" lon="2.92769">
        <ele>1055.548423</ele>
        <time>2021-07-07T10:58:47+0200</time>
      </trkpt>
      <trkpt lat="45.62473" lon="2.92774">
        <ele>1055.611927</ele>
        <time>2021-07-07T10:58:48+0200</time>
      </trkpt>
      <trkpt lat="45.62468" lon="2.92779">
        <ele>1055.577967</ele>
        <time>2021-07-07T10:58:49+0200</time>
      </trkpt>
      <trkpt lat="45.62464" lon="2.92784">
        <ele>1055.65161</ele>
        <time>2021-07-07T10:58:50+0200</time>
      </trkpt>
      <trkpt lat="45.62459" lon="2.92789">
        <ele>1055.792894</ele>
        <time>2021-07-07T10:58:51+0200</time>
      </trkpt>
      <trkpt lat="45.62454" lon="2.92793">
        <ele>1055.855014</ele>
        <time>2021-07-07T10:58:52+0200</time>
      </trkpt>
      <trkpt lat="45.62449" lon="2.92797">
        <ele>1055.819379</ele>
        <time>2021-07-07T10:58:53+0200</time>
      </trkpt>
      <trkpt lat="45.62444" lon="2.92801">
        <ele>1055.829006</ele>
        <time>2021-07-07T10:58:54+0200</time>
      </trkpt>
      <trkpt lat="45.62439" lon="2.92806">
        <ele>1055.742745</ele>
        <time>2021-07-07T10:58:55+0200</time>
      </trkpt>
      <trkpt lat="45.62434" lon="2.92809">
        <ele>1055.579107</ele>
        <time>2021-07-07T10:58:56+0200</time>
      </trkpt>
      <trkpt lat="45.62429" lon="2.92813">
        <ele>1055.599135</ele>
        <time>2021-07-07T10:58:57+0200</time>
      </trkpt>
      <trkpt lat="45.62424" lon="2.92816">
        <ele>1055.407153</ele>
        <time>2021-07-07T10:58:58+0200</time>
      </trkpt>
      <trkpt lat="45.62418" lon="2.9282">
        <ele>1055.079102</ele>
        <time>2021-07-07T10:58:59+0200</time>
      </trkpt>
      <trkpt lat="45.62413" lon="2.92824">
        <ele>1055.05213</ele>
        <time>2021-07-07T10:59:00+0200</time>
      </trkpt>
      <trkpt lat="45.62409" lon="2.92829">
        <ele>1054.917968</ele>
        <time>2021-07-07T10:59:01+0200</time>
      </trkpt>
      <trkpt lat="45.62405" lon="2.92833">
        <ele>1054.564487</ele>
        <time>2021-07-07T10:59:02+0200</time>
      </trkpt>
      <trkpt lat="45.62401" lon="2.92838">
        <ele>1054.446133</ele>
        <time>2021-07-07T10:59:03+0200</time>
      </trkpt>
      <trkpt lat="45.62397" lon="2.92843">
        <ele>1054.323944</ele>
        <time>2021-07-07T10:59:04+0200</time>
      </trkpt>
      <trkpt lat="45.62392" lon="2.92849">
        <ele>1054.142241</ele>
        <time>2021-07-07T10:59:05+0200</time>
      </trkpt>
      <trkpt lat="45.62388" lon="2.92855">
        <ele>1053.883679</ele>
        <time>2021-07-07T10:59:06+0200</time>
      </trkpt>
      <trkpt lat="45.62383" lon="2.92861">
        <ele>1053.684329</ele>
        <time>2021-07-07T10:59:07+0200</time>
      </trkpt>
      <trkpt lat="45.62379" lon="2.92866">
        <ele>1053.397263</ele>
        <time>2021-07-07T10:59:08+0200</time>
      </trkpt>
      <trkpt lat="45.62375" lon="2.9287">
        <ele>1053.048841</ele>
        <time>2021-07-07T10:59:09+0200</time>
      </trkpt>
      <trkpt lat="45.62371" lon="2.92874">
        <ele>1052.660041</ele>
        <time>2021-07-07T10:59:10+0200</time>
      </trkpt>
      <trkpt lat="45.62364" lon="2.92878">
        <ele>1051.942967</ele>
        <time>2021-07-07T10:59:12+0200</time>
      </trkpt>
      <trkpt lat="45.62358" lon="2.92884">
        <ele>1051.9735</ele>
        <time>2021-07-07T10:59:14+0200</time>
      </trkpt>
      <trkpt lat="45.62357" lon="2.92894">
        <ele>1053.652497</ele>
        <time>2021-07-07T10:59:16+0200</time>
      </trkpt>
      <trkpt lat="45.62359" lon="2.92903">
        <ele>1053.97823</ele>
        <time>2021-07-07T10:59:18+0200</time>
      </trkpt>
      <trkpt lat="45.62361" lon="2.9291">
        <ele>1054.465097</ele>
        <time>2021-07-07T10:59:20+0200</time>
      </trkpt>
      <trkpt lat="45.62362" lon="2.92918">
        <ele>1054.305575</ele>
        <time>2021-07-07T10:59:22+0200</time>
      </trkpt>
      <trkpt lat="45.62361" lon="2.92927">
        <ele>1054.865516</ele>
        <time>2021-07-07T10:59:24+0200</time>
      </trkpt>
      <trkpt lat="45.62357" lon="2.92937">
        <ele>1054.627639</ele>
        <time>2021-07-07T10:59:26+0200</time>
      </trkpt>
      <trkpt lat="45.62354" lon="2.92945">
        <ele>1053.769683</ele>
        <time>2021-07-07T10:59:27+0200</time>
      </trkpt>
      <trkpt lat="45.62351" lon="2.92953">
        <ele>1053.103338</ele>
        <time>2021-07-07T10:59:28+0200</time>
      </trkpt>
      <trkpt lat="45.6235" lon="2.92961">
        <ele>1053.09079</ele>
        <time>2021-07-07T10:59:29+0200</time>
      </trkpt>
      <trkpt lat="45.62348" lon="2.92969">
        <ele>1053.464801</ele>
        <time>2021-07-07T10:59:30+0200</time>
      </trkpt>
      <trkpt lat="45.62348" lon="2.92976">
        <ele>1053.524047</ele>
        <time>2021-07-07T10:59:31+0200</time>
      </trkpt>
      <trkpt lat="45.62349" lon="2.92985">
        <ele>1053.254242</ele>
        <time>2021-07-07T10:59:32+0200</time>
      </trkpt>
      <trkpt lat="45.62346" lon="2.9299">
        <ele>1052.618523</ele>
        <time>2021-07-07T10:59:33+0200</time>
      </trkpt>
      <trkpt lat="45.62339" lon="2.92992">
        <ele>1051.506004</ele>
        <time>2021-07-07T10:59:34+0200</time>
      </trkpt>
      <trkpt lat="45.62334" lon="2.92989">
        <ele>1050.627076</ele>
        <time>2021-07-07T10:59:35+0200</time>
      </trkpt>
      <trkpt lat="45.62331" lon="2.92995">
        <ele>1049.067703</ele>
        <time>2021-07-07T10:59:41+0200</time>
      </trkpt>
      <trkpt lat="45.62334" lon="2.93002">
        <ele>1049.336274</ele>
        <time>2021-07-07T10:59:44+0200</time>
      </trkpt>
      <trkpt lat="45.62333" lon="2.9301">
        <ele>1049.939648</ele>
        <time>2021-07-07T10:59:47+0200</time>
      </trkpt>
      <trkpt lat="45.62334" lon="2.9302">
        <ele>1050.116363</ele>
        <time>2021-07-07T10:59:49+0200</time>
      </trkpt>
      <trkpt lat="45.62334" lon="2.93029">
        <ele>1049.788283</ele>
        <time>2021-07-07T10:59:51+0200</time>
      </trkpt>
      <trkpt lat="45.6233" lon="2.93031">
        <ele>1049.035059</ele>
        <time>2021-07-07T10:59:56+0200</time>
      </trkpt>
      <trkpt lat="45.62323" lon="2.9303">
        <ele>1048.388393</ele>
        <time>2021-07-07T11:00:01+0200</time>
      </trkpt>
      <trkpt lat="45.62315" lon="2.93032">
        <ele>1048.194436</ele>
        <time>2021-07-07T11:00:03+0200</time>
      </trkpt>
      <trkpt lat="45.6231" lon="2.93031">
        <ele>1047.237318</ele>
        <time>2021-07-07T11:00:04+0200</time>
      </trkpt>
      <trkpt lat="45.62305" lon="2.93028">
        <ele>1046.446726</ele>
        <time>2021-07-07T11:00:05+0200</time>
      </trkpt>
      <trkpt lat="45.62297" lon="2.93027">
        <ele>1045.329917</ele>
        <time>2021-07-07T11:00:06+0200</time>
      </trkpt>
      <trkpt lat="45.6229" lon="2.93025">
        <ele>1044.329956</ele>
        <time>2021-07-07T11:00:07+0200</time>
      </trkpt>
      <trkpt lat="45.62281" lon="2.93021">
        <ele>1043.777356</ele>
        <time>2021-07-07T11:00:08+0200</time>
      </trkpt>
      <trkpt lat="45.62271" lon="2.93015">
        <ele>1043.049956</ele>
        <time>2021-07-07T11:00:09+0200</time>
      </trkpt>
      <trkpt lat="45.6226" lon="2.93007">
        <ele>1041.678355</ele>
        <time>2021-07-07T11:00:10+0200</time>
      </trkpt>
      <trkpt lat="45.62251" lon="2.93">
        <ele>1040.389232</ele>
        <time>2021-07-07T11:00:11+0200</time>
      </trkpt>
      <trkpt lat="45.62243" lon="2.92992">
        <ele>1038.690468</ele>
        <time>2021-07-07T11:00:12+0200</time>
      </trkpt>
      <trkpt lat="45.62236" lon="2.92987">
        <ele>1037.330606</ele>
        <time>2021-07-07T11:00:13+0200</time>
      </trkpt>
      <trkpt lat="45.62228" lon="2.92979">
        <ele>1034.99328</ele>
        <time>2021-07-07T11:00:14+0200</time>
      </trkpt>
      <trkpt lat="45.62221" lon="2.92971">
        <ele>1033.428514</ele>
        <time>2021-07-07T11:00:15+0200</time>
      </trkpt>
      <trkpt lat="45.62215" lon="2.92963">
        <ele>1032.118295</ele>
        <time>2021-07-07T11:00:16+0200</time>
      </trkpt>
      <trkpt lat="45.62209" lon="2.92956">
        <ele>1030.469707</ele>
        <time>2021-07-07T11:00:17+0200</time>
      </trkpt>
      <trkpt lat="45.62201" lon="2.92947">
        <ele>1028.514598</ele>
        <time>2021-07-07T11:00:18+0200</time>
      </trkpt>
      <trkpt lat="45.62193" lon="2.92937">
        <ele>1026.48615</ele>
        <time>2021-07-07T11:00:19+0200</time>
      </trkpt>
      <trkpt lat="45.62185" lon="2.92927">
        <ele>1024.638473</ele>
        <time>2021-07-07T11:00:20+0200</time>
      </trkpt>
      <trkpt lat="45.62181" lon="2.92915">
        <ele>1023.35814</ele>
        <time>2021-07-07T11:00:21+0200</time>
      </trkpt>
      <trkpt lat="45.62177" lon="2.92902">
        <ele>1022.326595</ele>
        <time>2021-07-07T11:00:22+0200</time>
      </trkpt>
      <trkpt lat="45.62176" lon="2.92886">
        <ele>1021.716793</ele>
        <time>2021-07-07T11:00:23+0200</time>
      </trkpt>
      <trkpt lat="45.62176" lon="2.92872">
        <ele>1020.800769</ele>
        <time>2021-07-07T11:00:24+0200</time>
      </trkpt>
      <trkpt lat="45.62176" lon="2.92864">
        <ele>1020.281677</ele>
        <time>2021-07-07T11:00:25+0200</time>
      </trkpt>
      <trkpt lat="45.62175" lon="2.92852">
        <ele>1019.343983</ele>
        <time>2021-07-07T11:00:26+0200</time>
      </trkpt>
      <trkpt lat="45.6217" lon="2.92857">
        <ele>1024.506627</ele>
        <time>2021-07-07T11:00:27+0200</time>
      </trkpt>
      <trkpt lat="45.62162" lon="2.92858">
        <ele>1023.038483</ele>
        <time>2021-07-07T11:00:29+0200</time>
      </trkpt>
      <trkpt lat="45.62157" lon="2.9286">
        <ele>1022.366031</ele>
        <time>2021-07-07T11:00:30+0200</time>
      </trkpt>
      <trkpt lat="45.62152" lon="2.92861">
        <ele>1021.907655</ele>
        <time>2021-07-07T11:00:31+0200</time>
      </trkpt>
      <trkpt lat="45.62147" lon="2.92862">
        <ele>1021.709263</ele>
        <time>2021-07-07T11:00:32+0200</time>
      </trkpt>
      <trkpt lat="45.62142" lon="2.92863">
        <ele>1021.535818</ele>
        <time>2021-07-07T11:00:33+0200</time>
      </trkpt>
      <trkpt lat="45.62133" lon="2.92866">
        <ele>1021.022539</ele>
        <time>2021-07-07T11:00:35+0200</time>
      </trkpt>
      <trkpt lat="45.62128" lon="2.92867">
        <ele>1020.952955</ele>
        <time>2021-07-07T11:00:36+0200</time>
      </trkpt>
      <trkpt lat="45.62124" lon="2.92867">
        <ele>1020.93352</ele>
        <time>2021-07-07T11:00:37+0200</time>
      </trkpt>
      <trkpt lat="45.62119" lon="2.92868">
        <ele>1020.897273</ele>
        <time>2021-07-07T11:00:38+0200</time>
      </trkpt>
      <trkpt lat="45.62114" lon="2.92868">
        <ele>1020.868912</ele>
        <time>2021-07-07T11:00:39+0200</time>
      </trkpt>
      <trkpt lat="45.6211" lon="2.92869">
        <ele>1020.933028</ele>
        <time>2021-07-07T11:00:40+0200</time>
      </trkpt>
      <trkpt lat="45.62101" lon="2.9287">
        <ele>1021.310983</ele>
        <time>2021-07-07T11:00:42+0200</time>
      </trkpt>
      <trkpt lat="45.62096" lon="2.92872">
        <ele>1021.39485</ele>
        <time>2021-07-07T11:00:43+0200</time>
      </trkpt>
      <trkpt lat="45.62088" lon="2.92873">
        <ele>1021.418451</ele>
        <time>2021-07-07T11:00:45+0200</time>
      </trkpt>
      <trkpt lat="45.6208" lon="2.92874">
        <ele>1021.715487</ele>
        <time>2021-07-07T11:00:47+0200</time>
      </trkpt>
      <trkpt lat="45.62074" lon="2.92875">
        <ele>1022.53087</ele>
        <time>2021-07-07T11:00:49+0200</time>
      </trkpt>
      <trkpt lat="45.62068" lon="2.92877">
        <ele>1023.219558</ele>
        <time>2021-07-07T11:00:51+0200</time>
      </trkpt>
      <trkpt lat="45.62063" lon="2.92882">
        <ele>1023.456023</ele>
        <time>2021-07-07T11:00:53+0200</time>
      </trkpt>
      <trkpt lat="45.62062" lon="2.92892">
        <ele>1024.235001</ele>
        <time>2021-07-07T11:00:55+0200</time>
      </trkpt>
      <trkpt lat="45.62062" lon="2.92904">
        <ele>1024.649741</ele>
        <time>2021-07-07T11:00:57+0200</time>
      </trkpt>
      <trkpt lat="45.62063" lon="2.92911">
        <ele>1024.434012</ele>
        <time>2021-07-07T11:00:58+0200</time>
      </trkpt>
      <trkpt lat="45.62063" lon="2.92918">
        <ele>1023.888574</ele>
        <time>2021-07-07T11:00:59+0200</time>
      </trkpt>
      <trkpt lat="45.62064" lon="2.92926">
        <ele>1023.421609</ele>
        <time>2021-07-07T11:01:00+0200</time>
      </trkpt>
      <trkpt lat="45.62064" lon="2.92934">
        <ele>1022.71637</ele>
        <time>2021-07-07T11:01:01+0200</time>
      </trkpt>
      <trkpt lat="45.62065" lon="2.92942">
        <ele>1022.269616</ele>
        <time>2021-07-07T11:01:02+0200</time>
      </trkpt>
      <trkpt lat="45.62065" lon="2.92951">
        <ele>1021.756616</ele>
        <time>2021-07-07T11:01:03+0200</time>
      </trkpt>
      <trkpt lat="45.62064" lon="2.92962">
        <ele>1021.764628</ele>
        <time>2021-07-07T11:01:04+0200</time>
      </trkpt>
      <trkpt lat="45.62065" lon="2.92973">
        <ele>1021.42901</ele>
        <time>2021-07-07T11:01:05+0200</time>
      </trkpt>
      <trkpt lat="45.62065" lon="2.92982">
        <ele>1021.040092</ele>
        <time>2021-07-07T11:01:06+0200</time>
      </trkpt>
      <trkpt lat="45.62066" lon="2.92992">
        <ele>1020.737705</ele>
        <time>2021-07-07T11:01:07+0200</time>
      </trkpt>
      <trkpt lat="45.62066" lon="2.93002">
        <ele>1020.358356</ele>
        <time>2021-07-07T11:01:08+0200</time>
      </trkpt>
      <trkpt lat="45.62067" lon="2.93012">
        <ele>1019.828275</ele>
        <time>2021-07-07T11:01:09+0200</time>
      </trkpt>
      <trkpt lat="45.62067" lon="2.93022">
        <ele>1019.19205</ele>
        <time>2021-07-07T11:01:10+0200</time>
      </trkpt>
      <trkpt lat="45.62067" lon="2.93032">
        <ele>1018.964385</ele>
        <time>2021-07-07T11:01:11+0200</time>
      </trkpt>
      <trkpt lat="45.62067" lon="2.93042">
        <ele>1018.785279</ele>
        <time>2021-07-07T11:01:12+0200</time>
      </trkpt>
      <trkpt lat="45.62068" lon="2.93051">
        <ele>1018.404712</ele>
        <time>2021-07-07T11:01:13+0200</time>
      </trkpt>
      <trkpt lat="45.62068" lon="2.9306">
        <ele>1017.592618</ele>
        <time>2021-07-07T11:01:14+0200</time>
      </trkpt>
      <trkpt lat="45.62067" lon="2.9307">
        <ele>1017.685433</ele>
        <time>2021-07-07T11:01:15+0200</time>
      </trkpt>
      <trkpt lat="45.62067" lon="2.93079">
        <ele>1017.403053</ele>
        <time>2021-07-07T11:01:16+0200</time>
      </trkpt>
      <trkpt lat="45.62065" lon="2.93087">
        <ele>1017.239817</ele>
        <time>2021-07-07T11:01:17+0200</time>
      </trkpt>
      <trkpt lat="45.62063" lon="2.93095">
        <ele>1017.271966</ele>
        <time>2021-07-07T11:01:18+0200</time>
      </trkpt>
      <trkpt lat="45.62061" lon="2.93104">
        <ele>1017.233228</ele>
        <time>2021-07-07T11:01:19+0200</time>
      </trkpt>
      <trkpt lat="45.6206" lon="2.93112">
        <ele>1017.192916</ele>
        <time>2021-07-07T11:01:20+0200</time>
      </trkpt>
      <trkpt lat="45.62058" lon="2.93121">
        <ele>1017.201888</ele>
        <time>2021-07-07T11:01:21+0200</time>
      </trkpt>
      <trkpt lat="45.62057" lon="2.93129">
        <ele>1016.724982</ele>
        <time>2021-07-07T11:01:22+0200</time>
      </trkpt>
      <trkpt lat="45.62054" lon="2.93138">
        <ele>1017.205202</ele>
        <time>2021-07-07T11:01:23+0200</time>
      </trkpt>
      <trkpt lat="45.62052" lon="2.93148">
        <ele>1016.940494</ele>
        <time>2021-07-07T11:01:24+0200</time>
      </trkpt>
      <trkpt lat="45.6205" lon="2.93157">
        <ele>1017.013959</ele>
        <time>2021-07-07T11:01:25+0200</time>
      </trkpt>
      <trkpt lat="45.62049" lon="2.93166">
        <ele>1017.064542</ele>
        <time>2021-07-07T11:01:26+0200</time>
      </trkpt>
      <trkpt lat="45.62047" lon="2.93174">
        <ele>1017.108694</ele>
        <time>2021-07-07T11:01:27+0200</time>
      </trkpt>
      <trkpt lat="45.62046" lon="2.93182">
        <ele>1017.159634</ele>
        <time>2021-07-07T11:01:28+0200</time>
      </trkpt>
      <trkpt lat="45.62045" lon="2.9319">
        <ele>1017.077575</ele>
        <time>2021-07-07T11:01:29+0200</time>
      </trkpt>
      <trkpt lat="45.62043" lon="2.93199">
        <ele>1016.918551</ele>
        <time>2021-07-07T11:01:30+0200</time>
      </trkpt>
      <trkpt lat="45.62041" lon="2.93207">
        <ele>1016.972717</ele>
        <time>2021-07-07T11:01:31+0200</time>
      </trkpt>
      <trkpt lat="45.6204" lon="2.93215">
        <ele>1016.882436</ele>
        <time>2021-07-07T11:01:32+0200</time>
      </trkpt>
      <trkpt lat="45.62038" lon="2.93222">
        <ele>1016.882948</ele>
        <time>2021-07-07T11:01:33+0200</time>
      </trkpt>
      <trkpt lat="45.62037" lon="2.9323">
        <ele>1016.76018</ele>
        <time>2021-07-07T11:01:34+0200</time>
      </trkpt>
      <trkpt lat="45.62035" lon="2.93237">
        <ele>1016.803513</ele>
        <time>2021-07-07T11:01:35+0200</time>
      </trkpt>
      <trkpt lat="45.62034" lon="2.93246">
        <ele>1016.663976</ele>
        <time>2021-07-07T11:01:36+0200</time>
      </trkpt>
      <trkpt lat="45.62034" lon="2.93253">
        <ele>1016.808205</ele>
        <time>2021-07-07T11:01:37+0200</time>
      </trkpt>
      <trkpt lat="45.62034" lon="2.93261">
        <ele>1016.621706</ele>
        <time>2021-07-07T11:01:38+0200</time>
      </trkpt>
      <trkpt lat="45.62033" lon="2.93268">
        <ele>1016.070733</ele>
        <time>2021-07-07T11:01:39+0200</time>
      </trkpt>
      <trkpt lat="45.62034" lon="2.93276">
        <ele>1015.741988</ele>
        <time>2021-07-07T11:01:40+0200</time>
      </trkpt>
      <trkpt lat="45.62034" lon="2.93284">
        <ele>1015.757353</ele>
        <time>2021-07-07T11:01:41+0200</time>
      </trkpt>
      <trkpt lat="45.62035" lon="2.93293">
        <ele>1016.072017</ele>
        <time>2021-07-07T11:01:42+0200</time>
      </trkpt>
      <trkpt lat="45.62035" lon="2.933">
        <ele>1016.093286</ele>
        <time>2021-07-07T11:01:43+0200</time>
      </trkpt>
      <trkpt lat="45.62036" lon="2.93307">
        <ele>1016.154349</ele>
        <time>2021-07-07T11:01:44+0200</time>
      </trkpt>
      <trkpt lat="45.62035" lon="2.9332">
        <ele>1015.649664</ele>
        <time>2021-07-07T11:01:46+0200</time>
      </trkpt>
      <trkpt lat="45.62034" lon="2.93331">
        <ele>1015.332455</ele>
        <time>2021-07-07T11:01:48+0200</time>
      </trkpt>
      <trkpt lat="45.62032" lon="2.93341">
        <ele>1015.77178</ele>
        <time>2021-07-07T11:01:50+0200</time>
      </trkpt>
      <trkpt lat="45.62029" lon="2.93351">
        <ele>1016.744339</ele>
        <time>2021-07-07T11:01:52+0200</time>
      </trkpt>
      <trkpt lat="45.62027" lon="2.9336">
        <ele>1017.604688</ele>
        <time>2021-07-07T11:01:54+0200</time>
      </trkpt>
      <trkpt lat="45.62022" lon="2.93367">
        <ele>1018.073584</ele>
        <time>2021-07-07T11:01:57+0200</time>
      </trkpt>
      <trkpt lat="45.62019" lon="2.93375">
        <ele>1018.335992</ele>
        <time>2021-07-07T11:01:59+0200</time>
      </trkpt>
      <trkpt lat="45.62016" lon="2.9338">
        <ele>1018.853935</ele>
        <time>2021-07-07T11:02:01+0200</time>
      </trkpt>
      <trkpt lat="45.62013" lon="2.93385">
        <ele>1019.030921</ele>
        <time>2021-07-07T11:02:03+0200</time>
      </trkpt>
      <trkpt lat="45.6201" lon="2.93391">
        <ele>1019.327562</ele>
        <time>2021-07-07T11:02:05+0200</time>
      </trkpt>
      <trkpt lat="45.62006" lon="2.93398">
        <ele>1019.898845</ele>
        <time>2021-07-07T11:02:08+0200</time>
      </trkpt>
      <trkpt lat="45.62002" lon="2.93401">
        <ele>1020.325515</ele>
        <time>2021-07-07T11:02:10+0200</time>
      </trkpt>
      <trkpt lat="45.61997" lon="2.93408">
        <ele>1020.417154</ele>
        <time>2021-07-07T11:02:12+0200</time>
      </trkpt>
      <trkpt lat="45.61993" lon="2.93413">
        <ele>1021.101591</ele>
        <time>2021-07-07T11:02:14+0200</time>
      </trkpt>
      <trkpt lat="45.61989" lon="2.93418">
        <ele>1021.04607</ele>
        <time>2021-07-07T11:02:16+0200</time>
      </trkpt>
      <trkpt lat="45.61987" lon="2.93425">
        <ele>1021.834455</ele>
        <time>2021-07-07T11:02:18+0200</time>
      </trkpt>
      <trkpt lat="45.61983" lon="2.93431">
        <ele>1022.553758</ele>
        <time>2021-07-07T11:02:20+0200</time>
      </trkpt>
      <trkpt lat="45.6198" lon="2.93436">
        <ele>1022.812677</ele>
        <time>2021-07-07T11:02:22+0200</time>
      </trkpt>
      <trkpt lat="45.61977" lon="2.93441">
        <ele>1023.130382</ele>
        <time>2021-07-07T11:02:24+0200</time>
      </trkpt>
      <trkpt lat="45.61973" lon="2.93449">
        <ele>1023.681423</ele>
        <time>2021-07-07T11:02:27+0200</time>
      </trkpt>
      <trkpt lat="45.6197" lon="2.93455">
        <ele>1024.14057</ele>
        <time>2021-07-07T11:02:30+0200</time>
      </trkpt>
      <trkpt lat="45.61967" lon="2.9346">
        <ele>1024.390119</ele>
        <time>2021-07-07T11:02:32+0200</time>
      </trkpt>
      <trkpt lat="45.61962" lon="2.93466">
        <ele>1025.041913</ele>
        <time>2021-07-07T11:02:35+0200</time>
      </trkpt>
      <trkpt lat="45.61958" lon="2.93473">
        <ele>1025.956711</ele>
        <time>2021-07-07T11:02:38+0200</time>
      </trkpt>
      <trkpt lat="45.61955" lon="2.93481">
        <ele>1026.636827</ele>
        <time>2021-07-07T11:02:41+0200</time>
      </trkpt>
      <trkpt lat="45.61952" lon="2.93487">
        <ele>1027.20941</ele>
        <time>2021-07-07T11:02:43+0200</time>
      </trkpt>
      <trkpt lat="45.61948" lon="2.93492">
        <ele>1027.744508</ele>
        <time>2021-07-07T11:02:45+0200</time>
      </trkpt>
      <trkpt lat="45.61945" lon="2.93498">
        <ele>1028.552056</ele>
        <time>2021-07-07T11:02:48+0200</time>
      </trkpt>
      <trkpt lat="45.61941" lon="2.93504">
        <ele>1029.30955</ele>
        <time>2021-07-07T11:02:50+0200</time>
      </trkpt>
      <trkpt lat="45.61936" lon="2.93511">
        <ele>1029.975148</ele>
        <time>2021-07-07T11:02:53+0200</time>
      </trkpt>
      <trkpt lat="45.61933" lon="2.93516">
        <ele>1030.404149</ele>
        <time>2021-07-07T11:02:55+0200</time>
      </trkpt>
      <trkpt lat="45.6193" lon="2.93521">
        <ele>1031.244804</ele>
        <time>2021-07-07T11:02:57+0200</time>
      </trkpt>
      <trkpt lat="45.61927" lon="2.93527">
        <ele>1032.031224</ele>
        <time>2021-07-07T11:03:00+0200</time>
      </trkpt>
      <trkpt lat="45.61923" lon="2.93533">
        <ele>1032.82276</ele>
        <time>2021-07-07T11:03:03+0200</time>
      </trkpt>
      <trkpt lat="45.61921" lon="2.93541">
        <ele>1033.918159</ele>
        <time>2021-07-07T11:03:06+0200</time>
      </trkpt>
      <trkpt lat="45.61919" lon="2.93549">
        <ele>1034.643319</ele>
        <time>2021-07-07T11:03:09+0200</time>
      </trkpt>
      <trkpt lat="45.61918" lon="2.93556">
        <ele>1035.712551</ele>
        <time>2021-07-07T11:03:12+0200</time>
      </trkpt>
      <trkpt lat="45.61917" lon="2.93565">
        <ele>1036.713448</ele>
        <time>2021-07-07T11:03:15+0200</time>
      </trkpt>
      <trkpt lat="45.61915" lon="2.93572">
        <ele>1037.370825</ele>
        <time>2021-07-07T11:03:18+0200</time>
      </trkpt>
      <trkpt lat="45.61914" lon="2.93581">
        <ele>1038.306093</ele>
        <time>2021-07-07T11:03:21+0200</time>
      </trkpt>
      <trkpt lat="45.61911" lon="2.93587">
        <ele>1038.448953</ele>
        <time>2021-07-07T11:03:24+0200</time>
      </trkpt>
      <trkpt lat="45.61908" lon="2.93595">
        <ele>1039.263513</ele>
        <time>2021-07-07T11:03:27+0200</time>
      </trkpt>
      <trkpt lat="45.61905" lon="2.93601">
        <ele>1039.945941</ele>
        <time>2021-07-07T11:03:30+0200</time>
      </trkpt>
      <trkpt lat="45.61904" lon="2.9361">
        <ele>1041.233069</ele>
        <time>2021-07-07T11:03:33+0200</time>
      </trkpt>
      <trkpt lat="45.61901" lon="2.93618">
        <ele>1041.345888</ele>
        <time>2021-07-07T11:03:36+0200</time>
      </trkpt>
      <trkpt lat="45.61899" lon="2.93626">
        <ele>1041.307778</ele>
        <time>2021-07-07T11:03:39+0200</time>
      </trkpt>
      <trkpt lat="45.61897" lon="2.93634">
        <ele>1041.936457</ele>
        <time>2021-07-07T11:03:42+0200</time>
      </trkpt>
      <trkpt lat="45.61895" lon="2.93643">
        <ele>1042.279357</ele>
        <time>2021-07-07T11:03:45+0200</time>
      </trkpt>
      <trkpt lat="45.61893" lon="2.93652">
        <ele>1043.281249</ele>
        <time>2021-07-07T11:03:48+0200</time>
      </trkpt>
      <trkpt lat="45.61892" lon="2.93658">
        <ele>1043.477269</ele>
        <time>2021-07-07T11:03:50+0200</time>
      </trkpt>
      <trkpt lat="45.61891" lon="2.93666">
        <ele>1044.25176</ele>
        <time>2021-07-07T11:03:53+0200</time>
      </trkpt>
      <trkpt lat="45.61889" lon="2.93675">
        <ele>1044.582117</ele>
        <time>2021-07-07T11:03:56+0200</time>
      </trkpt>
      <trkpt lat="45.61887" lon="2.93684">
        <ele>1045.213994</ele>
        <time>2021-07-07T11:03:59+0200</time>
      </trkpt>
      <trkpt lat="45.61886" lon="2.93692">
        <ele>1045.731541</ele>
        <time>2021-07-07T11:04:02+0200</time>
      </trkpt>
      <trkpt lat="45.61883" lon="2.93701">
        <ele>1046.201663</ele>
        <time>2021-07-07T11:04:05+0200</time>
      </trkpt>
      <trkpt lat="45.61882" lon="2.9371">
        <ele>1046.384257</ele>
        <time>2021-07-07T11:04:08+0200</time>
      </trkpt>
      <trkpt lat="45.61881" lon="2.93718">
        <ele>1047.383796</ele>
        <time>2021-07-07T11:04:11+0200</time>
      </trkpt>
      <trkpt lat="45.6188" lon="2.93727">
        <ele>1048.276914</ele>
        <time>2021-07-07T11:04:14+0200</time>
      </trkpt>
      <trkpt lat="45.61878" lon="2.93736">
        <ele>1049.261201</ele>
        <time>2021-07-07T11:04:17+0200</time>
      </trkpt>
      <trkpt lat="45.61878" lon="2.93744">
        <ele>1049.941569</ele>
        <time>2021-07-07T11:04:20+0200</time>
      </trkpt>
      <trkpt lat="45.61876" lon="2.93751">
        <ele>1050.430585</ele>
        <time>2021-07-07T11:04:23+0200</time>
      </trkpt>
      <trkpt lat="45.61875" lon="2.9376">
        <ele>1051.378378</ele>
        <time>2021-07-07T11:04:26+0200</time>
      </trkpt>
      <trkpt lat="45.61874" lon="2.93769">
        <ele>1051.693443</ele>
        <time>2021-07-07T11:04:29+0200</time>
      </trkpt>
      <trkpt lat="45.61873" lon="2.93775">
        <ele>1051.756981</ele>
        <time>2021-07-07T11:04:31+0200</time>
      </trkpt>
      <trkpt lat="45.61871" lon="2.93784">
        <ele>1051.95262</ele>
        <time>2021-07-07T11:04:34+0200</time>
      </trkpt>
      <trkpt lat="45.61871" lon="2.93792">
        <ele>1052.013805</ele>
        <time>2021-07-07T11:04:36+0200</time>
      </trkpt>
      <trkpt lat="45.6187" lon="2.93801">
        <ele>1052.921828</ele>
        <time>2021-07-07T11:04:39+0200</time>
      </trkpt>
      <trkpt lat="45.61869" lon="2.93808">
        <ele>1053.664552</ele>
        <time>2021-07-07T11:04:41+0200</time>
      </trkpt>
      <trkpt lat="45.61867" lon="2.93816">
        <ele>1054.320748</ele>
        <time>2021-07-07T11:04:44+0200</time>
      </trkpt>
      <trkpt lat="45.61867" lon="2.93822">
        <ele>1054.767678</ele>
        <time>2021-07-07T11:04:46+0200</time>
      </trkpt>
      <trkpt lat="45.61866" lon="2.9383">
        <ele>1054.661402</ele>
        <time>2021-07-07T11:04:48+0200</time>
      </trkpt>
      <trkpt lat="45.61865" lon="2.93838">
        <ele>1055.095396</ele>
        <time>2021-07-07T11:04:50+0200</time>
      </trkpt>
      <trkpt lat="45.61865" lon="2.93845">
        <ele>1055.188429</ele>
        <time>2021-07-07T11:04:52+0200</time>
      </trkpt>
      <trkpt lat="45.61864" lon="2.93852">
        <ele>1055.556483</ele>
        <time>2021-07-07T11:04:54+0200</time>
      </trkpt>
      <trkpt lat="45.61864" lon="2.93861">
        <ele>1055.567302</ele>
        <time>2021-07-07T11:04:56+0200</time>
      </trkpt>
      <trkpt lat="45.61864" lon="2.9387">
        <ele>1055.528454</ele>
        <time>2021-07-07T11:04:58+0200</time>
      </trkpt>
      <trkpt lat="45.61864" lon="2.93878">
        <ele>1056.12828</ele>
        <time>2021-07-07T11:05:00+0200</time>
      </trkpt>
      <trkpt lat="45.61863" lon="2.93885">
        <ele>1056.672336</ele>
        <time>2021-07-07T11:05:02+0200</time>
      </trkpt>
      <trkpt lat="45.61863" lon="2.93893">
        <ele>1056.765816</ele>
        <time>2021-07-07T11:05:04+0200</time>
      </trkpt>
      <trkpt lat="45.61862" lon="2.93902">
        <ele>1056.925282</ele>
        <time>2021-07-07T11:05:06+0200</time>
      </trkpt>
      <trkpt lat="45.61862" lon="2.93911">
        <ele>1056.764418</ele>
        <time>2021-07-07T11:05:08+0200</time>
      </trkpt>
      <trkpt lat="45.61862" lon="2.9392">
        <ele>1056.632092</ele>
        <time>2021-07-07T11:05:10+0200</time>
      </trkpt>
      <trkpt lat="45.61862" lon="2.93929">
        <ele>1056.751823</ele>
        <time>2021-07-07T11:05:12+0200</time>
      </trkpt>
      <trkpt lat="45.61862" lon="2.93938">
        <ele>1057.101032</ele>
        <time>2021-07-07T11:05:14+0200</time>
      </trkpt>
      <trkpt lat="45.61862" lon="2.93948">
        <ele>1057.112473</ele>
        <time>2021-07-07T11:05:16+0200</time>
      </trkpt>
      <trkpt lat="45.61861" lon="2.93956">
        <ele>1057.32007</ele>
        <time>2021-07-07T11:05:18+0200</time>
      </trkpt>
      <trkpt lat="45.6186" lon="2.93963">
        <ele>1057.674044</ele>
        <time>2021-07-07T11:05:20+0200</time>
      </trkpt>
      <trkpt lat="45.61858" lon="2.9397">
        <ele>1058.114369</ele>
        <time>2021-07-07T11:05:24+0200</time>
      </trkpt>
      <trkpt lat="45.61855" lon="2.93973">
        <ele>1058.193179</ele>
        <time>2021-07-07T11:05:50+0200</time>
      </trkpt>
      <trkpt lat="45.6185" lon="2.93974">
        <ele>1058.339256</ele>
        <time>2021-07-07T11:08:42+0200</time>
      </trkpt>
      <trkpt lat="45.61844" lon="2.93975">
        <ele>1058.545023</ele>
        <time>2021-07-07T11:08:44+0200</time>
      </trkpt>
      <trkpt lat="45.61839" lon="2.93975">
        <ele>1058.673854</ele>
        <time>2021-07-07T11:08:46+0200</time>
      </trkpt>
      <trkpt lat="45.61832" lon="2.93975">
        <ele>1059.094443</ele>
        <time>2021-07-07T11:08:49+0200</time>
      </trkpt>
      <trkpt lat="45.61827" lon="2.93976">
        <ele>1059.379314</ele>
        <time>2021-07-07T11:08:51+0200</time>
      </trkpt>
      <trkpt lat="45.61823" lon="2.93975">
        <ele>1059.658246</ele>
        <time>2021-07-07T11:08:53+0200</time>
      </trkpt>
      <trkpt lat="45.61818" lon="2.93977">
        <ele>1059.628349</ele>
        <time>2021-07-07T11:08:55+0200</time>
      </trkpt>
      <trkpt lat="45.61813" lon="2.93978">
        <ele>1060.036889</ele>
        <time>2021-07-07T11:08:57+0200</time>
      </trkpt>
      <trkpt lat="45.61809" lon="2.93979">
        <ele>1060.494811</ele>
        <time>2021-07-07T11:08:59+0200</time>
      </trkpt>
      <trkpt lat="45.61804" lon="2.9398">
        <ele>1060.586714</ele>
        <time>2021-07-07T11:09:01+0200</time>
      </trkpt>
      <trkpt lat="45.61799" lon="2.93981">
        <ele>1060.869978</ele>
        <time>2021-07-07T11:09:03+0200</time>
      </trkpt>
      <trkpt lat="45.61794" lon="2.93982">
        <ele>1061.39422</ele>
        <time>2021-07-07T11:09:05+0200</time>
      </trkpt>
      <trkpt lat="45.61788" lon="2.93983">
        <ele>1061.480125</ele>
        <time>2021-07-07T11:09:08+0200</time>
      </trkpt>
      <trkpt lat="45.61782" lon="2.93984">
        <ele>1061.827314</ele>
        <time>2021-07-07T11:09:10+0200</time>
      </trkpt>
      <trkpt lat="45.61778" lon="2.93984">
        <ele>1062.161618</ele>
        <time>2021-07-07T11:09:12+0200</time>
      </trkpt>
      <trkpt lat="45.61773" lon="2.93985">
        <ele>1062.478391</ele>
        <time>2021-07-07T11:09:14+0200</time>
      </trkpt>
      <trkpt lat="45.61769" lon="2.93986">
        <ele>1062.685272</ele>
        <time>2021-07-07T11:09:16+0200</time>
      </trkpt>
      <trkpt lat="45.61764" lon="2.93987">
        <ele>1062.802635</ele>
        <time>2021-07-07T11:09:18+0200</time>
      </trkpt>
      <trkpt lat="45.61759" lon="2.93988">
        <ele>1062.690613</ele>
        <time>2021-07-07T11:09:20+0200</time>
      </trkpt>
      <trkpt lat="45.61754" lon="2.93989">
        <ele>1062.685835</ele>
        <time>2021-07-07T11:09:22+0200</time>
      </trkpt>
      <trkpt lat="45.61749" lon="2.93989">
        <ele>1062.609786</ele>
        <time>2021-07-07T11:09:24+0200</time>
      </trkpt>
      <trkpt lat="45.61744" lon="2.9399">
        <ele>1062.957292</ele>
        <time>2021-07-07T11:09:26+0200</time>
      </trkpt>
      <trkpt lat="45.61739" lon="2.9399">
        <ele>1063.151928</ele>
        <time>2021-07-07T11:09:28+0200</time>
      </trkpt>
      <trkpt lat="45.61734" lon="2.93991">
        <ele>1063.294701</ele>
        <time>2021-07-07T11:09:30+0200</time>
      </trkpt>
      <trkpt lat="45.6173" lon="2.93991">
        <ele>1063.236247</ele>
        <time>2021-07-07T11:09:32+0200</time>
      </trkpt>
      <trkpt lat="45.61725" lon="2.93992">
        <ele>1063.27638</ele>
        <time>2021-07-07T11:09:34+0200</time>
      </trkpt>
      <trkpt lat="45.61719" lon="2.93993">
        <ele>1063.322259</ele>
        <time>2021-07-07T11:09:36+0200</time>
      </trkpt>
      <trkpt lat="45.61714" lon="2.93994">
        <ele>1063.437681</ele>
        <time>2021-07-07T11:09:38+0200</time>
      </trkpt>
      <trkpt lat="45.61709" lon="2.93995">
        <ele>1063.78313</ele>
        <time>2021-07-07T11:09:40+0200</time>
      </trkpt>
      <trkpt lat="45.61704" lon="2.93996">
        <ele>1063.780998</ele>
        <time>2021-07-07T11:09:42+0200</time>
      </trkpt>
      <trkpt lat="45.61699" lon="2.93997">
        <ele>1063.839157</ele>
        <time>2021-07-07T11:09:44+0200</time>
      </trkpt>
      <trkpt lat="45.61694" lon="2.93997">
        <ele>1063.923357</ele>
        <time>2021-07-07T11:09:46+0200</time>
      </trkpt>
      <trkpt lat="45.61689" lon="2.93998">
        <ele>1064.088687</ele>
        <time>2021-07-07T11:09:48+0200</time>
      </trkpt>
      <trkpt lat="45.61684" lon="2.93998">
        <ele>1064.239082</ele>
        <time>2021-07-07T11:09:50+0200</time>
      </trkpt>
      <trkpt lat="45.6168" lon="2.93999">
        <ele>1064.130199</ele>
        <time>2021-07-07T11:09:52+0200</time>
      </trkpt>
      <trkpt lat="45.61674" lon="2.94">
        <ele>1064.285642</ele>
        <time>2021-07-07T11:09:54+0200</time>
      </trkpt>
      <trkpt lat="45.61669" lon="2.94002">
        <ele>1064.24779</ele>
        <time>2021-07-07T11:09:56+0200</time>
      </trkpt>
      <trkpt lat="45.61664" lon="2.94002">
        <ele>1064.274765</ele>
        <time>2021-07-07T11:09:58+0200</time>
      </trkpt>
      <trkpt lat="45.61659" lon="2.94003">
        <ele>1064.372569</ele>
        <time>2021-07-07T11:10:00+0200</time>
      </trkpt>
      <trkpt lat="45.61654" lon="2.94003">
        <ele>1064.458028</ele>
        <time>2021-07-07T11:10:02+0200</time>
      </trkpt>
      <trkpt lat="45.61649" lon="2.94003">
        <ele>1064.612693</ele>
        <time>2021-07-07T11:10:04+0200</time>
      </trkpt>
      <trkpt lat="45.61644" lon="2.94005">
        <ele>1064.80436</ele>
        <time>2021-07-07T11:10:06+0200</time>
      </trkpt>
      <trkpt lat="45.61639" lon="2.94005">
        <ele>1064.679148</ele>
        <time>2021-07-07T11:10:08+0200</time>
      </trkpt>
      <trkpt lat="45.61633" lon="2.94006">
        <ele>1065.110136</ele>
        <time>2021-07-07T11:10:11+0200</time>
      </trkpt>
      <trkpt lat="45.61628" lon="2.94007">
        <ele>1065.136262</ele>
        <time>2021-07-07T11:10:13+0200</time>
      </trkpt>
      <trkpt lat="45.61622" lon="2.94009">
        <ele>1065.548005</ele>
        <time>2021-07-07T11:10:16+0200</time>
      </trkpt>
      <trkpt lat="45.61616" lon="2.94008">
        <ele>1065.891896</ele>
        <time>2021-07-07T11:10:18+0200</time>
      </trkpt>
      <trkpt lat="45.61612" lon="2.94007">
        <ele>1066.353448</ele>
        <time>2021-07-07T11:10:20+0200</time>
      </trkpt>
      <trkpt lat="45.61605" lon="2.94012">
        <ele>1067.361626</ele>
        <time>2021-07-07T11:10:23+0200</time>
      </trkpt>
      <trkpt lat="45.616" lon="2.94011">
        <ele>1067.664234</ele>
        <time>2021-07-07T11:10:26+0200</time>
      </trkpt>
      <trkpt lat="45.61602" lon="2.94005">
        <ele>1068.024081</ele>
        <time>2021-07-07T11:10:29+0200</time>
      </trkpt>
      <trkpt lat="45.61606" lon="2.93998">
        <ele>1068.418752</ele>
        <time>2021-07-07T11:10:32+0200</time>
      </trkpt>
      <trkpt lat="45.61608" lon="2.93991">
        <ele>1068.750845</ele>
        <time>2021-07-07T11:10:34+0200</time>
      </trkpt>
      <trkpt lat="45.61608" lon="2.93984">
        <ele>1069.048856</ele>
        <time>2021-07-07T11:10:36+0200</time>
      </trkpt>
      <trkpt lat="45.61608" lon="2.93977">
        <ele>1069.704301</ele>
        <time>2021-07-07T11:10:38+0200</time>
      </trkpt>
      <trkpt lat="45.61608" lon="2.93969">
        <ele>1070.195156</ele>
        <time>2021-07-07T11:10:40+0200</time>
      </trkpt>
      <trkpt lat="45.61608" lon="2.93963">
        <ele>1070.201652</ele>
        <time>2021-07-07T11:10:42+0200</time>
      </trkpt>
      <trkpt lat="45.61608" lon="2.93956">
        <ele>1070.905815</ele>
        <time>2021-07-07T11:10:44+0200</time>
      </trkpt>
      <trkpt lat="45.61608" lon="2.93949">
        <ele>1071.275183</ele>
        <time>2021-07-07T11:10:46+0200</time>
      </trkpt>
      <trkpt lat="45.61607" lon="2.93941">
        <ele>1071.900676</ele>
        <time>2021-07-07T11:10:48+0200</time>
      </trkpt>
      <trkpt lat="45.61607" lon="2.93935">
        <ele>1072.523861</ele>
        <time>2021-07-07T11:10:50+0200</time>
      </trkpt>
      <trkpt lat="45.61606" lon="2.93925">
        <ele>1073.679479</ele>
        <time>2021-07-07T11:10:53+0200</time>
      </trkpt>
      <trkpt lat="45.61605" lon="2.93917">
        <ele>1074.601203</ele>
        <time>2021-07-07T11:10:56+0200</time>
      </trkpt>
      <trkpt lat="45.61606" lon="2.93908">
        <ele>1075.116498</ele>
        <time>2021-07-07T11:10:59+0200</time>
      </trkpt>
      <trkpt lat="45.61606" lon="2.93901">
        <ele>1075.182239</ele>
        <time>2021-07-07T11:11:01+0200</time>
      </trkpt>
      <trkpt lat="45.61605" lon="2.93893">
        <ele>1075.833283</ele>
        <time>2021-07-07T11:11:03+0200</time>
      </trkpt>
      <trkpt lat="45.61605" lon="2.93885">
        <ele>1076.511457</ele>
        <time>2021-07-07T11:11:06+0200</time>
      </trkpt>
      <trkpt lat="45.61604" lon="2.93877">
        <ele>1077.281087</ele>
        <time>2021-07-07T11:11:09+0200</time>
      </trkpt>
      <trkpt lat="45.61604" lon="2.93867">
        <ele>1078.221266</ele>
        <time>2021-07-07T11:11:12+0200</time>
      </trkpt>
      <trkpt lat="45.61603" lon="2.93861">
        <ele>1078.583435</ele>
        <time>2021-07-07T11:11:14+0200</time>
      </trkpt>
      <trkpt lat="45.61603" lon="2.93853">
        <ele>1078.754996</ele>
        <time>2021-07-07T11:11:17+0200</time>
      </trkpt>
      <trkpt lat="45.61603" lon="2.93845">
        <ele>1079.721821</ele>
        <time>2021-07-07T11:11:20+0200</time>
      </trkpt>
      <trkpt lat="45.61602" lon="2.93835">
        <ele>1080.252066</ele>
        <time>2021-07-07T11:11:23+0200</time>
      </trkpt>
      <trkpt lat="45.61603" lon="2.93826">
        <ele>1081.09012</ele>
        <time>2021-07-07T11:11:26+0200</time>
      </trkpt>
      <trkpt lat="45.61602" lon="2.93819">
        <ele>1080.856672</ele>
        <time>2021-07-07T11:11:28+0200</time>
      </trkpt>
      <trkpt lat="45.61601" lon="2.9381">
        <ele>1081.558677</ele>
        <time>2021-07-07T11:11:31+0200</time>
      </trkpt>
      <trkpt lat="45.616" lon="2.93801">
        <ele>1082.372742</ele>
        <time>2021-07-07T11:11:34+0200</time>
      </trkpt>
      <trkpt lat="45.616" lon="2.93794">
        <ele>1082.559285</ele>
        <time>2021-07-07T11:11:36+0200</time>
      </trkpt>
      <trkpt lat="45.61599" lon="2.93787">
        <ele>1083.471298</ele>
        <time>2021-07-07T11:11:39+0200</time>
      </trkpt>
      <trkpt lat="45.61598" lon="2.9378">
        <ele>1083.938806</ele>
        <time>2021-07-07T11:11:42+0200</time>
      </trkpt>
      <trkpt lat="45.61598" lon="2.93771">
        <ele>1084.845764</ele>
        <time>2021-07-07T11:11:45+0200</time>
      </trkpt>
      <trkpt lat="45.61597" lon="2.93762">
        <ele>1085.471898</ele>
        <time>2021-07-07T11:11:48+0200</time>
      </trkpt>
      <trkpt lat="45.61598" lon="2.93754">
        <ele>1086.566163</ele>
        <time>2021-07-07T11:11:51+0200</time>
      </trkpt>
      <trkpt lat="45.61598" lon="2.93745">
        <ele>1087.347229</ele>
        <time>2021-07-07T11:11:54+0200</time>
      </trkpt>
      <trkpt lat="45.61598" lon="2.93737">
        <ele>1087.485299</ele>
        <time>2021-07-07T11:11:57+0200</time>
      </trkpt>
      <trkpt lat="45.61598" lon="2.93728">
        <ele>1088.17128</ele>
        <time>2021-07-07T11:12:00+0200</time>
      </trkpt>
      <trkpt lat="45.61597" lon="2.93719">
        <ele>1088.531313</ele>
        <time>2021-07-07T11:12:03+0200</time>
      </trkpt>
      <trkpt lat="45.61597" lon="2.9371">
        <ele>1089.282538</ele>
        <time>2021-07-07T11:12:06+0200</time>
      </trkpt>
      <trkpt lat="45.61595" lon="2.937">
        <ele>1089.861026</ele>
        <time>2021-07-07T11:12:09+0200</time>
      </trkpt>
      <trkpt lat="45.61595" lon="2.93692">
        <ele>1090.042273</ele>
        <time>2021-07-07T11:12:11+0200</time>
      </trkpt>
      <trkpt lat="45.61595" lon="2.93684">
        <ele>1090.40967</ele>
        <time>2021-07-07T11:12:14+0200</time>
      </trkpt>
      <trkpt lat="45.61595" lon="2.93675">
        <ele>1091.059782</ele>
        <time>2021-07-07T11:12:17+0200</time>
      </trkpt>
      <trkpt lat="45.61594" lon="2.93666">
        <ele>1091.157237</ele>
        <time>2021-07-07T11:12:20+0200</time>
      </trkpt>
      <trkpt lat="45.61593" lon="2.93659">
        <ele>1091.146632</ele>
        <time>2021-07-07T11:12:22+0200</time>
      </trkpt>
      <trkpt lat="45.61594" lon="2.93653">
        <ele>1091.753235</ele>
        <time>2021-07-07T11:12:24+0200</time>
      </trkpt>
      <trkpt lat="45.61593" lon="2.93646">
        <ele>1092.028128</ele>
        <time>2021-07-07T11:12:26+0200</time>
      </trkpt>
      <trkpt lat="45.61593" lon="2.93637">
        <ele>1092.698402</ele>
        <time>2021-07-07T11:12:29+0200</time>
      </trkpt>
      <trkpt lat="45.61594" lon="2.93629">
        <ele>1093.072823</ele>
        <time>2021-07-07T11:12:31+0200</time>
      </trkpt>
      <trkpt lat="45.61593" lon="2.93621">
        <ele>1093.317498</ele>
        <time>2021-07-07T11:12:33+0200</time>
      </trkpt>
      <trkpt lat="45.61593" lon="2.93612">
        <ele>1093.525445</ele>
        <time>2021-07-07T11:12:35+0200</time>
      </trkpt>
      <trkpt lat="45.61593" lon="2.93605">
        <ele>1094.006177</ele>
        <time>2021-07-07T11:12:37+0200</time>
      </trkpt>
      <trkpt lat="45.61593" lon="2.93597">
        <ele>1094.266558</ele>
        <time>2021-07-07T11:12:39+0200</time>
      </trkpt>
      <trkpt lat="45.61592" lon="2.93589">
        <ele>1094.46975</ele>
        <time>2021-07-07T11:12:41+0200</time>
      </trkpt>
      <trkpt lat="45.61591" lon="2.93581">
        <ele>1094.833781</ele>
        <time>2021-07-07T11:12:43+0200</time>
      </trkpt>
      <trkpt lat="45.61591" lon="2.93574">
        <ele>1095.375778</ele>
        <time>2021-07-07T11:12:45+0200</time>
      </trkpt>
      <trkpt lat="45.61591" lon="2.93566">
        <ele>1095.614149</ele>
        <time>2021-07-07T11:12:47+0200</time>
      </trkpt>
      <trkpt lat="45.6159" lon="2.93559">
        <ele>1096.229159</ele>
        <time>2021-07-07T11:12:49+0200</time>
      </trkpt>
      <trkpt lat="45.6159" lon="2.93552">
        <ele>1096.777187</ele>
        <time>2021-07-07T11:12:51+0200</time>
      </trkpt>
      <trkpt lat="45.6159" lon="2.93544">
        <ele>1097.39443</ele>
        <time>2021-07-07T11:12:53+0200</time>
      </trkpt>
      <trkpt lat="45.61589" lon="2.93536">
        <ele>1097.895395</ele>
        <time>2021-07-07T11:12:55+0200</time>
      </trkpt>
      <trkpt lat="45.61589" lon="2.93529">
        <ele>1097.905918</ele>
        <time>2021-07-07T11:12:57+0200</time>
      </trkpt>
      <trkpt lat="45.61589" lon="2.9352">
        <ele>1098.070066</ele>
        <time>2021-07-07T11:12:59+0200</time>
      </trkpt>
      <trkpt lat="45.61588" lon="2.93513">
        <ele>1098.220554</ele>
        <time>2021-07-07T11:13:01+0200</time>
      </trkpt>
      <trkpt lat="45.61587" lon="2.93505">
        <ele>1098.564416</ele>
        <time>2021-07-07T11:13:03+0200</time>
      </trkpt>
      <trkpt lat="45.61587" lon="2.93497">
        <ele>1098.629421</ele>
        <time>2021-07-07T11:13:05+0200</time>
      </trkpt>
      <trkpt lat="45.61587" lon="2.93489">
        <ele>1098.663963</ele>
        <time>2021-07-07T11:13:07+0200</time>
      </trkpt>
      <trkpt lat="45.61587" lon="2.9348">
        <ele>1098.921638</ele>
        <time>2021-07-07T11:13:09+0200</time>
      </trkpt>
      <trkpt lat="45.61586" lon="2.93472">
        <ele>1099.330805</ele>
        <time>2021-07-07T11:13:11+0200</time>
      </trkpt>
      <trkpt lat="45.61586" lon="2.93464">
        <ele>1099.484307</ele>
        <time>2021-07-07T11:13:13+0200</time>
      </trkpt>
      <trkpt lat="45.61585" lon="2.93456">
        <ele>1099.542312</ele>
        <time>2021-07-07T11:13:15+0200</time>
      </trkpt>
      <trkpt lat="45.61585" lon="2.93447">
        <ele>1099.944273</ele>
        <time>2021-07-07T11:13:17+0200</time>
      </trkpt>
      <trkpt lat="45.61585" lon="2.93439">
        <ele>1100.299186</ele>
        <time>2021-07-07T11:13:19+0200</time>
      </trkpt>
      <trkpt lat="45.61584" lon="2.9343">
        <ele>1100.25622</ele>
        <time>2021-07-07T11:13:21+0200</time>
      </trkpt>
      <trkpt lat="45.61584" lon="2.93422">
        <ele>1100.597746</ele>
        <time>2021-07-07T11:13:23+0200</time>
      </trkpt>
      <trkpt lat="45.61584" lon="2.93414">
        <ele>1100.797675</ele>
        <time>2021-07-07T11:13:25+0200</time>
      </trkpt>
      <trkpt lat="45.61583" lon="2.93405">
        <ele>1100.770229</ele>
        <time>2021-07-07T11:13:27+0200</time>
      </trkpt>
      <trkpt lat="45.61583" lon="2.93397">
        <ele>1100.864646</ele>
        <time>2021-07-07T11:13:29+0200</time>
      </trkpt>
      <trkpt lat="45.61582" lon="2.93389">
        <ele>1101.009349</ele>
        <time>2021-07-07T11:13:32+0200</time>
      </trkpt>
      <trkpt lat="45.61582" lon="2.93382">
        <ele>1102.355231</ele>
        <time>2021-07-07T11:13:38+0200</time>
      </trkpt>
      <trkpt lat="45.61582" lon="2.93374">
        <ele>1102.364033</ele>
        <time>2021-07-07T11:15:00+0200</time>
      </trkpt>
      <trkpt lat="45.61582" lon="2.93365">
        <ele>1103.369668</ele>
        <time>2021-07-07T11:15:03+0200</time>
      </trkpt>
      <trkpt lat="45.61582" lon="2.93355">
        <ele>1103.515205</ele>
        <time>2021-07-07T11:15:06+0200</time>
      </trkpt>
      <trkpt lat="45.61582" lon="2.93347">
        <ele>1103.639733</ele>
        <time>2021-07-07T11:15:08+0200</time>
      </trkpt>
      <trkpt lat="45.61581" lon="2.93339">
        <ele>1103.810849</ele>
        <time>2021-07-07T11:15:10+0200</time>
      </trkpt>
      <trkpt lat="45.61581" lon="2.93332">
        <ele>1103.742578</ele>
        <time>2021-07-07T11:15:12+0200</time>
      </trkpt>
      <trkpt lat="45.61581" lon="2.93324">
        <ele>1103.611059</ele>
        <time>2021-07-07T11:15:14+0200</time>
      </trkpt>
      <trkpt lat="45.6158" lon="2.93315">
        <ele>1103.544952</ele>
        <time>2021-07-07T11:15:16+0200</time>
      </trkpt>
      <trkpt lat="45.6158" lon="2.93306">
        <ele>1103.804154</ele>
        <time>2021-07-07T11:15:18+0200</time>
      </trkpt>
      <trkpt lat="45.6158" lon="2.93297">
        <ele>1103.927658</ele>
        <time>2021-07-07T11:15:20+0200</time>
      </trkpt>
      <trkpt lat="45.6158" lon="2.93288">
        <ele>1103.887178</ele>
        <time>2021-07-07T11:15:22+0200</time>
      </trkpt>
      <trkpt lat="45.61579" lon="2.9328">
        <ele>1104.377794</ele>
        <time>2021-07-07T11:15:24+0200</time>
      </trkpt>
      <trkpt lat="45.61579" lon="2.93271">
        <ele>1104.798178</ele>
        <time>2021-07-07T11:15:26+0200</time>
      </trkpt>
      <trkpt lat="45.61578" lon="2.93263">
        <ele>1104.619343</ele>
        <time>2021-07-07T11:15:28+0200</time>
      </trkpt>
      <trkpt lat="45.61578" lon="2.93255">
        <ele>1104.951852</ele>
        <time>2021-07-07T11:15:30+0200</time>
      </trkpt>
      <trkpt lat="45.61578" lon="2.93246">
        <ele>1105.591786</ele>
        <time>2021-07-07T11:15:32+0200</time>
      </trkpt>
      <trkpt lat="45.61578" lon="2.93237">
        <ele>1106.003438</ele>
        <time>2021-07-07T11:15:34+0200</time>
      </trkpt>
      <trkpt lat="45.61578" lon="2.93227">
        <ele>1105.533006</ele>
        <time>2021-07-07T11:15:36+0200</time>
      </trkpt>
      <trkpt lat="45.61578" lon="2.93219">
        <ele>1105.820924</ele>
        <time>2021-07-07T11:15:38+0200</time>
      </trkpt>
      <trkpt lat="45.61578" lon="2.9321">
        <ele>1106.288489</ele>
        <time>2021-07-07T11:15:40+0200</time>
      </trkpt>
      <trkpt lat="45.61579" lon="2.932">
        <ele>1106.411827</ele>
        <time>2021-07-07T11:15:42+0200</time>
      </trkpt>
      <trkpt lat="45.6158" lon="2.93192">
        <ele>1106.991852</ele>
        <time>2021-07-07T11:15:44+0200</time>
      </trkpt>
      <trkpt lat="45.61581" lon="2.93183">
        <ele>1107.258207</ele>
        <time>2021-07-07T11:15:46+0200</time>
      </trkpt>
      <trkpt lat="45.61582" lon="2.93174">
        <ele>1108.072697</ele>
        <time>2021-07-07T11:15:48+0200</time>
      </trkpt>
      <trkpt lat="45.61582" lon="2.93164">
        <ele>1108.615908</ele>
        <time>2021-07-07T11:15:50+0200</time>
      </trkpt>
      <trkpt lat="45.61582" lon="2.93155">
        <ele>1108.976815</ele>
        <time>2021-07-07T11:15:52+0200</time>
      </trkpt>
      <trkpt lat="45.61583" lon="2.93146">
        <ele>1109.087381</ele>
        <time>2021-07-07T11:15:54+0200</time>
      </trkpt>
      <trkpt lat="45.61583" lon="2.93138">
        <ele>1109.115041</ele>
        <time>2021-07-07T11:15:56+0200</time>
      </trkpt>
      <trkpt lat="45.61583" lon="2.93129">
        <ele>1109.64047</ele>
        <time>2021-07-07T11:15:58+0200</time>
      </trkpt>
      <trkpt lat="45.61583" lon="2.9312">
        <ele>1109.554786</ele>
        <time>2021-07-07T11:16:00+0200</time>
      </trkpt>
      <trkpt lat="45.61584" lon="2.93111">
        <ele>1109.67667</ele>
        <time>2021-07-07T11:16:02+0200</time>
      </trkpt>
      <trkpt lat="45.61585" lon="2.93102">
        <ele>1109.856803</ele>
        <time>2021-07-07T11:16:04+0200</time>
      </trkpt>
      <trkpt lat="45.61586" lon="2.93093">
        <ele>1109.870923</ele>
        <time>2021-07-07T11:16:06+0200</time>
      </trkpt>
      <trkpt lat="45.61586" lon="2.93085">
        <ele>1109.876255</ele>
        <time>2021-07-07T11:16:08+0200</time>
      </trkpt>
      <trkpt lat="45.61586" lon="2.93076">
        <ele>1110.019057</ele>
        <time>2021-07-07T11:16:10+0200</time>
      </trkpt>
      <trkpt lat="45.61587" lon="2.93068">
        <ele>1110.852483</ele>
        <time>2021-07-07T11:16:12+0200</time>
      </trkpt>
      <trkpt lat="45.61587" lon="2.9306">
        <ele>1111.778566</ele>
        <time>2021-07-07T11:16:14+0200</time>
      </trkpt>
      <trkpt lat="45.61588" lon="2.93053">
        <ele>1111.9231</ele>
        <time>2021-07-07T11:16:16+0200</time>
      </trkpt>
      <trkpt lat="45.61587" lon="2.93045">
        <ele>1111.97131</ele>
        <time>2021-07-07T11:16:18+0200</time>
      </trkpt>
      <trkpt lat="45.61588" lon="2.93037">
        <ele>1112.392741</ele>
        <time>2021-07-07T11:16:20+0200</time>
      </trkpt>
      <trkpt lat="45.61587" lon="2.93028">
        <ele>1112.839165</ele>
        <time>2021-07-07T11:16:22+0200</time>
      </trkpt>
      <trkpt lat="45.61586" lon="2.93022">
        <ele>1112.203626</ele>
        <time>2021-07-07T11:16:24+0200</time>
      </trkpt>
      <trkpt lat="45.61584" lon="2.93011">
        <ele>1111.916531</ele>
        <time>2021-07-07T11:16:27+0200</time>
      </trkpt>
      <trkpt lat="45.61583" lon="2.93003">
        <ele>1111.534455</ele>
        <time>2021-07-07T11:16:30+0200</time>
      </trkpt>
      <trkpt lat="45.6158" lon="2.92997">
        <ele>1111.887917</ele>
        <time>2021-07-07T11:16:32+0200</time>
      </trkpt>
      <trkpt lat="45.6158" lon="2.9299">
        <ele>1112.331725</ele>
        <time>2021-07-07T11:16:34+0200</time>
      </trkpt>
      <trkpt lat="45.61578" lon="2.92982">
        <ele>1112.572933</ele>
        <time>2021-07-07T11:16:36+0200</time>
      </trkpt>
      <trkpt lat="45.61577" lon="2.92974">
        <ele>1112.386956</ele>
        <time>2021-07-07T11:16:37+0200</time>
      </trkpt>
      <trkpt lat="45.61576" lon="2.92965">
        <ele>1112.292179</ele>
        <time>2021-07-07T11:16:39+0200</time>
      </trkpt>
      <trkpt lat="45.61576" lon="2.92958">
        <ele>1112.667735</ele>
        <time>2021-07-07T11:16:41+0200</time>
      </trkpt>
      <trkpt lat="45.61575" lon="2.9295">
        <ele>1113.372022</ele>
        <time>2021-07-07T11:16:43+0200</time>
      </trkpt>
      <trkpt lat="45.61574" lon="2.92941">
        <ele>1114.099387</ele>
        <time>2021-07-07T11:16:46+0200</time>
      </trkpt>
      <trkpt lat="45.61575" lon="2.92934">
        <ele>1114.98865</ele>
        <time>2021-07-07T11:16:47+0200</time>
      </trkpt>
      <trkpt lat="45.61574" lon="2.92923">
        <ele>1114.649603</ele>
        <time>2021-07-07T11:16:49+0200</time>
      </trkpt>
      <trkpt lat="45.61575" lon="2.92915">
        <ele>1114.291824</ele>
        <time>2021-07-07T11:16:51+0200</time>
      </trkpt>
      <trkpt lat="45.61573" lon="2.92908">
        <ele>1114.97292</ele>
        <time>2021-07-07T11:16:53+0200</time>
      </trkpt>
      <trkpt lat="45.61573" lon="2.92901">
        <ele>1115.467905</ele>
        <time>2021-07-07T11:16:55+0200</time>
      </trkpt>
      <trkpt lat="45.61572" lon="2.92894">
        <ele>1115.842312</ele>
        <time>2021-07-07T11:16:57+0200</time>
      </trkpt>
      <trkpt lat="45.61571" lon="2.92884">
        <ele>1115.735972</ele>
        <time>2021-07-07T11:16:59+0200</time>
      </trkpt>
      <trkpt lat="45.6157" lon="2.92876">
        <ele>1115.735131</ele>
        <time>2021-07-07T11:17:01+0200</time>
      </trkpt>
      <trkpt lat="45.6157" lon="2.92868">
        <ele>1115.414305</ele>
        <time>2021-07-07T11:17:03+0200</time>
      </trkpt>
      <trkpt lat="45.61569" lon="2.92859">
        <ele>1115.874297</ele>
        <time>2021-07-07T11:17:05+0200</time>
      </trkpt>
      <trkpt lat="45.61569" lon="2.92851">
        <ele>1116.21837</ele>
        <time>2021-07-07T11:17:07+0200</time>
      </trkpt>
      <trkpt lat="45.6157" lon="2.92843">
        <ele>1116.728425</ele>
        <time>2021-07-07T11:17:09+0200</time>
      </trkpt>
      <trkpt lat="45.6157" lon="2.92834">
        <ele>1117.958719</ele>
        <time>2021-07-07T11:17:11+0200</time>
      </trkpt>
      <trkpt lat="45.61571" lon="2.92824">
        <ele>1118.953879</ele>
        <time>2021-07-07T11:17:13+0200</time>
      </trkpt>
      <trkpt lat="45.6157" lon="2.92814">
        <ele>1119.804038</ele>
        <time>2021-07-07T11:17:15+0200</time>
      </trkpt>
      <trkpt lat="45.61571" lon="2.92803">
        <ele>1119.894193</ele>
        <time>2021-07-07T11:17:17+0200</time>
      </trkpt>
      <trkpt lat="45.6157" lon="2.92792">
        <ele>1119.706661</ele>
        <time>2021-07-07T11:17:19+0200</time>
      </trkpt>
      <trkpt lat="45.61569" lon="2.9278">
        <ele>1120.257734</ele>
        <time>2021-07-07T11:17:21+0200</time>
      </trkpt>
      <trkpt lat="45.61569" lon="2.92769">
        <ele>1120.311562</ele>
        <time>2021-07-07T11:17:23+0200</time>
      </trkpt>
      <trkpt lat="45.61568" lon="2.92757">
        <ele>1120.1655</ele>
        <time>2021-07-07T11:17:25+0200</time>
      </trkpt>
      <trkpt lat="45.61567" lon="2.92746">
        <ele>1119.99979</ele>
        <time>2021-07-07T11:17:27+0200</time>
      </trkpt>
      <trkpt lat="45.61567" lon="2.92735">
        <ele>1119.561543</ele>
        <time>2021-07-07T11:17:29+0200</time>
      </trkpt>
      <trkpt lat="45.61567" lon="2.92724">
        <ele>1119.051837</ele>
        <time>2021-07-07T11:17:31+0200</time>
      </trkpt>
      <trkpt lat="45.61567" lon="2.92713">
        <ele>1118.857992</ele>
        <time>2021-07-07T11:17:33+0200</time>
      </trkpt>
      <trkpt lat="45.61565" lon="2.92703">
        <ele>1119.178097</ele>
        <time>2021-07-07T11:17:35+0200</time>
      </trkpt>
      <trkpt lat="45.61565" lon="2.92691">
        <ele>1119.366911</ele>
        <time>2021-07-07T11:17:37+0200</time>
      </trkpt>
      <trkpt lat="45.61565" lon="2.92682">
        <ele>1119.475386</ele>
        <time>2021-07-07T11:17:39+0200</time>
      </trkpt>
      <trkpt lat="45.61564" lon="2.92671">
        <ele>1119.712507</ele>
        <time>2021-07-07T11:17:41+0200</time>
      </trkpt>
      <trkpt lat="45.61563" lon="2.9266">
        <ele>1120.152329</ele>
        <time>2021-07-07T11:17:43+0200</time>
      </trkpt>
      <trkpt lat="45.61562" lon="2.9265">
        <ele>1120.113478</ele>
        <time>2021-07-07T11:17:45+0200</time>
      </trkpt>
      <trkpt lat="45.61562" lon="2.92639">
        <ele>1120.81997</ele>
        <time>2021-07-07T11:17:47+0200</time>
      </trkpt>
      <trkpt lat="45.61561" lon="2.92629">
        <ele>1121.742564</ele>
        <time>2021-07-07T11:17:49+0200</time>
      </trkpt>
      <trkpt lat="45.61561" lon="2.9262">
        <ele>1121.72468</ele>
        <time>2021-07-07T11:17:51+0200</time>
      </trkpt>
      <trkpt lat="45.61561" lon="2.92609">
        <ele>1121.692033</ele>
        <time>2021-07-07T11:17:53+0200</time>
      </trkpt>
      <trkpt lat="45.61561" lon="2.926">
        <ele>1121.630179</ele>
        <time>2021-07-07T11:17:55+0200</time>
      </trkpt>
      <trkpt lat="45.6156" lon="2.92592">
        <ele>1121.709333</ele>
        <time>2021-07-07T11:17:57+0200</time>
      </trkpt>
      <trkpt lat="45.61559" lon="2.92581">
        <ele>1122.006647</ele>
        <time>2021-07-07T11:17:59+0200</time>
      </trkpt>
      <trkpt lat="45.61559" lon="2.92572">
        <ele>1123.459093</ele>
        <time>2021-07-07T11:18:01+0200</time>
      </trkpt>
      <trkpt lat="45.61559" lon="2.92562">
        <ele>1123.853698</ele>
        <time>2021-07-07T11:18:03+0200</time>
      </trkpt>
      <trkpt lat="45.61559" lon="2.92555">
        <ele>1124.526533</ele>
        <time>2021-07-07T11:18:05+0200</time>
      </trkpt>
      <trkpt lat="45.61559" lon="2.92546">
        <ele>1124.30868</ele>
        <time>2021-07-07T11:18:07+0200</time>
      </trkpt>
      <trkpt lat="45.61559" lon="2.92537">
        <ele>1123.977042</ele>
        <time>2021-07-07T11:18:09+0200</time>
      </trkpt>
      <trkpt lat="45.61558" lon="2.9253">
        <ele>1123.871902</ele>
        <time>2021-07-07T11:18:11+0200</time>
      </trkpt>
      <trkpt lat="45.61557" lon="2.92523">
        <ele>1124.480627</ele>
        <time>2021-07-07T11:18:13+0200</time>
      </trkpt>
      <trkpt lat="45.61555" lon="2.92514">
        <ele>1125.03039</ele>
        <time>2021-07-07T11:18:15+0200</time>
      </trkpt>
      <trkpt lat="45.61554" lon="2.92506">
        <ele>1125.874612</ele>
        <time>2021-07-07T11:18:17+0200</time>
      </trkpt>
      <trkpt lat="45.61552" lon="2.92497">
        <ele>1126.21548</ele>
        <time>2021-07-07T11:18:20+0200</time>
      </trkpt>
      <trkpt lat="45.61552" lon="2.92486">
        <ele>1126.393136</ele>
        <time>2021-07-07T11:18:22+0200</time>
      </trkpt>
      <trkpt lat="45.61552" lon="2.92478">
        <ele>1126.877331</ele>
        <time>2021-07-07T11:18:24+0200</time>
      </trkpt>
      <trkpt lat="45.61551" lon="2.92469">
        <ele>1127.310323</ele>
        <time>2021-07-07T11:18:26+0200</time>
      </trkpt>
      <trkpt lat="45.6155" lon="2.92462">
        <ele>1126.736582</ele>
        <time>2021-07-07T11:18:29+0200</time>
      </trkpt>
      <trkpt lat="45.61549" lon="2.92453">
        <ele>1127.008758</ele>
        <time>2021-07-07T11:18:32+0200</time>
      </trkpt>
      <trkpt lat="45.61547" lon="2.92444">
        <ele>1127.446722</ele>
        <time>2021-07-07T11:18:35+0200</time>
      </trkpt>
      <trkpt lat="45.61546" lon="2.92435">
        <ele>1128.040802</ele>
        <time>2021-07-07T11:18:38+0200</time>
      </trkpt>
      <trkpt lat="45.61545" lon="2.92427">
        <ele>1128.050617</ele>
        <time>2021-07-07T11:18:40+0200</time>
      </trkpt>
      <trkpt lat="45.61544" lon="2.9242">
        <ele>1128.350805</ele>
        <time>2021-07-07T11:18:42+0200</time>
      </trkpt>
      <trkpt lat="45.61543" lon="2.92413">
        <ele>1127.958861</ele>
        <time>2021-07-07T11:18:44+0200</time>
      </trkpt>
      <trkpt lat="45.61541" lon="2.92407">
        <ele>1128.374798</ele>
        <time>2021-07-07T11:18:45+0200</time>
      </trkpt>
      <trkpt lat="45.61541" lon="2.92399">
        <ele>1128.435765</ele>
        <time>2021-07-07T11:18:47+0200</time>
      </trkpt>
      <trkpt lat="45.61541" lon="2.92393">
        <ele>1129.722551</ele>
        <time>2021-07-07T11:18:49+0200</time>
      </trkpt>
      <trkpt lat="45.61538" lon="2.92384">
        <ele>1130.015516</ele>
        <time>2021-07-07T11:18:52+0200</time>
      </trkpt>
      <trkpt lat="45.61535" lon="2.92377">
        <ele>1130.526674</ele>
        <time>2021-07-07T11:18:54+0200</time>
      </trkpt>
      <trkpt lat="45.61533" lon="2.9237">
        <ele>1131.760975</ele>
        <time>2021-07-07T11:18:58+0200</time>
      </trkpt>
      <trkpt lat="45.61531" lon="2.92362">
        <ele>1132.12806</ele>
        <time>2021-07-07T11:19:01+0200</time>
      </trkpt>
      <trkpt lat="45.6153" lon="2.92354">
        <ele>1133.141445</ele>
        <time>2021-07-07T11:19:03+0200</time>
      </trkpt>
      <trkpt lat="45.6153" lon="2.92345">
        <ele>1133.278314</ele>
        <time>2021-07-07T11:19:05+0200</time>
      </trkpt>
      <trkpt lat="45.61528" lon="2.92336">
        <ele>1133.093154</ele>
        <time>2021-07-07T11:19:07+0200</time>
      </trkpt>
      <trkpt lat="45.61526" lon="2.92326">
        <ele>1133.374577</ele>
        <time>2021-07-07T11:19:09+0200</time>
      </trkpt>
      <trkpt lat="45.61524" lon="2.92317">
        <ele>1133.737959</ele>
        <time>2021-07-07T11:19:11+0200</time>
      </trkpt>
      <trkpt lat="45.61521" lon="2.92308">
        <ele>1132.699619</ele>
        <time>2021-07-07T11:19:13+0200</time>
      </trkpt>
      <trkpt lat="45.61518" lon="2.92299">
        <ele>1131.413533</ele>
        <time>2021-07-07T11:19:15+0200</time>
      </trkpt>
      <trkpt lat="45.61516" lon="2.92289">
        <ele>1131.260111</ele>
        <time>2021-07-07T11:19:17+0200</time>
      </trkpt>
      <trkpt lat="45.61515" lon="2.92282">
        <ele>1131.944017</ele>
        <time>2021-07-07T11:19:19+0200</time>
      </trkpt>
      <trkpt lat="45.61513" lon="2.92275">
        <ele>1132.148286</ele>
        <time>2021-07-07T11:19:21+0200</time>
      </trkpt>
      <trkpt lat="45.6151" lon="2.92268">
        <ele>1132.646374</ele>
        <time>2021-07-07T11:19:23+0200</time>
      </trkpt>
      <trkpt lat="45.61507" lon="2.9226">
        <ele>1133.043663</ele>
        <time>2021-07-07T11:19:25+0200</time>
      </trkpt>
      <trkpt lat="45.61501" lon="2.92255">
        <ele>1133.882083</ele>
        <time>2021-07-07T11:19:27+0200</time>
      </trkpt>
      <trkpt lat="45.61496" lon="2.92254">
        <ele>1135.129313</ele>
        <time>2021-07-07T11:19:30+0200</time>
      </trkpt>
      <trkpt lat="45.6149" lon="2.92257">
        <ele>1135.802074</ele>
        <time>2021-07-07T11:19:35+0200</time>
      </trkpt>
      <trkpt lat="45.61488" lon="2.92264">
        <ele>1136.04606</ele>
        <time>2021-07-07T11:19:41+0200</time>
      </trkpt>
      <trkpt lat="45.61486" lon="2.9227">
        <ele>1136.159448</ele>
        <time>2021-07-07T11:19:45+0200</time>
      </trkpt>
      <trkpt lat="45.61483" lon="2.92275">
        <ele>1137.0195</ele>
        <time>2021-07-07T11:20:01+0200</time>
      </trkpt>
      <trkpt lat="45.61485" lon="2.92282">
        <ele>1136.926</ele>
        <time>2021-07-07T11:20:07+0200</time>
      </trkpt>
      <trkpt lat="45.61489" lon="2.92282">
        <ele>1135.941228</ele>
        <time>2021-07-07T11:20:29+0200</time>
      </trkpt>
      <trkpt lat="45.61485" lon="2.92284">
        <ele>1135.038925</ele>
        <time>2021-07-07T11:20:40+0200</time>
      </trkpt>
      <trkpt lat="45.61479" lon="2.92291">
        <ele>1136.007115</ele>
        <time>2021-07-07T11:20:43+0200</time>
      </trkpt>
      <trkpt lat="45.61476" lon="2.92296">
        <ele>1135.902635</ele>
        <time>2021-07-07T11:20:45+0200</time>
      </trkpt>
      <trkpt lat="45.61472" lon="2.92302">
        <ele>1135.511768</ele>
        <time>2021-07-07T11:20:47+0200</time>
      </trkpt>
      <trkpt lat="45.61469" lon="2.92308">
        <ele>1135.958144</ele>
        <time>2021-07-07T11:20:49+0200</time>
      </trkpt>
      <trkpt lat="45.61466" lon="2.92317">
        <ele>1135.925703</ele>
        <time>2021-07-07T11:20:51+0200</time>
      </trkpt>
      <trkpt lat="45.61464" lon="2.92325">
        <ele>1136.510249</ele>
        <time>2021-07-07T11:20:53+0200</time>
      </trkpt>
      <trkpt lat="45.61462" lon="2.92333">
        <ele>1136.211943</ele>
        <time>2021-07-07T11:20:55+0200</time>
      </trkpt>
      <trkpt lat="45.61462" lon="2.92341">
        <ele>1136.095733</ele>
        <time>2021-07-07T11:20:57+0200</time>
      </trkpt>
      <trkpt lat="45.61458" lon="2.92347">
        <ele>1136.136054</ele>
        <time>2021-07-07T11:20:59+0200</time>
      </trkpt>
      <trkpt lat="45.61455" lon="2.92353">
        <ele>1135.977677</ele>
        <time>2021-07-07T11:21:01+0200</time>
      </trkpt>
      <trkpt lat="45.61451" lon="2.92361">
        <ele>1136.307209</ele>
        <time>2021-07-07T11:21:03+0200</time>
      </trkpt>
      <trkpt lat="45.61446" lon="2.92369">
        <ele>1136.295405</ele>
        <time>2021-07-07T11:21:05+0200</time>
      </trkpt>
      <trkpt lat="45.61444" lon="2.9238">
        <ele>1136.190121</ele>
        <time>2021-07-07T11:21:07+0200</time>
      </trkpt>
      <trkpt lat="45.61442" lon="2.9239">
        <ele>1136.788931</ele>
        <time>2021-07-07T11:21:09+0200</time>
      </trkpt>
      <trkpt lat="45.61439" lon="2.92402">
        <ele>1136.661545</ele>
        <time>2021-07-07T11:21:11+0200</time>
      </trkpt>
      <trkpt lat="45.61436" lon="2.92408">
        <ele>1136.370263</ele>
        <time>2021-07-07T11:21:12+0200</time>
      </trkpt>
      <trkpt lat="45.61434" lon="2.92415">
        <ele>1135.717713</ele>
        <time>2021-07-07T11:21:13+0200</time>
      </trkpt>
      <trkpt lat="45.61431" lon="2.92421">
        <ele>1135.474457</ele>
        <time>2021-07-07T11:21:14+0200</time>
      </trkpt>
      <trkpt lat="45.61428" lon="2.9243">
        <ele>1134.980366</ele>
        <time>2021-07-07T11:21:15+0200</time>
      </trkpt>
      <trkpt lat="45.61424" lon="2.92437">
        <ele>1134.472657</ele>
        <time>2021-07-07T11:21:16+0200</time>
      </trkpt>
      <trkpt lat="45.61421" lon="2.92445">
        <ele>1133.935847</ele>
        <time>2021-07-07T11:21:17+0200</time>
      </trkpt>
      <trkpt lat="45.61416" lon="2.92453">
        <ele>1132.457449</ele>
        <time>2021-07-07T11:21:18+0200</time>
      </trkpt>
      <trkpt lat="45.6141" lon="2.9246">
        <ele>1131.207473</ele>
        <time>2021-07-07T11:21:19+0200</time>
      </trkpt>
      <trkpt lat="45.61404" lon="2.92469">
        <ele>1130.000691</ele>
        <time>2021-07-07T11:21:20+0200</time>
      </trkpt>
      <trkpt lat="45.61398" lon="2.92478">
        <ele>1129.289211</ele>
        <time>2021-07-07T11:21:21+0200</time>
      </trkpt>
      <trkpt lat="45.6139" lon="2.92485">
        <ele>1127.954853</ele>
        <time>2021-07-07T11:21:22+0200</time>
      </trkpt>
      <trkpt lat="45.6138" lon="2.92494">
        <ele>1126.516739</ele>
        <time>2021-07-07T11:21:23+0200</time>
      </trkpt>
      <trkpt lat="45.61371" lon="2.92499">
        <ele>1125.291163</ele>
        <time>2021-07-07T11:21:24+0200</time>
      </trkpt>
      <trkpt lat="45.61361" lon="2.92501">
        <ele>1123.860824</ele>
        <time>2021-07-07T11:21:25+0200</time>
      </trkpt>
      <trkpt lat="45.61352" lon="2.92504">
        <ele>1122.638481</ele>
        <time>2021-07-07T11:21:26+0200</time>
      </trkpt>
      <trkpt lat="45.61345" lon="2.9251">
        <ele>1121.165633</ele>
        <time>2021-07-07T11:21:27+0200</time>
      </trkpt>
      <trkpt lat="45.6134" lon="2.9252">
        <ele>1120.200226</ele>
        <time>2021-07-07T11:21:28+0200</time>
      </trkpt>
      <trkpt lat="45.61335" lon="2.92534">
        <ele>1118.984826</ele>
        <time>2021-07-07T11:21:29+0200</time>
      </trkpt>
      <trkpt lat="45.61331" lon="2.92547">
        <ele>1117.815179</ele>
        <time>2021-07-07T11:21:30+0200</time>
      </trkpt>
      <trkpt lat="45.61326" lon="2.92559">
        <ele>1116.319479</ele>
        <time>2021-07-07T11:21:31+0200</time>
      </trkpt>
      <trkpt lat="45.61323" lon="2.92569">
        <ele>1115.071462</ele>
        <time>2021-07-07T11:21:32+0200</time>
      </trkpt>
      <trkpt lat="45.61318" lon="2.92581">
        <ele>1114.869182</ele>
        <time>2021-07-07T11:21:33+0200</time>
      </trkpt>
      <trkpt lat="45.61313" lon="2.92591">
        <ele>1114.264384</ele>
        <time>2021-07-07T11:21:34+0200</time>
      </trkpt>
      <trkpt lat="45.61306" lon="2.926">
        <ele>1113.250452</ele>
        <time>2021-07-07T11:21:35+0200</time>
      </trkpt>
      <trkpt lat="45.61298" lon="2.9261">
        <ele>1111.84054</ele>
        <time>2021-07-07T11:21:36+0200</time>
      </trkpt>
      <trkpt lat="45.61289" lon="2.92618">
        <ele>1110.5283</ele>
        <time>2021-07-07T11:21:37+0200</time>
      </trkpt>
      <trkpt lat="45.61279" lon="2.92626">
        <ele>1109.178753</ele>
        <time>2021-07-07T11:21:38+0200</time>
      </trkpt>
      <trkpt lat="45.61269" lon="2.92633">
        <ele>1107.621685</ele>
        <time>2021-07-07T11:21:39+0200</time>
      </trkpt>
      <trkpt lat="45.61259" lon="2.9264">
        <ele>1106.226132</ele>
        <time>2021-07-07T11:21:40+0200</time>
      </trkpt>
      <trkpt lat="45.61248" lon="2.92646">
        <ele>1104.881439</ele>
        <time>2021-07-07T11:21:41+0200</time>
      </trkpt>
      <trkpt lat="45.61237" lon="2.92652">
        <ele>1103.644334</ele>
        <time>2021-07-07T11:21:42+0200</time>
      </trkpt>
      <trkpt lat="45.61226" lon="2.92659">
        <ele>1102.2229</ele>
        <time>2021-07-07T11:21:43+0200</time>
      </trkpt>
      <trkpt lat="45.61216" lon="2.92666">
        <ele>1101.149297</ele>
        <time>2021-07-07T11:21:44+0200</time>
      </trkpt>
      <trkpt lat="45.61205" lon="2.92673">
        <ele>1099.6023</ele>
        <time>2021-07-07T11:21:45+0200</time>
      </trkpt>
      <trkpt lat="45.61194" lon="2.9268">
        <ele>1098.292151</ele>
        <time>2021-07-07T11:21:46+0200</time>
      </trkpt>
      <trkpt lat="45.61183" lon="2.92686">
        <ele>1097.101532</ele>
        <time>2021-07-07T11:21:47+0200</time>
      </trkpt>
      <trkpt lat="45.61173" lon="2.92693">
        <ele>1095.982315</ele>
        <time>2021-07-07T11:21:48+0200</time>
      </trkpt>
      <trkpt lat="45.61165" lon="2.927">
        <ele>1094.760782</ele>
        <time>2021-07-07T11:21:49+0200</time>
      </trkpt>
      <trkpt lat="45.61159" lon="2.92708">
        <ele>1093.592846</ele>
        <time>2021-07-07T11:21:50+0200</time>
      </trkpt>
      <trkpt lat="45.61151" lon="2.92718">
        <ele>1092.549612</ele>
        <time>2021-07-07T11:21:51+0200</time>
      </trkpt>
      <trkpt lat="45.61144" lon="2.92727">
        <ele>1091.658336</ele>
        <time>2021-07-07T11:21:52+0200</time>
      </trkpt>
      <trkpt lat="45.61137" lon="2.92737">
        <ele>1090.938152</ele>
        <time>2021-07-07T11:21:53+0200</time>
      </trkpt>
      <trkpt lat="45.6113" lon="2.92749">
        <ele>1090.173097</ele>
        <time>2021-07-07T11:21:54+0200</time>
      </trkpt>
      <trkpt lat="45.61123" lon="2.9276">
        <ele>1089.461642</ele>
        <time>2021-07-07T11:21:55+0200</time>
      </trkpt>
      <trkpt lat="45.61115" lon="2.92769">
        <ele>1088.513773</ele>
        <time>2021-07-07T11:21:56+0200</time>
      </trkpt>
      <trkpt lat="45.61107" lon="2.92779">
        <ele>1087.644743</ele>
        <time>2021-07-07T11:21:57+0200</time>
      </trkpt>
      <trkpt lat="45.61099" lon="2.9279">
        <ele>1086.826825</ele>
        <time>2021-07-07T11:21:58+0200</time>
      </trkpt>
      <trkpt lat="45.61091" lon="2.928">
        <ele>1086.135901</ele>
        <time>2021-07-07T11:21:59+0200</time>
      </trkpt>
      <trkpt lat="45.61083" lon="2.92811">
        <ele>1084.964824</ele>
        <time>2021-07-07T11:22:00+0200</time>
      </trkpt>
      <trkpt lat="45.61073" lon="2.9282">
        <ele>1083.616212</ele>
        <time>2021-07-07T11:22:01+0200</time>
      </trkpt>
      <trkpt lat="45.61065" lon="2.92829">
        <ele>1082.621691</ele>
        <time>2021-07-07T11:22:02+0200</time>
      </trkpt>
      <trkpt lat="45.61057" lon="2.92841">
        <ele>1081.606542</ele>
        <time>2021-07-07T11:22:03+0200</time>
      </trkpt>
      <trkpt lat="45.61049" lon="2.92851">
        <ele>1080.498033</ele>
        <time>2021-07-07T11:22:04+0200</time>
      </trkpt>
      <trkpt lat="45.61042" lon="2.92857">
        <ele>1079.785098</ele>
        <time>2021-07-07T11:22:05+0200</time>
      </trkpt>
      <trkpt lat="45.61038" lon="2.92862">
        <ele>1079.154657</ele>
        <time>2021-07-07T11:22:06+0200</time>
      </trkpt>
      <trkpt lat="45.61034" lon="2.92867">
        <ele>1078.783555</ele>
        <time>2021-07-07T11:22:07+0200</time>
      </trkpt>
      <trkpt lat="45.61028" lon="2.92873">
        <ele>1077.889707</ele>
        <time>2021-07-07T11:22:09+0200</time>
      </trkpt>
      <trkpt lat="45.61023" lon="2.92882">
        <ele>1077.951333</ele>
        <time>2021-07-07T11:22:11+0200</time>
      </trkpt>
      <trkpt lat="45.61021" lon="2.9289">
        <ele>1077.959467</ele>
        <time>2021-07-07T11:22:12+0200</time>
      </trkpt>
      <trkpt lat="45.61019" lon="2.92898">
        <ele>1077.465023</ele>
        <time>2021-07-07T11:22:13+0200</time>
      </trkpt>
      <trkpt lat="45.61017" lon="2.92906">
        <ele>1077.561991</ele>
        <time>2021-07-07T11:22:14+0200</time>
      </trkpt>
      <trkpt lat="45.61015" lon="2.92915">
        <ele>1077.148437</ele>
        <time>2021-07-07T11:22:15+0200</time>
      </trkpt>
      <trkpt lat="45.61012" lon="2.92923">
        <ele>1076.546391</ele>
        <time>2021-07-07T11:22:16+0200</time>
      </trkpt>
      <trkpt lat="45.61008" lon="2.9293">
        <ele>1075.964267</ele>
        <time>2021-07-07T11:22:17+0200</time>
      </trkpt>
      <trkpt lat="45.61003" lon="2.92935">
        <ele>1075.221065</ele>
        <time>2021-07-07T11:22:18+0200</time>
      </trkpt>
      <trkpt lat="45.60998" lon="2.9294">
        <ele>1075.106508</ele>
        <time>2021-07-07T11:22:19+0200</time>
      </trkpt>
      <trkpt lat="45.60991" lon="2.92942">
        <ele>1074.273401</ele>
        <time>2021-07-07T11:22:20+0200</time>
      </trkpt>
      <trkpt lat="45.60985" lon="2.92945">
        <ele>1073.845033</ele>
        <time>2021-07-07T11:22:21+0200</time>
      </trkpt>
      <trkpt lat="45.60979" lon="2.92949">
        <ele>1073.225796</ele>
        <time>2021-07-07T11:22:22+0200</time>
      </trkpt>
      <trkpt lat="45.60974" lon="2.92951">
        <ele>1072.698163</ele>
        <time>2021-07-07T11:22:23+0200</time>
      </trkpt>
      <trkpt lat="45.6097" lon="2.92954">
        <ele>1072.456206</ele>
        <time>2021-07-07T11:22:24+0200</time>
      </trkpt>
      <trkpt lat="45.60964" lon="2.92959">
        <ele>1071.633446</ele>
        <time>2021-07-07T11:22:25+0200</time>
      </trkpt>
      <trkpt lat="45.6096" lon="2.92967">
        <ele>1070.797491</ele>
        <time>2021-07-07T11:22:26+0200</time>
      </trkpt>
      <trkpt lat="45.60957" lon="2.92977">
        <ele>1069.845113</ele>
        <time>2021-07-07T11:22:27+0200</time>
      </trkpt>
      <trkpt lat="45.60952" lon="2.92986">
        <ele>1068.820753</ele>
        <time>2021-07-07T11:22:28+0200</time>
      </trkpt>
      <trkpt lat="45.60947" lon="2.92995">
        <ele>1068.585827</ele>
        <time>2021-07-07T11:22:29+0200</time>
      </trkpt>
      <trkpt lat="45.60943" lon="2.93005">
        <ele>1068.715267</ele>
        <time>2021-07-07T11:22:30+0200</time>
      </trkpt>
      <trkpt lat="45.60936" lon="2.9301">
        <ele>1068.321021</ele>
        <time>2021-07-07T11:22:31+0200</time>
      </trkpt>
      <trkpt lat="45.60929" lon="2.93013">
        <ele>1067.835188</ele>
        <time>2021-07-07T11:22:32+0200</time>
      </trkpt>
      <trkpt lat="45.60922" lon="2.93016">
        <ele>1067.364289</ele>
        <time>2021-07-07T11:22:33+0200</time>
      </trkpt>
      <trkpt lat="45.60915" lon="2.93019">
        <ele>1067.030977</ele>
        <time>2021-07-07T11:22:34+0200</time>
      </trkpt>
      <trkpt lat="45.60908" lon="2.93022">
        <ele>1066.393182</ele>
        <time>2021-07-07T11:22:35+0200</time>
      </trkpt>
      <trkpt lat="45.60901" lon="2.93026">
        <ele>1065.795053</ele>
        <time>2021-07-07T11:22:36+0200</time>
      </trkpt>
      <trkpt lat="45.60894" lon="2.93028">
        <ele>1065.162849</ele>
        <time>2021-07-07T11:22:37+0200</time>
      </trkpt>
      <trkpt lat="45.60886" lon="2.93032">
        <ele>1064.750332</ele>
        <time>2021-07-07T11:22:38+0200</time>
      </trkpt>
      <trkpt lat="45.60879" lon="2.93036">
        <ele>1064.229595</ele>
        <time>2021-07-07T11:22:39+0200</time>
      </trkpt>
      <trkpt lat="45.60873" lon="2.9304">
        <ele>1063.776043</ele>
        <time>2021-07-07T11:22:40+0200</time>
      </trkpt>
      <trkpt lat="45.60866" lon="2.93043">
        <ele>1063.19667</ele>
        <time>2021-07-07T11:22:41+0200</time>
      </trkpt>
      <trkpt lat="45.60858" lon="2.93045">
        <ele>1062.787162</ele>
        <time>2021-07-07T11:22:42+0200</time>
      </trkpt>
      <trkpt lat="45.60851" lon="2.93049">
        <ele>1062.337133</ele>
        <time>2021-07-07T11:22:43+0200</time>
      </trkpt>
      <trkpt lat="45.60844" lon="2.93053">
        <ele>1062.169766</ele>
        <time>2021-07-07T11:22:44+0200</time>
      </trkpt>
      <trkpt lat="45.60837" lon="2.93056">
        <ele>1061.79316</ele>
        <time>2021-07-07T11:22:45+0200</time>
      </trkpt>
      <trkpt lat="45.6083" lon="2.9306">
        <ele>1061.359532</ele>
        <time>2021-07-07T11:22:46+0200</time>
      </trkpt>
      <trkpt lat="45.60822" lon="2.93063">
        <ele>1061.232865</ele>
        <time>2021-07-07T11:22:47+0200</time>
      </trkpt>
      <trkpt lat="45.60815" lon="2.93066">
        <ele>1061.027777</ele>
        <time>2021-07-07T11:22:48+0200</time>
      </trkpt>
      <trkpt lat="45.60808" lon="2.93069">
        <ele>1060.850631</ele>
        <time>2021-07-07T11:22:49+0200</time>
      </trkpt>
      <trkpt lat="45.60801" lon="2.93072">
        <ele>1060.339147</ele>
        <time>2021-07-07T11:22:50+0200</time>
      </trkpt>
      <trkpt lat="45.60794" lon="2.93076">
        <ele>1060.214218</ele>
        <time>2021-07-07T11:22:51+0200</time>
      </trkpt>
      <trkpt lat="45.60787" lon="2.93079">
        <ele>1060.073841</ele>
        <time>2021-07-07T11:22:52+0200</time>
      </trkpt>
      <trkpt lat="45.60781" lon="2.93081">
        <ele>1059.660068</ele>
        <time>2021-07-07T11:22:53+0200</time>
      </trkpt>
      <trkpt lat="45.60775" lon="2.93084">
        <ele>1059.544433</ele>
        <time>2021-07-07T11:22:54+0200</time>
      </trkpt>
      <trkpt lat="45.60769" lon="2.93088">
        <ele>1059.366435</ele>
        <time>2021-07-07T11:22:55+0200</time>
      </trkpt>
      <trkpt lat="45.60762" lon="2.9309">
        <ele>1059.131747</ele>
        <time>2021-07-07T11:22:56+0200</time>
      </trkpt>
      <trkpt lat="45.60757" lon="2.9309">
        <ele>1058.70976</ele>
        <time>2021-07-07T11:22:57+0200</time>
      </trkpt>
      <trkpt lat="45.6075" lon="2.93087">
        <ele>1058.228365</ele>
        <time>2021-07-07T11:22:59+0200</time>
      </trkpt>
      <trkpt lat="45.60744" lon="2.9308">
        <ele>1058.722562</ele>
        <time>2021-07-07T11:23:01+0200</time>
      </trkpt>
      <trkpt lat="45.60738" lon="2.93077">
        <ele>1059.16189</ele>
        <time>2021-07-07T11:23:03+0200</time>
      </trkpt>
      <trkpt lat="45.60733" lon="2.93085">
        <ele>1058.729719</ele>
        <time>2021-07-07T11:23:05+0200</time>
      </trkpt>
      <trkpt lat="45.60727" lon="2.93093">
        <ele>1058.088019</ele>
        <time>2021-07-07T11:23:07+0200</time>
      </trkpt>
      <trkpt lat="45.60722" lon="2.93097">
        <ele>1057.955723</ele>
        <time>2021-07-07T11:23:08+0200</time>
      </trkpt>
      <trkpt lat="45.60718" lon="2.931">
        <ele>1057.723717</ele>
        <time>2021-07-07T11:23:09+0200</time>
      </trkpt>
      <trkpt lat="45.60713" lon="2.93104">
        <ele>1057.602228</ele>
        <time>2021-07-07T11:23:10+0200</time>
      </trkpt>
      <trkpt lat="45.60709" lon="2.93107">
        <ele>1057.118139</ele>
        <time>2021-07-07T11:23:11+0200</time>
      </trkpt>
      <trkpt lat="45.60706" lon="2.93111">
        <ele>1057.02614</ele>
        <time>2021-07-07T11:23:12+0200</time>
      </trkpt>
      <trkpt lat="45.60702" lon="2.93116">
        <ele>1057.843233</ele>
        <time>2021-07-07T11:23:13+0200</time>
      </trkpt>
      <trkpt lat="45.607" lon="2.93122">
        <ele>1058.569138</ele>
        <time>2021-07-07T11:23:14+0200</time>
      </trkpt>
      <trkpt lat="45.60698" lon="2.93129">
        <ele>1058.818588</ele>
        <time>2021-07-07T11:23:15+0200</time>
      </trkpt>
      <trkpt lat="45.60696" lon="2.93141">
        <ele>1058.722016</ele>
        <time>2021-07-07T11:23:17+0200</time>
      </trkpt>
      <trkpt lat="45.60694" lon="2.93147">
        <ele>1058.588679</ele>
        <time>2021-07-07T11:23:18+0200</time>
      </trkpt>
      <trkpt lat="45.60693" lon="2.93153">
        <ele>1058.345868</ele>
        <time>2021-07-07T11:23:19+0200</time>
      </trkpt>
      <trkpt lat="45.60688" lon="2.93163">
        <ele>1058.5084</ele>
        <time>2021-07-07T11:23:21+0200</time>
      </trkpt>
      <trkpt lat="45.60683" lon="2.93173">
        <ele>1058.828308</ele>
        <time>2021-07-07T11:23:23+0200</time>
      </trkpt>
      <trkpt lat="45.60678" lon="2.93183">
        <ele>1059.615281</ele>
        <time>2021-07-07T11:23:25+0200</time>
      </trkpt>
      <trkpt lat="45.60675" lon="2.93189">
        <ele>1059.65072</ele>
        <time>2021-07-07T11:23:26+0200</time>
      </trkpt>
      <trkpt lat="45.6067" lon="2.93198">
        <ele>1060.094264</ele>
        <time>2021-07-07T11:23:28+0200</time>
      </trkpt>
      <trkpt lat="45.60664" lon="2.93207">
        <ele>1061.030925</ele>
        <time>2021-07-07T11:23:30+0200</time>
      </trkpt>
      <trkpt lat="45.60657" lon="2.93214">
        <ele>1060.728694</ele>
        <time>2021-07-07T11:23:32+0200</time>
      </trkpt>
      <trkpt lat="45.6065" lon="2.9322">
        <ele>1060.571986</ele>
        <time>2021-07-07T11:23:34+0200</time>
      </trkpt>
      <trkpt lat="45.60645" lon="2.93223">
        <ele>1060.197906</ele>
        <time>2021-07-07T11:23:35+0200</time>
      </trkpt>
      <trkpt lat="45.60638" lon="2.9323">
        <ele>1059.763936</ele>
        <time>2021-07-07T11:23:37+0200</time>
      </trkpt>
      <trkpt lat="45.60634" lon="2.93234">
        <ele>1059.475089</ele>
        <time>2021-07-07T11:23:38+0200</time>
      </trkpt>
      <trkpt lat="45.6063" lon="2.93237">
        <ele>1059.397148</ele>
        <time>2021-07-07T11:23:39+0200</time>
      </trkpt>
      <trkpt lat="45.60627" lon="2.93241">
        <ele>1059.569532</ele>
        <time>2021-07-07T11:23:40+0200</time>
      </trkpt>
      <trkpt lat="45.60622" lon="2.93244">
        <ele>1059.325217</ele>
        <time>2021-07-07T11:23:41+0200</time>
      </trkpt>
      <trkpt lat="45.60616" lon="2.9325">
        <ele>1059.588759</ele>
        <time>2021-07-07T11:23:43+0200</time>
      </trkpt>
      <trkpt lat="45.60609" lon="2.93256">
        <ele>1060.391224</ele>
        <time>2021-07-07T11:23:45+0200</time>
      </trkpt>
      <trkpt lat="45.60602" lon="2.93262">
        <ele>1060.764738</ele>
        <time>2021-07-07T11:23:47+0200</time>
      </trkpt>
      <trkpt lat="45.60594" lon="2.93266">
        <ele>1061.676048</ele>
        <time>2021-07-07T11:23:49+0200</time>
      </trkpt>
      <trkpt lat="45.60587" lon="2.93271">
        <ele>1061.986265</ele>
        <time>2021-07-07T11:23:51+0200</time>
      </trkpt>
      <trkpt lat="45.6058" lon="2.93275">
        <ele>1062.2859</ele>
        <time>2021-07-07T11:23:53+0200</time>
      </trkpt>
      <trkpt lat="45.60572" lon="2.9328">
        <ele>1062.339577</ele>
        <time>2021-07-07T11:23:55+0200</time>
      </trkpt>
      <trkpt lat="45.60566" lon="2.93284">
        <ele>1061.949744</ele>
        <time>2021-07-07T11:23:57+0200</time>
      </trkpt>
      <trkpt lat="45.60559" lon="2.93288">
        <ele>1061.465284</ele>
        <time>2021-07-07T11:23:59+0200</time>
      </trkpt>
      <trkpt lat="45.60553" lon="2.93292">
        <ele>1061.209151</ele>
        <time>2021-07-07T11:24:01+0200</time>
      </trkpt>
      <trkpt lat="45.60547" lon="2.93294">
        <ele>1061.047977</ele>
        <time>2021-07-07T11:24:03+0200</time>
      </trkpt>
      <trkpt lat="45.60542" lon="2.93296">
        <ele>1060.838326</ele>
        <time>2021-07-07T11:24:05+0200</time>
      </trkpt>
      <trkpt lat="45.60535" lon="2.93296">
        <ele>1060.643479</ele>
        <time>2021-07-07T11:24:07+0200</time>
      </trkpt>
      <trkpt lat="45.60528" lon="2.93296">
        <ele>1060.51266</ele>
        <time>2021-07-07T11:24:09+0200</time>
      </trkpt>
      <trkpt lat="45.60519" lon="2.93296">
        <ele>1059.838796</ele>
        <time>2021-07-07T11:24:11+0200</time>
      </trkpt>
      <trkpt lat="45.60513" lon="2.93295">
        <ele>1059.562313</ele>
        <time>2021-07-07T11:24:12+0200</time>
      </trkpt>
      <trkpt lat="45.60508" lon="2.93294">
        <ele>1059.145088</ele>
        <time>2021-07-07T11:24:13+0200</time>
      </trkpt>
      <trkpt lat="45.60502" lon="2.93293">
        <ele>1058.900398</ele>
        <time>2021-07-07T11:24:14+0200</time>
      </trkpt>
      <trkpt lat="45.60496" lon="2.93291">
        <ele>1058.46888</ele>
        <time>2021-07-07T11:24:15+0200</time>
      </trkpt>
      <trkpt lat="45.60489" lon="2.93287">
        <ele>1057.96232</ele>
        <time>2021-07-07T11:24:16+0200</time>
      </trkpt>
      <trkpt lat="45.60482" lon="2.93283">
        <ele>1057.422018</ele>
        <time>2021-07-07T11:24:17+0200</time>
      </trkpt>
      <trkpt lat="45.60475" lon="2.93278">
        <ele>1056.882952</ele>
        <time>2021-07-07T11:24:18+0200</time>
      </trkpt>
      <trkpt lat="45.60467" lon="2.93273">
        <ele>1056.190073</ele>
        <time>2021-07-07T11:24:19+0200</time>
      </trkpt>
      <trkpt lat="45.60459" lon="2.93269">
        <ele>1055.500346</ele>
        <time>2021-07-07T11:24:20+0200</time>
      </trkpt>
      <trkpt lat="45.6045" lon="2.93266">
        <ele>1054.48543</ele>
        <time>2021-07-07T11:24:21+0200</time>
      </trkpt>
      <trkpt lat="45.60441" lon="2.93262">
        <ele>1053.597546</ele>
        <time>2021-07-07T11:24:22+0200</time>
      </trkpt>
      <trkpt lat="45.60432" lon="2.93256">
        <ele>1052.457111</ele>
        <time>2021-07-07T11:24:23+0200</time>
      </trkpt>
      <trkpt lat="45.60423" lon="2.93251">
        <ele>1051.346499</ele>
        <time>2021-07-07T11:24:24+0200</time>
      </trkpt>
      <trkpt lat="45.60414" lon="2.93245">
        <ele>1050.239654</ele>
        <time>2021-07-07T11:24:25+0200</time>
      </trkpt>
      <trkpt lat="45.60404" lon="2.93238">
        <ele>1049.279589</ele>
        <time>2021-07-07T11:24:26+0200</time>
      </trkpt>
      <trkpt lat="45.60396" lon="2.93231">
        <ele>1048.153138</ele>
        <time>2021-07-07T11:24:27+0200</time>
      </trkpt>
      <trkpt lat="45.60386" lon="2.93224">
        <ele>1046.850213</ele>
        <time>2021-07-07T11:24:28+0200</time>
      </trkpt>
      <trkpt lat="45.60377" lon="2.93217">
        <ele>1045.84847</ele>
        <time>2021-07-07T11:24:29+0200</time>
      </trkpt>
      <trkpt lat="45.60367" lon="2.93211">
        <ele>1044.702183</ele>
        <time>2021-07-07T11:24:30+0200</time>
      </trkpt>
      <trkpt lat="45.60357" lon="2.93204">
        <ele>1043.697344</ele>
        <time>2021-07-07T11:24:31+0200</time>
      </trkpt>
      <trkpt lat="45.60347" lon="2.93198">
        <ele>1042.829564</ele>
        <time>2021-07-07T11:24:32+0200</time>
      </trkpt>
      <trkpt lat="45.60337" lon="2.93193">
        <ele>1042.221161</ele>
        <time>2021-07-07T11:24:33+0200</time>
      </trkpt>
      <trkpt lat="45.60326" lon="2.93186">
        <ele>1041.097377</ele>
        <time>2021-07-07T11:24:34+0200</time>
      </trkpt>
      <trkpt lat="45.60317" lon="2.93181">
        <ele>1040.645369</ele>
        <time>2021-07-07T11:24:35+0200</time>
      </trkpt>
      <trkpt lat="45.60307" lon="2.93176">
        <ele>1040.078092</ele>
        <time>2021-07-07T11:24:36+0200</time>
      </trkpt>
      <trkpt lat="45.60298" lon="2.93168">
        <ele>1039.585359</ele>
        <time>2021-07-07T11:24:37+0200</time>
      </trkpt>
      <trkpt lat="45.60289" lon="2.93162">
        <ele>1038.652455</ele>
        <time>2021-07-07T11:24:38+0200</time>
      </trkpt>
      <trkpt lat="45.60279" lon="2.93156">
        <ele>1037.675398</ele>
        <time>2021-07-07T11:24:39+0200</time>
      </trkpt>
      <trkpt lat="45.60271" lon="2.93147">
        <ele>1037.301237</ele>
        <time>2021-07-07T11:24:40+0200</time>
      </trkpt>
      <trkpt lat="45.60262" lon="2.9314">
        <ele>1036.63859</ele>
        <time>2021-07-07T11:24:41+0200</time>
      </trkpt>
      <trkpt lat="45.60253" lon="2.93133">
        <ele>1036.163093</ele>
        <time>2021-07-07T11:24:42+0200</time>
      </trkpt>
      <trkpt lat="45.60245" lon="2.93125">
        <ele>1035.686075</ele>
        <time>2021-07-07T11:24:43+0200</time>
      </trkpt>
      <trkpt lat="45.60236" lon="2.93116">
        <ele>1035.421067</ele>
        <time>2021-07-07T11:24:44+0200</time>
      </trkpt>
      <trkpt lat="45.60229" lon="2.93109">
        <ele>1035.361682</ele>
        <time>2021-07-07T11:24:45+0200</time>
      </trkpt>
      <trkpt lat="45.60221" lon="2.93102">
        <ele>1035.146058</ele>
        <time>2021-07-07T11:24:46+0200</time>
      </trkpt>
      <trkpt lat="45.60213" lon="2.93095">
        <ele>1034.788525</ele>
        <time>2021-07-07T11:24:47+0200</time>
      </trkpt>
      <trkpt lat="45.60204" lon="2.93088">
        <ele>1034.599845</ele>
        <time>2021-07-07T11:24:48+0200</time>
      </trkpt>
      <trkpt lat="45.60197" lon="2.93078">
        <ele>1034.446286</ele>
        <time>2021-07-07T11:24:49+0200</time>
      </trkpt>
      <trkpt lat="45.6019" lon="2.9307">
        <ele>1034.291152</ele>
        <time>2021-07-07T11:24:50+0200</time>
      </trkpt>
      <trkpt lat="45.60182" lon="2.93065">
        <ele>1033.661458</ele>
        <time>2021-07-07T11:24:51+0200</time>
      </trkpt>
      <trkpt lat="45.60175" lon="2.93057">
        <ele>1033.756507</ele>
        <time>2021-07-07T11:24:52+0200</time>
      </trkpt>
      <trkpt lat="45.60169" lon="2.93048">
        <ele>1033.634111</ele>
        <time>2021-07-07T11:24:53+0200</time>
      </trkpt>
      <trkpt lat="45.60163" lon="2.93041">
        <ele>1033.864434</ele>
        <time>2021-07-07T11:24:54+0200</time>
      </trkpt>
      <trkpt lat="45.60157" lon="2.93035">
        <ele>1033.453581</ele>
        <time>2021-07-07T11:24:55+0200</time>
      </trkpt>
      <trkpt lat="45.60151" lon="2.93028">
        <ele>1033.065901</ele>
        <time>2021-07-07T11:24:56+0200</time>
      </trkpt>
      <trkpt lat="45.60145" lon="2.93021">
        <ele>1032.657143</ele>
        <time>2021-07-07T11:24:57+0200</time>
      </trkpt>
      <trkpt lat="45.60138" lon="2.93015">
        <ele>1032.016954</ele>
        <time>2021-07-07T11:24:58+0200</time>
      </trkpt>
      <trkpt lat="45.60131" lon="2.9301">
        <ele>1031.904925</ele>
        <time>2021-07-07T11:24:59+0200</time>
      </trkpt>
      <trkpt lat="45.60125" lon="2.93004">
        <ele>1031.860849</ele>
        <time>2021-07-07T11:25:00+0200</time>
      </trkpt>
      <trkpt lat="45.60119" lon="2.92997">
        <ele>1031.778364</ele>
        <time>2021-07-07T11:25:01+0200</time>
      </trkpt>
      <trkpt lat="45.60112" lon="2.9299">
        <ele>1031.465313</ele>
        <time>2021-07-07T11:25:02+0200</time>
      </trkpt>
      <trkpt lat="45.60106" lon="2.92984">
        <ele>1031.158471</ele>
        <time>2021-07-07T11:25:03+0200</time>
      </trkpt>
      <trkpt lat="45.601" lon="2.92977">
        <ele>1031.437836</ele>
        <time>2021-07-07T11:25:04+0200</time>
      </trkpt>
      <trkpt lat="45.60095" lon="2.9297">
        <ele>1031.342789</ele>
        <time>2021-07-07T11:25:05+0200</time>
      </trkpt>
      <trkpt lat="45.60089" lon="2.92966">
        <ele>1032.260319</ele>
        <time>2021-07-07T11:25:06+0200</time>
      </trkpt>
      <trkpt lat="45.60084" lon="2.92961">
        <ele>1032.063351</ele>
        <time>2021-07-07T11:25:07+0200</time>
      </trkpt>
      <trkpt lat="45.60077" lon="2.92957">
        <ele>1031.415457</ele>
        <time>2021-07-07T11:25:08+0200</time>
      </trkpt>
      <trkpt lat="45.60071" lon="2.92954">
        <ele>1031.37221</ele>
        <time>2021-07-07T11:25:09+0200</time>
      </trkpt>
      <trkpt lat="45.60065" lon="2.92951">
        <ele>1031.157339</ele>
        <time>2021-07-07T11:25:10+0200</time>
      </trkpt>
      <trkpt lat="45.60059" lon="2.9295">
        <ele>1030.619174</ele>
        <time>2021-07-07T11:25:11+0200</time>
      </trkpt>
      <trkpt lat="45.60053" lon="2.92946">
        <ele>1030.674277</ele>
        <time>2021-07-07T11:25:12+0200</time>
      </trkpt>
      <trkpt lat="45.60047" lon="2.92943">
        <ele>1030.9853</ele>
        <time>2021-07-07T11:25:13+0200</time>
      </trkpt>
      <trkpt lat="45.60041" lon="2.9294">
        <ele>1031.022038</ele>
        <time>2021-07-07T11:25:14+0200</time>
      </trkpt>
      <trkpt lat="45.60035" lon="2.92937">
        <ele>1031.019418</ele>
        <time>2021-07-07T11:25:15+0200</time>
      </trkpt>
      <trkpt lat="45.6003" lon="2.92934">
        <ele>1031.012131</ele>
        <time>2021-07-07T11:25:16+0200</time>
      </trkpt>
      <trkpt lat="45.60024" lon="2.92931">
        <ele>1030.88065</ele>
        <time>2021-07-07T11:25:17+0200</time>
      </trkpt>
      <trkpt lat="45.60019" lon="2.92928">
        <ele>1030.800837</ele>
        <time>2021-07-07T11:25:18+0200</time>
      </trkpt>
      <trkpt lat="45.60014" lon="2.92925">
        <ele>1031.048941</ele>
        <time>2021-07-07T11:25:19+0200</time>
      </trkpt>
      <trkpt lat="45.60009" lon="2.92923">
        <ele>1031.004919</ele>
        <time>2021-07-07T11:25:20+0200</time>
      </trkpt>
      <trkpt lat="45.60003" lon="2.92923">
        <ele>1031.154993</ele>
        <time>2021-07-07T11:25:21+0200</time>
      </trkpt>
      <trkpt lat="45.59999" lon="2.92924">
        <ele>1031.221937</ele>
        <time>2021-07-07T11:25:22+0200</time>
      </trkpt>
      <trkpt lat="45.59991" lon="2.92924">
        <ele>1031.882789</ele>
        <time>2021-07-07T11:25:24+0200</time>
      </trkpt>
      <trkpt lat="45.59984" lon="2.92926">
        <ele>1033.06577</ele>
        <time>2021-07-07T11:25:26+0200</time>
      </trkpt>
      <trkpt lat="45.59976" lon="2.92929">
        <ele>1033.456289</ele>
        <time>2021-07-07T11:25:28+0200</time>
      </trkpt>
      <trkpt lat="45.59969" lon="2.92931">
        <ele>1033.286052</ele>
        <time>2021-07-07T11:25:30+0200</time>
      </trkpt>
      <trkpt lat="45.59961" lon="2.92932">
        <ele>1033.601311</ele>
        <time>2021-07-07T11:25:32+0200</time>
      </trkpt>
      <trkpt lat="45.59957" lon="2.92931">
        <ele>1033.580555</ele>
        <time>2021-07-07T11:25:33+0200</time>
      </trkpt>
      <trkpt lat="45.59948" lon="2.92931">
        <ele>1033.704621</ele>
        <time>2021-07-07T11:25:35+0200</time>
      </trkpt>
      <trkpt lat="45.59939" lon="2.9293">
        <ele>1033.022199</ele>
        <time>2021-07-07T11:25:37+0200</time>
      </trkpt>
      <trkpt lat="45.59934" lon="2.92929">
        <ele>1033.058179</ele>
        <time>2021-07-07T11:25:38+0200</time>
      </trkpt>
      <trkpt lat="45.59929" lon="2.92928">
        <ele>1033.366376</ele>
        <time>2021-07-07T11:25:40+0200</time>
      </trkpt>
      <trkpt lat="45.59923" lon="2.92925">
        <ele>1033.88401</ele>
        <time>2021-07-07T11:25:42+0200</time>
      </trkpt>
      <trkpt lat="45.59917" lon="2.92922">
        <ele>1034.173246</ele>
        <time>2021-07-07T11:25:44+0200</time>
      </trkpt>
      <trkpt lat="45.5991" lon="2.92919">
        <ele>1034.176289</ele>
        <time>2021-07-07T11:25:46+0200</time>
      </trkpt>
      <trkpt lat="45.59904" lon="2.92917">
        <ele>1034.794217</ele>
        <time>2021-07-07T11:25:48+0200</time>
      </trkpt>
      <trkpt lat="45.59897" lon="2.92916">
        <ele>1034.778939</ele>
        <time>2021-07-07T11:25:50+0200</time>
      </trkpt>
      <trkpt lat="45.5989" lon="2.92915">
        <ele>1035.3456</ele>
        <time>2021-07-07T11:25:52+0200</time>
      </trkpt>
      <trkpt lat="45.59883" lon="2.92913">
        <ele>1035.602732</ele>
        <time>2021-07-07T11:25:54+0200</time>
      </trkpt>
      <trkpt lat="45.59877" lon="2.92911">
        <ele>1035.48268</ele>
        <time>2021-07-07T11:25:56+0200</time>
      </trkpt>
      <trkpt lat="45.5987" lon="2.92909">
        <ele>1035.609384</ele>
        <time>2021-07-07T11:25:58+0200</time>
      </trkpt>
      <trkpt lat="45.59863" lon="2.92908">
        <ele>1035.927586</ele>
        <time>2021-07-07T11:26:00+0200</time>
      </trkpt>
      <trkpt lat="45.59857" lon="2.92906">
        <ele>1036.515922</ele>
        <time>2021-07-07T11:26:02+0200</time>
      </trkpt>
      <trkpt lat="45.5985" lon="2.92905">
        <ele>1036.826135</ele>
        <time>2021-07-07T11:26:04+0200</time>
      </trkpt>
      <trkpt lat="45.59842" lon="2.92904">
        <ele>1037.188869</ele>
        <time>2021-07-07T11:26:06+0200</time>
      </trkpt>
      <trkpt lat="45.59835" lon="2.92904">
        <ele>1037.484311</ele>
        <time>2021-07-07T11:26:08+0200</time>
      </trkpt>
      <trkpt lat="45.59829" lon="2.92903">
        <ele>1037.422029</ele>
        <time>2021-07-07T11:26:10+0200</time>
      </trkpt>
      <trkpt lat="45.59822" lon="2.92903">
        <ele>1037.798087</ele>
        <time>2021-07-07T11:26:12+0200</time>
      </trkpt>
      <trkpt lat="45.59816" lon="2.92902">
        <ele>1038.341852</ele>
        <time>2021-07-07T11:26:14+0200</time>
      </trkpt>
      <trkpt lat="45.59811" lon="2.92901">
        <ele>1038.210503</ele>
        <time>2021-07-07T11:26:16+0200</time>
      </trkpt>
      <trkpt lat="45.59805" lon="2.929">
        <ele>1037.739135</ele>
        <time>2021-07-07T11:26:18+0200</time>
      </trkpt>
      <trkpt lat="45.59799" lon="2.92898">
        <ele>1037.296513</ele>
        <time>2021-07-07T11:26:20+0200</time>
      </trkpt>
      <trkpt lat="45.59791" lon="2.92898">
        <ele>1036.644531</ele>
        <time>2021-07-07T11:26:22+0200</time>
      </trkpt>
      <trkpt lat="45.59783" lon="2.92901">
        <ele>1035.602391</ele>
        <time>2021-07-07T11:26:24+0200</time>
      </trkpt>
      <trkpt lat="45.59774" lon="2.92903">
        <ele>1035.555449</ele>
        <time>2021-07-07T11:26:26+0200</time>
      </trkpt>
      <trkpt lat="45.59768" lon="2.929">
        <ele>1035.267531</ele>
        <time>2021-07-07T11:26:27+0200</time>
      </trkpt>
      <trkpt lat="45.59763" lon="2.92896">
        <ele>1035.311538</ele>
        <time>2021-07-07T11:26:28+0200</time>
      </trkpt>
      <trkpt lat="45.59758" lon="2.92893">
        <ele>1035.453902</ele>
        <time>2021-07-07T11:26:29+0200</time>
      </trkpt>
      <trkpt lat="45.59754" lon="2.92889">
        <ele>1035.332413</ele>
        <time>2021-07-07T11:26:30+0200</time>
      </trkpt>
      <trkpt lat="45.59749" lon="2.92885">
        <ele>1035.37048</ele>
        <time>2021-07-07T11:26:31+0200</time>
      </trkpt>
      <trkpt lat="45.59744" lon="2.92881">
        <ele>1035.147755</ele>
        <time>2021-07-07T11:26:32+0200</time>
      </trkpt>
      <trkpt lat="45.5974" lon="2.92878">
        <ele>1035.153737</ele>
        <time>2021-07-07T11:26:33+0200</time>
      </trkpt>
      <trkpt lat="45.59735" lon="2.92874">
        <ele>1035.237295</ele>
        <time>2021-07-07T11:26:34+0200</time>
      </trkpt>
      <trkpt lat="45.59731" lon="2.92871">
        <ele>1035.561465</ele>
        <time>2021-07-07T11:26:35+0200</time>
      </trkpt>
      <trkpt lat="45.59727" lon="2.92868">
        <ele>1035.638799</ele>
        <time>2021-07-07T11:26:36+0200</time>
      </trkpt>
      <trkpt lat="45.59723" lon="2.92864">
        <ele>1035.709469</ele>
        <time>2021-07-07T11:26:37+0200</time>
      </trkpt>
      <trkpt lat="45.59715" lon="2.92858">
        <ele>1035.776214</ele>
        <time>2021-07-07T11:26:39+0200</time>
      </trkpt>
      <trkpt lat="45.59708" lon="2.92853">
        <ele>1036.143259</ele>
        <time>2021-07-07T11:26:41+0200</time>
      </trkpt>
      <trkpt lat="45.597" lon="2.9285">
        <ele>1035.320011</ele>
        <time>2021-07-07T11:26:43+0200</time>
      </trkpt>
      <trkpt lat="45.59696" lon="2.92847">
        <ele>1035.229879</ele>
        <time>2021-07-07T11:26:44+0200</time>
      </trkpt>
      <trkpt lat="45.59688" lon="2.92843">
        <ele>1035.081876</ele>
        <time>2021-07-07T11:26:46+0200</time>
      </trkpt>
      <trkpt lat="45.59681" lon="2.9284">
        <ele>1035.254061</ele>
        <time>2021-07-07T11:26:48+0200</time>
      </trkpt>
      <trkpt lat="45.59676" lon="2.92835">
        <ele>1036.048092</ele>
        <time>2021-07-07T11:26:50+0200</time>
      </trkpt>
      <trkpt lat="45.59672" lon="2.9283">
        <ele>1036.352167</ele>
        <time>2021-07-07T11:26:52+0200</time>
      </trkpt>
      <trkpt lat="45.5967" lon="2.92823">
        <ele>1036.480785</ele>
        <time>2021-07-07T11:26:56+0200</time>
      </trkpt>
      <trkpt lat="45.59664" lon="2.92827">
        <ele>1035.884709</ele>
        <time>2021-07-07T11:26:59+0200</time>
      </trkpt>
      <trkpt lat="45.59659" lon="2.92835">
        <ele>1035.726269</ele>
        <time>2021-07-07T11:27:01+0200</time>
      </trkpt>
      <trkpt lat="45.59653" lon="2.92843">
        <ele>1035.416126</ele>
        <time>2021-07-07T11:27:03+0200</time>
      </trkpt>
      <trkpt lat="45.59648" lon="2.92852">
        <ele>1035.06706</ele>
        <time>2021-07-07T11:27:05+0200</time>
      </trkpt>
      <trkpt lat="45.59644" lon="2.92856">
        <ele>1034.762153</ele>
        <time>2021-07-07T11:27:06+0200</time>
      </trkpt>
      <trkpt lat="45.59637" lon="2.9286">
        <ele>1034.949154</ele>
        <time>2021-07-07T11:27:08+0200</time>
      </trkpt>
      <trkpt lat="45.59629" lon="2.92858">
        <ele>1035.686726</ele>
        <time>2021-07-07T11:27:10+0200</time>
      </trkpt>
      <trkpt lat="45.59625" lon="2.92856">
        <ele>1036.022311</ele>
        <time>2021-07-07T11:27:11+0200</time>
      </trkpt>
      <trkpt lat="45.5962" lon="2.92851">
        <ele>1036.060392</ele>
        <time>2021-07-07T11:27:12+0200</time>
      </trkpt>
      <trkpt lat="45.59617" lon="2.92846">
        <ele>1035.974017</ele>
        <time>2021-07-07T11:27:13+0200</time>
      </trkpt>
      <trkpt lat="45.59613" lon="2.92842">
        <ele>1036.183077</ele>
        <time>2021-07-07T11:27:14+0200</time>
      </trkpt>
      <trkpt lat="45.5961" lon="2.92836">
        <ele>1035.957646</ele>
        <time>2021-07-07T11:27:15+0200</time>
      </trkpt>
      <trkpt lat="45.59605" lon="2.92826">
        <ele>1036.035159</ele>
        <time>2021-07-07T11:27:17+0200</time>
      </trkpt>
      <trkpt lat="45.59601" lon="2.92816">
        <ele>1036.216182</ele>
        <time>2021-07-07T11:27:19+0200</time>
      </trkpt>
      <trkpt lat="45.59596" lon="2.92806">
        <ele>1036.61123</ele>
        <time>2021-07-07T11:27:21+0200</time>
      </trkpt>
      <trkpt lat="45.59591" lon="2.92796">
        <ele>1036.947707</ele>
        <time>2021-07-07T11:27:23+0200</time>
      </trkpt>
      <trkpt lat="45.59586" lon="2.92786">
        <ele>1037.321604</ele>
        <time>2021-07-07T11:27:25+0200</time>
      </trkpt>
      <trkpt lat="45.59582" lon="2.92777">
        <ele>1037.714096</ele>
        <time>2021-07-07T11:27:27+0200</time>
      </trkpt>
      <trkpt lat="45.59576" lon="2.92767">
        <ele>1038.302485</ele>
        <time>2021-07-07T11:27:29+0200</time>
      </trkpt>
      <trkpt lat="45.59571" lon="2.92758">
        <ele>1038.827923</ele>
        <time>2021-07-07T11:27:31+0200</time>
      </trkpt>
      <trkpt lat="45.59566" lon="2.92749">
        <ele>1039.030787</ele>
        <time>2021-07-07T11:27:33+0200</time>
      </trkpt>
      <trkpt lat="45.5956" lon="2.9274">
        <ele>1039.311692</ele>
        <time>2021-07-07T11:27:35+0200</time>
      </trkpt>
      <trkpt lat="45.59554" lon="2.92731">
        <ele>1039.43</ele>
        <time>2021-07-07T11:27:37+0200</time>
      </trkpt>
      <trkpt lat="45.59548" lon="2.92724">
        <ele>1039.766113</ele>
        <time>2021-07-07T11:27:39+0200</time>
      </trkpt>
      <trkpt lat="45.59542" lon="2.92715">
        <ele>1039.951119</ele>
        <time>2021-07-07T11:27:41+0200</time>
      </trkpt>
      <trkpt lat="45.59537" lon="2.92706">
        <ele>1040.418895</ele>
        <time>2021-07-07T11:27:43+0200</time>
      </trkpt>
      <trkpt lat="45.59532" lon="2.92696">
        <ele>1040.885971</ele>
        <time>2021-07-07T11:27:45+0200</time>
      </trkpt>
      <trkpt lat="45.59527" lon="2.92686">
        <ele>1040.832917</ele>
        <time>2021-07-07T11:27:47+0200</time>
      </trkpt>
      <trkpt lat="45.59524" lon="2.92676">
        <ele>1040.779484</ele>
        <time>2021-07-07T11:27:49+0200</time>
      </trkpt>
      <trkpt lat="45.5952" lon="2.92666">
        <ele>1040.959445</ele>
        <time>2021-07-07T11:27:51+0200</time>
      </trkpt>
      <trkpt lat="45.59516" lon="2.92657">
        <ele>1040.939039</ele>
        <time>2021-07-07T11:27:53+0200</time>
      </trkpt>
      <trkpt lat="45.59512" lon="2.92646">
        <ele>1041.126669</ele>
        <time>2021-07-07T11:27:55+0200</time>
      </trkpt>
      <trkpt lat="45.59508" lon="2.92637">
        <ele>1041.34748</ele>
        <time>2021-07-07T11:27:57+0200</time>
      </trkpt>
      <trkpt lat="45.59502" lon="2.92628">
        <ele>1041.827981</ele>
        <time>2021-07-07T11:27:59+0200</time>
      </trkpt>
      <trkpt lat="45.59497" lon="2.9262">
        <ele>1041.734954</ele>
        <time>2021-07-07T11:28:01+0200</time>
      </trkpt>
      <trkpt lat="45.59491" lon="2.92613">
        <ele>1042.056242</ele>
        <time>2021-07-07T11:28:03+0200</time>
      </trkpt>
      <trkpt lat="45.59485" lon="2.92606">
        <ele>1042.451223</ele>
        <time>2021-07-07T11:28:05+0200</time>
      </trkpt>
      <trkpt lat="45.59479" lon="2.926">
        <ele>1042.838643</ele>
        <time>2021-07-07T11:28:07+0200</time>
      </trkpt>
      <trkpt lat="45.59472" lon="2.92593">
        <ele>1043.073165</ele>
        <time>2021-07-07T11:28:09+0200</time>
      </trkpt>
      <trkpt lat="45.59466" lon="2.92587">
        <ele>1043.376111</ele>
        <time>2021-07-07T11:28:11+0200</time>
      </trkpt>
      <trkpt lat="45.5946" lon="2.9258">
        <ele>1044.114562</ele>
        <time>2021-07-07T11:28:13+0200</time>
      </trkpt>
      <trkpt lat="45.59455" lon="2.92572">
        <ele>1044.831885</ele>
        <time>2021-07-07T11:28:15+0200</time>
      </trkpt>
      <trkpt lat="45.59451" lon="2.92563">
        <ele>1045.485416</ele>
        <time>2021-07-07T11:28:17+0200</time>
      </trkpt>
      <trkpt lat="45.59449" lon="2.92553">
        <ele>1045.493674</ele>
        <time>2021-07-07T11:28:19+0200</time>
      </trkpt>
      <trkpt lat="45.59446" lon="2.92543">
        <ele>1045.370839</ele>
        <time>2021-07-07T11:28:21+0200</time>
      </trkpt>
      <trkpt lat="45.59444" lon="2.92533">
        <ele>1045.302986</ele>
        <time>2021-07-07T11:28:23+0200</time>
      </trkpt>
      <trkpt lat="45.59441" lon="2.92522">
        <ele>1045.756857</ele>
        <time>2021-07-07T11:28:25+0200</time>
      </trkpt>
      <trkpt lat="45.59438" lon="2.92512">
        <ele>1046.114391</ele>
        <time>2021-07-07T11:28:27+0200</time>
      </trkpt>
      <trkpt lat="45.59435" lon="2.92501">
        <ele>1046.117069</ele>
        <time>2021-07-07T11:28:29+0200</time>
      </trkpt>
      <trkpt lat="45.59432" lon="2.92492">
        <ele>1046.332062</ele>
        <time>2021-07-07T11:28:31+0200</time>
      </trkpt>
      <trkpt lat="45.59428" lon="2.92482">
        <ele>1046.670867</ele>
        <time>2021-07-07T11:28:33+0200</time>
      </trkpt>
      <trkpt lat="45.59424" lon="2.92472">
        <ele>1046.916449</ele>
        <time>2021-07-07T11:28:35+0200</time>
      </trkpt>
      <trkpt lat="45.59419" lon="2.92463">
        <ele>1047.058901</ele>
        <time>2021-07-07T11:28:37+0200</time>
      </trkpt>
      <trkpt lat="45.59413" lon="2.92455">
        <ele>1047.101069</ele>
        <time>2021-07-07T11:28:39+0200</time>
      </trkpt>
      <trkpt lat="45.59407" lon="2.92447">
        <ele>1047.481784</ele>
        <time>2021-07-07T11:28:41+0200</time>
      </trkpt>
      <trkpt lat="45.59403" lon="2.92444">
        <ele>1047.538446</ele>
        <time>2021-07-07T11:28:42+0200</time>
      </trkpt>
      <trkpt lat="45.59397" lon="2.92437">
        <ele>1048.158806</ele>
        <time>2021-07-07T11:28:44+0200</time>
      </trkpt>
      <trkpt lat="45.59391" lon="2.92429">
        <ele>1048.418544</ele>
        <time>2021-07-07T11:28:46+0200</time>
      </trkpt>
      <trkpt lat="45.59385" lon="2.92422">
        <ele>1048.822589</ele>
        <time>2021-07-07T11:28:48+0200</time>
      </trkpt>
      <trkpt lat="45.5938" lon="2.92414">
        <ele>1049.215215</ele>
        <time>2021-07-07T11:28:50+0200</time>
      </trkpt>
      <trkpt lat="45.59375" lon="2.92406">
        <ele>1049.662169</ele>
        <time>2021-07-07T11:28:52+0200</time>
      </trkpt>
      <trkpt lat="45.5937" lon="2.92398">
        <ele>1050.228514</ele>
        <time>2021-07-07T11:28:54+0200</time>
      </trkpt>
      <trkpt lat="45.59367" lon="2.92389">
        <ele>1050.963763</ele>
        <time>2021-07-07T11:28:56+0200</time>
      </trkpt>
      <trkpt lat="45.59364" lon="2.9238">
        <ele>1050.73425</ele>
        <time>2021-07-07T11:28:58+0200</time>
      </trkpt>
      <trkpt lat="45.59362" lon="2.9237">
        <ele>1051.681003</ele>
        <time>2021-07-07T11:29:00+0200</time>
      </trkpt>
      <trkpt lat="45.59358" lon="2.9236">
        <ele>1051.603519</ele>
        <time>2021-07-07T11:29:02+0200</time>
      </trkpt>
      <trkpt lat="45.59356" lon="2.92352">
        <ele>1052.057584</ele>
        <time>2021-07-07T11:29:04+0200</time>
      </trkpt>
      <trkpt lat="45.59353" lon="2.92343">
        <ele>1052.597279</ele>
        <time>2021-07-07T11:29:06+0200</time>
      </trkpt>
      <trkpt lat="45.59349" lon="2.92334">
        <ele>1053.208009</ele>
        <time>2021-07-07T11:29:08+0200</time>
      </trkpt>
      <trkpt lat="45.59348" lon="2.92325">
        <ele>1053.742724</ele>
        <time>2021-07-07T11:29:10+0200</time>
      </trkpt>
      <trkpt lat="45.59346" lon="2.92317">
        <ele>1054.011556</ele>
        <time>2021-07-07T11:29:12+0200</time>
      </trkpt>
      <trkpt lat="45.59343" lon="2.92308">
        <ele>1054.586078</ele>
        <time>2021-07-07T11:29:14+0200</time>
      </trkpt>
      <trkpt lat="45.5934" lon="2.923">
        <ele>1055.349322</ele>
        <time>2021-07-07T11:29:16+0200</time>
      </trkpt>
      <trkpt lat="45.59338" lon="2.92292">
        <ele>1055.626564</ele>
        <time>2021-07-07T11:29:18+0200</time>
      </trkpt>
      <trkpt lat="45.59336" lon="2.92285">
        <ele>1055.898602</ele>
        <time>2021-07-07T11:29:20+0200</time>
      </trkpt>
      <trkpt lat="45.59333" lon="2.92277">
        <ele>1056.06374</ele>
        <time>2021-07-07T11:29:22+0200</time>
      </trkpt>
      <trkpt lat="45.5933" lon="2.92269">
        <ele>1056.984868</ele>
        <time>2021-07-07T11:29:24+0200</time>
      </trkpt>
      <trkpt lat="45.59327" lon="2.92261">
        <ele>1057.824423</ele>
        <time>2021-07-07T11:29:26+0200</time>
      </trkpt>
      <trkpt lat="45.59324" lon="2.92252">
        <ele>1058.422727</ele>
        <time>2021-07-07T11:29:28+0200</time>
      </trkpt>
      <trkpt lat="45.59321" lon="2.92245">
        <ele>1058.907466</ele>
        <time>2021-07-07T11:29:30+0200</time>
      </trkpt>
      <trkpt lat="45.59317" lon="2.92237">
        <ele>1059.015389</ele>
        <time>2021-07-07T11:29:32+0200</time>
      </trkpt>
      <trkpt lat="45.59314" lon="2.92228">
        <ele>1059.091722</ele>
        <time>2021-07-07T11:29:34+0200</time>
      </trkpt>
      <trkpt lat="45.59313" lon="2.9222">
        <ele>1059.097554</ele>
        <time>2021-07-07T11:29:36+0200</time>
      </trkpt>
      <trkpt lat="45.59309" lon="2.92214">
        <ele>1059.147361</ele>
        <time>2021-07-07T11:29:38+0200</time>
      </trkpt>
      <trkpt lat="45.59306" lon="2.92207">
        <ele>1059.012636</ele>
        <time>2021-07-07T11:29:40+0200</time>
      </trkpt>
      <trkpt lat="45.59302" lon="2.92201">
        <ele>1059.101607</ele>
        <time>2021-07-07T11:29:42+0200</time>
      </trkpt>
      <trkpt lat="45.59297" lon="2.92196">
        <ele>1059.33766</ele>
        <time>2021-07-07T11:29:44+0200</time>
      </trkpt>
      <trkpt lat="45.59291" lon="2.92192">
        <ele>1058.844878</ele>
        <time>2021-07-07T11:29:46+0200</time>
      </trkpt>
      <trkpt lat="45.59285" lon="2.92188">
        <ele>1058.664835</ele>
        <time>2021-07-07T11:29:48+0200</time>
      </trkpt>
      <trkpt lat="45.59279" lon="2.92185">
        <ele>1057.866048</ele>
        <time>2021-07-07T11:29:50+0200</time>
      </trkpt>
      <trkpt lat="45.59273" lon="2.92186">
        <ele>1057.240926</ele>
        <time>2021-07-07T11:29:52+0200</time>
      </trkpt>
      <trkpt lat="45.59267" lon="2.92186">
        <ele>1057.357819</ele>
        <time>2021-07-07T11:29:54+0200</time>
      </trkpt>
      <trkpt lat="45.5926" lon="2.92185">
        <ele>1057.845681</ele>
        <time>2021-07-07T11:29:56+0200</time>
      </trkpt>
      <trkpt lat="45.59252" lon="2.92185">
        <ele>1057.424911</ele>
        <time>2021-07-07T11:29:58+0200</time>
      </trkpt>
      <trkpt lat="45.59245" lon="2.92183">
        <ele>1057.634527</ele>
        <time>2021-07-07T11:30:00+0200</time>
      </trkpt>
      <trkpt lat="45.59238" lon="2.92182">
        <ele>1056.998912</ele>
        <time>2021-07-07T11:30:02+0200</time>
      </trkpt>
      <trkpt lat="45.59231" lon="2.9218">
        <ele>1056.821825</ele>
        <time>2021-07-07T11:30:04+0200</time>
      </trkpt>
      <trkpt lat="45.59225" lon="2.92179">
        <ele>1056.896328</ele>
        <time>2021-07-07T11:30:06+0200</time>
      </trkpt>
      <trkpt lat="45.5922" lon="2.92177">
        <ele>1056.991011</ele>
        <time>2021-07-07T11:30:08+0200</time>
      </trkpt>
      <trkpt lat="45.59215" lon="2.92174">
        <ele>1057.071661</ele>
        <time>2021-07-07T11:30:10+0200</time>
      </trkpt>
      <trkpt lat="45.5921" lon="2.92171">
        <ele>1056.507867</ele>
        <time>2021-07-07T11:30:13+0200</time>
      </trkpt>
      <trkpt lat="45.59206" lon="2.92166">
        <ele>1055.696521</ele>
        <time>2021-07-07T11:30:31+0200</time>
      </trkpt>
      <trkpt lat="45.59202" lon="2.92161">
        <ele>1055.702721</ele>
        <time>2021-07-07T11:30:37+0200</time>
      </trkpt>
      <trkpt lat="45.59197" lon="2.92157">
        <ele>1055.700841</ele>
        <time>2021-07-07T11:30:40+0200</time>
      </trkpt>
      <trkpt lat="45.59191" lon="2.9215">
        <ele>1054.512835</ele>
        <time>2021-07-07T11:30:42+0200</time>
      </trkpt>
      <trkpt lat="45.59187" lon="2.92145">
        <ele>1053.86347</ele>
        <time>2021-07-07T11:30:43+0200</time>
      </trkpt>
      <trkpt lat="45.59183" lon="2.92138">
        <ele>1053.533547</ele>
        <time>2021-07-07T11:30:44+0200</time>
      </trkpt>
      <trkpt lat="45.59181" lon="2.92132">
        <ele>1052.812724</ele>
        <time>2021-07-07T11:30:45+0200</time>
      </trkpt>
      <trkpt lat="45.59178" lon="2.92119">
        <ele>1051.811213</ele>
        <time>2021-07-07T11:30:47+0200</time>
      </trkpt>
      <trkpt lat="45.59176" lon="2.92111">
        <ele>1051.399137</ele>
        <time>2021-07-07T11:30:48+0200</time>
      </trkpt>
      <trkpt lat="45.59172" lon="2.92103">
        <ele>1050.967771</ele>
        <time>2021-07-07T11:30:49+0200</time>
      </trkpt>
      <trkpt lat="45.5917" lon="2.92094">
        <ele>1050.825449</ele>
        <time>2021-07-07T11:30:50+0200</time>
      </trkpt>
      <trkpt lat="45.59166" lon="2.92085">
        <ele>1050.565429</ele>
        <time>2021-07-07T11:30:51+0200</time>
      </trkpt>
      <trkpt lat="45.59162" lon="2.92075">
        <ele>1049.918351</ele>
        <time>2021-07-07T11:30:52+0200</time>
      </trkpt>
      <trkpt lat="45.5916" lon="2.92066">
        <ele>1049.533237</ele>
        <time>2021-07-07T11:30:53+0200</time>
      </trkpt>
      <trkpt lat="45.59157" lon="2.92056">
        <ele>1049.0291</ele>
        <time>2021-07-07T11:30:54+0200</time>
      </trkpt>
      <trkpt lat="45.59155" lon="2.92047">
        <ele>1048.408612</ele>
        <time>2021-07-07T11:30:55+0200</time>
      </trkpt>
      <trkpt lat="45.59152" lon="2.92037">
        <ele>1047.886652</ele>
        <time>2021-07-07T11:30:56+0200</time>
      </trkpt>
      <trkpt lat="45.59149" lon="2.92027">
        <ele>1047.474669</ele>
        <time>2021-07-07T11:30:57+0200</time>
      </trkpt>
      <trkpt lat="45.59145" lon="2.92017">
        <ele>1047.513496</ele>
        <time>2021-07-07T11:30:58+0200</time>
      </trkpt>
      <trkpt lat="45.59141" lon="2.92007">
        <ele>1047.381879</ele>
        <time>2021-07-07T11:30:59+0200</time>
      </trkpt>
      <trkpt lat="45.59137" lon="2.91996">
        <ele>1046.749755</ele>
        <time>2021-07-07T11:31:00+0200</time>
      </trkpt>
      <trkpt lat="45.59133" lon="2.91985">
        <ele>1046.391555</ele>
        <time>2021-07-07T11:31:01+0200</time>
      </trkpt>
      <trkpt lat="45.59129" lon="2.91976">
        <ele>1046.143515</ele>
        <time>2021-07-07T11:31:02+0200</time>
      </trkpt>
      <trkpt lat="45.59127" lon="2.91969">
        <ele>1046.299764</ele>
        <time>2021-07-07T11:31:03+0200</time>
      </trkpt>
      <trkpt lat="45.59124" lon="2.91961">
        <ele>1045.87318</ele>
        <time>2021-07-07T11:31:04+0200</time>
      </trkpt>
      <trkpt lat="45.59121" lon="2.91954">
        <ele>1045.984908</ele>
        <time>2021-07-07T11:31:05+0200</time>
      </trkpt>
      <trkpt lat="45.59118" lon="2.91942">
        <ele>1045.89921</ele>
        <time>2021-07-07T11:31:07+0200</time>
      </trkpt>
      <trkpt lat="45.59115" lon="2.91936">
        <ele>1045.678122</ele>
        <time>2021-07-07T11:31:08+0200</time>
      </trkpt>
      <trkpt lat="45.59111" lon="2.91926">
        <ele>1045.732854</ele>
        <time>2021-07-07T11:31:10+0200</time>
      </trkpt>
      <trkpt lat="45.59108" lon="2.91921">
        <ele>1045.31988</ele>
        <time>2021-07-07T11:31:11+0200</time>
      </trkpt>
      <trkpt lat="45.59104" lon="2.91916">
        <ele>1045.143965</ele>
        <time>2021-07-07T11:31:12+0200</time>
      </trkpt>
      <trkpt lat="45.591" lon="2.91912">
        <ele>1045.18751</ele>
        <time>2021-07-07T11:31:13+0200</time>
      </trkpt>
      <trkpt lat="45.59096" lon="2.91906">
        <ele>1045.570838</ele>
        <time>2021-07-07T11:31:14+0200</time>
      </trkpt>
      <trkpt lat="45.5909" lon="2.91899">
        <ele>1045.948583</ele>
        <time>2021-07-07T11:31:15+0200</time>
      </trkpt>
      <trkpt lat="45.59085" lon="2.91894">
        <ele>1045.637754</ele>
        <time>2021-07-07T11:31:16+0200</time>
      </trkpt>
      <trkpt lat="45.5908" lon="2.91888">
        <ele>1045.209713</ele>
        <time>2021-07-07T11:31:17+0200</time>
      </trkpt>
      <trkpt lat="45.59074" lon="2.91881">
        <ele>1044.348631</ele>
        <time>2021-07-07T11:31:18+0200</time>
      </trkpt>
      <trkpt lat="45.59067" lon="2.91875">
        <ele>1043.584897</ele>
        <time>2021-07-07T11:31:19+0200</time>
      </trkpt>
      <trkpt lat="45.59061" lon="2.91868">
        <ele>1042.405884</ele>
        <time>2021-07-07T11:31:20+0200</time>
      </trkpt>
      <trkpt lat="45.59056" lon="2.91861">
        <ele>1041.896883</ele>
        <time>2021-07-07T11:31:21+0200</time>
      </trkpt>
      <trkpt lat="45.59054" lon="2.91851">
        <ele>1041.281443</ele>
        <time>2021-07-07T11:31:22+0200</time>
      </trkpt>
      <trkpt lat="45.59053" lon="2.91839">
        <ele>1041.303552</ele>
        <time>2021-07-07T11:31:23+0200</time>
      </trkpt>
      <trkpt lat="45.59052" lon="2.9183">
        <ele>1039.899265</ele>
        <time>2021-07-07T11:31:24+0200</time>
      </trkpt>
      <trkpt lat="45.59051" lon="2.91819">
        <ele>1039.83237</ele>
        <time>2021-07-07T11:31:25+0200</time>
      </trkpt>
      <trkpt lat="45.59051" lon="2.91811">
        <ele>1039.533122</ele>
        <time>2021-07-07T11:31:26+0200</time>
      </trkpt>
      <trkpt lat="45.59051" lon="2.91803">
        <ele>1039.146718</ele>
        <time>2021-07-07T11:31:27+0200</time>
      </trkpt>
      <trkpt lat="45.59052" lon="2.91795">
        <ele>1038.919592</ele>
        <time>2021-07-07T11:31:28+0200</time>
      </trkpt>
      <trkpt lat="45.59051" lon="2.91785">
        <ele>1038.777656</ele>
        <time>2021-07-07T11:31:29+0200</time>
      </trkpt>
      <trkpt lat="45.59049" lon="2.91777">
        <ele>1038.182602</ele>
        <time>2021-07-07T11:31:30+0200</time>
      </trkpt>
      <trkpt lat="45.59044" lon="2.91773">
        <ele>1038.232982</ele>
        <time>2021-07-07T11:31:31+0200</time>
      </trkpt>
      <trkpt lat="45.5904" lon="2.91767">
        <ele>1037.941861</ele>
        <time>2021-07-07T11:31:32+0200</time>
      </trkpt>
      <trkpt lat="45.59031" lon="2.91775">
        <ele>1038.74308</ele>
        <time>2021-07-07T11:31:33+0200</time>
      </trkpt>
      <trkpt lat="45.59024" lon="2.91776">
        <ele>1038.70513</ele>
        <time>2021-07-07T11:31:34+0200</time>
      </trkpt>
      <trkpt lat="45.59018" lon="2.91776">
        <ele>1038.825695</ele>
        <time>2021-07-07T11:31:35+0200</time>
      </trkpt>
      <trkpt lat="45.59011" lon="2.91777">
        <ele>1038.919095</ele>
        <time>2021-07-07T11:31:36+0200</time>
      </trkpt>
      <trkpt lat="45.59005" lon="2.91778">
        <ele>1038.36432</ele>
        <time>2021-07-07T11:31:37+0200</time>
      </trkpt>
      <trkpt lat="45.58997" lon="2.91778">
        <ele>1038.317201</ele>
        <time>2021-07-07T11:31:38+0200</time>
      </trkpt>
      <trkpt lat="45.5899" lon="2.91778">
        <ele>1038.932914</ele>
        <time>2021-07-07T11:31:39+0200</time>
      </trkpt>
      <trkpt lat="45.58983" lon="2.91779">
        <ele>1039.244942</ele>
        <time>2021-07-07T11:31:40+0200</time>
      </trkpt>
      <trkpt lat="45.58976" lon="2.91778">
        <ele>1039.610731</ele>
        <time>2021-07-07T11:31:41+0200</time>
      </trkpt>
      <trkpt lat="45.58969" lon="2.91778">
        <ele>1039.789533</ele>
        <time>2021-07-07T11:31:42+0200</time>
      </trkpt>
      <trkpt lat="45.58961" lon="2.91778">
        <ele>1039.796322</ele>
        <time>2021-07-07T11:31:43+0200</time>
      </trkpt>
      <trkpt lat="45.58955" lon="2.91778">
        <ele>1039.75011</ele>
        <time>2021-07-07T11:31:44+0200</time>
      </trkpt>
      <trkpt lat="45.58949" lon="2.91777">
        <ele>1039.864584</ele>
        <time>2021-07-07T11:31:45+0200</time>
      </trkpt>
      <trkpt lat="45.58943" lon="2.91776">
        <ele>1040.006847</ele>
        <time>2021-07-07T11:31:46+0200</time>
      </trkpt>
      <trkpt lat="45.58938" lon="2.91773">
        <ele>1040.114987</ele>
        <time>2021-07-07T11:31:47+0200</time>
      </trkpt>
      <trkpt lat="45.58934" lon="2.91768">
        <ele>1040.156148</ele>
        <time>2021-07-07T11:31:48+0200</time>
      </trkpt>
      <trkpt lat="45.58928" lon="2.91759">
        <ele>1040.840856</ele>
        <time>2021-07-07T11:31:50+0200</time>
      </trkpt>
      <trkpt lat="45.58927" lon="2.9177">
        <ele>1043.334386</ele>
        <time>2021-07-07T11:31:53+0200</time>
      </trkpt>
      <trkpt lat="45.58926" lon="2.9178">
        <ele>1042.302916</ele>
        <time>2021-07-07T11:31:55+0200</time>
      </trkpt>
      <trkpt lat="45.5892" lon="2.91787">
        <ele>1043.547612</ele>
        <time>2021-07-07T11:31:57+0200</time>
      </trkpt>
      <trkpt lat="45.58914" lon="2.91796">
        <ele>1043.671162</ele>
        <time>2021-07-07T11:31:59+0200</time>
      </trkpt>
      <trkpt lat="45.5891" lon="2.91804">
        <ele>1043.684224</ele>
        <time>2021-07-07T11:32:01+0200</time>
      </trkpt>
      <trkpt lat="45.58904" lon="2.91809">
        <ele>1044.165381</ele>
        <time>2021-07-07T11:32:03+0200</time>
      </trkpt>
      <trkpt lat="45.58898" lon="2.91809">
        <ele>1044.683472</ele>
        <time>2021-07-07T11:32:05+0200</time>
      </trkpt>
      <trkpt lat="45.58893" lon="2.91806">
        <ele>1044.292067</ele>
        <time>2021-07-07T11:32:07+0200</time>
      </trkpt>
      <trkpt lat="45.58886" lon="2.91803">
        <ele>1044.99189</ele>
        <time>2021-07-07T11:32:10+0200</time>
      </trkpt>
      <trkpt lat="45.58881" lon="2.91799">
        <ele>1045.189863</ele>
        <time>2021-07-07T11:32:12+0200</time>
      </trkpt>
      <trkpt lat="45.58877" lon="2.91796">
        <ele>1045.823507</ele>
        <time>2021-07-07T11:32:14+0200</time>
      </trkpt>
      <trkpt lat="45.58873" lon="2.91792">
        <ele>1045.520552</ele>
        <time>2021-07-07T11:32:16+0200</time>
      </trkpt>
      <trkpt lat="45.58869" lon="2.91789">
        <ele>1045.94079</ele>
        <time>2021-07-07T11:32:18+0200</time>
      </trkpt>
      <trkpt lat="45.58864" lon="2.91787">
        <ele>1046.696165</ele>
        <time>2021-07-07T11:32:20+0200</time>
      </trkpt>
      <trkpt lat="45.58859" lon="2.91786">
        <ele>1047.118819</ele>
        <time>2021-07-07T11:32:22+0200</time>
      </trkpt>
      <trkpt lat="45.58854" lon="2.91784">
        <ele>1046.694274</ele>
        <time>2021-07-07T11:32:24+0200</time>
      </trkpt>
      <trkpt lat="45.58849" lon="2.91783">
        <ele>1046.685241</ele>
        <time>2021-07-07T11:32:26+0200</time>
      </trkpt>
      <trkpt lat="45.58843" lon="2.91781">
        <ele>1046.974448</ele>
        <time>2021-07-07T11:32:28+0200</time>
      </trkpt>
      <trkpt lat="45.58838" lon="2.91779">
        <ele>1047.793813</ele>
        <time>2021-07-07T11:32:30+0200</time>
      </trkpt>
      <trkpt lat="45.58833" lon="2.91778">
        <ele>1048.56556</ele>
        <time>2021-07-07T11:32:32+0200</time>
      </trkpt>
      <trkpt lat="45.58827" lon="2.91776">
        <ele>1049.502955</ele>
        <time>2021-07-07T11:32:34+0200</time>
      </trkpt>
      <trkpt lat="45.58822" lon="2.91774">
        <ele>1050.154191</ele>
        <time>2021-07-07T11:32:36+0200</time>
      </trkpt>
      <trkpt lat="45.58816" lon="2.91771">
        <ele>1050.766343</ele>
        <time>2021-07-07T11:32:38+0200</time>
      </trkpt>
      <trkpt lat="45.58809" lon="2.9177">
        <ele>1050.79588</ele>
        <time>2021-07-07T11:32:40+0200</time>
      </trkpt>
      <trkpt lat="45.58803" lon="2.9177">
        <ele>1050.605358</ele>
        <time>2021-07-07T11:32:42+0200</time>
      </trkpt>
      <trkpt lat="45.58797" lon="2.91771">
        <ele>1050.677996</ele>
        <time>2021-07-07T11:32:44+0200</time>
      </trkpt>
      <trkpt lat="45.5879" lon="2.9177">
        <ele>1050.830978</ele>
        <time>2021-07-07T11:32:46+0200</time>
      </trkpt>
      <trkpt lat="45.58784" lon="2.9177">
        <ele>1051.252982</ele>
        <time>2021-07-07T11:32:48+0200</time>
      </trkpt>
      <trkpt lat="45.58778" lon="2.91772">
        <ele>1051.803324</ele>
        <time>2021-07-07T11:32:50+0200</time>
      </trkpt>
      <trkpt lat="45.5877" lon="2.91773">
        <ele>1052.066385</ele>
        <time>2021-07-07T11:32:52+0200</time>
      </trkpt>
      <trkpt lat="45.58763" lon="2.91777">
        <ele>1051.808264</ele>
        <time>2021-07-07T11:32:54+0200</time>
      </trkpt>
      <trkpt lat="45.58756" lon="2.91782">
        <ele>1052.061378</ele>
        <time>2021-07-07T11:32:56+0200</time>
      </trkpt>
      <trkpt lat="45.58748" lon="2.91788">
        <ele>1052.360783</ele>
        <time>2021-07-07T11:32:58+0200</time>
      </trkpt>
      <trkpt lat="45.58741" lon="2.91793">
        <ele>1052.501377</ele>
        <time>2021-07-07T11:33:00+0200</time>
      </trkpt>
      <trkpt lat="45.58737" lon="2.91796">
        <ele>1052.55861</ele>
        <time>2021-07-07T11:33:01+0200</time>
      </trkpt>
      <trkpt lat="45.58728" lon="2.91801">
        <ele>1052.49649</ele>
        <time>2021-07-07T11:33:03+0200</time>
      </trkpt>
      <trkpt lat="45.58724" lon="2.91804">
        <ele>1052.815747</ele>
        <time>2021-07-07T11:33:04+0200</time>
      </trkpt>
      <trkpt lat="45.58719" lon="2.91806">
        <ele>1052.727357</ele>
        <time>2021-07-07T11:33:05+0200</time>
      </trkpt>
      <trkpt lat="45.58715" lon="2.91809">
        <ele>1052.377249</ele>
        <time>2021-07-07T11:33:06+0200</time>
      </trkpt>
      <trkpt lat="45.58711" lon="2.91811">
        <ele>1052.290854</ele>
        <time>2021-07-07T11:33:07+0200</time>
      </trkpt>
      <trkpt lat="45.58706" lon="2.91812">
        <ele>1052.465616</ele>
        <time>2021-07-07T11:33:08+0200</time>
      </trkpt>
      <trkpt lat="45.58701" lon="2.91815">
        <ele>1052.242382</ele>
        <time>2021-07-07T11:33:09+0200</time>
      </trkpt>
      <trkpt lat="45.58693" lon="2.9182">
        <ele>1052.456274</ele>
        <time>2021-07-07T11:33:11+0200</time>
      </trkpt>
      <trkpt lat="45.58684" lon="2.91824">
        <ele>1052.498817</ele>
        <time>2021-07-07T11:33:13+0200</time>
      </trkpt>
      <trkpt lat="45.58679" lon="2.91827">
        <ele>1052.341446</ele>
        <time>2021-07-07T11:33:14+0200</time>
      </trkpt>
      <trkpt lat="45.58674" lon="2.91829">
        <ele>1052.872324</ele>
        <time>2021-07-07T11:33:15+0200</time>
      </trkpt>
      <trkpt lat="45.5867" lon="2.91831">
        <ele>1052.773124</ele>
        <time>2021-07-07T11:33:16+0200</time>
      </trkpt>
      <trkpt lat="45.58665" lon="2.91833">
        <ele>1052.744509</ele>
        <time>2021-07-07T11:33:17+0200</time>
      </trkpt>
      <trkpt lat="45.5866" lon="2.91836">
        <ele>1052.685183</ele>
        <time>2021-07-07T11:33:18+0200</time>
      </trkpt>
      <trkpt lat="45.58656" lon="2.91838">
        <ele>1052.545933</ele>
        <time>2021-07-07T11:33:19+0200</time>
      </trkpt>
      <trkpt lat="45.58651" lon="2.91841">
        <ele>1052.374112</ele>
        <time>2021-07-07T11:33:20+0200</time>
      </trkpt>
      <trkpt lat="45.58647" lon="2.91843">
        <ele>1052.388313</ele>
        <time>2021-07-07T11:33:21+0200</time>
      </trkpt>
      <trkpt lat="45.58642" lon="2.91845">
        <ele>1052.597192</ele>
        <time>2021-07-07T11:33:22+0200</time>
      </trkpt>
      <trkpt lat="45.58638" lon="2.91848">
        <ele>1052.772261</ele>
        <time>2021-07-07T11:33:23+0200</time>
      </trkpt>
      <trkpt lat="45.58633" lon="2.91851">
        <ele>1052.582753</ele>
        <time>2021-07-07T11:33:24+0200</time>
      </trkpt>
      <trkpt lat="45.58629" lon="2.91852">
        <ele>1052.50525</ele>
        <time>2021-07-07T11:33:25+0200</time>
      </trkpt>
      <trkpt lat="45.58624" lon="2.91854">
        <ele>1052.363558</ele>
        <time>2021-07-07T11:33:26+0200</time>
      </trkpt>
      <trkpt lat="45.5862" lon="2.91857">
        <ele>1052.629878</ele>
        <time>2021-07-07T11:33:27+0200</time>
      </trkpt>
      <trkpt lat="45.58611" lon="2.91861">
        <ele>1052.966835</ele>
        <time>2021-07-07T11:33:29+0200</time>
      </trkpt>
      <trkpt lat="45.58606" lon="2.91864">
        <ele>1053.095978</ele>
        <time>2021-07-07T11:33:30+0200</time>
      </trkpt>
      <trkpt lat="45.58602" lon="2.91865">
        <ele>1053.44975</ele>
        <time>2021-07-07T11:33:31+0200</time>
      </trkpt>
      <trkpt lat="45.58593" lon="2.91869">
        <ele>1053.42829</ele>
        <time>2021-07-07T11:33:33+0200</time>
      </trkpt>
      <trkpt lat="45.58588" lon="2.9187">
        <ele>1053.60011</ele>
        <time>2021-07-07T11:33:34+0200</time>
      </trkpt>
      <trkpt lat="45.58583" lon="2.91872">
        <ele>1053.605717</ele>
        <time>2021-07-07T11:33:35+0200</time>
      </trkpt>
      <trkpt lat="45.58579" lon="2.91875">
        <ele>1053.736151</ele>
        <time>2021-07-07T11:33:36+0200</time>
      </trkpt>
      <trkpt lat="45.58574" lon="2.91877">
        <ele>1053.704036</ele>
        <time>2021-07-07T11:33:37+0200</time>
      </trkpt>
      <trkpt lat="45.58569" lon="2.91879">
        <ele>1053.673927</ele>
        <time>2021-07-07T11:33:38+0200</time>
      </trkpt>
      <trkpt lat="45.58565" lon="2.91881">
        <ele>1053.827207</ele>
        <time>2021-07-07T11:33:39+0200</time>
      </trkpt>
      <trkpt lat="45.5856" lon="2.91882">
        <ele>1053.586128</ele>
        <time>2021-07-07T11:33:40+0200</time>
      </trkpt>
      <trkpt lat="45.58555" lon="2.91884">
        <ele>1053.945297</ele>
        <time>2021-07-07T11:33:41+0200</time>
      </trkpt>
      <trkpt lat="45.58547" lon="2.91887">
        <ele>1054.494015</ele>
        <time>2021-07-07T11:33:43+0200</time>
      </trkpt>
      <trkpt lat="45.58538" lon="2.91887">
        <ele>1055.065542</ele>
        <time>2021-07-07T11:33:45+0200</time>
      </trkpt>
      <trkpt lat="45.58533" lon="2.91885">
        <ele>1055.268538</ele>
        <time>2021-07-07T11:33:46+0200</time>
      </trkpt>
      <trkpt lat="45.58525" lon="2.91883">
        <ele>1055.818777</ele>
        <time>2021-07-07T11:33:48+0200</time>
      </trkpt>
      <trkpt lat="45.5852" lon="2.91879">
        <ele>1055.693871</ele>
        <time>2021-07-07T11:33:49+0200</time>
      </trkpt>
      <trkpt lat="45.58516" lon="2.91876">
        <ele>1055.957137</ele>
        <time>2021-07-07T11:33:50+0200</time>
      </trkpt>
      <trkpt lat="45.58512" lon="2.91873">
        <ele>1056.339032</ele>
        <time>2021-07-07T11:33:51+0200</time>
      </trkpt>
      <trkpt lat="45.58505" lon="2.91872">
        <ele>1056.380873</ele>
        <time>2021-07-07T11:33:53+0200</time>
      </trkpt>
      <trkpt lat="45.58497" lon="2.91869">
        <ele>1056.22646</ele>
        <time>2021-07-07T11:33:55+0200</time>
      </trkpt>
      <trkpt lat="45.58489" lon="2.91865">
        <ele>1056.109834</ele>
        <time>2021-07-07T11:33:57+0200</time>
      </trkpt>
      <trkpt lat="45.58484" lon="2.91863">
        <ele>1055.902645</ele>
        <time>2021-07-07T11:33:58+0200</time>
      </trkpt>
      <trkpt lat="45.58479" lon="2.91861">
        <ele>1055.548998</ele>
        <time>2021-07-07T11:33:59+0200</time>
      </trkpt>
      <trkpt lat="45.58474" lon="2.91858">
        <ele>1055.430156</ele>
        <time>2021-07-07T11:34:00+0200</time>
      </trkpt>
      <trkpt lat="45.5847" lon="2.91856">
        <ele>1055.392775</ele>
        <time>2021-07-07T11:34:01+0200</time>
      </trkpt>
      <trkpt lat="45.58465" lon="2.91854">
        <ele>1055.20583</ele>
        <time>2021-07-07T11:34:02+0200</time>
      </trkpt>
      <trkpt lat="45.58457" lon="2.9185">
        <ele>1055.1395</ele>
        <time>2021-07-07T11:34:04+0200</time>
      </trkpt>
      <trkpt lat="45.58449" lon="2.91847">
        <ele>1054.843206</ele>
        <time>2021-07-07T11:34:06+0200</time>
      </trkpt>
      <trkpt lat="45.58442" lon="2.91845">
        <ele>1054.8578</ele>
        <time>2021-07-07T11:34:08+0200</time>
      </trkpt>
      <trkpt lat="45.58436" lon="2.91842">
        <ele>1054.79049</ele>
        <time>2021-07-07T11:34:10+0200</time>
      </trkpt>
      <trkpt lat="45.58431" lon="2.91839">
        <ele>1054.955947</ele>
        <time>2021-07-07T11:34:12+0200</time>
      </trkpt>
      <trkpt lat="45.58425" lon="2.91836">
        <ele>1055.182507</ele>
        <time>2021-07-07T11:34:14+0200</time>
      </trkpt>
      <trkpt lat="45.58418" lon="2.91833">
        <ele>1055.219959</ele>
        <time>2021-07-07T11:34:16+0200</time>
      </trkpt>
      <trkpt lat="45.58412" lon="2.91831">
        <ele>1055.234817</ele>
        <time>2021-07-07T11:34:18+0200</time>
      </trkpt>
      <trkpt lat="45.58405" lon="2.91827">
        <ele>1055.173187</ele>
        <time>2021-07-07T11:34:20+0200</time>
      </trkpt>
      <trkpt lat="45.58399" lon="2.91825">
        <ele>1054.903855</ele>
        <time>2021-07-07T11:34:22+0200</time>
      </trkpt>
      <trkpt lat="45.58391" lon="2.91822">
        <ele>1054.719165</ele>
        <time>2021-07-07T11:34:24+0200</time>
      </trkpt>
      <trkpt lat="45.58385" lon="2.91818">
        <ele>1054.476693</ele>
        <time>2021-07-07T11:34:26+0200</time>
      </trkpt>
      <trkpt lat="45.58379" lon="2.91816">
        <ele>1054.067612</ele>
        <time>2021-07-07T11:34:28+0200</time>
      </trkpt>
      <trkpt lat="45.58372" lon="2.91812">
        <ele>1053.964967</ele>
        <time>2021-07-07T11:34:30+0200</time>
      </trkpt>
      <trkpt lat="45.58366" lon="2.9181">
        <ele>1053.904447</ele>
        <time>2021-07-07T11:34:32+0200</time>
      </trkpt>
      <trkpt lat="45.5836" lon="2.91807">
        <ele>1053.69921</ele>
        <time>2021-07-07T11:34:34+0200</time>
      </trkpt>
      <trkpt lat="45.58354" lon="2.91803">
        <ele>1053.485797</ele>
        <time>2021-07-07T11:34:36+0200</time>
      </trkpt>
      <trkpt lat="45.58346" lon="2.918">
        <ele>1053.345288</ele>
        <time>2021-07-07T11:34:38+0200</time>
      </trkpt>
      <trkpt lat="45.58339" lon="2.91796">
        <ele>1052.976069</ele>
        <time>2021-07-07T11:34:40+0200</time>
      </trkpt>
      <trkpt lat="45.58332" lon="2.91789">
        <ele>1052.940852</ele>
        <time>2021-07-07T11:34:42+0200</time>
      </trkpt>
      <trkpt lat="45.58326" lon="2.91784">
        <ele>1052.440453</ele>
        <time>2021-07-07T11:34:44+0200</time>
      </trkpt>
      <trkpt lat="45.58319" lon="2.91779">
        <ele>1052.246765</ele>
        <time>2021-07-07T11:34:46+0200</time>
      </trkpt>
      <trkpt lat="45.58313" lon="2.91772">
        <ele>1052.009965</ele>
        <time>2021-07-07T11:34:48+0200</time>
      </trkpt>
      <trkpt lat="45.58305" lon="2.91766">
        <ele>1051.101607</ele>
        <time>2021-07-07T11:34:50+0200</time>
      </trkpt>
      <trkpt lat="45.583" lon="2.91762">
        <ele>1050.331338</ele>
        <time>2021-07-07T11:34:51+0200</time>
      </trkpt>
      <trkpt lat="45.58294" lon="2.91758">
        <ele>1049.695988</ele>
        <time>2021-07-07T11:34:52+0200</time>
      </trkpt>
      <trkpt lat="45.58289" lon="2.91757">
        <ele>1048.928667</ele>
        <time>2021-07-07T11:34:53+0200</time>
      </trkpt>
      <trkpt lat="45.58283" lon="2.91759">
        <ele>1048.595515</ele>
        <time>2021-07-07T11:34:54+0200</time>
      </trkpt>
      <trkpt lat="45.58278" lon="2.91763">
        <ele>1048.476978</ele>
        <time>2021-07-07T11:34:55+0200</time>
      </trkpt>
      <trkpt lat="45.58274" lon="2.91768">
        <ele>1047.907757</ele>
        <time>2021-07-07T11:34:56+0200</time>
      </trkpt>
      <trkpt lat="45.5827" lon="2.91771">
        <ele>1047.57233</ele>
        <time>2021-07-07T11:34:57+0200</time>
      </trkpt>
      <trkpt lat="45.58266" lon="2.91774">
        <ele>1046.9747</ele>
        <time>2021-07-07T11:34:58+0200</time>
      </trkpt>
      <trkpt lat="45.5826" lon="2.91777">
        <ele>1046.712346</ele>
        <time>2021-07-07T11:34:59+0200</time>
      </trkpt>
      <trkpt lat="45.58255" lon="2.91781">
        <ele>1046.226852</ele>
        <time>2021-07-07T11:35:00+0200</time>
      </trkpt>
      <trkpt lat="45.58249" lon="2.91784">
        <ele>1045.517516</ele>
        <time>2021-07-07T11:35:01+0200</time>
      </trkpt>
      <trkpt lat="45.58242" lon="2.91786">
        <ele>1044.563476</ele>
        <time>2021-07-07T11:35:02+0200</time>
      </trkpt>
      <trkpt lat="45.58235" lon="2.9179">
        <ele>1043.586445</ele>
        <time>2021-07-07T11:35:03+0200</time>
      </trkpt>
      <trkpt lat="45.58228" lon="2.91795">
        <ele>1043.185527</ele>
        <time>2021-07-07T11:35:04+0200</time>
      </trkpt>
      <trkpt lat="45.58221" lon="2.918">
        <ele>1042.591977</ele>
        <time>2021-07-07T11:35:05+0200</time>
      </trkpt>
      <trkpt lat="45.58213" lon="2.91805">
        <ele>1041.476918</ele>
        <time>2021-07-07T11:35:06+0200</time>
      </trkpt>
      <trkpt lat="45.58205" lon="2.91809">
        <ele>1040.511217</ele>
        <time>2021-07-07T11:35:07+0200</time>
      </trkpt>
      <trkpt lat="45.58196" lon="2.91813">
        <ele>1040.072829</ele>
        <time>2021-07-07T11:35:08+0200</time>
      </trkpt>
      <trkpt lat="45.58188" lon="2.91818">
        <ele>1039.271891</ele>
        <time>2021-07-07T11:35:09+0200</time>
      </trkpt>
      <trkpt lat="45.5818" lon="2.91822">
        <ele>1038.050726</ele>
        <time>2021-07-07T11:35:10+0200</time>
      </trkpt>
      <trkpt lat="45.58174" lon="2.91824">
        <ele>1037.264813</ele>
        <time>2021-07-07T11:35:11+0200</time>
      </trkpt>
      <trkpt lat="45.58169" lon="2.91829">
        <ele>1036.351361</ele>
        <time>2021-07-07T11:35:12+0200</time>
      </trkpt>
      <trkpt lat="45.58164" lon="2.9183">
        <ele>1036.122261</ele>
        <time>2021-07-07T11:35:13+0200</time>
      </trkpt>
      <trkpt lat="45.58155" lon="2.91835">
        <ele>1034.656437</ele>
        <time>2021-07-07T11:35:15+0200</time>
      </trkpt>
      <trkpt lat="45.5815" lon="2.91837">
        <ele>1034.236233</ele>
        <time>2021-07-07T11:35:16+0200</time>
      </trkpt>
      <trkpt lat="45.58145" lon="2.91839">
        <ele>1034.283472</ele>
        <time>2021-07-07T11:35:17+0200</time>
      </trkpt>
      <trkpt lat="45.58137" lon="2.9184">
        <ele>1033.824836</ele>
        <time>2021-07-07T11:35:18+0200</time>
      </trkpt>
      <trkpt lat="45.58129" lon="2.91841">
        <ele>1032.919559</ele>
        <time>2021-07-07T11:35:19+0200</time>
      </trkpt>
      <trkpt lat="45.5812" lon="2.9184">
        <ele>1031.51575</ele>
        <time>2021-07-07T11:35:20+0200</time>
      </trkpt>
      <trkpt lat="45.58114" lon="2.91841">
        <ele>1030.23579</ele>
        <time>2021-07-07T11:35:21+0200</time>
      </trkpt>
      <trkpt lat="45.58108" lon="2.91842">
        <ele>1028.788255</ele>
        <time>2021-07-07T11:35:22+0200</time>
      </trkpt>
      <trkpt lat="45.58099" lon="2.91841">
        <ele>1027.681045</ele>
        <time>2021-07-07T11:35:23+0200</time>
      </trkpt>
      <trkpt lat="45.58092" lon="2.91845">
        <ele>1026.209064</ele>
        <time>2021-07-07T11:35:24+0200</time>
      </trkpt>
      <trkpt lat="45.58085" lon="2.91852">
        <ele>1024.77637</ele>
        <time>2021-07-07T11:35:25+0200</time>
      </trkpt>
      <trkpt lat="45.58079" lon="2.91856">
        <ele>1023.709722</ele>
        <time>2021-07-07T11:35:26+0200</time>
      </trkpt>
      <trkpt lat="45.5807" lon="2.91853">
        <ele>1021.441664</ele>
        <time>2021-07-07T11:35:28+0200</time>
      </trkpt>
      <trkpt lat="45.58066" lon="2.91851">
        <ele>1020.236022</ele>
        <time>2021-07-07T11:35:29+0200</time>
      </trkpt>
      <trkpt lat="45.58062" lon="2.91847">
        <ele>1018.460696</ele>
        <time>2021-07-07T11:35:30+0200</time>
      </trkpt>
      <trkpt lat="45.5806" lon="2.91841">
        <ele>1016.275027</ele>
        <time>2021-07-07T11:35:31+0200</time>
      </trkpt>
      <trkpt lat="45.58058" lon="2.91832">
        <ele>1014.579319</ele>
        <time>2021-07-07T11:35:32+0200</time>
      </trkpt>
      <trkpt lat="45.58056" lon="2.91822">
        <ele>1013.255774</ele>
        <time>2021-07-07T11:35:33+0200</time>
      </trkpt>
      <trkpt lat="45.58053" lon="2.91817">
        <ele>1011.607058</ele>
        <time>2021-07-07T11:35:34+0200</time>
      </trkpt>
      <trkpt lat="45.58049" lon="2.91813">
        <ele>1010.729876</ele>
        <time>2021-07-07T11:35:35+0200</time>
      </trkpt>
      <trkpt lat="45.58043" lon="2.9181">
        <ele>1009.19272</ele>
        <time>2021-07-07T11:35:36+0200</time>
      </trkpt>
      <trkpt lat="45.58036" lon="2.91804">
        <ele>1007.660359</ele>
        <time>2021-07-07T11:35:37+0200</time>
      </trkpt>
      <trkpt lat="45.58032" lon="2.91796">
        <ele>1006.13517</ele>
        <time>2021-07-07T11:35:38+0200</time>
      </trkpt>
      <trkpt lat="45.58031" lon="2.91788">
        <ele>1003.98199</ele>
        <time>2021-07-07T11:35:39+0200</time>
      </trkpt>
      <trkpt lat="45.58029" lon="2.9178">
        <ele>1002.182641</ele>
        <time>2021-07-07T11:35:40+0200</time>
      </trkpt>
      <trkpt lat="45.58025" lon="2.91774">
        <ele>1000.579421</ele>
        <time>2021-07-07T11:35:41+0200</time>
      </trkpt>
      <trkpt lat="45.58019" lon="2.91771">
        <ele>999.403177</ele>
        <time>2021-07-07T11:35:42+0200</time>
      </trkpt>
      <trkpt lat="45.58012" lon="2.91771">
        <ele>998.354719</ele>
        <time>2021-07-07T11:35:43+0200</time>
      </trkpt>
      <trkpt lat="45.58005" lon="2.91774">
        <ele>995.96749</ele>
        <time>2021-07-07T11:35:44+0200</time>
      </trkpt>
      <trkpt lat="45.57995" lon="2.91778">
        <ele>994.462693</ele>
        <time>2021-07-07T11:35:45+0200</time>
      </trkpt>
      <trkpt lat="45.57987" lon="2.91781">
        <ele>992.458453</ele>
        <time>2021-07-07T11:35:46+0200</time>
      </trkpt>
      <trkpt lat="45.5798" lon="2.91781">
        <ele>990.831993</ele>
        <time>2021-07-07T11:35:47+0200</time>
      </trkpt>
      <trkpt lat="45.57973" lon="2.91779">
        <ele>989.348654</ele>
        <time>2021-07-07T11:35:48+0200</time>
      </trkpt>
      <trkpt lat="45.57968" lon="2.91776">
        <ele>987.646117</ele>
        <time>2021-07-07T11:35:49+0200</time>
      </trkpt>
      <trkpt lat="45.57965" lon="2.91771">
        <ele>985.836344</ele>
        <time>2021-07-07T11:35:50+0200</time>
      </trkpt>
      <trkpt lat="45.5796" lon="2.91764">
        <ele>983.536178</ele>
        <time>2021-07-07T11:35:52+0200</time>
      </trkpt>
      <trkpt lat="45.57959" lon="2.91757">
        <ele>982.535124</ele>
        <time>2021-07-07T11:35:54+0200</time>
      </trkpt>
      <trkpt lat="45.57955" lon="2.91751">
        <ele>982.355663</ele>
        <time>2021-07-07T11:35:56+0200</time>
      </trkpt>
      <trkpt lat="45.57949" lon="2.91745">
        <ele>981.002477</ele>
        <time>2021-07-07T11:35:58+0200</time>
      </trkpt>
      <trkpt lat="45.57944" lon="2.91739">
        <ele>979.349671</ele>
        <time>2021-07-07T11:36:00+0200</time>
      </trkpt>
      <trkpt lat="45.57939" lon="2.91737">
        <ele>977.531458</ele>
        <time>2021-07-07T11:36:02+0200</time>
      </trkpt>
      <trkpt lat="45.57935" lon="2.91734">
        <ele>976.448254</ele>
        <time>2021-07-07T11:36:04+0200</time>
      </trkpt>
      <trkpt lat="45.57932" lon="2.91728">
        <ele>975.676837</ele>
        <time>2021-07-07T11:36:07+0200</time>
      </trkpt>
      <trkpt lat="45.57928" lon="2.91724">
        <ele>974.440863</ele>
        <time>2021-07-07T11:36:11+0200</time>
      </trkpt>
      <trkpt lat="45.57926" lon="2.91718">
        <ele>973.566669</ele>
        <time>2021-07-07T11:36:19+0200</time>
      </trkpt>
      <trkpt lat="45.57921" lon="2.91714">
        <ele>972.914292</ele>
        <time>2021-07-07T11:36:21+0200</time>
      </trkpt>
      <trkpt lat="45.57916" lon="2.91709">
        <ele>972.297952</ele>
        <time>2021-07-07T11:36:30+0200</time>
      </trkpt>
      <trkpt lat="45.57916" lon="2.91699">
        <ele>970.718449</ele>
        <time>2021-07-07T11:36:32+0200</time>
      </trkpt>
      <trkpt lat="45.57918" lon="2.91692">
        <ele>969.880023</ele>
        <time>2021-07-07T11:36:33+0200</time>
      </trkpt>
      <trkpt lat="45.57917" lon="2.91683">
        <ele>968.800895</ele>
        <time>2021-07-07T11:36:34+0200</time>
      </trkpt>
      <trkpt lat="45.57917" lon="2.91673">
        <ele>968.294975</ele>
        <time>2021-07-07T11:36:35+0200</time>
      </trkpt>
      <trkpt lat="45.57917" lon="2.91666">
        <ele>967.781681</ele>
        <time>2021-07-07T11:36:36+0200</time>
      </trkpt>
      <trkpt lat="45.57914" lon="2.91656">
        <ele>965.433518</ele>
        <time>2021-07-07T11:36:38+0200</time>
      </trkpt>
      <trkpt lat="45.5791" lon="2.91647">
        <ele>963.880848</ele>
        <time>2021-07-07T11:36:40+0200</time>
      </trkpt>
      <trkpt lat="45.57906" lon="2.91642">
        <ele>962.511541</ele>
        <time>2021-07-07T11:36:42+0200</time>
      </trkpt>
      <trkpt lat="45.57902" lon="2.9164">
        <ele>961.621505</ele>
        <time>2021-07-07T11:36:45+0200</time>
      </trkpt>
      <trkpt lat="45.57896" lon="2.91643">
        <ele>961.56291</ele>
        <time>2021-07-07T11:36:48+0200</time>
      </trkpt>
      <trkpt lat="45.57889" lon="2.91647">
        <ele>961.936463</ele>
        <time>2021-07-07T11:36:50+0200</time>
      </trkpt>
      <trkpt lat="45.57881" lon="2.91646">
        <ele>960.309269</ele>
        <time>2021-07-07T11:36:52+0200</time>
      </trkpt>
      <trkpt lat="45.57875" lon="2.91637">
        <ele>959.366661</ele>
        <time>2021-07-07T11:36:54+0200</time>
      </trkpt>
      <trkpt lat="45.57873" lon="2.9163">
        <ele>959.46766</ele>
        <time>2021-07-07T11:36:55+0200</time>
      </trkpt>
      <trkpt lat="45.57874" lon="2.9162">
        <ele>959.070629</ele>
        <time>2021-07-07T11:36:56+0200</time>
      </trkpt>
      <trkpt lat="45.57875" lon="2.9161">
        <ele>958.337367</ele>
        <time>2021-07-07T11:36:57+0200</time>
      </trkpt>
      <trkpt lat="45.57874" lon="2.91601">
        <ele>957.490789</ele>
        <time>2021-07-07T11:36:58+0200</time>
      </trkpt>
      <trkpt lat="45.57871" lon="2.91588">
        <ele>956.2854</ele>
        <time>2021-07-07T11:36:59+0200</time>
      </trkpt>
      <trkpt lat="45.57867" lon="2.91575">
        <ele>955.329169</ele>
        <time>2021-07-07T11:37:00+0200</time>
      </trkpt>
      <trkpt lat="45.57863" lon="2.91564">
        <ele>953.641405</ele>
        <time>2021-07-07T11:37:01+0200</time>
      </trkpt>
      <trkpt lat="45.57863" lon="2.91553">
        <ele>951.818751</ele>
        <time>2021-07-07T11:37:02+0200</time>
      </trkpt>
      <trkpt lat="45.57864" lon="2.91542">
        <ele>950.435234</ele>
        <time>2021-07-07T11:37:03+0200</time>
      </trkpt>
      <trkpt lat="45.57863" lon="2.91532">
        <ele>948.588145</ele>
        <time>2021-07-07T11:37:04+0200</time>
      </trkpt>
      <trkpt lat="45.57859" lon="2.91523">
        <ele>946.940715</ele>
        <time>2021-07-07T11:37:05+0200</time>
      </trkpt>
      <trkpt lat="45.57854" lon="2.91517">
        <ele>945.438077</ele>
        <time>2021-07-07T11:37:06+0200</time>
      </trkpt>
      <trkpt lat="45.5785" lon="2.91511">
        <ele>943.725177</ele>
        <time>2021-07-07T11:37:07+0200</time>
      </trkpt>
      <trkpt lat="45.57846" lon="2.91506">
        <ele>941.892556</ele>
        <time>2021-07-07T11:37:08+0200</time>
      </trkpt>
      <trkpt lat="45.57845" lon="2.915">
        <ele>940.699223</ele>
        <time>2021-07-07T11:37:09+0200</time>
      </trkpt>
      <trkpt lat="45.57842" lon="2.91489">
        <ele>939.824506</ele>
        <time>2021-07-07T11:37:10+0200</time>
      </trkpt>
      <trkpt lat="45.57838" lon="2.91476">
        <ele>938.547894</ele>
        <time>2021-07-07T11:37:11+0200</time>
      </trkpt>
      <trkpt lat="45.57832" lon="2.91464">
        <ele>936.5102</ele>
        <time>2021-07-07T11:37:12+0200</time>
      </trkpt>
      <trkpt lat="45.57827" lon="2.91454">
        <ele>934.77492</ele>
        <time>2021-07-07T11:37:13+0200</time>
      </trkpt>
      <trkpt lat="45.57822" lon="2.91452">
        <ele>932.387618</ele>
        <time>2021-07-07T11:37:14+0200</time>
      </trkpt>
      <trkpt lat="45.57815" lon="2.91448">
        <ele>930.204417</ele>
        <time>2021-07-07T11:37:15+0200</time>
      </trkpt>
      <trkpt lat="45.57808" lon="2.91444">
        <ele>929.481287</ele>
        <time>2021-07-07T11:37:16+0200</time>
      </trkpt>
      <trkpt lat="45.57801" lon="2.91443">
        <ele>928.27858</ele>
        <time>2021-07-07T11:37:17+0200</time>
      </trkpt>
      <trkpt lat="45.5779" lon="2.91442">
        <ele>927.586101</ele>
        <time>2021-07-07T11:37:19+0200</time>
      </trkpt>
      <trkpt lat="45.57784" lon="2.9144">
        <ele>926.981382</ele>
        <time>2021-07-07T11:37:20+0200</time>
      </trkpt>
      <trkpt lat="45.57778" lon="2.9144">
        <ele>926.748189</ele>
        <time>2021-07-07T11:37:21+0200</time>
      </trkpt>
      <trkpt lat="45.57771" lon="2.91439">
        <ele>926.22775</ele>
        <time>2021-07-07T11:37:22+0200</time>
      </trkpt>
      <trkpt lat="45.57766" lon="2.91438">
        <ele>925.465216</ele>
        <time>2021-07-07T11:37:23+0200</time>
      </trkpt>
      <trkpt lat="45.57758" lon="2.9144">
        <ele>923.728654</ele>
        <time>2021-07-07T11:37:25+0200</time>
      </trkpt>
      <trkpt lat="45.57756" lon="2.91452">
        <ele>921.916586</ele>
        <time>2021-07-07T11:37:28+0200</time>
      </trkpt>
      <trkpt lat="45.5775" lon="2.91459">
        <ele>922.705368</ele>
        <time>2021-07-07T11:37:30+0200</time>
      </trkpt>
      <trkpt lat="45.57747" lon="2.91466">
        <ele>923.109931</ele>
        <time>2021-07-07T11:37:31+0200</time>
      </trkpt>
      <trkpt lat="45.57744" lon="2.91474">
        <ele>922.92553</ele>
        <time>2021-07-07T11:37:32+0200</time>
      </trkpt>
      <trkpt lat="45.57742" lon="2.91483">
        <ele>922.99217</ele>
        <time>2021-07-07T11:37:33+0200</time>
      </trkpt>
      <trkpt lat="45.57738" lon="2.91492">
        <ele>922.593396</ele>
        <time>2021-07-07T11:37:34+0200</time>
      </trkpt>
      <trkpt lat="45.57735" lon="2.91502">
        <ele>921.787944</ele>
        <time>2021-07-07T11:37:35+0200</time>
      </trkpt>
      <trkpt lat="45.57733" lon="2.9151">
        <ele>921.613492</ele>
        <time>2021-07-07T11:37:36+0200</time>
      </trkpt>
      <trkpt lat="45.5773" lon="2.9152">
        <ele>921.404656</ele>
        <time>2021-07-07T11:37:37+0200</time>
      </trkpt>
      <trkpt lat="45.57729" lon="2.91528">
        <ele>921.274347</ele>
        <time>2021-07-07T11:37:38+0200</time>
      </trkpt>
      <trkpt lat="45.57728" lon="2.91535">
        <ele>920.790069</ele>
        <time>2021-07-07T11:37:39+0200</time>
      </trkpt>
      <trkpt lat="45.57725" lon="2.9154">
        <ele>920.786452</ele>
        <time>2021-07-07T11:37:40+0200</time>
      </trkpt>
      <trkpt lat="45.57721" lon="2.91542">
        <ele>920.939035</ele>
        <time>2021-07-07T11:37:41+0200</time>
      </trkpt>
      <trkpt lat="45.57717" lon="2.91536">
        <ele>919.56483</ele>
        <time>2021-07-07T11:37:43+0200</time>
      </trkpt>
      <trkpt lat="45.57717" lon="2.91526">
        <ele>916.613198</ele>
        <time>2021-07-07T11:37:46+0200</time>
      </trkpt>
      <trkpt lat="45.57715" lon="2.91513">
        <ele>915.325082</ele>
        <time>2021-07-07T11:37:48+0200</time>
      </trkpt>
      <trkpt lat="45.57715" lon="2.91506">
        <ele>913.959889</ele>
        <time>2021-07-07T11:37:49+0200</time>
      </trkpt>
      <trkpt lat="45.57713" lon="2.91497">
        <ele>913.05029</ele>
        <time>2021-07-07T11:37:50+0200</time>
      </trkpt>
      <trkpt lat="45.57716" lon="2.91491">
        <ele>912.495429</ele>
        <time>2021-07-07T11:37:51+0200</time>
      </trkpt>
      <trkpt lat="45.57715" lon="2.91483">
        <ele>911.654895</ele>
        <time>2021-07-07T11:37:52+0200</time>
      </trkpt>
      <trkpt lat="45.57716" lon="2.91475">
        <ele>911.426566</ele>
        <time>2021-07-07T11:37:53+0200</time>
      </trkpt>
      <trkpt lat="45.57717" lon="2.91468">
        <ele>911.212012</ele>
        <time>2021-07-07T11:37:54+0200</time>
      </trkpt>
      <trkpt lat="45.5772" lon="2.91458">
        <ele>911.146037</ele>
        <time>2021-07-07T11:37:56+0200</time>
      </trkpt>
      <trkpt lat="45.57722" lon="2.91447">
        <ele>910.808874</ele>
        <time>2021-07-07T11:37:58+0200</time>
      </trkpt>
      <trkpt lat="45.57723" lon="2.91435">
        <ele>911.024118</ele>
        <time>2021-07-07T11:38:00+0200</time>
      </trkpt>
      <trkpt lat="45.57722" lon="2.91423">
        <ele>910.221831</ele>
        <time>2021-07-07T11:38:02+0200</time>
      </trkpt>
      <trkpt lat="45.57722" lon="2.91416">
        <ele>909.633313</ele>
        <time>2021-07-07T11:38:03+0200</time>
      </trkpt>
      <trkpt lat="45.57722" lon="2.91409">
        <ele>909.095912</ele>
        <time>2021-07-07T11:38:04+0200</time>
      </trkpt>
      <trkpt lat="45.57723" lon="2.91402">
        <ele>908.219881</ele>
        <time>2021-07-07T11:38:05+0200</time>
      </trkpt>
      <trkpt lat="45.57723" lon="2.91394">
        <ele>907.484822</ele>
        <time>2021-07-07T11:38:06+0200</time>
      </trkpt>
      <trkpt lat="45.57725" lon="2.91381">
        <ele>907.298908</ele>
        <time>2021-07-07T11:38:08+0200</time>
      </trkpt>
      <trkpt lat="45.57724" lon="2.91373">
        <ele>907.369493</ele>
        <time>2021-07-07T11:38:09+0200</time>
      </trkpt>
      <trkpt lat="45.57723" lon="2.91365">
        <ele>906.665936</ele>
        <time>2021-07-07T11:38:10+0200</time>
      </trkpt>
      <trkpt lat="45.57722" lon="2.91357">
        <ele>905.931881</ele>
        <time>2021-07-07T11:38:11+0200</time>
      </trkpt>
      <trkpt lat="45.57722" lon="2.91349">
        <ele>904.66023</ele>
        <time>2021-07-07T11:38:12+0200</time>
      </trkpt>
      <trkpt lat="45.57723" lon="2.91341">
        <ele>903.397953</ele>
        <time>2021-07-07T11:38:13+0200</time>
      </trkpt>
      <trkpt lat="45.57726" lon="2.91332">
        <ele>902.210528</ele>
        <time>2021-07-07T11:38:14+0200</time>
      </trkpt>
      <trkpt lat="45.57731" lon="2.91323">
        <ele>901.433663</ele>
        <time>2021-07-07T11:38:15+0200</time>
      </trkpt>
      <trkpt lat="45.57734" lon="2.91315">
        <ele>900.834406</ele>
        <time>2021-07-07T11:38:16+0200</time>
      </trkpt>
      <trkpt lat="45.57736" lon="2.91307">
        <ele>900.41407</ele>
        <time>2021-07-07T11:38:17+0200</time>
      </trkpt>
      <trkpt lat="45.57737" lon="2.91301">
        <ele>899.491696</ele>
        <time>2021-07-07T11:38:18+0200</time>
      </trkpt>
      <trkpt lat="45.57738" lon="2.91294">
        <ele>899.446221</ele>
        <time>2021-07-07T11:38:19+0200</time>
      </trkpt>
      <trkpt lat="45.5774" lon="2.91288">
        <ele>899.494585</ele>
        <time>2021-07-07T11:38:20+0200</time>
      </trkpt>
      <trkpt lat="45.57745" lon="2.91281">
        <ele>899.71004</ele>
        <time>2021-07-07T11:38:22+0200</time>
      </trkpt>
      <trkpt lat="45.57751" lon="2.91273">
        <ele>900.145657</ele>
        <time>2021-07-07T11:38:24+0200</time>
      </trkpt>
      <trkpt lat="45.57752" lon="2.91264">
        <ele>900.15272</ele>
        <time>2021-07-07T11:38:26+0200</time>
      </trkpt>
      <trkpt lat="45.5775" lon="2.91253">
        <ele>900.240424</ele>
        <time>2021-07-07T11:38:28+0200</time>
      </trkpt>
      <trkpt lat="45.57749" lon="2.91244">
        <ele>900.676559</ele>
        <time>2021-07-07T11:38:30+0200</time>
      </trkpt>
      <trkpt lat="45.57747" lon="2.91234">
        <ele>900.946905</ele>
        <time>2021-07-07T11:38:32+0200</time>
      </trkpt>
      <trkpt lat="45.57745" lon="2.91224">
        <ele>901.112837</ele>
        <time>2021-07-07T11:38:34+0200</time>
      </trkpt>
      <trkpt lat="45.57744" lon="2.91218">
        <ele>901.64562</ele>
        <time>2021-07-07T11:38:36+0200</time>
      </trkpt>
      <trkpt lat="45.5774" lon="2.9121">
        <ele>902.499209</ele>
        <time>2021-07-07T11:38:39+0200</time>
      </trkpt>
      <trkpt lat="45.57737" lon="2.912">
        <ele>903.390121</ele>
        <time>2021-07-07T11:38:42+0200</time>
      </trkpt>
      <trkpt lat="45.57735" lon="2.91191">
        <ele>903.927682</ele>
        <time>2021-07-07T11:38:44+0200</time>
      </trkpt>
      <trkpt lat="45.57733" lon="2.91182">
        <ele>903.404803</ele>
        <time>2021-07-07T11:38:46+0200</time>
      </trkpt>
      <trkpt lat="45.57731" lon="2.91175">
        <ele>903.519512</ele>
        <time>2021-07-07T11:38:48+0200</time>
      </trkpt>
      <trkpt lat="45.5773" lon="2.91167">
        <ele>904.056428</ele>
        <time>2021-07-07T11:38:50+0200</time>
      </trkpt>
      <trkpt lat="45.57728" lon="2.9116">
        <ele>904.353171</ele>
        <time>2021-07-07T11:38:52+0200</time>
      </trkpt>
      <trkpt lat="45.57726" lon="2.91152">
        <ele>905.281064</ele>
        <time>2021-07-07T11:38:54+0200</time>
      </trkpt>
      <trkpt lat="45.57725" lon="2.91143">
        <ele>905.621918</ele>
        <time>2021-07-07T11:38:56+0200</time>
      </trkpt>
      <trkpt lat="45.57724" lon="2.91135">
        <ele>906.275283</ele>
        <time>2021-07-07T11:38:58+0200</time>
      </trkpt>
      <trkpt lat="45.57721" lon="2.91127">
        <ele>906.926363</ele>
        <time>2021-07-07T11:39:00+0200</time>
      </trkpt>
      <trkpt lat="45.5772" lon="2.91119">
        <ele>907.345318</ele>
        <time>2021-07-07T11:39:02+0200</time>
      </trkpt>
      <trkpt lat="45.57719" lon="2.91112">
        <ele>908.303659</ele>
        <time>2021-07-07T11:39:04+0200</time>
      </trkpt>
      <trkpt lat="45.57717" lon="2.91105">
        <ele>910.223746</ele>
        <time>2021-07-07T11:39:06+0200</time>
      </trkpt>
      <trkpt lat="45.57717" lon="2.91098">
        <ele>910.426202</ele>
        <time>2021-07-07T11:39:08+0200</time>
      </trkpt>
      <trkpt lat="45.57716" lon="2.91089">
        <ele>910.905313</ele>
        <time>2021-07-07T11:39:10+0200</time>
      </trkpt>
      <trkpt lat="45.57716" lon="2.91082">
        <ele>912.122073</ele>
        <time>2021-07-07T11:39:12+0200</time>
      </trkpt>
      <trkpt lat="45.57715" lon="2.91074">
        <ele>913.113328</ele>
        <time>2021-07-07T11:39:14+0200</time>
      </trkpt>
      <trkpt lat="45.57713" lon="2.91068">
        <ele>913.483839</ele>
        <time>2021-07-07T11:39:16+0200</time>
      </trkpt>
      <trkpt lat="45.5771" lon="2.91063">
        <ele>913.519034</ele>
        <time>2021-07-07T11:39:18+0200</time>
      </trkpt>
      <trkpt lat="45.57706" lon="2.91057">
        <ele>912.898282</ele>
        <time>2021-07-07T11:39:20+0200</time>
      </trkpt>
      <trkpt lat="45.57701" lon="2.9105">
        <ele>912.370579</ele>
        <time>2021-07-07T11:39:22+0200</time>
      </trkpt>
      <trkpt lat="45.57696" lon="2.91041">
        <ele>911.339356</ele>
        <time>2021-07-07T11:39:24+0200</time>
      </trkpt>
      <trkpt lat="45.57691" lon="2.91031">
        <ele>911.1298</ele>
        <time>2021-07-07T11:39:26+0200</time>
      </trkpt>
      <trkpt lat="45.57684" lon="2.91024">
        <ele>911.381354</ele>
        <time>2021-07-07T11:39:28+0200</time>
      </trkpt>
      <trkpt lat="45.57677" lon="2.91015">
        <ele>911.062818</ele>
        <time>2021-07-07T11:39:30+0200</time>
      </trkpt>
      <trkpt lat="45.57672" lon="2.91007">
        <ele>910.657816</ele>
        <time>2021-07-07T11:39:32+0200</time>
      </trkpt>
      <trkpt lat="45.57666" lon="2.90999">
        <ele>910.582815</ele>
        <time>2021-07-07T11:39:34+0200</time>
      </trkpt>
      <trkpt lat="45.5766" lon="2.90991">
        <ele>910.482092</ele>
        <time>2021-07-07T11:39:36+0200</time>
      </trkpt>
      <trkpt lat="45.57654" lon="2.90983">
        <ele>911.019683</ele>
        <time>2021-07-07T11:39:38+0200</time>
      </trkpt>
      <trkpt lat="45.57648" lon="2.90975">
        <ele>911.153061</ele>
        <time>2021-07-07T11:39:40+0200</time>
      </trkpt>
      <trkpt lat="45.57643" lon="2.90967">
        <ele>911.125478</ele>
        <time>2021-07-07T11:39:42+0200</time>
      </trkpt>
      <trkpt lat="45.57636" lon="2.90959">
        <ele>911.102377</ele>
        <time>2021-07-07T11:39:44+0200</time>
      </trkpt>
      <trkpt lat="45.5763" lon="2.90953">
        <ele>911.711882</ele>
        <time>2021-07-07T11:39:46+0200</time>
      </trkpt>
      <trkpt lat="45.57625" lon="2.90946">
        <ele>911.200729</ele>
        <time>2021-07-07T11:39:48+0200</time>
      </trkpt>
      <trkpt lat="45.57621" lon="2.90939">
        <ele>911.263076</ele>
        <time>2021-07-07T11:39:50+0200</time>
      </trkpt>
      <trkpt lat="45.57618" lon="2.90934">
        <ele>911.414289</ele>
        <time>2021-07-07T11:40:19+0200</time>
      </trkpt>
      <trkpt lat="45.57613" lon="2.90928">
        <ele>910.997957</ele>
        <time>2021-07-07T11:40:54+0200</time>
      </trkpt>
      <trkpt lat="45.57608" lon="2.90921">
        <ele>910.786795</ele>
        <time>2021-07-07T11:40:56+0200</time>
      </trkpt>
      <trkpt lat="45.57603" lon="2.90913">
        <ele>909.604571</ele>
        <time>2021-07-07T11:40:58+0200</time>
      </trkpt>
      <trkpt lat="45.57599" lon="2.90906">
        <ele>908.983116</ele>
        <time>2021-07-07T11:41:00+0200</time>
      </trkpt>
      <trkpt lat="45.57593" lon="2.90899">
        <ele>908.934501</ele>
        <time>2021-07-07T11:41:02+0200</time>
      </trkpt>
      <trkpt lat="45.57588" lon="2.9089">
        <ele>908.334738</ele>
        <time>2021-07-07T11:41:04+0200</time>
      </trkpt>
      <trkpt lat="45.57581" lon="2.90882">
        <ele>908.482837</ele>
        <time>2021-07-07T11:41:06+0200</time>
      </trkpt>
      <trkpt lat="45.57577" lon="2.90875">
        <ele>907.293909</ele>
        <time>2021-07-07T11:41:07+0200</time>
      </trkpt>
      <trkpt lat="45.57572" lon="2.90869">
        <ele>906.664457</ele>
        <time>2021-07-07T11:41:08+0200</time>
      </trkpt>
      <trkpt lat="45.57568" lon="2.90862">
        <ele>906.184932</ele>
        <time>2021-07-07T11:41:09+0200</time>
      </trkpt>
      <trkpt lat="45.57564" lon="2.90855">
        <ele>905.959783</ele>
        <time>2021-07-07T11:41:10+0200</time>
      </trkpt>
      <trkpt lat="45.57559" lon="2.90849">
        <ele>905.450324</ele>
        <time>2021-07-07T11:41:11+0200</time>
      </trkpt>
      <trkpt lat="45.57554" lon="2.90842">
        <ele>904.394891</ele>
        <time>2021-07-07T11:41:12+0200</time>
      </trkpt>
      <trkpt lat="45.5755" lon="2.90835">
        <ele>903.15156</ele>
        <time>2021-07-07T11:41:13+0200</time>
      </trkpt>
      <trkpt lat="45.57545" lon="2.90828">
        <ele>902.037881</ele>
        <time>2021-07-07T11:41:14+0200</time>
      </trkpt>
      <trkpt lat="45.57538" lon="2.90821">
        <ele>900.605801</ele>
        <time>2021-07-07T11:41:15+0200</time>
      </trkpt>
      <trkpt lat="45.57531" lon="2.90811">
        <ele>898.549802</ele>
        <time>2021-07-07T11:41:16+0200</time>
      </trkpt>
      <trkpt lat="45.57524" lon="2.90802">
        <ele>896.682618</ele>
        <time>2021-07-07T11:41:17+0200</time>
      </trkpt>
      <trkpt lat="45.57516" lon="2.90792">
        <ele>894.920584</ele>
        <time>2021-07-07T11:41:18+0200</time>
      </trkpt>
      <trkpt lat="45.5751" lon="2.90782">
        <ele>893.404458</ele>
        <time>2021-07-07T11:41:19+0200</time>
      </trkpt>
      <trkpt lat="45.57503" lon="2.90774">
        <ele>892.375975</ele>
        <time>2021-07-07T11:41:20+0200</time>
      </trkpt>
      <trkpt lat="45.57497" lon="2.90769">
        <ele>891.487693</ele>
        <time>2021-07-07T11:41:21+0200</time>
      </trkpt>
      <trkpt lat="45.57488" lon="2.90769">
        <ele>890.688155</ele>
        <time>2021-07-07T11:41:23+0200</time>
      </trkpt>
      <trkpt lat="45.57483" lon="2.90775">
        <ele>890.492905</ele>
        <time>2021-07-07T11:41:24+0200</time>
      </trkpt>
      <trkpt lat="45.57479" lon="2.90784">
        <ele>889.808491</ele>
        <time>2021-07-07T11:41:25+0200</time>
      </trkpt>
      <trkpt lat="45.57474" lon="2.90793">
        <ele>888.686772</ele>
        <time>2021-07-07T11:41:26+0200</time>
      </trkpt>
      <trkpt lat="45.57467" lon="2.90802">
        <ele>887.230419</ele>
        <time>2021-07-07T11:41:27+0200</time>
      </trkpt>
      <trkpt lat="45.57461" lon="2.90811">
        <ele>885.387148</ele>
        <time>2021-07-07T11:41:28+0200</time>
      </trkpt>
      <trkpt lat="45.57454" lon="2.90821">
        <ele>884.306991</ele>
        <time>2021-07-07T11:41:29+0200</time>
      </trkpt>
      <trkpt lat="45.57447" lon="2.90831">
        <ele>882.958308</ele>
        <time>2021-07-07T11:41:30+0200</time>
      </trkpt>
      <trkpt lat="45.57441" lon="2.9084">
        <ele>881.906646</ele>
        <time>2021-07-07T11:41:31+0200</time>
      </trkpt>
      <trkpt lat="45.57435" lon="2.90849">
        <ele>881.041871</ele>
        <time>2021-07-07T11:41:32+0200</time>
      </trkpt>
      <trkpt lat="45.5743" lon="2.90859">
        <ele>880.308061</ele>
        <time>2021-07-07T11:41:33+0200</time>
      </trkpt>
      <trkpt lat="45.57425" lon="2.90867">
        <ele>879.866486</ele>
        <time>2021-07-07T11:41:34+0200</time>
      </trkpt>
      <trkpt lat="45.57422" lon="2.90873">
        <ele>879.462826</ele>
        <time>2021-07-07T11:41:35+0200</time>
      </trkpt>
      <trkpt lat="45.57416" lon="2.90879">
        <ele>879.49011</ele>
        <time>2021-07-07T11:41:37+0200</time>
      </trkpt>
      <trkpt lat="45.57412" lon="2.90878">
        <ele>879.283746</ele>
        <time>2021-07-07T11:41:38+0200</time>
      </trkpt>
      <trkpt lat="45.57409" lon="2.90868">
        <ele>878.993878</ele>
        <time>2021-07-07T11:41:40+0200</time>
      </trkpt>
      <trkpt lat="45.57407" lon="2.90859">
        <ele>879.664383</ele>
        <time>2021-07-07T11:41:42+0200</time>
      </trkpt>
      <trkpt lat="45.57404" lon="2.90849">
        <ele>880.119111</ele>
        <time>2021-07-07T11:41:44+0200</time>
      </trkpt>
      <trkpt lat="45.574" lon="2.90838">
        <ele>880.506995</ele>
        <time>2021-07-07T11:41:46+0200</time>
      </trkpt>
      <trkpt lat="45.57396" lon="2.90828">
        <ele>880.240014</ele>
        <time>2021-07-07T11:41:48+0200</time>
      </trkpt>
      <trkpt lat="45.57392" lon="2.90817">
        <ele>880.487177</ele>
        <time>2021-07-07T11:41:50+0200</time>
      </trkpt>
      <trkpt lat="45.57388" lon="2.90806">
        <ele>880.272406</ele>
        <time>2021-07-07T11:41:52+0200</time>
      </trkpt>
      <trkpt lat="45.57386" lon="2.90797">
        <ele>880.479804</ele>
        <time>2021-07-07T11:41:54+0200</time>
      </trkpt>
      <trkpt lat="45.57381" lon="2.90787">
        <ele>880.564624</ele>
        <time>2021-07-07T11:41:56+0200</time>
      </trkpt>
      <trkpt lat="45.57378" lon="2.90776">
        <ele>880.505123</ele>
        <time>2021-07-07T11:41:58+0200</time>
      </trkpt>
      <trkpt lat="45.57374" lon="2.90766">
        <ele>880.668302</ele>
        <time>2021-07-07T11:42:00+0200</time>
      </trkpt>
      <trkpt lat="45.5737" lon="2.90755">
        <ele>880.413376</ele>
        <time>2021-07-07T11:42:02+0200</time>
      </trkpt>
      <trkpt lat="45.57364" lon="2.90745">
        <ele>880.35737</ele>
        <time>2021-07-07T11:42:04+0200</time>
      </trkpt>
      <trkpt lat="45.57362" lon="2.90739">
        <ele>880.167324</ele>
        <time>2021-07-07T11:42:05+0200</time>
      </trkpt>
      <trkpt lat="45.57359" lon="2.90735">
        <ele>880.417394</ele>
        <time>2021-07-07T11:42:06+0200</time>
      </trkpt>
      <trkpt lat="45.57353" lon="2.90726">
        <ele>880.569164</ele>
        <time>2021-07-07T11:42:08+0200</time>
      </trkpt>
      <trkpt lat="45.57347" lon="2.90716">
        <ele>880.66484</ele>
        <time>2021-07-07T11:42:10+0200</time>
      </trkpt>
      <trkpt lat="45.57344" lon="2.90712">
        <ele>880.760379</ele>
        <time>2021-07-07T11:42:11+0200</time>
      </trkpt>
      <trkpt lat="45.57339" lon="2.90708">
        <ele>880.724309</ele>
        <time>2021-07-07T11:42:12+0200</time>
      </trkpt>
      <trkpt lat="45.57334" lon="2.90698">
        <ele>880.439747</ele>
        <time>2021-07-07T11:42:14+0200</time>
      </trkpt>
      <trkpt lat="45.57328" lon="2.90689">
        <ele>880.235383</ele>
        <time>2021-07-07T11:42:16+0200</time>
      </trkpt>
      <trkpt lat="45.57325" lon="2.90684">
        <ele>880.092413</ele>
        <time>2021-07-07T11:42:17+0200</time>
      </trkpt>
      <trkpt lat="45.57321" lon="2.90679">
        <ele>880.136432</ele>
        <time>2021-07-07T11:42:18+0200</time>
      </trkpt>
      <trkpt lat="45.57314" lon="2.90672">
        <ele>880.213702</ele>
        <time>2021-07-07T11:42:20+0200</time>
      </trkpt>
      <trkpt lat="45.5731" lon="2.90669">
        <ele>879.996405</ele>
        <time>2021-07-07T11:42:21+0200</time>
      </trkpt>
      <trkpt lat="45.57306" lon="2.90665">
        <ele>879.988054</ele>
        <time>2021-07-07T11:42:22+0200</time>
      </trkpt>
      <trkpt lat="45.57302" lon="2.9066">
        <ele>880.018039</ele>
        <time>2021-07-07T11:42:23+0200</time>
      </trkpt>
      <trkpt lat="45.57295" lon="2.90653">
        <ele>880.057992</ele>
        <time>2021-07-07T11:42:25+0200</time>
      </trkpt>
      <trkpt lat="45.57287" lon="2.90645">
        <ele>880.473662</ele>
        <time>2021-07-07T11:42:27+0200</time>
      </trkpt>
      <trkpt lat="45.57284" lon="2.90641">
        <ele>880.589548</ele>
        <time>2021-07-07T11:42:28+0200</time>
      </trkpt>
      <trkpt lat="45.57276" lon="2.90633">
        <ele>880.548249</ele>
        <time>2021-07-07T11:42:30+0200</time>
      </trkpt>
      <trkpt lat="45.57273" lon="2.90629">
        <ele>880.75739</ele>
        <time>2021-07-07T11:42:31+0200</time>
      </trkpt>
      <trkpt lat="45.57267" lon="2.90621">
        <ele>880.846962</ele>
        <time>2021-07-07T11:42:33+0200</time>
      </trkpt>
      <trkpt lat="45.57261" lon="2.90612">
        <ele>881.689736</ele>
        <time>2021-07-07T11:42:35+0200</time>
      </trkpt>
      <trkpt lat="45.57257" lon="2.90608">
        <ele>881.797264</ele>
        <time>2021-07-07T11:42:36+0200</time>
      </trkpt>
      <trkpt lat="45.57253" lon="2.90604">
        <ele>882.175759</ele>
        <time>2021-07-07T11:42:37+0200</time>
      </trkpt>
      <trkpt lat="45.5725" lon="2.90599">
        <ele>882.094132</ele>
        <time>2021-07-07T11:42:38+0200</time>
      </trkpt>
      <trkpt lat="45.57246" lon="2.90595">
        <ele>882.222255</ele>
        <time>2021-07-07T11:42:39+0200</time>
      </trkpt>
      <trkpt lat="45.57243" lon="2.90591">
        <ele>882.303388</ele>
        <time>2021-07-07T11:42:40+0200</time>
      </trkpt>
      <trkpt lat="45.5724" lon="2.90585">
        <ele>882.792285</ele>
        <time>2021-07-07T11:42:41+0200</time>
      </trkpt>
      <trkpt lat="45.57233" lon="2.90575">
        <ele>883.185184</ele>
        <time>2021-07-07T11:42:43+0200</time>
      </trkpt>
      <trkpt lat="45.57231" lon="2.90569">
        <ele>883.786072</ele>
        <time>2021-07-07T11:42:44+0200</time>
      </trkpt>
      <trkpt lat="45.57227" lon="2.90564">
        <ele>884.199244</ele>
        <time>2021-07-07T11:42:45+0200</time>
      </trkpt>
      <trkpt lat="45.57221" lon="2.90555">
        <ele>884.655195</ele>
        <time>2021-07-07T11:42:47+0200</time>
      </trkpt>
      <trkpt lat="45.57218" lon="2.90551">
        <ele>884.575572</ele>
        <time>2021-07-07T11:42:48+0200</time>
      </trkpt>
      <trkpt lat="45.57215" lon="2.90546">
        <ele>884.674016</ele>
        <time>2021-07-07T11:42:49+0200</time>
      </trkpt>
      <trkpt lat="45.57212" lon="2.90542">
        <ele>884.622167</ele>
        <time>2021-07-07T11:42:50+0200</time>
      </trkpt>
      <trkpt lat="45.57206" lon="2.90532">
        <ele>884.54307</ele>
        <time>2021-07-07T11:42:52+0200</time>
      </trkpt>
      <trkpt lat="45.57203" lon="2.90526">
        <ele>884.139571</ele>
        <time>2021-07-07T11:42:53+0200</time>
      </trkpt>
      <trkpt lat="45.572" lon="2.90521">
        <ele>883.987896</ele>
        <time>2021-07-07T11:42:54+0200</time>
      </trkpt>
      <trkpt lat="45.57196" lon="2.90516">
        <ele>884.428882</ele>
        <time>2021-07-07T11:42:55+0200</time>
      </trkpt>
      <trkpt lat="45.57193" lon="2.9051">
        <ele>885.191307</ele>
        <time>2021-07-07T11:42:56+0200</time>
      </trkpt>
      <trkpt lat="45.57187" lon="2.90501">
        <ele>886.58654</ele>
        <time>2021-07-07T11:42:58+0200</time>
      </trkpt>
      <trkpt lat="45.57184" lon="2.90496">
        <ele>886.491402</ele>
        <time>2021-07-07T11:42:59+0200</time>
      </trkpt>
      <trkpt lat="45.57178" lon="2.90486">
        <ele>886.658737</ele>
        <time>2021-07-07T11:43:01+0200</time>
      </trkpt>
      <trkpt lat="45.57175" lon="2.90481">
        <ele>886.831584</ele>
        <time>2021-07-07T11:43:02+0200</time>
      </trkpt>
      <trkpt lat="45.5717" lon="2.90472">
        <ele>887.870026</ele>
        <time>2021-07-07T11:43:04+0200</time>
      </trkpt>
      <trkpt lat="45.57166" lon="2.90468">
        <ele>887.908058</ele>
        <time>2021-07-07T11:43:05+0200</time>
      </trkpt>
      <trkpt lat="45.57159" lon="2.90458">
        <ele>887.48134</ele>
        <time>2021-07-07T11:43:07+0200</time>
      </trkpt>
      <trkpt lat="45.57154" lon="2.90449">
        <ele>888.071297</ele>
        <time>2021-07-07T11:43:09+0200</time>
      </trkpt>
      <trkpt lat="45.57151" lon="2.90444">
        <ele>887.975373</ele>
        <time>2021-07-07T11:43:10+0200</time>
      </trkpt>
      <trkpt lat="45.57148" lon="2.90438">
        <ele>887.672803</ele>
        <time>2021-07-07T11:43:11+0200</time>
      </trkpt>
      <trkpt lat="45.57145" lon="2.90432">
        <ele>887.689363</ele>
        <time>2021-07-07T11:43:12+0200</time>
      </trkpt>
      <trkpt lat="45.57142" lon="2.90427">
        <ele>887.996023</ele>
        <time>2021-07-07T11:43:13+0200</time>
      </trkpt>
      <trkpt lat="45.57138" lon="2.90421">
        <ele>887.575493</ele>
        <time>2021-07-07T11:43:14+0200</time>
      </trkpt>
      <trkpt lat="45.57135" lon="2.90415">
        <ele>886.690891</ele>
        <time>2021-07-07T11:43:15+0200</time>
      </trkpt>
      <trkpt lat="45.57129" lon="2.90406">
        <ele>885.394913</ele>
        <time>2021-07-07T11:43:17+0200</time>
      </trkpt>
      <trkpt lat="45.57124" lon="2.90399">
        <ele>885.059834</ele>
        <time>2021-07-07T11:43:18+0200</time>
      </trkpt>
      <trkpt lat="45.5712" lon="2.90393">
        <ele>884.839276</ele>
        <time>2021-07-07T11:43:19+0200</time>
      </trkpt>
      <trkpt lat="45.57116" lon="2.90388">
        <ele>885.044262</ele>
        <time>2021-07-07T11:43:20+0200</time>
      </trkpt>
      <trkpt lat="45.57112" lon="2.90383">
        <ele>884.794931</ele>
        <time>2021-07-07T11:43:21+0200</time>
      </trkpt>
      <trkpt lat="45.57108" lon="2.90377">
        <ele>884.391525</ele>
        <time>2021-07-07T11:43:22+0200</time>
      </trkpt>
      <trkpt lat="45.57105" lon="2.90372">
        <ele>884.416648</ele>
        <time>2021-07-07T11:43:23+0200</time>
      </trkpt>
      <trkpt lat="45.57102" lon="2.90366">
        <ele>884.532483</ele>
        <time>2021-07-07T11:43:24+0200</time>
      </trkpt>
      <trkpt lat="45.57099" lon="2.90361">
        <ele>884.340963</ele>
        <time>2021-07-07T11:43:25+0200</time>
      </trkpt>
      <trkpt lat="45.57096" lon="2.90356">
        <ele>884.371385</ele>
        <time>2021-07-07T11:43:26+0200</time>
      </trkpt>
      <trkpt lat="45.57091" lon="2.90353">
        <ele>884.612958</ele>
        <time>2021-07-07T11:43:27+0200</time>
      </trkpt>
      <trkpt lat="45.57085" lon="2.90352">
        <ele>884.886217</ele>
        <time>2021-07-07T11:43:29+0200</time>
      </trkpt>
      <trkpt lat="45.57082" lon="2.90358">
        <ele>884.440764</ele>
        <time>2021-07-07T11:43:32+0200</time>
      </trkpt>
      <trkpt lat="45.57084" lon="2.90364">
        <ele>884.020261</ele>
        <time>2021-07-07T11:44:26+0200</time>
      </trkpt>
      <trkpt lat="45.57088" lon="2.90356">
        <ele>884.704091</ele>
        <time>2021-07-07T11:44:41+0200</time>
      </trkpt>
      <trkpt lat="45.57091" lon="2.90346">
        <ele>884.70248</ele>
        <time>2021-07-07T11:44:43+0200</time>
      </trkpt>
      <trkpt lat="45.57091" lon="2.90334">
        <ele>884.978968</ele>
        <time>2021-07-07T11:44:45+0200</time>
      </trkpt>
      <trkpt lat="45.57089" lon="2.90323">
        <ele>885.85519</ele>
        <time>2021-07-07T11:44:47+0200</time>
      </trkpt>
      <trkpt lat="45.57085" lon="2.90312">
        <ele>886.393833</ele>
        <time>2021-07-07T11:44:49+0200</time>
      </trkpt>
      <trkpt lat="45.57084" lon="2.903">
        <ele>886.507938</ele>
        <time>2021-07-07T11:44:51+0200</time>
      </trkpt>
      <trkpt lat="45.57081" lon="2.90288">
        <ele>886.646482</ele>
        <time>2021-07-07T11:44:53+0200</time>
      </trkpt>
      <trkpt lat="45.5708" lon="2.90282">
        <ele>886.577348</ele>
        <time>2021-07-07T11:44:54+0200</time>
      </trkpt>
      <trkpt lat="45.57078" lon="2.90275">
        <ele>886.739151</ele>
        <time>2021-07-07T11:44:55+0200</time>
      </trkpt>
      <trkpt lat="45.57077" lon="2.90268">
        <ele>886.931541</ele>
        <time>2021-07-07T11:44:56+0200</time>
      </trkpt>
      <trkpt lat="45.57076" lon="2.9026">
        <ele>886.923929</ele>
        <time>2021-07-07T11:44:57+0200</time>
      </trkpt>
      <trkpt lat="45.57074" lon="2.90253">
        <ele>886.886994</ele>
        <time>2021-07-07T11:44:58+0200</time>
      </trkpt>
      <trkpt lat="45.57072" lon="2.90246">
        <ele>886.812599</ele>
        <time>2021-07-07T11:44:59+0200</time>
      </trkpt>
      <trkpt lat="45.57071" lon="2.9024">
        <ele>886.789767</ele>
        <time>2021-07-07T11:45:00+0200</time>
      </trkpt>
      <trkpt lat="45.5707" lon="2.90233">
        <ele>886.960953</ele>
        <time>2021-07-07T11:45:01+0200</time>
      </trkpt>
      <trkpt lat="45.57069" lon="2.90226">
        <ele>887.133278</ele>
        <time>2021-07-07T11:45:02+0200</time>
      </trkpt>
      <trkpt lat="45.57068" lon="2.90219">
        <ele>887.337349</ele>
        <time>2021-07-07T11:45:03+0200</time>
      </trkpt>
      <trkpt lat="45.57066" lon="2.90212">
        <ele>887.461848</ele>
        <time>2021-07-07T11:45:04+0200</time>
      </trkpt>
      <trkpt lat="45.57065" lon="2.902">
        <ele>887.022672</ele>
        <time>2021-07-07T11:45:06+0200</time>
      </trkpt>
      <trkpt lat="45.57064" lon="2.90193">
        <ele>887.15308</ele>
        <time>2021-07-07T11:45:07+0200</time>
      </trkpt>
      <trkpt lat="45.57063" lon="2.90186">
        <ele>887.269782</ele>
        <time>2021-07-07T11:45:08+0200</time>
      </trkpt>
      <trkpt lat="45.57061" lon="2.9018">
        <ele>887.258904</ele>
        <time>2021-07-07T11:45:09+0200</time>
      </trkpt>
      <trkpt lat="45.5706" lon="2.90172">
        <ele>887.240686</ele>
        <time>2021-07-07T11:45:10+0200</time>
      </trkpt>
      <trkpt lat="45.57059" lon="2.90166">
        <ele>887.563386</ele>
        <time>2021-07-07T11:45:11+0200</time>
      </trkpt>
      <trkpt lat="45.57059" lon="2.90158">
        <ele>888.018447</ele>
        <time>2021-07-07T11:45:12+0200</time>
      </trkpt>
      <trkpt lat="45.57057" lon="2.90145">
        <ele>888.703876</ele>
        <time>2021-07-07T11:45:14+0200</time>
      </trkpt>
      <trkpt lat="45.57057" lon="2.90137">
        <ele>888.961975</ele>
        <time>2021-07-07T11:45:15+0200</time>
      </trkpt>
      <trkpt lat="45.57058" lon="2.90129">
        <ele>889.124724</ele>
        <time>2021-07-07T11:45:16+0200</time>
      </trkpt>
      <trkpt lat="45.57057" lon="2.90121">
        <ele>889.030578</ele>
        <time>2021-07-07T11:45:17+0200</time>
      </trkpt>
      <trkpt lat="45.57058" lon="2.90114">
        <ele>888.8939</ele>
        <time>2021-07-07T11:45:18+0200</time>
      </trkpt>
      <trkpt lat="45.57058" lon="2.90106">
        <ele>889.223474</ele>
        <time>2021-07-07T11:45:19+0200</time>
      </trkpt>
      <trkpt lat="45.57058" lon="2.90098">
        <ele>889.244206</ele>
        <time>2021-07-07T11:45:20+0200</time>
      </trkpt>
      <trkpt lat="45.5706" lon="2.9009">
        <ele>888.888171</ele>
        <time>2021-07-07T11:45:21+0200</time>
      </trkpt>
      <trkpt lat="45.5706" lon="2.90083">
        <ele>888.819287</ele>
        <time>2021-07-07T11:45:22+0200</time>
      </trkpt>
      <trkpt lat="45.5706" lon="2.90076">
        <ele>888.545933</ele>
        <time>2021-07-07T11:45:23+0200</time>
      </trkpt>
      <trkpt lat="45.5706" lon="2.90069">
        <ele>888.803996</ele>
        <time>2021-07-07T11:45:24+0200</time>
      </trkpt>
      <trkpt lat="45.57061" lon="2.90062">
        <ele>888.659864</ele>
        <time>2021-07-07T11:45:25+0200</time>
      </trkpt>
      <trkpt lat="45.57062" lon="2.90055">
        <ele>888.663873</ele>
        <time>2021-07-07T11:45:26+0200</time>
      </trkpt>
      <trkpt lat="45.57064" lon="2.90049">
        <ele>888.465691</ele>
        <time>2021-07-07T11:45:27+0200</time>
      </trkpt>
      <trkpt lat="45.57065" lon="2.90042">
        <ele>888.624993</ele>
        <time>2021-07-07T11:45:28+0200</time>
      </trkpt>
      <trkpt lat="45.57067" lon="2.90036">
        <ele>888.200394</ele>
        <time>2021-07-07T11:45:29+0200</time>
      </trkpt>
      <trkpt lat="45.57066" lon="2.9003">
        <ele>888.099866</ele>
        <time>2021-07-07T11:45:30+0200</time>
      </trkpt>
      <trkpt lat="45.57062" lon="2.90026">
        <ele>887.995174</ele>
        <time>2021-07-07T11:45:31+0200</time>
      </trkpt>
      <trkpt lat="45.57057" lon="2.90027">
        <ele>888.597336</ele>
        <time>2021-07-07T11:45:32+0200</time>
      </trkpt>
      <trkpt lat="45.57052" lon="2.9003">
        <ele>888.147417</ele>
        <time>2021-07-07T11:45:33+0200</time>
      </trkpt>
      <trkpt lat="45.57048" lon="2.90034">
        <ele>888.039677</ele>
        <time>2021-07-07T11:45:34+0200</time>
      </trkpt>
      <trkpt lat="45.57043" lon="2.90038">
        <ele>887.823301</ele>
        <time>2021-07-07T11:45:35+0200</time>
      </trkpt>
      <trkpt lat="45.57038" lon="2.90038">
        <ele>887.717485</ele>
        <time>2021-07-07T11:45:36+0200</time>
      </trkpt>
      <trkpt lat="45.57033" lon="2.9004">
        <ele>887.287118</ele>
        <time>2021-07-07T11:45:37+0200</time>
      </trkpt>
      <trkpt lat="45.57027" lon="2.90044">
        <ele>887.152415</ele>
        <time>2021-07-07T11:45:38+0200</time>
      </trkpt>
      <trkpt lat="45.57023" lon="2.90048">
        <ele>886.509519</ele>
        <time>2021-07-07T11:45:39+0200</time>
      </trkpt>
      <trkpt lat="45.57019" lon="2.90056">
        <ele>886.114788</ele>
        <time>2021-07-07T11:45:40+0200</time>
      </trkpt>
      <trkpt lat="45.57015" lon="2.90062">
        <ele>886.203968</ele>
        <time>2021-07-07T11:45:41+0200</time>
      </trkpt>
      <trkpt lat="45.57011" lon="2.90069">
        <ele>886.354824</ele>
        <time>2021-07-07T11:45:42+0200</time>
      </trkpt>
      <trkpt lat="45.57007" lon="2.90077">
        <ele>886.247995</ele>
        <time>2021-07-07T11:45:43+0200</time>
      </trkpt>
      <trkpt lat="45.57005" lon="2.90085">
        <ele>886.135657</ele>
        <time>2021-07-07T11:45:44+0200</time>
      </trkpt>
      <trkpt lat="45.57002" lon="2.90095">
        <ele>886.120867</ele>
        <time>2021-07-07T11:45:45+0200</time>
      </trkpt>
      <trkpt lat="45.57" lon="2.90104">
        <ele>886.298112</ele>
        <time>2021-07-07T11:45:46+0200</time>
      </trkpt>
      <trkpt lat="45.56998" lon="2.90115">
        <ele>886.228376</ele>
        <time>2021-07-07T11:45:47+0200</time>
      </trkpt>
      <trkpt lat="45.56996" lon="2.90123">
        <ele>886.123273</ele>
        <time>2021-07-07T11:45:48+0200</time>
      </trkpt>
      <trkpt lat="45.56994" lon="2.90133">
        <ele>885.657513</ele>
        <time>2021-07-07T11:45:49+0200</time>
      </trkpt>
      <trkpt lat="45.56992" lon="2.90142">
        <ele>885.348713</ele>
        <time>2021-07-07T11:45:50+0200</time>
      </trkpt>
      <trkpt lat="45.5699" lon="2.90151">
        <ele>885.031528</ele>
        <time>2021-07-07T11:45:51+0200</time>
      </trkpt>
      <trkpt lat="45.56988" lon="2.9016">
        <ele>884.969896</ele>
        <time>2021-07-07T11:45:52+0200</time>
      </trkpt>
      <trkpt lat="45.56987" lon="2.90169">
        <ele>884.799255</ele>
        <time>2021-07-07T11:45:53+0200</time>
      </trkpt>
      <trkpt lat="45.56986" lon="2.90178">
        <ele>884.558957</ele>
        <time>2021-07-07T11:45:54+0200</time>
      </trkpt>
      <trkpt lat="45.56985" lon="2.90188">
        <ele>884.582121</ele>
        <time>2021-07-07T11:45:55+0200</time>
      </trkpt>
      <trkpt lat="45.56985" lon="2.90197">
        <ele>884.241908</ele>
        <time>2021-07-07T11:45:56+0200</time>
      </trkpt>
      <trkpt lat="45.56984" lon="2.90205">
        <ele>884.307707</ele>
        <time>2021-07-07T11:45:57+0200</time>
      </trkpt>
      <trkpt lat="45.56982" lon="2.90213">
        <ele>884.049841</ele>
        <time>2021-07-07T11:45:58+0200</time>
      </trkpt>
      <trkpt lat="45.56982" lon="2.90221">
        <ele>883.778237</ele>
        <time>2021-07-07T11:45:59+0200</time>
      </trkpt>
      <trkpt lat="45.56983" lon="2.9023">
        <ele>883.962353</ele>
        <time>2021-07-07T11:46:00+0200</time>
      </trkpt>
      <trkpt lat="45.56983" lon="2.90237">
        <ele>883.836267</ele>
        <time>2021-07-07T11:46:01+0200</time>
      </trkpt>
      <trkpt lat="45.56982" lon="2.90245">
        <ele>884.165493</ele>
        <time>2021-07-07T11:46:02+0200</time>
      </trkpt>
      <trkpt lat="45.56982" lon="2.90253">
        <ele>883.785168</ele>
        <time>2021-07-07T11:46:03+0200</time>
      </trkpt>
      <trkpt lat="45.56982" lon="2.9026">
        <ele>883.790233</ele>
        <time>2021-07-07T11:46:04+0200</time>
      </trkpt>
      <trkpt lat="45.56983" lon="2.90267">
        <ele>883.991775</ele>
        <time>2021-07-07T11:46:05+0200</time>
      </trkpt>
      <trkpt lat="45.56982" lon="2.90279">
        <ele>884.67935</ele>
        <time>2021-07-07T11:46:07+0200</time>
      </trkpt>
      <trkpt lat="45.56982" lon="2.90286">
        <ele>884.679338</ele>
        <time>2021-07-07T11:46:08+0200</time>
      </trkpt>
      <trkpt lat="45.56981" lon="2.90293">
        <ele>885.125873</ele>
        <time>2021-07-07T11:46:09+0200</time>
      </trkpt>
      <trkpt lat="45.56982" lon="2.90301">
        <ele>884.561548</ele>
        <time>2021-07-07T11:46:10+0200</time>
      </trkpt>
      <trkpt lat="45.56981" lon="2.90309">
        <ele>884.540939</ele>
        <time>2021-07-07T11:46:11+0200</time>
      </trkpt>
      <trkpt lat="45.56982" lon="2.90317">
        <ele>884.373693</ele>
        <time>2021-07-07T11:46:12+0200</time>
      </trkpt>
      <trkpt lat="45.56982" lon="2.90326">
        <ele>884.305493</ele>
        <time>2021-07-07T11:46:13+0200</time>
      </trkpt>
      <trkpt lat="45.56981" lon="2.90335">
        <ele>883.793898</ele>
        <time>2021-07-07T11:46:14+0200</time>
      </trkpt>
      <trkpt lat="45.5698" lon="2.90344">
        <ele>883.726604</ele>
        <time>2021-07-07T11:46:15+0200</time>
      </trkpt>
      <trkpt lat="45.56979" lon="2.90353">
        <ele>883.639097</ele>
        <time>2021-07-07T11:46:16+0200</time>
      </trkpt>
      <trkpt lat="45.56979" lon="2.90363">
        <ele>883.788354</ele>
        <time>2021-07-07T11:46:17+0200</time>
      </trkpt>
      <trkpt lat="45.56978" lon="2.90372">
        <ele>884.244736</ele>
        <time>2021-07-07T11:46:18+0200</time>
      </trkpt>
      <trkpt lat="45.56977" lon="2.9038">
        <ele>884.436105</ele>
        <time>2021-07-07T11:46:19+0200</time>
      </trkpt>
      <trkpt lat="45.56976" lon="2.90388">
        <ele>884.475851</ele>
        <time>2021-07-07T11:46:20+0200</time>
      </trkpt>
      <trkpt lat="45.56977" lon="2.90398">
        <ele>884.828969</ele>
        <time>2021-07-07T11:46:21+0200</time>
      </trkpt>
      <trkpt lat="45.56976" lon="2.90407">
        <ele>884.997453</ele>
        <time>2021-07-07T11:46:22+0200</time>
      </trkpt>
      <trkpt lat="45.56976" lon="2.90416">
        <ele>885.286575</ele>
        <time>2021-07-07T11:46:23+0200</time>
      </trkpt>
      <trkpt lat="45.56976" lon="2.90424">
        <ele>885.514577</ele>
        <time>2021-07-07T11:46:24+0200</time>
      </trkpt>
      <trkpt lat="45.56975" lon="2.90433">
        <ele>885.706574</ele>
        <time>2021-07-07T11:46:25+0200</time>
      </trkpt>
      <trkpt lat="45.56976" lon="2.90441">
        <ele>885.712258</ele>
        <time>2021-07-07T11:46:25+0200</time>
      </trkpt>
      <trkpt lat="45.56976" lon="2.9045">
        <ele>885.716938</ele>
        <time>2021-07-07T11:46:26+0200</time>
      </trkpt>
      <trkpt lat="45.56976" lon="2.90458">
        <ele>885.805541</ele>
        <time>2021-07-07T11:46:27+0200</time>
      </trkpt>
      <trkpt lat="45.56975" lon="2.90467">
        <ele>885.535097</ele>
        <time>2021-07-07T11:46:28+0200</time>
      </trkpt>
      <trkpt lat="45.56975" lon="2.90477">
        <ele>885.077575</ele>
        <time>2021-07-07T11:46:29+0200</time>
      </trkpt>
      <trkpt lat="45.56974" lon="2.90486">
        <ele>884.5456</ele>
        <time>2021-07-07T11:46:30+0200</time>
      </trkpt>
      <trkpt lat="45.56974" lon="2.90495">
        <ele>884.223113</ele>
        <time>2021-07-07T11:46:31+0200</time>
      </trkpt>
      <trkpt lat="45.56973" lon="2.90505">
        <ele>883.400801</ele>
        <time>2021-07-07T11:46:32+0200</time>
      </trkpt>
      <trkpt lat="45.56971" lon="2.90514">
        <ele>883.113768</ele>
        <time>2021-07-07T11:46:33+0200</time>
      </trkpt>
      <trkpt lat="45.56971" lon="2.90522">
        <ele>883.085833</ele>
        <time>2021-07-07T11:46:34+0200</time>
      </trkpt>
      <trkpt lat="45.56972" lon="2.90531">
        <ele>883.617956</ele>
        <time>2021-07-07T11:46:35+0200</time>
      </trkpt>
      <trkpt lat="45.56972" lon="2.90541">
        <ele>883.711411</ele>
        <time>2021-07-07T11:46:36+0200</time>
      </trkpt>
      <trkpt lat="45.56972" lon="2.90548">
        <ele>883.408187</ele>
        <time>2021-07-07T11:46:37+0200</time>
      </trkpt>
      <trkpt lat="45.56972" lon="2.90555">
        <ele>883.202146</ele>
        <time>2021-07-07T11:46:38+0200</time>
      </trkpt>
      <trkpt lat="45.56973" lon="2.90564">
        <ele>883.421385</ele>
        <time>2021-07-07T11:46:39+0200</time>
      </trkpt>
      <trkpt lat="45.56973" lon="2.90574">
        <ele>883.01126</ele>
        <time>2021-07-07T11:46:40+0200</time>
      </trkpt>
      <trkpt lat="45.56973" lon="2.90583">
        <ele>882.621547</ele>
        <time>2021-07-07T11:46:41+0200</time>
      </trkpt>
      <trkpt lat="45.56974" lon="2.90593">
        <ele>882.855748</ele>
        <time>2021-07-07T11:46:42+0200</time>
      </trkpt>
      <trkpt lat="45.56975" lon="2.90602">
        <ele>882.885761</ele>
        <time>2021-07-07T11:46:43+0200</time>
      </trkpt>
      <trkpt lat="45.56975" lon="2.90611">
        <ele>882.751007</ele>
        <time>2021-07-07T11:46:44+0200</time>
      </trkpt>
      <trkpt lat="45.56975" lon="2.9062">
        <ele>882.519397</ele>
        <time>2021-07-07T11:46:45+0200</time>
      </trkpt>
      <trkpt lat="45.56975" lon="2.90629">
        <ele>882.176705</ele>
        <time>2021-07-07T11:46:46+0200</time>
      </trkpt>
      <trkpt lat="45.56975" lon="2.90637">
        <ele>881.896564</ele>
        <time>2021-07-07T11:46:47+0200</time>
      </trkpt>
      <trkpt lat="45.56974" lon="2.90646">
        <ele>881.878745</ele>
        <time>2021-07-07T11:46:48+0200</time>
      </trkpt>
      <trkpt lat="45.56974" lon="2.90654">
        <ele>881.825925</ele>
        <time>2021-07-07T11:46:49+0200</time>
      </trkpt>
      <trkpt lat="45.56973" lon="2.90663">
        <ele>881.488878</ele>
        <time>2021-07-07T11:46:50+0200</time>
      </trkpt>
      <trkpt lat="45.56972" lon="2.90671">
        <ele>880.811384</ele>
        <time>2021-07-07T11:46:51+0200</time>
      </trkpt>
      <trkpt lat="45.5697" lon="2.90679">
        <ele>880.155991</ele>
        <time>2021-07-07T11:46:52+0200</time>
      </trkpt>
      <trkpt lat="45.5697" lon="2.90688">
        <ele>880.394728</ele>
        <time>2021-07-07T11:46:53+0200</time>
      </trkpt>
      <trkpt lat="45.56968" lon="2.90697">
        <ele>880.500624</ele>
        <time>2021-07-07T11:46:54+0200</time>
      </trkpt>
      <trkpt lat="45.56966" lon="2.90706">
        <ele>880.987755</ele>
        <time>2021-07-07T11:46:55+0200</time>
      </trkpt>
      <trkpt lat="45.56964" lon="2.90715">
        <ele>881.333652</ele>
        <time>2021-07-07T11:46:56+0200</time>
      </trkpt>
      <trkpt lat="45.56962" lon="2.90723">
        <ele>881.378755</ele>
        <time>2021-07-07T11:46:57+0200</time>
      </trkpt>
      <trkpt lat="45.5696" lon="2.90731">
        <ele>881.795137</ele>
        <time>2021-07-07T11:46:58+0200</time>
      </trkpt>
      <trkpt lat="45.56959" lon="2.90739">
        <ele>881.888422</ele>
        <time>2021-07-07T11:46:59+0200</time>
      </trkpt>
      <trkpt lat="45.56959" lon="2.90747">
        <ele>882.05009</ele>
        <time>2021-07-07T11:47:00+0200</time>
      </trkpt>
      <trkpt lat="45.56959" lon="2.90755">
        <ele>882.673302</ele>
        <time>2021-07-07T11:47:01+0200</time>
      </trkpt>
      <trkpt lat="45.56958" lon="2.90762">
        <ele>882.694797</ele>
        <time>2021-07-07T11:47:02+0200</time>
      </trkpt>
      <trkpt lat="45.56958" lon="2.90771">
        <ele>882.597848</ele>
        <time>2021-07-07T11:47:03+0200</time>
      </trkpt>
      <trkpt lat="45.56957" lon="2.90779">
        <ele>882.658551</ele>
        <time>2021-07-07T11:47:04+0200</time>
      </trkpt>
      <trkpt lat="45.56957" lon="2.90787">
        <ele>882.666693</ele>
        <time>2021-07-07T11:47:05+0200</time>
      </trkpt>
      <trkpt lat="45.56957" lon="2.90794">
        <ele>882.936346</ele>
        <time>2021-07-07T11:47:06+0200</time>
      </trkpt>
      <trkpt lat="45.56956" lon="2.90802">
        <ele>882.85792</ele>
        <time>2021-07-07T11:47:07+0200</time>
      </trkpt>
      <trkpt lat="45.56955" lon="2.90809">
        <ele>882.750697</ele>
        <time>2021-07-07T11:47:08+0200</time>
      </trkpt>
      <trkpt lat="45.56953" lon="2.9082">
        <ele>883.526562</ele>
        <time>2021-07-07T11:47:10+0200</time>
      </trkpt>
      <trkpt lat="45.5695" lon="2.90832">
        <ele>883.435347</ele>
        <time>2021-07-07T11:47:12+0200</time>
      </trkpt>
      <trkpt lat="45.56948" lon="2.90838">
        <ele>883.327837</ele>
        <time>2021-07-07T11:47:13+0200</time>
      </trkpt>
      <trkpt lat="45.56945" lon="2.90849">
        <ele>882.93187</ele>
        <time>2021-07-07T11:47:15+0200</time>
      </trkpt>
      <trkpt lat="45.56944" lon="2.90856">
        <ele>883.009051</ele>
        <time>2021-07-07T11:47:16+0200</time>
      </trkpt>
      <trkpt lat="45.56944" lon="2.90865">
        <ele>882.243421</ele>
        <time>2021-07-07T11:47:17+0200</time>
      </trkpt>
      <trkpt lat="45.56944" lon="2.90875">
        <ele>881.861649</ele>
        <time>2021-07-07T11:47:18+0200</time>
      </trkpt>
      <trkpt lat="45.56945" lon="2.90884">
        <ele>881.155618</ele>
        <time>2021-07-07T11:47:19+0200</time>
      </trkpt>
      <trkpt lat="45.56944" lon="2.90893">
        <ele>880.758481</ele>
        <time>2021-07-07T11:47:20+0200</time>
      </trkpt>
      <trkpt lat="45.56943" lon="2.90902">
        <ele>880.528196</ele>
        <time>2021-07-07T11:47:21+0200</time>
      </trkpt>
      <trkpt lat="45.56941" lon="2.90909">
        <ele>880.279447</ele>
        <time>2021-07-07T11:47:22+0200</time>
      </trkpt>
      <trkpt lat="45.56939" lon="2.90916">
        <ele>880.679365</ele>
        <time>2021-07-07T11:47:23+0200</time>
      </trkpt>
      <trkpt lat="45.56936" lon="2.90922">
        <ele>881.217853</ele>
        <time>2021-07-07T11:47:24+0200</time>
      </trkpt>
      <trkpt lat="45.56933" lon="2.9093">
        <ele>881.324637</ele>
        <time>2021-07-07T11:47:25+0200</time>
      </trkpt>
      <trkpt lat="45.5693" lon="2.90939">
        <ele>881.200624</ele>
        <time>2021-07-07T11:47:26+0200</time>
      </trkpt>
      <trkpt lat="45.56928" lon="2.90947">
        <ele>881.320793</ele>
        <time>2021-07-07T11:47:27+0200</time>
      </trkpt>
      <trkpt lat="45.56926" lon="2.90954">
        <ele>881.040133</ele>
        <time>2021-07-07T11:47:28+0200</time>
      </trkpt>
      <trkpt lat="45.56922" lon="2.90961">
        <ele>880.933248</ele>
        <time>2021-07-07T11:47:29+0200</time>
      </trkpt>
      <trkpt lat="45.56918" lon="2.90969">
        <ele>880.407731</ele>
        <time>2021-07-07T11:47:30+0200</time>
      </trkpt>
      <trkpt lat="45.56913" lon="2.90976">
        <ele>880.567261</ele>
        <time>2021-07-07T11:47:31+0200</time>
      </trkpt>
      <trkpt lat="45.5691" lon="2.90983">
        <ele>880.993263</ele>
        <time>2021-07-07T11:47:32+0200</time>
      </trkpt>
      <trkpt lat="45.56905" lon="2.9099">
        <ele>880.676533</ele>
        <time>2021-07-07T11:47:33+0200</time>
      </trkpt>
      <trkpt lat="45.56899" lon="2.90996">
        <ele>880.870368</ele>
        <time>2021-07-07T11:47:34+0200</time>
      </trkpt>
      <trkpt lat="45.56895" lon="2.91003">
        <ele>880.44821</ele>
        <time>2021-07-07T11:47:35+0200</time>
      </trkpt>
      <trkpt lat="45.56889" lon="2.91009">
        <ele>880.310414</ele>
        <time>2021-07-07T11:47:36+0200</time>
      </trkpt>
      <trkpt lat="45.56884" lon="2.91013">
        <ele>880.182281</ele>
        <time>2021-07-07T11:47:37+0200</time>
      </trkpt>
      <trkpt lat="45.56878" lon="2.91017">
        <ele>880.117488</ele>
        <time>2021-07-07T11:47:38+0200</time>
      </trkpt>
      <trkpt lat="45.56873" lon="2.9102">
        <ele>880.014848</ele>
        <time>2021-07-07T11:47:39+0200</time>
      </trkpt>
      <trkpt lat="45.56867" lon="2.91024">
        <ele>880.176972</ele>
        <time>2021-07-07T11:47:40+0200</time>
      </trkpt>
      <trkpt lat="45.56862" lon="2.91028">
        <ele>879.941535</ele>
        <time>2021-07-07T11:47:42+0200</time>
      </trkpt>
      <trkpt lat="45.56857" lon="2.91034">
        <ele>879.792026</ele>
        <time>2021-07-07T11:47:43+0200</time>
      </trkpt>
      <trkpt lat="45.56851" lon="2.91037">
        <ele>879.748628</ele>
        <time>2021-07-07T11:47:44+0200</time>
      </trkpt>
      <trkpt lat="45.56846" lon="2.91041">
        <ele>879.791428</ele>
        <time>2021-07-07T11:47:45+0200</time>
      </trkpt>
      <trkpt lat="45.56841" lon="2.91046">
        <ele>879.930172</ele>
        <time>2021-07-07T11:47:46+0200</time>
      </trkpt>
      <trkpt lat="45.56837" lon="2.91052">
        <ele>880.38128</ele>
        <time>2021-07-07T11:47:47+0200</time>
      </trkpt>
      <trkpt lat="45.56833" lon="2.91058">
        <ele>880.675769</ele>
        <time>2021-07-07T11:47:48+0200</time>
      </trkpt>
      <trkpt lat="45.56832" lon="2.91071">
        <ele>880.363063</ele>
        <time>2021-07-07T11:47:50+0200</time>
      </trkpt>
      <trkpt lat="45.56833" lon="2.91078">
        <ele>880.398165</ele>
        <time>2021-07-07T11:47:51+0200</time>
      </trkpt>
      <trkpt lat="45.56836" lon="2.91085">
        <ele>880.535632</ele>
        <time>2021-07-07T11:47:52+0200</time>
      </trkpt>
      <trkpt lat="45.56837" lon="2.91092">
        <ele>880.507168</ele>
        <time>2021-07-07T11:47:53+0200</time>
      </trkpt>
      <trkpt lat="45.56836" lon="2.91104">
        <ele>880.938231</ele>
        <time>2021-07-07T11:47:55+0200</time>
      </trkpt>
      <trkpt lat="45.56835" lon="2.91111">
        <ele>880.36647</ele>
        <time>2021-07-07T11:47:56+0200</time>
      </trkpt>
      <trkpt lat="45.56834" lon="2.91119">
        <ele>880.158327</ele>
        <time>2021-07-07T11:47:57+0200</time>
      </trkpt>
      <trkpt lat="45.56833" lon="2.91126">
        <ele>880.034161</ele>
        <time>2021-07-07T11:47:58+0200</time>
      </trkpt>
      <trkpt lat="45.56833" lon="2.91134">
        <ele>879.826968</ele>
        <time>2021-07-07T11:47:59+0200</time>
      </trkpt>
      <trkpt lat="45.56832" lon="2.91141">
        <ele>879.558388</ele>
        <time>2021-07-07T11:48:00+0200</time>
      </trkpt>
      <trkpt lat="45.56831" lon="2.91148">
        <ele>880.521617</ele>
        <time>2021-07-07T11:48:01+0200</time>
      </trkpt>
      <trkpt lat="45.56829" lon="2.91155">
        <ele>880.577241</ele>
        <time>2021-07-07T11:48:02+0200</time>
      </trkpt>
      <trkpt lat="45.56827" lon="2.91162">
        <ele>880.697642</ele>
        <time>2021-07-07T11:48:03+0200</time>
      </trkpt>
      <trkpt lat="45.56824" lon="2.91173">
        <ele>880.087044</ele>
        <time>2021-07-07T11:48:05+0200</time>
      </trkpt>
      <trkpt lat="45.56823" lon="2.91179">
        <ele>879.708899</ele>
        <time>2021-07-07T11:48:06+0200</time>
      </trkpt>
      <trkpt lat="45.56822" lon="2.91187">
        <ele>879.511937</ele>
        <time>2021-07-07T11:48:07+0200</time>
      </trkpt>
      <trkpt lat="45.56822" lon="2.91196">
        <ele>879.345285</ele>
        <time>2021-07-07T11:48:08+0200</time>
      </trkpt>
      <trkpt lat="45.56823" lon="2.91205">
        <ele>878.967122</ele>
        <time>2021-07-07T11:48:09+0200</time>
      </trkpt>
      <trkpt lat="45.56823" lon="2.91212">
        <ele>878.799476</ele>
        <time>2021-07-07T11:48:10+0200</time>
      </trkpt>
      <trkpt lat="45.56823" lon="2.91221">
        <ele>878.140677</ele>
        <time>2021-07-07T11:48:11+0200</time>
      </trkpt>
      <trkpt lat="45.56825" lon="2.91231">
        <ele>878.174024</ele>
        <time>2021-07-07T11:48:12+0200</time>
      </trkpt>
      <trkpt lat="45.56825" lon="2.91239">
        <ele>878.010282</ele>
        <time>2021-07-07T11:48:12+0200</time>
      </trkpt>
      <trkpt lat="45.56825" lon="2.91247">
        <ele>878.135523</ele>
        <time>2021-07-07T11:48:13+0200</time>
      </trkpt>
      <trkpt lat="45.56825" lon="2.91255">
        <ele>877.956121</ele>
        <time>2021-07-07T11:48:14+0200</time>
      </trkpt>
      <trkpt lat="45.56826" lon="2.91263">
        <ele>877.707252</ele>
        <time>2021-07-07T11:48:15+0200</time>
      </trkpt>
      <trkpt lat="45.56827" lon="2.9127">
        <ele>877.76566</ele>
        <time>2021-07-07T11:48:16+0200</time>
      </trkpt>
      <trkpt lat="45.56828" lon="2.91277">
        <ele>877.532681</ele>
        <time>2021-07-07T11:48:17+0200</time>
      </trkpt>
      <trkpt lat="45.56828" lon="2.91286">
        <ele>877.598272</ele>
        <time>2021-07-07T11:48:18+0200</time>
      </trkpt>
      <trkpt lat="45.56828" lon="2.91294">
        <ele>877.543028</ele>
        <time>2021-07-07T11:48:19+0200</time>
      </trkpt>
      <trkpt lat="45.56829" lon="2.91302">
        <ele>877.500024</ele>
        <time>2021-07-07T11:48:20+0200</time>
      </trkpt>
      <trkpt lat="45.56829" lon="2.9131">
        <ele>877.402274</ele>
        <time>2021-07-07T11:48:21+0200</time>
      </trkpt>
      <trkpt lat="45.56829" lon="2.91318">
        <ele>877.242033</ele>
        <time>2021-07-07T11:48:22+0200</time>
      </trkpt>
      <trkpt lat="45.56829" lon="2.91326">
        <ele>877.103572</ele>
        <time>2021-07-07T11:48:23+0200</time>
      </trkpt>
      <trkpt lat="45.56828" lon="2.91334">
        <ele>877.110217</ele>
        <time>2021-07-07T11:48:24+0200</time>
      </trkpt>
      <trkpt lat="45.56829" lon="2.91343">
        <ele>877.228124</ele>
        <time>2021-07-07T11:48:25+0200</time>
      </trkpt>
      <trkpt lat="45.56829" lon="2.9135">
        <ele>877.179063</ele>
        <time>2021-07-07T11:48:26+0200</time>
      </trkpt>
      <trkpt lat="45.56829" lon="2.91358">
        <ele>877.378932</ele>
        <time>2021-07-07T11:48:27+0200</time>
      </trkpt>
      <trkpt lat="45.56829" lon="2.91366">
        <ele>877.240513</ele>
        <time>2021-07-07T11:48:29+0200</time>
      </trkpt>
      <trkpt lat="45.5683" lon="2.91373">
        <ele>877.231593</ele>
        <time>2021-07-07T11:48:30+0200</time>
      </trkpt>
      <trkpt lat="45.5683" lon="2.91381">
        <ele>877.199136</ele>
        <time>2021-07-07T11:48:31+0200</time>
      </trkpt>
      <trkpt lat="45.56831" lon="2.91389">
        <ele>877.525759</ele>
        <time>2021-07-07T11:48:32+0200</time>
      </trkpt>
      <trkpt lat="45.56832" lon="2.914">
        <ele>877.855805</ele>
        <time>2021-07-07T11:48:34+0200</time>
      </trkpt>
      <trkpt lat="45.56833" lon="2.91394">
        <ele>880.064849</ele>
        <time>2021-07-07T11:48:54+0200</time>
      </trkpt>
      <trkpt lat="45.56832" lon="2.91383">
        <ele>879.838225</ele>
        <time>2021-07-07T11:48:57+0200</time>
      </trkpt>
      <trkpt lat="45.56832" lon="2.91373">
        <ele>880.09759</ele>
        <time>2021-07-07T11:48:59+0200</time>
      </trkpt>
      <trkpt lat="45.56832" lon="2.91361">
        <ele>879.861749</ele>
        <time>2021-07-07T11:49:01+0200</time>
      </trkpt>
      <trkpt lat="45.56832" lon="2.91354">
        <ele>879.768337</ele>
        <time>2021-07-07T11:49:02+0200</time>
      </trkpt>
      <trkpt lat="45.56832" lon="2.91347">
        <ele>879.882814</ele>
        <time>2021-07-07T11:49:03+0200</time>
      </trkpt>
      <trkpt lat="45.56831" lon="2.91339">
        <ele>879.747779</ele>
        <time>2021-07-07T11:49:04+0200</time>
      </trkpt>
      <trkpt lat="45.56831" lon="2.91332">
        <ele>880.210672</ele>
        <time>2021-07-07T11:49:05+0200</time>
      </trkpt>
      <trkpt lat="45.5683" lon="2.91324">
        <ele>880.349394</ele>
        <time>2021-07-07T11:49:06+0200</time>
      </trkpt>
      <trkpt lat="45.56831" lon="2.91316">
        <ele>880.323044</ele>
        <time>2021-07-07T11:49:07+0200</time>
      </trkpt>
      <trkpt lat="45.56831" lon="2.91308">
        <ele>879.952989</ele>
        <time>2021-07-07T11:49:08+0200</time>
      </trkpt>
      <trkpt lat="45.5683" lon="2.913">
        <ele>880.149082</ele>
        <time>2021-07-07T11:49:09+0200</time>
      </trkpt>
      <trkpt lat="45.5683" lon="2.91293">
        <ele>880.018745</ele>
        <time>2021-07-07T11:49:10+0200</time>
      </trkpt>
      <trkpt lat="45.56829" lon="2.91284">
        <ele>880.182552</ele>
        <time>2021-07-07T11:49:11+0200</time>
      </trkpt>
      <trkpt lat="45.56829" lon="2.91276">
        <ele>880.45802</ele>
        <time>2021-07-07T11:49:12+0200</time>
      </trkpt>
      <trkpt lat="45.56828" lon="2.91269">
        <ele>880.365773</ele>
        <time>2021-07-07T11:49:13+0200</time>
      </trkpt>
      <trkpt lat="45.56828" lon="2.91262">
        <ele>880.476496</ele>
        <time>2021-07-07T11:49:14+0200</time>
      </trkpt>
      <trkpt lat="45.56827" lon="2.91255">
        <ele>880.718304</ele>
        <time>2021-07-07T11:49:15+0200</time>
      </trkpt>
      <trkpt lat="45.56827" lon="2.91248">
        <ele>880.221578</ele>
        <time>2021-07-07T11:49:16+0200</time>
      </trkpt>
      <trkpt lat="45.56826" lon="2.9124">
        <ele>880.473999</ele>
        <time>2021-07-07T11:49:17+0200</time>
      </trkpt>
      <trkpt lat="45.56825" lon="2.91232">
        <ele>880.013981</ele>
        <time>2021-07-07T11:49:18+0200</time>
      </trkpt>
      <trkpt lat="45.56825" lon="2.91225">
        <ele>879.905561</ele>
        <time>2021-07-07T11:49:19+0200</time>
      </trkpt>
      <trkpt lat="45.56824" lon="2.91218">
        <ele>879.723431</ele>
        <time>2021-07-07T11:49:20+0200</time>
      </trkpt>
      <trkpt lat="45.56824" lon="2.91211">
        <ele>879.570495</ele>
        <time>2021-07-07T11:49:21+0200</time>
      </trkpt>
      <trkpt lat="45.56823" lon="2.91199">
        <ele>878.782314</ele>
        <time>2021-07-07T11:49:23+0200</time>
      </trkpt>
      <trkpt lat="45.56824" lon="2.9119">
        <ele>878.485326</ele>
        <time>2021-07-07T11:49:24+0200</time>
      </trkpt>
      <trkpt lat="45.56823" lon="2.91183">
        <ele>878.907549</ele>
        <time>2021-07-07T11:49:26+0200</time>
      </trkpt>
      <trkpt lat="45.56819" lon="2.91187">
        <ele>879.188824</ele>
        <time>2021-07-07T11:49:30+0200</time>
      </trkpt>
      <trkpt lat="45.56813" lon="2.91188">
        <ele>880.157578</ele>
        <time>2021-07-07T11:49:33+0200</time>
      </trkpt>
      <trkpt lat="45.56809" lon="2.91184">
        <ele>879.487373</ele>
        <time>2021-07-07T11:49:35+0200</time>
      </trkpt>
      <trkpt lat="45.56803" lon="2.91182">
        <ele>879.938643</ele>
        <time>2021-07-07T11:49:39+0200</time>
      </trkpt>
      <trkpt lat="45.56799" lon="2.91189">
        <ele>879.768862</ele>
        <time>2021-07-07T11:49:42+0200</time>
      </trkpt>
      <trkpt lat="45.56796" lon="2.91197">
        <ele>880.754845</ele>
        <time>2021-07-07T11:49:44+0200</time>
      </trkpt>
      <trkpt lat="45.56794" lon="2.91206">
        <ele>881.965543</ele>
        <time>2021-07-07T11:49:46+0200</time>
      </trkpt>
      <trkpt lat="45.56792" lon="2.91217">
        <ele>882.260933</ele>
        <time>2021-07-07T11:49:48+0200</time>
      </trkpt>
      <trkpt lat="45.56792" lon="2.91225">
        <ele>881.843338</ele>
        <time>2021-07-07T11:49:49+0200</time>
      </trkpt>
      <trkpt lat="45.56792" lon="2.91232">
        <ele>881.531616</ele>
        <time>2021-07-07T11:49:50+0200</time>
      </trkpt>
      <trkpt lat="45.56791" lon="2.91245">
        <ele>880.333968</ele>
        <time>2021-07-07T11:49:52+0200</time>
      </trkpt>
      <trkpt lat="45.56791" lon="2.91252">
        <ele>879.717113</ele>
        <time>2021-07-07T11:49:53+0200</time>
      </trkpt>
      <trkpt lat="45.56791" lon="2.91259">
        <ele>879.421256</ele>
        <time>2021-07-07T11:49:54+0200</time>
      </trkpt>
      <trkpt lat="45.56791" lon="2.91267">
        <ele>878.989498</ele>
        <time>2021-07-07T11:49:55+0200</time>
      </trkpt>
      <trkpt lat="45.5679" lon="2.91274">
        <ele>878.667694</ele>
        <time>2021-07-07T11:49:56+0200</time>
      </trkpt>
      <trkpt lat="45.5679" lon="2.9128">
        <ele>878.797639</ele>
        <time>2021-07-07T11:49:57+0200</time>
      </trkpt>
      <trkpt lat="45.5679" lon="2.91287">
        <ele>878.761131</ele>
        <time>2021-07-07T11:49:58+0200</time>
      </trkpt>
      <trkpt lat="45.5679" lon="2.91294">
        <ele>878.624349</ele>
        <time>2021-07-07T11:49:59+0200</time>
      </trkpt>
      <trkpt lat="45.56789" lon="2.913">
        <ele>878.464154</ele>
        <time>2021-07-07T11:50:00+0200</time>
      </trkpt>
      <trkpt lat="45.56789" lon="2.91312">
        <ele>877.982456</ele>
        <time>2021-07-07T11:50:02+0200</time>
      </trkpt>
      <trkpt lat="45.5679" lon="2.91319">
        <ele>877.90515</ele>
        <time>2021-07-07T11:50:03+0200</time>
      </trkpt>
      <trkpt lat="45.56789" lon="2.91326">
        <ele>878.088185</ele>
        <time>2021-07-07T11:50:04+0200</time>
      </trkpt>
      <trkpt lat="45.56789" lon="2.91337">
        <ele>878.182421</ele>
        <time>2021-07-07T11:50:06+0200</time>
      </trkpt>
      <trkpt lat="45.56788" lon="2.91344">
        <ele>878.683834</ele>
        <time>2021-07-07T11:50:07+0200</time>
      </trkpt>
      <trkpt lat="45.56789" lon="2.91351">
        <ele>879.167497</ele>
        <time>2021-07-07T11:50:08+0200</time>
      </trkpt>
      <trkpt lat="45.56788" lon="2.91359">
        <ele>879.67855</ele>
        <time>2021-07-07T11:50:09+0200</time>
      </trkpt>
      <trkpt lat="45.56788" lon="2.91367">
        <ele>879.399918</ele>
        <time>2021-07-07T11:50:10+0200</time>
      </trkpt>
      <trkpt lat="45.56787" lon="2.91375">
        <ele>879.389434</ele>
        <time>2021-07-07T11:50:11+0200</time>
      </trkpt>
      <trkpt lat="45.56787" lon="2.91384">
        <ele>879.468523</ele>
        <time>2021-07-07T11:50:12+0200</time>
      </trkpt>
      <trkpt lat="45.56786" lon="2.91393">
        <ele>879.562279</ele>
        <time>2021-07-07T11:50:13+0200</time>
      </trkpt>
      <trkpt lat="45.56786" lon="2.91403">
        <ele>879.625478</ele>
        <time>2021-07-07T11:50:14+0200</time>
      </trkpt>
      <trkpt lat="45.56785" lon="2.91412">
        <ele>879.642439</ele>
        <time>2021-07-07T11:50:15+0200</time>
      </trkpt>
      <trkpt lat="45.56785" lon="2.91421">
        <ele>879.877368</ele>
        <time>2021-07-07T11:50:16+0200</time>
      </trkpt>
      <trkpt lat="45.56784" lon="2.9143">
        <ele>880.146672</ele>
        <time>2021-07-07T11:50:17+0200</time>
      </trkpt>
      <trkpt lat="45.56783" lon="2.91439">
        <ele>880.520278</ele>
        <time>2021-07-07T11:50:18+0200</time>
      </trkpt>
      <trkpt lat="45.56782" lon="2.91448">
        <ele>880.8209</ele>
        <time>2021-07-07T11:50:19+0200</time>
      </trkpt>
      <trkpt lat="45.56781" lon="2.91456">
        <ele>881.266484</ele>
        <time>2021-07-07T11:50:20+0200</time>
      </trkpt>
      <trkpt lat="45.5678" lon="2.91464">
        <ele>882.103931</ele>
        <time>2021-07-07T11:50:21+0200</time>
      </trkpt>
      <trkpt lat="45.56781" lon="2.91471">
        <ele>883.159831</ele>
        <time>2021-07-07T11:50:22+0200</time>
      </trkpt>
      <trkpt lat="45.5678" lon="2.91478">
        <ele>883.865051</ele>
        <time>2021-07-07T11:50:23+0200</time>
      </trkpt>
      <trkpt lat="45.56782" lon="2.91486">
        <ele>884.12766</ele>
        <time>2021-07-07T11:50:24+0200</time>
      </trkpt>
      <trkpt lat="45.56781" lon="2.91493">
        <ele>883.930882</ele>
        <time>2021-07-07T11:50:25+0200</time>
      </trkpt>
      <trkpt lat="45.5678" lon="2.91506">
        <ele>884.109337</ele>
        <time>2021-07-07T11:50:27+0200</time>
      </trkpt>
      <trkpt lat="45.56779" lon="2.91517">
        <ele>883.684728</ele>
        <time>2021-07-07T11:50:29+0200</time>
      </trkpt>
      <trkpt lat="45.56778" lon="2.91524">
        <ele>883.329757</ele>
        <time>2021-07-07T11:50:30+0200</time>
      </trkpt>
      <trkpt lat="45.56777" lon="2.91531">
        <ele>882.635879</ele>
        <time>2021-07-07T11:50:31+0200</time>
      </trkpt>
      <trkpt lat="45.56775" lon="2.91537">
        <ele>882.722636</ele>
        <time>2021-07-07T11:50:32+0200</time>
      </trkpt>
      <trkpt lat="45.56771" lon="2.91543">
        <ele>883.076551</ele>
        <time>2021-07-07T11:50:34+0200</time>
      </trkpt>
      <trkpt lat="45.56769" lon="2.91553">
        <ele>883.990668</ele>
        <time>2021-07-07T11:50:36+0200</time>
      </trkpt>
      <trkpt lat="45.56771" lon="2.91563">
        <ele>884.539991</ele>
        <time>2021-07-07T11:50:38+0200</time>
      </trkpt>
      <trkpt lat="45.56768" lon="2.91575">
        <ele>884.753097</ele>
        <time>2021-07-07T11:50:40+0200</time>
      </trkpt>
      <trkpt lat="45.56767" lon="2.91581">
        <ele>884.391884</ele>
        <time>2021-07-07T11:50:41+0200</time>
      </trkpt>
      <trkpt lat="45.56765" lon="2.91588">
        <ele>884.295204</ele>
        <time>2021-07-07T11:50:42+0200</time>
      </trkpt>
      <trkpt lat="45.56764" lon="2.91601">
        <ele>884.389262</ele>
        <time>2021-07-07T11:50:44+0200</time>
      </trkpt>
      <trkpt lat="45.56764" lon="2.91608">
        <ele>884.365311</ele>
        <time>2021-07-07T11:50:45+0200</time>
      </trkpt>
      <trkpt lat="45.56764" lon="2.91614">
        <ele>884.775736</ele>
        <time>2021-07-07T11:50:46+0200</time>
      </trkpt>
      <trkpt lat="45.56763" lon="2.91628">
        <ele>884.456626</ele>
        <time>2021-07-07T11:50:48+0200</time>
      </trkpt>
      <trkpt lat="45.56763" lon="2.91636">
        <ele>884.580483</ele>
        <time>2021-07-07T11:50:49+0200</time>
      </trkpt>
      <trkpt lat="45.56764" lon="2.91646">
        <ele>884.481469</ele>
        <time>2021-07-07T11:50:50+0200</time>
      </trkpt>
      <trkpt lat="45.56764" lon="2.91654">
        <ele>884.419313</ele>
        <time>2021-07-07T11:50:51+0200</time>
      </trkpt>
      <trkpt lat="45.56764" lon="2.91661">
        <ele>884.886233</ele>
        <time>2021-07-07T11:50:52+0200</time>
      </trkpt>
      <trkpt lat="45.56764" lon="2.91669">
        <ele>885.115705</ele>
        <time>2021-07-07T11:50:53+0200</time>
      </trkpt>
      <trkpt lat="45.56763" lon="2.91675">
        <ele>884.798481</ele>
        <time>2021-07-07T11:50:54+0200</time>
      </trkpt>
      <trkpt lat="45.56763" lon="2.91682">
        <ele>884.585167</ele>
        <time>2021-07-07T11:50:55+0200</time>
      </trkpt>
      <trkpt lat="45.56765" lon="2.9169">
        <ele>883.952713</ele>
        <time>2021-07-07T11:50:56+0200</time>
      </trkpt>
      <trkpt lat="45.56767" lon="2.91698">
        <ele>883.562098</ele>
        <time>2021-07-07T11:50:57+0200</time>
      </trkpt>
      <trkpt lat="45.56769" lon="2.91705">
        <ele>883.696172</ele>
        <time>2021-07-07T11:50:58+0200</time>
      </trkpt>
      <trkpt lat="45.5677" lon="2.91714">
        <ele>883.464292</ele>
        <time>2021-07-07T11:50:59+0200</time>
      </trkpt>
      <trkpt lat="45.56771" lon="2.91723">
        <ele>883.35469</ele>
        <time>2021-07-07T11:51:00+0200</time>
      </trkpt>
      <trkpt lat="45.56772" lon="2.91734">
        <ele>882.848835</ele>
        <time>2021-07-07T11:51:01+0200</time>
      </trkpt>
      <trkpt lat="45.56772" lon="2.91743">
        <ele>882.280677</ele>
        <time>2021-07-07T11:51:02+0200</time>
      </trkpt>
      <trkpt lat="45.56772" lon="2.91752">
        <ele>881.947253</ele>
        <time>2021-07-07T11:51:03+0200</time>
      </trkpt>
      <trkpt lat="45.56773" lon="2.91761">
        <ele>881.327232</ele>
        <time>2021-07-07T11:51:04+0200</time>
      </trkpt>
      <trkpt lat="45.56774" lon="2.91771">
        <ele>881.900005</ele>
        <time>2021-07-07T11:51:05+0200</time>
      </trkpt>
      <trkpt lat="45.56774" lon="2.91781">
        <ele>881.60106</ele>
        <time>2021-07-07T11:51:06+0200</time>
      </trkpt>
      <trkpt lat="45.56776" lon="2.91789">
        <ele>882.174118</ele>
        <time>2021-07-07T11:51:07+0200</time>
      </trkpt>
      <trkpt lat="45.56776" lon="2.91798">
        <ele>882.60135</ele>
        <time>2021-07-07T11:51:08+0200</time>
      </trkpt>
      <trkpt lat="45.56776" lon="2.91807">
        <ele>882.806859</ele>
        <time>2021-07-07T11:51:09+0200</time>
      </trkpt>
      <trkpt lat="45.56776" lon="2.91815">
        <ele>883.425802</ele>
        <time>2021-07-07T11:51:10+0200</time>
      </trkpt>
      <trkpt lat="45.56776" lon="2.91825">
        <ele>884.103981</ele>
        <time>2021-07-07T11:51:11+0200</time>
      </trkpt>
      <trkpt lat="45.56777" lon="2.91835">
        <ele>884.672193</ele>
        <time>2021-07-07T11:51:12+0200</time>
      </trkpt>
      <trkpt lat="45.56776" lon="2.91843">
        <ele>884.635361</ele>
        <time>2021-07-07T11:51:13+0200</time>
      </trkpt>
      <trkpt lat="45.56775" lon="2.91851">
        <ele>884.853717</ele>
        <time>2021-07-07T11:51:14+0200</time>
      </trkpt>
      <trkpt lat="45.56774" lon="2.91859">
        <ele>884.593302</ele>
        <time>2021-07-07T11:51:15+0200</time>
      </trkpt>
      <trkpt lat="45.56773" lon="2.91868">
        <ele>884.957805</ele>
        <time>2021-07-07T11:51:16+0200</time>
      </trkpt>
      <trkpt lat="45.56771" lon="2.91874">
        <ele>885.333638</ele>
        <time>2021-07-07T11:51:17+0200</time>
      </trkpt>
      <trkpt lat="45.5677" lon="2.91883">
        <ele>885.055497</ele>
        <time>2021-07-07T11:51:18+0200</time>
      </trkpt>
      <trkpt lat="45.56768" lon="2.91891">
        <ele>884.443297</ele>
        <time>2021-07-07T11:51:19+0200</time>
      </trkpt>
      <trkpt lat="45.56767" lon="2.919">
        <ele>884.093553</ele>
        <time>2021-07-07T11:51:20+0200</time>
      </trkpt>
      <trkpt lat="45.56767" lon="2.91909">
        <ele>884.074971</ele>
        <time>2021-07-07T11:51:21+0200</time>
      </trkpt>
      <trkpt lat="45.56767" lon="2.91919">
        <ele>883.830329</ele>
        <time>2021-07-07T11:51:22+0200</time>
      </trkpt>
      <trkpt lat="45.56767" lon="2.91929">
        <ele>882.456081</ele>
        <time>2021-07-07T11:51:23+0200</time>
      </trkpt>
      <trkpt lat="45.56769" lon="2.91938">
        <ele>881.889698</ele>
        <time>2021-07-07T11:51:24+0200</time>
      </trkpt>
      <trkpt lat="45.5677" lon="2.91947">
        <ele>881.18756</ele>
        <time>2021-07-07T11:51:25+0200</time>
      </trkpt>
      <trkpt lat="45.56768" lon="2.91955">
        <ele>880.721989</ele>
        <time>2021-07-07T11:51:26+0200</time>
      </trkpt>
      <trkpt lat="45.56766" lon="2.91963">
        <ele>880.54213</ele>
        <time>2021-07-07T11:51:27+0200</time>
      </trkpt>
      <trkpt lat="45.56763" lon="2.91969">
        <ele>880.295724</ele>
        <time>2021-07-07T11:51:28+0200</time>
      </trkpt>
      <trkpt lat="45.56758" lon="2.91977">
        <ele>879.41082</ele>
        <time>2021-07-07T11:51:30+0200</time>
      </trkpt>
      <trkpt lat="45.56752" lon="2.91989">
        <ele>879.447166</ele>
        <time>2021-07-07T11:51:32+0200</time>
      </trkpt>
      <trkpt lat="45.56751" lon="2.91995">
        <ele>879.655237</ele>
        <time>2021-07-07T11:51:33+0200</time>
      </trkpt>
      <trkpt lat="45.56749" lon="2.92004">
        <ele>879.305141</ele>
        <time>2021-07-07T11:51:34+0200</time>
      </trkpt>
      <trkpt lat="45.56747" lon="2.92016">
        <ele>879.112236</ele>
        <time>2021-07-07T11:51:35+0200</time>
      </trkpt>
      <trkpt lat="45.56745" lon="2.92025">
        <ele>879.3166</ele>
        <time>2021-07-07T11:51:36+0200</time>
      </trkpt>
      <trkpt lat="45.56743" lon="2.92032">
        <ele>879.45414</ele>
        <time>2021-07-07T11:51:37+0200</time>
      </trkpt>
      <trkpt lat="45.56741" lon="2.9204">
        <ele>879.57838</ele>
        <time>2021-07-07T11:51:38+0200</time>
      </trkpt>
      <trkpt lat="45.5674" lon="2.92047">
        <ele>879.751447</ele>
        <time>2021-07-07T11:51:39+0200</time>
      </trkpt>
      <trkpt lat="45.5674" lon="2.92054">
        <ele>879.824725</ele>
        <time>2021-07-07T11:51:40+0200</time>
      </trkpt>
      <trkpt lat="45.56738" lon="2.92061">
        <ele>879.737272</ele>
        <time>2021-07-07T11:51:41+0200</time>
      </trkpt>
      <trkpt lat="45.56738" lon="2.92068">
        <ele>879.741879</ele>
        <time>2021-07-07T11:51:42+0200</time>
      </trkpt>
      <trkpt lat="45.56737" lon="2.92075">
        <ele>880.272808</ele>
        <time>2021-07-07T11:51:43+0200</time>
      </trkpt>
      <trkpt lat="45.56734" lon="2.92087">
        <ele>881.028174</ele>
        <time>2021-07-07T11:51:45+0200</time>
      </trkpt>
      <trkpt lat="45.56735" lon="2.92095">
        <ele>881.801917</ele>
        <time>2021-07-07T11:51:46+0200</time>
      </trkpt>
      <trkpt lat="45.56733" lon="2.92101">
        <ele>881.779804</ele>
        <time>2021-07-07T11:51:47+0200</time>
      </trkpt>
      <trkpt lat="45.56731" lon="2.92111">
        <ele>881.799864</ele>
        <time>2021-07-07T11:51:49+0200</time>
      </trkpt>
      <trkpt lat="45.56727" lon="2.92119">
        <ele>881.609746</ele>
        <time>2021-07-07T11:51:51+0200</time>
      </trkpt>
      <trkpt lat="45.56724" lon="2.92129">
        <ele>882.069478</ele>
        <time>2021-07-07T11:51:53+0200</time>
      </trkpt>
      <trkpt lat="45.56721" lon="2.92139">
        <ele>882.297346</ele>
        <time>2021-07-07T11:51:55+0200</time>
      </trkpt>
      <trkpt lat="45.56718" lon="2.92149">
        <ele>882.653853</ele>
        <time>2021-07-07T11:51:57+0200</time>
      </trkpt>
      <trkpt lat="45.56714" lon="2.9216">
        <ele>882.892619</ele>
        <time>2021-07-07T11:51:59+0200</time>
      </trkpt>
      <trkpt lat="45.56712" lon="2.92167">
        <ele>882.805945</ele>
        <time>2021-07-07T11:52:00+0200</time>
      </trkpt>
      <trkpt lat="45.56709" lon="2.92179">
        <ele>882.659965</ele>
        <time>2021-07-07T11:52:02+0200</time>
      </trkpt>
      <trkpt lat="45.56709" lon="2.92187">
        <ele>882.458823</ele>
        <time>2021-07-07T11:52:03+0200</time>
      </trkpt>
      <trkpt lat="45.56705" lon="2.92194">
        <ele>882.528616</ele>
        <time>2021-07-07T11:52:04+0200</time>
      </trkpt>
      <trkpt lat="45.56706" lon="2.92202">
        <ele>882.542224</ele>
        <time>2021-07-07T11:52:05+0200</time>
      </trkpt>
      <trkpt lat="45.56705" lon="2.9221">
        <ele>882.162752</ele>
        <time>2021-07-07T11:52:06+0200</time>
      </trkpt>
      <trkpt lat="45.56705" lon="2.92218">
        <ele>882.1197</ele>
        <time>2021-07-07T11:52:07+0200</time>
      </trkpt>
      <trkpt lat="45.56705" lon="2.92226">
        <ele>881.9537</ele>
        <time>2021-07-07T11:52:08+0200</time>
      </trkpt>
      <trkpt lat="45.56704" lon="2.92233">
        <ele>882.089612</ele>
        <time>2021-07-07T11:52:09+0200</time>
      </trkpt>
      <trkpt lat="45.56707" lon="2.92245">
        <ele>882.001343</ele>
        <time>2021-07-07T11:52:11+0200</time>
      </trkpt>
      <trkpt lat="45.5671" lon="2.92251">
        <ele>881.643385</ele>
        <time>2021-07-07T11:52:12+0200</time>
      </trkpt>
      <trkpt lat="45.56714" lon="2.92257">
        <ele>880.973513</ele>
        <time>2021-07-07T11:52:13+0200</time>
      </trkpt>
      <trkpt lat="45.56717" lon="2.92263">
        <ele>880.63112</ele>
        <time>2021-07-07T11:52:14+0200</time>
      </trkpt>
      <trkpt lat="45.56719" lon="2.9227">
        <ele>880.961287</ele>
        <time>2021-07-07T11:52:15+0200</time>
      </trkpt>
      <trkpt lat="45.56721" lon="2.92278">
        <ele>880.428654</ele>
        <time>2021-07-07T11:52:16+0200</time>
      </trkpt>
      <trkpt lat="45.56723" lon="2.92285">
        <ele>879.575678</ele>
        <time>2021-07-07T11:52:17+0200</time>
      </trkpt>
      <trkpt lat="45.56725" lon="2.92293">
        <ele>878.929408</ele>
        <time>2021-07-07T11:52:18+0200</time>
      </trkpt>
      <trkpt lat="45.56728" lon="2.923">
        <ele>878.016889</ele>
        <time>2021-07-07T11:52:19+0200</time>
      </trkpt>
      <trkpt lat="45.56732" lon="2.92308">
        <ele>878.074</ele>
        <time>2021-07-07T11:52:20+0200</time>
      </trkpt>
      <trkpt lat="45.56735" lon="2.92316">
        <ele>878.053694</ele>
        <time>2021-07-07T11:52:21+0200</time>
      </trkpt>
      <trkpt lat="45.56739" lon="2.92324">
        <ele>878.465021</ele>
        <time>2021-07-07T11:52:22+0200</time>
      </trkpt>
      <trkpt lat="45.56741" lon="2.92331">
        <ele>878.399092</ele>
        <time>2021-07-07T11:52:23+0200</time>
      </trkpt>
      <trkpt lat="45.56744" lon="2.92338">
        <ele>878.621078</ele>
        <time>2021-07-07T11:52:24+0200</time>
      </trkpt>
      <trkpt lat="45.56748" lon="2.92344">
        <ele>879.120546</ele>
        <time>2021-07-07T11:52:25+0200</time>
      </trkpt>
      <trkpt lat="45.56751" lon="2.92357">
        <ele>879.697173</ele>
        <time>2021-07-07T11:52:27+0200</time>
      </trkpt>
      <trkpt lat="45.56754" lon="2.92364">
        <ele>879.650962</ele>
        <time>2021-07-07T11:52:28+0200</time>
      </trkpt>
      <trkpt lat="45.56757" lon="2.92372">
        <ele>879.341767</ele>
        <time>2021-07-07T11:52:29+0200</time>
      </trkpt>
      <trkpt lat="45.56759" lon="2.92378">
        <ele>879.862627</ele>
        <time>2021-07-07T11:52:30+0200</time>
      </trkpt>
      <trkpt lat="45.5676" lon="2.92386">
        <ele>879.661737</ele>
        <time>2021-07-07T11:52:31+0200</time>
      </trkpt>
      <trkpt lat="45.56763" lon="2.92393">
        <ele>880.483958</ele>
        <time>2021-07-07T11:52:32+0200</time>
      </trkpt>
      <trkpt lat="45.56765" lon="2.92401">
        <ele>880.448815</ele>
        <time>2021-07-07T11:52:33+0200</time>
      </trkpt>
      <trkpt lat="45.56766" lon="2.92409">
        <ele>880.525746</ele>
        <time>2021-07-07T11:52:34+0200</time>
      </trkpt>
      <trkpt lat="45.56765" lon="2.92419">
        <ele>879.752147</ele>
        <time>2021-07-07T11:52:35+0200</time>
      </trkpt>
      <trkpt lat="45.56764" lon="2.92427">
        <ele>879.663148</ele>
        <time>2021-07-07T11:52:36+0200</time>
      </trkpt>
      <trkpt lat="45.56764" lon="2.92435">
        <ele>879.63817</ele>
        <time>2021-07-07T11:52:37+0200</time>
      </trkpt>
      <trkpt lat="45.56765" lon="2.92443">
        <ele>879.428276</ele>
        <time>2021-07-07T11:52:38+0200</time>
      </trkpt>
      <trkpt lat="45.56764" lon="2.92452">
        <ele>879.143025</ele>
        <time>2021-07-07T11:52:39+0200</time>
      </trkpt>
      <trkpt lat="45.56763" lon="2.92459">
        <ele>879.319302</ele>
        <time>2021-07-07T11:52:40+0200</time>
      </trkpt>
      <trkpt lat="45.56763" lon="2.92467">
        <ele>879.617311</ele>
        <time>2021-07-07T11:52:41+0200</time>
      </trkpt>
      <trkpt lat="45.56763" lon="2.92474">
        <ele>879.751253</ele>
        <time>2021-07-07T11:52:42+0200</time>
      </trkpt>
      <trkpt lat="45.56763" lon="2.92482">
        <ele>879.786584</ele>
        <time>2021-07-07T11:52:43+0200</time>
      </trkpt>
      <trkpt lat="45.56763" lon="2.92489">
        <ele>880.400078</ele>
        <time>2021-07-07T11:52:44+0200</time>
      </trkpt>
      <trkpt lat="45.56762" lon="2.92497">
        <ele>881.100317</ele>
        <time>2021-07-07T11:52:45+0200</time>
      </trkpt>
      <trkpt lat="45.56762" lon="2.92504">
        <ele>881.774958</ele>
        <time>2021-07-07T11:52:46+0200</time>
      </trkpt>
      <trkpt lat="45.56761" lon="2.92511">
        <ele>882.014942</ele>
        <time>2021-07-07T11:52:47+0200</time>
      </trkpt>
      <trkpt lat="45.56761" lon="2.92518">
        <ele>882.034818</ele>
        <time>2021-07-07T11:52:48+0200</time>
      </trkpt>
      <trkpt lat="45.5676" lon="2.92526">
        <ele>881.839201</ele>
        <time>2021-07-07T11:52:49+0200</time>
      </trkpt>
      <trkpt lat="45.5676" lon="2.92534">
        <ele>881.56268</ele>
        <time>2021-07-07T11:52:50+0200</time>
      </trkpt>
      <trkpt lat="45.5676" lon="2.92541">
        <ele>881.622913</ele>
        <time>2021-07-07T11:52:51+0200</time>
      </trkpt>
      <trkpt lat="45.5676" lon="2.9255">
        <ele>881.315352</ele>
        <time>2021-07-07T11:52:52+0200</time>
      </trkpt>
      <trkpt lat="45.5676" lon="2.92557">
        <ele>881.65256</ele>
        <time>2021-07-07T11:52:53+0200</time>
      </trkpt>
      <trkpt lat="45.5676" lon="2.92566">
        <ele>881.444723</ele>
        <time>2021-07-07T11:52:54+0200</time>
      </trkpt>
      <trkpt lat="45.56762" lon="2.92572">
        <ele>881.934677</ele>
        <time>2021-07-07T11:52:55+0200</time>
      </trkpt>
      <trkpt lat="45.56763" lon="2.9258">
        <ele>882.244821</ele>
        <time>2021-07-07T11:52:56+0200</time>
      </trkpt>
      <trkpt lat="45.56762" lon="2.92588">
        <ele>881.949685</ele>
        <time>2021-07-07T11:52:57+0200</time>
      </trkpt>
      <trkpt lat="45.56761" lon="2.92596">
        <ele>881.960061</ele>
        <time>2021-07-07T11:52:58+0200</time>
      </trkpt>
      <trkpt lat="45.56761" lon="2.92604">
        <ele>882.669913</ele>
        <time>2021-07-07T11:52:59+0200</time>
      </trkpt>
      <trkpt lat="45.5676" lon="2.92612">
        <ele>883.223152</ele>
        <time>2021-07-07T11:53:00+0200</time>
      </trkpt>
      <trkpt lat="45.5676" lon="2.9262">
        <ele>883.698389</ele>
        <time>2021-07-07T11:53:01+0200</time>
      </trkpt>
      <trkpt lat="45.5676" lon="2.92629">
        <ele>883.619103</ele>
        <time>2021-07-07T11:53:02+0200</time>
      </trkpt>
      <trkpt lat="45.56761" lon="2.92637">
        <ele>883.500544</ele>
        <time>2021-07-07T11:53:03+0200</time>
      </trkpt>
      <trkpt lat="45.56761" lon="2.92645">
        <ele>883.130986</ele>
        <time>2021-07-07T11:53:04+0200</time>
      </trkpt>
      <trkpt lat="45.56762" lon="2.92652">
        <ele>882.730561</ele>
        <time>2021-07-07T11:53:05+0200</time>
      </trkpt>
      <trkpt lat="45.56763" lon="2.92661">
        <ele>882.785936</ele>
        <time>2021-07-07T11:53:06+0200</time>
      </trkpt>
      <trkpt lat="45.56763" lon="2.92668">
        <ele>882.763638</ele>
        <time>2021-07-07T11:53:07+0200</time>
      </trkpt>
      <trkpt lat="45.56763" lon="2.92675">
        <ele>883.446353</ele>
        <time>2021-07-07T11:53:08+0200</time>
      </trkpt>
      <trkpt lat="45.56763" lon="2.92689">
        <ele>883.460028</ele>
        <time>2021-07-07T11:53:10+0200</time>
      </trkpt>
      <trkpt lat="45.56764" lon="2.92696">
        <ele>883.769038</ele>
        <time>2021-07-07T11:53:11+0200</time>
      </trkpt>
      <trkpt lat="45.56763" lon="2.92703">
        <ele>883.717958</ele>
        <time>2021-07-07T11:53:12+0200</time>
      </trkpt>
      <trkpt lat="45.56763" lon="2.9271">
        <ele>883.258467</ele>
        <time>2021-07-07T11:53:13+0200</time>
      </trkpt>
      <trkpt lat="45.56765" lon="2.92718">
        <ele>883.034318</ele>
        <time>2021-07-07T11:53:14+0200</time>
      </trkpt>
      <trkpt lat="45.56766" lon="2.92726">
        <ele>882.831037</ele>
        <time>2021-07-07T11:53:15+0200</time>
      </trkpt>
      <trkpt lat="45.56766" lon="2.92734">
        <ele>882.787773</ele>
        <time>2021-07-07T11:53:16+0200</time>
      </trkpt>
      <trkpt lat="45.56768" lon="2.92742">
        <ele>882.474549</ele>
        <time>2021-07-07T11:53:17+0200</time>
      </trkpt>
      <trkpt lat="45.56769" lon="2.92749">
        <ele>882.251016</ele>
        <time>2021-07-07T11:53:18+0200</time>
      </trkpt>
      <trkpt lat="45.56768" lon="2.92757">
        <ele>881.669311</ele>
        <time>2021-07-07T11:53:19+0200</time>
      </trkpt>
      <trkpt lat="45.56767" lon="2.92764">
        <ele>881.325028</ele>
        <time>2021-07-07T11:53:20+0200</time>
      </trkpt>
      <trkpt lat="45.56768" lon="2.92771">
        <ele>881.114603</ele>
        <time>2021-07-07T11:53:21+0200</time>
      </trkpt>
      <trkpt lat="45.56768" lon="2.92779">
        <ele>881.047631</ele>
        <time>2021-07-07T11:53:22+0200</time>
      </trkpt>
      <trkpt lat="45.56769" lon="2.92786">
        <ele>881.481175</ele>
        <time>2021-07-07T11:53:23+0200</time>
      </trkpt>
      <trkpt lat="45.56769" lon="2.92793">
        <ele>881.35864</ele>
        <time>2021-07-07T11:53:24+0200</time>
      </trkpt>
      <trkpt lat="45.56769" lon="2.928">
        <ele>881.425612</ele>
        <time>2021-07-07T11:53:25+0200</time>
      </trkpt>
      <trkpt lat="45.56772" lon="2.92813">
        <ele>880.757101</ele>
        <time>2021-07-07T11:53:27+0200</time>
      </trkpt>
      <trkpt lat="45.56774" lon="2.92819">
        <ele>880.476255</ele>
        <time>2021-07-07T11:53:28+0200</time>
      </trkpt>
      <trkpt lat="45.56776" lon="2.92826">
        <ele>879.83085</ele>
        <time>2021-07-07T11:53:29+0200</time>
      </trkpt>
      <trkpt lat="45.56781" lon="2.92838">
        <ele>878.429185</ele>
        <time>2021-07-07T11:53:31+0200</time>
      </trkpt>
      <trkpt lat="45.56785" lon="2.92849">
        <ele>878.333169</ele>
        <time>2021-07-07T11:53:33+0200</time>
      </trkpt>
      <trkpt lat="45.56786" lon="2.92855">
        <ele>878.154377</ele>
        <time>2021-07-07T11:53:34+0200</time>
      </trkpt>
      <trkpt lat="45.5679" lon="2.9286">
        <ele>878.267898</ele>
        <time>2021-07-07T11:53:35+0200</time>
      </trkpt>
      <trkpt lat="45.56793" lon="2.9287">
        <ele>878.512843</ele>
        <time>2021-07-07T11:53:37+0200</time>
      </trkpt>
      <trkpt lat="45.56797" lon="2.92876">
        <ele>878.622345</ele>
        <time>2021-07-07T11:53:39+0200</time>
      </trkpt>
      <trkpt lat="45.56801" lon="2.92881">
        <ele>878.785695</ele>
        <time>2021-07-07T11:53:41+0200</time>
      </trkpt>
      <trkpt lat="45.56803" lon="2.92888">
        <ele>879.021542</ele>
        <time>2021-07-07T11:53:43+0200</time>
      </trkpt>
      <trkpt lat="45.56808" lon="2.92894">
        <ele>879.772349</ele>
        <time>2021-07-07T11:53:46+0200</time>
      </trkpt>
      <trkpt lat="45.56811" lon="2.92901">
        <ele>877.682223</ele>
        <time>2021-07-07T11:54:20+0200</time>
      </trkpt>
      <trkpt lat="45.56807" lon="2.92898">
        <ele>877.58919</ele>
        <time>2021-07-07T11:55:04+0200</time>
      </trkpt>
      <trkpt lat="45.56803" lon="2.92889">
        <ele>878.139867</ele>
        <time>2021-07-07T11:58:03+0200</time>
      </trkpt>
      <trkpt lat="45.56801" lon="2.92884">
        <ele>878.442759</ele>
        <time>2021-07-07T11:58:05+0200</time>
      </trkpt>
      <trkpt lat="45.56798" lon="2.92877">
        <ele>878.28322</ele>
        <time>2021-07-07T11:58:07+0200</time>
      </trkpt>
      <trkpt lat="45.56794" lon="2.92871">
        <ele>878.484177</ele>
        <time>2021-07-07T11:58:09+0200</time>
      </trkpt>
      <trkpt lat="45.5679" lon="2.92865">
        <ele>878.166645</ele>
        <time>2021-07-07T11:58:11+0200</time>
      </trkpt>
      <trkpt lat="45.56788" lon="2.92859">
        <ele>878.313064</ele>
        <time>2021-07-07T11:58:13+0200</time>
      </trkpt>
      <trkpt lat="45.56784" lon="2.92851">
        <ele>878.527639</ele>
        <time>2021-07-07T11:58:16+0200</time>
      </trkpt>
      <trkpt lat="45.5678" lon="2.92844">
        <ele>878.834104</ele>
        <time>2021-07-07T11:58:18+0200</time>
      </trkpt>
      <trkpt lat="45.56777" lon="2.92837">
        <ele>878.657724</ele>
        <time>2021-07-07T11:58:20+0200</time>
      </trkpt>
      <trkpt lat="45.56774" lon="2.92831">
        <ele>877.91691</ele>
        <time>2021-07-07T11:58:22+0200</time>
      </trkpt>
      <trkpt lat="45.56773" lon="2.92824">
        <ele>878.207035</ele>
        <time>2021-07-07T11:58:24+0200</time>
      </trkpt>
      <trkpt lat="45.56771" lon="2.92813">
        <ele>878.941048</ele>
        <time>2021-07-07T11:58:26+0200</time>
      </trkpt>
      <trkpt lat="45.5677" lon="2.92803">
        <ele>880.481104</ele>
        <time>2021-07-07T11:58:28+0200</time>
      </trkpt>
      <trkpt lat="45.56768" lon="2.92792">
        <ele>881.801587</ele>
        <time>2021-07-07T11:58:30+0200</time>
      </trkpt>
      <trkpt lat="45.56769" lon="2.92785">
        <ele>882.95418</ele>
        <time>2021-07-07T11:58:31+0200</time>
      </trkpt>
      <trkpt lat="45.56769" lon="2.92773">
        <ele>883.400253</ele>
        <time>2021-07-07T11:58:33+0200</time>
      </trkpt>
      <trkpt lat="45.56768" lon="2.92765">
        <ele>883.226096</ele>
        <time>2021-07-07T11:58:34+0200</time>
      </trkpt>
      <trkpt lat="45.56769" lon="2.92757">
        <ele>882.956521</ele>
        <time>2021-07-07T11:58:35+0200</time>
      </trkpt>
      <trkpt lat="45.56768" lon="2.92749">
        <ele>882.552294</ele>
        <time>2021-07-07T11:58:36+0200</time>
      </trkpt>
      <trkpt lat="45.56768" lon="2.9274">
        <ele>882.758291</ele>
        <time>2021-07-07T11:58:37+0200</time>
      </trkpt>
      <trkpt lat="45.56768" lon="2.92732">
        <ele>882.527028</ele>
        <time>2021-07-07T11:58:38+0200</time>
      </trkpt>
      <trkpt lat="45.56766" lon="2.92724">
        <ele>882.663691</ele>
        <time>2021-07-07T11:58:39+0200</time>
      </trkpt>
      <trkpt lat="45.56767" lon="2.92716">
        <ele>882.483619</ele>
        <time>2021-07-07T11:58:40+0200</time>
      </trkpt>
      <trkpt lat="45.56765" lon="2.92706">
        <ele>881.459232</ele>
        <time>2021-07-07T11:58:41+0200</time>
      </trkpt>
      <trkpt lat="45.56763" lon="2.92697">
        <ele>881.301825</ele>
        <time>2021-07-07T11:58:42+0200</time>
      </trkpt>
      <trkpt lat="45.56762" lon="2.92688">
        <ele>881.189994</ele>
        <time>2021-07-07T11:58:43+0200</time>
      </trkpt>
      <trkpt lat="45.56762" lon="2.92679">
        <ele>881.520896</ele>
        <time>2021-07-07T11:58:44+0200</time>
      </trkpt>
      <trkpt lat="45.5676" lon="2.92671">
        <ele>881.763496</ele>
        <time>2021-07-07T11:58:45+0200</time>
      </trkpt>
      <trkpt lat="45.5676" lon="2.92663">
        <ele>882.083538</ele>
        <time>2021-07-07T11:58:46+0200</time>
      </trkpt>
      <trkpt lat="45.5676" lon="2.92655">
        <ele>882.300164</ele>
        <time>2021-07-07T11:58:47+0200</time>
      </trkpt>
      <trkpt lat="45.5676" lon="2.92646">
        <ele>882.026513</ele>
        <time>2021-07-07T11:58:48+0200</time>
      </trkpt>
      <trkpt lat="45.56758" lon="2.92638">
        <ele>882.4612</ele>
        <time>2021-07-07T11:58:49+0200</time>
      </trkpt>
      <trkpt lat="45.56758" lon="2.9263">
        <ele>882.792427</ele>
        <time>2021-07-07T11:58:50+0200</time>
      </trkpt>
      <trkpt lat="45.56758" lon="2.9262">
        <ele>882.92818</ele>
        <time>2021-07-07T11:58:51+0200</time>
      </trkpt>
      <trkpt lat="45.56758" lon="2.92611">
        <ele>883.385188</ele>
        <time>2021-07-07T11:58:52+0200</time>
      </trkpt>
      <trkpt lat="45.56758" lon="2.92602">
        <ele>883.438378</ele>
        <time>2021-07-07T11:58:53+0200</time>
      </trkpt>
      <trkpt lat="45.56761" lon="2.92592">
        <ele>883.734724</ele>
        <time>2021-07-07T11:58:54+0200</time>
      </trkpt>
      <trkpt lat="45.5676" lon="2.92583">
        <ele>883.204239</ele>
        <time>2021-07-07T11:58:55+0200</time>
      </trkpt>
      <trkpt lat="45.56758" lon="2.92574">
        <ele>883.156696</ele>
        <time>2021-07-07T11:58:56+0200</time>
      </trkpt>
      <trkpt lat="45.56757" lon="2.92564">
        <ele>882.941445</ele>
        <time>2021-07-07T11:58:57+0200</time>
      </trkpt>
      <trkpt lat="45.56756" lon="2.92555">
        <ele>882.573672</ele>
        <time>2021-07-07T11:58:58+0200</time>
      </trkpt>
      <trkpt lat="45.56755" lon="2.92546">
        <ele>882.427836</ele>
        <time>2021-07-07T11:58:59+0200</time>
      </trkpt>
      <trkpt lat="45.56756" lon="2.92537">
        <ele>882.623587</ele>
        <time>2021-07-07T11:59:00+0200</time>
      </trkpt>
      <trkpt lat="45.56757" lon="2.92527">
        <ele>882.970911</ele>
        <time>2021-07-07T11:59:01+0200</time>
      </trkpt>
      <trkpt lat="45.56758" lon="2.92518">
        <ele>883.112197</ele>
        <time>2021-07-07T11:59:02+0200</time>
      </trkpt>
      <trkpt lat="45.56757" lon="2.92509">
        <ele>882.195054</ele>
        <time>2021-07-07T11:59:03+0200</time>
      </trkpt>
      <trkpt lat="45.56756" lon="2.92501">
        <ele>882.402462</ele>
        <time>2021-07-07T11:59:04+0200</time>
      </trkpt>
      <trkpt lat="45.56757" lon="2.92492">
        <ele>882.437159</ele>
        <time>2021-07-07T11:59:05+0200</time>
      </trkpt>
      <trkpt lat="45.56757" lon="2.92485">
        <ele>882.193124</ele>
        <time>2021-07-07T11:59:06+0200</time>
      </trkpt>
      <trkpt lat="45.56757" lon="2.92476">
        <ele>881.304105</ele>
        <time>2021-07-07T11:59:07+0200</time>
      </trkpt>
      <trkpt lat="45.56758" lon="2.92467">
        <ele>880.949577</ele>
        <time>2021-07-07T11:59:08+0200</time>
      </trkpt>
      <trkpt lat="45.56759" lon="2.92459">
        <ele>880.725393</ele>
        <time>2021-07-07T11:59:09+0200</time>
      </trkpt>
      <trkpt lat="45.56759" lon="2.9245">
        <ele>880.576303</ele>
        <time>2021-07-07T11:59:10+0200</time>
      </trkpt>
      <trkpt lat="45.56759" lon="2.92441">
        <ele>880.369691</ele>
        <time>2021-07-07T11:59:11+0200</time>
      </trkpt>
      <trkpt lat="45.56758" lon="2.92434">
        <ele>880.800444</ele>
        <time>2021-07-07T11:59:12+0200</time>
      </trkpt>
      <trkpt lat="45.56758" lon="2.92426">
        <ele>880.651369</ele>
        <time>2021-07-07T11:59:13+0200</time>
      </trkpt>
      <trkpt lat="45.56756" lon="2.92419">
        <ele>880.510991</ele>
        <time>2021-07-07T11:59:14+0200</time>
      </trkpt>
      <trkpt lat="45.56756" lon="2.92412">
        <ele>880.607971</ele>
        <time>2021-07-07T11:59:15+0200</time>
      </trkpt>
      <trkpt lat="45.56754" lon="2.92404">
        <ele>880.869942</ele>
        <time>2021-07-07T11:59:16+0200</time>
      </trkpt>
      <trkpt lat="45.56754" lon="2.92396">
        <ele>881.002104</ele>
        <time>2021-07-07T11:59:17+0200</time>
      </trkpt>
      <trkpt lat="45.56752" lon="2.92386">
        <ele>881.19868</ele>
        <time>2021-07-07T11:59:18+0200</time>
      </trkpt>
      <trkpt lat="45.56751" lon="2.92378">
        <ele>881.038351</ele>
        <time>2021-07-07T11:59:19+0200</time>
      </trkpt>
      <trkpt lat="45.56748" lon="2.9237">
        <ele>881.273336</ele>
        <time>2021-07-07T11:59:20+0200</time>
      </trkpt>
      <trkpt lat="45.56745" lon="2.92362">
        <ele>881.144853</ele>
        <time>2021-07-07T11:59:21+0200</time>
      </trkpt>
      <trkpt lat="45.56743" lon="2.92354">
        <ele>880.995421</ele>
        <time>2021-07-07T11:59:22+0200</time>
      </trkpt>
      <trkpt lat="45.5674" lon="2.92346">
        <ele>881.404047</ele>
        <time>2021-07-07T11:59:23+0200</time>
      </trkpt>
      <trkpt lat="45.56736" lon="2.92333">
        <ele>882.195118</ele>
        <time>2021-07-07T11:59:25+0200</time>
      </trkpt>
      <trkpt lat="45.5673" lon="2.92328">
        <ele>882.780768</ele>
        <time>2021-07-07T11:59:26+0200</time>
      </trkpt>
      <trkpt lat="45.56727" lon="2.92321">
        <ele>882.819531</ele>
        <time>2021-07-07T11:59:27+0200</time>
      </trkpt>
      <trkpt lat="45.56724" lon="2.92313">
        <ele>882.537947</ele>
        <time>2021-07-07T11:59:28+0200</time>
      </trkpt>
      <trkpt lat="45.56722" lon="2.92306">
        <ele>882.131336</ele>
        <time>2021-07-07T11:59:29+0200</time>
      </trkpt>
      <trkpt lat="45.56718" lon="2.923">
        <ele>881.860401</ele>
        <time>2021-07-07T11:59:30+0200</time>
      </trkpt>
      <trkpt lat="45.56714" lon="2.92292">
        <ele>881.949877</ele>
        <time>2021-07-07T11:59:32+0200</time>
      </trkpt>
      <trkpt lat="45.56712" lon="2.92285">
        <ele>881.791681</ele>
        <time>2021-07-07T11:59:34+0200</time>
      </trkpt>
      <trkpt lat="45.56709" lon="2.92277">
        <ele>881.005091</ele>
        <time>2021-07-07T11:59:38+0200</time>
      </trkpt>
      <trkpt lat="45.56714" lon="2.92275">
        <ele>880.495908</ele>
        <time>2021-07-07T11:59:42+0200</time>
      </trkpt>
      <trkpt lat="45.56719" lon="2.92281">
        <ele>880.391758</ele>
        <time>2021-07-07T11:59:46+0200</time>
      </trkpt>
      <trkpt lat="45.56719" lon="2.92288">
        <ele>879.026186</ele>
        <time>2021-07-07T11:59:50+0200</time>
      </trkpt>
      <trkpt lat="45.56722" lon="2.92295">
        <ele>878.32516</ele>
        <time>2021-07-07T11:59:55+0200</time>
      </trkpt>
      <trkpt lat="45.56726" lon="2.92302">
        <ele>876.593291</ele>
        <time>2021-07-07T11:59:59+0200</time>
      </trkpt>
      <trkpt lat="45.56728" lon="2.92308">
        <ele>876.192684</ele>
        <time>2021-07-07T12:00:02+0200</time>
      </trkpt>
      <trkpt lat="45.56782" lon="2.92959">
        <ele>880.899612</ele>
        <time>2021-07-07T12:44:09+0200</time>
      </trkpt>
      <trkpt lat="45.56787" lon="2.9296">
        <ele>879.448371</ele>
        <time>2021-07-07T12:44:21+0200</time>
      </trkpt>
      <trkpt lat="45.56785" lon="2.92954">
        <ele>878.19584</ele>
        <time>2021-07-07T12:45:28+0200</time>
      </trkpt>
      <trkpt lat="45.56787" lon="2.9296">
        <ele>879.216853</ele>
        <time>2021-07-07T12:45:33+0200</time>
      </trkpt>
      <trkpt lat="45.56783" lon="2.92964">
        <ele>880.013596</ele>
        <time>2021-07-07T12:45:51+0200</time>
      </trkpt>
      <trkpt lat="45.56786" lon="2.92958">
        <ele>880.042711</ele>
        <time>2021-07-07T12:46:16+0200</time>
      </trkpt>
      <trkpt lat="45.56788" lon="2.92964">
        <ele>879.863049</ele>
        <time>2021-07-07T12:46:27+0200</time>
      </trkpt>
      <trkpt lat="45.56784" lon="2.92967">
        <ele>879.476961</ele>
        <time>2021-07-07T12:46:34+0200</time>
      </trkpt>
      <trkpt lat="45.56785" lon="2.92975">
        <ele>879.387634</ele>
        <time>2021-07-07T12:46:39+0200</time>
      </trkpt>
      <trkpt lat="45.56786" lon="2.92983">
        <ele>879.75415</ele>
        <time>2021-07-07T12:46:41+0200</time>
      </trkpt>
      <trkpt lat="45.56787" lon="2.92993">
        <ele>880.499869</ele>
        <time>2021-07-07T12:46:43+0200</time>
      </trkpt>
      <trkpt lat="45.56787" lon="2.93002">
        <ele>880.966135</ele>
        <time>2021-07-07T12:46:45+0200</time>
      </trkpt>
      <trkpt lat="45.56788" lon="2.93009">
        <ele>880.861721</ele>
        <time>2021-07-07T12:46:46+0200</time>
      </trkpt>
      <trkpt lat="45.56789" lon="2.93016">
        <ele>880.699882</ele>
        <time>2021-07-07T12:46:47+0200</time>
      </trkpt>
      <trkpt lat="45.56788" lon="2.93022">
        <ele>880.857999</ele>
        <time>2021-07-07T12:46:48+0200</time>
      </trkpt>
      <trkpt lat="45.56787" lon="2.93029">
        <ele>881.033818</ele>
        <time>2021-07-07T12:46:49+0200</time>
      </trkpt>
      <trkpt lat="45.56788" lon="2.93039">
        <ele>881.53763</ele>
        <time>2021-07-07T12:46:51+0200</time>
      </trkpt>
      <trkpt lat="45.56784" lon="2.93046">
        <ele>881.838076</ele>
        <time>2021-07-07T12:46:53+0200</time>
      </trkpt>
      <trkpt lat="45.56781" lon="2.93054">
        <ele>882.598328</ele>
        <time>2021-07-07T12:46:55+0200</time>
      </trkpt>
      <trkpt lat="45.56775" lon="2.93063">
        <ele>883.484152</ele>
        <time>2021-07-07T12:46:57+0200</time>
      </trkpt>
      <trkpt lat="45.56773" lon="2.93069">
        <ele>883.626565</ele>
        <time>2021-07-07T12:46:58+0200</time>
      </trkpt>
      <trkpt lat="45.56772" lon="2.9308">
        <ele>883.71648</ele>
        <time>2021-07-07T12:47:00+0200</time>
      </trkpt>
      <trkpt lat="45.56773" lon="2.93088">
        <ele>884.242342</ele>
        <time>2021-07-07T12:47:02+0200</time>
      </trkpt>
      <trkpt lat="45.56775" lon="2.93098">
        <ele>884.66247</ele>
        <time>2021-07-07T12:47:04+0200</time>
      </trkpt>
      <trkpt lat="45.56778" lon="2.93108">
        <ele>885.576848</ele>
        <time>2021-07-07T12:47:06+0200</time>
      </trkpt>
      <trkpt lat="45.5678" lon="2.93117">
        <ele>887.357164</ele>
        <time>2021-07-07T12:47:08+0200</time>
      </trkpt>
      <trkpt lat="45.56782" lon="2.93125">
        <ele>887.73802</ele>
        <time>2021-07-07T12:47:10+0200</time>
      </trkpt>
      <trkpt lat="45.56784" lon="2.93133">
        <ele>887.714487</ele>
        <time>2021-07-07T12:47:12+0200</time>
      </trkpt>
      <trkpt lat="45.56787" lon="2.93141">
        <ele>888.094855</ele>
        <time>2021-07-07T12:47:14+0200</time>
      </trkpt>
      <trkpt lat="45.56788" lon="2.93154">
        <ele>888.137872</ele>
        <time>2021-07-07T12:47:16+0200</time>
      </trkpt>
      <trkpt lat="45.5679" lon="2.9316">
        <ele>888.095922</ele>
        <time>2021-07-07T12:47:18+0200</time>
      </trkpt>
      <trkpt lat="45.56792" lon="2.93167">
        <ele>888.611862</ele>
        <time>2021-07-07T12:47:20+0200</time>
      </trkpt>
      <trkpt lat="45.56794" lon="2.93175">
        <ele>889.692269</ele>
        <time>2021-07-07T12:47:22+0200</time>
      </trkpt>
      <trkpt lat="45.56797" lon="2.93185">
        <ele>888.862424</ele>
        <time>2021-07-07T12:47:24+0200</time>
      </trkpt>
      <trkpt lat="45.56799" lon="2.93194">
        <ele>889.615138</ele>
        <time>2021-07-07T12:47:26+0200</time>
      </trkpt>
      <trkpt lat="45.568" lon="2.93203">
        <ele>890.52105</ele>
        <time>2021-07-07T12:47:28+0200</time>
      </trkpt>
      <trkpt lat="45.56804" lon="2.93212">
        <ele>889.774621</ele>
        <time>2021-07-07T12:47:30+0200</time>
      </trkpt>
      <trkpt lat="45.56805" lon="2.9322">
        <ele>890.246773</ele>
        <time>2021-07-07T12:47:32+0200</time>
      </trkpt>
      <trkpt lat="45.56806" lon="2.93228">
        <ele>890.452332</ele>
        <time>2021-07-07T12:47:34+0200</time>
      </trkpt>
      <trkpt lat="45.56805" lon="2.93235">
        <ele>890.136399</ele>
        <time>2021-07-07T12:47:36+0200</time>
      </trkpt>
      <trkpt lat="45.56807" lon="2.93245">
        <ele>891.064147</ele>
        <time>2021-07-07T12:47:39+0200</time>
      </trkpt>
      <trkpt lat="45.56811" lon="2.93255">
        <ele>891.312557</ele>
        <time>2021-07-07T12:47:41+0200</time>
      </trkpt>
      <trkpt lat="45.56813" lon="2.93264">
        <ele>891.431957</ele>
        <time>2021-07-07T12:47:43+0200</time>
      </trkpt>
      <trkpt lat="45.56814" lon="2.93272">
        <ele>892.761732</ele>
        <time>2021-07-07T12:47:45+0200</time>
      </trkpt>
      <trkpt lat="45.56816" lon="2.93278">
        <ele>893.261887</ele>
        <time>2021-07-07T12:47:47+0200</time>
      </trkpt>
      <trkpt lat="45.56817" lon="2.93287">
        <ele>894.057505</ele>
        <time>2021-07-07T12:47:50+0200</time>
      </trkpt>
      <trkpt lat="45.56818" lon="2.93294">
        <ele>895.762242</ele>
        <time>2021-07-07T12:47:53+0200</time>
      </trkpt>
      <trkpt lat="45.56818" lon="2.93301">
        <ele>897.268275</ele>
        <time>2021-07-07T12:47:56+0200</time>
      </trkpt>
      <trkpt lat="45.56818" lon="2.93307">
        <ele>897.726672</ele>
        <time>2021-07-07T12:47:58+0200</time>
      </trkpt>
      <trkpt lat="45.56816" lon="2.93314">
        <ele>898.122878</ele>
        <time>2021-07-07T12:48:00+0200</time>
      </trkpt>
      <trkpt lat="45.56817" lon="2.93322">
        <ele>899.185663</ele>
        <time>2021-07-07T12:48:03+0200</time>
      </trkpt>
      <trkpt lat="45.56816" lon="2.93328">
        <ele>899.240564</ele>
        <time>2021-07-07T12:48:06+0200</time>
      </trkpt>
      <trkpt lat="45.56817" lon="2.93335">
        <ele>898.841714</ele>
        <time>2021-07-07T12:48:08+0200</time>
      </trkpt>
      <trkpt lat="45.56818" lon="2.93343">
        <ele>898.953915</ele>
        <time>2021-07-07T12:48:10+0200</time>
      </trkpt>
      <trkpt lat="45.56817" lon="2.93351">
        <ele>899.95008</ele>
        <time>2021-07-07T12:48:13+0200</time>
      </trkpt>
      <trkpt lat="45.56815" lon="2.93358">
        <ele>901.752896</ele>
        <time>2021-07-07T12:48:16+0200</time>
      </trkpt>
      <trkpt lat="45.56812" lon="2.93365">
        <ele>902.058703</ele>
        <time>2021-07-07T12:48:18+0200</time>
      </trkpt>
      <trkpt lat="45.56811" lon="2.93371">
        <ele>901.845048</ele>
        <time>2021-07-07T12:48:20+0200</time>
      </trkpt>
      <trkpt lat="45.5681" lon="2.93378">
        <ele>901.760015</ele>
        <time>2021-07-07T12:48:22+0200</time>
      </trkpt>
      <trkpt lat="45.56809" lon="2.93386">
        <ele>901.995986</ele>
        <time>2021-07-07T12:48:25+0200</time>
      </trkpt>
      <trkpt lat="45.5681" lon="2.93396">
        <ele>901.484337</ele>
        <time>2021-07-07T12:48:28+0200</time>
      </trkpt>
      <trkpt lat="45.5681" lon="2.93403">
        <ele>901.087221</ele>
        <time>2021-07-07T12:48:30+0200</time>
      </trkpt>
      <trkpt lat="45.5681" lon="2.93411">
        <ele>901.430839</ele>
        <time>2021-07-07T12:48:32+0200</time>
      </trkpt>
      <trkpt lat="45.56811" lon="2.93418">
        <ele>901.95101</ele>
        <time>2021-07-07T12:48:42+0200</time>
      </trkpt>
      <trkpt lat="45.56812" lon="2.93425">
        <ele>902.160657</ele>
        <time>2021-07-07T12:48:44+0200</time>
      </trkpt>
      <trkpt lat="45.56812" lon="2.93433">
        <ele>902.452044</ele>
        <time>2021-07-07T12:48:46+0200</time>
      </trkpt>
      <trkpt lat="45.56813" lon="2.93442">
        <ele>902.859623</ele>
        <time>2021-07-07T12:48:49+0200</time>
      </trkpt>
      <trkpt lat="45.56815" lon="2.93448">
        <ele>903.241569</ele>
        <time>2021-07-07T12:48:51+0200</time>
      </trkpt>
      <trkpt lat="45.56815" lon="2.93456">
        <ele>903.733455</ele>
        <time>2021-07-07T12:48:54+0200</time>
      </trkpt>
      <trkpt lat="45.56816" lon="2.93463">
        <ele>904.256033</ele>
        <time>2021-07-07T12:48:57+0200</time>
      </trkpt>
      <trkpt lat="45.56818" lon="2.93471">
        <ele>904.279006</ele>
        <time>2021-07-07T12:49:00+0200</time>
      </trkpt>
      <trkpt lat="45.56818" lon="2.93477">
        <ele>904.54258</ele>
        <time>2021-07-07T12:49:02+0200</time>
      </trkpt>
      <trkpt lat="45.56818" lon="2.93486">
        <ele>904.411233</ele>
        <time>2021-07-07T12:49:05+0200</time>
      </trkpt>
      <trkpt lat="45.5682" lon="2.93493">
        <ele>904.141696</ele>
        <time>2021-07-07T12:49:08+0200</time>
      </trkpt>
      <trkpt lat="45.56821" lon="2.935">
        <ele>903.847801</ele>
        <time>2021-07-07T12:49:10+0200</time>
      </trkpt>
      <trkpt lat="45.56823" lon="2.93509">
        <ele>903.806449</ele>
        <time>2021-07-07T12:49:13+0200</time>
      </trkpt>
      <trkpt lat="45.56824" lon="2.93517">
        <ele>903.776192</ele>
        <time>2021-07-07T12:49:15+0200</time>
      </trkpt>
      <trkpt lat="45.56823" lon="2.93527">
        <ele>904.030123</ele>
        <time>2021-07-07T12:49:17+0200</time>
      </trkpt>
      <trkpt lat="45.56822" lon="2.93535">
        <ele>903.647193</ele>
        <time>2021-07-07T12:49:19+0200</time>
      </trkpt>
      <trkpt lat="45.56823" lon="2.93546">
        <ele>903.239778</ele>
        <time>2021-07-07T12:49:21+0200</time>
      </trkpt>
      <trkpt lat="45.56824" lon="2.93554">
        <ele>902.909997</ele>
        <time>2021-07-07T12:49:23+0200</time>
      </trkpt>
      <trkpt lat="45.56824" lon="2.93563">
        <ele>902.418001</ele>
        <time>2021-07-07T12:49:25+0200</time>
      </trkpt>
      <trkpt lat="45.56824" lon="2.9357">
        <ele>902.217675</ele>
        <time>2021-07-07T12:49:27+0200</time>
      </trkpt>
      <trkpt lat="45.56824" lon="2.93577">
        <ele>901.728566</ele>
        <time>2021-07-07T12:49:29+0200</time>
      </trkpt>
      <trkpt lat="45.56825" lon="2.93585">
        <ele>901.013979</ele>
        <time>2021-07-07T12:49:31+0200</time>
      </trkpt>
      <trkpt lat="45.56826" lon="2.93594">
        <ele>900.424319</ele>
        <time>2021-07-07T12:49:33+0200</time>
      </trkpt>
      <trkpt lat="45.56825" lon="2.93601">
        <ele>900.688213</ele>
        <time>2021-07-07T12:49:35+0200</time>
      </trkpt>
      <trkpt lat="45.56826" lon="2.9361">
        <ele>899.917632</ele>
        <time>2021-07-07T12:49:37+0200</time>
      </trkpt>
      <trkpt lat="45.56826" lon="2.93618">
        <ele>899.081824</ele>
        <time>2021-07-07T12:49:40+0200</time>
      </trkpt>
      <trkpt lat="45.56828" lon="2.93625">
        <ele>898.166505</ele>
        <time>2021-07-07T12:49:42+0200</time>
      </trkpt>
      <trkpt lat="45.56829" lon="2.93638">
        <ele>897.772661</ele>
        <time>2021-07-07T12:49:44+0200</time>
      </trkpt>
      <trkpt lat="45.56828" lon="2.93646">
        <ele>897.09756</ele>
        <time>2021-07-07T12:49:45+0200</time>
      </trkpt>
      <trkpt lat="45.56831" lon="2.93657">
        <ele>896.196641</ele>
        <time>2021-07-07T12:49:46+0200</time>
      </trkpt>
      <trkpt lat="45.56832" lon="2.93665">
        <ele>895.411619</ele>
        <time>2021-07-07T12:49:47+0200</time>
      </trkpt>
      <trkpt lat="45.56834" lon="2.93676">
        <ele>895.034968</ele>
        <time>2021-07-07T12:49:48+0200</time>
      </trkpt>
      <trkpt lat="45.56834" lon="2.93687">
        <ele>893.976351</ele>
        <time>2021-07-07T12:49:49+0200</time>
      </trkpt>
      <trkpt lat="45.56836" lon="2.93699">
        <ele>893.163353</ele>
        <time>2021-07-07T12:49:50+0200</time>
      </trkpt>
      <trkpt lat="45.56837" lon="2.93712">
        <ele>892.181313</ele>
        <time>2021-07-07T12:49:51+0200</time>
      </trkpt>
      <trkpt lat="45.5684" lon="2.93725">
        <ele>890.591565</ele>
        <time>2021-07-07T12:49:52+0200</time>
      </trkpt>
      <trkpt lat="45.56844" lon="2.93738">
        <ele>889.125733</ele>
        <time>2021-07-07T12:49:53+0200</time>
      </trkpt>
      <trkpt lat="45.56848" lon="2.93752">
        <ele>887.661727</ele>
        <time>2021-07-07T12:49:54+0200</time>
      </trkpt>
      <trkpt lat="45.56853" lon="2.93766">
        <ele>886.197634</ele>
        <time>2021-07-07T12:49:55+0200</time>
      </trkpt>
      <trkpt lat="45.56857" lon="2.93779">
        <ele>884.809847</ele>
        <time>2021-07-07T12:49:56+0200</time>
      </trkpt>
      <trkpt lat="45.5686" lon="2.93792">
        <ele>884.186383</ele>
        <time>2021-07-07T12:49:57+0200</time>
      </trkpt>
      <trkpt lat="45.56863" lon="2.93801">
        <ele>883.110451</ele>
        <time>2021-07-07T12:49:58+0200</time>
      </trkpt>
      <trkpt lat="45.56865" lon="2.93809">
        <ele>882.446269</ele>
        <time>2021-07-07T12:49:59+0200</time>
      </trkpt>
      <trkpt lat="45.56867" lon="2.93815">
        <ele>881.609823</ele>
        <time>2021-07-07T12:50:00+0200</time>
      </trkpt>
      <trkpt lat="45.56868" lon="2.93823">
        <ele>880.945716</ele>
        <time>2021-07-07T12:50:01+0200</time>
      </trkpt>
      <trkpt lat="45.5687" lon="2.93831">
        <ele>880.20033</ele>
        <time>2021-07-07T12:50:02+0200</time>
      </trkpt>
      <trkpt lat="45.56874" lon="2.93839">
        <ele>879.454648</ele>
        <time>2021-07-07T12:50:03+0200</time>
      </trkpt>
      <trkpt lat="45.56874" lon="2.93846">
        <ele>878.464951</ele>
        <time>2021-07-07T12:50:04+0200</time>
      </trkpt>
      <trkpt lat="45.5687" lon="2.93849">
        <ele>877.696372</ele>
        <time>2021-07-07T12:50:05+0200</time>
      </trkpt>
      <trkpt lat="45.56863" lon="2.9384">
        <ele>879.843751</ele>
        <time>2021-07-07T12:50:07+0200</time>
      </trkpt>
      <trkpt lat="45.56858" lon="2.93833">
        <ele>879.707662</ele>
        <time>2021-07-07T12:50:09+0200</time>
      </trkpt>
      <trkpt lat="45.56853" lon="2.93827">
        <ele>879.859811</ele>
        <time>2021-07-07T12:50:11+0200</time>
      </trkpt>
      <trkpt lat="45.56849" lon="2.93821">
        <ele>880.088526</ele>
        <time>2021-07-07T12:50:13+0200</time>
      </trkpt>
      <trkpt lat="45.56844" lon="2.93816">
        <ele>880.208302</ele>
        <time>2021-07-07T12:50:15+0200</time>
      </trkpt>
      <trkpt lat="45.56839" lon="2.93809">
        <ele>879.88793</ele>
        <time>2021-07-07T12:50:17+0200</time>
      </trkpt>
      <trkpt lat="45.56834" lon="2.93803">
        <ele>880.251839</ele>
        <time>2021-07-07T12:50:19+0200</time>
      </trkpt>
      <trkpt lat="45.56829" lon="2.93797">
        <ele>880.422405</ele>
        <time>2021-07-07T12:50:21+0200</time>
      </trkpt>
      <trkpt lat="45.56824" lon="2.9379">
        <ele>880.69816</ele>
        <time>2021-07-07T12:50:23+0200</time>
      </trkpt>
      <trkpt lat="45.5682" lon="2.93784">
        <ele>880.827382</ele>
        <time>2021-07-07T12:50:25+0200</time>
      </trkpt>
      <trkpt lat="45.56816" lon="2.9378">
        <ele>881.994043</ele>
        <time>2021-07-07T12:50:27+0200</time>
      </trkpt>
      <trkpt lat="45.56812" lon="2.93773">
        <ele>881.938801</ele>
        <time>2021-07-07T12:50:29+0200</time>
      </trkpt>
      <trkpt lat="45.56807" lon="2.93766">
        <ele>881.951</ele>
        <time>2021-07-07T12:50:31+0200</time>
      </trkpt>
      <trkpt lat="45.56804" lon="2.93758">
        <ele>882.094237</ele>
        <time>2021-07-07T12:50:33+0200</time>
      </trkpt>
      <trkpt lat="45.568" lon="2.9375">
        <ele>881.383591</ele>
        <time>2021-07-07T12:50:35+0200</time>
      </trkpt>
      <trkpt lat="45.56797" lon="2.93743">
        <ele>881.232939</ele>
        <time>2021-07-07T12:50:37+0200</time>
      </trkpt>
      <trkpt lat="45.56794" lon="2.93734">
        <ele>882.227321</ele>
        <time>2021-07-07T12:50:39+0200</time>
      </trkpt>
      <trkpt lat="45.5679" lon="2.93728">
        <ele>882.983728</ele>
        <time>2021-07-07T12:50:41+0200</time>
      </trkpt>
      <trkpt lat="45.56787" lon="2.9372">
        <ele>883.514141</ele>
        <time>2021-07-07T12:50:43+0200</time>
      </trkpt>
      <trkpt lat="45.56784" lon="2.93714">
        <ele>883.800174</ele>
        <time>2021-07-07T12:50:45+0200</time>
      </trkpt>
      <trkpt lat="45.56781" lon="2.93708">
        <ele>884.395351</ele>
        <time>2021-07-07T12:50:47+0200</time>
      </trkpt>
      <trkpt lat="45.56777" lon="2.93701">
        <ele>884.805831</ele>
        <time>2021-07-07T12:50:49+0200</time>
      </trkpt>
      <trkpt lat="45.56774" lon="2.93694">
        <ele>884.568286</ele>
        <time>2021-07-07T12:50:51+0200</time>
      </trkpt>
      <trkpt lat="45.56771" lon="2.93687">
        <ele>885.198788</ele>
        <time>2021-07-07T12:50:53+0200</time>
      </trkpt>
      <trkpt lat="45.56767" lon="2.93681">
        <ele>885.618697</ele>
        <time>2021-07-07T12:50:55+0200</time>
      </trkpt>
      <trkpt lat="45.56765" lon="2.93675">
        <ele>886.815556</ele>
        <time>2021-07-07T12:50:57+0200</time>
      </trkpt>
      <trkpt lat="45.56763" lon="2.93668">
        <ele>888.25873</ele>
        <time>2021-07-07T12:50:59+0200</time>
      </trkpt>
      <trkpt lat="45.56761" lon="2.93661">
        <ele>888.944119</ele>
        <time>2021-07-07T12:51:01+0200</time>
      </trkpt>
      <trkpt lat="45.56758" lon="2.93655">
        <ele>889.467091</ele>
        <time>2021-07-07T12:51:03+0200</time>
      </trkpt>
      <trkpt lat="45.56757" lon="2.93648">
        <ele>890.208844</ele>
        <time>2021-07-07T12:51:05+0200</time>
      </trkpt>
      <trkpt lat="45.56754" lon="2.93641">
        <ele>891.261699</ele>
        <time>2021-07-07T12:51:07+0200</time>
      </trkpt>
      <trkpt lat="45.56751" lon="2.93633">
        <ele>893.411341</ele>
        <time>2021-07-07T12:51:10+0200</time>
      </trkpt>
      <trkpt lat="45.56749" lon="2.93627">
        <ele>893.612989</ele>
        <time>2021-07-07T12:51:12+0200</time>
      </trkpt>
      <trkpt lat="45.56748" lon="2.93619">
        <ele>893.929318</ele>
        <time>2021-07-07T12:51:14+0200</time>
      </trkpt>
      <trkpt lat="45.56745" lon="2.93612">
        <ele>894.206788</ele>
        <time>2021-07-07T12:51:16+0200</time>
      </trkpt>
      <trkpt lat="45.56744" lon="2.93605">
        <ele>894.174962</ele>
        <time>2021-07-07T12:51:18+0200</time>
      </trkpt>
      <trkpt lat="45.56742" lon="2.93597">
        <ele>894.348986</ele>
        <time>2021-07-07T12:51:20+0200</time>
      </trkpt>
      <trkpt lat="45.56739" lon="2.93589">
        <ele>894.493551</ele>
        <time>2021-07-07T12:51:22+0200</time>
      </trkpt>
      <trkpt lat="45.56738" lon="2.93579">
        <ele>895.879773</ele>
        <time>2021-07-07T12:51:25+0200</time>
      </trkpt>
      <trkpt lat="45.56737" lon="2.93572">
        <ele>896.556252</ele>
        <time>2021-07-07T12:51:27+0200</time>
      </trkpt>
      <trkpt lat="45.56736" lon="2.93563">
        <ele>897.081134</ele>
        <time>2021-07-07T12:51:30+0200</time>
      </trkpt>
      <trkpt lat="45.56733" lon="2.93556">
        <ele>897.912659</ele>
        <time>2021-07-07T12:51:33+0200</time>
      </trkpt>
      <trkpt lat="45.5673" lon="2.93548">
        <ele>898.552079</ele>
        <time>2021-07-07T12:51:36+0200</time>
      </trkpt>
      <trkpt lat="45.56728" lon="2.9354">
        <ele>898.412445</ele>
        <time>2021-07-07T12:51:39+0200</time>
      </trkpt>
      <trkpt lat="45.56726" lon="2.93531">
        <ele>899.393225</ele>
        <time>2021-07-07T12:51:42+0200</time>
      </trkpt>
      <trkpt lat="45.56724" lon="2.93523">
        <ele>899.315514</ele>
        <time>2021-07-07T12:51:45+0200</time>
      </trkpt>
      <trkpt lat="45.56722" lon="2.93517">
        <ele>899.700592</ele>
        <time>2021-07-07T12:51:47+0200</time>
      </trkpt>
      <trkpt lat="45.56721" lon="2.9351">
        <ele>900.550649</ele>
        <time>2021-07-07T12:51:50+0200</time>
      </trkpt>
      <trkpt lat="45.56718" lon="2.93505">
        <ele>901.047417</ele>
        <time>2021-07-07T12:51:52+0200</time>
      </trkpt>
      <trkpt lat="45.56713" lon="2.93502">
        <ele>901.389309</ele>
        <time>2021-07-07T12:51:55+0200</time>
      </trkpt>
      <trkpt lat="45.56708" lon="2.93505">
        <ele>901.787678</ele>
        <time>2021-07-07T12:51:58+0200</time>
      </trkpt>
      <trkpt lat="45.56703" lon="2.93508">
        <ele>900.820253</ele>
        <time>2021-07-07T12:52:03+0200</time>
      </trkpt>
      <trkpt lat="45.56699" lon="2.9351">
        <ele>900.826286</ele>
        <time>2021-07-07T12:52:06+0200</time>
      </trkpt>
      <trkpt lat="45.56694" lon="2.93513">
        <ele>900.670233</ele>
        <time>2021-07-07T12:52:11+0200</time>
      </trkpt>
      <trkpt lat="45.56689" lon="2.93518">
        <ele>900.55009</ele>
        <time>2021-07-07T12:52:15+0200</time>
      </trkpt>
      <trkpt lat="45.56685" lon="2.93523">
        <ele>899.853322</ele>
        <time>2021-07-07T12:52:17+0200</time>
      </trkpt>
      <trkpt lat="45.56677" lon="2.93525">
        <ele>899.127857</ele>
        <time>2021-07-07T12:52:19+0200</time>
      </trkpt>
      <trkpt lat="45.56672" lon="2.93531">
        <ele>898.119026</ele>
        <time>2021-07-07T12:52:20+0200</time>
      </trkpt>
      <trkpt lat="45.56667" lon="2.93536">
        <ele>898.046552</ele>
        <time>2021-07-07T12:52:21+0200</time>
      </trkpt>
      <trkpt lat="45.5666" lon="2.93547">
        <ele>895.017917</ele>
        <time>2021-07-07T12:52:23+0200</time>
      </trkpt>
      <trkpt lat="45.56654" lon="2.93554">
        <ele>893.25698</ele>
        <time>2021-07-07T12:52:24+0200</time>
      </trkpt>
      <trkpt lat="45.56647" lon="2.93561">
        <ele>891.762614</ele>
        <time>2021-07-07T12:52:25+0200</time>
      </trkpt>
      <trkpt lat="45.5664" lon="2.93564">
        <ele>889.984034</ele>
        <time>2021-07-07T12:52:26+0200</time>
      </trkpt>
      <trkpt lat="45.56632" lon="2.93573">
        <ele>888.500207</ele>
        <time>2021-07-07T12:52:27+0200</time>
      </trkpt>
      <trkpt lat="45.56627" lon="2.9358">
        <ele>887.437972</ele>
        <time>2021-07-07T12:52:28+0200</time>
      </trkpt>
      <trkpt lat="45.56621" lon="2.93587">
        <ele>886.445097</ele>
        <time>2021-07-07T12:52:29+0200</time>
      </trkpt>
      <trkpt lat="45.56613" lon="2.93595">
        <ele>884.8404</ele>
        <time>2021-07-07T12:52:30+0200</time>
      </trkpt>
      <trkpt lat="45.56606" lon="2.93601">
        <ele>883.383665</ele>
        <time>2021-07-07T12:52:31+0200</time>
      </trkpt>
      <trkpt lat="45.56598" lon="2.9361">
        <ele>882.596799</ele>
        <time>2021-07-07T12:52:32+0200</time>
      </trkpt>
      <trkpt lat="45.5659" lon="2.93618">
        <ele>881.802737</ele>
        <time>2021-07-07T12:52:33+0200</time>
      </trkpt>
      <trkpt lat="45.56582" lon="2.93625">
        <ele>880.658977</ele>
        <time>2021-07-07T12:52:34+0200</time>
      </trkpt>
      <trkpt lat="45.56575" lon="2.93632">
        <ele>879.703763</ele>
        <time>2021-07-07T12:52:35+0200</time>
      </trkpt>
      <trkpt lat="45.5657" lon="2.93641">
        <ele>878.908016</ele>
        <time>2021-07-07T12:52:36+0200</time>
      </trkpt>
      <trkpt lat="45.56565" lon="2.93651">
        <ele>877.795745</ele>
        <time>2021-07-07T12:52:37+0200</time>
      </trkpt>
      <trkpt lat="45.56559" lon="2.93659">
        <ele>876.103933</ele>
        <time>2021-07-07T12:52:38+0200</time>
      </trkpt>
      <trkpt lat="45.56553" lon="2.93668">
        <ele>874.869339</ele>
        <time>2021-07-07T12:52:39+0200</time>
      </trkpt>
      <trkpt lat="45.56545" lon="2.93678">
        <ele>873.961088</ele>
        <time>2021-07-07T12:52:40+0200</time>
      </trkpt>
      <trkpt lat="45.56539" lon="2.93688">
        <ele>872.327958</ele>
        <time>2021-07-07T12:52:41+0200</time>
      </trkpt>
      <trkpt lat="45.56531" lon="2.93694">
        <ele>871.12076</ele>
        <time>2021-07-07T12:52:42+0200</time>
      </trkpt>
      <trkpt lat="45.56524" lon="2.93701">
        <ele>870.439225</ele>
        <time>2021-07-07T12:52:43+0200</time>
      </trkpt>
      <trkpt lat="45.56517" lon="2.93703">
        <ele>869.802031</ele>
        <time>2021-07-07T12:52:44+0200</time>
      </trkpt>
      <trkpt lat="45.5651" lon="2.93711">
        <ele>869.39219</ele>
        <time>2021-07-07T12:52:45+0200</time>
      </trkpt>
      <trkpt lat="45.56501" lon="2.93717">
        <ele>868.164506</ele>
        <time>2021-07-07T12:52:46+0200</time>
      </trkpt>
      <trkpt lat="45.56492" lon="2.93723">
        <ele>867.58937</ele>
        <time>2021-07-07T12:52:47+0200</time>
      </trkpt>
      <trkpt lat="45.56483" lon="2.93726">
        <ele>866.243503</ele>
        <time>2021-07-07T12:52:48+0200</time>
      </trkpt>
      <trkpt lat="45.56474" lon="2.93729">
        <ele>865.487371</ele>
        <time>2021-07-07T12:52:49+0200</time>
      </trkpt>
      <trkpt lat="45.56464" lon="2.93732">
        <ele>864.570366</ele>
        <time>2021-07-07T12:52:50+0200</time>
      </trkpt>
      <trkpt lat="45.56455" lon="2.93732">
        <ele>863.490579</ele>
        <time>2021-07-07T12:52:51+0200</time>
      </trkpt>
      <trkpt lat="45.56445" lon="2.93731">
        <ele>862.597988</ele>
        <time>2021-07-07T12:52:52+0200</time>
      </trkpt>
      <trkpt lat="45.56436" lon="2.9373">
        <ele>861.828404</ele>
        <time>2021-07-07T12:52:53+0200</time>
      </trkpt>
      <trkpt lat="45.56428" lon="2.93732">
        <ele>860.796103</ele>
        <time>2021-07-07T12:52:54+0200</time>
      </trkpt>
      <trkpt lat="45.5642" lon="2.93735">
        <ele>860.209913</ele>
        <time>2021-07-07T12:52:55+0200</time>
      </trkpt>
      <trkpt lat="45.56412" lon="2.93737">
        <ele>859.930154</ele>
        <time>2021-07-07T12:52:56+0200</time>
      </trkpt>
      <trkpt lat="45.56403" lon="2.9374">
        <ele>860.005406</ele>
        <time>2021-07-07T12:52:57+0200</time>
      </trkpt>
      <trkpt lat="45.56394" lon="2.9374">
        <ele>859.78841</ele>
        <time>2021-07-07T12:52:58+0200</time>
      </trkpt>
      <trkpt lat="45.56386" lon="2.9374">
        <ele>859.415123</ele>
        <time>2021-07-07T12:52:59+0200</time>
      </trkpt>
      <trkpt lat="45.56378" lon="2.93739">
        <ele>858.995455</ele>
        <time>2021-07-07T12:53:00+0200</time>
      </trkpt>
      <trkpt lat="45.56369" lon="2.93739">
        <ele>858.086724</ele>
        <time>2021-07-07T12:53:01+0200</time>
      </trkpt>
      <trkpt lat="45.56365" lon="2.93741">
        <ele>857.350754</ele>
        <time>2021-07-07T12:53:02+0200</time>
      </trkpt>
      <trkpt lat="45.56358" lon="2.93743">
        <ele>856.014796</ele>
        <time>2021-07-07T12:53:04+0200</time>
      </trkpt>
      <trkpt lat="45.56352" lon="2.93741">
        <ele>855.362425</ele>
        <time>2021-07-07T12:53:05+0200</time>
      </trkpt>
      <trkpt lat="45.56344" lon="2.93738">
        <ele>855.315336</ele>
        <time>2021-07-07T12:53:07+0200</time>
      </trkpt>
      <trkpt lat="45.56336" lon="2.93737">
        <ele>855.595042</ele>
        <time>2021-07-07T12:53:09+0200</time>
      </trkpt>
      <trkpt lat="45.56329" lon="2.93734">
        <ele>855.758131</ele>
        <time>2021-07-07T12:53:11+0200</time>
      </trkpt>
      <trkpt lat="45.56323" lon="2.93733">
        <ele>855.932109</ele>
        <time>2021-07-07T12:53:13+0200</time>
      </trkpt>
      <trkpt lat="45.56318" lon="2.93732">
        <ele>855.929986</ele>
        <time>2021-07-07T12:53:15+0200</time>
      </trkpt>
      <trkpt lat="45.56313" lon="2.93731">
        <ele>856.372491</ele>
        <time>2021-07-07T12:53:17+0200</time>
      </trkpt>
      <trkpt lat="45.56306" lon="2.9373">
        <ele>855.973049</ele>
        <time>2021-07-07T12:53:19+0200</time>
      </trkpt>
      <trkpt lat="45.56301" lon="2.93728">
        <ele>856.050356</ele>
        <time>2021-07-07T12:53:21+0200</time>
      </trkpt>
      <trkpt lat="45.56294" lon="2.93726">
        <ele>856.22492</ele>
        <time>2021-07-07T12:53:23+0200</time>
      </trkpt>
      <trkpt lat="45.56287" lon="2.93725">
        <ele>856.311703</ele>
        <time>2021-07-07T12:53:25+0200</time>
      </trkpt>
      <trkpt lat="45.56281" lon="2.93725">
        <ele>856.917056</ele>
        <time>2021-07-07T12:53:27+0200</time>
      </trkpt>
      <trkpt lat="45.56275" lon="2.93723">
        <ele>856.795548</ele>
        <time>2021-07-07T12:53:29+0200</time>
      </trkpt>
      <trkpt lat="45.5627" lon="2.9372">
        <ele>857.14928</ele>
        <time>2021-07-07T12:53:31+0200</time>
      </trkpt>
      <trkpt lat="45.56265" lon="2.93717">
        <ele>857.406139</ele>
        <time>2021-07-07T12:53:33+0200</time>
      </trkpt>
      <trkpt lat="45.5626" lon="2.93716">
        <ele>857.453603</ele>
        <time>2021-07-07T12:53:35+0200</time>
      </trkpt>
      <trkpt lat="45.56257" lon="2.93724">
        <ele>857.485439</ele>
        <time>2021-07-07T12:53:40+0200</time>
      </trkpt>
      <trkpt lat="45.56252" lon="2.93728">
        <ele>857.509071</ele>
        <time>2021-07-07T12:53:42+0200</time>
      </trkpt>
      <trkpt lat="45.56245" lon="2.9373">
        <ele>858.002978</ele>
        <time>2021-07-07T12:53:44+0200</time>
      </trkpt>
      <trkpt lat="45.5624" lon="2.93729">
        <ele>858.271949</ele>
        <time>2021-07-07T12:53:45+0200</time>
      </trkpt>
      <trkpt lat="45.56236" lon="2.93724">
        <ele>858.95303</ele>
        <time>2021-07-07T12:53:46+0200</time>
      </trkpt>
      <trkpt lat="45.56229" lon="2.93718">
        <ele>859.408143</ele>
        <time>2021-07-07T12:53:48+0200</time>
      </trkpt>
      <trkpt lat="45.56226" lon="2.93715">
        <ele>859.517927</ele>
        <time>2021-07-07T12:53:49+0200</time>
      </trkpt>
      <trkpt lat="45.56221" lon="2.93712">
        <ele>859.390296</ele>
        <time>2021-07-07T12:53:50+0200</time>
      </trkpt>
      <trkpt lat="45.56215" lon="2.93708">
        <ele>858.560186</ele>
        <time>2021-07-07T12:53:52+0200</time>
      </trkpt>
      <trkpt lat="45.56208" lon="2.93704">
        <ele>857.669097</ele>
        <time>2021-07-07T12:53:54+0200</time>
      </trkpt>
      <trkpt lat="45.562" lon="2.937">
        <ele>858.269631</ele>
        <time>2021-07-07T12:53:56+0200</time>
      </trkpt>
      <trkpt lat="45.56195" lon="2.93698">
        <ele>858.805691</ele>
        <time>2021-07-07T12:53:58+0200</time>
      </trkpt>
      <trkpt lat="45.5619" lon="2.93696">
        <ele>858.56696</ele>
        <time>2021-07-07T12:54:01+0200</time>
      </trkpt>
      <trkpt lat="45.56185" lon="2.93687">
        <ele>857.902241</ele>
        <time>2021-07-07T12:54:03+0200</time>
      </trkpt>
      <trkpt lat="45.56183" lon="2.9368">
        <ele>856.977601</ele>
        <time>2021-07-07T12:54:04+0200</time>
      </trkpt>
      <trkpt lat="45.56181" lon="2.93674">
        <ele>856.37759</ele>
        <time>2021-07-07T12:54:05+0200</time>
      </trkpt>
      <trkpt lat="45.56181" lon="2.93663">
        <ele>856.244436</ele>
        <time>2021-07-07T12:54:07+0200</time>
      </trkpt>
      <trkpt lat="45.56178" lon="2.93653">
        <ele>856.313226</ele>
        <time>2021-07-07T12:54:09+0200</time>
      </trkpt>
      <trkpt lat="45.56173" lon="2.93642">
        <ele>855.999796</ele>
        <time>2021-07-07T12:54:11+0200</time>
      </trkpt>
      <trkpt lat="45.56169" lon="2.93633">
        <ele>855.45868</ele>
        <time>2021-07-07T12:54:13+0200</time>
      </trkpt>
      <trkpt lat="45.56163" lon="2.93624">
        <ele>855.174458</ele>
        <time>2021-07-07T12:54:15+0200</time>
      </trkpt>
      <trkpt lat="45.56157" lon="2.93616">
        <ele>855.244042</ele>
        <time>2021-07-07T12:54:17+0200</time>
      </trkpt>
      <trkpt lat="45.5615" lon="2.93608">
        <ele>855.58611</ele>
        <time>2021-07-07T12:54:19+0200</time>
      </trkpt>
      <trkpt lat="45.56147" lon="2.93605">
        <ele>855.859457</ele>
        <time>2021-07-07T12:54:20+0200</time>
      </trkpt>
      <trkpt lat="45.56141" lon="2.93596">
        <ele>855.228122</ele>
        <time>2021-07-07T12:54:22+0200</time>
      </trkpt>
      <trkpt lat="45.56135" lon="2.93587">
        <ele>855.783216</ele>
        <time>2021-07-07T12:54:24+0200</time>
      </trkpt>
      <trkpt lat="45.56128" lon="2.93579">
        <ele>855.898519</ele>
        <time>2021-07-07T12:54:26+0200</time>
      </trkpt>
      <trkpt lat="45.56123" lon="2.93571">
        <ele>856.034423</ele>
        <time>2021-07-07T12:54:28+0200</time>
      </trkpt>
      <trkpt lat="45.56117" lon="2.93562">
        <ele>856.47101</ele>
        <time>2021-07-07T12:54:30+0200</time>
      </trkpt>
      <trkpt lat="45.56111" lon="2.93554">
        <ele>857.409904</ele>
        <time>2021-07-07T12:54:32+0200</time>
      </trkpt>
      <trkpt lat="45.56106" lon="2.93544">
        <ele>856.369702</ele>
        <time>2021-07-07T12:54:34+0200</time>
      </trkpt>
      <trkpt lat="45.56103" lon="2.93539">
        <ele>856.39282</ele>
        <time>2021-07-07T12:54:35+0200</time>
      </trkpt>
      <trkpt lat="45.56101" lon="2.93534">
        <ele>856.395347</ele>
        <time>2021-07-07T12:54:36+0200</time>
      </trkpt>
      <trkpt lat="45.56097" lon="2.93529">
        <ele>856.550071</ele>
        <time>2021-07-07T12:54:37+0200</time>
      </trkpt>
      <trkpt lat="45.56092" lon="2.93518">
        <ele>856.930182</ele>
        <time>2021-07-07T12:54:39+0200</time>
      </trkpt>
      <trkpt lat="45.5609" lon="2.93512">
        <ele>856.931338</ele>
        <time>2021-07-07T12:54:40+0200</time>
      </trkpt>
      <trkpt lat="45.56088" lon="2.93506">
        <ele>857.060243</ele>
        <time>2021-07-07T12:54:41+0200</time>
      </trkpt>
      <trkpt lat="45.56086" lon="2.93501">
        <ele>857.424446</ele>
        <time>2021-07-07T12:54:42+0200</time>
      </trkpt>
      <trkpt lat="45.56083" lon="2.9349">
        <ele>857.86565</ele>
        <time>2021-07-07T12:54:44+0200</time>
      </trkpt>
      <trkpt lat="45.56079" lon="2.93479">
        <ele>858.36696</ele>
        <time>2021-07-07T12:54:46+0200</time>
      </trkpt>
      <trkpt lat="45.56076" lon="2.93469">
        <ele>858.548717</ele>
        <time>2021-07-07T12:54:48+0200</time>
      </trkpt>
      <trkpt lat="45.56072" lon="2.93459">
        <ele>858.422316</ele>
        <time>2021-07-07T12:54:50+0200</time>
      </trkpt>
      <trkpt lat="45.56068" lon="2.93448">
        <ele>858.703557</ele>
        <time>2021-07-07T12:54:52+0200</time>
      </trkpt>
      <trkpt lat="45.56063" lon="2.93439">
        <ele>858.633186</ele>
        <time>2021-07-07T12:54:54+0200</time>
      </trkpt>
      <trkpt lat="45.5606" lon="2.9343">
        <ele>859.173334</ele>
        <time>2021-07-07T12:54:56+0200</time>
      </trkpt>
      <trkpt lat="45.56055" lon="2.9342">
        <ele>858.910464</ele>
        <time>2021-07-07T12:54:58+0200</time>
      </trkpt>
      <trkpt lat="45.56051" lon="2.93411">
        <ele>858.761927</ele>
        <time>2021-07-07T12:55:00+0200</time>
      </trkpt>
      <trkpt lat="45.56047" lon="2.93403">
        <ele>858.900578</ele>
        <time>2021-07-07T12:55:02+0200</time>
      </trkpt>
      <trkpt lat="45.56043" lon="2.93395">
        <ele>858.982416</ele>
        <time>2021-07-07T12:55:04+0200</time>
      </trkpt>
      <trkpt lat="45.56039" lon="2.93387">
        <ele>859.280737</ele>
        <time>2021-07-07T12:55:06+0200</time>
      </trkpt>
      <trkpt lat="45.56035" lon="2.93379">
        <ele>859.223833</ele>
        <time>2021-07-07T12:55:08+0200</time>
      </trkpt>
      <trkpt lat="45.56031" lon="2.93369">
        <ele>859.282507</ele>
        <time>2021-07-07T12:55:10+0200</time>
      </trkpt>
      <trkpt lat="45.56028" lon="2.93361">
        <ele>859.921931</ele>
        <time>2021-07-07T12:55:12+0200</time>
      </trkpt>
      <trkpt lat="45.56025" lon="2.93352">
        <ele>860.266987</ele>
        <time>2021-07-07T12:55:14+0200</time>
      </trkpt>
      <trkpt lat="45.56023" lon="2.93344">
        <ele>860.433186</ele>
        <time>2021-07-07T12:55:16+0200</time>
      </trkpt>
      <trkpt lat="45.56021" lon="2.93334">
        <ele>861.393631</ele>
        <time>2021-07-07T12:55:18+0200</time>
      </trkpt>
      <trkpt lat="45.56019" lon="2.93323">
        <ele>862.383837</ele>
        <time>2021-07-07T12:55:20+0200</time>
      </trkpt>
      <trkpt lat="45.56017" lon="2.93312">
        <ele>862.812986</ele>
        <time>2021-07-07T12:55:22+0200</time>
      </trkpt>
      <trkpt lat="45.56016" lon="2.93302">
        <ele>862.727994</ele>
        <time>2021-07-07T12:55:24+0200</time>
      </trkpt>
      <trkpt lat="45.56015" lon="2.93294">
        <ele>863.004299</ele>
        <time>2021-07-07T12:55:26+0200</time>
      </trkpt>
      <trkpt lat="45.56014" lon="2.93285">
        <ele>862.973271</ele>
        <time>2021-07-07T12:55:28+0200</time>
      </trkpt>
      <trkpt lat="45.56012" lon="2.93276">
        <ele>862.732348</ele>
        <time>2021-07-07T12:55:30+0200</time>
      </trkpt>
      <trkpt lat="45.5601" lon="2.93267">
        <ele>863.126866</ele>
        <time>2021-07-07T12:55:32+0200</time>
      </trkpt>
      <trkpt lat="45.56007" lon="2.93258">
        <ele>863.174168</ele>
        <time>2021-07-07T12:55:34+0200</time>
      </trkpt>
      <trkpt lat="45.56004" lon="2.93249">
        <ele>863.904014</ele>
        <time>2021-07-07T12:55:36+0200</time>
      </trkpt>
      <trkpt lat="45.56001" lon="2.93241">
        <ele>863.329803</ele>
        <time>2021-07-07T12:55:38+0200</time>
      </trkpt>
      <trkpt lat="45.55999" lon="2.93232">
        <ele>863.480266</ele>
        <time>2021-07-07T12:55:40+0200</time>
      </trkpt>
      <trkpt lat="45.55996" lon="2.93223">
        <ele>863.751241</ele>
        <time>2021-07-07T12:55:42+0200</time>
      </trkpt>
      <trkpt lat="45.55993" lon="2.93215">
        <ele>864.114113</ele>
        <time>2021-07-07T12:55:44+0200</time>
      </trkpt>
      <trkpt lat="45.5599" lon="2.93207">
        <ele>864.673359</ele>
        <time>2021-07-07T12:55:46+0200</time>
      </trkpt>
      <trkpt lat="45.55989" lon="2.93199">
        <ele>865.185248</ele>
        <time>2021-07-07T12:55:48+0200</time>
      </trkpt>
      <trkpt lat="45.55989" lon="2.93191">
        <ele>865.533362</ele>
        <time>2021-07-07T12:55:50+0200</time>
      </trkpt>
      <trkpt lat="45.55989" lon="2.93183">
        <ele>865.924909</ele>
        <time>2021-07-07T12:55:52+0200</time>
      </trkpt>
      <trkpt lat="45.55987" lon="2.93175">
        <ele>865.533833</ele>
        <time>2021-07-07T12:55:54+0200</time>
      </trkpt>
      <trkpt lat="45.55985" lon="2.93166">
        <ele>865.716921</ele>
        <time>2021-07-07T12:55:56+0200</time>
      </trkpt>
      <trkpt lat="45.55984" lon="2.93158">
        <ele>865.973956</ele>
        <time>2021-07-07T12:55:58+0200</time>
      </trkpt>
      <trkpt lat="45.55982" lon="2.93149">
        <ele>866.236021</ele>
        <time>2021-07-07T12:56:00+0200</time>
      </trkpt>
      <trkpt lat="45.5598" lon="2.93141">
        <ele>866.543725</ele>
        <time>2021-07-07T12:56:02+0200</time>
      </trkpt>
      <trkpt lat="45.55977" lon="2.93134">
        <ele>866.951759</ele>
        <time>2021-07-07T12:56:04+0200</time>
      </trkpt>
      <trkpt lat="45.55975" lon="2.93124">
        <ele>867.868447</ele>
        <time>2021-07-07T12:56:07+0200</time>
      </trkpt>
      <trkpt lat="45.55973" lon="2.93115">
        <ele>867.854517</ele>
        <time>2021-07-07T12:56:09+0200</time>
      </trkpt>
      <trkpt lat="45.5597" lon="2.93107">
        <ele>868.243936</ele>
        <time>2021-07-07T12:56:11+0200</time>
      </trkpt>
      <trkpt lat="45.55968" lon="2.93099">
        <ele>869.272516</ele>
        <time>2021-07-07T12:56:13+0200</time>
      </trkpt>
      <trkpt lat="45.55965" lon="2.93103">
        <ele>870.168266</ele>
        <time>2021-07-07T12:56:17+0200</time>
      </trkpt>
      <trkpt lat="45.55963" lon="2.93113">
        <ele>869.683624</ele>
        <time>2021-07-07T12:56:20+0200</time>
      </trkpt>
      <trkpt lat="45.55962" lon="2.93121">
        <ele>869.588068</ele>
        <time>2021-07-07T12:56:22+0200</time>
      </trkpt>
      <trkpt lat="45.55959" lon="2.93131">
        <ele>870.028417</ele>
        <time>2021-07-07T12:56:24+0200</time>
      </trkpt>
      <trkpt lat="45.55953" lon="2.93139">
        <ele>870.25486</ele>
        <time>2021-07-07T12:56:26+0200</time>
      </trkpt>
      <trkpt lat="45.55949" lon="2.93144">
        <ele>870.307795</ele>
        <time>2021-07-07T12:56:27+0200</time>
      </trkpt>
      <trkpt lat="45.55945" lon="2.93148">
        <ele>870.283027</ele>
        <time>2021-07-07T12:56:28+0200</time>
      </trkpt>
      <trkpt lat="45.55943" lon="2.93154">
        <ele>870.168551</ele>
        <time>2021-07-07T12:56:29+0200</time>
      </trkpt>
      <trkpt lat="45.55939" lon="2.93163">
        <ele>867.506706</ele>
        <time>2021-07-07T12:56:30+0200</time>
      </trkpt>
      <trkpt lat="45.55936" lon="2.93171">
        <ele>866.797952</ele>
        <time>2021-07-07T12:56:31+0200</time>
      </trkpt>
      <trkpt lat="45.55932" lon="2.93175">
        <ele>867.677282</ele>
        <time>2021-07-07T12:56:32+0200</time>
      </trkpt>
      <trkpt lat="45.55928" lon="2.93177">
        <ele>867.568813</ele>
        <time>2021-07-07T12:56:33+0200</time>
      </trkpt>
      <trkpt lat="45.55921" lon="2.93175">
        <ele>868.127274</ele>
        <time>2021-07-07T12:56:35+0200</time>
      </trkpt>
      <trkpt lat="45.55916" lon="2.93172">
        <ele>868.639128</ele>
        <time>2021-07-07T12:56:37+0200</time>
      </trkpt>
      <trkpt lat="45.55911" lon="2.93171">
        <ele>869.083528</ele>
        <time>2021-07-07T12:56:39+0200</time>
      </trkpt>
      <trkpt lat="45.55906" lon="2.93171">
        <ele>869.741979</ele>
        <time>2021-07-07T12:56:41+0200</time>
      </trkpt>
      <trkpt lat="45.559" lon="2.9317">
        <ele>870.578313</ele>
        <time>2021-07-07T12:56:43+0200</time>
      </trkpt>
      <trkpt lat="45.55893" lon="2.93172">
        <ele>871.422394</ele>
        <time>2021-07-07T12:56:46+0200</time>
      </trkpt>
      <trkpt lat="45.55888" lon="2.93174">
        <ele>872.555448</ele>
        <time>2021-07-07T12:56:48+0200</time>
      </trkpt>
      <trkpt lat="45.55884" lon="2.93178">
        <ele>873.377258</ele>
        <time>2021-07-07T12:56:50+0200</time>
      </trkpt>
      <trkpt lat="45.55882" lon="2.93187">
        <ele>873.627292</ele>
        <time>2021-07-07T12:56:53+0200</time>
      </trkpt>
      <trkpt lat="45.55881" lon="2.93194">
        <ele>873.570603</ele>
        <time>2021-07-07T12:56:55+0200</time>
      </trkpt>
      <trkpt lat="45.55879" lon="2.93201">
        <ele>873.391441</ele>
        <time>2021-07-07T12:56:57+0200</time>
      </trkpt>
      <trkpt lat="45.55878" lon="2.93208">
        <ele>873.794237</ele>
        <time>2021-07-07T12:57:00+0200</time>
      </trkpt>
      <trkpt lat="45.55875" lon="2.93214">
        <ele>874.13091</ele>
        <time>2021-07-07T12:57:02+0200</time>
      </trkpt>
      <trkpt lat="45.5587" lon="2.9322">
        <ele>874.962364</ele>
        <time>2021-07-07T12:57:05+0200</time>
      </trkpt>
      <trkpt lat="45.55867" lon="2.93227">
        <ele>875.39574</ele>
        <time>2021-07-07T12:57:08+0200</time>
      </trkpt>
      <trkpt lat="45.55867" lon="2.93235">
        <ele>875.724872</ele>
        <time>2021-07-07T12:57:11+0200</time>
      </trkpt>
      <trkpt lat="45.55864" lon="2.93243">
        <ele>877.988754</ele>
        <time>2021-07-07T12:57:14+0200</time>
      </trkpt>
      <trkpt lat="45.55863" lon="2.93249">
        <ele>879.142306</ele>
        <time>2021-07-07T12:57:17+0200</time>
      </trkpt>
      <trkpt lat="45.55863" lon="2.93256">
        <ele>879.099572</ele>
        <time>2021-07-07T12:57:19+0200</time>
      </trkpt>
      <trkpt lat="45.55863" lon="2.93264">
        <ele>880.780274</ele>
        <time>2021-07-07T12:57:22+0200</time>
      </trkpt>
      <trkpt lat="45.55865" lon="2.93273">
        <ele>881.256794</ele>
        <time>2021-07-07T12:57:25+0200</time>
      </trkpt>
      <trkpt lat="45.55867" lon="2.93279">
        <ele>881.383712</ele>
        <time>2021-07-07T12:57:27+0200</time>
      </trkpt>
      <trkpt lat="45.55868" lon="2.93287">
        <ele>882.085323</ele>
        <time>2021-07-07T12:57:30+0200</time>
      </trkpt>
      <trkpt lat="45.5587" lon="2.93294">
        <ele>882.286344</ele>
        <time>2021-07-07T12:57:33+0200</time>
      </trkpt>
      <trkpt lat="45.55873" lon="2.93301">
        <ele>883.688671</ele>
        <time>2021-07-07T12:57:37+0200</time>
      </trkpt>
      <trkpt lat="45.55876" lon="2.93307">
        <ele>884.210338</ele>
        <time>2021-07-07T12:57:40+0200</time>
      </trkpt>
      <trkpt lat="45.55879" lon="2.93314">
        <ele>883.059846</ele>
        <time>2021-07-07T12:57:43+0200</time>
      </trkpt>
      <trkpt lat="45.5588" lon="2.9332">
        <ele>882.463314</ele>
        <time>2021-07-07T12:57:45+0200</time>
      </trkpt>
      <trkpt lat="45.55882" lon="2.93328">
        <ele>882.890801</ele>
        <time>2021-07-07T12:57:48+0200</time>
      </trkpt>
      <trkpt lat="45.55884" lon="2.93337">
        <ele>882.361874</ele>
        <time>2021-07-07T12:57:51+0200</time>
      </trkpt>
      <trkpt lat="45.55884" lon="2.93344">
        <ele>882.610145</ele>
        <time>2021-07-07T12:57:54+0200</time>
      </trkpt>
      <trkpt lat="45.55884" lon="2.93351">
        <ele>883.717991</ele>
        <time>2021-07-07T12:57:57+0200</time>
      </trkpt>
      <trkpt lat="45.55884" lon="2.9336">
        <ele>884.725483</ele>
        <time>2021-07-07T12:58:00+0200</time>
      </trkpt>
      <trkpt lat="45.55885" lon="2.93366">
        <ele>884.876523</ele>
        <time>2021-07-07T12:58:02+0200</time>
      </trkpt>
      <trkpt lat="45.55884" lon="2.93373">
        <ele>884.924609</ele>
        <time>2021-07-07T12:58:05+0200</time>
      </trkpt>
      <trkpt lat="45.55884" lon="2.9338">
        <ele>885.091644</ele>
        <time>2021-07-07T12:58:07+0200</time>
      </trkpt>
      <trkpt lat="45.55885" lon="2.93388">
        <ele>884.425687</ele>
        <time>2021-07-07T12:58:09+0200</time>
      </trkpt>
      <trkpt lat="45.55882" lon="2.93396">
        <ele>885.873852</ele>
        <time>2021-07-07T12:58:12+0200</time>
      </trkpt>
      <trkpt lat="45.55881" lon="2.93402">
        <ele>886.727625</ele>
        <time>2021-07-07T12:58:15+0200</time>
      </trkpt>
      <trkpt lat="45.55879" lon="2.93409">
        <ele>887.059957</ele>
        <time>2021-07-07T12:58:18+0200</time>
      </trkpt>
      <trkpt lat="45.55877" lon="2.93417">
        <ele>887.282834</ele>
        <time>2021-07-07T12:58:21+0200</time>
      </trkpt>
      <trkpt lat="45.55874" lon="2.93423">
        <ele>888.575943</ele>
        <time>2021-07-07T12:58:24+0200</time>
      </trkpt>
      <trkpt lat="45.55873" lon="2.93431">
        <ele>888.429204</ele>
        <time>2021-07-07T12:58:28+0200</time>
      </trkpt>
      <trkpt lat="45.55872" lon="2.93439">
        <ele>888.699318</ele>
        <time>2021-07-07T12:58:31+0200</time>
      </trkpt>
      <trkpt lat="45.55869" lon="2.93448">
        <ele>888.067575</ele>
        <time>2021-07-07T12:58:34+0200</time>
      </trkpt>
      <trkpt lat="45.55867" lon="2.93456">
        <ele>888.905112</ele>
        <time>2021-07-07T12:58:37+0200</time>
      </trkpt>
      <trkpt lat="45.55865" lon="2.93464">
        <ele>889.825382</ele>
        <time>2021-07-07T12:58:40+0200</time>
      </trkpt>
      <trkpt lat="45.55865" lon="2.93471">
        <ele>889.979643</ele>
        <time>2021-07-07T12:58:44+0200</time>
      </trkpt>
      <trkpt lat="45.55863" lon="2.93478">
        <ele>889.928357</ele>
        <time>2021-07-07T12:58:47+0200</time>
      </trkpt>
      <trkpt lat="45.5586" lon="2.93484">
        <ele>889.57386</ele>
        <time>2021-07-07T12:58:50+0200</time>
      </trkpt>
      <trkpt lat="45.55856" lon="2.9349">
        <ele>890.212801</ele>
        <time>2021-07-07T12:58:53+0200</time>
      </trkpt>
      <trkpt lat="45.55855" lon="2.93499">
        <ele>891.319441</ele>
        <time>2021-07-07T12:58:56+0200</time>
      </trkpt>
      <trkpt lat="45.55851" lon="2.93505">
        <ele>893.590838</ele>
        <time>2021-07-07T12:59:00+0200</time>
      </trkpt>
      <trkpt lat="45.55848" lon="2.9351">
        <ele>894.085489</ele>
        <time>2021-07-07T12:59:03+0200</time>
      </trkpt>
      <trkpt lat="45.55845" lon="2.93517">
        <ele>894.88988</ele>
        <time>2021-07-07T12:59:07+0200</time>
      </trkpt>
      <trkpt lat="45.55841" lon="2.93521">
        <ele>895.59883</ele>
        <time>2021-07-07T12:59:10+0200</time>
      </trkpt>
      <trkpt lat="45.55837" lon="2.93526">
        <ele>896.080583</ele>
        <time>2021-07-07T12:59:13+0200</time>
      </trkpt>
      <trkpt lat="45.55833" lon="2.93528">
        <ele>897.02981</ele>
        <time>2021-07-07T12:59:16+0200</time>
      </trkpt>
      <trkpt lat="45.55829" lon="2.93533">
        <ele>899.051591</ele>
        <time>2021-07-07T12:59:19+0200</time>
      </trkpt>
      <trkpt lat="45.55825" lon="2.93538">
        <ele>900.019551</ele>
        <time>2021-07-07T12:59:22+0200</time>
      </trkpt>
      <trkpt lat="45.55821" lon="2.93543">
        <ele>900.584353</ele>
        <time>2021-07-07T12:59:26+0200</time>
      </trkpt>
      <trkpt lat="45.55817" lon="2.93547">
        <ele>900.64524</ele>
        <time>2021-07-07T12:59:28+0200</time>
      </trkpt>
      <trkpt lat="45.55811" lon="2.93551">
        <ele>901.177842</ele>
        <time>2021-07-07T12:59:32+0200</time>
      </trkpt>
      <trkpt lat="45.55806" lon="2.93554">
        <ele>901.767506</ele>
        <time>2021-07-07T12:59:35+0200</time>
      </trkpt>
      <trkpt lat="45.558" lon="2.93556">
        <ele>902.623297</ele>
        <time>2021-07-07T12:59:39+0200</time>
      </trkpt>
      <trkpt lat="45.55795" lon="2.93558">
        <ele>903.205537</ele>
        <time>2021-07-07T12:59:43+0200</time>
      </trkpt>
      <trkpt lat="45.5579" lon="2.93561">
        <ele>904.347494</ele>
        <time>2021-07-07T12:59:47+0200</time>
      </trkpt>
      <trkpt lat="45.55785" lon="2.93563">
        <ele>904.29311</ele>
        <time>2021-07-07T12:59:50+0200</time>
      </trkpt>
      <trkpt lat="45.55778" lon="2.93565">
        <ele>904.904051</ele>
        <time>2021-07-07T12:59:54+0200</time>
      </trkpt>
      <trkpt lat="45.55773" lon="2.93566">
        <ele>905.21966</ele>
        <time>2021-07-07T12:59:58+0200</time>
      </trkpt>
      <trkpt lat="45.5577" lon="2.93561">
        <ele>905.580833</ele>
        <time>2021-07-07T13:00:04+0200</time>
      </trkpt>
      <trkpt lat="45.55764" lon="2.93557">
        <ele>908.038522</ele>
        <time>2021-07-07T13:00:08+0200</time>
      </trkpt>
      <trkpt lat="45.5576" lon="2.93555">
        <ele>908.897628</ele>
        <time>2021-07-07T13:00:11+0200</time>
      </trkpt>
      <trkpt lat="45.55755" lon="2.93554">
        <ele>909.979545</ele>
        <time>2021-07-07T13:00:14+0200</time>
      </trkpt>
      <trkpt lat="45.5575" lon="2.93551">
        <ele>910.59429</ele>
        <time>2021-07-07T13:00:18+0200</time>
      </trkpt>
      <trkpt lat="45.55746" lon="2.93551">
        <ele>910.902257</ele>
        <time>2021-07-07T13:00:21+0200</time>
      </trkpt>
      <trkpt lat="45.55741" lon="2.93549">
        <ele>910.006687</ele>
        <time>2021-07-07T13:00:25+0200</time>
      </trkpt>
      <trkpt lat="45.55735" lon="2.93549">
        <ele>910.160799</ele>
        <time>2021-07-07T13:00:28+0200</time>
      </trkpt>
      <trkpt lat="45.5573" lon="2.93549">
        <ele>910.605562</ele>
        <time>2021-07-07T13:00:31+0200</time>
      </trkpt>
      <trkpt lat="45.55725" lon="2.9355">
        <ele>911.228927</ele>
        <time>2021-07-07T13:00:34+0200</time>
      </trkpt>
      <trkpt lat="45.5572" lon="2.93549">
        <ele>911.047562</ele>
        <time>2021-07-07T13:00:37+0200</time>
      </trkpt>
      <trkpt lat="45.55715" lon="2.93546">
        <ele>910.771698</ele>
        <time>2021-07-07T13:00:40+0200</time>
      </trkpt>
      <trkpt lat="45.55711" lon="2.93545">
        <ele>911.516215</ele>
        <time>2021-07-07T13:00:43+0200</time>
      </trkpt>
      <trkpt lat="45.55705" lon="2.93542">
        <ele>912.472174</ele>
        <time>2021-07-07T13:00:47+0200</time>
      </trkpt>
      <trkpt lat="45.55701" lon="2.93539">
        <ele>913.398473</ele>
        <time>2021-07-07T13:00:50+0200</time>
      </trkpt>
      <trkpt lat="45.55696" lon="2.93537">
        <ele>914.861928</ele>
        <time>2021-07-07T13:00:55+0200</time>
      </trkpt>
      <trkpt lat="45.55689" lon="2.93535">
        <ele>915.748005</ele>
        <time>2021-07-07T13:00:59+0200</time>
      </trkpt>
      <trkpt lat="45.55683" lon="2.93536">
        <ele>916.674403</ele>
        <time>2021-07-07T13:01:03+0200</time>
      </trkpt>
      <trkpt lat="45.55678" lon="2.93536">
        <ele>919.604708</ele>
        <time>2021-07-07T13:01:08+0200</time>
      </trkpt>
      <trkpt lat="45.55672" lon="2.93533">
        <ele>920.812245</ele>
        <time>2021-07-07T13:01:12+0200</time>
      </trkpt>
      <trkpt lat="45.55667" lon="2.93533">
        <ele>921.907239</ele>
        <time>2021-07-07T13:01:14+0200</time>
      </trkpt>
      <trkpt lat="45.55662" lon="2.93533">
        <ele>922.631334</ele>
        <time>2021-07-07T13:01:16+0200</time>
      </trkpt>
      <trkpt lat="45.55657" lon="2.9354">
        <ele>924.386991</ele>
        <time>2021-07-07T13:01:20+0200</time>
      </trkpt>
      <trkpt lat="45.55654" lon="2.93544">
        <ele>925.601815</ele>
        <time>2021-07-07T13:01:23+0200</time>
      </trkpt>
      <trkpt lat="45.55652" lon="2.93551">
        <ele>925.699803</ele>
        <time>2021-07-07T13:01:26+0200</time>
      </trkpt>
      <trkpt lat="45.5565" lon="2.9356">
        <ele>925.158873</ele>
        <time>2021-07-07T13:01:30+0200</time>
      </trkpt>
      <trkpt lat="45.55647" lon="2.93567">
        <ele>925.089668</ele>
        <time>2021-07-07T13:01:33+0200</time>
      </trkpt>
      <trkpt lat="45.55647" lon="2.93573">
        <ele>926.119921</ele>
        <time>2021-07-07T13:01:37+0200</time>
      </trkpt>
      <trkpt lat="45.55652" lon="2.9357">
        <ele>924.89114</ele>
        <time>2021-07-07T13:01:50+0200</time>
      </trkpt>
      <trkpt lat="45.55648" lon="2.93574">
        <ele>924.900774</ele>
        <time>2021-07-07T13:02:05+0200</time>
      </trkpt>
      <trkpt lat="45.55653" lon="2.93578">
        <ele>923.944424</ele>
        <time>2021-07-07T13:02:24+0200</time>
      </trkpt>
      <trkpt lat="45.55652" lon="2.93586">
        <ele>924.305762</ele>
        <time>2021-07-07T13:02:32+0200</time>
      </trkpt>
      <trkpt lat="45.55654" lon="2.93594">
        <ele>923.555557</ele>
        <time>2021-07-07T13:02:34+0200</time>
      </trkpt>
      <trkpt lat="45.55656" lon="2.93604">
        <ele>922.243665</ele>
        <time>2021-07-07T13:02:36+0200</time>
      </trkpt>
      <trkpt lat="45.55658" lon="2.93616">
        <ele>920.946075</ele>
        <time>2021-07-07T13:02:38+0200</time>
      </trkpt>
      <trkpt lat="45.55658" lon="2.93624">
        <ele>920.484249</ele>
        <time>2021-07-07T13:02:40+0200</time>
      </trkpt>
      <trkpt lat="45.55658" lon="2.9363">
        <ele>921.136974</ele>
        <time>2021-07-07T13:02:42+0200</time>
      </trkpt>
      <trkpt lat="45.55659" lon="2.93639">
        <ele>920.335088</ele>
        <time>2021-07-07T13:02:45+0200</time>
      </trkpt>
      <trkpt lat="45.55658" lon="2.93648">
        <ele>919.054529</ele>
        <time>2021-07-07T13:02:48+0200</time>
      </trkpt>
      <trkpt lat="45.55657" lon="2.93658">
        <ele>917.21872</ele>
        <time>2021-07-07T13:02:50+0200</time>
      </trkpt>
      <trkpt lat="45.55656" lon="2.93665">
        <ele>917.075971</ele>
        <time>2021-07-07T13:02:51+0200</time>
      </trkpt>
      <trkpt lat="45.55654" lon="2.93676">
        <ele>917.048704</ele>
        <time>2021-07-07T13:02:53+0200</time>
      </trkpt>
      <trkpt lat="45.55652" lon="2.93684">
        <ele>917.748248</ele>
        <time>2021-07-07T13:02:55+0200</time>
      </trkpt>
      <trkpt lat="45.5565" lon="2.93692">
        <ele>918.8551</ele>
        <time>2021-07-07T13:02:57+0200</time>
      </trkpt>
      <trkpt lat="45.55648" lon="2.93701">
        <ele>919.552656</ele>
        <time>2021-07-07T13:02:59+0200</time>
      </trkpt>
      <trkpt lat="45.55646" lon="2.9371">
        <ele>919.858245</ele>
        <time>2021-07-07T13:03:01+0200</time>
      </trkpt>
      <trkpt lat="45.55645" lon="2.93717">
        <ele>921.954507</ele>
        <time>2021-07-07T13:03:03+0200</time>
      </trkpt>
      <trkpt lat="45.55645" lon="2.93725">
        <ele>924.554172</ele>
        <time>2021-07-07T13:03:06+0200</time>
      </trkpt>
      <trkpt lat="45.55646" lon="2.93734">
        <ele>925.753966</ele>
        <time>2021-07-07T13:03:09+0200</time>
      </trkpt>
      <trkpt lat="45.55648" lon="2.93741">
        <ele>926.173308</ele>
        <time>2021-07-07T13:03:11+0200</time>
      </trkpt>
      <trkpt lat="45.55649" lon="2.93748">
        <ele>925.904442</ele>
        <time>2021-07-07T13:03:13+0200</time>
      </trkpt>
      <trkpt lat="45.55648" lon="2.93758">
        <ele>925.336722</ele>
        <time>2021-07-07T13:03:17+0200</time>
      </trkpt>
      <trkpt lat="45.55649" lon="2.93764">
        <ele>925.642411</ele>
        <time>2021-07-07T13:03:19+0200</time>
      </trkpt>
      <trkpt lat="45.5565" lon="2.93773">
        <ele>927.196222</ele>
        <time>2021-07-07T13:03:22+0200</time>
      </trkpt>
      <trkpt lat="45.55649" lon="2.93781">
        <ele>927.475285</ele>
        <time>2021-07-07T13:03:25+0200</time>
      </trkpt>
      <trkpt lat="45.5565" lon="2.93788">
        <ele>927.347599</ele>
        <time>2021-07-07T13:03:27+0200</time>
      </trkpt>
      <trkpt lat="45.5565" lon="2.93794">
        <ele>927.04003</ele>
        <time>2021-07-07T13:03:29+0200</time>
      </trkpt>
      <trkpt lat="45.55653" lon="2.93801">
        <ele>928.661827</ele>
        <time>2021-07-07T13:03:32+0200</time>
      </trkpt>
      <trkpt lat="45.55653" lon="2.93808">
        <ele>928.726467</ele>
        <time>2021-07-07T13:03:35+0200</time>
      </trkpt>
      <trkpt lat="45.55653" lon="2.93815">
        <ele>930.004446</ele>
        <time>2021-07-07T13:03:38+0200</time>
      </trkpt>
      <trkpt lat="45.55654" lon="2.93824">
        <ele>928.674822</ele>
        <time>2021-07-07T13:03:41+0200</time>
      </trkpt>
      <trkpt lat="45.55655" lon="2.93833">
        <ele>927.925611</ele>
        <time>2021-07-07T13:03:44+0200</time>
      </trkpt>
      <trkpt lat="45.55655" lon="2.93841">
        <ele>928.14801</ele>
        <time>2021-07-07T13:03:47+0200</time>
      </trkpt>
      <trkpt lat="45.55654" lon="2.9385">
        <ele>928.100774</ele>
        <time>2021-07-07T13:03:50+0200</time>
      </trkpt>
      <trkpt lat="45.55654" lon="2.93857">
        <ele>929.186761</ele>
        <time>2021-07-07T13:03:53+0200</time>
      </trkpt>
      <trkpt lat="45.55655" lon="2.93866">
        <ele>930.204785</ele>
        <time>2021-07-07T13:03:56+0200</time>
      </trkpt>
      <trkpt lat="45.55656" lon="2.93874">
        <ele>930.083468</ele>
        <time>2021-07-07T13:03:59+0200</time>
      </trkpt>
      <trkpt lat="45.55656" lon="2.93882">
        <ele>930.644246</ele>
        <time>2021-07-07T13:04:02+0200</time>
      </trkpt>
      <trkpt lat="45.55657" lon="2.93888">
        <ele>931.455786</ele>
        <time>2021-07-07T13:04:05+0200</time>
      </trkpt>
      <trkpt lat="45.5566" lon="2.93896">
        <ele>930.900858</ele>
        <time>2021-07-07T13:04:08+0200</time>
      </trkpt>
      <trkpt lat="45.55662" lon="2.93902">
        <ele>931.777001</ele>
        <time>2021-07-07T13:04:11+0200</time>
      </trkpt>
      <trkpt lat="45.55664" lon="2.93909">
        <ele>932.624933</ele>
        <time>2021-07-07T13:04:15+0200</time>
      </trkpt>
      <trkpt lat="45.55667" lon="2.93917">
        <ele>933.453884</ele>
        <time>2021-07-07T13:04:18+0200</time>
      </trkpt>
      <trkpt lat="45.55669" lon="2.93923">
        <ele>934.11583</ele>
        <time>2021-07-07T13:04:20+0200</time>
      </trkpt>
      <trkpt lat="45.55671" lon="2.93931">
        <ele>933.812149</ele>
        <time>2021-07-07T13:04:22+0200</time>
      </trkpt>
      <trkpt lat="45.55673" lon="2.93937">
        <ele>933.986671</ele>
        <time>2021-07-07T13:04:24+0200</time>
      </trkpt>
      <trkpt lat="45.55675" lon="2.93945">
        <ele>935.036874</ele>
        <time>2021-07-07T13:04:26+0200</time>
      </trkpt>
      <trkpt lat="45.55678" lon="2.93952">
        <ele>935.321832</ele>
        <time>2021-07-07T13:04:28+0200</time>
      </trkpt>
      <trkpt lat="45.55679" lon="2.9396">
        <ele>935.849415</ele>
        <time>2021-07-07T13:04:30+0200</time>
      </trkpt>
      <trkpt lat="45.55683" lon="2.93965">
        <ele>936.771029</ele>
        <time>2021-07-07T13:04:32+0200</time>
      </trkpt>
      <trkpt lat="45.55683" lon="2.93972">
        <ele>936.638179</ele>
        <time>2021-07-07T13:04:34+0200</time>
      </trkpt>
      <trkpt lat="45.55687" lon="2.93981">
        <ele>938.113699</ele>
        <time>2021-07-07T13:04:36+0200</time>
      </trkpt>
      <trkpt lat="45.55691" lon="2.93987">
        <ele>939.534218</ele>
        <time>2021-07-07T13:04:38+0200</time>
      </trkpt>
      <trkpt lat="45.55695" lon="2.93996">
        <ele>940.266495</ele>
        <time>2021-07-07T13:04:40+0200</time>
      </trkpt>
      <trkpt lat="45.55698" lon="2.94003">
        <ele>941.097207</ele>
        <time>2021-07-07T13:04:42+0200</time>
      </trkpt>
      <trkpt lat="45.55702" lon="2.94009">
        <ele>942.060036</ele>
        <time>2021-07-07T13:04:44+0200</time>
      </trkpt>
      <trkpt lat="45.55707" lon="2.94017">
        <ele>942.097413</ele>
        <time>2021-07-07T13:04:46+0200</time>
      </trkpt>
      <trkpt lat="45.55712" lon="2.94023">
        <ele>942.352712</ele>
        <time>2021-07-07T13:04:48+0200</time>
      </trkpt>
      <trkpt lat="45.55716" lon="2.94028">
        <ele>943.412047</ele>
        <time>2021-07-07T13:04:50+0200</time>
      </trkpt>
      <trkpt lat="45.55722" lon="2.94036">
        <ele>944.237513</ele>
        <time>2021-07-07T13:04:52+0200</time>
      </trkpt>
      <trkpt lat="45.55728" lon="2.94042">
        <ele>944.6701</ele>
        <time>2021-07-07T13:04:54+0200</time>
      </trkpt>
      <trkpt lat="45.55734" lon="2.94049">
        <ele>944.450925</ele>
        <time>2021-07-07T13:04:56+0200</time>
      </trkpt>
      <trkpt lat="45.5574" lon="2.94055">
        <ele>943.28566</ele>
        <time>2021-07-07T13:04:58+0200</time>
      </trkpt>
      <trkpt lat="45.55746" lon="2.94062">
        <ele>943.385359</ele>
        <time>2021-07-07T13:05:00+0200</time>
      </trkpt>
      <trkpt lat="45.55752" lon="2.9407">
        <ele>942.504669</ele>
        <time>2021-07-07T13:05:02+0200</time>
      </trkpt>
      <trkpt lat="45.55758" lon="2.94077">
        <ele>941.992524</ele>
        <time>2021-07-07T13:05:04+0200</time>
      </trkpt>
      <trkpt lat="45.55763" lon="2.94085">
        <ele>940.796519</ele>
        <time>2021-07-07T13:05:06+0200</time>
      </trkpt>
      <trkpt lat="45.55767" lon="2.94088">
        <ele>940.007227</ele>
        <time>2021-07-07T13:05:07+0200</time>
      </trkpt>
      <trkpt lat="45.55773" lon="2.94095">
        <ele>938.578572</ele>
        <time>2021-07-07T13:05:09+0200</time>
      </trkpt>
      <trkpt lat="45.55778" lon="2.94099">
        <ele>938.103527</ele>
        <time>2021-07-07T13:05:10+0200</time>
      </trkpt>
      <trkpt lat="45.55782" lon="2.94105">
        <ele>937.868405</ele>
        <time>2021-07-07T13:05:11+0200</time>
      </trkpt>
      <trkpt lat="45.55786" lon="2.94114">
        <ele>937.125831</ele>
        <time>2021-07-07T13:05:12+0200</time>
      </trkpt>
      <trkpt lat="45.55791" lon="2.94123">
        <ele>936.226399</ele>
        <time>2021-07-07T13:05:13+0200</time>
      </trkpt>
      <trkpt lat="45.55795" lon="2.94132">
        <ele>935.330884</ele>
        <time>2021-07-07T13:05:14+0200</time>
      </trkpt>
      <trkpt lat="45.55798" lon="2.94144">
        <ele>933.859768</ele>
        <time>2021-07-07T13:05:15+0200</time>
      </trkpt>
      <trkpt lat="45.55802" lon="2.94156">
        <ele>932.359001</ele>
        <time>2021-07-07T13:05:16+0200</time>
      </trkpt>
      <trkpt lat="45.55805" lon="2.94166">
        <ele>931.787967</ele>
        <time>2021-07-07T13:05:17+0200</time>
      </trkpt>
      <trkpt lat="45.55807" lon="2.94176">
        <ele>931.138297</ele>
        <time>2021-07-07T13:05:18+0200</time>
      </trkpt>
      <trkpt lat="45.55808" lon="2.94186">
        <ele>930.501012</ele>
        <time>2021-07-07T13:05:19+0200</time>
      </trkpt>
      <trkpt lat="45.55809" lon="2.94194">
        <ele>929.687387</ele>
        <time>2021-07-07T13:05:20+0200</time>
      </trkpt>
      <trkpt lat="45.55809" lon="2.94201">
        <ele>929.701976</ele>
        <time>2021-07-07T13:05:21+0200</time>
      </trkpt>
      <trkpt lat="45.5581" lon="2.94213">
        <ele>930.445977</ele>
        <time>2021-07-07T13:05:23+0200</time>
      </trkpt>
      <trkpt lat="45.55811" lon="2.94225">
        <ele>932.091996</ele>
        <time>2021-07-07T13:05:25+0200</time>
      </trkpt>
      <trkpt lat="45.55811" lon="2.94234">
        <ele>933.580723</ele>
        <time>2021-07-07T13:05:27+0200</time>
      </trkpt>
      <trkpt lat="45.55812" lon="2.94243">
        <ele>934.571457</ele>
        <time>2021-07-07T13:05:30+0200</time>
      </trkpt>
      <trkpt lat="45.55813" lon="2.9425">
        <ele>935.034736</ele>
        <time>2021-07-07T13:05:32+0200</time>
      </trkpt>
      <trkpt lat="45.55816" lon="2.94257">
        <ele>935.051143</ele>
        <time>2021-07-07T13:05:34+0200</time>
      </trkpt>
      <trkpt lat="45.55819" lon="2.94264">
        <ele>935.723346</ele>
        <time>2021-07-07T13:05:36+0200</time>
      </trkpt>
      <trkpt lat="45.55823" lon="2.94269">
        <ele>936.14772</ele>
        <time>2021-07-07T13:05:38+0200</time>
      </trkpt>
      <trkpt lat="45.55827" lon="2.94275">
        <ele>936.367826</ele>
        <time>2021-07-07T13:05:41+0200</time>
      </trkpt>
      <trkpt lat="45.5583" lon="2.94281">
        <ele>935.031712</ele>
        <time>2021-07-07T13:05:43+0200</time>
      </trkpt>
      <trkpt lat="45.55833" lon="2.94287">
        <ele>935.024426</ele>
        <time>2021-07-07T13:05:45+0200</time>
      </trkpt>
      <trkpt lat="45.55834" lon="2.94293">
        <ele>933.800627</ele>
        <time>2021-07-07T13:05:47+0200</time>
      </trkpt>
      <trkpt lat="45.55837" lon="2.94302">
        <ele>932.79733</ele>
        <time>2021-07-07T13:05:49+0200</time>
      </trkpt>
      <trkpt lat="45.55839" lon="2.9431">
        <ele>932.72534</ele>
        <time>2021-07-07T13:05:51+0200</time>
      </trkpt>
      <trkpt lat="45.55841" lon="2.94316">
        <ele>933.402568</ele>
        <time>2021-07-07T13:05:52+0200</time>
      </trkpt>
      <trkpt lat="45.55843" lon="2.94322">
        <ele>932.950099</ele>
        <time>2021-07-07T13:05:53+0200</time>
      </trkpt>
      <trkpt lat="45.55844" lon="2.94329">
        <ele>933.304096</ele>
        <time>2021-07-07T13:05:54+0200</time>
      </trkpt>
      <trkpt lat="45.55843" lon="2.94338">
        <ele>933.700297</ele>
        <time>2021-07-07T13:05:55+0200</time>
      </trkpt>
      <trkpt lat="45.55843" lon="2.94346">
        <ele>933.07436</ele>
        <time>2021-07-07T13:05:56+0200</time>
      </trkpt>
      <trkpt lat="45.55844" lon="2.94357">
        <ele>933.057647</ele>
        <time>2021-07-07T13:05:57+0200</time>
      </trkpt>
      <trkpt lat="45.55846" lon="2.94368">
        <ele>933.172625</ele>
        <time>2021-07-07T13:05:58+0200</time>
      </trkpt>
      <trkpt lat="45.55848" lon="2.94379">
        <ele>933.390925</ele>
        <time>2021-07-07T13:05:59+0200</time>
      </trkpt>
      <trkpt lat="45.55852" lon="2.94391">
        <ele>933.386976</ele>
        <time>2021-07-07T13:06:00+0200</time>
      </trkpt>
      <trkpt lat="45.55854" lon="2.94402">
        <ele>933.271666</ele>
        <time>2021-07-07T13:06:01+0200</time>
      </trkpt>
      <trkpt lat="45.55858" lon="2.94411">
        <ele>933.639595</ele>
        <time>2021-07-07T13:06:02+0200</time>
      </trkpt>
      <trkpt lat="45.55863" lon="2.9442">
        <ele>933.74814</ele>
        <time>2021-07-07T13:06:03+0200</time>
      </trkpt>
      <trkpt lat="45.55866" lon="2.9443">
        <ele>934.059569</ele>
        <time>2021-07-07T13:06:04+0200</time>
      </trkpt>
      <trkpt lat="45.55867" lon="2.94442">
        <ele>934.04629</ele>
        <time>2021-07-07T13:06:05+0200</time>
      </trkpt>
      <trkpt lat="45.55868" lon="2.94451">
        <ele>934.112816</ele>
        <time>2021-07-07T13:06:06+0200</time>
      </trkpt>
      <trkpt lat="45.55872" lon="2.94459">
        <ele>933.766113</ele>
        <time>2021-07-07T13:06:07+0200</time>
      </trkpt>
      <trkpt lat="45.55873" lon="2.94466">
        <ele>933.290806</ele>
        <time>2021-07-07T13:06:08+0200</time>
      </trkpt>
      <trkpt lat="45.55874" lon="2.94478">
        <ele>932.946711</ele>
        <time>2021-07-07T13:06:10+0200</time>
      </trkpt>
      <trkpt lat="45.55875" lon="2.94485">
        <ele>933.177628</ele>
        <time>2021-07-07T13:06:11+0200</time>
      </trkpt>
      <trkpt lat="45.55879" lon="2.94497">
        <ele>933.54776</ele>
        <time>2021-07-07T13:06:13+0200</time>
      </trkpt>
      <trkpt lat="45.55881" lon="2.94507">
        <ele>935.394982</ele>
        <time>2021-07-07T13:06:15+0200</time>
      </trkpt>
      <trkpt lat="45.55884" lon="2.94519">
        <ele>934.805275</ele>
        <time>2021-07-07T13:06:17+0200</time>
      </trkpt>
      <trkpt lat="45.55886" lon="2.94527">
        <ele>934.543714</ele>
        <time>2021-07-07T13:06:18+0200</time>
      </trkpt>
      <trkpt lat="45.55889" lon="2.94536">
        <ele>934.055046</ele>
        <time>2021-07-07T13:06:20+0200</time>
      </trkpt>
      <trkpt lat="45.55892" lon="2.94545">
        <ele>933.740282</ele>
        <time>2021-07-07T13:06:22+0200</time>
      </trkpt>
      <trkpt lat="45.55894" lon="2.94554">
        <ele>933.407717</ele>
        <time>2021-07-07T13:06:24+0200</time>
      </trkpt>
      <trkpt lat="45.55896" lon="2.94561">
        <ele>933.091051</ele>
        <time>2021-07-07T13:06:25+0200</time>
      </trkpt>
      <trkpt lat="45.55897" lon="2.94567">
        <ele>931.971828</ele>
        <time>2021-07-07T13:06:26+0200</time>
      </trkpt>
      <trkpt lat="45.559" lon="2.94579">
        <ele>930.84583</ele>
        <time>2021-07-07T13:06:28+0200</time>
      </trkpt>
      <trkpt lat="45.55901" lon="2.94589">
        <ele>930.745183</ele>
        <time>2021-07-07T13:06:30+0200</time>
      </trkpt>
      <trkpt lat="45.55901" lon="2.946">
        <ele>930.952763</ele>
        <time>2021-07-07T13:06:32+0200</time>
      </trkpt>
      <trkpt lat="45.55901" lon="2.94608">
        <ele>932.250641</ele>
        <time>2021-07-07T13:06:34+0200</time>
      </trkpt>
      <trkpt lat="45.55901" lon="2.94616">
        <ele>933.882939</ele>
        <time>2021-07-07T13:06:36+0200</time>
      </trkpt>
      <trkpt lat="45.55901" lon="2.94627">
        <ele>933.922215</ele>
        <time>2021-07-07T13:06:38+0200</time>
      </trkpt>
      <trkpt lat="45.55901" lon="2.94636">
        <ele>934.370506</ele>
        <time>2021-07-07T13:06:40+0200</time>
      </trkpt>
      <trkpt lat="45.55901" lon="2.94646">
        <ele>934.225072</ele>
        <time>2021-07-07T13:06:42+0200</time>
      </trkpt>
      <trkpt lat="45.55899" lon="2.94654">
        <ele>935.13005</ele>
        <time>2021-07-07T13:06:44+0200</time>
      </trkpt>
      <trkpt lat="45.559" lon="2.94661">
        <ele>934.99091</ele>
        <time>2021-07-07T13:06:46+0200</time>
      </trkpt>
      <trkpt lat="45.55899" lon="2.94669">
        <ele>935.617674</ele>
        <time>2021-07-07T13:06:49+0200</time>
      </trkpt>
      <trkpt lat="45.55899" lon="2.94676">
        <ele>936.085118</ele>
        <time>2021-07-07T13:06:52+0200</time>
      </trkpt>
      <trkpt lat="45.55897" lon="2.94684">
        <ele>937.205345</ele>
        <time>2021-07-07T13:06:55+0200</time>
      </trkpt>
      <trkpt lat="45.55895" lon="2.94691">
        <ele>936.455179</ele>
        <time>2021-07-07T13:06:59+0200</time>
      </trkpt>
      <trkpt lat="45.55892" lon="2.94698">
        <ele>937.353767</ele>
        <time>2021-07-07T13:07:02+0200</time>
      </trkpt>
      <trkpt lat="45.55886" lon="2.947">
        <ele>938.693328</ele>
        <time>2021-07-07T13:07:06+0200</time>
      </trkpt>
      <trkpt lat="45.55882" lon="2.94705">
        <ele>939.734046</ele>
        <time>2021-07-07T13:07:09+0200</time>
      </trkpt>
      <trkpt lat="45.55877" lon="2.94709">
        <ele>940.384593</ele>
        <time>2021-07-07T13:07:11+0200</time>
      </trkpt>
      <trkpt lat="45.55873" lon="2.94713">
        <ele>940.790492</ele>
        <time>2021-07-07T13:07:13+0200</time>
      </trkpt>
      <trkpt lat="45.55869" lon="2.94717">
        <ele>941.54354</ele>
        <time>2021-07-07T13:07:15+0200</time>
      </trkpt>
      <trkpt lat="45.55866" lon="2.94721">
        <ele>942.251642</ele>
        <time>2021-07-07T13:07:17+0200</time>
      </trkpt>
      <trkpt lat="45.55861" lon="2.94726">
        <ele>942.018116</ele>
        <time>2021-07-07T13:07:20+0200</time>
      </trkpt>
      <trkpt lat="45.55857" lon="2.94733">
        <ele>942.766534</ele>
        <time>2021-07-07T13:07:23+0200</time>
      </trkpt>
      <trkpt lat="45.55853" lon="2.94739">
        <ele>943.120673</ele>
        <time>2021-07-07T13:07:25+0200</time>
      </trkpt>
      <trkpt lat="45.55851" lon="2.94745">
        <ele>943.76168</ele>
        <time>2021-07-07T13:07:27+0200</time>
      </trkpt>
      <trkpt lat="45.55848" lon="2.94751">
        <ele>944.127711</ele>
        <time>2021-07-07T13:07:29+0200</time>
      </trkpt>
      <trkpt lat="45.55845" lon="2.94757">
        <ele>944.235699</ele>
        <time>2021-07-07T13:07:31+0200</time>
      </trkpt>
      <trkpt lat="45.55841" lon="2.94763">
        <ele>944.538271</ele>
        <time>2021-07-07T13:07:33+0200</time>
      </trkpt>
      <trkpt lat="45.55838" lon="2.94769">
        <ele>945.472591</ele>
        <time>2021-07-07T13:07:35+0200</time>
      </trkpt>
      <trkpt lat="45.55835" lon="2.94774">
        <ele>945.996559</ele>
        <time>2021-07-07T13:07:38+0200</time>
      </trkpt>
      <trkpt lat="45.5583" lon="2.94768">
        <ele>946.287332</ele>
        <time>2021-07-07T13:07:41+0200</time>
      </trkpt>
      <trkpt lat="45.55828" lon="2.9476">
        <ele>947.149159</ele>
        <time>2021-07-07T13:07:44+0200</time>
      </trkpt>
      <trkpt lat="45.55825" lon="2.94753">
        <ele>947.720538</ele>
        <time>2021-07-07T13:07:47+0200</time>
      </trkpt>
      <trkpt lat="45.55823" lon="2.94747">
        <ele>947.958559</ele>
        <time>2021-07-07T13:07:50+0200</time>
      </trkpt>
      <trkpt lat="45.55821" lon="2.94741">
        <ele>947.992242</ele>
        <time>2021-07-07T13:07:53+0200</time>
      </trkpt>
      <trkpt lat="45.55819" lon="2.94733">
        <ele>949.240796</ele>
        <time>2021-07-07T13:07:56+0200</time>
      </trkpt>
      <trkpt lat="45.55815" lon="2.94727">
        <ele>951.049056</ele>
        <time>2021-07-07T13:08:00+0200</time>
      </trkpt>
      <trkpt lat="45.55815" lon="2.94719">
        <ele>951.083892</ele>
        <time>2021-07-07T13:08:03+0200</time>
      </trkpt>
      <trkpt lat="45.55815" lon="2.94712">
        <ele>951.53022</ele>
        <time>2021-07-07T13:08:06+0200</time>
      </trkpt>
      <trkpt lat="45.55812" lon="2.94706">
        <ele>952.386299</ele>
        <time>2021-07-07T13:08:10+0200</time>
      </trkpt>
      <trkpt lat="45.55807" lon="2.94701">
        <ele>952.490033</ele>
        <time>2021-07-07T13:08:15+0200</time>
      </trkpt>
      <trkpt lat="45.55804" lon="2.94706">
        <ele>951.849614</ele>
        <time>2021-07-07T13:08:21+0200</time>
      </trkpt>
      <trkpt lat="45.55801" lon="2.94713">
        <ele>951.951868</ele>
        <time>2021-07-07T13:08:25+0200</time>
      </trkpt>
      <trkpt lat="45.558" lon="2.9472">
        <ele>951.684381</ele>
        <time>2021-07-07T13:08:28+0200</time>
      </trkpt>
      <trkpt lat="45.55796" lon="2.94726">
        <ele>952.32958</ele>
        <time>2021-07-07T13:08:31+0200</time>
      </trkpt>
      <trkpt lat="45.55792" lon="2.94731">
        <ele>952.906758</ele>
        <time>2021-07-07T13:08:34+0200</time>
      </trkpt>
      <trkpt lat="45.55789" lon="2.94737">
        <ele>952.976714</ele>
        <time>2021-07-07T13:08:37+0200</time>
      </trkpt>
      <trkpt lat="45.55785" lon="2.94741">
        <ele>953.378643</ele>
        <time>2021-07-07T13:08:40+0200</time>
      </trkpt>
      <trkpt lat="45.5578" lon="2.94746">
        <ele>954.076347</ele>
        <time>2021-07-07T13:08:43+0200</time>
      </trkpt>
      <trkpt lat="45.55775" lon="2.94747">
        <ele>954.818204</ele>
        <time>2021-07-07T13:08:46+0200</time>
      </trkpt>
      <trkpt lat="45.5577" lon="2.94746">
        <ele>955.393299</ele>
        <time>2021-07-07T13:08:50+0200</time>
      </trkpt>
      <trkpt lat="45.55765" lon="2.94745">
        <ele>955.700736</ele>
        <time>2021-07-07T13:08:53+0200</time>
      </trkpt>
      <trkpt lat="45.55761" lon="2.94742">
        <ele>956.700975</ele>
        <time>2021-07-07T13:08:56+0200</time>
      </trkpt>
      <trkpt lat="45.55756" lon="2.94739">
        <ele>957.762593</ele>
        <time>2021-07-07T13:09:00+0200</time>
      </trkpt>
      <trkpt lat="45.55752" lon="2.94736">
        <ele>958.564069</ele>
        <time>2021-07-07T13:09:03+0200</time>
      </trkpt>
      <trkpt lat="45.55747" lon="2.94731">
        <ele>959.558387</ele>
        <time>2021-07-07T13:09:06+0200</time>
      </trkpt>
      <trkpt lat="45.55743" lon="2.94727">
        <ele>959.520876</ele>
        <time>2021-07-07T13:09:09+0200</time>
      </trkpt>
      <trkpt lat="45.5574" lon="2.94723">
        <ele>960.743055</ele>
        <time>2021-07-07T13:09:12+0200</time>
      </trkpt>
      <trkpt lat="45.55734" lon="2.94718">
        <ele>962.267261</ele>
        <time>2021-07-07T13:09:15+0200</time>
      </trkpt>
      <trkpt lat="45.55728" lon="2.94715">
        <ele>962.778268</ele>
        <time>2021-07-07T13:09:18+0200</time>
      </trkpt>
      <trkpt lat="45.55723" lon="2.94711">
        <ele>963.332852</ele>
        <time>2021-07-07T13:09:21+0200</time>
      </trkpt>
      <trkpt lat="45.55718" lon="2.94709">
        <ele>963.400142</ele>
        <time>2021-07-07T13:09:23+0200</time>
      </trkpt>
      <trkpt lat="45.55713" lon="2.94705">
        <ele>963.434826</ele>
        <time>2021-07-07T13:09:25+0200</time>
      </trkpt>
      <trkpt lat="45.55708" lon="2.94703">
        <ele>964.428561</ele>
        <time>2021-07-07T13:09:28+0200</time>
      </trkpt>
      <trkpt lat="45.55703" lon="2.94702">
        <ele>965.232935</ele>
        <time>2021-07-07T13:09:31+0200</time>
      </trkpt>
      <trkpt lat="45.55697" lon="2.94702">
        <ele>965.506255</ele>
        <time>2021-07-07T13:09:34+0200</time>
      </trkpt>
      <trkpt lat="45.55692" lon="2.94705">
        <ele>966.474117</ele>
        <time>2021-07-07T13:09:39+0200</time>
      </trkpt>
      <trkpt lat="45.55687" lon="2.94709">
        <ele>968.495808</ele>
        <time>2021-07-07T13:09:43+0200</time>
      </trkpt>
      <trkpt lat="45.55681" lon="2.94714">
        <ele>969.24704</ele>
        <time>2021-07-07T13:09:47+0200</time>
      </trkpt>
      <trkpt lat="45.55678" lon="2.94718">
        <ele>969.656072</ele>
        <time>2021-07-07T13:09:50+0200</time>
      </trkpt>
      <trkpt lat="45.55673" lon="2.94715">
        <ele>969.636176</ele>
        <time>2021-07-07T13:09:53+0200</time>
      </trkpt>
      <trkpt lat="45.55671" lon="2.94709">
        <ele>969.688806</ele>
        <time>2021-07-07T13:09:56+0200</time>
      </trkpt>
      <trkpt lat="45.55669" lon="2.94704">
        <ele>968.725944</ele>
        <time>2021-07-07T13:10:00+0200</time>
      </trkpt>
      <trkpt lat="45.55671" lon="2.94709">
        <ele>969.696546</ele>
        <time>2021-07-07T13:10:39+0200</time>
      </trkpt>
      <trkpt lat="45.55674" lon="2.94702">
        <ele>968.929662</ele>
        <time>2021-07-07T13:11:35+0200</time>
      </trkpt>
      <trkpt lat="45.55678" lon="2.94696">
        <ele>968.747691</ele>
        <time>2021-07-07T13:11:37+0200</time>
      </trkpt>
      <trkpt lat="45.55681" lon="2.94687">
        <ele>968.205917</ele>
        <time>2021-07-07T13:11:39+0200</time>
      </trkpt>
      <trkpt lat="45.55684" lon="2.94677">
        <ele>968.082587</ele>
        <time>2021-07-07T13:11:41+0200</time>
      </trkpt>
      <trkpt lat="45.55684" lon="2.9467">
        <ele>968.460405</ele>
        <time>2021-07-07T13:11:43+0200</time>
      </trkpt>
      <trkpt lat="45.55682" lon="2.94663">
        <ele>968.089171</ele>
        <time>2021-07-07T13:11:45+0200</time>
      </trkpt>
      <trkpt lat="45.55679" lon="2.94656">
        <ele>968.589833</ele>
        <time>2021-07-07T13:11:48+0200</time>
      </trkpt>
      <trkpt lat="45.55676" lon="2.94647">
        <ele>968.782772</ele>
        <time>2021-07-07T13:11:51+0200</time>
      </trkpt>
      <trkpt lat="45.55674" lon="2.94639">
        <ele>968.658762</ele>
        <time>2021-07-07T13:11:54+0200</time>
      </trkpt>
      <trkpt lat="45.55672" lon="2.94631">
        <ele>969.008285</ele>
        <time>2021-07-07T13:11:57+0200</time>
      </trkpt>
      <trkpt lat="45.55672" lon="2.94622">
        <ele>969.744136</ele>
        <time>2021-07-07T13:12:00+0200</time>
      </trkpt>
      <trkpt lat="45.55668" lon="2.94615">
        <ele>970.962821</ele>
        <time>2021-07-07T13:12:03+0200</time>
      </trkpt>
      <trkpt lat="45.55664" lon="2.94615">
        <ele>972.066534</ele>
        <time>2021-07-07T13:12:07+0200</time>
      </trkpt>
      <trkpt lat="45.55659" lon="2.94616">
        <ele>971.993969</ele>
        <time>2021-07-07T13:12:10+0200</time>
      </trkpt>
      <trkpt lat="45.55653" lon="2.94615">
        <ele>972.430466</ele>
        <time>2021-07-07T13:12:13+0200</time>
      </trkpt>
      <trkpt lat="45.55649" lon="2.94611">
        <ele>972.60397</ele>
        <time>2021-07-07T13:12:16+0200</time>
      </trkpt>
      <trkpt lat="45.55644" lon="2.94606">
        <ele>974.912773</ele>
        <time>2021-07-07T13:12:19+0200</time>
      </trkpt>
      <trkpt lat="45.55639" lon="2.94601">
        <ele>975.18133</ele>
        <time>2021-07-07T13:12:22+0200</time>
      </trkpt>
      <trkpt lat="45.55637" lon="2.94596">
        <ele>975.608749</ele>
        <time>2021-07-07T13:12:24+0200</time>
      </trkpt>
      <trkpt lat="45.55634" lon="2.9459">
        <ele>975.970296</ele>
        <time>2021-07-07T13:12:26+0200</time>
      </trkpt>
      <trkpt lat="45.55632" lon="2.94582">
        <ele>976.009145</ele>
        <time>2021-07-07T13:12:29+0200</time>
      </trkpt>
      <trkpt lat="45.5563" lon="2.94575">
        <ele>976.158791</ele>
        <time>2021-07-07T13:12:32+0200</time>
      </trkpt>
      <trkpt lat="45.55629" lon="2.94568">
        <ele>975.604236</ele>
        <time>2021-07-07T13:12:35+0200</time>
      </trkpt>
      <trkpt lat="45.55625" lon="2.94562">
        <ele>976.100163</ele>
        <time>2021-07-07T13:12:38+0200</time>
      </trkpt>
      <trkpt lat="45.55622" lon="2.94554">
        <ele>977.329609</ele>
        <time>2021-07-07T13:12:41+0200</time>
      </trkpt>
      <trkpt lat="45.55619" lon="2.94548">
        <ele>978.244239</ele>
        <time>2021-07-07T13:12:44+0200</time>
      </trkpt>
      <trkpt lat="45.55617" lon="2.94542">
        <ele>979.266366</ele>
        <time>2021-07-07T13:12:47+0200</time>
      </trkpt>
      <trkpt lat="45.55612" lon="2.94537">
        <ele>979.566662</ele>
        <time>2021-07-07T13:12:50+0200</time>
      </trkpt>
      <trkpt lat="45.55609" lon="2.94532">
        <ele>980.06535</ele>
        <time>2021-07-07T13:12:53+0200</time>
      </trkpt>
      <trkpt lat="45.55605" lon="2.94527">
        <ele>980.203019</ele>
        <time>2021-07-07T13:12:55+0200</time>
      </trkpt>
      <trkpt lat="45.55603" lon="2.94519">
        <ele>980.624826</ele>
        <time>2021-07-07T13:12:58+0200</time>
      </trkpt>
      <trkpt lat="45.55601" lon="2.94512">
        <ele>980.92657</ele>
        <time>2021-07-07T13:13:01+0200</time>
      </trkpt>
      <trkpt lat="45.55598" lon="2.94505">
        <ele>982.697822</ele>
        <time>2021-07-07T13:13:04+0200</time>
      </trkpt>
      <trkpt lat="45.55595" lon="2.94499">
        <ele>983.115779</ele>
        <time>2021-07-07T13:13:09+0200</time>
      </trkpt>
      <trkpt lat="45.55592" lon="2.94493">
        <ele>982.589985</ele>
        <time>2021-07-07T13:13:12+0200</time>
      </trkpt>
      <trkpt lat="45.55588" lon="2.94487">
        <ele>984.410834</ele>
        <time>2021-07-07T13:13:16+0200</time>
      </trkpt>
      <trkpt lat="45.55584" lon="2.94482">
        <ele>984.806392</ele>
        <time>2021-07-07T13:13:19+0200</time>
      </trkpt>
      <trkpt lat="45.55582" lon="2.94474">
        <ele>985.431618</ele>
        <time>2021-07-07T13:13:22+0200</time>
      </trkpt>
      <trkpt lat="45.55577" lon="2.94467">
        <ele>985.642512</ele>
        <time>2021-07-07T13:13:25+0200</time>
      </trkpt>
      <trkpt lat="45.55574" lon="2.94459">
        <ele>984.892786</ele>
        <time>2021-07-07T13:13:28+0200</time>
      </trkpt>
      <trkpt lat="45.55572" lon="2.94452">
        <ele>986.034723</ele>
        <time>2021-07-07T13:13:31+0200</time>
      </trkpt>
      <trkpt lat="45.5557" lon="2.94444">
        <ele>986.889965</ele>
        <time>2021-07-07T13:13:34+0200</time>
      </trkpt>
      <trkpt lat="45.55567" lon="2.94439">
        <ele>987.591169</ele>
        <time>2021-07-07T13:13:36+0200</time>
      </trkpt>
      <trkpt lat="45.55565" lon="2.94432">
        <ele>987.395991</ele>
        <time>2021-07-07T13:13:39+0200</time>
      </trkpt>
      <trkpt lat="45.55562" lon="2.94427">
        <ele>987.635226</ele>
        <time>2021-07-07T13:13:42+0200</time>
      </trkpt>
      <trkpt lat="45.55558" lon="2.9442">
        <ele>988.722491</ele>
        <time>2021-07-07T13:13:46+0200</time>
      </trkpt>
      <trkpt lat="45.55556" lon="2.94413">
        <ele>989.243215</ele>
        <time>2021-07-07T13:13:50+0200</time>
      </trkpt>
      <trkpt lat="45.55553" lon="2.94407">
        <ele>989.759307</ele>
        <time>2021-07-07T13:13:54+0200</time>
      </trkpt>
      <trkpt lat="45.55549" lon="2.94401">
        <ele>990.498733</ele>
        <time>2021-07-07T13:13:57+0200</time>
      </trkpt>
      <trkpt lat="45.55546" lon="2.94395">
        <ele>990.936553</ele>
        <time>2021-07-07T13:14:00+0200</time>
      </trkpt>
      <trkpt lat="45.55543" lon="2.94389">
        <ele>991.888573</ele>
        <time>2021-07-07T13:14:03+0200</time>
      </trkpt>
      <trkpt lat="45.5554" lon="2.94384">
        <ele>992.401327</ele>
        <time>2021-07-07T13:14:06+0200</time>
      </trkpt>
      <trkpt lat="45.55535" lon="2.94378">
        <ele>992.481261</ele>
        <time>2021-07-07T13:14:10+0200</time>
      </trkpt>
      <trkpt lat="45.55531" lon="2.94372">
        <ele>993.440103</ele>
        <time>2021-07-07T13:14:13+0200</time>
      </trkpt>
      <trkpt lat="45.55527" lon="2.94368">
        <ele>993.536</ele>
        <time>2021-07-07T13:14:16+0200</time>
      </trkpt>
      <trkpt lat="45.55524" lon="2.94363">
        <ele>994.170518</ele>
        <time>2021-07-07T13:14:19+0200</time>
      </trkpt>
      <trkpt lat="45.5552" lon="2.94357">
        <ele>995.20284</ele>
        <time>2021-07-07T13:14:22+0200</time>
      </trkpt>
      <trkpt lat="45.55516" lon="2.94352">
        <ele>995.083208</ele>
        <time>2021-07-07T13:14:25+0200</time>
      </trkpt>
      <trkpt lat="45.55513" lon="2.94345">
        <ele>995.330343</ele>
        <time>2021-07-07T13:14:28+0200</time>
      </trkpt>
      <trkpt lat="45.55509" lon="2.94341">
        <ele>995.699845</ele>
        <time>2021-07-07T13:14:30+0200</time>
      </trkpt>
      <trkpt lat="45.55504" lon="2.94335">
        <ele>995.806444</ele>
        <time>2021-07-07T13:14:32+0200</time>
      </trkpt>
      <trkpt lat="45.55501" lon="2.9433">
        <ele>996.329327</ele>
        <time>2021-07-07T13:14:34+0200</time>
      </trkpt>
      <trkpt lat="45.55496" lon="2.94323">
        <ele>996.430149</ele>
        <time>2021-07-07T13:14:36+0200</time>
      </trkpt>
      <trkpt lat="45.55492" lon="2.94319">
        <ele>996.864645</ele>
        <time>2021-07-07T13:14:38+0200</time>
      </trkpt>
      <trkpt lat="45.55488" lon="2.94316">
        <ele>997.198202</ele>
        <time>2021-07-07T13:14:41+0200</time>
      </trkpt>
      <trkpt lat="45.55483" lon="2.94312">
        <ele>996.77613</ele>
        <time>2021-07-07T13:14:43+0200</time>
      </trkpt>
      <trkpt lat="45.55478" lon="2.94309">
        <ele>996.854104</ele>
        <time>2021-07-07T13:14:46+0200</time>
      </trkpt>
      <trkpt lat="45.55473" lon="2.94301">
        <ele>997.283605</ele>
        <time>2021-07-07T13:14:49+0200</time>
      </trkpt>
      <trkpt lat="45.5547" lon="2.94295">
        <ele>997.492219</ele>
        <time>2021-07-07T13:14:51+0200</time>
      </trkpt>
      <trkpt lat="45.55467" lon="2.94288">
        <ele>997.77937</ele>
        <time>2021-07-07T13:14:53+0200</time>
      </trkpt>
      <trkpt lat="45.55464" lon="2.94281">
        <ele>997.498591</ele>
        <time>2021-07-07T13:14:55+0200</time>
      </trkpt>
      <trkpt lat="45.55462" lon="2.94275">
        <ele>997.679174</ele>
        <time>2021-07-07T13:14:57+0200</time>
      </trkpt>
      <trkpt lat="45.5546" lon="2.94268">
        <ele>998.304155</ele>
        <time>2021-07-07T13:14:59+0200</time>
      </trkpt>
      <trkpt lat="45.55457" lon="2.94262">
        <ele>998.281867</ele>
        <time>2021-07-07T13:15:01+0200</time>
      </trkpt>
      <trkpt lat="45.55454" lon="2.94255">
        <ele>997.948097</ele>
        <time>2021-07-07T13:15:03+0200</time>
      </trkpt>
      <trkpt lat="45.55451" lon="2.9425">
        <ele>998.179891</ele>
        <time>2021-07-07T13:15:05+0200</time>
      </trkpt>
      <trkpt lat="45.55449" lon="2.94243">
        <ele>998.637678</ele>
        <time>2021-07-07T13:15:07+0200</time>
      </trkpt>
      <trkpt lat="45.55447" lon="2.94237">
        <ele>998.954808</ele>
        <time>2021-07-07T13:15:09+0200</time>
      </trkpt>
      <trkpt lat="45.55444" lon="2.94232">
        <ele>999.641625</ele>
        <time>2021-07-07T13:15:11+0200</time>
      </trkpt>
      <trkpt lat="45.55438" lon="2.94226">
        <ele>1000.908748</ele>
        <time>2021-07-07T13:15:14+0200</time>
      </trkpt>
      <trkpt lat="45.55434" lon="2.94221">
        <ele>1001.531902</ele>
        <time>2021-07-07T13:15:16+0200</time>
      </trkpt>
      <trkpt lat="45.5543" lon="2.94214">
        <ele>1001.700796</ele>
        <time>2021-07-07T13:15:18+0200</time>
      </trkpt>
      <trkpt lat="45.55427" lon="2.94209">
        <ele>1001.818378</ele>
        <time>2021-07-07T13:15:20+0200</time>
      </trkpt>
      <trkpt lat="45.55424" lon="2.94204">
        <ele>1002.33249</ele>
        <time>2021-07-07T13:15:22+0200</time>
      </trkpt>
      <trkpt lat="45.55421" lon="2.94198">
        <ele>1002.15121</ele>
        <time>2021-07-07T13:15:24+0200</time>
      </trkpt>
      <trkpt lat="45.55419" lon="2.94191">
        <ele>1002.525812</ele>
        <time>2021-07-07T13:15:26+0200</time>
      </trkpt>
      <trkpt lat="45.55416" lon="2.94185">
        <ele>1002.971734</ele>
        <time>2021-07-07T13:15:28+0200</time>
      </trkpt>
      <trkpt lat="45.55413" lon="2.94179">
        <ele>1003.087119</ele>
        <time>2021-07-07T13:15:30+0200</time>
      </trkpt>
      <trkpt lat="45.55412" lon="2.94173">
        <ele>1003.293529</ele>
        <time>2021-07-07T13:15:32+0200</time>
      </trkpt>
      <trkpt lat="45.5541" lon="2.94166">
        <ele>1004.055527</ele>
        <time>2021-07-07T13:15:34+0200</time>
      </trkpt>
      <trkpt lat="45.55408" lon="2.94159">
        <ele>1004.075758</ele>
        <time>2021-07-07T13:15:36+0200</time>
      </trkpt>
      <trkpt lat="45.55406" lon="2.94153">
        <ele>1004.976218</ele>
        <time>2021-07-07T13:15:38+0200</time>
      </trkpt>
      <trkpt lat="45.55403" lon="2.94147">
        <ele>1005.086088</ele>
        <time>2021-07-07T13:15:40+0200</time>
      </trkpt>
      <trkpt lat="45.554" lon="2.94141">
        <ele>1005.278309</ele>
        <time>2021-07-07T13:15:42+0200</time>
      </trkpt>
      <trkpt lat="45.55398" lon="2.94134">
        <ele>1005.138972</ele>
        <time>2021-07-07T13:15:44+0200</time>
      </trkpt>
      <trkpt lat="45.55395" lon="2.94128">
        <ele>1005.199332</ele>
        <time>2021-07-07T13:15:46+0200</time>
      </trkpt>
      <trkpt lat="45.55392" lon="2.94121">
        <ele>1005.74817</ele>
        <time>2021-07-07T13:15:49+0200</time>
      </trkpt>
      <trkpt lat="45.55388" lon="2.94113">
        <ele>1005.89801</ele>
        <time>2021-07-07T13:15:52+0200</time>
      </trkpt>
      <trkpt lat="45.55385" lon="2.94107">
        <ele>1005.146214</ele>
        <time>2021-07-07T13:15:54+0200</time>
      </trkpt>
      <trkpt lat="45.55381" lon="2.94102">
        <ele>1004.791582</ele>
        <time>2021-07-07T13:15:56+0200</time>
      </trkpt>
      <trkpt lat="45.55377" lon="2.94099">
        <ele>1006.094929</ele>
        <time>2021-07-07T13:15:59+0200</time>
      </trkpt>
      <trkpt lat="45.55372" lon="2.94094">
        <ele>1006.019519</ele>
        <time>2021-07-07T13:16:02+0200</time>
      </trkpt>
      <trkpt lat="45.55368" lon="2.9409">
        <ele>1006.464865</ele>
        <time>2021-07-07T13:16:05+0200</time>
      </trkpt>
      <trkpt lat="45.55362" lon="2.94087">
        <ele>1006.832888</ele>
        <time>2021-07-07T13:16:08+0200</time>
      </trkpt>
      <trkpt lat="45.55358" lon="2.94083">
        <ele>1007.973728</ele>
        <time>2021-07-07T13:16:11+0200</time>
      </trkpt>
      <trkpt lat="45.55352" lon="2.94078">
        <ele>1008.528725</ele>
        <time>2021-07-07T13:16:14+0200</time>
      </trkpt>
      <trkpt lat="45.55348" lon="2.94074">
        <ele>1009.206502</ele>
        <time>2021-07-07T13:16:17+0200</time>
      </trkpt>
      <trkpt lat="45.55343" lon="2.94069">
        <ele>1009.532692</ele>
        <time>2021-07-07T13:16:20+0200</time>
      </trkpt>
      <trkpt lat="45.55338" lon="2.94066">
        <ele>1009.857977</ele>
        <time>2021-07-07T13:16:23+0200</time>
      </trkpt>
      <trkpt lat="45.55334" lon="2.94061">
        <ele>1010.416261</ele>
        <time>2021-07-07T13:16:27+0200</time>
      </trkpt>
      <trkpt lat="45.55328" lon="2.94057">
        <ele>1011.269789</ele>
        <time>2021-07-07T13:16:31+0200</time>
      </trkpt>
      <trkpt lat="45.55324" lon="2.94054">
        <ele>1011.564354</ele>
        <time>2021-07-07T13:16:34+0200</time>
      </trkpt>
      <trkpt lat="45.55319" lon="2.9405">
        <ele>1012.616849</ele>
        <time>2021-07-07T13:16:38+0200</time>
      </trkpt>
      <trkpt lat="45.55314" lon="2.94049">
        <ele>1013.63075</ele>
        <time>2021-07-07T13:16:42+0200</time>
      </trkpt>
      <trkpt lat="45.5531" lon="2.94046">
        <ele>1014.206493</ele>
        <time>2021-07-07T13:16:45+0200</time>
      </trkpt>
      <trkpt lat="45.55306" lon="2.94043">
        <ele>1014.718989</ele>
        <time>2021-07-07T13:16:48+0200</time>
      </trkpt>
      <trkpt lat="45.55301" lon="2.94039">
        <ele>1015.662288</ele>
        <time>2021-07-07T13:16:52+0200</time>
      </trkpt>
      <trkpt lat="45.55296" lon="2.94036">
        <ele>1016.571849</ele>
        <time>2021-07-07T13:16:56+0200</time>
      </trkpt>
      <trkpt lat="45.55292" lon="2.94033">
        <ele>1017.04287</ele>
        <time>2021-07-07T13:16:59+0200</time>
      </trkpt>
      <trkpt lat="45.55287" lon="2.9403">
        <ele>1017.316123</ele>
        <time>2021-07-07T13:17:02+0200</time>
      </trkpt>
      <trkpt lat="45.55283" lon="2.94027">
        <ele>1018.817368</ele>
        <time>2021-07-07T13:17:06+0200</time>
      </trkpt>
      <trkpt lat="45.55279" lon="2.94022">
        <ele>1018.943867</ele>
        <time>2021-07-07T13:17:10+0200</time>
      </trkpt>
      <trkpt lat="45.55275" lon="2.94019">
        <ele>1019.024521</ele>
        <time>2021-07-07T13:17:13+0200</time>
      </trkpt>
      <trkpt lat="45.55271" lon="2.94014">
        <ele>1019.243926</ele>
        <time>2021-07-07T13:17:16+0200</time>
      </trkpt>
      <trkpt lat="45.55269" lon="2.94008">
        <ele>1020.828296</ele>
        <time>2021-07-07T13:17:20+0200</time>
      </trkpt>
      <trkpt lat="45.55267" lon="2.94002">
        <ele>1021.803991</ele>
        <time>2021-07-07T13:17:23+0200</time>
      </trkpt>
      <trkpt lat="45.55262" lon="2.93998">
        <ele>1022.627233</ele>
        <time>2021-07-07T13:17:27+0200</time>
      </trkpt>
      <trkpt lat="45.55255" lon="2.93995">
        <ele>1022.868169</ele>
        <time>2021-07-07T13:17:31+0200</time>
      </trkpt>
      <trkpt lat="45.55251" lon="2.93994">
        <ele>1024.152463</ele>
        <time>2021-07-07T13:17:34+0200</time>
      </trkpt>
      <trkpt lat="45.55246" lon="2.93992">
        <ele>1024.044058</ele>
        <time>2021-07-07T13:17:37+0200</time>
      </trkpt>
      <trkpt lat="45.55241" lon="2.9399">
        <ele>1024.49199</ele>
        <time>2021-07-07T13:17:40+0200</time>
      </trkpt>
      <trkpt lat="45.55236" lon="2.93986">
        <ele>1025.396773</ele>
        <time>2021-07-07T13:17:43+0200</time>
      </trkpt>
      <trkpt lat="45.5523" lon="2.93984">
        <ele>1025.484965</ele>
        <time>2021-07-07T13:17:46+0200</time>
      </trkpt>
      <trkpt lat="45.55226" lon="2.93982">
        <ele>1025.488048</ele>
        <time>2021-07-07T13:17:49+0200</time>
      </trkpt>
      <trkpt lat="45.5522" lon="2.93979">
        <ele>1026.020592</ele>
        <time>2021-07-07T13:17:53+0200</time>
      </trkpt>
      <trkpt lat="45.55216" lon="2.93975">
        <ele>1026.384665</ele>
        <time>2021-07-07T13:17:56+0200</time>
      </trkpt>
      <trkpt lat="45.55211" lon="2.93973">
        <ele>1026.798585</ele>
        <time>2021-07-07T13:17:59+0200</time>
      </trkpt>
      <trkpt lat="45.55206" lon="2.93969">
        <ele>1026.649936</ele>
        <time>2021-07-07T13:18:03+0200</time>
      </trkpt>
      <trkpt lat="45.55201" lon="2.93966">
        <ele>1026.914497</ele>
        <time>2021-07-07T13:18:07+0200</time>
      </trkpt>
      <trkpt lat="45.55198" lon="2.93962">
        <ele>1028.294469</ele>
        <time>2021-07-07T13:18:14+0200</time>
      </trkpt>
      <trkpt lat="45.55199" lon="2.93954">
        <ele>1029.463018</ele>
        <time>2021-07-07T13:19:54+0200</time>
      </trkpt>
      <trkpt lat="45.55202" lon="2.93946">
        <ele>1029.600274</ele>
        <time>2021-07-07T13:19:57+0200</time>
      </trkpt>
      <trkpt lat="45.55205" lon="2.9394">
        <ele>1031.157766</ele>
        <time>2021-07-07T13:19:59+0200</time>
      </trkpt>
      <trkpt lat="45.55209" lon="2.93935">
        <ele>1031.793706</ele>
        <time>2021-07-07T13:20:01+0200</time>
      </trkpt>
      <trkpt lat="45.55213" lon="2.93932">
        <ele>1031.560784</ele>
        <time>2021-07-07T13:20:03+0200</time>
      </trkpt>
      <trkpt lat="45.55217" lon="2.93927">
        <ele>1032.028388</ele>
        <time>2021-07-07T13:20:05+0200</time>
      </trkpt>
      <trkpt lat="45.5522" lon="2.93922">
        <ele>1032.225616</ele>
        <time>2021-07-07T13:20:07+0200</time>
      </trkpt>
      <trkpt lat="45.55226" lon="2.93916">
        <ele>1031.829171</ele>
        <time>2021-07-07T13:20:10+0200</time>
      </trkpt>
      <trkpt lat="45.5523" lon="2.93912">
        <ele>1031.410791</ele>
        <time>2021-07-07T13:20:12+0200</time>
      </trkpt>
      <trkpt lat="45.55234" lon="2.93904">
        <ele>1031.303262</ele>
        <time>2021-07-07T13:20:15+0200</time>
      </trkpt>
      <trkpt lat="45.55238" lon="2.93899">
        <ele>1031.48892</ele>
        <time>2021-07-07T13:20:17+0200</time>
      </trkpt>
      <trkpt lat="45.55241" lon="2.93894">
        <ele>1031.751867</ele>
        <time>2021-07-07T13:20:19+0200</time>
      </trkpt>
      <trkpt lat="45.55244" lon="2.93888">
        <ele>1031.963456</ele>
        <time>2021-07-07T13:20:21+0200</time>
      </trkpt>
      <trkpt lat="45.55248" lon="2.93882">
        <ele>1031.948853</ele>
        <time>2021-07-07T13:20:23+0200</time>
      </trkpt>
      <trkpt lat="45.55251" lon="2.93875">
        <ele>1031.666757</ele>
        <time>2021-07-07T13:20:25+0200</time>
      </trkpt>
      <trkpt lat="45.55254" lon="2.93866">
        <ele>1031.662426</ele>
        <time>2021-07-07T13:20:27+0200</time>
      </trkpt>
      <trkpt lat="45.55255" lon="2.93859">
        <ele>1031.500094</ele>
        <time>2021-07-07T13:20:29+0200</time>
      </trkpt>
      <trkpt lat="45.55258" lon="2.9385">
        <ele>1031.191441</ele>
        <time>2021-07-07T13:20:31+0200</time>
      </trkpt>
      <trkpt lat="45.55259" lon="2.93842">
        <ele>1031.430499</ele>
        <time>2021-07-07T13:20:33+0200</time>
      </trkpt>
      <trkpt lat="45.5526" lon="2.93833">
        <ele>1031.372504</ele>
        <time>2021-07-07T13:20:35+0200</time>
      </trkpt>
      <trkpt lat="45.55261" lon="2.93825">
        <ele>1031.858755</ele>
        <time>2021-07-07T13:20:37+0200</time>
      </trkpt>
      <trkpt lat="45.55264" lon="2.93817">
        <ele>1032.368744</ele>
        <time>2021-07-07T13:20:39+0200</time>
      </trkpt>
      <trkpt lat="45.55266" lon="2.93809">
        <ele>1032.633888</ele>
        <time>2021-07-07T13:20:41+0200</time>
      </trkpt>
      <trkpt lat="45.55268" lon="2.93801">
        <ele>1032.602887</ele>
        <time>2021-07-07T13:20:43+0200</time>
      </trkpt>
      <trkpt lat="45.55269" lon="2.93793">
        <ele>1032.764843</ele>
        <time>2021-07-07T13:20:45+0200</time>
      </trkpt>
      <trkpt lat="45.55271" lon="2.93785">
        <ele>1033.131246</ele>
        <time>2021-07-07T13:20:47+0200</time>
      </trkpt>
      <trkpt lat="45.55272" lon="2.93776">
        <ele>1033.415674</ele>
        <time>2021-07-07T13:20:49+0200</time>
      </trkpt>
      <trkpt lat="45.55273" lon="2.93768">
        <ele>1033.530994</ele>
        <time>2021-07-07T13:20:51+0200</time>
      </trkpt>
      <trkpt lat="45.55273" lon="2.93759">
        <ele>1033.939782</ele>
        <time>2021-07-07T13:20:53+0200</time>
      </trkpt>
      <trkpt lat="45.55272" lon="2.93751">
        <ele>1033.769337</ele>
        <time>2021-07-07T13:20:55+0200</time>
      </trkpt>
      <trkpt lat="45.55271" lon="2.93743">
        <ele>1034.176128</ele>
        <time>2021-07-07T13:20:57+0200</time>
      </trkpt>
      <trkpt lat="45.5527" lon="2.93735">
        <ele>1034.262337</ele>
        <time>2021-07-07T13:20:59+0200</time>
      </trkpt>
      <trkpt lat="45.5527" lon="2.93728">
        <ele>1034.729397</ele>
        <time>2021-07-07T13:21:01+0200</time>
      </trkpt>
      <trkpt lat="45.55269" lon="2.93721">
        <ele>1035.083099</ele>
        <time>2021-07-07T13:21:03+0200</time>
      </trkpt>
      <trkpt lat="45.55268" lon="2.93714">
        <ele>1034.996685</ele>
        <time>2021-07-07T13:21:05+0200</time>
      </trkpt>
      <trkpt lat="45.55266" lon="2.93706">
        <ele>1035.449781</ele>
        <time>2021-07-07T13:21:07+0200</time>
      </trkpt>
      <trkpt lat="45.55266" lon="2.93699">
        <ele>1035.656004</ele>
        <time>2021-07-07T13:21:09+0200</time>
      </trkpt>
      <trkpt lat="45.55265" lon="2.93692">
        <ele>1036.134042</ele>
        <time>2021-07-07T13:21:11+0200</time>
      </trkpt>
      <trkpt lat="45.55263" lon="2.93684">
        <ele>1036.59025</ele>
        <time>2021-07-07T13:21:13+0200</time>
      </trkpt>
      <trkpt lat="45.55262" lon="2.93677">
        <ele>1036.510991</ele>
        <time>2021-07-07T13:21:15+0200</time>
      </trkpt>
      <trkpt lat="45.55261" lon="2.93668">
        <ele>1037.182103</ele>
        <time>2021-07-07T13:21:18+0200</time>
      </trkpt>
      <trkpt lat="45.55261" lon="2.93661">
        <ele>1037.694778</ele>
        <time>2021-07-07T13:21:20+0200</time>
      </trkpt>
      <trkpt lat="45.55259" lon="2.93652">
        <ele>1038.144482</ele>
        <time>2021-07-07T13:21:23+0200</time>
      </trkpt>
      <trkpt lat="45.55258" lon="2.93644">
        <ele>1038.942077</ele>
        <time>2021-07-07T13:21:26+0200</time>
      </trkpt>
      <trkpt lat="45.55255" lon="2.93636">
        <ele>1039.248927</ele>
        <time>2021-07-07T13:21:29+0200</time>
      </trkpt>
      <trkpt lat="45.55254" lon="2.9363">
        <ele>1039.988738</ele>
        <time>2021-07-07T13:21:31+0200</time>
      </trkpt>
      <trkpt lat="45.55251" lon="2.93623">
        <ele>1041.67869</ele>
        <time>2021-07-07T13:21:34+0200</time>
      </trkpt>
      <trkpt lat="45.55248" lon="2.93617">
        <ele>1042.270013</ele>
        <time>2021-07-07T13:21:36+0200</time>
      </trkpt>
      <trkpt lat="45.55245" lon="2.93613">
        <ele>1042.973127</ele>
        <time>2021-07-07T13:21:38+0200</time>
      </trkpt>
      <trkpt lat="45.55241" lon="2.93608">
        <ele>1043.175322</ele>
        <time>2021-07-07T13:21:40+0200</time>
      </trkpt>
      <trkpt lat="45.55236" lon="2.93603">
        <ele>1043.711779</ele>
        <time>2021-07-07T13:21:43+0200</time>
      </trkpt>
      <trkpt lat="45.55232" lon="2.93596">
        <ele>1044.514632</ele>
        <time>2021-07-07T13:21:46+0200</time>
      </trkpt>
      <trkpt lat="45.55229" lon="2.93589">
        <ele>1044.863956</ele>
        <time>2021-07-07T13:21:49+0200</time>
      </trkpt>
      <trkpt lat="45.55225" lon="2.93581">
        <ele>1045.138616</ele>
        <time>2021-07-07T13:21:52+0200</time>
      </trkpt>
      <trkpt lat="45.55221" lon="2.93574">
        <ele>1045.77828</ele>
        <time>2021-07-07T13:21:55+0200</time>
      </trkpt>
      <trkpt lat="45.55221" lon="2.93567">
        <ele>1045.67382</ele>
        <time>2021-07-07T13:21:57+0200</time>
      </trkpt>
      <trkpt lat="45.55217" lon="2.93561">
        <ele>1046.513658</ele>
        <time>2021-07-07T13:22:00+0200</time>
      </trkpt>
      <trkpt lat="45.55214" lon="2.93554">
        <ele>1046.656371</ele>
        <time>2021-07-07T13:22:03+0200</time>
      </trkpt>
      <trkpt lat="45.55211" lon="2.93547">
        <ele>1047.335496</ele>
        <time>2021-07-07T13:22:06+0200</time>
      </trkpt>
      <trkpt lat="45.55207" lon="2.93541">
        <ele>1048.20283</ele>
        <time>2021-07-07T13:22:09+0200</time>
      </trkpt>
      <trkpt lat="45.55203" lon="2.93537">
        <ele>1048.996673</ele>
        <time>2021-07-07T13:22:12+0200</time>
      </trkpt>
      <trkpt lat="45.552" lon="2.93531">
        <ele>1049.53396</ele>
        <time>2021-07-07T13:22:14+0200</time>
      </trkpt>
      <trkpt lat="45.55197" lon="2.93526">
        <ele>1049.413083</ele>
        <time>2021-07-07T13:22:16+0200</time>
      </trkpt>
      <trkpt lat="45.55193" lon="2.93521">
        <ele>1049.553461</ele>
        <time>2021-07-07T13:22:20+0200</time>
      </trkpt>
      <trkpt lat="45.55189" lon="2.93526">
        <ele>1049.342977</ele>
        <time>2021-07-07T13:22:23+0200</time>
      </trkpt>
      <trkpt lat="45.55185" lon="2.93531">
        <ele>1047.967039</ele>
        <time>2021-07-07T13:22:27+0200</time>
      </trkpt>
      <trkpt lat="45.55182" lon="2.93539">
        <ele>1047.820939</ele>
        <time>2021-07-07T13:22:30+0200</time>
      </trkpt>
      <trkpt lat="45.55177" lon="2.93545">
        <ele>1047.693712</ele>
        <time>2021-07-07T13:22:32+0200</time>
      </trkpt>
      <trkpt lat="45.55172" lon="2.93551">
        <ele>1047.580975</ele>
        <time>2021-07-07T13:22:34+0200</time>
      </trkpt>
      <trkpt lat="45.55167" lon="2.93557">
        <ele>1047.124565</ele>
        <time>2021-07-07T13:22:36+0200</time>
      </trkpt>
      <trkpt lat="45.55161" lon="2.93564">
        <ele>1047.100607</ele>
        <time>2021-07-07T13:22:38+0200</time>
      </trkpt>
      <trkpt lat="45.55154" lon="2.93571">
        <ele>1047.190383</ele>
        <time>2021-07-07T13:22:40+0200</time>
      </trkpt>
      <trkpt lat="45.55147" lon="2.93575">
        <ele>1047.557504</ele>
        <time>2021-07-07T13:22:42+0200</time>
      </trkpt>
      <trkpt lat="45.5514" lon="2.9358">
        <ele>1047.69312</ele>
        <time>2021-07-07T13:22:44+0200</time>
      </trkpt>
      <trkpt lat="45.55132" lon="2.93585">
        <ele>1047.836712</ele>
        <time>2021-07-07T13:22:46+0200</time>
      </trkpt>
      <trkpt lat="45.55124" lon="2.93591">
        <ele>1047.993855</ele>
        <time>2021-07-07T13:22:48+0200</time>
      </trkpt>
      <trkpt lat="45.55116" lon="2.93596">
        <ele>1047.806724</ele>
        <time>2021-07-07T13:22:50+0200</time>
      </trkpt>
      <trkpt lat="45.55109" lon="2.93601">
        <ele>1047.550376</ele>
        <time>2021-07-07T13:22:52+0200</time>
      </trkpt>
      <trkpt lat="45.551" lon="2.93605">
        <ele>1047.173704</ele>
        <time>2021-07-07T13:22:54+0200</time>
      </trkpt>
      <trkpt lat="45.55096" lon="2.93608">
        <ele>1047.012041</ele>
        <time>2021-07-07T13:22:55+0200</time>
      </trkpt>
      <trkpt lat="45.55092" lon="2.9361">
        <ele>1046.806507</ele>
        <time>2021-07-07T13:22:56+0200</time>
      </trkpt>
      <trkpt lat="45.55087" lon="2.93612">
        <ele>1046.640774</ele>
        <time>2021-07-07T13:22:57+0200</time>
      </trkpt>
      <trkpt lat="45.55083" lon="2.93615">
        <ele>1046.507447</ele>
        <time>2021-07-07T13:22:58+0200</time>
      </trkpt>
      <trkpt lat="45.55078" lon="2.93618">
        <ele>1046.579949</ele>
        <time>2021-07-07T13:22:59+0200</time>
      </trkpt>
      <trkpt lat="45.55073" lon="2.93619">
        <ele>1046.539968</ele>
        <time>2021-07-07T13:23:00+0200</time>
      </trkpt>
      <trkpt lat="45.55069" lon="2.9362">
        <ele>1046.37403</ele>
        <time>2021-07-07T13:23:01+0200</time>
      </trkpt>
      <trkpt lat="45.55061" lon="2.93623">
        <ele>1045.71934</ele>
        <time>2021-07-07T13:23:03+0200</time>
      </trkpt>
      <trkpt lat="45.55057" lon="2.93627">
        <ele>1045.698252</ele>
        <time>2021-07-07T13:23:05+0200</time>
      </trkpt>
      <trkpt lat="45.55057" lon="2.93635">
        <ele>1044.625401</ele>
        <time>2021-07-07T13:23:09+0200</time>
      </trkpt>
      <trkpt lat="45.55058" lon="2.93642">
        <ele>1044.770983</ele>
        <time>2021-07-07T13:23:11+0200</time>
      </trkpt>
      <trkpt lat="45.55059" lon="2.93648">
        <ele>1044.526258</ele>
        <time>2021-07-07T13:23:13+0200</time>
      </trkpt>
      <trkpt lat="45.55062" lon="2.93656">
        <ele>1044.349438</ele>
        <time>2021-07-07T13:23:15+0200</time>
      </trkpt>
      <trkpt lat="45.55063" lon="2.93664">
        <ele>1044.410354</ele>
        <time>2021-07-07T13:23:17+0200</time>
      </trkpt>
      <trkpt lat="45.55065" lon="2.93675">
        <ele>1043.773713</ele>
        <time>2021-07-07T13:23:19+0200</time>
      </trkpt>
      <trkpt lat="45.55066" lon="2.93686">
        <ele>1043.32849</ele>
        <time>2021-07-07T13:23:21+0200</time>
      </trkpt>
      <trkpt lat="45.55066" lon="2.93692">
        <ele>1043.042437</ele>
        <time>2021-07-07T13:23:22+0200</time>
      </trkpt>
      <trkpt lat="45.5507" lon="2.93704">
        <ele>1042.593598</ele>
        <time>2021-07-07T13:23:24+0200</time>
      </trkpt>
      <trkpt lat="45.55071" lon="2.93711">
        <ele>1042.393457</ele>
        <time>2021-07-07T13:23:25+0200</time>
      </trkpt>
      <trkpt lat="45.55072" lon="2.93719">
        <ele>1042.230988</ele>
        <time>2021-07-07T13:23:26+0200</time>
      </trkpt>
      <trkpt lat="45.55075" lon="2.93726">
        <ele>1041.954747</ele>
        <time>2021-07-07T13:23:27+0200</time>
      </trkpt>
      <trkpt lat="45.55079" lon="2.93734">
        <ele>1041.616442</ele>
        <time>2021-07-07T13:23:28+0200</time>
      </trkpt>
      <trkpt lat="45.55081" lon="2.93742">
        <ele>1041.044327</ele>
        <time>2021-07-07T13:23:29+0200</time>
      </trkpt>
      <trkpt lat="45.55084" lon="2.9375">
        <ele>1041.000678</ele>
        <time>2021-07-07T13:23:30+0200</time>
      </trkpt>
      <trkpt lat="45.55087" lon="2.93759">
        <ele>1040.636724</ele>
        <time>2021-07-07T13:23:31+0200</time>
      </trkpt>
      <trkpt lat="45.55091" lon="2.93769">
        <ele>1040.022284</ele>
        <time>2021-07-07T13:23:32+0200</time>
      </trkpt>
      <trkpt lat="45.55097" lon="2.93778">
        <ele>1038.689782</ele>
        <time>2021-07-07T13:23:33+0200</time>
      </trkpt>
      <trkpt lat="45.55103" lon="2.93786">
        <ele>1038.575654</ele>
        <time>2021-07-07T13:23:34+0200</time>
      </trkpt>
      <trkpt lat="45.55106" lon="2.93795">
        <ele>1038.421811</ele>
        <time>2021-07-07T13:23:35+0200</time>
      </trkpt>
      <trkpt lat="45.55104" lon="2.93802">
        <ele>1038.321735</ele>
        <time>2021-07-07T13:23:36+0200</time>
      </trkpt>
      <trkpt lat="45.55098" lon="2.93799">
        <ele>1037.583624</ele>
        <time>2021-07-07T13:23:37+0200</time>
      </trkpt>
      <trkpt lat="45.55094" lon="2.93797">
        <ele>1036.382607</ele>
        <time>2021-07-07T13:23:39+0200</time>
      </trkpt>
      <trkpt lat="45.55091" lon="2.93792">
        <ele>1037.349971</ele>
        <time>2021-07-07T13:23:41+0200</time>
      </trkpt>
      <trkpt lat="45.55087" lon="2.93787">
        <ele>1037.358835</ele>
        <time>2021-07-07T13:23:43+0200</time>
      </trkpt>
      <trkpt lat="45.55081" lon="2.93782">
        <ele>1037.517636</ele>
        <time>2021-07-07T13:23:45+0200</time>
      </trkpt>
      <trkpt lat="45.55077" lon="2.93776">
        <ele>1038.163587</ele>
        <time>2021-07-07T13:23:47+0200</time>
      </trkpt>
      <trkpt lat="45.55071" lon="2.9377">
        <ele>1038.192825</ele>
        <time>2021-07-07T13:23:49+0200</time>
      </trkpt>
      <trkpt lat="45.55065" lon="2.93764">
        <ele>1038.273461</ele>
        <time>2021-07-07T13:23:51+0200</time>
      </trkpt>
      <trkpt lat="45.55058" lon="2.9376">
        <ele>1038.608322</ele>
        <time>2021-07-07T13:23:53+0200</time>
      </trkpt>
      <trkpt lat="45.55051" lon="2.93754">
        <ele>1038.758465</ele>
        <time>2021-07-07T13:23:55+0200</time>
      </trkpt>
      <trkpt lat="45.55045" lon="2.9375">
        <ele>1041.173552</ele>
        <time>2021-07-07T13:23:58+0200</time>
      </trkpt>
      <trkpt lat="45.55039" lon="2.93746">
        <ele>1041.742695</ele>
        <time>2021-07-07T13:24:00+0200</time>
      </trkpt>
      <trkpt lat="45.55031" lon="2.93744">
        <ele>1040.907523</ele>
        <time>2021-07-07T13:24:02+0200</time>
      </trkpt>
      <trkpt lat="45.55022" lon="2.93742">
        <ele>1040.2176</ele>
        <time>2021-07-07T13:24:04+0200</time>
      </trkpt>
      <trkpt lat="45.55017" lon="2.93742">
        <ele>1039.882683</ele>
        <time>2021-07-07T13:24:05+0200</time>
      </trkpt>
      <trkpt lat="45.55011" lon="2.9374">
        <ele>1039.835408</ele>
        <time>2021-07-07T13:24:06+0200</time>
      </trkpt>
      <trkpt lat="45.55006" lon="2.9374">
        <ele>1040.215992</ele>
        <time>2021-07-07T13:24:07+0200</time>
      </trkpt>
      <trkpt lat="45.54998" lon="2.93739">
        <ele>1040.603097</ele>
        <time>2021-07-07T13:24:09+0200</time>
      </trkpt>
      <trkpt lat="45.54992" lon="2.93741">
        <ele>1040.827962</ele>
        <time>2021-07-07T13:24:11+0200</time>
      </trkpt>
      <trkpt lat="45.54985" lon="2.93744">
        <ele>1041.191489</ele>
        <time>2021-07-07T13:24:13+0200</time>
      </trkpt>
      <trkpt lat="45.5498" lon="2.93749">
        <ele>1041.691819</ele>
        <time>2021-07-07T13:24:15+0200</time>
      </trkpt>
      <trkpt lat="45.54976" lon="2.93753">
        <ele>1042.187547</ele>
        <time>2021-07-07T13:24:17+0200</time>
      </trkpt>
      <trkpt lat="45.5497" lon="2.93757">
        <ele>1042.417034</ele>
        <time>2021-07-07T13:24:19+0200</time>
      </trkpt>
      <trkpt lat="45.54963" lon="2.93761">
        <ele>1042.849527</ele>
        <time>2021-07-07T13:24:21+0200</time>
      </trkpt>
      <trkpt lat="45.54957" lon="2.93764">
        <ele>1043.207855</ele>
        <time>2021-07-07T13:24:23+0200</time>
      </trkpt>
      <trkpt lat="45.54952" lon="2.93768">
        <ele>1043.712418</ele>
        <time>2021-07-07T13:24:25+0200</time>
      </trkpt>
      <trkpt lat="45.54945" lon="2.9377">
        <ele>1044.661846</ele>
        <time>2021-07-07T13:24:27+0200</time>
      </trkpt>
      <trkpt lat="45.54938" lon="2.93772">
        <ele>1044.792463</ele>
        <time>2021-07-07T13:24:29+0200</time>
      </trkpt>
      <trkpt lat="45.54932" lon="2.93771">
        <ele>1044.853031</ele>
        <time>2021-07-07T13:24:31+0200</time>
      </trkpt>
      <trkpt lat="45.54925" lon="2.93772">
        <ele>1045.879854</ele>
        <time>2021-07-07T13:24:33+0200</time>
      </trkpt>
      <trkpt lat="45.54918" lon="2.93774">
        <ele>1046.454963</ele>
        <time>2021-07-07T13:24:35+0200</time>
      </trkpt>
      <trkpt lat="45.54911" lon="2.93776">
        <ele>1046.669848</ele>
        <time>2021-07-07T13:24:37+0200</time>
      </trkpt>
      <trkpt lat="45.54905" lon="2.93777">
        <ele>1047.192081</ele>
        <time>2021-07-07T13:24:39+0200</time>
      </trkpt>
      <trkpt lat="45.54899" lon="2.93777">
        <ele>1047.891705</ele>
        <time>2021-07-07T13:24:41+0200</time>
      </trkpt>
      <trkpt lat="45.54894" lon="2.93777">
        <ele>1047.609136</ele>
        <time>2021-07-07T13:24:43+0200</time>
      </trkpt>
      <trkpt lat="45.54888" lon="2.93778">
        <ele>1047.733483</ele>
        <time>2021-07-07T13:24:45+0200</time>
      </trkpt>
      <trkpt lat="45.54882" lon="2.9378">
        <ele>1047.994166</ele>
        <time>2021-07-07T13:24:47+0200</time>
      </trkpt>
      <trkpt lat="45.54875" lon="2.93781">
        <ele>1048.49323</ele>
        <time>2021-07-07T13:24:49+0200</time>
      </trkpt>
      <trkpt lat="45.54869" lon="2.9378">
        <ele>1048.774342</ele>
        <time>2021-07-07T13:24:51+0200</time>
      </trkpt>
      <trkpt lat="45.54863" lon="2.93782">
        <ele>1049.121828</ele>
        <time>2021-07-07T13:24:53+0200</time>
      </trkpt>
      <trkpt lat="45.54857" lon="2.93781">
        <ele>1049.633621</ele>
        <time>2021-07-07T13:24:55+0200</time>
      </trkpt>
      <trkpt lat="45.54851" lon="2.93781">
        <ele>1050.57915</ele>
        <time>2021-07-07T13:24:57+0200</time>
      </trkpt>
      <trkpt lat="45.54845" lon="2.93781">
        <ele>1051.268152</ele>
        <time>2021-07-07T13:24:59+0200</time>
      </trkpt>
      <trkpt lat="45.5484" lon="2.93782">
        <ele>1051.39501</ele>
        <time>2021-07-07T13:25:01+0200</time>
      </trkpt>
      <trkpt lat="45.54835" lon="2.93782">
        <ele>1051.466023</ele>
        <time>2021-07-07T13:25:03+0200</time>
      </trkpt>
      <trkpt lat="45.54829" lon="2.93783">
        <ele>1051.541913</ele>
        <time>2021-07-07T13:25:05+0200</time>
      </trkpt>
      <trkpt lat="45.54824" lon="2.93784">
        <ele>1051.088171</ele>
        <time>2021-07-07T13:25:07+0200</time>
      </trkpt>
      <trkpt lat="45.54819" lon="2.93784">
        <ele>1051.591532</ele>
        <time>2021-07-07T13:25:09+0200</time>
      </trkpt>
      <trkpt lat="45.54813" lon="2.93784">
        <ele>1051.920518</ele>
        <time>2021-07-07T13:25:11+0200</time>
      </trkpt>
      <trkpt lat="45.54808" lon="2.93786">
        <ele>1052.132884</ele>
        <time>2021-07-07T13:25:13+0200</time>
      </trkpt>
      <trkpt lat="45.54803" lon="2.93787">
        <ele>1052.220949</ele>
        <time>2021-07-07T13:25:15+0200</time>
      </trkpt>
      <trkpt lat="45.54797" lon="2.93787">
        <ele>1052.817984</ele>
        <time>2021-07-07T13:25:19+0200</time>
      </trkpt>
      <trkpt lat="45.54792" lon="2.93789">
        <ele>1053.188625</ele>
        <time>2021-07-07T13:25:23+0200</time>
      </trkpt>
      <trkpt lat="45.54788" lon="2.93786">
        <ele>1053.928402</ele>
        <time>2021-07-07T13:25:41+0200</time>
      </trkpt>
      <trkpt lat="45.54782" lon="2.9379">
        <ele>1053.615453</ele>
        <time>2021-07-07T13:26:23+0200</time>
      </trkpt>
      <trkpt lat="45.54777" lon="2.93793">
        <ele>1053.399058</ele>
        <time>2021-07-07T13:26:26+0200</time>
      </trkpt>
      <trkpt lat="45.54772" lon="2.93795">
        <ele>1052.716146</ele>
        <time>2021-07-07T13:26:28+0200</time>
      </trkpt>
      <trkpt lat="45.54765" lon="2.93797">
        <ele>1052.215456</ele>
        <time>2021-07-07T13:26:30+0200</time>
      </trkpt>
      <trkpt lat="45.54758" lon="2.938">
        <ele>1051.950858</ele>
        <time>2021-07-07T13:26:32+0200</time>
      </trkpt>
      <trkpt lat="45.54751" lon="2.93803">
        <ele>1051.827109</ele>
        <time>2021-07-07T13:26:34+0200</time>
      </trkpt>
      <trkpt lat="45.54744" lon="2.93807">
        <ele>1051.03454</ele>
        <time>2021-07-07T13:26:36+0200</time>
      </trkpt>
      <trkpt lat="45.54735" lon="2.93811">
        <ele>1050.593089</ele>
        <time>2021-07-07T13:26:38+0200</time>
      </trkpt>
      <trkpt lat="45.54731" lon="2.93813">
        <ele>1050.366045</ele>
        <time>2021-07-07T13:26:39+0200</time>
      </trkpt>
      <trkpt lat="45.54726" lon="2.93815">
        <ele>1050.012231</ele>
        <time>2021-07-07T13:26:40+0200</time>
      </trkpt>
      <trkpt lat="45.54721" lon="2.93817">
        <ele>1049.96601</ele>
        <time>2021-07-07T13:26:41+0200</time>
      </trkpt>
      <trkpt lat="45.54716" lon="2.93819">
        <ele>1049.504948</ele>
        <time>2021-07-07T13:26:42+0200</time>
      </trkpt>
      <trkpt lat="45.5471" lon="2.93821">
        <ele>1049.195401</ele>
        <time>2021-07-07T13:26:43+0200</time>
      </trkpt>
      <trkpt lat="45.54704" lon="2.93824">
        <ele>1048.755157</ele>
        <time>2021-07-07T13:26:44+0200</time>
      </trkpt>
      <trkpt lat="45.54698" lon="2.93826">
        <ele>1048.5446</ele>
        <time>2021-07-07T13:26:45+0200</time>
      </trkpt>
      <trkpt lat="45.54691" lon="2.9383">
        <ele>1048.082707</ele>
        <time>2021-07-07T13:26:46+0200</time>
      </trkpt>
      <trkpt lat="45.54684" lon="2.93833">
        <ele>1047.294339</ele>
        <time>2021-07-07T13:26:47+0200</time>
      </trkpt>
      <trkpt lat="45.54677" lon="2.93835">
        <ele>1046.524193</ele>
        <time>2021-07-07T13:26:48+0200</time>
      </trkpt>
      <trkpt lat="45.5467" lon="2.93838">
        <ele>1046.015223</ele>
        <time>2021-07-07T13:26:49+0200</time>
      </trkpt>
      <trkpt lat="45.54661" lon="2.93841">
        <ele>1045.47829</ele>
        <time>2021-07-07T13:26:50+0200</time>
      </trkpt>
      <trkpt lat="45.54652" lon="2.93844">
        <ele>1044.55102</ele>
        <time>2021-07-07T13:26:51+0200</time>
      </trkpt>
      <trkpt lat="45.54643" lon="2.93847">
        <ele>1043.576128</ele>
        <time>2021-07-07T13:26:52+0200</time>
      </trkpt>
      <trkpt lat="45.54633" lon="2.9385">
        <ele>1042.595308</ele>
        <time>2021-07-07T13:26:53+0200</time>
      </trkpt>
      <trkpt lat="45.54622" lon="2.93854">
        <ele>1041.055137</ele>
        <time>2021-07-07T13:26:54+0200</time>
      </trkpt>
      <trkpt lat="45.54611" lon="2.93858">
        <ele>1039.585668</ele>
        <time>2021-07-07T13:26:55+0200</time>
      </trkpt>
      <trkpt lat="45.54601" lon="2.93861">
        <ele>1038.503247</ele>
        <time>2021-07-07T13:26:56+0200</time>
      </trkpt>
      <trkpt lat="45.5459" lon="2.93864">
        <ele>1037.604773</ele>
        <time>2021-07-07T13:26:57+0200</time>
      </trkpt>
      <trkpt lat="45.5458" lon="2.93866">
        <ele>1037.189283</ele>
        <time>2021-07-07T13:26:58+0200</time>
      </trkpt>
      <trkpt lat="45.54571" lon="2.9387">
        <ele>1036.414768</ele>
        <time>2021-07-07T13:26:59+0200</time>
      </trkpt>
      <trkpt lat="45.54562" lon="2.9387">
        <ele>1036.117254</ele>
        <time>2021-07-07T13:27:00+0200</time>
      </trkpt>
      <trkpt lat="45.54553" lon="2.9387">
        <ele>1036.460068</ele>
        <time>2021-07-07T13:27:01+0200</time>
      </trkpt>
      <trkpt lat="45.54546" lon="2.93871">
        <ele>1037.303281</ele>
        <time>2021-07-07T13:27:02+0200</time>
      </trkpt>
      <trkpt lat="45.5454" lon="2.93871">
        <ele>1037.443062</ele>
        <time>2021-07-07T13:27:03+0200</time>
      </trkpt>
      <trkpt lat="45.54534" lon="2.9387">
        <ele>1038.172855</ele>
        <time>2021-07-07T13:27:04+0200</time>
      </trkpt>
      <trkpt lat="45.54529" lon="2.9387">
        <ele>1038.930516</ele>
        <time>2021-07-07T13:27:05+0200</time>
      </trkpt>
      <trkpt lat="45.54521" lon="2.93868">
        <ele>1040.898478</ele>
        <time>2021-07-07T13:27:07+0200</time>
      </trkpt>
      <trkpt lat="45.54516" lon="2.93868">
        <ele>1041.766513</ele>
        <time>2021-07-07T13:27:09+0200</time>
      </trkpt>
      <trkpt lat="45.5451" lon="2.93868">
        <ele>1042.50483</ele>
        <time>2021-07-07T13:27:12+0200</time>
      </trkpt>
      <trkpt lat="45.54505" lon="2.93868">
        <ele>1043.069677</ele>
        <time>2021-07-07T13:27:14+0200</time>
      </trkpt>
      <trkpt lat="45.54499" lon="2.93866">
        <ele>1043.984157</ele>
        <time>2021-07-07T13:27:16+0200</time>
      </trkpt>
      <trkpt lat="45.54494" lon="2.93865">
        <ele>1044.160402</ele>
        <time>2021-07-07T13:27:18+0200</time>
      </trkpt>
      <trkpt lat="45.54488" lon="2.93866">
        <ele>1044.437166</ele>
        <time>2021-07-07T13:27:21+0200</time>
      </trkpt>
      <trkpt lat="45.54483" lon="2.93865">
        <ele>1044.558754</ele>
        <time>2021-07-07T13:27:23+0200</time>
      </trkpt>
      <trkpt lat="45.54479" lon="2.93866">
        <ele>1045.174246</ele>
        <time>2021-07-07T13:27:25+0200</time>
      </trkpt>
      <trkpt lat="45.54473" lon="2.93865">
        <ele>1045.629448</ele>
        <time>2021-07-07T13:27:27+0200</time>
      </trkpt>
      <trkpt lat="45.54469" lon="2.93865">
        <ele>1045.737583</ele>
        <time>2021-07-07T13:27:29+0200</time>
      </trkpt>
      <trkpt lat="45.54464" lon="2.93864">
        <ele>1046.331656</ele>
        <time>2021-07-07T13:27:31+0200</time>
      </trkpt>
      <trkpt lat="45.54459" lon="2.93864">
        <ele>1046.543059</ele>
        <time>2021-07-07T13:27:33+0200</time>
      </trkpt>
      <trkpt lat="45.54453" lon="2.93862">
        <ele>1046.778172</ele>
        <time>2021-07-07T13:27:36+0200</time>
      </trkpt>
      <trkpt lat="45.54447" lon="2.93862">
        <ele>1047.084673</ele>
        <time>2021-07-07T13:27:39+0200</time>
      </trkpt>
      <trkpt lat="45.54441" lon="2.93858">
        <ele>1047.497789</ele>
        <time>2021-07-07T13:27:42+0200</time>
      </trkpt>
      <trkpt lat="45.54437" lon="2.93862">
        <ele>1047.455546</ele>
        <time>2021-07-07T13:27:44+0200</time>
      </trkpt>
      <trkpt lat="45.54432" lon="2.93866">
        <ele>1046.449136</ele>
        <time>2021-07-07T13:27:46+0200</time>
      </trkpt>
      <trkpt lat="45.54431" lon="2.93876">
        <ele>1046.764817</ele>
        <time>2021-07-07T13:27:48+0200</time>
      </trkpt>
      <trkpt lat="45.54426" lon="2.93878">
        <ele>1046.276165</ele>
        <time>2021-07-07T13:27:49+0200</time>
      </trkpt>
      <trkpt lat="45.54419" lon="2.9387">
        <ele>1045.674185</ele>
        <time>2021-07-07T13:27:51+0200</time>
      </trkpt>
      <trkpt lat="45.54417" lon="2.93865">
        <ele>1044.796918</ele>
        <time>2021-07-07T13:27:52+0200</time>
      </trkpt>
      <trkpt lat="45.54414" lon="2.93859">
        <ele>1044.4139</ele>
        <time>2021-07-07T13:27:53+0200</time>
      </trkpt>
      <trkpt lat="45.5441" lon="2.93853">
        <ele>1043.871389</ele>
        <time>2021-07-07T13:27:54+0200</time>
      </trkpt>
      <trkpt lat="45.54405" lon="2.93849">
        <ele>1043.275617</ele>
        <time>2021-07-07T13:27:55+0200</time>
      </trkpt>
      <trkpt lat="45.54401" lon="2.93845">
        <ele>1043.027132</ele>
        <time>2021-07-07T13:27:56+0200</time>
      </trkpt>
      <trkpt lat="45.54395" lon="2.9384">
        <ele>1042.707614</ele>
        <time>2021-07-07T13:27:57+0200</time>
      </trkpt>
      <trkpt lat="45.5439" lon="2.93834">
        <ele>1042.30326</ele>
        <time>2021-07-07T13:27:58+0200</time>
      </trkpt>
      <trkpt lat="45.54383" lon="2.93828">
        <ele>1041.825556</ele>
        <time>2021-07-07T13:27:59+0200</time>
      </trkpt>
      <trkpt lat="45.54377" lon="2.93822">
        <ele>1041.244126</ele>
        <time>2021-07-07T13:28:00+0200</time>
      </trkpt>
      <trkpt lat="45.5437" lon="2.93816">
        <ele>1040.58678</ele>
        <time>2021-07-07T13:28:01+0200</time>
      </trkpt>
      <trkpt lat="45.54364" lon="2.93808">
        <ele>1039.892015</ele>
        <time>2021-07-07T13:28:02+0200</time>
      </trkpt>
      <trkpt lat="45.54358" lon="2.938">
        <ele>1039.024689</ele>
        <time>2021-07-07T13:28:03+0200</time>
      </trkpt>
      <trkpt lat="45.54352" lon="2.93792">
        <ele>1038.576902</ele>
        <time>2021-07-07T13:28:04+0200</time>
      </trkpt>
      <trkpt lat="45.54346" lon="2.93785">
        <ele>1037.747144</ele>
        <time>2021-07-07T13:28:05+0200</time>
      </trkpt>
      <trkpt lat="45.54341" lon="2.93778">
        <ele>1036.761526</ele>
        <time>2021-07-07T13:28:06+0200</time>
      </trkpt>
      <trkpt lat="45.54334" lon="2.93767">
        <ele>1036.186156</ele>
        <time>2021-07-07T13:28:07+0200</time>
      </trkpt>
      <trkpt lat="45.5433" lon="2.93757">
        <ele>1035.581409</ele>
        <time>2021-07-07T13:28:08+0200</time>
      </trkpt>
      <trkpt lat="45.54325" lon="2.93747">
        <ele>1035.136233</ele>
        <time>2021-07-07T13:28:09+0200</time>
      </trkpt>
      <trkpt lat="45.5432" lon="2.93738">
        <ele>1034.919184</ele>
        <time>2021-07-07T13:28:10+0200</time>
      </trkpt>
      <trkpt lat="45.54315" lon="2.93728">
        <ele>1034.602429</ele>
        <time>2021-07-07T13:28:11+0200</time>
      </trkpt>
      <trkpt lat="45.54309" lon="2.93719">
        <ele>1034.363475</ele>
        <time>2021-07-07T13:28:12+0200</time>
      </trkpt>
      <trkpt lat="45.54304" lon="2.93712">
        <ele>1033.732066</ele>
        <time>2021-07-07T13:28:13+0200</time>
      </trkpt>
      <trkpt lat="45.54297" lon="2.93705">
        <ele>1033.127609</ele>
        <time>2021-07-07T13:28:14+0200</time>
      </trkpt>
      <trkpt lat="45.54292" lon="2.93698">
        <ele>1033.083831</ele>
        <time>2021-07-07T13:28:15+0200</time>
      </trkpt>
      <trkpt lat="45.54287" lon="2.93691">
        <ele>1032.896928</ele>
        <time>2021-07-07T13:28:16+0200</time>
      </trkpt>
      <trkpt lat="45.54281" lon="2.93685">
        <ele>1032.88342</ele>
        <time>2021-07-07T13:28:17+0200</time>
      </trkpt>
      <trkpt lat="45.54277" lon="2.93676">
        <ele>1032.21353</ele>
        <time>2021-07-07T13:28:18+0200</time>
      </trkpt>
      <trkpt lat="45.54273" lon="2.93668">
        <ele>1031.787533</ele>
        <time>2021-07-07T13:28:19+0200</time>
      </trkpt>
      <trkpt lat="45.54268" lon="2.9366">
        <ele>1031.743691</ele>
        <time>2021-07-07T13:28:20+0200</time>
      </trkpt>
      <trkpt lat="45.54264" lon="2.93652">
        <ele>1031.053093</ele>
        <time>2021-07-07T13:28:21+0200</time>
      </trkpt>
      <trkpt lat="45.54262" lon="2.93643">
        <ele>1030.148304</ele>
        <time>2021-07-07T13:28:22+0200</time>
      </trkpt>
      <trkpt lat="45.5426" lon="2.93634">
        <ele>1029.513886</ele>
        <time>2021-07-07T13:28:23+0200</time>
      </trkpt>
      <trkpt lat="45.54256" lon="2.93626">
        <ele>1028.845338</ele>
        <time>2021-07-07T13:28:24+0200</time>
      </trkpt>
      <trkpt lat="45.54251" lon="2.93617">
        <ele>1028.262075</ele>
        <time>2021-07-07T13:28:25+0200</time>
      </trkpt>
      <trkpt lat="45.54246" lon="2.93608">
        <ele>1027.660664</ele>
        <time>2021-07-07T13:28:26+0200</time>
      </trkpt>
      <trkpt lat="45.5424" lon="2.93599">
        <ele>1027.033759</ele>
        <time>2021-07-07T13:28:27+0200</time>
      </trkpt>
      <trkpt lat="45.54236" lon="2.93589">
        <ele>1026.478992</ele>
        <time>2021-07-07T13:28:28+0200</time>
      </trkpt>
      <trkpt lat="45.54233" lon="2.93579">
        <ele>1025.936677</ele>
        <time>2021-07-07T13:28:29+0200</time>
      </trkpt>
      <trkpt lat="45.5423" lon="2.93569">
        <ele>1025.237834</ele>
        <time>2021-07-07T13:28:30+0200</time>
      </trkpt>
      <trkpt lat="45.54227" lon="2.93559">
        <ele>1024.649592</ele>
        <time>2021-07-07T13:28:31+0200</time>
      </trkpt>
      <trkpt lat="45.54224" lon="2.93549">
        <ele>1023.848681</ele>
        <time>2021-07-07T13:28:32+0200</time>
      </trkpt>
      <trkpt lat="45.54222" lon="2.9354">
        <ele>1022.770849</ele>
        <time>2021-07-07T13:28:33+0200</time>
      </trkpt>
      <trkpt lat="45.54219" lon="2.93529">
        <ele>1022.236464</ele>
        <time>2021-07-07T13:28:34+0200</time>
      </trkpt>
      <trkpt lat="45.54217" lon="2.9352">
        <ele>1021.258996</ele>
        <time>2021-07-07T13:28:35+0200</time>
      </trkpt>
      <trkpt lat="45.54212" lon="2.93511">
        <ele>1021.527724</ele>
        <time>2021-07-07T13:28:36+0200</time>
      </trkpt>
      <trkpt lat="45.54208" lon="2.93502">
        <ele>1020.997675</ele>
        <time>2021-07-07T13:28:37+0200</time>
      </trkpt>
      <trkpt lat="45.54205" lon="2.93493">
        <ele>1020.243163</ele>
        <time>2021-07-07T13:28:38+0200</time>
      </trkpt>
      <trkpt lat="45.54201" lon="2.93483">
        <ele>1019.639824</ele>
        <time>2021-07-07T13:28:39+0200</time>
      </trkpt>
      <trkpt lat="45.54196" lon="2.93476">
        <ele>1018.962219</ele>
        <time>2021-07-07T13:28:40+0200</time>
      </trkpt>
      <trkpt lat="45.54192" lon="2.93467">
        <ele>1018.007506</ele>
        <time>2021-07-07T13:28:41+0200</time>
      </trkpt>
      <trkpt lat="45.54189" lon="2.93458">
        <ele>1017.527467</ele>
        <time>2021-07-07T13:28:42+0200</time>
      </trkpt>
      <trkpt lat="45.54185" lon="2.93449">
        <ele>1016.837395</ele>
        <time>2021-07-07T13:28:43+0200</time>
      </trkpt>
      <trkpt lat="45.54184" lon="2.93439">
        <ele>1016.74748</ele>
        <time>2021-07-07T13:28:44+0200</time>
      </trkpt>
      <trkpt lat="45.54183" lon="2.93428">
        <ele>1016.607242</ele>
        <time>2021-07-07T13:28:45+0200</time>
      </trkpt>
      <trkpt lat="45.54182" lon="2.93418">
        <ele>1016.705896</ele>
        <time>2021-07-07T13:28:46+0200</time>
      </trkpt>
      <trkpt lat="45.5418" lon="2.93411">
        <ele>1017.135343</ele>
        <time>2021-07-07T13:28:47+0200</time>
      </trkpt>
      <trkpt lat="45.54178" lon="2.93403">
        <ele>1017.95206</ele>
        <time>2021-07-07T13:28:48+0200</time>
      </trkpt>
      <trkpt lat="45.54176" lon="2.93397">
        <ele>1019.112709</ele>
        <time>2021-07-07T13:28:49+0200</time>
      </trkpt>
      <trkpt lat="45.54172" lon="2.93392">
        <ele>1021.029353</ele>
        <time>2021-07-07T13:28:54+0200</time>
      </trkpt>
      <trkpt lat="45.54168" lon="2.93388">
        <ele>1020.611497</ele>
        <time>2021-07-07T13:28:58+0200</time>
      </trkpt>
      <trkpt lat="45.54167" lon="2.93395">
        <ele>1018.030639</ele>
        <time>2021-07-07T13:29:15+0200</time>
      </trkpt>
      <trkpt lat="45.5417" lon="2.934">
        <ele>1019.167045</ele>
        <time>2021-07-07T13:29:50+0200</time>
      </trkpt>
      <trkpt lat="45.54166" lon="2.93396">
        <ele>1018.423308</ele>
        <time>2021-07-07T13:29:59+0200</time>
      </trkpt>
      <trkpt lat="45.54162" lon="2.93397">
        <ele>1018.186043</ele>
        <time>2021-07-07T13:30:03+0200</time>
      </trkpt>
      <trkpt lat="45.54157" lon="2.93398">
        <ele>1017.872188</ele>
        <time>2021-07-07T13:30:09+0200</time>
      </trkpt>
      <trkpt lat="45.54151" lon="2.93398">
        <ele>1017.217103</ele>
        <time>2021-07-07T13:30:24+0200</time>
      </trkpt>
      <trkpt lat="45.54146" lon="2.93399">
        <ele>1016.504909</ele>
        <time>2021-07-07T13:30:27+0200</time>
      </trkpt>
      <trkpt lat="45.54141" lon="2.93399">
        <ele>1015.862049</ele>
        <time>2021-07-07T13:30:30+0200</time>
      </trkpt>
      <trkpt lat="45.54136" lon="2.93399">
        <ele>1015.353494</ele>
        <time>2021-07-07T13:30:33+0200</time>
      </trkpt>
      <trkpt lat="45.54132" lon="2.934">
        <ele>1017.201573</ele>
        <time>2021-07-07T13:30:39+0200</time>
      </trkpt>
      <trkpt lat="45.54127" lon="2.93403">
        <ele>1018.981023</ele>
        <time>2021-07-07T13:30:43+0200</time>
      </trkpt>
      <trkpt lat="45.5412" lon="2.93408">
        <ele>1020.826702</ele>
        <time>2021-07-07T13:30:48+0200</time>
      </trkpt>
      <trkpt lat="45.54118" lon="2.93414">
        <ele>1023.541784</ele>
        <time>2021-07-07T13:30:53+0200</time>
      </trkpt>
      <trkpt lat="45.54113" lon="2.93422">
        <ele>1023.68772</ele>
        <time>2021-07-07T13:30:57+0200</time>
      </trkpt>
      <trkpt lat="45.54111" lon="2.93429">
        <ele>1024.068089</ele>
        <time>2021-07-07T13:31:01+0200</time>
      </trkpt>
      <trkpt lat="45.5411" lon="2.93436">
        <ele>1025.525371</ele>
        <time>2021-07-07T13:31:05+0200</time>
      </trkpt>
      <trkpt lat="45.54108" lon="2.93442">
        <ele>1025.905182</ele>
        <time>2021-07-07T13:31:08+0200</time>
      </trkpt>
      <trkpt lat="45.54106" lon="2.93448">
        <ele>1026.224078</ele>
        <time>2021-07-07T13:31:11+0200</time>
      </trkpt>
      <trkpt lat="45.54105" lon="2.93457">
        <ele>1026.931972</ele>
        <time>2021-07-07T13:31:15+0200</time>
      </trkpt>
      <trkpt lat="45.54106" lon="2.93465">
        <ele>1027.555616</ele>
        <time>2021-07-07T13:31:19+0200</time>
      </trkpt>
      <trkpt lat="45.54108" lon="2.93473">
        <ele>1027.374032</ele>
        <time>2021-07-07T13:31:22+0200</time>
      </trkpt>
      <trkpt lat="45.54107" lon="2.9348">
        <ele>1027.909238</ele>
        <time>2021-07-07T13:31:26+0200</time>
      </trkpt>
      <trkpt lat="45.54106" lon="2.93487">
        <ele>1027.870451</ele>
        <time>2021-07-07T13:31:29+0200</time>
      </trkpt>
      <trkpt lat="45.54104" lon="2.93495">
        <ele>1028.241901</ele>
        <time>2021-07-07T13:31:32+0200</time>
      </trkpt>
      <trkpt lat="45.54105" lon="2.93501">
        <ele>1028.187315</ele>
        <time>2021-07-07T13:31:35+0200</time>
      </trkpt>
      <trkpt lat="45.54104" lon="2.93507">
        <ele>1029.72323</ele>
        <time>2021-07-07T13:31:39+0200</time>
      </trkpt>
      <trkpt lat="45.54103" lon="2.93516">
        <ele>1029.745485</ele>
        <time>2021-07-07T13:31:42+0200</time>
      </trkpt>
      <trkpt lat="45.54104" lon="2.93524">
        <ele>1029.924701</ele>
        <time>2021-07-07T13:31:46+0200</time>
      </trkpt>
      <trkpt lat="45.54105" lon="2.93532">
        <ele>1030.402272</ele>
        <time>2021-07-07T13:31:50+0200</time>
      </trkpt>
      <trkpt lat="45.54104" lon="2.93539">
        <ele>1030.107676</ele>
        <time>2021-07-07T13:31:53+0200</time>
      </trkpt>
      <trkpt lat="45.541" lon="2.93546">
        <ele>1029.685184</ele>
        <time>2021-07-07T13:31:56+0200</time>
      </trkpt>
      <trkpt lat="45.54098" lon="2.93553">
        <ele>1030.684849</ele>
        <time>2021-07-07T13:31:59+0200</time>
      </trkpt>
      <trkpt lat="45.54099" lon="2.9356">
        <ele>1032.371452</ele>
        <time>2021-07-07T13:32:04+0200</time>
      </trkpt>
      <trkpt lat="45.541" lon="2.93568">
        <ele>1031.288468</ele>
        <time>2021-07-07T13:32:07+0200</time>
      </trkpt>
      <trkpt lat="45.541" lon="2.93575">
        <ele>1030.29889</ele>
        <time>2021-07-07T13:32:11+0200</time>
      </trkpt>
      <trkpt lat="45.541" lon="2.93582">
        <ele>1030.304736</ele>
        <time>2021-07-07T13:32:15+0200</time>
      </trkpt>
      <trkpt lat="45.541" lon="2.93589">
        <ele>1030.613731</ele>
        <time>2021-07-07T13:32:18+0200</time>
      </trkpt>
      <trkpt lat="45.54101" lon="2.93596">
        <ele>1031.281014</ele>
        <time>2021-07-07T13:32:21+0200</time>
      </trkpt>
      <trkpt lat="45.54097" lon="2.93604">
        <ele>1033.259991</ele>
        <time>2021-07-07T13:32:24+0200</time>
      </trkpt>
      <trkpt lat="45.54096" lon="2.93612">
        <ele>1034.287591</ele>
        <time>2021-07-07T13:32:28+0200</time>
      </trkpt>
      <trkpt lat="45.54093" lon="2.9362">
        <ele>1035.704237</ele>
        <time>2021-07-07T13:32:31+0200</time>
      </trkpt>
      <trkpt lat="45.54094" lon="2.93629">
        <ele>1035.913229</ele>
        <time>2021-07-07T13:32:34+0200</time>
      </trkpt>
      <trkpt lat="45.54094" lon="2.93637">
        <ele>1035.634982</ele>
        <time>2021-07-07T13:32:38+0200</time>
      </trkpt>
      <trkpt lat="45.54093" lon="2.93644">
        <ele>1035.609701</ele>
        <time>2021-07-07T13:32:41+0200</time>
      </trkpt>
      <trkpt lat="45.54093" lon="2.93651">
        <ele>1035.851707</ele>
        <time>2021-07-07T13:32:45+0200</time>
      </trkpt>
      <trkpt lat="45.54092" lon="2.93659">
        <ele>1036.577537</ele>
        <time>2021-07-07T13:32:49+0200</time>
      </trkpt>
      <trkpt lat="45.54091" lon="2.93668">
        <ele>1038.303796</ele>
        <time>2021-07-07T13:32:53+0200</time>
      </trkpt>
      <trkpt lat="45.5409" lon="2.93674">
        <ele>1039.454088</ele>
        <time>2021-07-07T13:32:56+0200</time>
      </trkpt>
      <trkpt lat="45.54089" lon="2.93682">
        <ele>1039.896061</ele>
        <time>2021-07-07T13:32:59+0200</time>
      </trkpt>
      <trkpt lat="45.54087" lon="2.93689">
        <ele>1040.530569</ele>
        <time>2021-07-07T13:33:02+0200</time>
      </trkpt>
      <trkpt lat="45.54085" lon="2.93696">
        <ele>1041.595458</ele>
        <time>2021-07-07T13:33:05+0200</time>
      </trkpt>
      <trkpt lat="45.54085" lon="2.93706">
        <ele>1042.319771</ele>
        <time>2021-07-07T13:33:08+0200</time>
      </trkpt>
      <trkpt lat="45.54085" lon="2.93715">
        <ele>1042.275412</ele>
        <time>2021-07-07T13:33:11+0200</time>
      </trkpt>
      <trkpt lat="45.54084" lon="2.93723">
        <ele>1042.278575</ele>
        <time>2021-07-07T13:33:14+0200</time>
      </trkpt>
      <trkpt lat="45.54084" lon="2.9373">
        <ele>1042.30203</ele>
        <time>2021-07-07T13:33:17+0200</time>
      </trkpt>
      <trkpt lat="45.54085" lon="2.93737">
        <ele>1043.218366</ele>
        <time>2021-07-07T13:33:20+0200</time>
      </trkpt>
      <trkpt lat="45.54084" lon="2.93744">
        <ele>1043.3361</ele>
        <time>2021-07-07T13:33:23+0200</time>
      </trkpt>
      <trkpt lat="45.54083" lon="2.93753">
        <ele>1043.612696</ele>
        <time>2021-07-07T13:33:27+0200</time>
      </trkpt>
      <trkpt lat="45.54078" lon="2.93751">
        <ele>1043.260017</ele>
        <time>2021-07-07T13:33:33+0200</time>
      </trkpt>
      <trkpt lat="45.54076" lon="2.93743">
        <ele>1044.144077</ele>
        <time>2021-07-07T13:33:36+0200</time>
      </trkpt>
      <trkpt lat="45.54075" lon="2.93735">
        <ele>1045.484761</ele>
        <time>2021-07-07T13:33:40+0200</time>
      </trkpt>
      <trkpt lat="45.54074" lon="2.93727">
        <ele>1045.681816</ele>
        <time>2021-07-07T13:33:44+0200</time>
      </trkpt>
      <trkpt lat="45.54074" lon="2.93719">
        <ele>1045.530022</ele>
        <time>2021-07-07T13:33:47+0200</time>
      </trkpt>
      <trkpt lat="45.54074" lon="2.9371">
        <ele>1045.654504</ele>
        <time>2021-07-07T13:33:50+0200</time>
      </trkpt>
      <trkpt lat="45.54072" lon="2.93703">
        <ele>1046.366282</ele>
        <time>2021-07-07T13:33:53+0200</time>
      </trkpt>
      <trkpt lat="45.54071" lon="2.93696">
        <ele>1046.642612</ele>
        <time>2021-07-07T13:33:56+0200</time>
      </trkpt>
      <trkpt lat="45.5407" lon="2.93687">
        <ele>1047.463667</ele>
        <time>2021-07-07T13:34:00+0200</time>
      </trkpt>
      <trkpt lat="45.54069" lon="2.9368">
        <ele>1047.639132</ele>
        <time>2021-07-07T13:34:02+0200</time>
      </trkpt>
      <trkpt lat="45.54069" lon="2.93673">
        <ele>1048.166875</ele>
        <time>2021-07-07T13:34:04+0200</time>
      </trkpt>
      <trkpt lat="45.54068" lon="2.93664">
        <ele>1047.260507</ele>
        <time>2021-07-07T13:34:06+0200</time>
      </trkpt>
      <trkpt lat="45.54067" lon="2.93657">
        <ele>1046.498819</ele>
        <time>2021-07-07T13:34:08+0200</time>
      </trkpt>
      <trkpt lat="45.54066" lon="2.9365">
        <ele>1046.161896</ele>
        <time>2021-07-07T13:34:10+0200</time>
      </trkpt>
      <trkpt lat="45.54064" lon="2.93643">
        <ele>1046.523166</ele>
        <time>2021-07-07T13:34:12+0200</time>
      </trkpt>
      <trkpt lat="45.54061" lon="2.93635">
        <ele>1046.433054</ele>
        <time>2021-07-07T13:34:14+0200</time>
      </trkpt>
      <trkpt lat="45.54059" lon="2.93626">
        <ele>1046.010714</ele>
        <time>2021-07-07T13:34:16+0200</time>
      </trkpt>
      <trkpt lat="45.54059" lon="2.93619">
        <ele>1046.357007</ele>
        <time>2021-07-07T13:34:18+0200</time>
      </trkpt>
      <trkpt lat="45.54057" lon="2.93609">
        <ele>1046.511681</ele>
        <time>2021-07-07T13:34:20+0200</time>
      </trkpt>
      <trkpt lat="45.54056" lon="2.93602">
        <ele>1046.797165</ele>
        <time>2021-07-07T13:34:22+0200</time>
      </trkpt>
      <trkpt lat="45.54054" lon="2.93593">
        <ele>1047.93902</ele>
        <time>2021-07-07T13:34:25+0200</time>
      </trkpt>
      <trkpt lat="45.54052" lon="2.93585">
        <ele>1048.425267</ele>
        <time>2021-07-07T13:34:27+0200</time>
      </trkpt>
      <trkpt lat="45.54049" lon="2.93577">
        <ele>1050.268299</ele>
        <time>2021-07-07T13:34:30+0200</time>
      </trkpt>
      <trkpt lat="45.54046" lon="2.93568">
        <ele>1049.648722</ele>
        <time>2021-07-07T13:34:33+0200</time>
      </trkpt>
      <trkpt lat="45.5404" lon="2.93565">
        <ele>1049.393084</ele>
        <time>2021-07-07T13:34:36+0200</time>
      </trkpt>
      <trkpt lat="45.54035" lon="2.93567">
        <ele>1049.770769</ele>
        <time>2021-07-07T13:34:39+0200</time>
      </trkpt>
      <trkpt lat="45.5403" lon="2.93567">
        <ele>1050.24491</ele>
        <time>2021-07-07T13:34:42+0200</time>
      </trkpt>
      <trkpt lat="45.54026" lon="2.93569">
        <ele>1051.33497</ele>
        <time>2021-07-07T13:34:45+0200</time>
      </trkpt>
      <trkpt lat="45.54021" lon="2.93569">
        <ele>1051.802971</ele>
        <time>2021-07-07T13:34:48+0200</time>
      </trkpt>
      <trkpt lat="45.54017" lon="2.93571">
        <ele>1051.893653</ele>
        <time>2021-07-07T13:34:51+0200</time>
      </trkpt>
      <trkpt lat="45.54012" lon="2.93572">
        <ele>1052.345478</ele>
        <time>2021-07-07T13:34:54+0200</time>
      </trkpt>
      <trkpt lat="45.54006" lon="2.93573">
        <ele>1053.29306</ele>
        <time>2021-07-07T13:34:58+0200</time>
      </trkpt>
      <trkpt lat="45.54001" lon="2.93573">
        <ele>1053.912986</ele>
        <time>2021-07-07T13:35:01+0200</time>
      </trkpt>
      <trkpt lat="45.53997" lon="2.93574">
        <ele>1054.36368</ele>
        <time>2021-07-07T13:35:04+0200</time>
      </trkpt>
      <trkpt lat="45.53991" lon="2.93577">
        <ele>1055.504351</ele>
        <time>2021-07-07T13:35:08+0200</time>
      </trkpt>
      <trkpt lat="45.53985" lon="2.9358">
        <ele>1055.897052</ele>
        <time>2021-07-07T13:35:12+0200</time>
      </trkpt>
      <trkpt lat="45.5398" lon="2.93583">
        <ele>1056.361852</ele>
        <time>2021-07-07T13:35:16+0200</time>
      </trkpt>
      <trkpt lat="45.53975" lon="2.93584">
        <ele>1057.651018</ele>
        <time>2021-07-07T13:35:19+0200</time>
      </trkpt>
      <trkpt lat="45.5397" lon="2.93585">
        <ele>1057.98253</ele>
        <time>2021-07-07T13:35:22+0200</time>
      </trkpt>
      <trkpt lat="45.53965" lon="2.93587">
        <ele>1058.762997</ele>
        <time>2021-07-07T13:35:25+0200</time>
      </trkpt>
      <trkpt lat="45.53959" lon="2.93588">
        <ele>1058.988089</ele>
        <time>2021-07-07T13:35:28+0200</time>
      </trkpt>
      <trkpt lat="45.53954" lon="2.9359">
        <ele>1059.459095</ele>
        <time>2021-07-07T13:35:31+0200</time>
      </trkpt>
      <trkpt lat="45.53949" lon="2.93591">
        <ele>1059.653624</ele>
        <time>2021-07-07T13:35:34+0200</time>
      </trkpt>
      <trkpt lat="45.53944" lon="2.93593">
        <ele>1059.931518</ele>
        <time>2021-07-07T13:35:37+0200</time>
      </trkpt>
      <trkpt lat="45.53938" lon="2.93593">
        <ele>1060.550869</ele>
        <time>2021-07-07T13:35:40+0200</time>
      </trkpt>
      <trkpt lat="45.53932" lon="2.93595">
        <ele>1060.878831</ele>
        <time>2021-07-07T13:35:43+0200</time>
      </trkpt>
      <trkpt lat="45.53928" lon="2.93599">
        <ele>1061.432772</ele>
        <time>2021-07-07T13:35:46+0200</time>
      </trkpt>
      <trkpt lat="45.53923" lon="2.93602">
        <ele>1062.111568</ele>
        <time>2021-07-07T13:35:49+0200</time>
      </trkpt>
      <trkpt lat="45.53919" lon="2.93605">
        <ele>1062.591061</ele>
        <time>2021-07-07T13:35:52+0200</time>
      </trkpt>
      <trkpt lat="45.53913" lon="2.93607">
        <ele>1062.99452</ele>
        <time>2021-07-07T13:35:55+0200</time>
      </trkpt>
      <trkpt lat="45.53908" lon="2.93607">
        <ele>1063.124003</ele>
        <time>2021-07-07T13:35:58+0200</time>
      </trkpt>
      <trkpt lat="45.53903" lon="2.93609">
        <ele>1063.148989</ele>
        <time>2021-07-07T13:36:01+0200</time>
      </trkpt>
      <trkpt lat="45.53897" lon="2.93612">
        <ele>1062.957378</ele>
        <time>2021-07-07T13:36:04+0200</time>
      </trkpt>
      <trkpt lat="45.53893" lon="2.93615">
        <ele>1063.792985</ele>
        <time>2021-07-07T13:36:07+0200</time>
      </trkpt>
      <trkpt lat="45.53887" lon="2.93617">
        <ele>1063.733216</ele>
        <time>2021-07-07T13:36:10+0200</time>
      </trkpt>
      <trkpt lat="45.53881" lon="2.93621">
        <ele>1063.986755</ele>
        <time>2021-07-07T13:36:13+0200</time>
      </trkpt>
      <trkpt lat="45.53877" lon="2.93624">
        <ele>1064.266748</ele>
        <time>2021-07-07T13:36:16+0200</time>
      </trkpt>
      <trkpt lat="45.53872" lon="2.93626">
        <ele>1064.916609</ele>
        <time>2021-07-07T13:36:19+0200</time>
      </trkpt>
      <trkpt lat="45.53866" lon="2.93629">
        <ele>1065.501673</ele>
        <time>2021-07-07T13:36:22+0200</time>
      </trkpt>
      <trkpt lat="45.53861" lon="2.93633">
        <ele>1066.708085</ele>
        <time>2021-07-07T13:36:25+0200</time>
      </trkpt>
      <trkpt lat="45.53856" lon="2.93637">
        <ele>1066.511523</ele>
        <time>2021-07-07T13:36:28+0200</time>
      </trkpt>
      <trkpt lat="45.53852" lon="2.93641">
        <ele>1067.01776</ele>
        <time>2021-07-07T13:36:31+0200</time>
      </trkpt>
      <trkpt lat="45.53847" lon="2.93645">
        <ele>1067.805587</ele>
        <time>2021-07-07T13:36:34+0200</time>
      </trkpt>
      <trkpt lat="45.53842" lon="2.93649">
        <ele>1068.319648</ele>
        <time>2021-07-07T13:36:37+0200</time>
      </trkpt>
      <trkpt lat="45.53836" lon="2.93652">
        <ele>1068.575895</ele>
        <time>2021-07-07T13:36:40+0200</time>
      </trkpt>
      <trkpt lat="45.53832" lon="2.93653">
        <ele>1069.550268</ele>
        <time>2021-07-07T13:36:43+0200</time>
      </trkpt>
      <trkpt lat="45.53825" lon="2.93654">
        <ele>1069.942908</ele>
        <time>2021-07-07T13:36:46+0200</time>
      </trkpt>
      <trkpt lat="45.53819" lon="2.93654">
        <ele>1070.399134</ele>
        <time>2021-07-07T13:36:49+0200</time>
      </trkpt>
      <trkpt lat="45.53815" lon="2.93656">
        <ele>1070.54404</ele>
        <time>2021-07-07T13:36:51+0200</time>
      </trkpt>
      <trkpt lat="45.5381" lon="2.93655">
        <ele>1070.744901</ele>
        <time>2021-07-07T13:36:54+0200</time>
      </trkpt>
      <trkpt lat="45.53805" lon="2.93652">
        <ele>1071.435773</ele>
        <time>2021-07-07T13:36:57+0200</time>
      </trkpt>
      <trkpt lat="45.53799" lon="2.93651">
        <ele>1071.744161</ele>
        <time>2021-07-07T13:37:00+0200</time>
      </trkpt>
      <trkpt lat="45.53793" lon="2.93652">
        <ele>1071.668799</ele>
        <time>2021-07-07T13:37:03+0200</time>
      </trkpt>
      <trkpt lat="45.53789" lon="2.93652">
        <ele>1071.93911</ele>
        <time>2021-07-07T13:37:05+0200</time>
      </trkpt>
      <trkpt lat="45.53782" lon="2.93653">
        <ele>1072.08883</ele>
        <time>2021-07-07T13:37:08+0200</time>
      </trkpt>
      <trkpt lat="45.53778" lon="2.93654">
        <ele>1072.247258</ele>
        <time>2021-07-07T13:37:10+0200</time>
      </trkpt>
      <trkpt lat="45.53771" lon="2.93656">
        <ele>1072.435445</ele>
        <time>2021-07-07T13:37:13+0200</time>
      </trkpt>
      <trkpt lat="45.53767" lon="2.93659">
        <ele>1072.43595</ele>
        <time>2021-07-07T13:37:15+0200</time>
      </trkpt>
      <trkpt lat="45.53761" lon="2.93662">
        <ele>1072.903843</ele>
        <time>2021-07-07T13:37:18+0200</time>
      </trkpt>
      <trkpt lat="45.53757" lon="2.93664">
        <ele>1073.205724</ele>
        <time>2021-07-07T13:37:20+0200</time>
      </trkpt>
      <trkpt lat="45.53752" lon="2.93666">
        <ele>1073.573288</ele>
        <time>2021-07-07T13:37:22+0200</time>
      </trkpt>
      <trkpt lat="45.53745" lon="2.93668">
        <ele>1073.76788</ele>
        <time>2021-07-07T13:37:25+0200</time>
      </trkpt>
      <trkpt lat="45.53739" lon="2.9367">
        <ele>1073.696154</ele>
        <time>2021-07-07T13:37:28+0200</time>
      </trkpt>
      <trkpt lat="45.53732" lon="2.93673">
        <ele>1073.735742</ele>
        <time>2021-07-07T13:37:31+0200</time>
      </trkpt>
      <trkpt lat="45.53728" lon="2.93674">
        <ele>1073.923712</ele>
        <time>2021-07-07T13:37:33+0200</time>
      </trkpt>
      <trkpt lat="45.53723" lon="2.93675">
        <ele>1073.985424</ele>
        <time>2021-07-07T13:37:35+0200</time>
      </trkpt>
      <trkpt lat="45.53718" lon="2.93676">
        <ele>1074.064623</ele>
        <time>2021-07-07T13:37:37+0200</time>
      </trkpt>
      <trkpt lat="45.53713" lon="2.93676">
        <ele>1074.244344</ele>
        <time>2021-07-07T13:37:39+0200</time>
      </trkpt>
      <trkpt lat="45.53708" lon="2.93678">
        <ele>1074.561956</ele>
        <time>2021-07-07T13:37:41+0200</time>
      </trkpt>
      <trkpt lat="45.53704" lon="2.9368">
        <ele>1074.983554</ele>
        <time>2021-07-07T13:37:43+0200</time>
      </trkpt>
      <trkpt lat="45.53699" lon="2.93681">
        <ele>1075.335119</ele>
        <time>2021-07-07T13:37:45+0200</time>
      </trkpt>
      <trkpt lat="45.53694" lon="2.93683">
        <ele>1075.516562</ele>
        <time>2021-07-07T13:37:47+0200</time>
      </trkpt>
      <trkpt lat="45.5369" lon="2.93686">
        <ele>1075.657722</ele>
        <time>2021-07-07T13:37:49+0200</time>
      </trkpt>
      <trkpt lat="45.53685" lon="2.93687">
        <ele>1076.066031</ele>
        <time>2021-07-07T13:37:51+0200</time>
      </trkpt>
      <trkpt lat="45.53678" lon="2.93691">
        <ele>1076.775096</ele>
        <time>2021-07-07T13:37:54+0200</time>
      </trkpt>
      <trkpt lat="45.53674" lon="2.93693">
        <ele>1077.582456</ele>
        <time>2021-07-07T13:37:56+0200</time>
      </trkpt>
      <trkpt lat="45.53668" lon="2.93695">
        <ele>1077.95927</ele>
        <time>2021-07-07T13:37:59+0200</time>
      </trkpt>
      <trkpt lat="45.53661" lon="2.93697">
        <ele>1079.089938</ele>
        <time>2021-07-07T13:38:02+0200</time>
      </trkpt>
      <trkpt lat="45.53657" lon="2.93698">
        <ele>1080.056198</ele>
        <time>2021-07-07T13:38:04+0200</time>
      </trkpt>
      <trkpt lat="45.53651" lon="2.937">
        <ele>1080.450269</ele>
        <time>2021-07-07T13:38:07+0200</time>
      </trkpt>
      <trkpt lat="45.53646" lon="2.93699">
        <ele>1080.698754</ele>
        <time>2021-07-07T13:38:10+0200</time>
      </trkpt>
      <trkpt lat="45.5364" lon="2.937">
        <ele>1081.987439</ele>
        <time>2021-07-07T13:38:13+0200</time>
      </trkpt>
      <trkpt lat="45.53635" lon="2.93702">
        <ele>1082.479306</ele>
        <time>2021-07-07T13:38:16+0200</time>
      </trkpt>
      <trkpt lat="45.53631" lon="2.93705">
        <ele>1083.075093</ele>
        <time>2021-07-07T13:38:19+0200</time>
      </trkpt>
      <trkpt lat="45.53625" lon="2.93706">
        <ele>1083.283614</ele>
        <time>2021-07-07T13:38:22+0200</time>
      </trkpt>
      <trkpt lat="45.53621" lon="2.9371">
        <ele>1083.70092</ele>
        <time>2021-07-07T13:38:25+0200</time>
      </trkpt>
      <trkpt lat="45.53616" lon="2.93711">
        <ele>1084.17026</ele>
        <time>2021-07-07T13:38:28+0200</time>
      </trkpt>
      <trkpt lat="45.53611" lon="2.93712">
        <ele>1085.012429</ele>
        <time>2021-07-07T13:38:31+0200</time>
      </trkpt>
      <trkpt lat="45.53606" lon="2.93714">
        <ele>1084.848202</ele>
        <time>2021-07-07T13:38:34+0200</time>
      </trkpt>
      <trkpt lat="45.53601" lon="2.93715">
        <ele>1085.830192</ele>
        <time>2021-07-07T13:38:37+0200</time>
      </trkpt>
      <trkpt lat="45.53596" lon="2.93717">
        <ele>1085.816528</ele>
        <time>2021-07-07T13:38:40+0200</time>
      </trkpt>
      <trkpt lat="45.53591" lon="2.93717">
        <ele>1085.914286</ele>
        <time>2021-07-07T13:38:43+0200</time>
      </trkpt>
      <trkpt lat="45.53586" lon="2.93719">
        <ele>1086.357637</ele>
        <time>2021-07-07T13:38:46+0200</time>
      </trkpt>
      <trkpt lat="45.53581" lon="2.9372">
        <ele>1086.828515</ele>
        <time>2021-07-07T13:38:49+0200</time>
      </trkpt>
      <trkpt lat="45.53575" lon="2.93719">
        <ele>1087.573584</ele>
        <time>2021-07-07T13:38:52+0200</time>
      </trkpt>
      <trkpt lat="45.5357" lon="2.93721">
        <ele>1088.008606</ele>
        <time>2021-07-07T13:38:55+0200</time>
      </trkpt>
      <trkpt lat="45.53565" lon="2.93722">
        <ele>1088.843629</ele>
        <time>2021-07-07T13:38:58+0200</time>
      </trkpt>
      <trkpt lat="45.5356" lon="2.93723">
        <ele>1089.503038</ele>
        <time>2021-07-07T13:39:01+0200</time>
      </trkpt>
      <trkpt lat="45.53554" lon="2.93725">
        <ele>1089.840738</ele>
        <time>2021-07-07T13:39:05+0200</time>
      </trkpt>
      <trkpt lat="45.53549" lon="2.93725">
        <ele>1090.174952</ele>
        <time>2021-07-07T13:39:08+0200</time>
      </trkpt>
      <trkpt lat="45.53544" lon="2.93726">
        <ele>1090.517367</ele>
        <time>2021-07-07T13:39:11+0200</time>
      </trkpt>
      <trkpt lat="45.5354" lon="2.93728">
        <ele>1091.123714</ele>
        <time>2021-07-07T13:39:14+0200</time>
      </trkpt>
      <trkpt lat="45.53535" lon="2.93729">
        <ele>1091.703466</ele>
        <time>2021-07-07T13:39:17+0200</time>
      </trkpt>
      <trkpt lat="45.53529" lon="2.9373">
        <ele>1092.119187</ele>
        <time>2021-07-07T13:39:20+0200</time>
      </trkpt>
      <trkpt lat="45.53524" lon="2.93731">
        <ele>1092.532241</ele>
        <time>2021-07-07T13:39:23+0200</time>
      </trkpt>
      <trkpt lat="45.53519" lon="2.93733">
        <ele>1092.845906</ele>
        <time>2021-07-07T13:39:26+0200</time>
      </trkpt>
      <trkpt lat="45.53514" lon="2.93733">
        <ele>1093.33718</ele>
        <time>2021-07-07T13:39:29+0200</time>
      </trkpt>
      <trkpt lat="45.53509" lon="2.93735">
        <ele>1093.751617</ele>
        <time>2021-07-07T13:39:32+0200</time>
      </trkpt>
      <trkpt lat="45.53504" lon="2.93736">
        <ele>1094.090905</ele>
        <time>2021-07-07T13:39:35+0200</time>
      </trkpt>
      <trkpt lat="45.53499" lon="2.93736">
        <ele>1094.403273</ele>
        <time>2021-07-07T13:39:38+0200</time>
      </trkpt>
      <trkpt lat="45.53493" lon="2.93736">
        <ele>1094.720661</ele>
        <time>2021-07-07T13:39:41+0200</time>
      </trkpt>
      <trkpt lat="45.53488" lon="2.93737">
        <ele>1095.526674</ele>
        <time>2021-07-07T13:39:44+0200</time>
      </trkpt>
      <trkpt lat="45.53483" lon="2.93738">
        <ele>1096.015856</ele>
        <time>2021-07-07T13:39:47+0200</time>
      </trkpt>
      <trkpt lat="45.53478" lon="2.9374">
        <ele>1096.732138</ele>
        <time>2021-07-07T13:39:50+0200</time>
      </trkpt>
      <trkpt lat="45.53473" lon="2.9374">
        <ele>1097.033943</ele>
        <time>2021-07-07T13:39:53+0200</time>
      </trkpt>
      <trkpt lat="45.53467" lon="2.9374">
        <ele>1097.629786</ele>
        <time>2021-07-07T13:39:56+0200</time>
      </trkpt>
      <trkpt lat="45.53462" lon="2.93741">
        <ele>1097.508273</ele>
        <time>2021-07-07T13:39:59+0200</time>
      </trkpt>
      <trkpt lat="45.53456" lon="2.93738">
        <ele>1098.123339</ele>
        <time>2021-07-07T13:40:02+0200</time>
      </trkpt>
      <trkpt lat="45.53451" lon="2.93739">
        <ele>1098.681612</ele>
        <time>2021-07-07T13:40:05+0200</time>
      </trkpt>
      <trkpt lat="45.53446" lon="2.9374">
        <ele>1098.87809</ele>
        <time>2021-07-07T13:40:08+0200</time>
      </trkpt>
      <trkpt lat="45.5344" lon="2.93741">
        <ele>1098.884787</ele>
        <time>2021-07-07T13:40:11+0200</time>
      </trkpt>
      <trkpt lat="45.53434" lon="2.9374">
        <ele>1099.394074</ele>
        <time>2021-07-07T13:40:14+0200</time>
      </trkpt>
      <trkpt lat="45.53429" lon="2.9374">
        <ele>1100.046778</ele>
        <time>2021-07-07T13:40:17+0200</time>
      </trkpt>
      <trkpt lat="45.53425" lon="2.93738">
        <ele>1100.198939</ele>
        <time>2021-07-07T13:40:25+0200</time>
      </trkpt>
      <trkpt lat="45.5342" lon="2.93739">
        <ele>1100.186581</ele>
        <time>2021-07-07T13:43:37+0200</time>
      </trkpt>
      <trkpt lat="45.53414" lon="2.93738">
        <ele>1100.065344</ele>
        <time>2021-07-07T13:43:39+0200</time>
      </trkpt>
      <trkpt lat="45.53409" lon="2.93737">
        <ele>1100.112898</ele>
        <time>2021-07-07T13:43:41+0200</time>
      </trkpt>
      <trkpt lat="45.53402" lon="2.93736">
        <ele>1099.850965</ele>
        <time>2021-07-07T13:43:43+0200</time>
      </trkpt>
      <trkpt lat="45.53396" lon="2.93736">
        <ele>1099.938785</ele>
        <time>2021-07-07T13:43:45+0200</time>
      </trkpt>
      <trkpt lat="45.53389" lon="2.93735">
        <ele>1099.887672</ele>
        <time>2021-07-07T13:43:47+0200</time>
      </trkpt>
      <trkpt lat="45.53381" lon="2.93734">
        <ele>1099.97188</ele>
        <time>2021-07-07T13:43:49+0200</time>
      </trkpt>
      <trkpt lat="45.53372" lon="2.93733">
        <ele>1100.000352</ele>
        <time>2021-07-07T13:43:51+0200</time>
      </trkpt>
      <trkpt lat="45.53368" lon="2.93732">
        <ele>1099.835086</ele>
        <time>2021-07-07T13:43:52+0200</time>
      </trkpt>
      <trkpt lat="45.5336" lon="2.93729">
        <ele>1099.761565</ele>
        <time>2021-07-07T13:43:54+0200</time>
      </trkpt>
      <trkpt lat="45.53352" lon="2.93727">
        <ele>1100.094447</ele>
        <time>2021-07-07T13:43:56+0200</time>
      </trkpt>
      <trkpt lat="45.53343" lon="2.93725">
        <ele>1100.105587</ele>
        <time>2021-07-07T13:43:58+0200</time>
      </trkpt>
      <trkpt lat="45.53334" lon="2.93723">
        <ele>1100.035182</ele>
        <time>2021-07-07T13:44:00+0200</time>
      </trkpt>
      <trkpt lat="45.53325" lon="2.93723">
        <ele>1099.878886</ele>
        <time>2021-07-07T13:44:02+0200</time>
      </trkpt>
      <trkpt lat="45.53321" lon="2.93722">
        <ele>1099.648301</ele>
        <time>2021-07-07T13:44:03+0200</time>
      </trkpt>
      <trkpt lat="45.53316" lon="2.93721">
        <ele>1099.506248</ele>
        <time>2021-07-07T13:44:04+0200</time>
      </trkpt>
      <trkpt lat="45.53312" lon="2.93721">
        <ele>1099.269325</ele>
        <time>2021-07-07T13:44:05+0200</time>
      </trkpt>
      <trkpt lat="45.53306" lon="2.9372">
        <ele>1099.152533</ele>
        <time>2021-07-07T13:44:06+0200</time>
      </trkpt>
      <trkpt lat="45.53302" lon="2.93721">
        <ele>1098.993881</ele>
        <time>2021-07-07T13:44:07+0200</time>
      </trkpt>
      <trkpt lat="45.53296" lon="2.9372">
        <ele>1098.649695</ele>
        <time>2021-07-07T13:44:08+0200</time>
      </trkpt>
      <trkpt lat="45.53291" lon="2.93719">
        <ele>1098.304372</ele>
        <time>2021-07-07T13:44:09+0200</time>
      </trkpt>
      <trkpt lat="45.53286" lon="2.93719">
        <ele>1098.476618</ele>
        <time>2021-07-07T13:44:10+0200</time>
      </trkpt>
      <trkpt lat="45.53281" lon="2.93718">
        <ele>1098.473355</ele>
        <time>2021-07-07T13:44:11+0200</time>
      </trkpt>
      <trkpt lat="45.53276" lon="2.93717">
        <ele>1098.561029</ele>
        <time>2021-07-07T13:44:12+0200</time>
      </trkpt>
      <trkpt lat="45.53271" lon="2.93715">
        <ele>1098.398934</ele>
        <time>2021-07-07T13:44:13+0200</time>
      </trkpt>
      <trkpt lat="45.53266" lon="2.93714">
        <ele>1098.133052</ele>
        <time>2021-07-07T13:44:14+0200</time>
      </trkpt>
      <trkpt lat="45.53261" lon="2.93716">
        <ele>1097.951319</ele>
        <time>2021-07-07T13:44:15+0200</time>
      </trkpt>
      <trkpt lat="45.53256" lon="2.93718">
        <ele>1097.643874</ele>
        <time>2021-07-07T13:44:16+0200</time>
      </trkpt>
      <trkpt lat="45.53251" lon="2.93716">
        <ele>1097.787866</ele>
        <time>2021-07-07T13:44:17+0200</time>
      </trkpt>
      <trkpt lat="45.53247" lon="2.93714">
        <ele>1097.776756</ele>
        <time>2021-07-07T13:44:18+0200</time>
      </trkpt>
      <trkpt lat="45.53242" lon="2.93712">
        <ele>1097.70425</ele>
        <time>2021-07-07T13:44:19+0200</time>
      </trkpt>
      <trkpt lat="45.53237" lon="2.9371">
        <ele>1097.474532</ele>
        <time>2021-07-07T13:44:20+0200</time>
      </trkpt>
      <trkpt lat="45.53232" lon="2.93708">
        <ele>1097.287482</ele>
        <time>2021-07-07T13:44:21+0200</time>
      </trkpt>
      <trkpt lat="45.53227" lon="2.93706">
        <ele>1096.912293</ele>
        <time>2021-07-07T13:44:22+0200</time>
      </trkpt>
      <trkpt lat="45.53222" lon="2.93704">
        <ele>1096.951072</ele>
        <time>2021-07-07T13:44:23+0200</time>
      </trkpt>
      <trkpt lat="45.53216" lon="2.93703">
        <ele>1096.894971</ele>
        <time>2021-07-07T13:44:24+0200</time>
      </trkpt>
      <trkpt lat="45.5321" lon="2.93699">
        <ele>1096.624023</ele>
        <time>2021-07-07T13:44:25+0200</time>
      </trkpt>
      <trkpt lat="45.53203" lon="2.93696">
        <ele>1096.26293</ele>
        <time>2021-07-07T13:44:26+0200</time>
      </trkpt>
      <trkpt lat="45.53196" lon="2.93693">
        <ele>1095.291109</ele>
        <time>2021-07-07T13:44:27+0200</time>
      </trkpt>
      <trkpt lat="45.5319" lon="2.93688">
        <ele>1094.285658</ele>
        <time>2021-07-07T13:44:28+0200</time>
      </trkpt>
      <trkpt lat="45.53182" lon="2.93683">
        <ele>1093.830658</ele>
        <time>2021-07-07T13:44:29+0200</time>
      </trkpt>
      <trkpt lat="45.53174" lon="2.93678">
        <ele>1093.397275</ele>
        <time>2021-07-07T13:44:30+0200</time>
      </trkpt>
      <trkpt lat="45.53166" lon="2.93675">
        <ele>1093.018903</ele>
        <time>2021-07-07T13:44:31+0200</time>
      </trkpt>
      <trkpt lat="45.53159" lon="2.93671">
        <ele>1092.724073</ele>
        <time>2021-07-07T13:44:32+0200</time>
      </trkpt>
      <trkpt lat="45.53151" lon="2.93667">
        <ele>1092.470978</ele>
        <time>2021-07-07T13:44:33+0200</time>
      </trkpt>
      <trkpt lat="45.53143" lon="2.93664">
        <ele>1092.277506</ele>
        <time>2021-07-07T13:44:34+0200</time>
      </trkpt>
      <trkpt lat="45.53135" lon="2.9366">
        <ele>1092.013674</ele>
        <time>2021-07-07T13:44:35+0200</time>
      </trkpt>
      <trkpt lat="45.53127" lon="2.93657">
        <ele>1091.81408</ele>
        <time>2021-07-07T13:44:36+0200</time>
      </trkpt>
      <trkpt lat="45.5312" lon="2.93653">
        <ele>1091.487173</ele>
        <time>2021-07-07T13:44:37+0200</time>
      </trkpt>
      <trkpt lat="45.53112" lon="2.93652">
        <ele>1091.430543</ele>
        <time>2021-07-07T13:44:38+0200</time>
      </trkpt>
      <trkpt lat="45.53104" lon="2.93652">
        <ele>1091.552484</ele>
        <time>2021-07-07T13:44:39+0200</time>
      </trkpt>
      <trkpt lat="45.53097" lon="2.9365">
        <ele>1091.854162</ele>
        <time>2021-07-07T13:44:40+0200</time>
      </trkpt>
      <trkpt lat="45.53091" lon="2.9365">
        <ele>1092.130151</ele>
        <time>2021-07-07T13:44:41+0200</time>
      </trkpt>
      <trkpt lat="45.53084" lon="2.93651">
        <ele>1092.502077</ele>
        <time>2021-07-07T13:44:42+0200</time>
      </trkpt>
      <trkpt lat="45.53077" lon="2.93652">
        <ele>1092.508834</ele>
        <time>2021-07-07T13:44:43+0200</time>
      </trkpt>
      <trkpt lat="45.5307" lon="2.93652">
        <ele>1092.547213</ele>
        <time>2021-07-07T13:44:44+0200</time>
      </trkpt>
      <trkpt lat="45.53064" lon="2.93652">
        <ele>1092.707615</ele>
        <time>2021-07-07T13:44:45+0200</time>
      </trkpt>
      <trkpt lat="45.53058" lon="2.93652">
        <ele>1092.829514</ele>
        <time>2021-07-07T13:44:46+0200</time>
      </trkpt>
      <trkpt lat="45.53052" lon="2.93652">
        <ele>1093.104901</ele>
        <time>2021-07-07T13:44:47+0200</time>
      </trkpt>
      <trkpt lat="45.53046" lon="2.93651">
        <ele>1093.145048</ele>
        <time>2021-07-07T13:44:48+0200</time>
      </trkpt>
      <trkpt lat="45.5304" lon="2.93652">
        <ele>1093.18445</ele>
        <time>2021-07-07T13:44:49+0200</time>
      </trkpt>
      <trkpt lat="45.53034" lon="2.9365">
        <ele>1093.188084</ele>
        <time>2021-07-07T13:44:50+0200</time>
      </trkpt>
      <trkpt lat="45.53028" lon="2.93649">
        <ele>1093.095073</ele>
        <time>2021-07-07T13:44:51+0200</time>
      </trkpt>
      <trkpt lat="45.53022" lon="2.93651">
        <ele>1092.87635</ele>
        <time>2021-07-07T13:44:52+0200</time>
      </trkpt>
      <trkpt lat="45.53017" lon="2.93653">
        <ele>1092.834193</ele>
        <time>2021-07-07T13:44:53+0200</time>
      </trkpt>
      <trkpt lat="45.53011" lon="2.93652">
        <ele>1092.878297</ele>
        <time>2021-07-07T13:44:54+0200</time>
      </trkpt>
      <trkpt lat="45.53006" lon="2.93651">
        <ele>1092.7802</ele>
        <time>2021-07-07T13:44:55+0200</time>
      </trkpt>
      <trkpt lat="45.53" lon="2.9365">
        <ele>1092.765365</ele>
        <time>2021-07-07T13:44:56+0200</time>
      </trkpt>
      <trkpt lat="45.52995" lon="2.93648">
        <ele>1092.651682</ele>
        <time>2021-07-07T13:44:57+0200</time>
      </trkpt>
      <trkpt lat="45.52989" lon="2.93647">
        <ele>1092.972954</ele>
        <time>2021-07-07T13:44:58+0200</time>
      </trkpt>
      <trkpt lat="45.52984" lon="2.93647">
        <ele>1092.858943</ele>
        <time>2021-07-07T13:44:59+0200</time>
      </trkpt>
      <trkpt lat="45.52979" lon="2.93648">
        <ele>1092.998114</ele>
        <time>2021-07-07T13:45:00+0200</time>
      </trkpt>
      <trkpt lat="45.52973" lon="2.93647">
        <ele>1092.802933</ele>
        <time>2021-07-07T13:45:01+0200</time>
      </trkpt>
      <trkpt lat="45.52968" lon="2.93645">
        <ele>1092.364074</ele>
        <time>2021-07-07T13:45:02+0200</time>
      </trkpt>
      <trkpt lat="45.52962" lon="2.93644">
        <ele>1092.241876</ele>
        <time>2021-07-07T13:45:03+0200</time>
      </trkpt>
      <trkpt lat="45.52955" lon="2.93642">
        <ele>1092.255377</ele>
        <time>2021-07-07T13:45:04+0200</time>
      </trkpt>
      <trkpt lat="45.52949" lon="2.93641">
        <ele>1091.760751</ele>
        <time>2021-07-07T13:45:05+0200</time>
      </trkpt>
      <trkpt lat="45.52941" lon="2.93641">
        <ele>1091.06049</ele>
        <time>2021-07-07T13:45:06+0200</time>
      </trkpt>
      <trkpt lat="45.52934" lon="2.93641">
        <ele>1090.76547</ele>
        <time>2021-07-07T13:45:07+0200</time>
      </trkpt>
      <trkpt lat="45.52926" lon="2.93638">
        <ele>1090.041295</ele>
        <time>2021-07-07T13:45:08+0200</time>
      </trkpt>
      <trkpt lat="45.52917" lon="2.93637">
        <ele>1089.490517</ele>
        <time>2021-07-07T13:45:09+0200</time>
      </trkpt>
      <trkpt lat="45.52909" lon="2.93636">
        <ele>1089.032647</ele>
        <time>2021-07-07T13:45:10+0200</time>
      </trkpt>
      <trkpt lat="45.52901" lon="2.93633">
        <ele>1088.439241</ele>
        <time>2021-07-07T13:45:11+0200</time>
      </trkpt>
      <trkpt lat="45.52893" lon="2.93631">
        <ele>1087.756184</ele>
        <time>2021-07-07T13:45:12+0200</time>
      </trkpt>
      <trkpt lat="45.52884" lon="2.9363">
        <ele>1087.129899</ele>
        <time>2021-07-07T13:45:13+0200</time>
      </trkpt>
      <trkpt lat="45.52874" lon="2.93629">
        <ele>1086.495866</ele>
        <time>2021-07-07T13:45:14+0200</time>
      </trkpt>
      <trkpt lat="45.52865" lon="2.93631">
        <ele>1086.312199</ele>
        <time>2021-07-07T13:45:15+0200</time>
      </trkpt>
      <trkpt lat="45.52856" lon="2.93633">
        <ele>1085.111255</ele>
        <time>2021-07-07T13:45:16+0200</time>
      </trkpt>
      <trkpt lat="45.52846" lon="2.93634">
        <ele>1084.634707</ele>
        <time>2021-07-07T13:45:17+0200</time>
      </trkpt>
      <trkpt lat="45.52837" lon="2.93633">
        <ele>1084.078929</ele>
        <time>2021-07-07T13:45:18+0200</time>
      </trkpt>
      <trkpt lat="45.52827" lon="2.9363">
        <ele>1083.1997</ele>
        <time>2021-07-07T13:45:19+0200</time>
      </trkpt>
      <trkpt lat="45.52818" lon="2.93626">
        <ele>1082.11297</ele>
        <time>2021-07-07T13:45:20+0200</time>
      </trkpt>
      <trkpt lat="45.52809" lon="2.93621">
        <ele>1081.043057</ele>
        <time>2021-07-07T13:45:21+0200</time>
      </trkpt>
      <trkpt lat="45.52799" lon="2.93614">
        <ele>1079.758288</ele>
        <time>2021-07-07T13:45:22+0200</time>
      </trkpt>
      <trkpt lat="45.5279" lon="2.93607">
        <ele>1078.930119</ele>
        <time>2021-07-07T13:45:23+0200</time>
      </trkpt>
      <trkpt lat="45.52782" lon="2.93598">
        <ele>1078.71103</ele>
        <time>2021-07-07T13:45:24+0200</time>
      </trkpt>
      <trkpt lat="45.52777" lon="2.93588">
        <ele>1078.658764</ele>
        <time>2021-07-07T13:45:25+0200</time>
      </trkpt>
      <trkpt lat="45.52771" lon="2.93583">
        <ele>1078.78959</ele>
        <time>2021-07-07T13:45:26+0200</time>
      </trkpt>
      <trkpt lat="45.52763" lon="2.93581">
        <ele>1079.722387</ele>
        <time>2021-07-07T13:45:27+0200</time>
      </trkpt>
      <trkpt lat="45.52754" lon="2.93584">
        <ele>1080.201858</ele>
        <time>2021-07-07T13:45:28+0200</time>
      </trkpt>
      <trkpt lat="45.52747" lon="2.93587">
        <ele>1079.726017</ele>
        <time>2021-07-07T13:45:29+0200</time>
      </trkpt>
      <trkpt lat="45.52741" lon="2.93587">
        <ele>1079.465463</ele>
        <time>2021-07-07T13:45:30+0200</time>
      </trkpt>
      <trkpt lat="45.52735" lon="2.93591">
        <ele>1079.062352</ele>
        <time>2021-07-07T13:45:31+0200</time>
      </trkpt>
      <trkpt lat="45.52728" lon="2.93594">
        <ele>1078.97854</ele>
        <time>2021-07-07T13:45:32+0200</time>
      </trkpt>
      <trkpt lat="45.52722" lon="2.93596">
        <ele>1078.868733</ele>
        <time>2021-07-07T13:45:33+0200</time>
      </trkpt>
      <trkpt lat="45.52716" lon="2.93599">
        <ele>1078.967759</ele>
        <time>2021-07-07T13:45:34+0200</time>
      </trkpt>
      <trkpt lat="45.52711" lon="2.93601">
        <ele>1079.117974</ele>
        <time>2021-07-07T13:45:35+0200</time>
      </trkpt>
      <trkpt lat="45.52705" lon="2.93603">
        <ele>1079.201783</ele>
        <time>2021-07-07T13:45:36+0200</time>
      </trkpt>
      <trkpt lat="45.527" lon="2.93606">
        <ele>1079.490316</ele>
        <time>2021-07-07T13:45:37+0200</time>
      </trkpt>
      <trkpt lat="45.52695" lon="2.93608">
        <ele>1079.928511</ele>
        <time>2021-07-07T13:45:38+0200</time>
      </trkpt>
      <trkpt lat="45.5269" lon="2.9361">
        <ele>1080.045717</ele>
        <time>2021-07-07T13:45:39+0200</time>
      </trkpt>
      <trkpt lat="45.52685" lon="2.93613">
        <ele>1080.652519</ele>
        <time>2021-07-07T13:45:40+0200</time>
      </trkpt>
      <trkpt lat="45.52681" lon="2.93616">
        <ele>1081.094051</ele>
        <time>2021-07-07T13:45:41+0200</time>
      </trkpt>
      <trkpt lat="45.52674" lon="2.93621">
        <ele>1082.054514</ele>
        <time>2021-07-07T13:45:43+0200</time>
      </trkpt>
      <trkpt lat="45.52668" lon="2.93624">
        <ele>1083.515746</ele>
        <time>2021-07-07T13:45:45+0200</time>
      </trkpt>
      <trkpt lat="45.52663" lon="2.93627">
        <ele>1083.812588</ele>
        <time>2021-07-07T13:45:47+0200</time>
      </trkpt>
      <trkpt lat="45.52657" lon="2.93629">
        <ele>1083.876939</ele>
        <time>2021-07-07T13:45:49+0200</time>
      </trkpt>
      <trkpt lat="45.52651" lon="2.93629">
        <ele>1084.05591</ele>
        <time>2021-07-07T13:45:51+0200</time>
      </trkpt>
      <trkpt lat="45.52646" lon="2.93632">
        <ele>1084.242469</ele>
        <time>2021-07-07T13:45:53+0200</time>
      </trkpt>
      <trkpt lat="45.52641" lon="2.93634">
        <ele>1084.503691</ele>
        <time>2021-07-07T13:45:55+0200</time>
      </trkpt>
      <trkpt lat="45.52636" lon="2.93636">
        <ele>1084.772274</ele>
        <time>2021-07-07T13:45:57+0200</time>
      </trkpt>
      <trkpt lat="45.5263" lon="2.93637">
        <ele>1084.596971</ele>
        <time>2021-07-07T13:45:59+0200</time>
      </trkpt>
      <trkpt lat="45.52623" lon="2.93636">
        <ele>1084.760862</ele>
        <time>2021-07-07T13:46:01+0200</time>
      </trkpt>
      <trkpt lat="45.52617" lon="2.93636">
        <ele>1085.134447</ele>
        <time>2021-07-07T13:46:03+0200</time>
      </trkpt>
      <trkpt lat="45.5261" lon="2.93635">
        <ele>1085.404018</ele>
        <time>2021-07-07T13:46:05+0200</time>
      </trkpt>
      <trkpt lat="45.52602" lon="2.93634">
        <ele>1085.097317</ele>
        <time>2021-07-07T13:46:07+0200</time>
      </trkpt>
      <trkpt lat="45.52594" lon="2.93631">
        <ele>1084.995736</ele>
        <time>2021-07-07T13:46:09+0200</time>
      </trkpt>
      <trkpt lat="45.52585" lon="2.9363">
        <ele>1084.776881</ele>
        <time>2021-07-07T13:46:11+0200</time>
      </trkpt>
      <trkpt lat="45.52578" lon="2.93631">
        <ele>1084.298692</ele>
        <time>2021-07-07T13:46:13+0200</time>
      </trkpt>
      <trkpt lat="45.5257" lon="2.93632">
        <ele>1084.387981</ele>
        <time>2021-07-07T13:46:15+0200</time>
      </trkpt>
      <trkpt lat="45.52562" lon="2.93635">
        <ele>1084.615448</ele>
        <time>2021-07-07T13:46:17+0200</time>
      </trkpt>
      <trkpt lat="45.52554" lon="2.93637">
        <ele>1084.478076</ele>
        <time>2021-07-07T13:46:19+0200</time>
      </trkpt>
      <trkpt lat="45.52547" lon="2.93636">
        <ele>1084.646985</ele>
        <time>2021-07-07T13:46:21+0200</time>
      </trkpt>
      <trkpt lat="45.52541" lon="2.93633">
        <ele>1085.068402</ele>
        <time>2021-07-07T13:46:23+0200</time>
      </trkpt>
      <trkpt lat="45.52536" lon="2.93631">
        <ele>1086.047839</ele>
        <time>2021-07-07T13:46:25+0200</time>
      </trkpt>
      <trkpt lat="45.5253" lon="2.93629">
        <ele>1086.902698</ele>
        <time>2021-07-07T13:46:27+0200</time>
      </trkpt>
      <trkpt lat="45.52524" lon="2.93628">
        <ele>1087.518108</ele>
        <time>2021-07-07T13:46:29+0200</time>
      </trkpt>
      <trkpt lat="45.52518" lon="2.93627">
        <ele>1088.023591</ele>
        <time>2021-07-07T13:46:31+0200</time>
      </trkpt>
      <trkpt lat="45.52511" lon="2.93625">
        <ele>1088.571849</ele>
        <time>2021-07-07T13:46:33+0200</time>
      </trkpt>
      <trkpt lat="45.52505" lon="2.93623">
        <ele>1089.58262</ele>
        <time>2021-07-07T13:46:35+0200</time>
      </trkpt>
      <trkpt lat="45.52499" lon="2.93625">
        <ele>1090.72012</ele>
        <time>2021-07-07T13:46:37+0200</time>
      </trkpt>
      <trkpt lat="45.52494" lon="2.93624">
        <ele>1090.880095</ele>
        <time>2021-07-07T13:46:39+0200</time>
      </trkpt>
      <trkpt lat="45.52487" lon="2.93624">
        <ele>1091.406081</ele>
        <time>2021-07-07T13:46:41+0200</time>
      </trkpt>
      <trkpt lat="45.52481" lon="2.93624">
        <ele>1091.308579</ele>
        <time>2021-07-07T13:46:43+0200</time>
      </trkpt>
      <trkpt lat="45.52473" lon="2.93625">
        <ele>1091.96288</ele>
        <time>2021-07-07T13:46:45+0200</time>
      </trkpt>
      <trkpt lat="45.52466" lon="2.93623">
        <ele>1092.297089</ele>
        <time>2021-07-07T13:46:47+0200</time>
      </trkpt>
      <trkpt lat="45.5246" lon="2.93622">
        <ele>1092.660895</ele>
        <time>2021-07-07T13:46:49+0200</time>
      </trkpt>
      <trkpt lat="45.52454" lon="2.93623">
        <ele>1092.640131</ele>
        <time>2021-07-07T13:46:51+0200</time>
      </trkpt>
      <trkpt lat="45.52448" lon="2.93625">
        <ele>1093.313611</ele>
        <time>2021-07-07T13:46:53+0200</time>
      </trkpt>
      <trkpt lat="45.52442" lon="2.93625">
        <ele>1093.587842</ele>
        <time>2021-07-07T13:46:55+0200</time>
      </trkpt>
      <trkpt lat="45.52437" lon="2.93625">
        <ele>1092.83497</ele>
        <time>2021-07-07T13:46:57+0200</time>
      </trkpt>
      <trkpt lat="45.52431" lon="2.93625">
        <ele>1092.719826</ele>
        <time>2021-07-07T13:46:59+0200</time>
      </trkpt>
      <trkpt lat="45.52425" lon="2.93625">
        <ele>1092.903946</ele>
        <time>2021-07-07T13:47:01+0200</time>
      </trkpt>
      <trkpt lat="45.5242" lon="2.93625">
        <ele>1093.048873</ele>
        <time>2021-07-07T13:47:03+0200</time>
      </trkpt>
      <trkpt lat="45.52415" lon="2.93624">
        <ele>1092.852859</ele>
        <time>2021-07-07T13:47:07+0200</time>
      </trkpt>
      <trkpt lat="45.52408" lon="2.93624">
        <ele>1093.00856</ele>
        <time>2021-07-07T13:47:10+0200</time>
      </trkpt>
      <trkpt lat="45.52402" lon="2.93622">
        <ele>1092.917125</ele>
        <time>2021-07-07T13:47:12+0200</time>
      </trkpt>
      <trkpt lat="45.52394" lon="2.93621">
        <ele>1092.268747</ele>
        <time>2021-07-07T13:47:14+0200</time>
      </trkpt>
      <trkpt lat="45.52385" lon="2.93616">
        <ele>1091.820591</ele>
        <time>2021-07-07T13:47:16+0200</time>
      </trkpt>
      <trkpt lat="45.5238" lon="2.93615">
        <ele>1091.465843</ele>
        <time>2021-07-07T13:47:17+0200</time>
      </trkpt>
      <trkpt lat="45.52375" lon="2.93612">
        <ele>1091.317743</ele>
        <time>2021-07-07T13:47:18+0200</time>
      </trkpt>
      <trkpt lat="45.5237" lon="2.9361">
        <ele>1091.059353</ele>
        <time>2021-07-07T13:47:19+0200</time>
      </trkpt>
      <trkpt lat="45.52365" lon="2.93608">
        <ele>1090.867869</ele>
        <time>2021-07-07T13:47:20+0200</time>
      </trkpt>
      <trkpt lat="45.5236" lon="2.93605">
        <ele>1090.679625</ele>
        <time>2021-07-07T13:47:21+0200</time>
      </trkpt>
      <trkpt lat="45.52355" lon="2.93602">
        <ele>1090.892174</ele>
        <time>2021-07-07T13:47:22+0200</time>
      </trkpt>
      <trkpt lat="45.52349" lon="2.93601">
        <ele>1090.531983</ele>
        <time>2021-07-07T13:47:23+0200</time>
      </trkpt>
      <trkpt lat="45.52343" lon="2.93599">
        <ele>1090.328398</ele>
        <time>2021-07-07T13:47:24+0200</time>
      </trkpt>
      <trkpt lat="45.52337" lon="2.93595">
        <ele>1090.117631</ele>
        <time>2021-07-07T13:47:25+0200</time>
      </trkpt>
      <trkpt lat="45.52331" lon="2.93593">
        <ele>1089.713501</ele>
        <time>2021-07-07T13:47:26+0200</time>
      </trkpt>
      <trkpt lat="45.52325" lon="2.93591">
        <ele>1089.606716</ele>
        <time>2021-07-07T13:47:27+0200</time>
      </trkpt>
      <trkpt lat="45.52319" lon="2.93588">
        <ele>1089.71367</ele>
        <time>2021-07-07T13:47:28+0200</time>
      </trkpt>
      <trkpt lat="45.52313" lon="2.93587">
        <ele>1089.586966</ele>
        <time>2021-07-07T13:47:29+0200</time>
      </trkpt>
      <trkpt lat="45.52308" lon="2.93584">
        <ele>1089.393212</ele>
        <time>2021-07-07T13:47:30+0200</time>
      </trkpt>
      <trkpt lat="45.52302" lon="2.9358">
        <ele>1089.108167</ele>
        <time>2021-07-07T13:47:31+0200</time>
      </trkpt>
      <trkpt lat="45.52296" lon="2.93577">
        <ele>1088.988523</ele>
        <time>2021-07-07T13:47:32+0200</time>
      </trkpt>
      <trkpt lat="45.5229" lon="2.93575">
        <ele>1088.703588</ele>
        <time>2021-07-07T13:47:33+0200</time>
      </trkpt>
      <trkpt lat="45.52284" lon="2.93572">
        <ele>1088.393003</ele>
        <time>2021-07-07T13:47:34+0200</time>
      </trkpt>
      <trkpt lat="45.52278" lon="2.93569">
        <ele>1088.012893</ele>
        <time>2021-07-07T13:47:35+0200</time>
      </trkpt>
      <trkpt lat="45.52273" lon="2.93568">
        <ele>1087.789363</ele>
        <time>2021-07-07T13:47:36+0200</time>
      </trkpt>
      <trkpt lat="45.52268" lon="2.93567">
        <ele>1086.336261</ele>
        <time>2021-07-07T13:47:39+0200</time>
      </trkpt>
      <trkpt lat="45.52272" lon="2.93567">
        <ele>1087.057346</ele>
        <time>2021-07-07T13:48:13+0200</time>
      </trkpt>
      <trkpt lat="45.5227" lon="2.93558">
        <ele>1087.681943</ele>
        <time>2021-07-07T13:48:21+0200</time>
      </trkpt>
      <trkpt lat="45.52267" lon="2.93552">
        <ele>1087.525622</ele>
        <time>2021-07-07T13:48:23+0200</time>
      </trkpt>
      <trkpt lat="45.52263" lon="2.93544">
        <ele>1087.82672</ele>
        <time>2021-07-07T13:48:25+0200</time>
      </trkpt>
      <trkpt lat="45.52259" lon="2.93534">
        <ele>1087.708298</ele>
        <time>2021-07-07T13:48:27+0200</time>
      </trkpt>
      <trkpt lat="45.52255" lon="2.93524">
        <ele>1087.572292</ele>
        <time>2021-07-07T13:48:29+0200</time>
      </trkpt>
      <trkpt lat="45.52253" lon="2.93513">
        <ele>1087.437513</ele>
        <time>2021-07-07T13:48:31+0200</time>
      </trkpt>
      <trkpt lat="45.52251" lon="2.93503">
        <ele>1087.310435</ele>
        <time>2021-07-07T13:48:33+0200</time>
      </trkpt>
      <trkpt lat="45.52248" lon="2.93492">
        <ele>1087.257458</ele>
        <time>2021-07-07T13:48:35+0200</time>
      </trkpt>
      <trkpt lat="45.52245" lon="2.93482">
        <ele>1087.28908</ele>
        <time>2021-07-07T13:48:37+0200</time>
      </trkpt>
      <trkpt lat="45.52243" lon="2.93476">
        <ele>1087.18615</ele>
        <time>2021-07-07T13:48:39+0200</time>
      </trkpt>
      <trkpt lat="45.52239" lon="2.93472">
        <ele>1087.164211</ele>
        <time>2021-07-07T13:48:42+0200</time>
      </trkpt>
      <trkpt lat="45.52236" lon="2.93466">
        <ele>1087.171182</ele>
        <time>2021-07-07T13:48:44+0200</time>
      </trkpt>
      <trkpt lat="45.52232" lon="2.93462">
        <ele>1087.037752</ele>
        <time>2021-07-07T13:48:46+0200</time>
      </trkpt>
      <trkpt lat="45.52228" lon="2.93457">
        <ele>1086.730605</ele>
        <time>2021-07-07T13:48:48+0200</time>
      </trkpt>
      <trkpt lat="45.52224" lon="2.93452">
        <ele>1087.16292</ele>
        <time>2021-07-07T13:48:50+0200</time>
      </trkpt>
      <trkpt lat="45.5222" lon="2.93446">
        <ele>1087.754207</ele>
        <time>2021-07-07T13:48:52+0200</time>
      </trkpt>
      <trkpt lat="45.52216" lon="2.9344">
        <ele>1088.538702</ele>
        <time>2021-07-07T13:48:54+0200</time>
      </trkpt>
      <trkpt lat="45.52212" lon="2.93433">
        <ele>1089.003763</ele>
        <time>2021-07-07T13:48:56+0200</time>
      </trkpt>
      <trkpt lat="45.52206" lon="2.93426">
        <ele>1089.54119</ele>
        <time>2021-07-07T13:48:58+0200</time>
      </trkpt>
      <trkpt lat="45.52201" lon="2.93419">
        <ele>1089.455086</ele>
        <time>2021-07-07T13:49:00+0200</time>
      </trkpt>
      <trkpt lat="45.52195" lon="2.93412">
        <ele>1088.555311</ele>
        <time>2021-07-07T13:49:02+0200</time>
      </trkpt>
      <trkpt lat="45.5219" lon="2.93403">
        <ele>1088.530874</ele>
        <time>2021-07-07T13:49:04+0200</time>
      </trkpt>
      <trkpt lat="45.52183" lon="2.93395">
        <ele>1088.303606</ele>
        <time>2021-07-07T13:49:06+0200</time>
      </trkpt>
      <trkpt lat="45.52179" lon="2.93391">
        <ele>1088.230544</ele>
        <time>2021-07-07T13:49:07+0200</time>
      </trkpt>
      <trkpt lat="45.52172" lon="2.93386">
        <ele>1088.281125</ele>
        <time>2021-07-07T13:49:09+0200</time>
      </trkpt>
      <trkpt lat="45.52164" lon="2.93382">
        <ele>1087.752172</ele>
        <time>2021-07-07T13:49:11+0200</time>
      </trkpt>
      <trkpt lat="45.52154" lon="2.93379">
        <ele>1087.522737</ele>
        <time>2021-07-07T13:49:13+0200</time>
      </trkpt>
      <trkpt lat="45.52149" lon="2.93378">
        <ele>1087.566329</ele>
        <time>2021-07-07T13:49:14+0200</time>
      </trkpt>
      <trkpt lat="45.52143" lon="2.93378">
        <ele>1087.514494</ele>
        <time>2021-07-07T13:49:15+0200</time>
      </trkpt>
      <trkpt lat="45.52137" lon="2.93378">
        <ele>1087.044888</ele>
        <time>2021-07-07T13:49:16+0200</time>
      </trkpt>
      <trkpt lat="45.52131" lon="2.9338">
        <ele>1086.74803</ele>
        <time>2021-07-07T13:49:17+0200</time>
      </trkpt>
      <trkpt lat="45.52126" lon="2.93384">
        <ele>1086.189395</ele>
        <time>2021-07-07T13:49:18+0200</time>
      </trkpt>
      <trkpt lat="45.52121" lon="2.93389">
        <ele>1085.672024</ele>
        <time>2021-07-07T13:49:19+0200</time>
      </trkpt>
      <trkpt lat="45.52117" lon="2.93395">
        <ele>1085.142924</ele>
        <time>2021-07-07T13:49:20+0200</time>
      </trkpt>
      <trkpt lat="45.52112" lon="2.93402">
        <ele>1085.199549</ele>
        <time>2021-07-07T13:49:21+0200</time>
      </trkpt>
      <trkpt lat="45.52108" lon="2.93407">
        <ele>1084.526185</ele>
        <time>2021-07-07T13:49:22+0200</time>
      </trkpt>
      <trkpt lat="45.52105" lon="2.93413">
        <ele>1083.93593</ele>
        <time>2021-07-07T13:49:23+0200</time>
      </trkpt>
      <trkpt lat="45.52102" lon="2.93418">
        <ele>1082.965352</ele>
        <time>2021-07-07T13:49:24+0200</time>
      </trkpt>
      <trkpt lat="45.52099" lon="2.93425">
        <ele>1082.965456</ele>
        <time>2021-07-07T13:49:25+0200</time>
      </trkpt>
      <trkpt lat="45.52096" lon="2.93432">
        <ele>1082.264203</ele>
        <time>2021-07-07T13:49:26+0200</time>
      </trkpt>
      <trkpt lat="45.52093" lon="2.9344">
        <ele>1082.041967</ele>
        <time>2021-07-07T13:49:27+0200</time>
      </trkpt>
      <trkpt lat="45.52093" lon="2.93452">
        <ele>1080.187429</ele>
        <time>2021-07-07T13:49:29+0200</time>
      </trkpt>
      <trkpt lat="45.52093" lon="2.9346">
        <ele>1078.085471</ele>
        <time>2021-07-07T13:49:31+0200</time>
      </trkpt>
      <trkpt lat="45.52089" lon="2.93465">
        <ele>1075.979446</ele>
        <time>2021-07-07T13:49:33+0200</time>
      </trkpt>
      <trkpt lat="45.52084" lon="2.93464">
        <ele>1073.566559</ele>
        <time>2021-07-07T13:49:35+0200</time>
      </trkpt>
      <trkpt lat="45.52079" lon="2.93463">
        <ele>1072.900787</ele>
        <time>2021-07-07T13:49:36+0200</time>
      </trkpt>
      <trkpt lat="45.52069" lon="2.93462">
        <ele>1072.059756</ele>
        <time>2021-07-07T13:49:38+0200</time>
      </trkpt>
      <trkpt lat="45.52063" lon="2.93462">
        <ele>1071.972975</ele>
        <time>2021-07-07T13:49:39+0200</time>
      </trkpt>
      <trkpt lat="45.52055" lon="2.9346">
        <ele>1071.943969</ele>
        <time>2021-07-07T13:49:41+0200</time>
      </trkpt>
      <trkpt lat="45.52051" lon="2.9346">
        <ele>1071.906359</ele>
        <time>2021-07-07T13:49:42+0200</time>
      </trkpt>
      <trkpt lat="45.52045" lon="2.93459">
        <ele>1071.886346</ele>
        <time>2021-07-07T13:49:43+0200</time>
      </trkpt>
      <trkpt lat="45.52038" lon="2.93459">
        <ele>1071.81712</ele>
        <time>2021-07-07T13:49:44+0200</time>
      </trkpt>
      <trkpt lat="45.52031" lon="2.93458">
        <ele>1071.220382</ele>
        <time>2021-07-07T13:49:45+0200</time>
      </trkpt>
      <trkpt lat="45.52024" lon="2.93456">
        <ele>1070.655336</ele>
        <time>2021-07-07T13:49:46+0200</time>
      </trkpt>
      <trkpt lat="45.52017" lon="2.93454">
        <ele>1070.062568</ele>
        <time>2021-07-07T13:49:47+0200</time>
      </trkpt>
      <trkpt lat="45.5201" lon="2.93454">
        <ele>1069.659941</ele>
        <time>2021-07-07T13:49:48+0200</time>
      </trkpt>
      <trkpt lat="45.52002" lon="2.93454">
        <ele>1069.093744</ele>
        <time>2021-07-07T13:49:49+0200</time>
      </trkpt>
      <trkpt lat="45.51995" lon="2.93454">
        <ele>1068.5422</ele>
        <time>2021-07-07T13:49:50+0200</time>
      </trkpt>
      <trkpt lat="45.51989" lon="2.93457">
        <ele>1068.013779</ele>
        <time>2021-07-07T13:49:51+0200</time>
      </trkpt>
      <trkpt lat="45.51985" lon="2.93463">
        <ele>1067.252308</ele>
        <time>2021-07-07T13:49:52+0200</time>
      </trkpt>
      <trkpt lat="45.51982" lon="2.9347">
        <ele>1066.629807</ele>
        <time>2021-07-07T13:49:53+0200</time>
      </trkpt>
      <trkpt lat="45.51979" lon="2.93476">
        <ele>1065.616597</ele>
        <time>2021-07-07T13:49:54+0200</time>
      </trkpt>
      <trkpt lat="45.51974" lon="2.93477">
        <ele>1064.879164</ele>
        <time>2021-07-07T13:49:55+0200</time>
      </trkpt>
      <trkpt lat="45.51971" lon="2.93472">
        <ele>1064.422434</ele>
        <time>2021-07-07T13:49:56+0200</time>
      </trkpt>
      <trkpt lat="45.5197" lon="2.93464">
        <ele>1064.341955</ele>
        <time>2021-07-07T13:49:57+0200</time>
      </trkpt>
      <trkpt lat="45.51965" lon="2.93454">
        <ele>1063.262543</ele>
        <time>2021-07-07T13:49:59+0200</time>
      </trkpt>
      <trkpt lat="45.51962" lon="2.93448">
        <ele>1062.91142</ele>
        <time>2021-07-07T13:50:00+0200</time>
      </trkpt>
      <trkpt lat="45.51959" lon="2.93441">
        <ele>1063.033865</ele>
        <time>2021-07-07T13:50:01+0200</time>
      </trkpt>
      <trkpt lat="45.51954" lon="2.93429">
        <ele>1063.239024</ele>
        <time>2021-07-07T13:50:03+0200</time>
      </trkpt>
      <trkpt lat="45.51951" lon="2.93424">
        <ele>1062.967466</ele>
        <time>2021-07-07T13:50:04+0200</time>
      </trkpt>
      <trkpt lat="45.51946" lon="2.93422">
        <ele>1062.820953</ele>
        <time>2021-07-07T13:50:05+0200</time>
      </trkpt>
      <trkpt lat="45.51941" lon="2.93419">
        <ele>1062.649718</ele>
        <time>2021-07-07T13:50:06+0200</time>
      </trkpt>
      <trkpt lat="45.51936" lon="2.93416">
        <ele>1062.294683</ele>
        <time>2021-07-07T13:50:07+0200</time>
      </trkpt>
      <trkpt lat="45.51931" lon="2.93414">
        <ele>1061.89543</ele>
        <time>2021-07-07T13:50:08+0200</time>
      </trkpt>
      <trkpt lat="45.51923" lon="2.9341">
        <ele>1061.003744</ele>
        <time>2021-07-07T13:50:10+0200</time>
      </trkpt>
      <trkpt lat="45.51918" lon="2.93409">
        <ele>1060.549271</ele>
        <time>2021-07-07T13:50:11+0200</time>
      </trkpt>
      <trkpt lat="45.51912" lon="2.9341">
        <ele>1060.145162</ele>
        <time>2021-07-07T13:50:12+0200</time>
      </trkpt>
      <trkpt lat="45.51906" lon="2.93409">
        <ele>1059.409355</ele>
        <time>2021-07-07T13:50:13+0200</time>
      </trkpt>
      <trkpt lat="45.51902" lon="2.93411">
        <ele>1059.278709</ele>
        <time>2021-07-07T13:50:14+0200</time>
      </trkpt>
      <trkpt lat="45.51891" lon="2.93409">
        <ele>1057.737178</ele>
        <time>2021-07-07T13:50:17+0200</time>
      </trkpt>
      <trkpt lat="45.51886" lon="2.9341">
        <ele>1057.346816</ele>
        <time>2021-07-07T13:50:19+0200</time>
      </trkpt>
      <trkpt lat="45.5188" lon="2.93413">
        <ele>1057.263791</ele>
        <time>2021-07-07T13:50:21+0200</time>
      </trkpt>
      <trkpt lat="45.51875" lon="2.93413">
        <ele>1056.867827</ele>
        <time>2021-07-07T13:50:23+0200</time>
      </trkpt>
      <trkpt lat="45.51868" lon="2.93416">
        <ele>1056.832817</ele>
        <time>2021-07-07T13:50:25+0200</time>
      </trkpt>
      <trkpt lat="45.51863" lon="2.93417">
        <ele>1056.607068</ele>
        <time>2021-07-07T13:50:26+0200</time>
      </trkpt>
      <trkpt lat="45.51858" lon="2.93418">
        <ele>1055.51688</ele>
        <time>2021-07-07T13:50:27+0200</time>
      </trkpt>
      <trkpt lat="45.51853" lon="2.93419">
        <ele>1055.797969</ele>
        <time>2021-07-07T13:50:28+0200</time>
      </trkpt>
      <trkpt lat="45.51846" lon="2.93419">
        <ele>1055.802725</ele>
        <time>2021-07-07T13:50:30+0200</time>
      </trkpt>
      <trkpt lat="45.51838" lon="2.93421">
        <ele>1056.088245</ele>
        <time>2021-07-07T13:50:32+0200</time>
      </trkpt>
      <trkpt lat="45.51833" lon="2.93422">
        <ele>1055.817495</ele>
        <time>2021-07-07T13:50:33+0200</time>
      </trkpt>
      <trkpt lat="45.51828" lon="2.93423">
        <ele>1055.436407</ele>
        <time>2021-07-07T13:50:34+0200</time>
      </trkpt>
      <trkpt lat="45.51823" lon="2.93424">
        <ele>1055.546466</ele>
        <time>2021-07-07T13:50:35+0200</time>
      </trkpt>
      <trkpt lat="45.51817" lon="2.93426">
        <ele>1055.270581</ele>
        <time>2021-07-07T13:50:36+0200</time>
      </trkpt>
      <trkpt lat="45.51811" lon="2.93427">
        <ele>1054.306062</ele>
        <time>2021-07-07T13:50:37+0200</time>
      </trkpt>
      <trkpt lat="45.51804" lon="2.93427">
        <ele>1053.499946</ele>
        <time>2021-07-07T13:50:38+0200</time>
      </trkpt>
      <trkpt lat="45.51797" lon="2.93429">
        <ele>1052.663764</ele>
        <time>2021-07-07T13:50:39+0200</time>
      </trkpt>
      <trkpt lat="45.5179" lon="2.93429">
        <ele>1051.901739</ele>
        <time>2021-07-07T13:50:40+0200</time>
      </trkpt>
      <trkpt lat="45.51783" lon="2.9343">
        <ele>1051.749353</ele>
        <time>2021-07-07T13:50:41+0200</time>
      </trkpt>
      <trkpt lat="45.51776" lon="2.9343">
        <ele>1050.999894</ele>
        <time>2021-07-07T13:50:42+0200</time>
      </trkpt>
      <trkpt lat="45.51768" lon="2.93429">
        <ele>1050.315332</ele>
        <time>2021-07-07T13:50:43+0200</time>
      </trkpt>
      <trkpt lat="45.51764" lon="2.93428">
        <ele>1049.589031</ele>
        <time>2021-07-07T13:50:44+0200</time>
      </trkpt>
      <trkpt lat="45.51758" lon="2.93425">
        <ele>1048.621748</ele>
        <time>2021-07-07T13:50:45+0200</time>
      </trkpt>
      <trkpt lat="45.51753" lon="2.93417">
        <ele>1047.938549</ele>
        <time>2021-07-07T13:50:47+0200</time>
      </trkpt>
      <trkpt lat="45.51749" lon="2.93413">
        <ele>1047.365009</ele>
        <time>2021-07-07T13:50:48+0200</time>
      </trkpt>
      <trkpt lat="45.51741" lon="2.93405">
        <ele>1046.819167</ele>
        <time>2021-07-07T13:50:50+0200</time>
      </trkpt>
      <trkpt lat="45.51736" lon="2.93401">
        <ele>1046.279423</ele>
        <time>2021-07-07T13:50:51+0200</time>
      </trkpt>
      <trkpt lat="45.51731" lon="2.93396">
        <ele>1045.827817</ele>
        <time>2021-07-07T13:50:52+0200</time>
      </trkpt>
      <trkpt lat="45.51726" lon="2.9339">
        <ele>1045.848232</ele>
        <time>2021-07-07T13:50:53+0200</time>
      </trkpt>
      <trkpt lat="45.51721" lon="2.93386">
        <ele>1045.736183</ele>
        <time>2021-07-07T13:50:54+0200</time>
      </trkpt>
      <trkpt lat="45.51715" lon="2.93382">
        <ele>1045.674337</ele>
        <time>2021-07-07T13:50:55+0200</time>
      </trkpt>
      <trkpt lat="45.51709" lon="2.93377">
        <ele>1045.382303</ele>
        <time>2021-07-07T13:50:56+0200</time>
      </trkpt>
      <trkpt lat="45.51705" lon="2.93372">
        <ele>1045.431683</ele>
        <time>2021-07-07T13:50:57+0200</time>
      </trkpt>
      <trkpt lat="45.51699" lon="2.93367">
        <ele>1045.377546</ele>
        <time>2021-07-07T13:50:58+0200</time>
      </trkpt>
      <trkpt lat="45.51694" lon="2.93362">
        <ele>1045.471967</ele>
        <time>2021-07-07T13:50:59+0200</time>
      </trkpt>
      <trkpt lat="45.51688" lon="2.93356">
        <ele>1045.321559</ele>
        <time>2021-07-07T13:51:00+0200</time>
      </trkpt>
      <trkpt lat="45.51683" lon="2.93351">
        <ele>1044.77848</ele>
        <time>2021-07-07T13:51:01+0200</time>
      </trkpt>
      <trkpt lat="45.51677" lon="2.93347">
        <ele>1043.986614</ele>
        <time>2021-07-07T13:51:02+0200</time>
      </trkpt>
      <trkpt lat="45.51672" lon="2.93341">
        <ele>1044.06115</ele>
        <time>2021-07-07T13:51:03+0200</time>
      </trkpt>
      <trkpt lat="45.51665" lon="2.93337">
        <ele>1043.784381</ele>
        <time>2021-07-07T13:51:04+0200</time>
      </trkpt>
      <trkpt lat="45.5166" lon="2.93333">
        <ele>1043.743361</ele>
        <time>2021-07-07T13:51:05+0200</time>
      </trkpt>
      <trkpt lat="45.51652" lon="2.93331">
        <ele>1044.51832</ele>
        <time>2021-07-07T13:51:07+0200</time>
      </trkpt>
      <trkpt lat="45.51651" lon="2.93325">
        <ele>1044.271964</ele>
        <time>2021-07-07T13:51:09+0200</time>
      </trkpt>
      <trkpt lat="45.51652" lon="2.93318">
        <ele>1044.893176</ele>
        <time>2021-07-07T13:51:47+0200</time>
      </trkpt>
      <trkpt lat="45.51645" lon="2.93317">
        <ele>1044.068724</ele>
        <time>2021-07-07T13:51:51+0200</time>
      </trkpt>
      <trkpt lat="45.51638" lon="2.93321">
        <ele>1046.208327</ele>
        <time>2021-07-07T13:51:53+0200</time>
      </trkpt>
      <trkpt lat="45.51629" lon="2.93317">
        <ele>1045.07013</ele>
        <time>2021-07-07T13:51:55+0200</time>
      </trkpt>
      <trkpt lat="45.51621" lon="2.93316">
        <ele>1043.655129</ele>
        <time>2021-07-07T13:51:57+0200</time>
      </trkpt>
      <trkpt lat="45.51613" lon="2.93314">
        <ele>1042.073725</ele>
        <time>2021-07-07T13:51:59+0200</time>
      </trkpt>
      <trkpt lat="45.51608" lon="2.93313">
        <ele>1041.421906</ele>
        <time>2021-07-07T13:52:00+0200</time>
      </trkpt>
      <trkpt lat="45.516" lon="2.93308">
        <ele>1040.450145</ele>
        <time>2021-07-07T13:52:02+0200</time>
      </trkpt>
      <trkpt lat="45.51596" lon="2.93307">
        <ele>1038.084139</ele>
        <time>2021-07-07T13:52:03+0200</time>
      </trkpt>
      <trkpt lat="45.51591" lon="2.93304">
        <ele>1037.375697</ele>
        <time>2021-07-07T13:52:04+0200</time>
      </trkpt>
      <trkpt lat="45.51585" lon="2.933">
        <ele>1036.897002</ele>
        <time>2021-07-07T13:52:05+0200</time>
      </trkpt>
      <trkpt lat="45.51582" lon="2.93295">
        <ele>1036.501806</ele>
        <time>2021-07-07T13:52:06+0200</time>
      </trkpt>
      <trkpt lat="45.51579" lon="2.93288">
        <ele>1036.605101</ele>
        <time>2021-07-07T13:52:07+0200</time>
      </trkpt>
      <trkpt lat="45.51576" lon="2.93282">
        <ele>1036.655939</ele>
        <time>2021-07-07T13:52:08+0200</time>
      </trkpt>
      <trkpt lat="45.51575" lon="2.93273">
        <ele>1036.133878</ele>
        <time>2021-07-07T13:52:10+0200</time>
      </trkpt>
      <trkpt lat="45.51571" lon="2.9327">
        <ele>1035.973032</ele>
        <time>2021-07-07T13:52:14+0200</time>
      </trkpt>
      <trkpt lat="45.51573" lon="2.93262">
        <ele>1036.115379</ele>
        <time>2021-07-07T13:52:17+0200</time>
      </trkpt>
      <trkpt lat="45.51572" lon="2.93255">
        <ele>1037.052728</ele>
        <time>2021-07-07T13:52:21+0200</time>
      </trkpt>
      <trkpt lat="45.51567" lon="2.93257">
        <ele>1037.066885</ele>
        <time>2021-07-07T13:52:47+0200</time>
      </trkpt>
      <trkpt lat="45.51569" lon="2.93265">
        <ele>1037.152864</ele>
        <time>2021-07-07T13:52:49+0200</time>
      </trkpt>
      <trkpt lat="45.51572" lon="2.93273">
        <ele>1037.3676</ele>
        <time>2021-07-07T13:52:51+0200</time>
      </trkpt>
      <trkpt lat="45.51575" lon="2.9328">
        <ele>1037.268231</ele>
        <time>2021-07-07T13:52:53+0200</time>
      </trkpt>
      <trkpt lat="45.5157" lon="2.93277">
        <ele>1036.023</ele>
        <time>2021-07-07T13:52:57+0200</time>
      </trkpt>
      <trkpt lat="45.51567" lon="2.93272">
        <ele>1035.237525</ele>
        <time>2021-07-07T13:52:59+0200</time>
      </trkpt>
      <trkpt lat="45.51565" lon="2.93263">
        <ele>1034.328139</ele>
        <time>2021-07-07T13:53:01+0200</time>
      </trkpt>
      <trkpt lat="45.51562" lon="2.93258">
        <ele>1034.228912</ele>
        <time>2021-07-07T13:53:02+0200</time>
      </trkpt>
      <trkpt lat="45.51561" lon="2.93251">
        <ele>1033.83667</ele>
        <time>2021-07-07T13:53:03+0200</time>
      </trkpt>
      <trkpt lat="45.51559" lon="2.93243">
        <ele>1033.019142</ele>
        <time>2021-07-07T13:53:04+0200</time>
      </trkpt>
      <trkpt lat="45.51556" lon="2.93235">
        <ele>1032.996514</ele>
        <time>2021-07-07T13:53:05+0200</time>
      </trkpt>
      <trkpt lat="45.51553" lon="2.93228">
        <ele>1032.817385</ele>
        <time>2021-07-07T13:53:06+0200</time>
      </trkpt>
      <trkpt lat="45.51551" lon="2.9322">
        <ele>1032.262502</ele>
        <time>2021-07-07T13:53:07+0200</time>
      </trkpt>
      <trkpt lat="45.51549" lon="2.93212">
        <ele>1032.21774</ele>
        <time>2021-07-07T13:53:08+0200</time>
      </trkpt>
      <trkpt lat="45.51548" lon="2.93206">
        <ele>1032.237001</ele>
        <time>2021-07-07T13:53:09+0200</time>
      </trkpt>
      <trkpt lat="45.51547" lon="2.93199">
        <ele>1031.369293</ele>
        <time>2021-07-07T13:53:11+0200</time>
      </trkpt>
      <trkpt lat="45.51541" lon="2.93193">
        <ele>1031.267488</ele>
        <time>2021-07-07T13:53:13+0200</time>
      </trkpt>
      <trkpt lat="45.51535" lon="2.93193">
        <ele>1030.892558</ele>
        <time>2021-07-07T13:53:14+0200</time>
      </trkpt>
      <trkpt lat="45.5153" lon="2.93194">
        <ele>1029.960908</ele>
        <time>2021-07-07T13:53:15+0200</time>
      </trkpt>
      <trkpt lat="45.51522" lon="2.93195">
        <ele>1027.791436</ele>
        <time>2021-07-07T13:53:17+0200</time>
      </trkpt>
      <trkpt lat="45.5152" lon="2.93189">
        <ele>1026.781338</ele>
        <time>2021-07-07T13:53:18+0200</time>
      </trkpt>
      <trkpt lat="45.51517" lon="2.93176">
        <ele>1025.026114</ele>
        <time>2021-07-07T13:53:20+0200</time>
      </trkpt>
      <trkpt lat="45.51514" lon="2.93167">
        <ele>1023.972306</ele>
        <time>2021-07-07T13:53:21+0200</time>
      </trkpt>
      <trkpt lat="45.51512" lon="2.93159">
        <ele>1022.965587</ele>
        <time>2021-07-07T13:53:22+0200</time>
      </trkpt>
      <trkpt lat="45.51509" lon="2.93149">
        <ele>1021.804991</ele>
        <time>2021-07-07T13:53:23+0200</time>
      </trkpt>
      <trkpt lat="45.51505" lon="2.9314">
        <ele>1020.69297</ele>
        <time>2021-07-07T13:53:24+0200</time>
      </trkpt>
      <trkpt lat="45.51504" lon="2.93131">
        <ele>1019.433421</ele>
        <time>2021-07-07T13:53:25+0200</time>
      </trkpt>
      <trkpt lat="45.51504" lon="2.93121">
        <ele>1018.679443</ele>
        <time>2021-07-07T13:53:26+0200</time>
      </trkpt>
      <trkpt lat="45.51503" lon="2.93112">
        <ele>1018.098929</ele>
        <time>2021-07-07T13:53:27+0200</time>
      </trkpt>
      <trkpt lat="45.51503" lon="2.93103">
        <ele>1017.699574</ele>
        <time>2021-07-07T13:53:28+0200</time>
      </trkpt>
      <trkpt lat="45.515" lon="2.93094">
        <ele>1018.084288</ele>
        <time>2021-07-07T13:53:29+0200</time>
      </trkpt>
      <trkpt lat="45.51495" lon="2.9309">
        <ele>1017.676879</ele>
        <time>2021-07-07T13:53:33+0200</time>
      </trkpt>
      <trkpt lat="45.51495" lon="2.93083">
        <ele>1017.871184</ele>
        <time>2021-07-07T13:53:39+0200</time>
      </trkpt>
      <trkpt lat="45.51495" lon="2.93076">
        <ele>1017.33369</ele>
        <time>2021-07-07T13:54:29+0200</time>
      </trkpt>
      <trkpt lat="45.51495" lon="2.93068">
        <ele>1017.78887</ele>
        <time>2021-07-07T13:54:32+0200</time>
      </trkpt>
      <trkpt lat="45.51497" lon="2.93061">
        <ele>1018.573147</ele>
        <time>2021-07-07T13:54:34+0200</time>
      </trkpt>
      <trkpt lat="45.51496" lon="2.9305">
        <ele>1019.001243</ele>
        <time>2021-07-07T13:54:38+0200</time>
      </trkpt>
      <trkpt lat="45.51495" lon="2.93043">
        <ele>1019.11226</ele>
        <time>2021-07-07T13:54:40+0200</time>
      </trkpt>
      <trkpt lat="45.51492" lon="2.93034">
        <ele>1020.647556</ele>
        <time>2021-07-07T13:54:43+0200</time>
      </trkpt>
      <trkpt lat="45.5149" lon="2.93029">
        <ele>1021.349928</ele>
        <time>2021-07-07T13:54:45+0200</time>
      </trkpt>
      <trkpt lat="45.51488" lon="2.93021">
        <ele>1020.902959</ele>
        <time>2021-07-07T13:54:47+0200</time>
      </trkpt>
      <trkpt lat="45.51487" lon="2.93012">
        <ele>1020.271179</ele>
        <time>2021-07-07T13:54:49+0200</time>
      </trkpt>
      <trkpt lat="45.51487" lon="2.93005">
        <ele>1020.258398</ele>
        <time>2021-07-07T13:54:50+0200</time>
      </trkpt>
      <trkpt lat="45.51486" lon="2.92993">
        <ele>1021.271526</ele>
        <time>2021-07-07T13:54:52+0200</time>
      </trkpt>
      <trkpt lat="45.51484" lon="2.92987">
        <ele>1021.527729</ele>
        <time>2021-07-07T13:54:53+0200</time>
      </trkpt>
      <trkpt lat="45.51483" lon="2.92975">
        <ele>1021.924992</ele>
        <time>2021-07-07T13:54:55+0200</time>
      </trkpt>
      <trkpt lat="45.51483" lon="2.92965">
        <ele>1021.601035</ele>
        <time>2021-07-07T13:54:57+0200</time>
      </trkpt>
      <trkpt lat="45.51484" lon="2.92955">
        <ele>1020.576925</ele>
        <time>2021-07-07T13:54:59+0200</time>
      </trkpt>
      <trkpt lat="45.51486" lon="2.92944">
        <ele>1020.074478</ele>
        <time>2021-07-07T13:55:01+0200</time>
      </trkpt>
      <trkpt lat="45.51486" lon="2.92936">
        <ele>1019.713651</ele>
        <time>2021-07-07T13:55:03+0200</time>
      </trkpt>
      <trkpt lat="45.51487" lon="2.92928">
        <ele>1018.580634</ele>
        <time>2021-07-07T13:55:05+0200</time>
      </trkpt>
      <trkpt lat="45.51488" lon="2.92919">
        <ele>1019.239807</ele>
        <time>2021-07-07T13:55:08+0200</time>
      </trkpt>
      <trkpt lat="45.51489" lon="2.92913">
        <ele>1019.176249</ele>
        <time>2021-07-07T13:55:10+0200</time>
      </trkpt>
      <trkpt lat="45.5149" lon="2.92904">
        <ele>1018.774901</ele>
        <time>2021-07-07T13:55:13+0200</time>
      </trkpt>
      <trkpt lat="45.51488" lon="2.92895">
        <ele>1019.058997</ele>
        <time>2021-07-07T13:55:16+0200</time>
      </trkpt>
      <trkpt lat="45.51483" lon="2.92892">
        <ele>1018.782732</ele>
        <time>2021-07-07T13:55:18+0200</time>
      </trkpt>
      <trkpt lat="45.51478" lon="2.92891">
        <ele>1018.31713</ele>
        <time>2021-07-07T13:55:20+0200</time>
      </trkpt>
      <trkpt lat="45.51472" lon="2.92894">
        <ele>1018.381744</ele>
        <time>2021-07-07T13:55:22+0200</time>
      </trkpt>
      <trkpt lat="45.51465" lon="2.92896">
        <ele>1018.527186</ele>
        <time>2021-07-07T13:55:24+0200</time>
      </trkpt>
      <trkpt lat="45.51459" lon="2.92899">
        <ele>1018.588348</ele>
        <time>2021-07-07T13:55:26+0200</time>
      </trkpt>
      <trkpt lat="45.51452" lon="2.92901">
        <ele>1018.901804</ele>
        <time>2021-07-07T13:55:28+0200</time>
      </trkpt>
      <trkpt lat="45.51444" lon="2.92902">
        <ele>1018.981723</ele>
        <time>2021-07-07T13:55:30+0200</time>
      </trkpt>
      <trkpt lat="45.51437" lon="2.929">
        <ele>1018.736418</ele>
        <time>2021-07-07T13:55:32+0200</time>
      </trkpt>
      <trkpt lat="45.5143" lon="2.92897">
        <ele>1018.244841</ele>
        <time>2021-07-07T13:55:34+0200</time>
      </trkpt>
      <trkpt lat="45.51423" lon="2.92895">
        <ele>1018.118756</ele>
        <time>2021-07-07T13:55:36+0200</time>
      </trkpt>
      <trkpt lat="45.51416" lon="2.92893">
        <ele>1018.495905</ele>
        <time>2021-07-07T13:55:38+0200</time>
      </trkpt>
      <trkpt lat="45.5141" lon="2.92891">
        <ele>1018.662762</ele>
        <time>2021-07-07T13:55:40+0200</time>
      </trkpt>
      <trkpt lat="45.51404" lon="2.92889">
        <ele>1018.207978</ele>
        <time>2021-07-07T13:55:42+0200</time>
      </trkpt>
      <trkpt lat="45.51398" lon="2.92885">
        <ele>1017.424408</ele>
        <time>2021-07-07T13:55:44+0200</time>
      </trkpt>
      <trkpt lat="45.51394" lon="2.92889">
        <ele>1017.361835</ele>
        <time>2021-07-07T13:55:46+0200</time>
      </trkpt>
      <trkpt lat="45.51392" lon="2.92899">
        <ele>1017.973389</ele>
        <time>2021-07-07T13:55:48+0200</time>
      </trkpt>
      <trkpt lat="45.51391" lon="2.92911">
        <ele>1017.62615</ele>
        <time>2021-07-07T13:55:50+0200</time>
      </trkpt>
      <trkpt lat="45.51389" lon="2.92917">
        <ele>1017.574142</ele>
        <time>2021-07-07T13:55:51+0200</time>
      </trkpt>
      <trkpt lat="45.51388" lon="2.92929">
        <ele>1017.496013</ele>
        <time>2021-07-07T13:55:53+0200</time>
      </trkpt>
      <trkpt lat="45.51387" lon="2.92936">
        <ele>1017.85658</ele>
        <time>2021-07-07T13:55:54+0200</time>
      </trkpt>
      <trkpt lat="45.51387" lon="2.92942">
        <ele>1018.175006</ele>
        <time>2021-07-07T13:55:55+0200</time>
      </trkpt>
      <trkpt lat="45.51386" lon="2.92949">
        <ele>1018.184367</ele>
        <time>2021-07-07T13:55:56+0200</time>
      </trkpt>
      <trkpt lat="45.51383" lon="2.92961">
        <ele>1018.06525</ele>
        <time>2021-07-07T13:55:58+0200</time>
      </trkpt>
      <trkpt lat="45.51383" lon="2.92968">
        <ele>1018.267705</ele>
        <time>2021-07-07T13:55:59+0200</time>
      </trkpt>
      <trkpt lat="45.51382" lon="2.92974">
        <ele>1018.264713</ele>
        <time>2021-07-07T13:56:00+0200</time>
      </trkpt>
      <trkpt lat="45.51381" lon="2.92981">
        <ele>1018.343521</ele>
        <time>2021-07-07T13:56:01+0200</time>
      </trkpt>
      <trkpt lat="45.51381" lon="2.92994">
        <ele>1018.528371</ele>
        <time>2021-07-07T13:56:03+0200</time>
      </trkpt>
      <trkpt lat="45.5138" lon="2.93">
        <ele>1018.186656</ele>
        <time>2021-07-07T13:56:04+0200</time>
      </trkpt>
      <trkpt lat="45.51379" lon="2.93007">
        <ele>1018.004363</ele>
        <time>2021-07-07T13:56:05+0200</time>
      </trkpt>
      <trkpt lat="45.51377" lon="2.93019">
        <ele>1017.607896</ele>
        <time>2021-07-07T13:56:07+0200</time>
      </trkpt>
      <trkpt lat="45.51376" lon="2.9303">
        <ele>1017.449596</ele>
        <time>2021-07-07T13:56:09+0200</time>
      </trkpt>
      <trkpt lat="45.51375" lon="2.9304">
        <ele>1018.98881</ele>
        <time>2021-07-07T13:56:11+0200</time>
      </trkpt>
      <trkpt lat="45.51373" lon="2.93049">
        <ele>1020.215151</ele>
        <time>2021-07-07T13:56:13+0200</time>
      </trkpt>
      <trkpt lat="45.51369" lon="2.93058">
        <ele>1019.531905</ele>
        <time>2021-07-07T13:56:15+0200</time>
      </trkpt>
      <trkpt lat="45.51368" lon="2.9307">
        <ele>1018.64192</ele>
        <time>2021-07-07T13:56:17+0200</time>
      </trkpt>
      <trkpt lat="45.51365" lon="2.9308">
        <ele>1018.304829</ele>
        <time>2021-07-07T13:56:19+0200</time>
      </trkpt>
      <trkpt lat="45.51362" lon="2.9309">
        <ele>1018.522027</ele>
        <time>2021-07-07T13:56:21+0200</time>
      </trkpt>
      <trkpt lat="45.51358" lon="2.93097">
        <ele>1018.527292</ele>
        <time>2021-07-07T13:56:23+0200</time>
      </trkpt>
      <trkpt lat="45.51356" lon="2.93104">
        <ele>1019.078811</ele>
        <time>2021-07-07T13:56:25+0200</time>
      </trkpt>
      <trkpt lat="45.51353" lon="2.93111">
        <ele>1018.973017</ele>
        <time>2021-07-07T13:56:27+0200</time>
      </trkpt>
      <trkpt lat="45.5135" lon="2.9312">
        <ele>1019.19989</ele>
        <time>2021-07-07T13:56:29+0200</time>
      </trkpt>
      <trkpt lat="45.51345" lon="2.93127">
        <ele>1019.724629</ele>
        <time>2021-07-07T13:56:31+0200</time>
      </trkpt>
      <trkpt lat="45.51341" lon="2.93133">
        <ele>1020.458894</ele>
        <time>2021-07-07T13:56:33+0200</time>
      </trkpt>
      <trkpt lat="45.51336" lon="2.93137">
        <ele>1021.544266</ele>
        <time>2021-07-07T13:56:35+0200</time>
      </trkpt>
      <trkpt lat="45.51331" lon="2.93142">
        <ele>1021.997573</ele>
        <time>2021-07-07T13:56:37+0200</time>
      </trkpt>
      <trkpt lat="45.51326" lon="2.93148">
        <ele>1021.683068</ele>
        <time>2021-07-07T13:56:39+0200</time>
      </trkpt>
      <trkpt lat="45.51321" lon="2.93152">
        <ele>1021.692927</ele>
        <time>2021-07-07T13:56:41+0200</time>
      </trkpt>
      <trkpt lat="45.51317" lon="2.93157">
        <ele>1022.868693</ele>
        <time>2021-07-07T13:56:43+0200</time>
      </trkpt>
      <trkpt lat="45.51313" lon="2.93162">
        <ele>1024.870714</ele>
        <time>2021-07-07T13:56:45+0200</time>
      </trkpt>
      <trkpt lat="45.51314" lon="2.93171">
        <ele>1026.57316</ele>
        <time>2021-07-07T13:56:48+0200</time>
      </trkpt>
      <trkpt lat="45.51315" lon="2.93178">
        <ele>1028.280598</ele>
        <time>2021-07-07T13:56:50+0200</time>
      </trkpt>
      <trkpt lat="45.51315" lon="2.93187">
        <ele>1028.852266</ele>
        <time>2021-07-07T13:56:53+0200</time>
      </trkpt>
      <trkpt lat="45.51313" lon="2.93196">
        <ele>1028.031308</ele>
        <time>2021-07-07T13:56:55+0200</time>
      </trkpt>
      <trkpt lat="45.5131" lon="2.93202">
        <ele>1027.302048</ele>
        <time>2021-07-07T13:56:56+0200</time>
      </trkpt>
      <trkpt lat="45.51307" lon="2.93211">
        <ele>1027.074769</ele>
        <time>2021-07-07T13:56:58+0200</time>
      </trkpt>
      <trkpt lat="45.51305" lon="2.93219">
        <ele>1026.632747</ele>
        <time>2021-07-07T13:57:00+0200</time>
      </trkpt>
      <trkpt lat="45.51302" lon="2.93224">
        <ele>1026.095148</ele>
        <time>2021-07-07T13:57:02+0200</time>
      </trkpt>
      <trkpt lat="45.51298" lon="2.9323">
        <ele>1026.594143</ele>
        <time>2021-07-07T13:57:04+0200</time>
      </trkpt>
      <trkpt lat="45.51297" lon="2.93237">
        <ele>1028.18598</ele>
        <time>2021-07-07T13:57:07+0200</time>
      </trkpt>
      <trkpt lat="45.51296" lon="2.93246">
        <ele>1027.53529</ele>
        <time>2021-07-07T13:57:09+0200</time>
      </trkpt>
      <trkpt lat="45.51296" lon="2.93253">
        <ele>1027.161773</ele>
        <time>2021-07-07T13:57:11+0200</time>
      </trkpt>
      <trkpt lat="45.51292" lon="2.93259">
        <ele>1026.124896</ele>
        <time>2021-07-07T13:57:14+0200</time>
      </trkpt>
      <trkpt lat="45.51287" lon="2.93258">
        <ele>1027.540999</ele>
        <time>2021-07-07T13:57:18+0200</time>
      </trkpt>
      <trkpt lat="45.51284" lon="2.93252">
        <ele>1029.709934</ele>
        <time>2021-07-07T13:57:21+0200</time>
      </trkpt>
      <trkpt lat="45.51281" lon="2.93246">
        <ele>1030.506084</ele>
        <time>2021-07-07T13:57:24+0200</time>
      </trkpt>
      <trkpt lat="45.51277" lon="2.9324">
        <ele>1031.430031</ele>
        <time>2021-07-07T13:57:27+0200</time>
      </trkpt>
      <trkpt lat="45.51272" lon="2.93235">
        <ele>1031.377401</ele>
        <time>2021-07-07T13:57:30+0200</time>
      </trkpt>
      <trkpt lat="45.51267" lon="2.93233">
        <ele>1031.987336</ele>
        <time>2021-07-07T13:57:33+0200</time>
      </trkpt>
      <trkpt lat="45.51262" lon="2.93232">
        <ele>1032.144396</ele>
        <time>2021-07-07T13:57:35+0200</time>
      </trkpt>
      <trkpt lat="45.51257" lon="2.93232">
        <ele>1033.175625</ele>
        <time>2021-07-07T13:57:37+0200</time>
      </trkpt>
      <trkpt lat="45.51252" lon="2.93228">
        <ele>1033.779059</ele>
        <time>2021-07-07T13:57:39+0200</time>
      </trkpt>
      <trkpt lat="45.51246" lon="2.93227">
        <ele>1034.540409</ele>
        <time>2021-07-07T13:57:42+0200</time>
      </trkpt>
      <trkpt lat="45.51239" lon="2.93226">
        <ele>1034.754674</ele>
        <time>2021-07-07T13:57:45+0200</time>
      </trkpt>
      <trkpt lat="45.51235" lon="2.93223">
        <ele>1034.562037</ele>
        <time>2021-07-07T13:57:48+0200</time>
      </trkpt>
      <trkpt lat="45.51229" lon="2.93222">
        <ele>1035.894197</ele>
        <time>2021-07-07T13:57:52+0200</time>
      </trkpt>
      <trkpt lat="45.51225" lon="2.93219">
        <ele>1037.390339</ele>
        <time>2021-07-07T13:57:55+0200</time>
      </trkpt>
      <trkpt lat="45.51219" lon="2.93218">
        <ele>1036.895816</ele>
        <time>2021-07-07T13:57:58+0200</time>
      </trkpt>
      <trkpt lat="45.51214" lon="2.93216">
        <ele>1036.973326</ele>
        <time>2021-07-07T13:58:01+0200</time>
      </trkpt>
      <trkpt lat="45.51209" lon="2.93214">
        <ele>1037.764334</ele>
        <time>2021-07-07T13:58:03+0200</time>
      </trkpt>
      <trkpt lat="45.51205" lon="2.93211">
        <ele>1038.87777</ele>
        <time>2021-07-07T13:58:05+0200</time>
      </trkpt>
      <trkpt lat="45.512" lon="2.93208">
        <ele>1040.213849</ele>
        <time>2021-07-07T13:58:08+0200</time>
      </trkpt>
      <trkpt lat="45.51194" lon="2.93207">
        <ele>1041.288699</ele>
        <time>2021-07-07T13:58:11+0200</time>
      </trkpt>
      <trkpt lat="45.5119" lon="2.93204">
        <ele>1041.704304</ele>
        <time>2021-07-07T13:58:13+0200</time>
      </trkpt>
      <trkpt lat="45.51184" lon="2.93202">
        <ele>1042.056384</ele>
        <time>2021-07-07T13:58:16+0200</time>
      </trkpt>
      <trkpt lat="45.51178" lon="2.93201">
        <ele>1042.30801</ele>
        <time>2021-07-07T13:58:19+0200</time>
      </trkpt>
      <trkpt lat="45.51173" lon="2.93201">
        <ele>1042.641854</ele>
        <time>2021-07-07T13:58:21+0200</time>
      </trkpt>
      <trkpt lat="45.51169" lon="2.93201">
        <ele>1042.803691</ele>
        <time>2021-07-07T13:58:23+0200</time>
      </trkpt>
      <trkpt lat="45.51162" lon="2.93198">
        <ele>1042.79296</ele>
        <time>2021-07-07T13:58:26+0200</time>
      </trkpt>
      <trkpt lat="45.51157" lon="2.93198">
        <ele>1044.059811</ele>
        <time>2021-07-07T13:58:29+0200</time>
      </trkpt>
      <trkpt lat="45.51152" lon="2.93197">
        <ele>1043.608759</ele>
        <time>2021-07-07T13:58:32+0200</time>
      </trkpt>
      <trkpt lat="45.51147" lon="2.93202">
        <ele>1044.130881</ele>
        <time>2021-07-07T13:58:35+0200</time>
      </trkpt>
      <trkpt lat="45.51144" lon="2.93207">
        <ele>1044.160072</ele>
        <time>2021-07-07T13:58:37+0200</time>
      </trkpt>
      <trkpt lat="45.51139" lon="2.93211">
        <ele>1043.370298</ele>
        <time>2021-07-07T13:58:39+0200</time>
      </trkpt>
      <trkpt lat="45.51134" lon="2.93216">
        <ele>1043.124399</ele>
        <time>2021-07-07T13:58:42+0200</time>
      </trkpt>
      <trkpt lat="45.5113" lon="2.93214">
        <ele>1044.569534</ele>
        <time>2021-07-07T13:59:21+0200</time>
      </trkpt>
      <trkpt lat="45.51129" lon="2.93221">
        <ele>1043.086802</ele>
        <time>2021-07-07T14:00:02+0200</time>
      </trkpt>
      <trkpt lat="45.51126" lon="2.93229">
        <ele>1043.052787</ele>
        <time>2021-07-07T14:00:06+0200</time>
      </trkpt>
      <trkpt lat="45.51121" lon="2.93235">
        <ele>1043.756069</ele>
        <time>2021-07-07T14:00:09+0200</time>
      </trkpt>
      <trkpt lat="45.51117" lon="2.93241">
        <ele>1043.693138</ele>
        <time>2021-07-07T14:00:11+0200</time>
      </trkpt>
      <trkpt lat="45.51114" lon="2.93247">
        <ele>1043.753224</ele>
        <time>2021-07-07T14:00:13+0200</time>
      </trkpt>
      <trkpt lat="45.51108" lon="2.93247">
        <ele>1043.726576</ele>
        <time>2021-07-07T14:00:14+0200</time>
      </trkpt>
      <trkpt lat="45.51102" lon="2.93246">
        <ele>1044.79885</ele>
        <time>2021-07-07T14:00:17+0200</time>
      </trkpt>
      <trkpt lat="45.51097" lon="2.9324">
        <ele>1044.414837</ele>
        <time>2021-07-07T14:00:20+0200</time>
      </trkpt>
      <trkpt lat="45.51091" lon="2.93236">
        <ele>1044.257819</ele>
        <time>2021-07-07T14:00:22+0200</time>
      </trkpt>
      <trkpt lat="45.51087" lon="2.93232">
        <ele>1043.73777</ele>
        <time>2021-07-07T14:00:24+0200</time>
      </trkpt>
      <trkpt lat="45.51084" lon="2.93226">
        <ele>1043.715915</ele>
        <time>2021-07-07T14:00:26+0200</time>
      </trkpt>
      <trkpt lat="45.51079" lon="2.9322">
        <ele>1044.417155</ele>
        <time>2021-07-07T14:00:28+0200</time>
      </trkpt>
      <trkpt lat="45.51076" lon="2.93215">
        <ele>1044.086972</ele>
        <time>2021-07-07T14:00:30+0200</time>
      </trkpt>
      <trkpt lat="45.51073" lon="2.93209">
        <ele>1044.176987</ele>
        <time>2021-07-07T14:00:32+0200</time>
      </trkpt>
      <trkpt lat="45.51068" lon="2.93204">
        <ele>1044.508728</ele>
        <time>2021-07-07T14:00:34+0200</time>
      </trkpt>
      <trkpt lat="45.51065" lon="2.93199">
        <ele>1045.120165</ele>
        <time>2021-07-07T14:00:36+0200</time>
      </trkpt>
      <trkpt lat="45.51062" lon="2.93193">
        <ele>1046.41673</ele>
        <time>2021-07-07T14:00:38+0200</time>
      </trkpt>
      <trkpt lat="45.51057" lon="2.9319">
        <ele>1047.488952</ele>
        <time>2021-07-07T14:00:40+0200</time>
      </trkpt>
      <trkpt lat="45.51053" lon="2.93185">
        <ele>1048.41601</ele>
        <time>2021-07-07T14:00:42+0200</time>
      </trkpt>
      <trkpt lat="45.51048" lon="2.93181">
        <ele>1048.799475</ele>
        <time>2021-07-07T14:00:45+0200</time>
      </trkpt>
      <trkpt lat="45.51045" lon="2.93176">
        <ele>1049.31319</ele>
        <time>2021-07-07T14:00:48+0200</time>
      </trkpt>
      <trkpt lat="45.51042" lon="2.93168">
        <ele>1049.452592</ele>
        <time>2021-07-07T14:00:50+0200</time>
      </trkpt>
      <trkpt lat="45.51036" lon="2.93163">
        <ele>1048.873775</ele>
        <time>2021-07-07T14:00:53+0200</time>
      </trkpt>
      <trkpt lat="45.51031" lon="2.93165">
        <ele>1048.767695</ele>
        <time>2021-07-07T14:00:55+0200</time>
      </trkpt>
      <trkpt lat="45.51027" lon="2.9317">
        <ele>1049.508634</ele>
        <time>2021-07-07T14:00:57+0200</time>
      </trkpt>
      <trkpt lat="45.51024" lon="2.93179">
        <ele>1050.04121</ele>
        <time>2021-07-07T14:00:59+0200</time>
      </trkpt>
      <trkpt lat="45.51021" lon="2.9319">
        <ele>1049.172055</ele>
        <time>2021-07-07T14:01:01+0200</time>
      </trkpt>
      <trkpt lat="45.51018" lon="2.932">
        <ele>1049.568438</ele>
        <time>2021-07-07T14:01:03+0200</time>
      </trkpt>
      <trkpt lat="45.51014" lon="2.93211">
        <ele>1049.154697</ele>
        <time>2021-07-07T14:01:05+0200</time>
      </trkpt>
      <trkpt lat="45.51012" lon="2.93217">
        <ele>1048.635217</ele>
        <time>2021-07-07T14:01:06+0200</time>
      </trkpt>
      <trkpt lat="45.51009" lon="2.93223">
        <ele>1048.562913</ele>
        <time>2021-07-07T14:01:07+0200</time>
      </trkpt>
      <trkpt lat="45.51007" lon="2.93229">
        <ele>1048.246145</ele>
        <time>2021-07-07T14:01:08+0200</time>
      </trkpt>
      <trkpt lat="45.51001" lon="2.93236">
        <ele>1047.709375</ele>
        <time>2021-07-07T14:01:10+0200</time>
      </trkpt>
      <trkpt lat="45.50999" lon="2.93246">
        <ele>1046.901244</ele>
        <time>2021-07-07T14:01:12+0200</time>
      </trkpt>
      <trkpt lat="45.50994" lon="2.93257">
        <ele>1046.256862</ele>
        <time>2021-07-07T14:01:14+0200</time>
      </trkpt>
      <trkpt lat="45.50992" lon="2.93264">
        <ele>1046.029077</ele>
        <time>2021-07-07T14:01:15+0200</time>
      </trkpt>
      <trkpt lat="45.50989" lon="2.9327">
        <ele>1045.983306</ele>
        <time>2021-07-07T14:01:16+0200</time>
      </trkpt>
      <trkpt lat="45.50987" lon="2.93278">
        <ele>1045.881331</ele>
        <time>2021-07-07T14:01:17+0200</time>
      </trkpt>
      <trkpt lat="45.50986" lon="2.93286">
        <ele>1045.709696</ele>
        <time>2021-07-07T14:01:18+0200</time>
      </trkpt>
      <trkpt lat="45.50984" lon="2.93295">
        <ele>1045.687439</ele>
        <time>2021-07-07T14:01:19+0200</time>
      </trkpt>
      <trkpt lat="45.50982" lon="2.93305">
        <ele>1045.780253</ele>
        <time>2021-07-07T14:01:20+0200</time>
      </trkpt>
      <trkpt lat="45.50981" lon="2.93314">
        <ele>1044.842926</ele>
        <time>2021-07-07T14:01:21+0200</time>
      </trkpt>
      <trkpt lat="45.5098" lon="2.93325">
        <ele>1044.505756</ele>
        <time>2021-07-07T14:01:22+0200</time>
      </trkpt>
      <trkpt lat="45.50978" lon="2.93335">
        <ele>1043.876447</ele>
        <time>2021-07-07T14:01:23+0200</time>
      </trkpt>
      <trkpt lat="45.50978" lon="2.93346">
        <ele>1043.624807</ele>
        <time>2021-07-07T14:01:24+0200</time>
      </trkpt>
      <trkpt lat="45.50976" lon="2.93356">
        <ele>1043.260645</ele>
        <time>2021-07-07T14:01:25+0200</time>
      </trkpt>
      <trkpt lat="45.50975" lon="2.93368">
        <ele>1042.916578</ele>
        <time>2021-07-07T14:01:26+0200</time>
      </trkpt>
      <trkpt lat="45.50973" lon="2.9338">
        <ele>1042.427024</ele>
        <time>2021-07-07T14:01:27+0200</time>
      </trkpt>
      <trkpt lat="45.50971" lon="2.93391">
        <ele>1042.29982</ele>
        <time>2021-07-07T14:01:28+0200</time>
      </trkpt>
      <trkpt lat="45.5097" lon="2.93402">
        <ele>1042.033388</ele>
        <time>2021-07-07T14:01:29+0200</time>
      </trkpt>
      <trkpt lat="45.5097" lon="2.93411">
        <ele>1041.593931</ele>
        <time>2021-07-07T14:01:30+0200</time>
      </trkpt>
      <trkpt lat="45.5097" lon="2.93419">
        <ele>1041.303368</ele>
        <time>2021-07-07T14:01:31+0200</time>
      </trkpt>
      <trkpt lat="45.50968" lon="2.93425">
        <ele>1040.759976</ele>
        <time>2021-07-07T14:01:32+0200</time>
      </trkpt>
      <trkpt lat="45.50961" lon="2.9343">
        <ele>1040.226526</ele>
        <time>2021-07-07T14:01:34+0200</time>
      </trkpt>
      <trkpt lat="45.50957" lon="2.93436">
        <ele>1040.667135</ele>
        <time>2021-07-07T14:01:36+0200</time>
      </trkpt>
      <trkpt lat="45.50951" lon="2.93442">
        <ele>1040.658163</ele>
        <time>2021-07-07T14:01:38+0200</time>
      </trkpt>
      <trkpt lat="45.50944" lon="2.93447">
        <ele>1040.297443</ele>
        <time>2021-07-07T14:01:40+0200</time>
      </trkpt>
      <trkpt lat="45.50941" lon="2.93451">
        <ele>1040.883572</ele>
        <time>2021-07-07T14:01:42+0200</time>
      </trkpt>
      <trkpt lat="45.50936" lon="2.93452">
        <ele>1042.328077</ele>
        <time>2021-07-07T14:01:48+0200</time>
      </trkpt>
      <trkpt lat="45.50931" lon="2.93453">
        <ele>1043.660287</ele>
        <time>2021-07-07T14:01:52+0200</time>
      </trkpt>
      <trkpt lat="45.50925" lon="2.93455">
        <ele>1042.004077</ele>
        <time>2021-07-07T14:02:25+0200</time>
      </trkpt>
      <trkpt lat="45.5092" lon="2.93457">
        <ele>1043.882931</ele>
        <time>2021-07-07T14:02:29+0200</time>
      </trkpt>
      <trkpt lat="45.50915" lon="2.93458">
        <ele>1045.215577</ele>
        <time>2021-07-07T14:02:32+0200</time>
      </trkpt>
      <trkpt lat="45.50909" lon="2.93463">
        <ele>1045.959611</ele>
        <time>2021-07-07T14:02:35+0200</time>
      </trkpt>
      <trkpt lat="45.50905" lon="2.93468">
        <ele>1046.425401</ele>
        <time>2021-07-07T14:02:39+0200</time>
      </trkpt>
      <trkpt lat="45.509" lon="2.93471">
        <ele>1046.311475</ele>
        <time>2021-07-07T14:02:42+0200</time>
      </trkpt>
      <trkpt lat="45.50895" lon="2.93475">
        <ele>1045.405504</ele>
        <time>2021-07-07T14:02:45+0200</time>
      </trkpt>
      <trkpt lat="45.50889" lon="2.93478">
        <ele>1045.842467</ele>
        <time>2021-07-07T14:02:48+0200</time>
      </trkpt>
      <trkpt lat="45.50885" lon="2.93483">
        <ele>1046.801741</ele>
        <time>2021-07-07T14:02:51+0200</time>
      </trkpt>
      <trkpt lat="45.50881" lon="2.93485">
        <ele>1047.68107</ele>
        <time>2021-07-07T14:02:54+0200</time>
      </trkpt>
      <trkpt lat="45.50875" lon="2.93488">
        <ele>1048.38475</ele>
        <time>2021-07-07T14:02:57+0200</time>
      </trkpt>
      <trkpt lat="45.5087" lon="2.93492">
        <ele>1048.985395</ele>
        <time>2021-07-07T14:03:00+0200</time>
      </trkpt>
      <trkpt lat="45.50865" lon="2.93496">
        <ele>1050.186302</ele>
        <time>2021-07-07T14:03:03+0200</time>
      </trkpt>
      <trkpt lat="45.50859" lon="2.93499">
        <ele>1050.309606</ele>
        <time>2021-07-07T14:03:06+0200</time>
      </trkpt>
      <trkpt lat="45.50854" lon="2.935">
        <ele>1051.654424</ele>
        <time>2021-07-07T14:03:09+0200</time>
      </trkpt>
      <trkpt lat="45.50847" lon="2.93504">
        <ele>1052.711164</ele>
        <time>2021-07-07T14:03:12+0200</time>
      </trkpt>
      <trkpt lat="45.50842" lon="2.93507">
        <ele>1053.053001</ele>
        <time>2021-07-07T14:03:15+0200</time>
      </trkpt>
      <trkpt lat="45.50838" lon="2.9351">
        <ele>1053.777562</ele>
        <time>2021-07-07T14:03:18+0200</time>
      </trkpt>
      <trkpt lat="45.50832" lon="2.93511">
        <ele>1054.397036</ele>
        <time>2021-07-07T14:03:21+0200</time>
      </trkpt>
      <trkpt lat="45.50827" lon="2.93515">
        <ele>1054.245514</ele>
        <time>2021-07-07T14:03:24+0200</time>
      </trkpt>
      <trkpt lat="45.50821" lon="2.93516">
        <ele>1055.34844</ele>
        <time>2021-07-07T14:03:27+0200</time>
      </trkpt>
      <trkpt lat="45.50817" lon="2.93519">
        <ele>1055.487048</ele>
        <time>2021-07-07T14:03:31+0200</time>
      </trkpt>
      <trkpt lat="45.50811" lon="2.93518">
        <ele>1055.772859</ele>
        <time>2021-07-07T14:03:34+0200</time>
      </trkpt>
      <trkpt lat="45.50807" lon="2.93511">
        <ele>1056.994485</ele>
        <time>2021-07-07T14:03:38+0200</time>
      </trkpt>
      <trkpt lat="45.50806" lon="2.93503">
        <ele>1058.561687</ele>
        <time>2021-07-07T14:03:41+0200</time>
      </trkpt>
      <trkpt lat="45.50804" lon="2.93497">
        <ele>1058.705383</ele>
        <time>2021-07-07T14:03:43+0200</time>
      </trkpt>
      <trkpt lat="45.50803" lon="2.9349">
        <ele>1059.044251</ele>
        <time>2021-07-07T14:03:46+0200</time>
      </trkpt>
      <trkpt lat="45.50801" lon="2.93483">
        <ele>1058.988566</ele>
        <time>2021-07-07T14:03:48+0200</time>
      </trkpt>
      <trkpt lat="45.50799" lon="2.93474">
        <ele>1059.696751</ele>
        <time>2021-07-07T14:03:51+0200</time>
      </trkpt>
      <trkpt lat="45.50797" lon="2.93466">
        <ele>1060.498985</ele>
        <time>2021-07-07T14:03:53+0200</time>
      </trkpt>
      <trkpt lat="45.50796" lon="2.9346">
        <ele>1061.751479</ele>
        <time>2021-07-07T14:03:55+0200</time>
      </trkpt>
      <trkpt lat="45.50793" lon="2.93452">
        <ele>1062.659026</ele>
        <time>2021-07-07T14:03:58+0200</time>
      </trkpt>
      <trkpt lat="45.50791" lon="2.93446">
        <ele>1062.677115</ele>
        <time>2021-07-07T14:04:00+0200</time>
      </trkpt>
      <trkpt lat="45.5079" lon="2.93439">
        <ele>1063.026487</ele>
        <time>2021-07-07T14:04:02+0200</time>
      </trkpt>
      <trkpt lat="45.50787" lon="2.93433">
        <ele>1062.490946</ele>
        <time>2021-07-07T14:04:04+0200</time>
      </trkpt>
      <trkpt lat="45.50786" lon="2.93426">
        <ele>1062.899879</ele>
        <time>2021-07-07T14:04:06+0200</time>
      </trkpt>
      <trkpt lat="45.50784" lon="2.93419">
        <ele>1063.33339</ele>
        <time>2021-07-07T14:04:08+0200</time>
      </trkpt>
      <trkpt lat="45.50783" lon="2.93413">
        <ele>1064.423021</ele>
        <time>2021-07-07T14:04:10+0200</time>
      </trkpt>
      <trkpt lat="45.50781" lon="2.93407">
        <ele>1064.413496</ele>
        <time>2021-07-07T14:04:12+0200</time>
      </trkpt>
      <trkpt lat="45.50779" lon="2.934">
        <ele>1064.934453</ele>
        <time>2021-07-07T14:04:14+0200</time>
      </trkpt>
      <trkpt lat="45.50777" lon="2.93393">
        <ele>1065.292473</ele>
        <time>2021-07-07T14:04:16+0200</time>
      </trkpt>
      <trkpt lat="45.50774" lon="2.93387">
        <ele>1065.552477</ele>
        <time>2021-07-07T14:04:18+0200</time>
      </trkpt>
      <trkpt lat="45.50772" lon="2.93379">
        <ele>1065.992232</ele>
        <time>2021-07-07T14:04:20+0200</time>
      </trkpt>
      <trkpt lat="45.5077" lon="2.93373">
        <ele>1066.481009</ele>
        <time>2021-07-07T14:04:22+0200</time>
      </trkpt>
      <trkpt lat="45.50769" lon="2.93365">
        <ele>1066.829405</ele>
        <time>2021-07-07T14:04:24+0200</time>
      </trkpt>
      <trkpt lat="45.50766" lon="2.93357">
        <ele>1067.191861</ele>
        <time>2021-07-07T14:04:26+0200</time>
      </trkpt>
      <trkpt lat="45.50765" lon="2.93351">
        <ele>1067.339576</ele>
        <time>2021-07-07T14:04:28+0200</time>
      </trkpt>
      <trkpt lat="45.50762" lon="2.93342">
        <ele>1067.335208</ele>
        <time>2021-07-07T14:04:30+0200</time>
      </trkpt>
      <trkpt lat="45.5076" lon="2.93336">
        <ele>1067.120504</ele>
        <time>2021-07-07T14:04:32+0200</time>
      </trkpt>
      <trkpt lat="45.50758" lon="2.93328">
        <ele>1067.168197</ele>
        <time>2021-07-07T14:04:34+0200</time>
      </trkpt>
      <trkpt lat="45.50756" lon="2.9332">
        <ele>1067.135303</ele>
        <time>2021-07-07T14:04:36+0200</time>
      </trkpt>
      <trkpt lat="45.50754" lon="2.93313">
        <ele>1067.33333</ele>
        <time>2021-07-07T14:04:38+0200</time>
      </trkpt>
      <trkpt lat="45.50752" lon="2.93305">
        <ele>1067.835531</ele>
        <time>2021-07-07T14:04:40+0200</time>
      </trkpt>
      <trkpt lat="45.5075" lon="2.93298">
        <ele>1067.778819</ele>
        <time>2021-07-07T14:04:42+0200</time>
      </trkpt>
      <trkpt lat="45.50749" lon="2.9329">
        <ele>1068.147431</ele>
        <time>2021-07-07T14:04:44+0200</time>
      </trkpt>
      <trkpt lat="45.50747" lon="2.93283">
        <ele>1068.43396</ele>
        <time>2021-07-07T14:04:46+0200</time>
      </trkpt>
      <trkpt lat="45.50746" lon="2.93276">
        <ele>1069.000704</ele>
        <time>2021-07-07T14:04:48+0200</time>
      </trkpt>
      <trkpt lat="45.50744" lon="2.9327">
        <ele>1069.396261</ele>
        <time>2021-07-07T14:04:50+0200</time>
      </trkpt>
      <trkpt lat="45.50741" lon="2.93263">
        <ele>1069.691233</ele>
        <time>2021-07-07T14:04:52+0200</time>
      </trkpt>
      <trkpt lat="45.5074" lon="2.93256">
        <ele>1070.413344</ele>
        <time>2021-07-07T14:04:54+0200</time>
      </trkpt>
      <trkpt lat="45.50738" lon="2.93249">
        <ele>1070.957882</ele>
        <time>2021-07-07T14:04:56+0200</time>
      </trkpt>
      <trkpt lat="45.50735" lon="2.93242">
        <ele>1070.80982</ele>
        <time>2021-07-07T14:04:58+0200</time>
      </trkpt>
      <trkpt lat="45.50733" lon="2.93235">
        <ele>1071.593796</ele>
        <time>2021-07-07T14:05:00+0200</time>
      </trkpt>
      <trkpt lat="45.50731" lon="2.93227">
        <ele>1071.725189</ele>
        <time>2021-07-07T14:05:02+0200</time>
      </trkpt>
      <trkpt lat="45.50728" lon="2.9322">
        <ele>1071.845062</ele>
        <time>2021-07-07T14:05:04+0200</time>
      </trkpt>
      <trkpt lat="45.50723" lon="2.93213">
        <ele>1071.992983</ele>
        <time>2021-07-07T14:05:06+0200</time>
      </trkpt>
      <trkpt lat="45.50719" lon="2.93207">
        <ele>1071.973322</ele>
        <time>2021-07-07T14:05:08+0200</time>
      </trkpt>
      <trkpt lat="45.50716" lon="2.93202">
        <ele>1072.465741</ele>
        <time>2021-07-07T14:05:10+0200</time>
      </trkpt>
      <trkpt lat="45.5071" lon="2.93196">
        <ele>1073.007579</ele>
        <time>2021-07-07T14:05:13+0200</time>
      </trkpt>
      <trkpt lat="45.50705" lon="2.93192">
        <ele>1073.606021</ele>
        <time>2021-07-07T14:05:15+0200</time>
      </trkpt>
      <trkpt lat="45.507" lon="2.93188">
        <ele>1073.774403</ele>
        <time>2021-07-07T14:05:18+0200</time>
      </trkpt>
      <trkpt lat="45.50694" lon="2.93182">
        <ele>1075.184441</ele>
        <time>2021-07-07T14:05:21+0200</time>
      </trkpt>
      <trkpt lat="45.50689" lon="2.93181">
        <ele>1076.004955</ele>
        <time>2021-07-07T14:05:24+0200</time>
      </trkpt>
      <trkpt lat="45.50684" lon="2.9318">
        <ele>1076.153627</ele>
        <time>2021-07-07T14:05:26+0200</time>
      </trkpt>
      <trkpt lat="45.50679" lon="2.93178">
        <ele>1076.353473</ele>
        <time>2021-07-07T14:05:28+0200</time>
      </trkpt>
      <trkpt lat="45.50675" lon="2.93175">
        <ele>1076.524781</ele>
        <time>2021-07-07T14:05:30+0200</time>
      </trkpt>
      <trkpt lat="45.50671" lon="2.93174">
        <ele>1077.260736</ele>
        <time>2021-07-07T14:05:32+0200</time>
      </trkpt>
      <trkpt lat="45.50666" lon="2.93172">
        <ele>1077.678746</ele>
        <time>2021-07-07T14:05:34+0200</time>
      </trkpt>
      <trkpt lat="45.50661" lon="2.9317">
        <ele>1077.877754</ele>
        <time>2021-07-07T14:05:36+0200</time>
      </trkpt>
      <trkpt lat="45.50655" lon="2.93167">
        <ele>1077.727584</ele>
        <time>2021-07-07T14:05:38+0200</time>
      </trkpt>
      <trkpt lat="45.50651" lon="2.93165">
        <ele>1077.857812</ele>
        <time>2021-07-07T14:05:40+0200</time>
      </trkpt>
      <trkpt lat="45.50645" lon="2.93158">
        <ele>1078.427895</ele>
        <time>2021-07-07T14:05:43+0200</time>
      </trkpt>
      <trkpt lat="45.50642" lon="2.93154">
        <ele>1078.398145</ele>
        <time>2021-07-07T14:05:45+0200</time>
      </trkpt>
      <trkpt lat="45.50637" lon="2.93147">
        <ele>1079.341379</ele>
        <time>2021-07-07T14:05:48+0200</time>
      </trkpt>
      <trkpt lat="45.50635" lon="2.93141">
        <ele>1080.652654</ele>
        <time>2021-07-07T14:05:50+0200</time>
      </trkpt>
      <trkpt lat="45.50631" lon="2.93135">
        <ele>1082.083891</ele>
        <time>2021-07-07T14:05:52+0200</time>
      </trkpt>
      <trkpt lat="45.50628" lon="2.93129">
        <ele>1082.565023</ele>
        <time>2021-07-07T14:05:54+0200</time>
      </trkpt>
      <trkpt lat="45.50623" lon="2.93123">
        <ele>1082.605489</ele>
        <time>2021-07-07T14:05:56+0200</time>
      </trkpt>
      <trkpt lat="45.5062" lon="2.93116">
        <ele>1082.125976</ele>
        <time>2021-07-07T14:05:58+0200</time>
      </trkpt>
      <trkpt lat="45.50616" lon="2.93112">
        <ele>1081.44543</ele>
        <time>2021-07-07T14:06:00+0200</time>
      </trkpt>
      <trkpt lat="45.50612" lon="2.93105">
        <ele>1081.004049</ele>
        <time>2021-07-07T14:06:02+0200</time>
      </trkpt>
      <trkpt lat="45.50608" lon="2.93098">
        <ele>1080.986628</ele>
        <time>2021-07-07T14:06:04+0200</time>
      </trkpt>
      <trkpt lat="45.50605" lon="2.9309">
        <ele>1080.831677</ele>
        <time>2021-07-07T14:06:06+0200</time>
      </trkpt>
      <trkpt lat="45.506" lon="2.93085">
        <ele>1081.888269</ele>
        <time>2021-07-07T14:06:08+0200</time>
      </trkpt>
      <trkpt lat="45.50597" lon="2.93078">
        <ele>1082.527796</ele>
        <time>2021-07-07T14:06:10+0200</time>
      </trkpt>
      <trkpt lat="45.50595" lon="2.93071">
        <ele>1082.75735</ele>
        <time>2021-07-07T14:06:12+0200</time>
      </trkpt>
      <trkpt lat="45.50593" lon="2.93065">
        <ele>1082.992264</ele>
        <time>2021-07-07T14:06:14+0200</time>
      </trkpt>
      <trkpt lat="45.50591" lon="2.93058">
        <ele>1083.365355</ele>
        <time>2021-07-07T14:06:16+0200</time>
      </trkpt>
      <trkpt lat="45.5059" lon="2.9305">
        <ele>1084.560767</ele>
        <time>2021-07-07T14:06:19+0200</time>
      </trkpt>
      <trkpt lat="45.50586" lon="2.93053">
        <ele>1084.15723</ele>
        <time>2021-07-07T14:06:22+0200</time>
      </trkpt>
      <trkpt lat="45.50589" lon="2.93061">
        <ele>1084.240082</ele>
        <time>2021-07-07T14:06:25+0200</time>
      </trkpt>
      <trkpt lat="45.50591" lon="2.93067">
        <ele>1083.780695</ele>
        <time>2021-07-07T14:06:43+0200</time>
      </trkpt>
      <trkpt lat="45.50588" lon="2.93071">
        <ele>1082.608273</ele>
        <time>2021-07-07T14:07:06+0200</time>
      </trkpt>
      <trkpt lat="45.50593" lon="2.93067">
        <ele>1084.278117</ele>
        <time>2021-07-07T14:07:26+0200</time>
      </trkpt>
      <trkpt lat="45.50592" lon="2.9306">
        <ele>1084.031653</ele>
        <time>2021-07-07T14:07:28+0200</time>
      </trkpt>
      <trkpt lat="45.5059" lon="2.93053">
        <ele>1084.062644</ele>
        <time>2021-07-07T14:07:30+0200</time>
      </trkpt>
      <trkpt lat="45.50588" lon="2.93046">
        <ele>1084.382555</ele>
        <time>2021-07-07T14:07:32+0200</time>
      </trkpt>
      <trkpt lat="45.50586" lon="2.9304">
        <ele>1085.142822</ele>
        <time>2021-07-07T14:07:34+0200</time>
      </trkpt>
      <trkpt lat="45.50585" lon="2.93033">
        <ele>1085.326287</ele>
        <time>2021-07-07T14:07:36+0200</time>
      </trkpt>
      <trkpt lat="45.50583" lon="2.93026">
        <ele>1085.826898</ele>
        <time>2021-07-07T14:07:38+0200</time>
      </trkpt>
      <trkpt lat="45.50581" lon="2.93018">
        <ele>1086.206195</ele>
        <time>2021-07-07T14:07:40+0200</time>
      </trkpt>
      <trkpt lat="45.50578" lon="2.93012">
        <ele>1087.166141</ele>
        <time>2021-07-07T14:07:42+0200</time>
      </trkpt>
      <trkpt lat="45.50575" lon="2.93005">
        <ele>1087.093583</ele>
        <time>2021-07-07T14:07:44+0200</time>
      </trkpt>
      <trkpt lat="45.50574" lon="2.92997">
        <ele>1086.807367</ele>
        <time>2021-07-07T14:07:46+0200</time>
      </trkpt>
      <trkpt lat="45.50571" lon="2.9299">
        <ele>1087.255062</ele>
        <time>2021-07-07T14:07:48+0200</time>
      </trkpt>
      <trkpt lat="45.50567" lon="2.92983">
        <ele>1087.820678</ele>
        <time>2021-07-07T14:07:50+0200</time>
      </trkpt>
      <trkpt lat="45.50565" lon="2.92976">
        <ele>1088.799216</ele>
        <time>2021-07-07T14:07:52+0200</time>
      </trkpt>
      <trkpt lat="45.50563" lon="2.9297">
        <ele>1089.437599</ele>
        <time>2021-07-07T14:07:54+0200</time>
      </trkpt>
      <trkpt lat="45.5056" lon="2.92964">
        <ele>1090.053211</ele>
        <time>2021-07-07T14:07:56+0200</time>
      </trkpt>
      <trkpt lat="45.50555" lon="2.92956">
        <ele>1090.855306</ele>
        <time>2021-07-07T14:07:59+0200</time>
      </trkpt>
      <trkpt lat="45.50551" lon="2.92952">
        <ele>1091.109238</ele>
        <time>2021-07-07T14:08:01+0200</time>
      </trkpt>
      <trkpt lat="45.50547" lon="2.92947">
        <ele>1091.265041</ele>
        <time>2021-07-07T14:08:04+0200</time>
      </trkpt>
      <trkpt lat="45.50541" lon="2.9294">
        <ele>1093.496108</ele>
        <time>2021-07-07T14:08:07+0200</time>
      </trkpt>
      <trkpt lat="45.50537" lon="2.92935">
        <ele>1093.583473</ele>
        <time>2021-07-07T14:08:10+0200</time>
      </trkpt>
      <trkpt lat="45.50533" lon="2.9293">
        <ele>1094.110113</ele>
        <time>2021-07-07T14:08:12+0200</time>
      </trkpt>
      <trkpt lat="45.50528" lon="2.92925">
        <ele>1093.916225</ele>
        <time>2021-07-07T14:08:14+0200</time>
      </trkpt>
      <trkpt lat="45.50523" lon="2.92919">
        <ele>1094.70606</ele>
        <time>2021-07-07T14:08:16+0200</time>
      </trkpt>
      <trkpt lat="45.5052" lon="2.92915">
        <ele>1094.628467</ele>
        <time>2021-07-07T14:08:18+0200</time>
      </trkpt>
      <trkpt lat="45.50514" lon="2.92909">
        <ele>1095.092139</ele>
        <time>2021-07-07T14:08:21+0200</time>
      </trkpt>
      <trkpt lat="45.5051" lon="2.92903">
        <ele>1096.332647</ele>
        <time>2021-07-07T14:08:24+0200</time>
      </trkpt>
      <trkpt lat="45.50505" lon="2.92898">
        <ele>1096.879663</ele>
        <time>2021-07-07T14:08:26+0200</time>
      </trkpt>
      <trkpt lat="45.505" lon="2.92893">
        <ele>1097.303859</ele>
        <time>2021-07-07T14:08:28+0200</time>
      </trkpt>
      <trkpt lat="45.50496" lon="2.92891">
        <ele>1097.415512</ele>
        <time>2021-07-07T14:08:30+0200</time>
      </trkpt>
      <trkpt lat="45.50492" lon="2.92887">
        <ele>1097.570621</ele>
        <time>2021-07-07T14:08:32+0200</time>
      </trkpt>
      <trkpt lat="45.50486" lon="2.92882">
        <ele>1098.026027</ele>
        <time>2021-07-07T14:08:35+0200</time>
      </trkpt>
      <trkpt lat="45.50481" lon="2.92878">
        <ele>1098.921066</ele>
        <time>2021-07-07T14:08:38+0200</time>
      </trkpt>
      <trkpt lat="45.50475" lon="2.92873">
        <ele>1099.285507</ele>
        <time>2021-07-07T14:08:41+0200</time>
      </trkpt>
      <trkpt lat="45.5047" lon="2.9287">
        <ele>1099.351415</ele>
        <time>2021-07-07T14:08:43+0200</time>
      </trkpt>
      <trkpt lat="45.50467" lon="2.92867">
        <ele>1100.47319</ele>
        <time>2021-07-07T14:08:45+0200</time>
      </trkpt>
      <trkpt lat="45.50462" lon="2.92861">
        <ele>1101.927126</ele>
        <time>2021-07-07T14:08:48+0200</time>
      </trkpt>
      <trkpt lat="45.50458" lon="2.92856">
        <ele>1102.593676</ele>
        <time>2021-07-07T14:08:51+0200</time>
      </trkpt>
      <trkpt lat="45.50454" lon="2.92853">
        <ele>1102.885548</ele>
        <time>2021-07-07T14:08:54+0200</time>
      </trkpt>
      <trkpt lat="45.50449" lon="2.92849">
        <ele>1103.384614</ele>
        <time>2021-07-07T14:08:57+0200</time>
      </trkpt>
      <trkpt lat="45.50445" lon="2.92847">
        <ele>1103.483821</ele>
        <time>2021-07-07T14:08:59+0200</time>
      </trkpt>
      <trkpt lat="45.50439" lon="2.92844">
        <ele>1104.580289</ele>
        <time>2021-07-07T14:09:02+0200</time>
      </trkpt>
      <trkpt lat="45.50433" lon="2.92843">
        <ele>1105.553474</ele>
        <time>2021-07-07T14:09:05+0200</time>
      </trkpt>
      <trkpt lat="45.50427" lon="2.92843">
        <ele>1105.872814</ele>
        <time>2021-07-07T14:09:08+0200</time>
      </trkpt>
      <trkpt lat="45.50423" lon="2.92843">
        <ele>1106.285285</ele>
        <time>2021-07-07T14:09:10+0200</time>
      </trkpt>
      <trkpt lat="45.50417" lon="2.92841">
        <ele>1106.301327</ele>
        <time>2021-07-07T14:09:13+0200</time>
      </trkpt>
      <trkpt lat="45.50411" lon="2.9284">
        <ele>1106.915556</ele>
        <time>2021-07-07T14:09:16+0200</time>
      </trkpt>
      <trkpt lat="45.50407" lon="2.9284">
        <ele>1106.927379</ele>
        <time>2021-07-07T14:09:18+0200</time>
      </trkpt>
      <trkpt lat="45.50402" lon="2.9284">
        <ele>1106.992025</ele>
        <time>2021-07-07T14:09:20+0200</time>
      </trkpt>
      <trkpt lat="45.50396" lon="2.92841">
        <ele>1107.427336</ele>
        <time>2021-07-07T14:09:23+0200</time>
      </trkpt>
      <trkpt lat="45.5039" lon="2.9284">
        <ele>1107.917942</ele>
        <time>2021-07-07T14:09:26+0200</time>
      </trkpt>
      <trkpt lat="45.50384" lon="2.92838">
        <ele>1108.381698</ele>
        <time>2021-07-07T14:09:29+0200</time>
      </trkpt>
      <trkpt lat="45.5038" lon="2.92836">
        <ele>1108.677262</ele>
        <time>2021-07-07T14:09:31+0200</time>
      </trkpt>
      <trkpt lat="45.50375" lon="2.92835">
        <ele>1109.024289</ele>
        <time>2021-07-07T14:09:33+0200</time>
      </trkpt>
      <trkpt lat="45.50368" lon="2.92834">
        <ele>1109.35857</ele>
        <time>2021-07-07T14:09:36+0200</time>
      </trkpt>
      <trkpt lat="45.50362" lon="2.92832">
        <ele>1109.966137</ele>
        <time>2021-07-07T14:09:39+0200</time>
      </trkpt>
      <trkpt lat="45.50356" lon="2.92831">
        <ele>1110.736331</ele>
        <time>2021-07-07T14:09:42+0200</time>
      </trkpt>
      <trkpt lat="45.50349" lon="2.92828">
        <ele>1111.484746</ele>
        <time>2021-07-07T14:09:45+0200</time>
      </trkpt>
      <trkpt lat="45.50344" lon="2.92826">
        <ele>1111.951962</ele>
        <time>2021-07-07T14:09:48+0200</time>
      </trkpt>
      <trkpt lat="45.50339" lon="2.92824">
        <ele>1112.711898</ele>
        <time>2021-07-07T14:09:50+0200</time>
      </trkpt>
      <trkpt lat="45.50333" lon="2.92822">
        <ele>1113.961144</ele>
        <time>2021-07-07T14:09:53+0200</time>
      </trkpt>
      <trkpt lat="45.50328" lon="2.92821">
        <ele>1115.057109</ele>
        <time>2021-07-07T14:09:56+0200</time>
      </trkpt>
      <trkpt lat="45.50322" lon="2.92819">
        <ele>1115.865397</ele>
        <time>2021-07-07T14:09:59+0200</time>
      </trkpt>
      <trkpt lat="45.50317" lon="2.92816">
        <ele>1116.031137</ele>
        <time>2021-07-07T14:10:01+0200</time>
      </trkpt>
      <trkpt lat="45.50311" lon="2.92814">
        <ele>1116.469547</ele>
        <time>2021-07-07T14:10:04+0200</time>
      </trkpt>
      <trkpt lat="45.50305" lon="2.92811">
        <ele>1117.169951</ele>
        <time>2021-07-07T14:10:07+0200</time>
      </trkpt>
      <trkpt lat="45.50299" lon="2.92809">
        <ele>1117.324651</ele>
        <time>2021-07-07T14:10:10+0200</time>
      </trkpt>
      <trkpt lat="45.50294" lon="2.92808">
        <ele>1118.680197</ele>
        <time>2021-07-07T14:10:13+0200</time>
      </trkpt>
      <trkpt lat="45.50288" lon="2.92806">
        <ele>1118.984494</ele>
        <time>2021-07-07T14:10:16+0200</time>
      </trkpt>
      <trkpt lat="45.50284" lon="2.92803">
        <ele>1119.693466</ele>
        <time>2021-07-07T14:10:19+0200</time>
      </trkpt>
      <trkpt lat="45.5028" lon="2.92796">
        <ele>1120.644766</ele>
        <time>2021-07-07T14:10:23+0200</time>
      </trkpt>
      <trkpt lat="45.50276" lon="2.92792">
        <ele>1119.821772</ele>
        <time>2021-07-07T14:10:27+0200</time>
      </trkpt>
      <trkpt lat="45.50271" lon="2.92787">
        <ele>1120.359547</ele>
        <time>2021-07-07T14:10:31+0200</time>
      </trkpt>
      <trkpt lat="45.50268" lon="2.92782">
        <ele>1121.092608</ele>
        <time>2021-07-07T14:10:34+0200</time>
      </trkpt>
      <trkpt lat="45.50265" lon="2.92777">
        <ele>1121.23005</ele>
        <time>2021-07-07T14:10:37+0200</time>
      </trkpt>
      <trkpt lat="45.5026" lon="2.9277">
        <ele>1121.973232</ele>
        <time>2021-07-07T14:10:40+0200</time>
      </trkpt>
      <trkpt lat="45.50257" lon="2.92765">
        <ele>1122.669383</ele>
        <time>2021-07-07T14:10:43+0200</time>
      </trkpt>
      <trkpt lat="45.50253" lon="2.9276">
        <ele>1122.75161</ele>
        <time>2021-07-07T14:10:47+0200</time>
      </trkpt>
      <trkpt lat="45.50248" lon="2.92757">
        <ele>1123.306251</ele>
        <time>2021-07-07T14:10:50+0200</time>
      </trkpt>
      <trkpt lat="45.50243" lon="2.92756">
        <ele>1124.001564</ele>
        <time>2021-07-07T14:10:53+0200</time>
      </trkpt>
      <trkpt lat="45.50239" lon="2.92753">
        <ele>1123.964599</ele>
        <time>2021-07-07T14:10:56+0200</time>
      </trkpt>
      <trkpt lat="45.50234" lon="2.92751">
        <ele>1125.09421</ele>
        <time>2021-07-07T14:10:59+0200</time>
      </trkpt>
      <trkpt lat="45.5023" lon="2.92748">
        <ele>1126.615095</ele>
        <time>2021-07-07T14:11:02+0200</time>
      </trkpt>
      <trkpt lat="45.50226" lon="2.92741">
        <ele>1128.711016</ele>
        <time>2021-07-07T14:11:06+0200</time>
      </trkpt>
      <trkpt lat="45.50224" lon="2.92734">
        <ele>1128.748248</ele>
        <time>2021-07-07T14:11:09+0200</time>
      </trkpt>
      <trkpt lat="45.50222" lon="2.92728">
        <ele>1129.628177</ele>
        <time>2021-07-07T14:11:12+0200</time>
      </trkpt>
      <trkpt lat="45.50222" lon="2.92721">
        <ele>1130.461842</ele>
        <time>2021-07-07T14:11:15+0200</time>
      </trkpt>
      <trkpt lat="45.50222" lon="2.92712">
        <ele>1130.422245</ele>
        <time>2021-07-07T14:11:18+0200</time>
      </trkpt>
      <trkpt lat="45.50223" lon="2.92704">
        <ele>1130.873652</ele>
        <time>2021-07-07T14:11:22+0200</time>
      </trkpt>
      <trkpt lat="45.50222" lon="2.92697">
        <ele>1131.264159</ele>
        <time>2021-07-07T14:11:25+0200</time>
      </trkpt>
      <trkpt lat="45.50222" lon="2.9269">
        <ele>1131.78312</ele>
        <time>2021-07-07T14:11:28+0200</time>
      </trkpt>
      <trkpt lat="45.50219" lon="2.92684">
        <ele>1132.65415</ele>
        <time>2021-07-07T14:11:31+0200</time>
      </trkpt>
      <trkpt lat="45.50216" lon="2.92677">
        <ele>1133.66391</ele>
        <time>2021-07-07T14:11:34+0200</time>
      </trkpt>
      <trkpt lat="45.50213" lon="2.92672">
        <ele>1133.728996</ele>
        <time>2021-07-07T14:11:37+0200</time>
      </trkpt>
      <trkpt lat="45.50209" lon="2.92667">
        <ele>1134.317493</ele>
        <time>2021-07-07T14:11:40+0200</time>
      </trkpt>
      <trkpt lat="45.50206" lon="2.92661">
        <ele>1135.072762</ele>
        <time>2021-07-07T14:11:43+0200</time>
      </trkpt>
      <trkpt lat="45.50203" lon="2.92655">
        <ele>1135.724104</ele>
        <time>2021-07-07T14:11:46+0200</time>
      </trkpt>
      <trkpt lat="45.502" lon="2.9265">
        <ele>1136.462779</ele>
        <time>2021-07-07T14:11:49+0200</time>
      </trkpt>
      <trkpt lat="45.50197" lon="2.92644">
        <ele>1137.260115</ele>
        <time>2021-07-07T14:11:52+0200</time>
      </trkpt>
      <trkpt lat="45.50193" lon="2.92639">
        <ele>1138.306641</ele>
        <time>2021-07-07T14:11:56+0200</time>
      </trkpt>
      <trkpt lat="45.50189" lon="2.92633">
        <ele>1139.015915</ele>
        <time>2021-07-07T14:11:59+0200</time>
      </trkpt>
      <trkpt lat="45.50186" lon="2.92628">
        <ele>1139.902534</ele>
        <time>2021-07-07T14:12:02+0200</time>
      </trkpt>
      <trkpt lat="45.50184" lon="2.92622">
        <ele>1141.032013</ele>
        <time>2021-07-07T14:12:05+0200</time>
      </trkpt>
      <trkpt lat="45.5018" lon="2.92617">
        <ele>1141.513308</ele>
        <time>2021-07-07T14:12:08+0200</time>
      </trkpt>
      <trkpt lat="45.50179" lon="2.9261">
        <ele>1141.797133</ele>
        <time>2021-07-07T14:12:11+0200</time>
      </trkpt>
      <trkpt lat="45.50177" lon="2.92604">
        <ele>1142.149535</ele>
        <time>2021-07-07T14:12:14+0200</time>
      </trkpt>
      <trkpt lat="45.50174" lon="2.92597">
        <ele>1142.862328</ele>
        <time>2021-07-07T14:12:18+0200</time>
      </trkpt>
      <trkpt lat="45.50171" lon="2.92591">
        <ele>1143.460014</ele>
        <time>2021-07-07T14:12:21+0200</time>
      </trkpt>
      <trkpt lat="45.50168" lon="2.92585">
        <ele>1144.16732</ele>
        <time>2021-07-07T14:12:24+0200</time>
      </trkpt>
      <trkpt lat="45.50165" lon="2.92578">
        <ele>1144.763333</ele>
        <time>2021-07-07T14:12:28+0200</time>
      </trkpt>
      <trkpt lat="45.50161" lon="2.92573">
        <ele>1145.421544</ele>
        <time>2021-07-07T14:12:31+0200</time>
      </trkpt>
      <trkpt lat="45.50158" lon="2.92568">
        <ele>1145.621845</ele>
        <time>2021-07-07T14:12:34+0200</time>
      </trkpt>
      <trkpt lat="45.50155" lon="2.92561">
        <ele>1145.60242</ele>
        <time>2021-07-07T14:12:38+0200</time>
      </trkpt>
      <trkpt lat="45.50154" lon="2.92555">
        <ele>1146.210096</ele>
        <time>2021-07-07T14:12:42+0200</time>
      </trkpt>
      <trkpt lat="45.5015" lon="2.9255">
        <ele>1146.452914</ele>
        <time>2021-07-07T14:12:47+0200</time>
      </trkpt>
      <trkpt lat="45.50147" lon="2.92544">
        <ele>1146.26286</ele>
        <time>2021-07-07T14:12:52+0200</time>
      </trkpt>
      <trkpt lat="45.50143" lon="2.92537">
        <ele>1146.446149</ele>
        <time>2021-07-07T14:16:33+0200</time>
      </trkpt>
      <trkpt lat="45.50139" lon="2.9253">
        <ele>1146.149193</ele>
        <time>2021-07-07T14:16:35+0200</time>
      </trkpt>
      <trkpt lat="45.50135" lon="2.92523">
        <ele>1146.456889</ele>
        <time>2021-07-07T14:16:38+0200</time>
      </trkpt>
      <trkpt lat="45.50131" lon="2.92515">
        <ele>1147.33048</ele>
        <time>2021-07-07T14:16:41+0200</time>
      </trkpt>
      <trkpt lat="45.50128" lon="2.9251">
        <ele>1147.997166</ele>
        <time>2021-07-07T14:16:43+0200</time>
      </trkpt>
      <trkpt lat="45.50126" lon="2.92504">
        <ele>1148.5063</ele>
        <time>2021-07-07T14:16:45+0200</time>
      </trkpt>
      <trkpt lat="45.50124" lon="2.92498">
        <ele>1148.951111</ele>
        <time>2021-07-07T14:16:47+0200</time>
      </trkpt>
      <trkpt lat="45.50121" lon="2.92493">
        <ele>1149.420087</ele>
        <time>2021-07-07T14:16:49+0200</time>
      </trkpt>
      <trkpt lat="45.50116" lon="2.92486">
        <ele>1150.269834</ele>
        <time>2021-07-07T14:16:52+0200</time>
      </trkpt>
      <trkpt lat="45.50113" lon="2.9248">
        <ele>1150.785426</ele>
        <time>2021-07-07T14:16:54+0200</time>
      </trkpt>
      <trkpt lat="45.5011" lon="2.92475">
        <ele>1151.292313</ele>
        <time>2021-07-07T14:16:56+0200</time>
      </trkpt>
      <trkpt lat="45.50106" lon="2.9247">
        <ele>1151.681883</ele>
        <time>2021-07-07T14:16:58+0200</time>
      </trkpt>
      <trkpt lat="45.50102" lon="2.92463">
        <ele>1152.654555</ele>
        <time>2021-07-07T14:17:01+0200</time>
      </trkpt>
      <trkpt lat="45.50099" lon="2.92457">
        <ele>1152.789492</ele>
        <time>2021-07-07T14:17:03+0200</time>
      </trkpt>
      <trkpt lat="45.50095" lon="2.92449">
        <ele>1153.226365</ele>
        <time>2021-07-07T14:17:06+0200</time>
      </trkpt>
      <trkpt lat="45.50091" lon="2.92441">
        <ele>1153.96188</ele>
        <time>2021-07-07T14:17:09+0200</time>
      </trkpt>
      <trkpt lat="45.50088" lon="2.92433">
        <ele>1154.252917</ele>
        <time>2021-07-07T14:17:12+0200</time>
      </trkpt>
      <trkpt lat="45.50084" lon="2.92425">
        <ele>1154.347209</ele>
        <time>2021-07-07T14:17:15+0200</time>
      </trkpt>
      <trkpt lat="45.50081" lon="2.9242">
        <ele>1154.500419</ele>
        <time>2021-07-07T14:17:17+0200</time>
      </trkpt>
      <trkpt lat="45.50077" lon="2.92414">
        <ele>1154.447537</ele>
        <time>2021-07-07T14:17:19+0200</time>
      </trkpt>
      <trkpt lat="45.50074" lon="2.92408">
        <ele>1154.604571</ele>
        <time>2021-07-07T14:17:21+0200</time>
      </trkpt>
      <trkpt lat="45.50071" lon="2.92403">
        <ele>1154.915827</ele>
        <time>2021-07-07T14:17:23+0200</time>
      </trkpt>
      <trkpt lat="45.50068" lon="2.92398">
        <ele>1155.360595</ele>
        <time>2021-07-07T14:17:25+0200</time>
      </trkpt>
      <trkpt lat="45.50064" lon="2.92393">
        <ele>1155.484799</ele>
        <time>2021-07-07T14:17:27+0200</time>
      </trkpt>
      <trkpt lat="45.5006" lon="2.92386">
        <ele>1156.712757</ele>
        <time>2021-07-07T14:17:30+0200</time>
      </trkpt>
      <trkpt lat="45.50056" lon="2.92379">
        <ele>1157.655398</ele>
        <time>2021-07-07T14:17:33+0200</time>
      </trkpt>
      <trkpt lat="45.50053" lon="2.92374">
        <ele>1157.766224</ele>
        <time>2021-07-07T14:17:35+0200</time>
      </trkpt>
      <trkpt lat="45.5005" lon="2.92369">
        <ele>1158.593347</ele>
        <time>2021-07-07T14:17:38+0200</time>
      </trkpt>
      <trkpt lat="45.50046" lon="2.92365">
        <ele>1159.587912</ele>
        <time>2021-07-07T14:17:41+0200</time>
      </trkpt>
      <trkpt lat="45.50042" lon="2.92359">
        <ele>1160.354187</ele>
        <time>2021-07-07T14:17:44+0200</time>
      </trkpt>
      <trkpt lat="45.50038" lon="2.92353">
        <ele>1161.326951</ele>
        <time>2021-07-07T14:17:47+0200</time>
      </trkpt>
      <trkpt lat="45.50035" lon="2.92348">
        <ele>1161.466705</ele>
        <time>2021-07-07T14:17:50+0200</time>
      </trkpt>
      <trkpt lat="45.50032" lon="2.92343">
        <ele>1162.328047</ele>
        <time>2021-07-07T14:17:53+0200</time>
      </trkpt>
      <trkpt lat="45.50028" lon="2.92337">
        <ele>1163.240105</ele>
        <time>2021-07-07T14:17:56+0200</time>
      </trkpt>
      <trkpt lat="45.50024" lon="2.92331">
        <ele>1163.550521</ele>
        <time>2021-07-07T14:17:59+0200</time>
      </trkpt>
      <trkpt lat="45.50021" lon="2.92325">
        <ele>1164.430128</ele>
        <time>2021-07-07T14:18:02+0200</time>
      </trkpt>
      <trkpt lat="45.50018" lon="2.92319">
        <ele>1164.882643</ele>
        <time>2021-07-07T14:18:05+0200</time>
      </trkpt>
      <trkpt lat="45.50014" lon="2.92313">
        <ele>1165.332699</ele>
        <time>2021-07-07T14:18:08+0200</time>
      </trkpt>
      <trkpt lat="45.50011" lon="2.92306">
        <ele>1166.020837</ele>
        <time>2021-07-07T14:18:12+0200</time>
      </trkpt>
      <trkpt lat="45.50007" lon="2.923">
        <ele>1166.815442</ele>
        <time>2021-07-07T14:18:16+0200</time>
      </trkpt>
      <trkpt lat="45.50004" lon="2.92294">
        <ele>1167.405165</ele>
        <time>2021-07-07T14:18:20+0200</time>
      </trkpt>
      <trkpt lat="45.50001" lon="2.92287">
        <ele>1168.699703</ele>
        <time>2021-07-07T14:18:25+0200</time>
      </trkpt>
      <trkpt lat="45.49999" lon="2.92281">
        <ele>1168.899869</ele>
        <time>2021-07-07T14:18:29+0200</time>
      </trkpt>
      <trkpt lat="45.49999" lon="2.92274">
        <ele>1169.50206</ele>
        <time>2021-07-07T14:18:33+0200</time>
      </trkpt>
      <trkpt lat="45.49996" lon="2.92266">
        <ele>1170.473911</ele>
        <time>2021-07-07T14:18:37+0200</time>
      </trkpt>
      <trkpt lat="45.49994" lon="2.92259">
        <ele>1170.980362</ele>
        <time>2021-07-07T14:18:41+0200</time>
      </trkpt>
      <trkpt lat="45.49992" lon="2.92252">
        <ele>1171.018526</ele>
        <time>2021-07-07T14:18:45+0200</time>
      </trkpt>
      <trkpt lat="45.4999" lon="2.92246">
        <ele>1171.540645</ele>
        <time>2021-07-07T14:18:49+0200</time>
      </trkpt>
      <trkpt lat="45.49987" lon="2.9224">
        <ele>1171.986919</ele>
        <time>2021-07-07T14:18:52+0200</time>
      </trkpt>
      <trkpt lat="45.49985" lon="2.92235">
        <ele>1172.84927</ele>
        <time>2021-07-07T14:18:55+0200</time>
      </trkpt>
      <trkpt lat="45.49984" lon="2.92227">
        <ele>1173.870373</ele>
        <time>2021-07-07T14:18:59+0200</time>
      </trkpt>
      <trkpt lat="45.49982" lon="2.92219">
        <ele>1174.787794</ele>
        <time>2021-07-07T14:19:03+0200</time>
      </trkpt>
      <trkpt lat="45.4998" lon="2.92213">
        <ele>1175.06998</ele>
        <time>2021-07-07T14:19:06+0200</time>
      </trkpt>
      <trkpt lat="45.49977" lon="2.92205">
        <ele>1175.906492</ele>
        <time>2021-07-07T14:19:10+0200</time>
      </trkpt>
      <trkpt lat="45.49975" lon="2.92198">
        <ele>1176.285644</ele>
        <time>2021-07-07T14:19:13+0200</time>
      </trkpt>
      <trkpt lat="45.49971" lon="2.92191">
        <ele>1176.989673</ele>
        <time>2021-07-07T14:19:16+0200</time>
      </trkpt>
      <trkpt lat="45.49969" lon="2.92185">
        <ele>1177.153505</ele>
        <time>2021-07-07T14:19:18+0200</time>
      </trkpt>
      <trkpt lat="45.49966" lon="2.9218">
        <ele>1177.449441</ele>
        <time>2021-07-07T14:19:20+0200</time>
      </trkpt>
      <trkpt lat="45.49963" lon="2.92174">
        <ele>1177.54152</ele>
        <time>2021-07-07T14:19:22+0200</time>
      </trkpt>
      <trkpt lat="45.49959" lon="2.92169">
        <ele>1177.685757</ele>
        <time>2021-07-07T14:19:24+0200</time>
      </trkpt>
      <trkpt lat="45.49955" lon="2.92163">
        <ele>1177.665822</ele>
        <time>2021-07-07T14:19:26+0200</time>
      </trkpt>
      <trkpt lat="45.49951" lon="2.92158">
        <ele>1178.132622</ele>
        <time>2021-07-07T14:19:28+0200</time>
      </trkpt>
      <trkpt lat="45.49947" lon="2.92153">
        <ele>1177.761476</ele>
        <time>2021-07-07T14:19:30+0200</time>
      </trkpt>
      <trkpt lat="45.49944" lon="2.92147">
        <ele>1178.070013</ele>
        <time>2021-07-07T14:19:32+0200</time>
      </trkpt>
      <trkpt lat="45.49939" lon="2.9214">
        <ele>1177.964083</ele>
        <time>2021-07-07T14:19:34+0200</time>
      </trkpt>
      <trkpt lat="45.49933" lon="2.92133">
        <ele>1177.595728</ele>
        <time>2021-07-07T14:19:36+0200</time>
      </trkpt>
      <trkpt lat="45.49927" lon="2.92127">
        <ele>1177.238461</ele>
        <time>2021-07-07T14:19:38+0200</time>
      </trkpt>
      <trkpt lat="45.49923" lon="2.92123">
        <ele>1177.079186</ele>
        <time>2021-07-07T14:19:39+0200</time>
      </trkpt>
      <trkpt lat="45.49916" lon="2.92117">
        <ele>1177.629048</ele>
        <time>2021-07-07T14:19:41+0200</time>
      </trkpt>
      <trkpt lat="45.4991" lon="2.9211">
        <ele>1179.027396</ele>
        <time>2021-07-07T14:19:43+0200</time>
      </trkpt>
      <trkpt lat="45.49903" lon="2.92104">
        <ele>1179.162581</ele>
        <time>2021-07-07T14:19:45+0200</time>
      </trkpt>
      <trkpt lat="45.49898" lon="2.92095">
        <ele>1179.368916</ele>
        <time>2021-07-07T14:19:47+0200</time>
      </trkpt>
      <trkpt lat="45.49894" lon="2.92088">
        <ele>1179.790883</ele>
        <time>2021-07-07T14:19:49+0200</time>
      </trkpt>
      <trkpt lat="45.49891" lon="2.92079">
        <ele>1180.136086</ele>
        <time>2021-07-07T14:19:51+0200</time>
      </trkpt>
      <trkpt lat="45.49888" lon="2.9207">
        <ele>1180.513882</ele>
        <time>2021-07-07T14:19:53+0200</time>
      </trkpt>
      <trkpt lat="45.49887" lon="2.9206">
        <ele>1180.678033</ele>
        <time>2021-07-07T14:19:55+0200</time>
      </trkpt>
      <trkpt lat="45.49887" lon="2.92048">
        <ele>1181.253402</ele>
        <time>2021-07-07T14:19:57+0200</time>
      </trkpt>
      <trkpt lat="45.49889" lon="2.92038">
        <ele>1181.52203</ele>
        <time>2021-07-07T14:19:59+0200</time>
      </trkpt>
      <trkpt lat="45.4989" lon="2.92026">
        <ele>1181.600717</ele>
        <time>2021-07-07T14:20:01+0200</time>
      </trkpt>
      <trkpt lat="45.49892" lon="2.92016">
        <ele>1181.540487</ele>
        <time>2021-07-07T14:20:03+0200</time>
      </trkpt>
      <trkpt lat="45.49893" lon="2.92006">
        <ele>1181.843075</ele>
        <time>2021-07-07T14:20:05+0200</time>
      </trkpt>
      <trkpt lat="45.49896" lon="2.91997">
        <ele>1182.260493</ele>
        <time>2021-07-07T14:20:07+0200</time>
      </trkpt>
      <trkpt lat="45.49899" lon="2.91988">
        <ele>1182.786197</ele>
        <time>2021-07-07T14:20:09+0200</time>
      </trkpt>
      <trkpt lat="45.49901" lon="2.91978">
        <ele>1183.512096</ele>
        <time>2021-07-07T14:20:11+0200</time>
      </trkpt>
      <trkpt lat="45.49902" lon="2.91967">
        <ele>1183.382169</ele>
        <time>2021-07-07T14:20:13+0200</time>
      </trkpt>
      <trkpt lat="45.49903" lon="2.91958">
        <ele>1183.662698</ele>
        <time>2021-07-07T14:20:15+0200</time>
      </trkpt>
      <trkpt lat="45.49904" lon="2.91949">
        <ele>1183.95591</ele>
        <time>2021-07-07T14:20:17+0200</time>
      </trkpt>
      <trkpt lat="45.49905" lon="2.9194">
        <ele>1184.671108</ele>
        <time>2021-07-07T14:20:19+0200</time>
      </trkpt>
      <trkpt lat="45.49907" lon="2.91932">
        <ele>1186.049961</ele>
        <time>2021-07-07T14:20:21+0200</time>
      </trkpt>
      <trkpt lat="45.49909" lon="2.91924">
        <ele>1186.453846</ele>
        <time>2021-07-07T14:20:23+0200</time>
      </trkpt>
      <trkpt lat="45.49912" lon="2.91917">
        <ele>1186.889838</ele>
        <time>2021-07-07T14:20:25+0200</time>
      </trkpt>
      <trkpt lat="45.49914" lon="2.91911">
        <ele>1186.96926</ele>
        <time>2021-07-07T14:20:27+0200</time>
      </trkpt>
      <trkpt lat="45.49916" lon="2.91903">
        <ele>1187.486184</ele>
        <time>2021-07-07T14:20:29+0200</time>
      </trkpt>
      <trkpt lat="45.49918" lon="2.91895">
        <ele>1188.369842</ele>
        <time>2021-07-07T14:20:32+0200</time>
      </trkpt>
      <trkpt lat="45.49921" lon="2.91888">
        <ele>1189.471748</ele>
        <time>2021-07-07T14:20:35+0200</time>
      </trkpt>
      <trkpt lat="45.49923" lon="2.91882">
        <ele>1189.927692</ele>
        <time>2021-07-07T14:20:38+0200</time>
      </trkpt>
      <trkpt lat="45.49926" lon="2.91875">
        <ele>1190.020648</ele>
        <time>2021-07-07T14:20:41+0200</time>
      </trkpt>
      <trkpt lat="45.49928" lon="2.91868">
        <ele>1190.434522</ele>
        <time>2021-07-07T14:20:44+0200</time>
      </trkpt>
      <trkpt lat="45.4993" lon="2.9186">
        <ele>1190.990199</ele>
        <time>2021-07-07T14:20:47+0200</time>
      </trkpt>
      <trkpt lat="45.49932" lon="2.91852">
        <ele>1191.557361</ele>
        <time>2021-07-07T14:20:50+0200</time>
      </trkpt>
      <trkpt lat="45.49935" lon="2.91847">
        <ele>1192.078181</ele>
        <time>2021-07-07T14:20:52+0200</time>
      </trkpt>
      <trkpt lat="45.49937" lon="2.91839">
        <ele>1192.116669</ele>
        <time>2021-07-07T14:20:54+0200</time>
      </trkpt>
      <trkpt lat="45.49938" lon="2.91832">
        <ele>1192.609165</ele>
        <time>2021-07-07T14:20:56+0200</time>
      </trkpt>
      <trkpt lat="45.4994" lon="2.91825">
        <ele>1192.807699</ele>
        <time>2021-07-07T14:20:58+0200</time>
      </trkpt>
      <trkpt lat="45.49942" lon="2.91818">
        <ele>1193.033149</ele>
        <time>2021-07-07T14:21:00+0200</time>
      </trkpt>
      <trkpt lat="45.49944" lon="2.91813">
        <ele>1193.531027</ele>
        <time>2021-07-07T14:21:02+0200</time>
      </trkpt>
      <trkpt lat="45.49946" lon="2.91806">
        <ele>1194.065581</ele>
        <time>2021-07-07T14:21:04+0200</time>
      </trkpt>
      <trkpt lat="45.49948" lon="2.918">
        <ele>1194.319286</ele>
        <time>2021-07-07T14:21:06+0200</time>
      </trkpt>
      <trkpt lat="45.4995" lon="2.91794">
        <ele>1194.560606</ele>
        <time>2021-07-07T14:21:08+0200</time>
      </trkpt>
      <trkpt lat="45.49952" lon="2.91788">
        <ele>1195.016727</ele>
        <time>2021-07-07T14:21:10+0200</time>
      </trkpt>
      <trkpt lat="45.49954" lon="2.91781">
        <ele>1195.157152</ele>
        <time>2021-07-07T14:21:12+0200</time>
      </trkpt>
      <trkpt lat="45.49957" lon="2.91772">
        <ele>1195.152159</ele>
        <time>2021-07-07T14:21:15+0200</time>
      </trkpt>
      <trkpt lat="45.49959" lon="2.91767">
        <ele>1195.481889</ele>
        <time>2021-07-07T14:21:17+0200</time>
      </trkpt>
      <trkpt lat="45.49961" lon="2.9176">
        <ele>1195.789095</ele>
        <time>2021-07-07T14:21:19+0200</time>
      </trkpt>
      <trkpt lat="45.49963" lon="2.91752">
        <ele>1196.043657</ele>
        <time>2021-07-07T14:21:22+0200</time>
      </trkpt>
      <trkpt lat="45.49966" lon="2.91746">
        <ele>1196.368184</ele>
        <time>2021-07-07T14:21:25+0200</time>
      </trkpt>
      <trkpt lat="45.4997" lon="2.91739">
        <ele>1197.185006</ele>
        <time>2021-07-07T14:21:28+0200</time>
      </trkpt>
      <trkpt lat="45.49972" lon="2.91733">
        <ele>1197.249894</ele>
        <time>2021-07-07T14:21:32+0200</time>
      </trkpt>
      <trkpt lat="45.49974" lon="2.91726">
        <ele>1197.046903</ele>
        <time>2021-07-07T14:21:36+0200</time>
      </trkpt>
      <trkpt lat="45.49978" lon="2.9172">
        <ele>1197.291256</ele>
        <time>2021-07-07T14:21:39+0200</time>
      </trkpt>
      <trkpt lat="45.49979" lon="2.91714">
        <ele>1197.391717</ele>
        <time>2021-07-07T14:21:41+0200</time>
      </trkpt>
      <trkpt lat="45.49982" lon="2.91705">
        <ele>1197.611203</ele>
        <time>2021-07-07T14:21:44+0200</time>
      </trkpt>
      <trkpt lat="45.49984" lon="2.91698">
        <ele>1198.102415</ele>
        <time>2021-07-07T14:21:46+0200</time>
      </trkpt>
      <trkpt lat="45.49986" lon="2.91691">
        <ele>1198.614161</ele>
        <time>2021-07-07T14:21:49+0200</time>
      </trkpt>
      <trkpt lat="45.49988" lon="2.91684">
        <ele>1198.951837</ele>
        <time>2021-07-07T14:21:52+0200</time>
      </trkpt>
      <trkpt lat="45.49991" lon="2.91678">
        <ele>1198.740941</ele>
        <time>2021-07-07T14:21:55+0200</time>
      </trkpt>
      <trkpt lat="45.49992" lon="2.91672">
        <ele>1199.240866</ele>
        <time>2021-07-07T14:21:58+0200</time>
      </trkpt>
      <trkpt lat="45.49995" lon="2.91666">
        <ele>1199.055772</ele>
        <time>2021-07-07T14:22:01+0200</time>
      </trkpt>
      <trkpt lat="45.49996" lon="2.9166">
        <ele>1199.436313</ele>
        <time>2021-07-07T14:22:04+0200</time>
      </trkpt>
      <trkpt lat="45.49999" lon="2.91655">
        <ele>1197.381106</ele>
        <time>2021-07-07T14:25:25+0200</time>
      </trkpt>
      <trkpt lat="45.50002" lon="2.91646">
        <ele>1197.698624</ele>
        <time>2021-07-07T14:26:23+0200</time>
      </trkpt>
      <trkpt lat="45.50004" lon="2.91638">
        <ele>1197.180076</ele>
        <time>2021-07-07T14:26:24+0200</time>
      </trkpt>
      <trkpt lat="45.50007" lon="2.91627">
        <ele>1197.177802</ele>
        <time>2021-07-07T14:26:26+0200</time>
      </trkpt>
      <trkpt lat="45.5001" lon="2.91614">
        <ele>1196.864438</ele>
        <time>2021-07-07T14:26:29+0200</time>
      </trkpt>
      <trkpt lat="45.50011" lon="2.91608">
        <ele>1196.947499</ele>
        <time>2021-07-07T14:26:30+0200</time>
      </trkpt>
      <trkpt lat="45.50012" lon="2.91602">
        <ele>1196.843294</ele>
        <time>2021-07-07T14:26:30+0200</time>
      </trkpt>
      <trkpt lat="45.50015" lon="2.9159">
        <ele>1196.845897</ele>
        <time>2021-07-07T14:26:32+0200</time>
      </trkpt>
      <trkpt lat="45.50017" lon="2.91579">
        <ele>1197.46895</ele>
        <time>2021-07-07T14:26:34+0200</time>
      </trkpt>
      <trkpt lat="45.50018" lon="2.91569">
        <ele>1198.065475</ele>
        <time>2021-07-07T14:26:37+0200</time>
      </trkpt>
      <trkpt lat="45.50016" lon="2.91558">
        <ele>1198.489723</ele>
        <time>2021-07-07T14:26:39+0200</time>
      </trkpt>
      <trkpt lat="45.50015" lon="2.9155">
        <ele>1198.675129</ele>
        <time>2021-07-07T14:26:41+0200</time>
      </trkpt>
      <trkpt lat="45.50013" lon="2.91541">
        <ele>1198.985437</ele>
        <time>2021-07-07T14:26:43+0200</time>
      </trkpt>
      <trkpt lat="45.50012" lon="2.91532">
        <ele>1199.55252</ele>
        <time>2021-07-07T14:26:45+0200</time>
      </trkpt>
      <trkpt lat="45.5001" lon="2.91524">
        <ele>1200.085054</ele>
        <time>2021-07-07T14:26:47+0200</time>
      </trkpt>
      <trkpt lat="45.50009" lon="2.91515">
        <ele>1200.539802</ele>
        <time>2021-07-07T14:26:49+0200</time>
      </trkpt>
      <trkpt lat="45.50008" lon="2.91505">
        <ele>1200.29131</ele>
        <time>2021-07-07T14:26:51+0200</time>
      </trkpt>
      <trkpt lat="45.50007" lon="2.91498">
        <ele>1199.964863</ele>
        <time>2021-07-07T14:26:52+0200</time>
      </trkpt>
      <trkpt lat="45.50006" lon="2.91491">
        <ele>1199.367362</ele>
        <time>2021-07-07T14:26:53+0200</time>
      </trkpt>
      <trkpt lat="45.50006" lon="2.91483">
        <ele>1198.913553</ele>
        <time>2021-07-07T14:26:54+0200</time>
      </trkpt>
      <trkpt lat="45.50005" lon="2.91475">
        <ele>1198.436575</ele>
        <time>2021-07-07T14:26:55+0200</time>
      </trkpt>
      <trkpt lat="45.50003" lon="2.91467">
        <ele>1198.378853</ele>
        <time>2021-07-07T14:26:56+0200</time>
      </trkpt>
      <trkpt lat="45.50002" lon="2.91459">
        <ele>1198.547889</ele>
        <time>2021-07-07T14:26:57+0200</time>
      </trkpt>
      <trkpt lat="45.5" lon="2.91451">
        <ele>1198.795874</ele>
        <time>2021-07-07T14:26:58+0200</time>
      </trkpt>
      <trkpt lat="45.5" lon="2.91443">
        <ele>1198.800205</ele>
        <time>2021-07-07T14:26:59+0200</time>
      </trkpt>
      <trkpt lat="45.49999" lon="2.91435">
        <ele>1199.022759</ele>
        <time>2021-07-07T14:27:00+0200</time>
      </trkpt>
      <trkpt lat="45.49998" lon="2.91428">
        <ele>1199.24518</ele>
        <time>2021-07-07T14:27:01+0200</time>
      </trkpt>
      <trkpt lat="45.49997" lon="2.91422">
        <ele>1199.41471</ele>
        <time>2021-07-07T14:27:02+0200</time>
      </trkpt>
      <trkpt lat="45.49997" lon="2.91414">
        <ele>1199.511724</ele>
        <time>2021-07-07T14:27:03+0200</time>
      </trkpt>
      <trkpt lat="45.49995" lon="2.91408">
        <ele>1199.573414</ele>
        <time>2021-07-07T14:27:04+0200</time>
      </trkpt>
      <trkpt lat="45.49993" lon="2.91401">
        <ele>1199.433054</ele>
        <time>2021-07-07T14:27:05+0200</time>
      </trkpt>
      <trkpt lat="45.49992" lon="2.91394">
        <ele>1199.345285</ele>
        <time>2021-07-07T14:27:06+0200</time>
      </trkpt>
      <trkpt lat="45.4999" lon="2.91387">
        <ele>1199.368389</ele>
        <time>2021-07-07T14:27:07+0200</time>
      </trkpt>
      <trkpt lat="45.49989" lon="2.91379">
        <ele>1199.501844</ele>
        <time>2021-07-07T14:27:08+0200</time>
      </trkpt>
      <trkpt lat="45.49987" lon="2.91372">
        <ele>1199.675803</ele>
        <time>2021-07-07T14:27:09+0200</time>
      </trkpt>
      <trkpt lat="45.49986" lon="2.91365">
        <ele>1200.039793</ele>
        <time>2021-07-07T14:27:10+0200</time>
      </trkpt>
      <trkpt lat="45.49985" lon="2.91357">
        <ele>1200.19384</ele>
        <time>2021-07-07T14:27:11+0200</time>
      </trkpt>
      <trkpt lat="45.49984" lon="2.91344">
        <ele>1200.64255</ele>
        <time>2021-07-07T14:27:13+0200</time>
      </trkpt>
      <trkpt lat="45.49983" lon="2.91333">
        <ele>1200.960456</ele>
        <time>2021-07-07T14:27:15+0200</time>
      </trkpt>
      <trkpt lat="45.49982" lon="2.91321">
        <ele>1201.233733</ele>
        <time>2021-07-07T14:27:17+0200</time>
      </trkpt>
      <trkpt lat="45.4998" lon="2.91309">
        <ele>1201.430877</ele>
        <time>2021-07-07T14:27:19+0200</time>
      </trkpt>
      <trkpt lat="45.49979" lon="2.91298">
        <ele>1201.439841</ele>
        <time>2021-07-07T14:27:21+0200</time>
      </trkpt>
      <trkpt lat="45.49978" lon="2.91291">
        <ele>1201.404286</ele>
        <time>2021-07-07T14:27:22+0200</time>
      </trkpt>
      <trkpt lat="45.49977" lon="2.91279">
        <ele>1201.212104</ele>
        <time>2021-07-07T14:27:24+0200</time>
      </trkpt>
      <trkpt lat="45.49975" lon="2.91269">
        <ele>1201.205835</ele>
        <time>2021-07-07T14:27:26+0200</time>
      </trkpt>
      <trkpt lat="45.49974" lon="2.91261">
        <ele>1201.661028</ele>
        <time>2021-07-07T14:27:28+0200</time>
      </trkpt>
      <trkpt lat="45.49972" lon="2.91254">
        <ele>1202.319104</ele>
        <time>2021-07-07T14:27:31+0200</time>
      </trkpt>
      <trkpt lat="45.49971" lon="2.91247">
        <ele>1202.820484</ele>
        <time>2021-07-07T14:27:33+0200</time>
      </trkpt>
      <trkpt lat="45.4997" lon="2.9124">
        <ele>1202.855978</ele>
        <time>2021-07-07T14:27:35+0200</time>
      </trkpt>
      <trkpt lat="45.49969" lon="2.91232">
        <ele>1203.171467</ele>
        <time>2021-07-07T14:27:37+0200</time>
      </trkpt>
      <trkpt lat="45.49968" lon="2.91225">
        <ele>1203.537303</ele>
        <time>2021-07-07T14:27:39+0200</time>
      </trkpt>
      <trkpt lat="45.49967" lon="2.91218">
        <ele>1203.50112</ele>
        <time>2021-07-07T14:27:41+0200</time>
      </trkpt>
      <trkpt lat="45.49965" lon="2.91209">
        <ele>1203.788693</ele>
        <time>2021-07-07T14:27:44+0200</time>
      </trkpt>
      <trkpt lat="45.49964" lon="2.912">
        <ele>1203.94354</ele>
        <time>2021-07-07T14:27:48+0200</time>
      </trkpt>
      <trkpt lat="45.49962" lon="2.91191">
        <ele>1204.596775</ele>
        <time>2021-07-07T14:27:51+0200</time>
      </trkpt>
      <trkpt lat="45.4996" lon="2.91184">
        <ele>1204.742351</ele>
        <time>2021-07-07T14:27:53+0200</time>
      </trkpt>
      <trkpt lat="45.49959" lon="2.91178">
        <ele>1205.133837</ele>
        <time>2021-07-07T14:27:55+0200</time>
      </trkpt>
      <trkpt lat="45.49957" lon="2.91171">
        <ele>1205.722126</ele>
        <time>2021-07-07T14:27:57+0200</time>
      </trkpt>
      <trkpt lat="45.49957" lon="2.91165">
        <ele>1206.229034</ele>
        <time>2021-07-07T14:27:59+0200</time>
      </trkpt>
      <trkpt lat="45.49957" lon="2.91157">
        <ele>1206.340133</ele>
        <time>2021-07-07T14:28:01+0200</time>
      </trkpt>
      <trkpt lat="45.49956" lon="2.91149">
        <ele>1207.236085</ele>
        <time>2021-07-07T14:28:04+0200</time>
      </trkpt>
      <trkpt lat="45.49954" lon="2.91143">
        <ele>1207.483902</ele>
        <time>2021-07-07T14:28:06+0200</time>
      </trkpt>
      <trkpt lat="45.49952" lon="2.91136">
        <ele>1207.379157</ele>
        <time>2021-07-07T14:28:08+0200</time>
      </trkpt>
      <trkpt lat="45.49951" lon="2.91126">
        <ele>1207.790412</ele>
        <time>2021-07-07T14:28:11+0200</time>
      </trkpt>
      <trkpt lat="45.49948" lon="2.91119">
        <ele>1207.843979</ele>
        <time>2021-07-07T14:28:13+0200</time>
      </trkpt>
      <trkpt lat="45.49947" lon="2.91111">
        <ele>1207.486757</ele>
        <time>2021-07-07T14:28:15+0200</time>
      </trkpt>
      <trkpt lat="45.49946" lon="2.91102">
        <ele>1207.041607</ele>
        <time>2021-07-07T14:28:17+0200</time>
      </trkpt>
      <trkpt lat="45.49944" lon="2.91092">
        <ele>1207.133762</ele>
        <time>2021-07-07T14:28:19+0200</time>
      </trkpt>
      <trkpt lat="45.49943" lon="2.91085">
        <ele>1207.076398</ele>
        <time>2021-07-07T14:28:20+0200</time>
      </trkpt>
      <trkpt lat="45.49942" lon="2.91078">
        <ele>1207.058664</ele>
        <time>2021-07-07T14:28:21+0200</time>
      </trkpt>
      <trkpt lat="45.4994" lon="2.9107">
        <ele>1206.601419</ele>
        <time>2021-07-07T14:28:22+0200</time>
      </trkpt>
      <trkpt lat="45.49939" lon="2.91062">
        <ele>1206.353058</ele>
        <time>2021-07-07T14:28:23+0200</time>
      </trkpt>
      <trkpt lat="45.49938" lon="2.91054">
        <ele>1206.133174</ele>
        <time>2021-07-07T14:28:24+0200</time>
      </trkpt>
      <trkpt lat="45.49937" lon="2.91047">
        <ele>1205.950589</ele>
        <time>2021-07-07T14:28:25+0200</time>
      </trkpt>
      <trkpt lat="45.49935" lon="2.9104">
        <ele>1205.693259</ele>
        <time>2021-07-07T14:28:26+0200</time>
      </trkpt>
      <trkpt lat="45.49934" lon="2.91031">
        <ele>1205.262121</ele>
        <time>2021-07-07T14:28:27+0200</time>
      </trkpt>
      <trkpt lat="45.49933" lon="2.91024">
        <ele>1204.885396</ele>
        <time>2021-07-07T14:28:28+0200</time>
      </trkpt>
      <trkpt lat="45.49932" lon="2.91016">
        <ele>1204.884469</ele>
        <time>2021-07-07T14:28:29+0200</time>
      </trkpt>
      <trkpt lat="45.49931" lon="2.91009">
        <ele>1204.671527</ele>
        <time>2021-07-07T14:28:30+0200</time>
      </trkpt>
      <trkpt lat="45.49931" lon="2.91001">
        <ele>1204.790429</ele>
        <time>2021-07-07T14:28:30+0200</time>
      </trkpt>
      <trkpt lat="45.4993" lon="2.90995">
        <ele>1204.844514</ele>
        <time>2021-07-07T14:28:31+0200</time>
      </trkpt>
      <trkpt lat="45.49928" lon="2.90983">
        <ele>1205.1602</ele>
        <time>2021-07-07T14:28:33+0200</time>
      </trkpt>
      <trkpt lat="45.49928" lon="2.90974">
        <ele>1205.697906</ele>
        <time>2021-07-07T14:28:35+0200</time>
      </trkpt>
      <trkpt lat="45.49929" lon="2.90967">
        <ele>1206.552993</ele>
        <time>2021-07-07T14:28:37+0200</time>
      </trkpt>
      <trkpt lat="45.4993" lon="2.90959">
        <ele>1207.238621</ele>
        <time>2021-07-07T14:28:39+0200</time>
      </trkpt>
      <trkpt lat="45.49931" lon="2.90951">
        <ele>1207.461225</ele>
        <time>2021-07-07T14:28:41+0200</time>
      </trkpt>
      <trkpt lat="45.49935" lon="2.90946">
        <ele>1208.268253</ele>
        <time>2021-07-07T14:28:43+0200</time>
      </trkpt>
      <trkpt lat="45.49939" lon="2.9094">
        <ele>1208.031183</ele>
        <time>2021-07-07T14:28:46+0200</time>
      </trkpt>
      <trkpt lat="45.49941" lon="2.90934">
        <ele>1206.563091</ele>
        <time>2021-07-07T14:28:58+0200</time>
      </trkpt>
      <trkpt lat="45.49945" lon="2.90928">
        <ele>1207.096673</ele>
        <time>2021-07-07T14:29:09+0200</time>
      </trkpt>
      <trkpt lat="45.49948" lon="2.90921">
        <ele>1208.904113</ele>
        <time>2021-07-07T14:29:13+0200</time>
      </trkpt>
      <trkpt lat="45.4995" lon="2.90912">
        <ele>1208.991124</ele>
        <time>2021-07-07T14:29:16+0200</time>
      </trkpt>
      <trkpt lat="45.49951" lon="2.90904">
        <ele>1209.878231</ele>
        <time>2021-07-07T14:29:19+0200</time>
      </trkpt>
      <trkpt lat="45.49954" lon="2.90896">
        <ele>1211.54539</ele>
        <time>2021-07-07T14:29:22+0200</time>
      </trkpt>
      <trkpt lat="45.49959" lon="2.90892">
        <ele>1212.268762</ele>
        <time>2021-07-07T14:29:24+0200</time>
      </trkpt>
      <trkpt lat="45.49962" lon="2.90888">
        <ele>1212.303194</ele>
        <time>2021-07-07T14:29:26+0200</time>
      </trkpt>
      <trkpt lat="45.49966" lon="2.90884">
        <ele>1212.036791</ele>
        <time>2021-07-07T14:29:28+0200</time>
      </trkpt>
      <trkpt lat="45.49969" lon="2.90879">
        <ele>1212.57264</ele>
        <time>2021-07-07T14:29:30+0200</time>
      </trkpt>
      <trkpt lat="45.49967" lon="2.90872">
        <ele>1213.186089</ele>
        <time>2021-07-07T14:29:33+0200</time>
      </trkpt>
      <trkpt lat="45.49962" lon="2.90869">
        <ele>1213.873275</ele>
        <time>2021-07-07T14:29:35+0200</time>
      </trkpt>
      <trkpt lat="45.49955" lon="2.90869">
        <ele>1214.326832</ele>
        <time>2021-07-07T14:29:37+0200</time>
      </trkpt>
      <trkpt lat="45.4995" lon="2.90864">
        <ele>1214.757533</ele>
        <time>2021-07-07T14:29:41+0200</time>
      </trkpt>
      <trkpt lat="45.49945" lon="2.90862">
        <ele>1215.546124</ele>
        <time>2021-07-07T14:29:44+0200</time>
      </trkpt>
      <trkpt lat="45.49941" lon="2.90858">
        <ele>1216.343144</ele>
        <time>2021-07-07T14:29:47+0200</time>
      </trkpt>
      <trkpt lat="45.49936" lon="2.90854">
        <ele>1217.151451</ele>
        <time>2021-07-07T14:29:50+0200</time>
      </trkpt>
      <trkpt lat="45.49933" lon="2.9085">
        <ele>1217.756762</ele>
        <time>2021-07-07T14:29:52+0200</time>
      </trkpt>
      <trkpt lat="45.49929" lon="2.90845">
        <ele>1217.871525</ele>
        <time>2021-07-07T14:29:55+0200</time>
      </trkpt>
      <trkpt lat="45.49923" lon="2.90841">
        <ele>1218.603117</ele>
        <time>2021-07-07T14:29:58+0200</time>
      </trkpt>
      <trkpt lat="45.49918" lon="2.90835">
        <ele>1218.595924</ele>
        <time>2021-07-07T14:30:01+0200</time>
      </trkpt>
      <trkpt lat="45.49914" lon="2.90828">
        <ele>1219.184603</ele>
        <time>2021-07-07T14:30:04+0200</time>
      </trkpt>
      <trkpt lat="45.49909" lon="2.90822">
        <ele>1219.82733</ele>
        <time>2021-07-07T14:30:07+0200</time>
      </trkpt>
      <trkpt lat="45.49906" lon="2.90817">
        <ele>1219.894011</ele>
        <time>2021-07-07T14:30:09+0200</time>
      </trkpt>
      <trkpt lat="45.49903" lon="2.90812">
        <ele>1220.229995</ele>
        <time>2021-07-07T14:30:11+0200</time>
      </trkpt>
      <trkpt lat="45.499" lon="2.90806">
        <ele>1220.791009</ele>
        <time>2021-07-07T14:30:13+0200</time>
      </trkpt>
      <trkpt lat="45.49897" lon="2.908">
        <ele>1221.098382</ele>
        <time>2021-07-07T14:30:15+0200</time>
      </trkpt>
      <trkpt lat="45.49893" lon="2.90793">
        <ele>1221.214369</ele>
        <time>2021-07-07T14:30:17+0200</time>
      </trkpt>
      <trkpt lat="45.49891" lon="2.90786">
        <ele>1221.188253</ele>
        <time>2021-07-07T14:30:19+0200</time>
      </trkpt>
      <trkpt lat="45.49888" lon="2.90778">
        <ele>1221.156764</ele>
        <time>2021-07-07T14:30:21+0200</time>
      </trkpt>
      <trkpt lat="45.49885" lon="2.90771">
        <ele>1221.008628</ele>
        <time>2021-07-07T14:30:23+0200</time>
      </trkpt>
      <trkpt lat="45.49883" lon="2.90763">
        <ele>1221.404501</ele>
        <time>2021-07-07T14:30:25+0200</time>
      </trkpt>
      <trkpt lat="45.4988" lon="2.90756">
        <ele>1221.760006</ele>
        <time>2021-07-07T14:30:26+0200</time>
      </trkpt>
      <trkpt lat="45.49877" lon="2.90748">
        <ele>1221.984342</ele>
        <time>2021-07-07T14:30:28+0200</time>
      </trkpt>
      <trkpt lat="45.49874" lon="2.9074">
        <ele>1222.173883</ele>
        <time>2021-07-07T14:30:30+0200</time>
      </trkpt>
      <trkpt lat="45.4987" lon="2.90732">
        <ele>1222.373143</ele>
        <time>2021-07-07T14:30:33+0200</time>
      </trkpt>
      <trkpt lat="45.49866" lon="2.90725">
        <ele>1222.824957</ele>
        <time>2021-07-07T14:30:34+0200</time>
      </trkpt>
      <trkpt lat="45.49863" lon="2.90717">
        <ele>1223.68597</ele>
        <time>2021-07-07T14:30:36+0200</time>
      </trkpt>
      <trkpt lat="45.49859" lon="2.9071">
        <ele>1224.316958</ele>
        <time>2021-07-07T14:30:38+0200</time>
      </trkpt>
      <trkpt lat="45.49855" lon="2.90704">
        <ele>1225.123336</ele>
        <time>2021-07-07T14:30:40+0200</time>
      </trkpt>
      <trkpt lat="45.4985" lon="2.90698">
        <ele>1225.681861</ele>
        <time>2021-07-07T14:30:42+0200</time>
      </trkpt>
      <trkpt lat="45.49845" lon="2.90693">
        <ele>1225.963542</ele>
        <time>2021-07-07T14:30:44+0200</time>
      </trkpt>
      <trkpt lat="45.4984" lon="2.90686">
        <ele>1226.608013</ele>
        <time>2021-07-07T14:30:46+0200</time>
      </trkpt>
      <trkpt lat="45.49835" lon="2.9068">
        <ele>1227.421884</ele>
        <time>2021-07-07T14:30:48+0200</time>
      </trkpt>
      <trkpt lat="45.49831" lon="2.90674">
        <ele>1227.021085</ele>
        <time>2021-07-07T14:30:50+0200</time>
      </trkpt>
      <trkpt lat="45.49825" lon="2.90671">
        <ele>1227.209407</ele>
        <time>2021-07-07T14:30:52+0200</time>
      </trkpt>
      <trkpt lat="45.49819" lon="2.90666">
        <ele>1227.576132</ele>
        <time>2021-07-07T14:30:54+0200</time>
      </trkpt>
      <trkpt lat="45.49813" lon="2.90662">
        <ele>1227.622954</ele>
        <time>2021-07-07T14:30:56+0200</time>
      </trkpt>
      <trkpt lat="45.49807" lon="2.90658">
        <ele>1227.543713</ele>
        <time>2021-07-07T14:30:59+0200</time>
      </trkpt>
      <trkpt lat="45.498" lon="2.90654">
        <ele>1227.020599</ele>
        <time>2021-07-07T14:31:01+0200</time>
      </trkpt>
      <trkpt lat="45.49794" lon="2.9065">
        <ele>1227.138092</ele>
        <time>2021-07-07T14:31:03+0200</time>
      </trkpt>
      <trkpt lat="45.49787" lon="2.90645">
        <ele>1226.881088</ele>
        <time>2021-07-07T14:31:05+0200</time>
      </trkpt>
      <trkpt lat="45.49783" lon="2.90642">
        <ele>1227.264381</ele>
        <time>2021-07-07T14:31:06+0200</time>
      </trkpt>
      <trkpt lat="45.49775" lon="2.90638">
        <ele>1226.844701</ele>
        <time>2021-07-07T14:31:08+0200</time>
      </trkpt>
      <trkpt lat="45.49768" lon="2.90634">
        <ele>1226.799865</ele>
        <time>2021-07-07T14:31:10+0200</time>
      </trkpt>
      <trkpt lat="45.4976" lon="2.90629">
        <ele>1227.006948</ele>
        <time>2021-07-07T14:31:12+0200</time>
      </trkpt>
      <trkpt lat="45.49753" lon="2.90625">
        <ele>1227.899851</ele>
        <time>2021-07-07T14:31:14+0200</time>
      </trkpt>
      <trkpt lat="45.49746" lon="2.9062">
        <ele>1228.172359</ele>
        <time>2021-07-07T14:31:16+0200</time>
      </trkpt>
      <trkpt lat="45.49739" lon="2.90617">
        <ele>1228.471412</ele>
        <time>2021-07-07T14:31:18+0200</time>
      </trkpt>
      <trkpt lat="45.49731" lon="2.90612">
        <ele>1228.714469</ele>
        <time>2021-07-07T14:31:20+0200</time>
      </trkpt>
      <trkpt lat="45.49724" lon="2.90607">
        <ele>1228.692185</ele>
        <time>2021-07-07T14:31:22+0200</time>
      </trkpt>
      <trkpt lat="45.49717" lon="2.90602">
        <ele>1229.279121</ele>
        <time>2021-07-07T14:31:24+0200</time>
      </trkpt>
      <trkpt lat="45.4971" lon="2.90598">
        <ele>1229.815498</ele>
        <time>2021-07-07T14:31:26+0200</time>
      </trkpt>
      <trkpt lat="45.49702" lon="2.90592">
        <ele>1229.822231</ele>
        <time>2021-07-07T14:31:28+0200</time>
      </trkpt>
      <trkpt lat="45.49695" lon="2.90588">
        <ele>1229.953889</ele>
        <time>2021-07-07T14:31:30+0200</time>
      </trkpt>
      <trkpt lat="45.49688" lon="2.90584">
        <ele>1229.936434</ele>
        <time>2021-07-07T14:31:32+0200</time>
      </trkpt>
      <trkpt lat="45.49681" lon="2.90579">
        <ele>1230.125311</ele>
        <time>2021-07-07T14:31:34+0200</time>
      </trkpt>
      <trkpt lat="45.49674" lon="2.90576">
        <ele>1230.137068</ele>
        <time>2021-07-07T14:31:36+0200</time>
      </trkpt>
      <trkpt lat="45.49669" lon="2.90572">
        <ele>1230.63495</ele>
        <time>2021-07-07T14:31:38+0200</time>
      </trkpt>
      <trkpt lat="45.49663" lon="2.90567">
        <ele>1230.908228</ele>
        <time>2021-07-07T14:31:40+0200</time>
      </trkpt>
      <trkpt lat="45.49656" lon="2.90562">
        <ele>1230.86874</ele>
        <time>2021-07-07T14:31:42+0200</time>
      </trkpt>
      <trkpt lat="45.4965" lon="2.90558">
        <ele>1231.374197</ele>
        <time>2021-07-07T14:31:44+0200</time>
      </trkpt>
      <trkpt lat="45.49643" lon="2.90554">
        <ele>1231.61483</ele>
        <time>2021-07-07T14:31:46+0200</time>
      </trkpt>
      <trkpt lat="45.49638" lon="2.90548">
        <ele>1231.897793</ele>
        <time>2021-07-07T14:31:48+0200</time>
      </trkpt>
      <trkpt lat="45.49633" lon="2.90541">
        <ele>1232.466999</ele>
        <time>2021-07-07T14:31:50+0200</time>
      </trkpt>
      <trkpt lat="45.49628" lon="2.90535">
        <ele>1233.14651</ele>
        <time>2021-07-07T14:31:52+0200</time>
      </trkpt>
      <trkpt lat="45.49623" lon="2.90527">
        <ele>1233.147537</ele>
        <time>2021-07-07T14:31:54+0200</time>
      </trkpt>
      <trkpt lat="45.49617" lon="2.9052">
        <ele>1233.108347</ele>
        <time>2021-07-07T14:31:56+0200</time>
      </trkpt>
      <trkpt lat="45.49612" lon="2.90514">
        <ele>1232.340149</ele>
        <time>2021-07-07T14:31:58+0200</time>
      </trkpt>
      <trkpt lat="45.49609" lon="2.90506">
        <ele>1233.828551</ele>
        <time>2021-07-07T14:32:00+0200</time>
      </trkpt>
      <trkpt lat="45.49603" lon="2.90501">
        <ele>1234.252854</ele>
        <time>2021-07-07T14:32:02+0200</time>
      </trkpt>
      <trkpt lat="45.49598" lon="2.90497">
        <ele>1234.963137</ele>
        <time>2021-07-07T14:32:04+0200</time>
      </trkpt>
      <trkpt lat="45.49594" lon="2.90491">
        <ele>1235.306814</ele>
        <time>2021-07-07T14:32:06+0200</time>
      </trkpt>
      <trkpt lat="45.49591" lon="2.90485">
        <ele>1235.712537</ele>
        <time>2021-07-07T14:32:08+0200</time>
      </trkpt>
      <trkpt lat="45.49586" lon="2.90479">
        <ele>1236.3763</ele>
        <time>2021-07-07T14:32:10+0200</time>
      </trkpt>
      <trkpt lat="45.49581" lon="2.90473">
        <ele>1236.758631</ele>
        <time>2021-07-07T14:32:13+0200</time>
      </trkpt>
      <trkpt lat="45.49576" lon="2.90465">
        <ele>1237.561582</ele>
        <time>2021-07-07T14:32:16+0200</time>
      </trkpt>
      <trkpt lat="45.49573" lon="2.90461">
        <ele>1238.075157</ele>
        <time>2021-07-07T14:32:18+0200</time>
      </trkpt>
      <trkpt lat="45.49568" lon="2.90453">
        <ele>1238.273047</ele>
        <time>2021-07-07T14:32:21+0200</time>
      </trkpt>
      <trkpt lat="45.49565" lon="2.90448">
        <ele>1238.675732</ele>
        <time>2021-07-07T14:32:23+0200</time>
      </trkpt>
      <trkpt lat="45.49562" lon="2.90442">
        <ele>1239.153106</ele>
        <time>2021-07-07T14:32:25+0200</time>
      </trkpt>
      <trkpt lat="45.49558" lon="2.90436">
        <ele>1239.807676</ele>
        <time>2021-07-07T14:32:28+0200</time>
      </trkpt>
      <trkpt lat="45.49555" lon="2.9043">
        <ele>1239.318367</ele>
        <time>2021-07-07T14:32:31+0200</time>
      </trkpt>
      <trkpt lat="45.49551" lon="2.90424">
        <ele>1239.505793</ele>
        <time>2021-07-07T14:32:34+0200</time>
      </trkpt>
      <trkpt lat="45.49548" lon="2.90417">
        <ele>1240.593562</ele>
        <time>2021-07-07T14:32:37+0200</time>
      </trkpt>
      <trkpt lat="45.49544" lon="2.90412">
        <ele>1241.653048</ele>
        <time>2021-07-07T14:32:40+0200</time>
      </trkpt>
      <trkpt lat="45.4954" lon="2.90407">
        <ele>1242.940953</ele>
        <time>2021-07-07T14:32:43+0200</time>
      </trkpt>
      <trkpt lat="45.49537" lon="2.90399">
        <ele>1244.211563</ele>
        <time>2021-07-07T14:32:47+0200</time>
      </trkpt>
      <trkpt lat="45.49532" lon="2.90395">
        <ele>1245.248193</ele>
        <time>2021-07-07T14:32:50+0200</time>
      </trkpt>
      <trkpt lat="45.49529" lon="2.90389">
        <ele>1246.062845</ele>
        <time>2021-07-07T14:32:53+0200</time>
      </trkpt>
      <trkpt lat="45.49525" lon="2.90384">
        <ele>1247.717725</ele>
        <time>2021-07-07T14:32:58+0200</time>
      </trkpt>
      <trkpt lat="45.49521" lon="2.90377">
        <ele>1249.267628</ele>
        <time>2021-07-07T14:33:02+0200</time>
      </trkpt>
      <trkpt lat="45.49517" lon="2.90372">
        <ele>1248.998206</ele>
        <time>2021-07-07T14:33:05+0200</time>
      </trkpt>
      <trkpt lat="45.49513" lon="2.90366">
        <ele>1249.156697</ele>
        <time>2021-07-07T14:33:08+0200</time>
      </trkpt>
      <trkpt lat="45.49509" lon="2.9036">
        <ele>1249.630358</ele>
        <time>2021-07-07T14:33:11+0200</time>
      </trkpt>
      <trkpt lat="45.49505" lon="2.90355">
        <ele>1250.029569</ele>
        <time>2021-07-07T14:33:14+0200</time>
      </trkpt>
      <trkpt lat="45.49501" lon="2.90349">
        <ele>1250.738164</ele>
        <time>2021-07-07T14:33:17+0200</time>
      </trkpt>
      <trkpt lat="45.49497" lon="2.90345">
        <ele>1250.861991</ele>
        <time>2021-07-07T14:33:20+0200</time>
      </trkpt>
      <trkpt lat="45.49492" lon="2.90337">
        <ele>1251.544289</ele>
        <time>2021-07-07T14:33:24+0200</time>
      </trkpt>
      <trkpt lat="45.49488" lon="2.90332">
        <ele>1252.856793</ele>
        <time>2021-07-07T14:33:27+0200</time>
      </trkpt>
      <trkpt lat="45.49484" lon="2.90327">
        <ele>1252.858315</ele>
        <time>2021-07-07T14:33:29+0200</time>
      </trkpt>
      <trkpt lat="45.4948" lon="2.90322">
        <ele>1253.446658</ele>
        <time>2021-07-07T14:33:32+0200</time>
      </trkpt>
      <trkpt lat="45.49476" lon="2.90318">
        <ele>1254.204151</ele>
        <time>2021-07-07T14:33:35+0200</time>
      </trkpt>
      <trkpt lat="45.49473" lon="2.90313">
        <ele>1255.302411</ele>
        <time>2021-07-07T14:33:38+0200</time>
      </trkpt>
      <trkpt lat="45.49469" lon="2.90307">
        <ele>1256.095743</ele>
        <time>2021-07-07T14:33:42+0200</time>
      </trkpt>
      <trkpt lat="45.49465" lon="2.90303">
        <ele>1256.731103</ele>
        <time>2021-07-07T14:33:45+0200</time>
      </trkpt>
      <trkpt lat="45.4946" lon="2.90299">
        <ele>1258.423473</ele>
        <time>2021-07-07T14:33:49+0200</time>
      </trkpt>
      <trkpt lat="45.49456" lon="2.90293">
        <ele>1259.624567</ele>
        <time>2021-07-07T14:33:53+0200</time>
      </trkpt>
      <trkpt lat="45.49451" lon="2.90288">
        <ele>1259.863286</ele>
        <time>2021-07-07T14:33:57+0200</time>
      </trkpt>
      <trkpt lat="45.49447" lon="2.90284">
        <ele>1260.811305</ele>
        <time>2021-07-07T14:34:01+0200</time>
      </trkpt>
      <trkpt lat="45.49441" lon="2.90283">
        <ele>1260.54605</ele>
        <time>2021-07-07T14:34:05+0200</time>
      </trkpt>
      <trkpt lat="45.49437" lon="2.90279">
        <ele>1259.723375</ele>
        <time>2021-07-07T14:34:17+0200</time>
      </trkpt>
      <trkpt lat="45.49442" lon="2.9028">
        <ele>1259.018399</ele>
        <time>2021-07-07T14:34:28+0200</time>
      </trkpt>
      <trkpt lat="45.49439" lon="2.90285">
        <ele>1260.156179</ele>
        <time>2021-07-07T14:35:10+0200</time>
      </trkpt>
      <trkpt lat="45.49443" lon="2.90286">
        <ele>1259.412195</ele>
        <time>2021-07-07T14:35:52+0200</time>
      </trkpt>
      <trkpt lat="45.49449" lon="2.90286">
        <ele>1259.223765</ele>
        <time>2021-07-07T14:35:55+0200</time>
      </trkpt>
      <trkpt lat="45.49455" lon="2.90285">
        <ele>1258.750127</ele>
        <time>2021-07-07T14:35:58+0200</time>
      </trkpt>
      <trkpt lat="45.49454" lon="2.90278">
        <ele>1258.567192</ele>
        <time>2021-07-07T14:36:01+0200</time>
      </trkpt>
      <trkpt lat="45.49448" lon="2.90275">
        <ele>1258.236393</ele>
        <time>2021-07-07T14:36:05+0200</time>
      </trkpt>
      <trkpt lat="45.49444" lon="2.9027">
        <ele>1259.338923</ele>
        <time>2021-07-07T14:36:08+0200</time>
      </trkpt>
      <trkpt lat="45.49441" lon="2.90265">
        <ele>1259.381054</ele>
        <time>2021-07-07T14:36:10+0200</time>
      </trkpt>
      <trkpt lat="45.49438" lon="2.90259">
        <ele>1259.711508</ele>
        <time>2021-07-07T14:36:13+0200</time>
      </trkpt>
      <trkpt lat="45.49435" lon="2.90253">
        <ele>1259.125567</ele>
        <time>2021-07-07T14:36:16+0200</time>
      </trkpt>
      <trkpt lat="45.49429" lon="2.90248">
        <ele>1258.889275</ele>
        <time>2021-07-07T14:36:19+0200</time>
      </trkpt>
      <trkpt lat="45.49425" lon="2.90242">
        <ele>1259.174785</ele>
        <time>2021-07-07T14:36:22+0200</time>
      </trkpt>
      <trkpt lat="45.4942" lon="2.90237">
        <ele>1258.848445</ele>
        <time>2021-07-07T14:36:25+0200</time>
      </trkpt>
      <trkpt lat="45.49415" lon="2.9023">
        <ele>1260.026032</ele>
        <time>2021-07-07T14:36:28+0200</time>
      </trkpt>
      <trkpt lat="45.49411" lon="2.90226">
        <ele>1259.822065</ele>
        <time>2021-07-07T14:36:30+0200</time>
      </trkpt>
      <trkpt lat="45.49407" lon="2.90222">
        <ele>1259.430428</ele>
        <time>2021-07-07T14:36:32+0200</time>
      </trkpt>
      <trkpt lat="45.49403" lon="2.90218">
        <ele>1258.700551</ele>
        <time>2021-07-07T14:36:34+0200</time>
      </trkpt>
      <trkpt lat="45.49395" lon="2.90212">
        <ele>1257.661722</ele>
        <time>2021-07-07T14:36:36+0200</time>
      </trkpt>
      <trkpt lat="45.49391" lon="2.90207">
        <ele>1257.353034</ele>
        <time>2021-07-07T14:36:37+0200</time>
      </trkpt>
      <trkpt lat="45.49386" lon="2.90201">
        <ele>1256.795792</ele>
        <time>2021-07-07T14:36:38+0200</time>
      </trkpt>
      <trkpt lat="45.49382" lon="2.90194">
        <ele>1256.093668</ele>
        <time>2021-07-07T14:36:39+0200</time>
      </trkpt>
      <trkpt lat="45.49378" lon="2.90186">
        <ele>1255.653807</ele>
        <time>2021-07-07T14:36:40+0200</time>
      </trkpt>
      <trkpt lat="45.49375" lon="2.90175">
        <ele>1255.108643</ele>
        <time>2021-07-07T14:36:41+0200</time>
      </trkpt>
      <trkpt lat="45.49374" lon="2.90165">
        <ele>1254.103167</ele>
        <time>2021-07-07T14:36:42+0200</time>
      </trkpt>
      <trkpt lat="45.49373" lon="2.90154">
        <ele>1253.42394</ele>
        <time>2021-07-07T14:36:43+0200</time>
      </trkpt>
      <trkpt lat="45.49373" lon="2.90144">
        <ele>1252.529424</ele>
        <time>2021-07-07T14:36:44+0200</time>
      </trkpt>
      <trkpt lat="45.49371" lon="2.90134">
        <ele>1251.716478</ele>
        <time>2021-07-07T14:36:45+0200</time>
      </trkpt>
      <trkpt lat="45.49369" lon="2.90123">
        <ele>1250.263484</ele>
        <time>2021-07-07T14:36:46+0200</time>
      </trkpt>
      <trkpt lat="45.49369" lon="2.90112">
        <ele>1249.169212</ele>
        <time>2021-07-07T14:36:47+0200</time>
      </trkpt>
      <trkpt lat="45.49368" lon="2.90102">
        <ele>1248.508098</ele>
        <time>2021-07-07T14:36:48+0200</time>
      </trkpt>
      <trkpt lat="45.49365" lon="2.90092">
        <ele>1247.732656</ele>
        <time>2021-07-07T14:36:49+0200</time>
      </trkpt>
      <trkpt lat="45.49363" lon="2.90083">
        <ele>1247.287103</ele>
        <time>2021-07-07T14:36:50+0200</time>
      </trkpt>
      <trkpt lat="45.49359" lon="2.90074">
        <ele>1246.865575</ele>
        <time>2021-07-07T14:36:51+0200</time>
      </trkpt>
      <trkpt lat="45.49356" lon="2.90066">
        <ele>1246.728285</ele>
        <time>2021-07-07T14:36:52+0200</time>
      </trkpt>
      <trkpt lat="45.49351" lon="2.90058">
        <ele>1246.575548</ele>
        <time>2021-07-07T14:36:53+0200</time>
      </trkpt>
      <trkpt lat="45.49345" lon="2.90053">
        <ele>1246.160557</ele>
        <time>2021-07-07T14:36:54+0200</time>
      </trkpt>
      <trkpt lat="45.49341" lon="2.9005">
        <ele>1245.718172</ele>
        <time>2021-07-07T14:36:55+0200</time>
      </trkpt>
      <trkpt lat="45.49337" lon="2.90048">
        <ele>1246.863281</ele>
        <time>2021-07-07T14:38:27+0200</time>
      </trkpt>
      <trkpt lat="45.49335" lon="2.90039">
        <ele>1245.13687</ele>
        <time>2021-07-07T14:38:38+0200</time>
      </trkpt>
      <trkpt lat="45.49332" lon="2.90033">
        <ele>1245.601679</ele>
        <time>2021-07-07T14:38:40+0200</time>
      </trkpt>
      <trkpt lat="45.4933" lon="2.90025">
        <ele>1246.157693</ele>
        <time>2021-07-07T14:38:42+0200</time>
      </trkpt>
      <trkpt lat="45.49328" lon="2.90017">
        <ele>1246.143036</ele>
        <time>2021-07-07T14:38:44+0200</time>
      </trkpt>
      <trkpt lat="45.49327" lon="2.90008">
        <ele>1246.05298</ele>
        <time>2021-07-07T14:38:46+0200</time>
      </trkpt>
      <trkpt lat="45.49327" lon="2.9">
        <ele>1246.042859</ele>
        <time>2021-07-07T14:38:48+0200</time>
      </trkpt>
      <trkpt lat="45.49327" lon="2.89992">
        <ele>1245.889415</ele>
        <time>2021-07-07T14:38:50+0200</time>
      </trkpt>
      <trkpt lat="45.49328" lon="2.89983">
        <ele>1245.712572</ele>
        <time>2021-07-07T14:38:52+0200</time>
      </trkpt>
      <trkpt lat="45.49329" lon="2.89974">
        <ele>1245.613611</ele>
        <time>2021-07-07T14:38:54+0200</time>
      </trkpt>
      <trkpt lat="45.49329" lon="2.89966">
        <ele>1245.694595</ele>
        <time>2021-07-07T14:38:56+0200</time>
      </trkpt>
      <trkpt lat="45.4933" lon="2.89957">
        <ele>1246.31087</ele>
        <time>2021-07-07T14:38:58+0200</time>
      </trkpt>
      <trkpt lat="45.4933" lon="2.89948">
        <ele>1246.746973</ele>
        <time>2021-07-07T14:39:00+0200</time>
      </trkpt>
      <trkpt lat="45.49331" lon="2.8994">
        <ele>1247.317879</ele>
        <time>2021-07-07T14:39:02+0200</time>
      </trkpt>
      <trkpt lat="45.49332" lon="2.89933">
        <ele>1247.968012</ele>
        <time>2021-07-07T14:39:04+0200</time>
      </trkpt>
      <trkpt lat="45.49331" lon="2.89926">
        <ele>1247.996343</ele>
        <time>2021-07-07T14:39:06+0200</time>
      </trkpt>
      <trkpt lat="45.49332" lon="2.89918">
        <ele>1248.089508</ele>
        <time>2021-07-07T14:39:08+0200</time>
      </trkpt>
      <trkpt lat="45.49332" lon="2.89911">
        <ele>1248.212329</ele>
        <time>2021-07-07T14:39:10+0200</time>
      </trkpt>
      <trkpt lat="45.49332" lon="2.89903">
        <ele>1248.417455</ele>
        <time>2021-07-07T14:39:12+0200</time>
      </trkpt>
      <trkpt lat="45.49333" lon="2.89896">
        <ele>1248.185322</ele>
        <time>2021-07-07T14:39:14+0200</time>
      </trkpt>
      <trkpt lat="45.49333" lon="2.89888">
        <ele>1248.358857</ele>
        <time>2021-07-07T14:39:16+0200</time>
      </trkpt>
      <trkpt lat="45.49335" lon="2.89878">
        <ele>1248.152357</ele>
        <time>2021-07-07T14:39:18+0200</time>
      </trkpt>
      <trkpt lat="45.49335" lon="2.89872">
        <ele>1248.273811</ele>
        <time>2021-07-07T14:39:20+0200</time>
      </trkpt>
      <trkpt lat="45.49335" lon="2.89865">
        <ele>1248.791782</ele>
        <time>2021-07-07T14:39:22+0200</time>
      </trkpt>
      <trkpt lat="45.49337" lon="2.89857">
        <ele>1249.304366</ele>
        <time>2021-07-07T14:39:24+0200</time>
      </trkpt>
      <trkpt lat="45.49337" lon="2.89849">
        <ele>1249.096345</ele>
        <time>2021-07-07T14:39:26+0200</time>
      </trkpt>
      <trkpt lat="45.49339" lon="2.89841">
        <ele>1249.402751</ele>
        <time>2021-07-07T14:39:28+0200</time>
      </trkpt>
      <trkpt lat="45.4934" lon="2.89834">
        <ele>1250.111375</ele>
        <time>2021-07-07T14:39:30+0200</time>
      </trkpt>
      <trkpt lat="45.4934" lon="2.89826">
        <ele>1250.740655</ele>
        <time>2021-07-07T14:39:32+0200</time>
      </trkpt>
      <trkpt lat="45.49341" lon="2.8982">
        <ele>1251.178597</ele>
        <time>2021-07-07T14:39:34+0200</time>
      </trkpt>
      <trkpt lat="45.49342" lon="2.89813">
        <ele>1252.017628</ele>
        <time>2021-07-07T14:39:36+0200</time>
      </trkpt>
      <trkpt lat="45.49342" lon="2.89807">
        <ele>1252.227617</ele>
        <time>2021-07-07T14:39:38+0200</time>
      </trkpt>
      <trkpt lat="45.49341" lon="2.89798">
        <ele>1252.283801</ele>
        <time>2021-07-07T14:39:41+0200</time>
      </trkpt>
      <trkpt lat="45.49339" lon="2.8979">
        <ele>1252.90759</ele>
        <time>2021-07-07T14:39:44+0200</time>
      </trkpt>
      <trkpt lat="45.49339" lon="2.89783">
        <ele>1253.971964</ele>
        <time>2021-07-07T14:39:47+0200</time>
      </trkpt>
      <trkpt lat="45.49338" lon="2.89776">
        <ele>1254.662403</ele>
        <time>2021-07-07T14:39:51+0200</time>
      </trkpt>
      <trkpt lat="45.49341" lon="2.8977">
        <ele>1254.753013</ele>
        <time>2021-07-07T14:40:23+0200</time>
      </trkpt>
      <trkpt lat="45.49344" lon="2.89765">
        <ele>1254.5704</ele>
        <time>2021-07-07T14:41:00+0200</time>
      </trkpt>
      <trkpt lat="45.49349" lon="2.89763">
        <ele>1254.446737</ele>
        <time>2021-07-07T14:41:02+0200</time>
      </trkpt>
      <trkpt lat="45.49354" lon="2.89759">
        <ele>1255.101619</ele>
        <time>2021-07-07T14:41:05+0200</time>
      </trkpt>
      <trkpt lat="45.49358" lon="2.89755">
        <ele>1255.797973</ele>
        <time>2021-07-07T14:41:08+0200</time>
      </trkpt>
      <trkpt lat="45.49359" lon="2.89747">
        <ele>1256.738246</ele>
        <time>2021-07-07T14:41:11+0200</time>
      </trkpt>
      <trkpt lat="45.4936" lon="2.89739">
        <ele>1257.932724</ele>
        <time>2021-07-07T14:41:14+0200</time>
      </trkpt>
      <trkpt lat="45.49362" lon="2.89731">
        <ele>1257.595846</ele>
        <time>2021-07-07T14:41:16+0200</time>
      </trkpt>
      <trkpt lat="45.49364" lon="2.89723">
        <ele>1257.857018</ele>
        <time>2021-07-07T14:41:18+0200</time>
      </trkpt>
      <trkpt lat="45.49366" lon="2.89717">
        <ele>1257.895687</ele>
        <time>2021-07-07T14:41:20+0200</time>
      </trkpt>
      <trkpt lat="45.49367" lon="2.89708">
        <ele>1257.976058</ele>
        <time>2021-07-07T14:41:22+0200</time>
      </trkpt>
      <trkpt lat="45.49368" lon="2.897">
        <ele>1258.671032</ele>
        <time>2021-07-07T14:41:24+0200</time>
      </trkpt>
      <trkpt lat="45.4937" lon="2.89691">
        <ele>1258.840771</ele>
        <time>2021-07-07T14:41:26+0200</time>
      </trkpt>
      <trkpt lat="45.49371" lon="2.89683">
        <ele>1259.151888</ele>
        <time>2021-07-07T14:41:28+0200</time>
      </trkpt>
      <trkpt lat="45.49372" lon="2.89674">
        <ele>1259.123423</ele>
        <time>2021-07-07T14:41:30+0200</time>
      </trkpt>
      <trkpt lat="45.49374" lon="2.89666">
        <ele>1259.384008</ele>
        <time>2021-07-07T14:41:32+0200</time>
      </trkpt>
      <trkpt lat="45.49374" lon="2.89658">
        <ele>1259.384258</ele>
        <time>2021-07-07T14:41:34+0200</time>
      </trkpt>
      <trkpt lat="45.49376" lon="2.89651">
        <ele>1259.845327</ele>
        <time>2021-07-07T14:41:36+0200</time>
      </trkpt>
      <trkpt lat="45.49377" lon="2.89643">
        <ele>1260.298951</ele>
        <time>2021-07-07T14:41:38+0200</time>
      </trkpt>
      <trkpt lat="45.49378" lon="2.89636">
        <ele>1260.197358</ele>
        <time>2021-07-07T14:41:40+0200</time>
      </trkpt>
      <trkpt lat="45.49378" lon="2.89629">
        <ele>1260.065062</ele>
        <time>2021-07-07T14:41:42+0200</time>
      </trkpt>
      <trkpt lat="45.49378" lon="2.89621">
        <ele>1260.78933</ele>
        <time>2021-07-07T14:41:44+0200</time>
      </trkpt>
      <trkpt lat="45.49378" lon="2.89614">
        <ele>1262.288806</ele>
        <time>2021-07-07T14:41:46+0200</time>
      </trkpt>
      <trkpt lat="45.4938" lon="2.89607">
        <ele>1262.051921</ele>
        <time>2021-07-07T14:41:48+0200</time>
      </trkpt>
      <trkpt lat="45.4938" lon="2.89598">
        <ele>1261.939532</ele>
        <time>2021-07-07T14:41:50+0200</time>
      </trkpt>
      <trkpt lat="45.49379" lon="2.89589">
        <ele>1261.919271</ele>
        <time>2021-07-07T14:41:52+0200</time>
      </trkpt>
      <trkpt lat="45.49378" lon="2.89581">
        <ele>1262.553486</ele>
        <time>2021-07-07T14:41:54+0200</time>
      </trkpt>
      <trkpt lat="45.49378" lon="2.89573">
        <ele>1263.23625</ele>
        <time>2021-07-07T14:41:56+0200</time>
      </trkpt>
      <trkpt lat="45.49376" lon="2.89566">
        <ele>1263.709553</ele>
        <time>2021-07-07T14:41:58+0200</time>
      </trkpt>
      <trkpt lat="45.49376" lon="2.89559">
        <ele>1264.362349</ele>
        <time>2021-07-07T14:42:01+0200</time>
      </trkpt>
      <trkpt lat="45.49378" lon="2.89553">
        <ele>1263.878798</ele>
        <time>2021-07-07T14:42:13+0200</time>
      </trkpt>
      <trkpt lat="45.49378" lon="2.89544">
        <ele>1264.143753</ele>
        <time>2021-07-07T14:42:16+0200</time>
      </trkpt>
      <trkpt lat="45.49377" lon="2.89534">
        <ele>1264.487589</ele>
        <time>2021-07-07T14:42:19+0200</time>
      </trkpt>
      <trkpt lat="45.49377" lon="2.89527">
        <ele>1265.167454</ele>
        <time>2021-07-07T14:42:21+0200</time>
      </trkpt>
      <trkpt lat="45.49375" lon="2.8952">
        <ele>1265.803022</ele>
        <time>2021-07-07T14:42:23+0200</time>
      </trkpt>
      <trkpt lat="45.49375" lon="2.89511">
        <ele>1266.604878</ele>
        <time>2021-07-07T14:42:26+0200</time>
      </trkpt>
      <trkpt lat="45.49375" lon="2.89505">
        <ele>1266.928133</ele>
        <time>2021-07-07T14:42:28+0200</time>
      </trkpt>
      <trkpt lat="45.49377" lon="2.89496">
        <ele>1267.470786</ele>
        <time>2021-07-07T14:42:31+0200</time>
      </trkpt>
      <trkpt lat="45.49377" lon="2.89489">
        <ele>1267.632151</ele>
        <time>2021-07-07T14:42:33+0200</time>
      </trkpt>
      <trkpt lat="45.49377" lon="2.89482">
        <ele>1268.260694</ele>
        <time>2021-07-07T14:42:35+0200</time>
      </trkpt>
      <trkpt lat="45.49377" lon="2.89475">
        <ele>1267.953309</ele>
        <time>2021-07-07T14:42:37+0200</time>
      </trkpt>
      <trkpt lat="45.49376" lon="2.89468">
        <ele>1267.876214</ele>
        <time>2021-07-07T14:42:39+0200</time>
      </trkpt>
      <trkpt lat="45.49376" lon="2.89459">
        <ele>1268.344777</ele>
        <time>2021-07-07T14:42:42+0200</time>
      </trkpt>
      <trkpt lat="45.49375" lon="2.89451">
        <ele>1269.140822</ele>
        <time>2021-07-07T14:42:45+0200</time>
      </trkpt>
      <trkpt lat="45.49374" lon="2.89441">
        <ele>1269.126564</ele>
        <time>2021-07-07T14:42:48+0200</time>
      </trkpt>
      <trkpt lat="45.49371" lon="2.89434">
        <ele>1269.267146</ele>
        <time>2021-07-07T14:42:51+0200</time>
      </trkpt>
      <trkpt lat="45.4937" lon="2.89425">
        <ele>1270.768561</ele>
        <time>2021-07-07T14:42:54+0200</time>
      </trkpt>
      <trkpt lat="45.49368" lon="2.89417">
        <ele>1271.536844</ele>
        <time>2021-07-07T14:42:57+0200</time>
      </trkpt>
      <trkpt lat="45.49365" lon="2.89409">
        <ele>1271.495329</ele>
        <time>2021-07-07T14:43:00+0200</time>
      </trkpt>
      <trkpt lat="45.49364" lon="2.89401">
        <ele>1270.998176</ele>
        <time>2021-07-07T14:43:03+0200</time>
      </trkpt>
      <trkpt lat="45.49361" lon="2.89395">
        <ele>1270.596448</ele>
        <time>2021-07-07T14:43:05+0200</time>
      </trkpt>
      <trkpt lat="45.49357" lon="2.89387">
        <ele>1270.7122</ele>
        <time>2021-07-07T14:43:08+0200</time>
      </trkpt>
      <trkpt lat="45.49355" lon="2.89382">
        <ele>1271.015985</ele>
        <time>2021-07-07T14:43:10+0200</time>
      </trkpt>
      <trkpt lat="45.49351" lon="2.89375">
        <ele>1271.044661</ele>
        <time>2021-07-07T14:43:13+0200</time>
      </trkpt>
      <trkpt lat="45.49348" lon="2.89369">
        <ele>1271.557379</ele>
        <time>2021-07-07T14:43:16+0200</time>
      </trkpt>
      <trkpt lat="45.49349" lon="2.89361">
        <ele>1271.45148</ele>
        <time>2021-07-07T14:43:20+0200</time>
      </trkpt>
      <trkpt lat="45.49351" lon="2.89353">
        <ele>1272.144554</ele>
        <time>2021-07-07T14:43:24+0200</time>
      </trkpt>
      <trkpt lat="45.4935" lon="2.89346">
        <ele>1271.477419</ele>
        <time>2021-07-07T14:43:29+0200</time>
      </trkpt>
      <trkpt lat="45.49356" lon="2.89346">
        <ele>1272.324916</ele>
        <time>2021-07-07T14:43:36+0200</time>
      </trkpt>
      <trkpt lat="45.49358" lon="2.89339">
        <ele>1271.895809</ele>
        <time>2021-07-07T14:43:40+0200</time>
      </trkpt>
      <trkpt lat="45.49358" lon="2.89333">
        <ele>1271.839049</ele>
        <time>2021-07-07T14:43:43+0200</time>
      </trkpt>
      <trkpt lat="45.49359" lon="2.89326">
        <ele>1268.121161</ele>
        <time>2021-07-07T14:45:57+0200</time>
      </trkpt>
      <trkpt lat="45.49353" lon="2.89326">
        <ele>1268.593184</ele>
        <time>2021-07-07T14:46:04+0200</time>
      </trkpt>
      <trkpt lat="45.49348" lon="2.89326">
        <ele>1269.084794</ele>
        <time>2021-07-07T14:46:08+0200</time>
      </trkpt>
      <trkpt lat="45.49345" lon="2.89322">
        <ele>1269.48403</ele>
        <time>2021-07-07T14:46:11+0200</time>
      </trkpt>
      <trkpt lat="45.4934" lon="2.89319">
        <ele>1270.209592</ele>
        <time>2021-07-07T14:46:14+0200</time>
      </trkpt>
      <trkpt lat="45.49334" lon="2.89317">
        <ele>1269.970385</ele>
        <time>2021-07-07T14:46:17+0200</time>
      </trkpt>
      <trkpt lat="45.49329" lon="2.89315">
        <ele>1270.049484</ele>
        <time>2021-07-07T14:46:19+0200</time>
      </trkpt>
      <trkpt lat="45.49325" lon="2.89312">
        <ele>1270.300156</ele>
        <time>2021-07-07T14:46:21+0200</time>
      </trkpt>
      <trkpt lat="45.4932" lon="2.8931">
        <ele>1270.769816</ele>
        <time>2021-07-07T14:46:23+0200</time>
      </trkpt>
      <trkpt lat="45.49316" lon="2.89306">
        <ele>1270.538796</ele>
        <time>2021-07-07T14:46:25+0200</time>
      </trkpt>
      <trkpt lat="45.49311" lon="2.89302">
        <ele>1270.077258</ele>
        <time>2021-07-07T14:46:28+0200</time>
      </trkpt>
      <trkpt lat="45.49307" lon="2.89299">
        <ele>1270.336504</ele>
        <time>2021-07-07T14:46:30+0200</time>
      </trkpt>
      <trkpt lat="45.49302" lon="2.89296">
        <ele>1270.747873</ele>
        <time>2021-07-07T14:46:32+0200</time>
      </trkpt>
      <trkpt lat="45.49298" lon="2.89292">
        <ele>1270.942584</ele>
        <time>2021-07-07T14:46:35+0200</time>
      </trkpt>
      <trkpt lat="45.49293" lon="2.89291">
        <ele>1270.709114</ele>
        <time>2021-07-07T14:46:37+0200</time>
      </trkpt>
      <trkpt lat="45.49288" lon="2.89288">
        <ele>1270.895343</ele>
        <time>2021-07-07T14:46:39+0200</time>
      </trkpt>
      <trkpt lat="45.49286" lon="2.8928">
        <ele>1271.247959</ele>
        <time>2021-07-07T14:46:42+0200</time>
      </trkpt>
      <trkpt lat="45.49281" lon="2.89277">
        <ele>1271.341922</ele>
        <time>2021-07-07T14:46:45+0200</time>
      </trkpt>
      <trkpt lat="45.49282" lon="2.89283">
        <ele>1271.84847</ele>
        <time>2021-07-07T14:48:51+0200</time>
      </trkpt>
      <trkpt lat="45.49282" lon="2.8929">
        <ele>1272.340825</ele>
        <time>2021-07-07T14:49:01+0200</time>
      </trkpt>
      <trkpt lat="45.49279" lon="2.89284">
        <ele>1272.288017</ele>
        <time>2021-07-07T14:49:41+0200</time>
      </trkpt>
      <trkpt lat="45.49284" lon="2.89287">
        <ele>1272.516449</ele>
        <time>2021-07-07T14:50:35+0200</time>
      </trkpt>
      <trkpt lat="45.49279" lon="2.89285">
        <ele>1271.403271</ele>
        <time>2021-07-07T14:50:45+0200</time>
      </trkpt>
      <trkpt lat="45.49274" lon="2.89285">
        <ele>1271.577061</ele>
        <time>2021-07-07T14:50:47+0200</time>
      </trkpt>
      <trkpt lat="45.49269" lon="2.8928">
        <ele>1272.549513</ele>
        <time>2021-07-07T14:50:51+0200</time>
      </trkpt>
      <trkpt lat="45.49264" lon="2.89275">
        <ele>1271.733573</ele>
        <time>2021-07-07T14:50:55+0200</time>
      </trkpt>
      <trkpt lat="45.49261" lon="2.89269">
        <ele>1272.132811</ele>
        <time>2021-07-07T14:50:58+0200</time>
      </trkpt>
      <trkpt lat="45.49259" lon="2.89262">
        <ele>1271.99368</ele>
        <time>2021-07-07T14:51:00+0200</time>
      </trkpt>
      <trkpt lat="45.49256" lon="2.89255">
        <ele>1272.008347</ele>
        <time>2021-07-07T14:51:03+0200</time>
      </trkpt>
      <trkpt lat="45.49252" lon="2.89251">
        <ele>1269.70059</ele>
        <time>2021-07-07T14:51:10+0200</time>
      </trkpt>
      <trkpt lat="45.49254" lon="2.89258">
        <ele>1269.857495</ele>
        <time>2021-07-07T14:51:25+0200</time>
      </trkpt>
      <trkpt lat="45.49252" lon="2.89266">
        <ele>1270.173317</ele>
        <time>2021-07-07T14:51:27+0200</time>
      </trkpt>
      <trkpt lat="45.49246" lon="2.89273">
        <ele>1270.73866</ele>
        <time>2021-07-07T14:51:29+0200</time>
      </trkpt>
      <trkpt lat="45.49237" lon="2.89274">
        <ele>1270.935884</ele>
        <time>2021-07-07T14:51:31+0200</time>
      </trkpt>
      <trkpt lat="45.49229" lon="2.89274">
        <ele>1271.442285</ele>
        <time>2021-07-07T14:51:33+0200</time>
      </trkpt>
      <trkpt lat="45.4922" lon="2.89275">
        <ele>1271.458105</ele>
        <time>2021-07-07T14:51:35+0200</time>
      </trkpt>
      <trkpt lat="45.49211" lon="2.89276">
        <ele>1271.762568</ele>
        <time>2021-07-07T14:51:37+0200</time>
      </trkpt>
      <trkpt lat="45.49203" lon="2.8928">
        <ele>1273.140554</ele>
        <time>2021-07-07T14:51:39+0200</time>
      </trkpt>
      <trkpt lat="45.49198" lon="2.89281">
        <ele>1273.472173</ele>
        <time>2021-07-07T14:51:40+0200</time>
      </trkpt>
      <trkpt lat="45.49193" lon="2.89283">
        <ele>1273.506729</ele>
        <time>2021-07-07T14:51:41+0200</time>
      </trkpt>
      <trkpt lat="45.49187" lon="2.89284">
        <ele>1273.519806</ele>
        <time>2021-07-07T14:51:42+0200</time>
      </trkpt>
      <trkpt lat="45.49182" lon="2.89286">
        <ele>1273.863293</ele>
        <time>2021-07-07T14:51:43+0200</time>
      </trkpt>
      <trkpt lat="45.49175" lon="2.89288">
        <ele>1273.979088</ele>
        <time>2021-07-07T14:51:44+0200</time>
      </trkpt>
      <trkpt lat="45.49169" lon="2.89288">
        <ele>1273.2278</ele>
        <time>2021-07-07T14:51:45+0200</time>
      </trkpt>
      <trkpt lat="45.49163" lon="2.8929">
        <ele>1272.802988</ele>
        <time>2021-07-07T14:51:46+0200</time>
      </trkpt>
      <trkpt lat="45.49157" lon="2.89292">
        <ele>1272.299126</ele>
        <time>2021-07-07T14:51:47+0200</time>
      </trkpt>
      <trkpt lat="45.4915" lon="2.89293">
        <ele>1271.71446</ele>
        <time>2021-07-07T14:51:48+0200</time>
      </trkpt>
      <trkpt lat="45.49143" lon="2.89294">
        <ele>1271.309065</ele>
        <time>2021-07-07T14:51:49+0200</time>
      </trkpt>
      <trkpt lat="45.49136" lon="2.89296">
        <ele>1271.189317</ele>
        <time>2021-07-07T14:51:50+0200</time>
      </trkpt>
      <trkpt lat="45.49129" lon="2.89297">
        <ele>1270.802515</ele>
        <time>2021-07-07T14:51:51+0200</time>
      </trkpt>
      <trkpt lat="45.49122" lon="2.89299">
        <ele>1270.559133</ele>
        <time>2021-07-07T14:51:52+0200</time>
      </trkpt>
      <trkpt lat="45.49115" lon="2.89301">
        <ele>1270.467387</ele>
        <time>2021-07-07T14:51:53+0200</time>
      </trkpt>
      <trkpt lat="45.49107" lon="2.89302">
        <ele>1270.217231</ele>
        <time>2021-07-07T14:51:54+0200</time>
      </trkpt>
      <trkpt lat="45.49101" lon="2.89304">
        <ele>1269.470427</ele>
        <time>2021-07-07T14:51:55+0200</time>
      </trkpt>
      <trkpt lat="45.49094" lon="2.89306">
        <ele>1268.989172</ele>
        <time>2021-07-07T14:51:56+0200</time>
      </trkpt>
      <trkpt lat="45.49088" lon="2.89308">
        <ele>1268.571823</ele>
        <time>2021-07-07T14:51:57+0200</time>
      </trkpt>
      <trkpt lat="45.4908" lon="2.8931">
        <ele>1268.313873</ele>
        <time>2021-07-07T14:51:58+0200</time>
      </trkpt>
      <trkpt lat="45.49072" lon="2.89313">
        <ele>1268.774219</ele>
        <time>2021-07-07T14:51:59+0200</time>
      </trkpt>
      <trkpt lat="45.49065" lon="2.89314">
        <ele>1268.415336</ele>
        <time>2021-07-07T14:52:00+0200</time>
      </trkpt>
      <trkpt lat="45.49057" lon="2.89314">
        <ele>1268.08592</ele>
        <time>2021-07-07T14:52:01+0200</time>
      </trkpt>
      <trkpt lat="45.4905" lon="2.89316">
        <ele>1268.131191</ele>
        <time>2021-07-07T14:52:02+0200</time>
      </trkpt>
      <trkpt lat="45.49044" lon="2.8932">
        <ele>1267.797933</ele>
        <time>2021-07-07T14:52:03+0200</time>
      </trkpt>
      <trkpt lat="45.49037" lon="2.89323">
        <ele>1268.092258</ele>
        <time>2021-07-07T14:52:04+0200</time>
      </trkpt>
      <trkpt lat="45.4903" lon="2.89326">
        <ele>1267.66482</ele>
        <time>2021-07-07T14:52:05+0200</time>
      </trkpt>
      <trkpt lat="45.49024" lon="2.89329">
        <ele>1267.407987</ele>
        <time>2021-07-07T14:52:06+0200</time>
      </trkpt>
      <trkpt lat="45.49018" lon="2.8933">
        <ele>1266.986444</ele>
        <time>2021-07-07T14:52:07+0200</time>
      </trkpt>
      <trkpt lat="45.49012" lon="2.89334">
        <ele>1266.920752</ele>
        <time>2021-07-07T14:52:08+0200</time>
      </trkpt>
      <trkpt lat="45.49006" lon="2.89336">
        <ele>1266.875595</ele>
        <time>2021-07-07T14:52:09+0200</time>
      </trkpt>
      <trkpt lat="45.49" lon="2.89339">
        <ele>1266.939307</ele>
        <time>2021-07-07T14:52:10+0200</time>
      </trkpt>
      <trkpt lat="45.48994" lon="2.89341">
        <ele>1267.00439</ele>
        <time>2021-07-07T14:52:11+0200</time>
      </trkpt>
      <trkpt lat="45.48988" lon="2.8934">
        <ele>1266.677494</ele>
        <time>2021-07-07T14:52:12+0200</time>
      </trkpt>
      <trkpt lat="45.48983" lon="2.8934">
        <ele>1266.735673</ele>
        <time>2021-07-07T14:52:13+0200</time>
      </trkpt>
      <trkpt lat="45.48978" lon="2.89341">
        <ele>1266.646104</ele>
        <time>2021-07-07T14:52:14+0200</time>
      </trkpt>
      <trkpt lat="45.48973" lon="2.89339">
        <ele>1266.617978</ele>
        <time>2021-07-07T14:52:20+0200</time>
      </trkpt>
      <trkpt lat="45.48978" lon="2.8934">
        <ele>1267.322534</ele>
        <time>2021-07-07T14:52:24+0200</time>
      </trkpt>
      <trkpt lat="45.48982" lon="2.89337">
        <ele>1267.22164</ele>
        <time>2021-07-07T14:52:40+0200</time>
      </trkpt>
      <trkpt lat="45.48981" lon="2.89343">
        <ele>1265.677962</ele>
        <time>2021-07-07T14:53:09+0200</time>
      </trkpt>
      <trkpt lat="45.48975" lon="2.89341">
        <ele>1265.89884</ele>
        <time>2021-07-07T14:54:49+0200</time>
      </trkpt>
      <trkpt lat="45.48971" lon="2.89343">
        <ele>1266.20084</ele>
        <time>2021-07-07T14:54:52+0200</time>
      </trkpt>
      <trkpt lat="45.48966" lon="2.89344">
        <ele>1266.051817</ele>
        <time>2021-07-07T14:54:56+0200</time>
      </trkpt>
      <trkpt lat="45.4896" lon="2.89345">
        <ele>1265.714277</ele>
        <time>2021-07-07T14:55:02+0200</time>
      </trkpt>
      <trkpt lat="45.48956" lon="2.89348">
        <ele>1265.925458</ele>
        <time>2021-07-07T14:55:05+0200</time>
      </trkpt>
      <trkpt lat="45.48952" lon="2.8935">
        <ele>1265.564137</ele>
        <time>2021-07-07T14:55:07+0200</time>
      </trkpt>
      <trkpt lat="45.48944" lon="2.89351">
        <ele>1264.809698</ele>
        <time>2021-07-07T14:55:09+0200</time>
      </trkpt>
      <trkpt lat="45.4894" lon="2.8935">
        <ele>1264.425607</ele>
        <time>2021-07-07T14:55:10+0200</time>
      </trkpt>
      <trkpt lat="45.48933" lon="2.89352">
        <ele>1263.463863</ele>
        <time>2021-07-07T14:55:12+0200</time>
      </trkpt>
      <trkpt lat="45.48928" lon="2.89353">
        <ele>1263.340202</ele>
        <time>2021-07-07T14:55:13+0200</time>
      </trkpt>
      <trkpt lat="45.48923" lon="2.89354">
        <ele>1263.276708</ele>
        <time>2021-07-07T14:55:14+0200</time>
      </trkpt>
      <trkpt lat="45.48918" lon="2.89354">
        <ele>1263.198419</ele>
        <time>2021-07-07T14:55:15+0200</time>
      </trkpt>
      <trkpt lat="45.4891" lon="2.89356">
        <ele>1264.299534</ele>
        <time>2021-07-07T14:55:17+0200</time>
      </trkpt>
      <trkpt lat="45.48901" lon="2.89355">
        <ele>1263.771261</ele>
        <time>2021-07-07T14:55:19+0200</time>
      </trkpt>
      <trkpt lat="45.48893" lon="2.89354">
        <ele>1262.62841</ele>
        <time>2021-07-07T14:55:21+0200</time>
      </trkpt>
      <trkpt lat="45.48887" lon="2.89352">
        <ele>1261.693999</ele>
        <time>2021-07-07T14:55:23+0200</time>
      </trkpt>
      <trkpt lat="45.48884" lon="2.89345">
        <ele>1260.743911</ele>
        <time>2021-07-07T14:55:26+0200</time>
      </trkpt>
      <trkpt lat="45.48881" lon="2.89336">
        <ele>1261.442283</ele>
        <time>2021-07-07T14:55:29+0200</time>
      </trkpt>
      <trkpt lat="45.48879" lon="2.89328">
        <ele>1261.886934</ele>
        <time>2021-07-07T14:55:31+0200</time>
      </trkpt>
      <trkpt lat="45.48876" lon="2.89323">
        <ele>1262.597579</ele>
        <time>2021-07-07T14:55:33+0200</time>
      </trkpt>
      <trkpt lat="45.48871" lon="2.89318">
        <ele>1263.011873</ele>
        <time>2021-07-07T14:55:35+0200</time>
      </trkpt>
      <trkpt lat="45.48867" lon="2.89309">
        <ele>1263.776576</ele>
        <time>2021-07-07T14:55:37+0200</time>
      </trkpt>
      <trkpt lat="45.48863" lon="2.89303">
        <ele>1263.176935</ele>
        <time>2021-07-07T14:55:39+0200</time>
      </trkpt>
      <trkpt lat="45.48856" lon="2.89296">
        <ele>1262.961795</ele>
        <time>2021-07-07T14:55:41+0200</time>
      </trkpt>
      <trkpt lat="45.48851" lon="2.89292">
        <ele>1263.692794</ele>
        <time>2021-07-07T14:55:43+0200</time>
      </trkpt>
      <trkpt lat="45.48845" lon="2.89288">
        <ele>1264.402972</ele>
        <time>2021-07-07T14:55:45+0200</time>
      </trkpt>
      <trkpt lat="45.48841" lon="2.89286">
        <ele>1265.489911</ele>
        <time>2021-07-07T14:55:47+0200</time>
      </trkpt>
      <trkpt lat="45.48836" lon="2.89285">
        <ele>1266.06524</ele>
        <time>2021-07-07T14:55:49+0200</time>
      </trkpt>
      <trkpt lat="45.4883" lon="2.89285">
        <ele>1266.181345</ele>
        <time>2021-07-07T14:55:51+0200</time>
      </trkpt>
      <trkpt lat="45.48823" lon="2.89284">
        <ele>1266.914875</ele>
        <time>2021-07-07T14:55:53+0200</time>
      </trkpt>
      <trkpt lat="45.48817" lon="2.89286">
        <ele>1267.830683</ele>
        <time>2021-07-07T14:55:55+0200</time>
      </trkpt>
      <trkpt lat="45.4881" lon="2.89286">
        <ele>1268.818007</ele>
        <time>2021-07-07T14:55:58+0200</time>
      </trkpt>
      <trkpt lat="45.48804" lon="2.89286">
        <ele>1268.595144</ele>
        <time>2021-07-07T14:56:00+0200</time>
      </trkpt>
      <trkpt lat="45.48799" lon="2.89286">
        <ele>1268.679145</ele>
        <time>2021-07-07T14:56:02+0200</time>
      </trkpt>
      <trkpt lat="45.48793" lon="2.89285">
        <ele>1268.988673</ele>
        <time>2021-07-07T14:56:05+0200</time>
      </trkpt>
      <trkpt lat="45.48788" lon="2.89285">
        <ele>1269.368506</ele>
        <time>2021-07-07T14:56:07+0200</time>
      </trkpt>
      <trkpt lat="45.48783" lon="2.89286">
        <ele>1270.131753</ele>
        <time>2021-07-07T14:56:09+0200</time>
      </trkpt>
      <trkpt lat="45.48777" lon="2.89287">
        <ele>1271.41292</ele>
        <time>2021-07-07T14:56:11+0200</time>
      </trkpt>
      <trkpt lat="45.48773" lon="2.89288">
        <ele>1272.068496</ele>
        <time>2021-07-07T14:56:13+0200</time>
      </trkpt>
      <trkpt lat="45.48767" lon="2.89288">
        <ele>1272.583517</ele>
        <time>2021-07-07T14:56:16+0200</time>
      </trkpt>
      <trkpt lat="45.48762" lon="2.89289">
        <ele>1273.084259</ele>
        <time>2021-07-07T14:56:18+0200</time>
      </trkpt>
      <trkpt lat="45.48756" lon="2.8929">
        <ele>1273.821025</ele>
        <time>2021-07-07T14:56:21+0200</time>
      </trkpt>
      <trkpt lat="45.48751" lon="2.8929">
        <ele>1275.104218</ele>
        <time>2021-07-07T14:56:23+0200</time>
      </trkpt>
      <trkpt lat="45.48746" lon="2.89289">
        <ele>1275.495463</ele>
        <time>2021-07-07T14:56:26+0200</time>
      </trkpt>
      <trkpt lat="45.4874" lon="2.89288">
        <ele>1275.841674</ele>
        <time>2021-07-07T14:56:28+0200</time>
      </trkpt>
      <trkpt lat="45.48734" lon="2.89289">
        <ele>1275.943371</ele>
        <time>2021-07-07T14:56:31+0200</time>
      </trkpt>
      <trkpt lat="45.48727" lon="2.89288">
        <ele>1276.642271</ele>
        <time>2021-07-07T14:56:34+0200</time>
      </trkpt>
      <trkpt lat="45.48721" lon="2.89286">
        <ele>1276.808705</ele>
        <time>2021-07-07T14:56:36+0200</time>
      </trkpt>
      <trkpt lat="45.48715" lon="2.89283">
        <ele>1276.920215</ele>
        <time>2021-07-07T14:56:38+0200</time>
      </trkpt>
      <trkpt lat="45.48709" lon="2.8928">
        <ele>1277.758186</ele>
        <time>2021-07-07T14:56:40+0200</time>
      </trkpt>
      <trkpt lat="45.48704" lon="2.89278">
        <ele>1278.318951</ele>
        <time>2021-07-07T14:56:42+0200</time>
      </trkpt>
      <trkpt lat="45.487" lon="2.89274">
        <ele>1279.103593</ele>
        <time>2021-07-07T14:56:44+0200</time>
      </trkpt>
      <trkpt lat="45.48695" lon="2.8927">
        <ele>1280.219636</ele>
        <time>2021-07-07T14:56:47+0200</time>
      </trkpt>
      <trkpt lat="45.4869" lon="2.89265">
        <ele>1280.911447</ele>
        <time>2021-07-07T14:56:50+0200</time>
      </trkpt>
      <trkpt lat="45.48685" lon="2.89258">
        <ele>1280.389543</ele>
        <time>2021-07-07T14:56:52+0200</time>
      </trkpt>
      <trkpt lat="45.4868" lon="2.89252">
        <ele>1280.739302</ele>
        <time>2021-07-07T14:56:55+0200</time>
      </trkpt>
      <trkpt lat="45.48675" lon="2.89247">
        <ele>1280.472661</ele>
        <time>2021-07-07T14:56:58+0200</time>
      </trkpt>
      <trkpt lat="45.48671" lon="2.89241">
        <ele>1280.072374</ele>
        <time>2021-07-07T14:57:00+0200</time>
      </trkpt>
      <trkpt lat="45.48668" lon="2.89237">
        <ele>1280.120115</ele>
        <time>2021-07-07T14:57:02+0200</time>
      </trkpt>
      <trkpt lat="45.48664" lon="2.89233">
        <ele>1280.774491</ele>
        <time>2021-07-07T14:57:04+0200</time>
      </trkpt>
      <trkpt lat="45.4866" lon="2.89226">
        <ele>1280.940982</ele>
        <time>2021-07-07T14:57:07+0200</time>
      </trkpt>
      <trkpt lat="45.48657" lon="2.89222">
        <ele>1281.054358</ele>
        <time>2021-07-07T14:57:09+0200</time>
      </trkpt>
      <trkpt lat="45.48652" lon="2.89215">
        <ele>1281.86436</ele>
        <time>2021-07-07T14:57:12+0200</time>
      </trkpt>
      <trkpt lat="45.48649" lon="2.89208">
        <ele>1282.021858</ele>
        <time>2021-07-07T14:57:14+0200</time>
      </trkpt>
      <trkpt lat="45.48646" lon="2.89202">
        <ele>1282.053478</ele>
        <time>2021-07-07T14:57:16+0200</time>
      </trkpt>
      <trkpt lat="45.48643" lon="2.89197">
        <ele>1282.45307</ele>
        <time>2021-07-07T14:57:18+0200</time>
      </trkpt>
      <trkpt lat="45.4864" lon="2.8919">
        <ele>1281.638148</ele>
        <time>2021-07-07T14:57:20+0200</time>
      </trkpt>
      <trkpt lat="45.48636" lon="2.89186">
        <ele>1281.694467</ele>
        <time>2021-07-07T14:57:22+0200</time>
      </trkpt>
      <trkpt lat="45.48632" lon="2.89179">
        <ele>1281.647889</ele>
        <time>2021-07-07T14:57:24+0200</time>
      </trkpt>
      <trkpt lat="45.48627" lon="2.89174">
        <ele>1281.13954</ele>
        <time>2021-07-07T14:57:27+0200</time>
      </trkpt>
      <trkpt lat="45.48622" lon="2.8917">
        <ele>1281.491835</ele>
        <time>2021-07-07T14:57:29+0200</time>
      </trkpt>
      <trkpt lat="45.48618" lon="2.89165">
        <ele>1281.216766</ele>
        <time>2021-07-07T14:57:31+0200</time>
      </trkpt>
      <trkpt lat="45.48613" lon="2.89157">
        <ele>1280.086252</ele>
        <time>2021-07-07T14:57:33+0200</time>
      </trkpt>
      <trkpt lat="45.48608" lon="2.89149">
        <ele>1280.136777</ele>
        <time>2021-07-07T14:57:35+0200</time>
      </trkpt>
      <trkpt lat="45.48602" lon="2.89143">
        <ele>1281.158906</ele>
        <time>2021-07-07T14:57:37+0200</time>
      </trkpt>
      <trkpt lat="45.48597" lon="2.89136">
        <ele>1281.759161</ele>
        <time>2021-07-07T14:57:39+0200</time>
      </trkpt>
      <trkpt lat="45.48593" lon="2.89127">
        <ele>1280.736846</ele>
        <time>2021-07-07T14:57:41+0200</time>
      </trkpt>
      <trkpt lat="45.4859" lon="2.89122">
        <ele>1281.063736</ele>
        <time>2021-07-07T14:57:42+0200</time>
      </trkpt>
      <trkpt lat="45.48587" lon="2.89115">
        <ele>1280.839703</ele>
        <time>2021-07-07T14:57:43+0200</time>
      </trkpt>
      <trkpt lat="45.48584" lon="2.89106">
        <ele>1280.10863</ele>
        <time>2021-07-07T14:57:45+0200</time>
      </trkpt>
      <trkpt lat="45.48581" lon="2.89101">
        <ele>1280.029938</ele>
        <time>2021-07-07T14:57:46+0200</time>
      </trkpt>
      <trkpt lat="45.48577" lon="2.89091">
        <ele>1279.338327</ele>
        <time>2021-07-07T14:57:48+0200</time>
      </trkpt>
      <trkpt lat="45.48574" lon="2.8908">
        <ele>1279.261925</ele>
        <time>2021-07-07T14:57:50+0200</time>
      </trkpt>
      <trkpt lat="45.48571" lon="2.89073">
        <ele>1278.992366</ele>
        <time>2021-07-07T14:57:51+0200</time>
      </trkpt>
      <trkpt lat="45.48568" lon="2.89067">
        <ele>1278.75829</ele>
        <time>2021-07-07T14:57:52+0200</time>
      </trkpt>
      <trkpt lat="45.48566" lon="2.89061">
        <ele>1278.675716</ele>
        <time>2021-07-07T14:57:53+0200</time>
      </trkpt>
      <trkpt lat="45.48564" lon="2.89055">
        <ele>1278.579176</ele>
        <time>2021-07-07T14:57:54+0200</time>
      </trkpt>
      <trkpt lat="45.48559" lon="2.89046">
        <ele>1277.910499</ele>
        <time>2021-07-07T14:57:56+0200</time>
      </trkpt>
      <trkpt lat="45.48556" lon="2.89035">
        <ele>1277.831803</ele>
        <time>2021-07-07T14:57:58+0200</time>
      </trkpt>
      <trkpt lat="45.48551" lon="2.89026">
        <ele>1278.295168</ele>
        <time>2021-07-07T14:58:00+0200</time>
      </trkpt>
      <trkpt lat="45.48548" lon="2.89016">
        <ele>1279.664319</ele>
        <time>2021-07-07T14:58:02+0200</time>
      </trkpt>
      <trkpt lat="45.48545" lon="2.89004">
        <ele>1280.172425</ele>
        <time>2021-07-07T14:58:04+0200</time>
      </trkpt>
      <trkpt lat="45.4854" lon="2.88993">
        <ele>1279.005329</ele>
        <time>2021-07-07T14:58:06+0200</time>
      </trkpt>
      <trkpt lat="45.48534" lon="2.88984">
        <ele>1277.269093</ele>
        <time>2021-07-07T14:58:08+0200</time>
      </trkpt>
      <trkpt lat="45.4853" lon="2.88978">
        <ele>1276.30507</ele>
        <time>2021-07-07T14:58:09+0200</time>
      </trkpt>
      <trkpt lat="45.48528" lon="2.88972">
        <ele>1275.33205</ele>
        <time>2021-07-07T14:58:10+0200</time>
      </trkpt>
      <trkpt lat="45.48521" lon="2.8896">
        <ele>1274.272675</ele>
        <time>2021-07-07T14:58:12+0200</time>
      </trkpt>
      <trkpt lat="45.48516" lon="2.88954">
        <ele>1273.678817</ele>
        <time>2021-07-07T14:58:13+0200</time>
      </trkpt>
      <trkpt lat="45.48512" lon="2.88948">
        <ele>1273.483358</ele>
        <time>2021-07-07T14:58:14+0200</time>
      </trkpt>
      <trkpt lat="45.48508" lon="2.88945">
        <ele>1273.273345</ele>
        <time>2021-07-07T14:58:15+0200</time>
      </trkpt>
      <trkpt lat="45.48502" lon="2.88941">
        <ele>1273.254189</ele>
        <time>2021-07-07T14:58:16+0200</time>
      </trkpt>
      <trkpt lat="45.48497" lon="2.88938">
        <ele>1273.044998</ele>
        <time>2021-07-07T14:58:17+0200</time>
      </trkpt>
      <trkpt lat="45.48492" lon="2.88934">
        <ele>1272.616419</ele>
        <time>2021-07-07T14:58:19+0200</time>
      </trkpt>
      <trkpt lat="45.48487" lon="2.88931">
        <ele>1272.731125</ele>
        <time>2021-07-07T14:58:21+0200</time>
      </trkpt>
      <trkpt lat="45.48481" lon="2.88928">
        <ele>1272.970959</ele>
        <time>2021-07-07T14:58:23+0200</time>
      </trkpt>
      <trkpt lat="45.48475" lon="2.88924">
        <ele>1272.89947</ele>
        <time>2021-07-07T14:58:25+0200</time>
      </trkpt>
      <trkpt lat="45.4847" lon="2.88922">
        <ele>1272.908154</ele>
        <time>2021-07-07T14:58:28+0200</time>
      </trkpt>
      <trkpt lat="45.48463" lon="2.88919">
        <ele>1273.485137</ele>
        <time>2021-07-07T14:58:30+0200</time>
      </trkpt>
      <trkpt lat="45.48458" lon="2.88915">
        <ele>1273.920652</ele>
        <time>2021-07-07T14:58:32+0200</time>
      </trkpt>
      <trkpt lat="45.48451" lon="2.88911">
        <ele>1273.744672</ele>
        <time>2021-07-07T14:58:35+0200</time>
      </trkpt>
      <trkpt lat="45.48446" lon="2.88908">
        <ele>1273.373534</ele>
        <time>2021-07-07T14:58:37+0200</time>
      </trkpt>
      <trkpt lat="45.48442" lon="2.88903">
        <ele>1273.816139</ele>
        <time>2021-07-07T14:58:40+0200</time>
      </trkpt>
      <trkpt lat="45.48437" lon="2.88901">
        <ele>1274.505226</ele>
        <time>2021-07-07T14:58:42+0200</time>
      </trkpt>
      <trkpt lat="45.48433" lon="2.88894">
        <ele>1274.935991</ele>
        <time>2021-07-07T14:58:45+0200</time>
      </trkpt>
      <trkpt lat="45.48429" lon="2.8889">
        <ele>1275.088652</ele>
        <time>2021-07-07T14:58:47+0200</time>
      </trkpt>
      <trkpt lat="45.48425" lon="2.88885">
        <ele>1275.761532</ele>
        <time>2021-07-07T14:58:49+0200</time>
      </trkpt>
      <trkpt lat="45.4842" lon="2.88881">
        <ele>1275.403395</ele>
        <time>2021-07-07T14:58:51+0200</time>
      </trkpt>
      <trkpt lat="45.48417" lon="2.88875">
        <ele>1275.680639</ele>
        <time>2021-07-07T14:58:53+0200</time>
      </trkpt>
      <trkpt lat="45.48413" lon="2.88867">
        <ele>1276.750942</ele>
        <time>2021-07-07T14:58:55+0200</time>
      </trkpt>
      <trkpt lat="45.4841" lon="2.8886">
        <ele>1277.968682</ele>
        <time>2021-07-07T14:58:57+0200</time>
      </trkpt>
      <trkpt lat="45.48405" lon="2.88856">
        <ele>1278.043286</ele>
        <time>2021-07-07T14:58:59+0200</time>
      </trkpt>
      <trkpt lat="45.48403" lon="2.88849">
        <ele>1278.178621</ele>
        <time>2021-07-07T14:59:01+0200</time>
      </trkpt>
      <trkpt lat="45.48401" lon="2.88841">
        <ele>1277.98891</ele>
        <time>2021-07-07T14:59:03+0200</time>
      </trkpt>
      <trkpt lat="45.48397" lon="2.88832">
        <ele>1278.80276</ele>
        <time>2021-07-07T14:59:05+0200</time>
      </trkpt>
      <trkpt lat="45.48395" lon="2.88824">
        <ele>1279.063196</ele>
        <time>2021-07-07T14:59:07+0200</time>
      </trkpt>
      <trkpt lat="45.48392" lon="2.88817">
        <ele>1279.530637</ele>
        <time>2021-07-07T14:59:09+0200</time>
      </trkpt>
      <trkpt lat="45.48389" lon="2.8881">
        <ele>1280.038656</ele>
        <time>2021-07-07T14:59:11+0200</time>
      </trkpt>
      <trkpt lat="45.48385" lon="2.88804">
        <ele>1280.988144</ele>
        <time>2021-07-07T14:59:13+0200</time>
      </trkpt>
      <trkpt lat="45.48381" lon="2.88799">
        <ele>1281.701721</ele>
        <time>2021-07-07T14:59:15+0200</time>
      </trkpt>
      <trkpt lat="45.48376" lon="2.88793">
        <ele>1282.25837</ele>
        <time>2021-07-07T14:59:17+0200</time>
      </trkpt>
      <trkpt lat="45.48371" lon="2.88789">
        <ele>1282.695778</ele>
        <time>2021-07-07T14:59:19+0200</time>
      </trkpt>
      <trkpt lat="45.48366" lon="2.88785">
        <ele>1283.118164</ele>
        <time>2021-07-07T14:59:21+0200</time>
      </trkpt>
      <trkpt lat="45.48359" lon="2.88783">
        <ele>1283.319958</ele>
        <time>2021-07-07T14:59:23+0200</time>
      </trkpt>
      <trkpt lat="45.48353" lon="2.88782">
        <ele>1283.01196</ele>
        <time>2021-07-07T14:59:25+0200</time>
      </trkpt>
      <trkpt lat="45.48349" lon="2.88782">
        <ele>1282.545502</ele>
        <time>2021-07-07T14:59:28+0200</time>
      </trkpt>
      <trkpt lat="45.48345" lon="2.88778">
        <ele>1280.974802</ele>
        <time>2021-07-07T14:59:57+0200</time>
      </trkpt>
      <trkpt lat="45.48339" lon="2.88777">
        <ele>1280.423539</ele>
        <time>2021-07-07T15:00:00+0200</time>
      </trkpt>
      <trkpt lat="45.48334" lon="2.88778">
        <ele>1280.1705</ele>
        <time>2021-07-07T15:00:02+0200</time>
      </trkpt>
      <trkpt lat="45.48329" lon="2.88776">
        <ele>1280.731816</ele>
        <time>2021-07-07T15:00:04+0200</time>
      </trkpt>
      <trkpt lat="45.48324" lon="2.88777">
        <ele>1280.764829</ele>
        <time>2021-07-07T15:00:06+0200</time>
      </trkpt>
      <trkpt lat="45.48318" lon="2.8878">
        <ele>1281.099398</ele>
        <time>2021-07-07T15:00:08+0200</time>
      </trkpt>
      <trkpt lat="45.48311" lon="2.8878">
        <ele>1280.824316</ele>
        <time>2021-07-07T15:00:10+0200</time>
      </trkpt>
      <trkpt lat="45.48304" lon="2.8878">
        <ele>1281.082969</ele>
        <time>2021-07-07T15:00:12+0200</time>
      </trkpt>
      <trkpt lat="45.48296" lon="2.8878">
        <ele>1281.431806</ele>
        <time>2021-07-07T15:00:14+0200</time>
      </trkpt>
      <trkpt lat="45.48288" lon="2.8878">
        <ele>1280.913387</ele>
        <time>2021-07-07T15:00:16+0200</time>
      </trkpt>
      <trkpt lat="45.48283" lon="2.88779">
        <ele>1281.111432</ele>
        <time>2021-07-07T15:00:17+0200</time>
      </trkpt>
      <trkpt lat="45.48275" lon="2.8878">
        <ele>1280.359865</ele>
        <time>2021-07-07T15:00:19+0200</time>
      </trkpt>
      <trkpt lat="45.48267" lon="2.88779">
        <ele>1280.334867</ele>
        <time>2021-07-07T15:00:21+0200</time>
      </trkpt>
      <trkpt lat="45.48262" lon="2.88779">
        <ele>1280.18232</ele>
        <time>2021-07-07T15:00:22+0200</time>
      </trkpt>
      <trkpt lat="45.48258" lon="2.88778">
        <ele>1279.78214</ele>
        <time>2021-07-07T15:00:23+0200</time>
      </trkpt>
      <trkpt lat="45.48253" lon="2.88776">
        <ele>1279.285714</ele>
        <time>2021-07-07T15:00:24+0200</time>
      </trkpt>
      <trkpt lat="45.48248" lon="2.88776">
        <ele>1279.129658</ele>
        <time>2021-07-07T15:00:25+0200</time>
      </trkpt>
      <trkpt lat="45.48243" lon="2.88776">
        <ele>1278.664708</ele>
        <time>2021-07-07T15:00:26+0200</time>
      </trkpt>
      <trkpt lat="45.48238" lon="2.88775">
        <ele>1278.231694</ele>
        <time>2021-07-07T15:00:27+0200</time>
      </trkpt>
      <trkpt lat="45.48234" lon="2.88776">
        <ele>1278.20106</ele>
        <time>2021-07-07T15:00:28+0200</time>
      </trkpt>
      <trkpt lat="45.48229" lon="2.88776">
        <ele>1278.49737</ele>
        <time>2021-07-07T15:00:29+0200</time>
      </trkpt>
      <trkpt lat="45.48224" lon="2.88777">
        <ele>1278.109406</ele>
        <time>2021-07-07T15:00:30+0200</time>
      </trkpt>
      <trkpt lat="45.48218" lon="2.88779">
        <ele>1278.022564</ele>
        <time>2021-07-07T15:00:31+0200</time>
      </trkpt>
      <trkpt lat="45.48213" lon="2.88781">
        <ele>1278.194105</ele>
        <time>2021-07-07T15:00:32+0200</time>
      </trkpt>
      <trkpt lat="45.48208" lon="2.88785">
        <ele>1277.344147</ele>
        <time>2021-07-07T15:00:33+0200</time>
      </trkpt>
      <trkpt lat="45.48204" lon="2.8879">
        <ele>1277.150773</ele>
        <time>2021-07-07T15:00:34+0200</time>
      </trkpt>
      <trkpt lat="45.482" lon="2.88799">
        <ele>1276.468114</ele>
        <time>2021-07-07T15:00:35+0200</time>
      </trkpt>
      <trkpt lat="45.48195" lon="2.88809">
        <ele>1275.898569</ele>
        <time>2021-07-07T15:00:36+0200</time>
      </trkpt>
      <trkpt lat="45.4819" lon="2.88817">
        <ele>1275.375797</ele>
        <time>2021-07-07T15:00:37+0200</time>
      </trkpt>
      <trkpt lat="45.48183" lon="2.88823">
        <ele>1274.837356</ele>
        <time>2021-07-07T15:00:38+0200</time>
      </trkpt>
      <trkpt lat="45.48172" lon="2.88825">
        <ele>1273.909514</ele>
        <time>2021-07-07T15:00:39+0200</time>
      </trkpt>
      <trkpt lat="45.48162" lon="2.88823">
        <ele>1274.047843</ele>
        <time>2021-07-07T15:00:40+0200</time>
      </trkpt>
      <trkpt lat="45.48151" lon="2.88823">
        <ele>1273.574313</ele>
        <time>2021-07-07T15:00:41+0200</time>
      </trkpt>
      <trkpt lat="45.48142" lon="2.88822">
        <ele>1273.280951</ele>
        <time>2021-07-07T15:00:42+0200</time>
      </trkpt>
      <trkpt lat="45.48132" lon="2.88826">
        <ele>1272.775959</ele>
        <time>2021-07-07T15:00:43+0200</time>
      </trkpt>
      <trkpt lat="45.48122" lon="2.88827">
        <ele>1272.024006</ele>
        <time>2021-07-07T15:00:44+0200</time>
      </trkpt>
      <trkpt lat="45.48112" lon="2.88829">
        <ele>1271.511653</ele>
        <time>2021-07-07T15:00:45+0200</time>
      </trkpt>
      <trkpt lat="45.48103" lon="2.88831">
        <ele>1271.136802</ele>
        <time>2021-07-07T15:00:46+0200</time>
      </trkpt>
      <trkpt lat="45.48094" lon="2.88833">
        <ele>1271.011272</ele>
        <time>2021-07-07T15:00:47+0200</time>
      </trkpt>
      <trkpt lat="45.48085" lon="2.88834">
        <ele>1270.997602</ele>
        <time>2021-07-07T15:00:48+0200</time>
      </trkpt>
      <trkpt lat="45.48076" lon="2.88836">
        <ele>1271.019055</ele>
        <time>2021-07-07T15:00:49+0200</time>
      </trkpt>
      <trkpt lat="45.48068" lon="2.88839">
        <ele>1271.136887</ele>
        <time>2021-07-07T15:00:50+0200</time>
      </trkpt>
      <trkpt lat="45.48061" lon="2.88842">
        <ele>1271.357076</ele>
        <time>2021-07-07T15:00:51+0200</time>
      </trkpt>
      <trkpt lat="45.48053" lon="2.88843">
        <ele>1271.207039</ele>
        <time>2021-07-07T15:00:52+0200</time>
      </trkpt>
      <trkpt lat="45.48046" lon="2.88844">
        <ele>1271.118199</ele>
        <time>2021-07-07T15:00:53+0200</time>
      </trkpt>
      <trkpt lat="45.48039" lon="2.88846">
        <ele>1271.033157</ele>
        <time>2021-07-07T15:00:54+0200</time>
      </trkpt>
      <trkpt lat="45.48033" lon="2.8885">
        <ele>1270.947205</ele>
        <time>2021-07-07T15:00:55+0200</time>
      </trkpt>
      <trkpt lat="45.48027" lon="2.88856">
        <ele>1270.930802</ele>
        <time>2021-07-07T15:00:56+0200</time>
      </trkpt>
      <trkpt lat="45.48022" lon="2.88863">
        <ele>1271.123269</ele>
        <time>2021-07-07T15:00:57+0200</time>
      </trkpt>
      <trkpt lat="45.48019" lon="2.88871">
        <ele>1271.0479</ele>
        <time>2021-07-07T15:00:58+0200</time>
      </trkpt>
      <trkpt lat="45.48015" lon="2.88879">
        <ele>1270.830001</ele>
        <time>2021-07-07T15:00:59+0200</time>
      </trkpt>
      <trkpt lat="45.4801" lon="2.88886">
        <ele>1271.400197</ele>
        <time>2021-07-07T15:01:00+0200</time>
      </trkpt>
      <trkpt lat="45.48008" lon="2.88895">
        <ele>1271.003281</ele>
        <time>2021-07-07T15:01:01+0200</time>
      </trkpt>
      <trkpt lat="45.48007" lon="2.88905">
        <ele>1269.92708</ele>
        <time>2021-07-07T15:01:03+0200</time>
      </trkpt>
      <trkpt lat="45.48006" lon="2.88913">
        <ele>1268.527013</ele>
        <time>2021-07-07T15:01:05+0200</time>
      </trkpt>
      <trkpt lat="45.48006" lon="2.88924">
        <ele>1267.497915</ele>
        <time>2021-07-07T15:01:07+0200</time>
      </trkpt>
      <trkpt lat="45.48002" lon="2.88935">
        <ele>1267.084695</ele>
        <time>2021-07-07T15:01:09+0200</time>
      </trkpt>
      <trkpt lat="45.48001" lon="2.88944">
        <ele>1266.504981</ele>
        <time>2021-07-07T15:01:10+0200</time>
      </trkpt>
      <trkpt lat="45.47999" lon="2.88954">
        <ele>1265.606188</ele>
        <time>2021-07-07T15:01:11+0200</time>
      </trkpt>
      <trkpt lat="45.47997" lon="2.88964">
        <ele>1264.910257</ele>
        <time>2021-07-07T15:01:12+0200</time>
      </trkpt>
      <trkpt lat="45.47994" lon="2.88975">
        <ele>1263.931782</ele>
        <time>2021-07-07T15:01:13+0200</time>
      </trkpt>
      <trkpt lat="45.47989" lon="2.88985">
        <ele>1263.117132</ele>
        <time>2021-07-07T15:01:14+0200</time>
      </trkpt>
      <trkpt lat="45.47982" lon="2.88994">
        <ele>1262.505715</ele>
        <time>2021-07-07T15:01:15+0200</time>
      </trkpt>
      <trkpt lat="45.47975" lon="2.89003">
        <ele>1261.655205</ele>
        <time>2021-07-07T15:01:16+0200</time>
      </trkpt>
      <trkpt lat="45.47967" lon="2.89013">
        <ele>1260.605824</ele>
        <time>2021-07-07T15:01:17+0200</time>
      </trkpt>
      <trkpt lat="45.4796" lon="2.89023">
        <ele>1260.015208</ele>
        <time>2021-07-07T15:01:18+0200</time>
      </trkpt>
      <trkpt lat="45.47952" lon="2.89031">
        <ele>1259.769777</ele>
        <time>2021-07-07T15:01:19+0200</time>
      </trkpt>
      <trkpt lat="45.47945" lon="2.8904">
        <ele>1259.498965</ele>
        <time>2021-07-07T15:01:20+0200</time>
      </trkpt>
      <trkpt lat="45.47938" lon="2.89049">
        <ele>1259.315992</ele>
        <time>2021-07-07T15:01:21+0200</time>
      </trkpt>
      <trkpt lat="45.47931" lon="2.89058">
        <ele>1258.851342</ele>
        <time>2021-07-07T15:01:22+0200</time>
      </trkpt>
      <trkpt lat="45.47923" lon="2.89067">
        <ele>1257.820895</ele>
        <time>2021-07-07T15:01:23+0200</time>
      </trkpt>
      <trkpt lat="45.47915" lon="2.89075">
        <ele>1257.006902</ele>
        <time>2021-07-07T15:01:24+0200</time>
      </trkpt>
      <trkpt lat="45.47907" lon="2.89084">
        <ele>1256.201855</ele>
        <time>2021-07-07T15:01:25+0200</time>
      </trkpt>
      <trkpt lat="45.479" lon="2.89093">
        <ele>1255.958179</ele>
        <time>2021-07-07T15:01:26+0200</time>
      </trkpt>
      <trkpt lat="45.47891" lon="2.89099">
        <ele>1255.935482</ele>
        <time>2021-07-07T15:01:27+0200</time>
      </trkpt>
      <trkpt lat="45.47884" lon="2.89105">
        <ele>1256.257854</ele>
        <time>2021-07-07T15:01:28+0200</time>
      </trkpt>
      <trkpt lat="45.47877" lon="2.89114">
        <ele>1256.170713</ele>
        <time>2021-07-07T15:01:29+0200</time>
      </trkpt>
      <trkpt lat="45.47872" lon="2.89124">
        <ele>1256.016273</ele>
        <time>2021-07-07T15:01:30+0200</time>
      </trkpt>
      <trkpt lat="45.47868" lon="2.89136">
        <ele>1255.9218</ele>
        <time>2021-07-07T15:01:31+0200</time>
      </trkpt>
      <trkpt lat="45.47866" lon="2.89148">
        <ele>1255.37282</ele>
        <time>2021-07-07T15:01:32+0200</time>
      </trkpt>
      <trkpt lat="45.47864" lon="2.8916">
        <ele>1255.089269</ele>
        <time>2021-07-07T15:01:33+0200</time>
      </trkpt>
      <trkpt lat="45.47863" lon="2.89171">
        <ele>1254.762147</ele>
        <time>2021-07-07T15:01:34+0200</time>
      </trkpt>
      <trkpt lat="45.47861" lon="2.89183">
        <ele>1254.116886</ele>
        <time>2021-07-07T15:01:35+0200</time>
      </trkpt>
      <trkpt lat="45.47859" lon="2.89194">
        <ele>1253.511893</ele>
        <time>2021-07-07T15:01:36+0200</time>
      </trkpt>
      <trkpt lat="45.47856" lon="2.89203">
        <ele>1253.018832</ele>
        <time>2021-07-07T15:01:37+0200</time>
      </trkpt>
      <trkpt lat="45.47853" lon="2.89213">
        <ele>1252.353744</ele>
        <time>2021-07-07T15:01:38+0200</time>
      </trkpt>
      <trkpt lat="45.47848" lon="2.89221">
        <ele>1252.296389</ele>
        <time>2021-07-07T15:01:39+0200</time>
      </trkpt>
      <trkpt lat="45.47843" lon="2.89228">
        <ele>1252.578431</ele>
        <time>2021-07-07T15:01:40+0200</time>
      </trkpt>
      <trkpt lat="45.47839" lon="2.89236">
        <ele>1252.914073</ele>
        <time>2021-07-07T15:01:41+0200</time>
      </trkpt>
      <trkpt lat="45.47835" lon="2.89244">
        <ele>1253.106362</ele>
        <time>2021-07-07T15:01:42+0200</time>
      </trkpt>
      <trkpt lat="45.47831" lon="2.89253">
        <ele>1252.574532</ele>
        <time>2021-07-07T15:01:43+0200</time>
      </trkpt>
      <trkpt lat="45.47828" lon="2.8926">
        <ele>1252.633504</ele>
        <time>2021-07-07T15:01:45+0200</time>
      </trkpt>
      <trkpt lat="45.47821" lon="2.89262">
        <ele>1252.304804</ele>
        <time>2021-07-07T15:01:47+0200</time>
      </trkpt>
      <trkpt lat="45.47815" lon="2.89265">
        <ele>1252.302289</ele>
        <time>2021-07-07T15:01:49+0200</time>
      </trkpt>
      <trkpt lat="45.47811" lon="2.89273">
        <ele>1251.807265</ele>
        <time>2021-07-07T15:01:52+0200</time>
      </trkpt>
      <trkpt lat="45.47807" lon="2.89285">
        <ele>1251.463812</ele>
        <time>2021-07-07T15:01:54+0200</time>
      </trkpt>
      <trkpt lat="45.47804" lon="2.89291">
        <ele>1251.137275</ele>
        <time>2021-07-07T15:01:55+0200</time>
      </trkpt>
      <trkpt lat="45.47802" lon="2.89297">
        <ele>1250.951731</ele>
        <time>2021-07-07T15:01:56+0200</time>
      </trkpt>
      <trkpt lat="45.478" lon="2.89303">
        <ele>1250.489622</ele>
        <time>2021-07-07T15:01:57+0200</time>
      </trkpt>
      <trkpt lat="45.47797" lon="2.89311">
        <ele>1250.043099</ele>
        <time>2021-07-07T15:01:58+0200</time>
      </trkpt>
      <trkpt lat="45.47796" lon="2.8932">
        <ele>1250.132045</ele>
        <time>2021-07-07T15:01:59+0200</time>
      </trkpt>
      <trkpt lat="45.47796" lon="2.89328">
        <ele>1250.143003</ele>
        <time>2021-07-07T15:02:00+0200</time>
      </trkpt>
      <trkpt lat="45.47795" lon="2.89335">
        <ele>1250.118465</ele>
        <time>2021-07-07T15:02:01+0200</time>
      </trkpt>
      <trkpt lat="45.47793" lon="2.89341">
        <ele>1250.810959</ele>
        <time>2021-07-07T15:02:02+0200</time>
      </trkpt>
      <trkpt lat="45.4779" lon="2.8935">
        <ele>1250.77364</ele>
        <time>2021-07-07T15:02:04+0200</time>
      </trkpt>
      <trkpt lat="45.47786" lon="2.89362">
        <ele>1250.577131</ele>
        <time>2021-07-07T15:02:06+0200</time>
      </trkpt>
      <trkpt lat="45.47782" lon="2.89366">
        <ele>1250.586371</ele>
        <time>2021-07-07T15:02:07+0200</time>
      </trkpt>
      <trkpt lat="45.47779" lon="2.89373">
        <ele>1250.34423</ele>
        <time>2021-07-07T15:02:08+0200</time>
      </trkpt>
      <trkpt lat="45.47777" lon="2.8938">
        <ele>1250.007061</ele>
        <time>2021-07-07T15:02:09+0200</time>
      </trkpt>
      <trkpt lat="45.47773" lon="2.89387">
        <ele>1249.364899</ele>
        <time>2021-07-07T15:02:10+0200</time>
      </trkpt>
      <trkpt lat="45.4777" lon="2.89393">
        <ele>1248.724955</ele>
        <time>2021-07-07T15:02:11+0200</time>
      </trkpt>
      <trkpt lat="45.47766" lon="2.89398">
        <ele>1248.323609</ele>
        <time>2021-07-07T15:02:12+0200</time>
      </trkpt>
      <trkpt lat="45.47763" lon="2.89405">
        <ele>1248.45559</ele>
        <time>2021-07-07T15:02:13+0200</time>
      </trkpt>
      <trkpt lat="45.47761" lon="2.89413">
        <ele>1248.351792</ele>
        <time>2021-07-07T15:02:14+0200</time>
      </trkpt>
      <trkpt lat="45.47761" lon="2.8942">
        <ele>1248.19656</ele>
        <time>2021-07-07T15:02:15+0200</time>
      </trkpt>
      <trkpt lat="45.4776" lon="2.89432">
        <ele>1247.288667</ele>
        <time>2021-07-07T15:02:17+0200</time>
      </trkpt>
      <trkpt lat="45.47759" lon="2.89438">
        <ele>1247.439539</ele>
        <time>2021-07-07T15:02:18+0200</time>
      </trkpt>
      <trkpt lat="45.47755" lon="2.89445">
        <ele>1247.208995</ele>
        <time>2021-07-07T15:02:19+0200</time>
      </trkpt>
      <trkpt lat="45.47751" lon="2.8945">
        <ele>1246.923998</ele>
        <time>2021-07-07T15:02:20+0200</time>
      </trkpt>
      <trkpt lat="45.47745" lon="2.89453">
        <ele>1246.419224</ele>
        <time>2021-07-07T15:02:21+0200</time>
      </trkpt>
      <trkpt lat="45.4774" lon="2.89454">
        <ele>1246.314281</ele>
        <time>2021-07-07T15:02:22+0200</time>
      </trkpt>
      <trkpt lat="45.47736" lon="2.89458">
        <ele>1246.318467</ele>
        <time>2021-07-07T15:02:23+0200</time>
      </trkpt>
      <trkpt lat="45.47727" lon="2.89464">
        <ele>1246.367229</ele>
        <time>2021-07-07T15:02:24+0200</time>
      </trkpt>
      <trkpt lat="45.47721" lon="2.89469">
        <ele>1245.703307</ele>
        <time>2021-07-07T15:02:25+0200</time>
      </trkpt>
      <trkpt lat="45.47718" lon="2.89474">
        <ele>1245.36261</ele>
        <time>2021-07-07T15:02:26+0200</time>
      </trkpt>
      <trkpt lat="45.47714" lon="2.89478">
        <ele>1244.959247</ele>
        <time>2021-07-07T15:02:27+0200</time>
      </trkpt>
      <trkpt lat="45.47709" lon="2.89487">
        <ele>1244.531791</ele>
        <time>2021-07-07T15:02:29+0200</time>
      </trkpt>
      <trkpt lat="45.47705" lon="2.89492">
        <ele>1243.874047</ele>
        <time>2021-07-07T15:02:30+0200</time>
      </trkpt>
      <trkpt lat="45.47701" lon="2.89496">
        <ele>1242.931713</ele>
        <time>2021-07-07T15:02:31+0200</time>
      </trkpt>
      <trkpt lat="45.47693" lon="2.89507">
        <ele>1242.314505</ele>
        <time>2021-07-07T15:02:33+0200</time>
      </trkpt>
      <trkpt lat="45.47688" lon="2.89514">
        <ele>1241.747448</ele>
        <time>2021-07-07T15:02:35+0200</time>
      </trkpt>
      <trkpt lat="45.47681" lon="2.89521">
        <ele>1241.056266</ele>
        <time>2021-07-07T15:02:37+0200</time>
      </trkpt>
      <trkpt lat="45.47678" lon="2.89527">
        <ele>1241.365138</ele>
        <time>2021-07-07T15:02:38+0200</time>
      </trkpt>
      <trkpt lat="45.47672" lon="2.89531">
        <ele>1240.475716</ele>
        <time>2021-07-07T15:02:39+0200</time>
      </trkpt>
      <trkpt lat="45.47669" lon="2.89538">
        <ele>1240.170893</ele>
        <time>2021-07-07T15:02:40+0200</time>
      </trkpt>
      <trkpt lat="45.47665" lon="2.89545">
        <ele>1239.76591</ele>
        <time>2021-07-07T15:02:41+0200</time>
      </trkpt>
      <trkpt lat="45.47661" lon="2.8955">
        <ele>1239.56876</ele>
        <time>2021-07-07T15:02:42+0200</time>
      </trkpt>
      <trkpt lat="45.47658" lon="2.8956">
        <ele>1239.429392</ele>
        <time>2021-07-07T15:02:43+0200</time>
      </trkpt>
      <trkpt lat="45.47655" lon="2.89568">
        <ele>1240.01554</ele>
        <time>2021-07-07T15:02:44+0200</time>
      </trkpt>
      <trkpt lat="45.47651" lon="2.89576">
        <ele>1239.894982</ele>
        <time>2021-07-07T15:02:45+0200</time>
      </trkpt>
      <trkpt lat="45.4765" lon="2.89585">
        <ele>1239.291362</ele>
        <time>2021-07-07T15:02:46+0200</time>
      </trkpt>
      <trkpt lat="45.47646" lon="2.89592">
        <ele>1238.668201</ele>
        <time>2021-07-07T15:02:47+0200</time>
      </trkpt>
      <trkpt lat="45.47643" lon="2.89599">
        <ele>1238.016562</ele>
        <time>2021-07-07T15:02:48+0200</time>
      </trkpt>
      <trkpt lat="45.4764" lon="2.89604">
        <ele>1237.755739</ele>
        <time>2021-07-07T15:02:49+0200</time>
      </trkpt>
      <trkpt lat="45.47636" lon="2.89612">
        <ele>1237.607042</ele>
        <time>2021-07-07T15:02:50+0200</time>
      </trkpt>
      <trkpt lat="45.47632" lon="2.89618">
        <ele>1237.408581</ele>
        <time>2021-07-07T15:02:51+0200</time>
      </trkpt>
      <trkpt lat="45.47629" lon="2.89625">
        <ele>1236.965995</ele>
        <time>2021-07-07T15:02:52+0200</time>
      </trkpt>
      <trkpt lat="45.47626" lon="2.89631">
        <ele>1236.365645</ele>
        <time>2021-07-07T15:02:53+0200</time>
      </trkpt>
      <trkpt lat="45.47624" lon="2.89638">
        <ele>1236.014974</ele>
        <time>2021-07-07T15:02:54+0200</time>
      </trkpt>
      <trkpt lat="45.47624" lon="2.89646">
        <ele>1236.342591</ele>
        <time>2021-07-07T15:02:56+0200</time>
      </trkpt>
      <trkpt lat="45.47621" lon="2.89651">
        <ele>1235.962214</ele>
        <time>2021-07-07T15:02:58+0200</time>
      </trkpt>
      <trkpt lat="45.4762" lon="2.89658">
        <ele>1235.746984</ele>
        <time>2021-07-07T15:03:00+0200</time>
      </trkpt>
      <trkpt lat="45.4762" lon="2.89667">
        <ele>1235.557801</ele>
        <time>2021-07-07T15:03:02+0200</time>
      </trkpt>
      <trkpt lat="45.47619" lon="2.89679">
        <ele>1234.55817</ele>
        <time>2021-07-07T15:03:04+0200</time>
      </trkpt>
      <trkpt lat="45.47617" lon="2.89684">
        <ele>1233.89283</ele>
        <time>2021-07-07T15:03:06+0200</time>
      </trkpt>
      <trkpt lat="45.47613" lon="2.89687">
        <ele>1232.130946</ele>
        <time>2021-07-07T15:03:13+0200</time>
      </trkpt>
      <trkpt lat="45.47606" lon="2.89689">
        <ele>1232.233445</ele>
        <time>2021-07-07T15:03:27+0200</time>
      </trkpt>
      <trkpt lat="45.47601" lon="2.89683">
        <ele>1231.925822</ele>
        <time>2021-07-07T15:03:30+0200</time>
      </trkpt>
      <trkpt lat="45.47597" lon="2.89678">
        <ele>1232.573317</ele>
        <time>2021-07-07T15:03:32+0200</time>
      </trkpt>
      <trkpt lat="45.47593" lon="2.89673">
        <ele>1232.594935</ele>
        <time>2021-07-07T15:03:34+0200</time>
      </trkpt>
      <trkpt lat="45.47588" lon="2.89667">
        <ele>1232.432182</ele>
        <time>2021-07-07T15:03:36+0200</time>
      </trkpt>
      <trkpt lat="45.47583" lon="2.89659">
        <ele>1231.678286</ele>
        <time>2021-07-07T15:03:38+0200</time>
      </trkpt>
      <trkpt lat="45.47578" lon="2.89653">
        <ele>1231.760899</ele>
        <time>2021-07-07T15:03:40+0200</time>
      </trkpt>
      <trkpt lat="45.47573" lon="2.89647">
        <ele>1232.323153</ele>
        <time>2021-07-07T15:03:42+0200</time>
      </trkpt>
      <trkpt lat="45.4757" lon="2.89641">
        <ele>1232.7344</ele>
        <time>2021-07-07T15:03:44+0200</time>
      </trkpt>
      <trkpt lat="45.47566" lon="2.89635">
        <ele>1232.64132</ele>
        <time>2021-07-07T15:03:46+0200</time>
      </trkpt>
      <trkpt lat="45.47561" lon="2.89629">
        <ele>1233.048105</ele>
        <time>2021-07-07T15:03:49+0200</time>
      </trkpt>
      <trkpt lat="45.47557" lon="2.89623">
        <ele>1233.081632</ele>
        <time>2021-07-07T15:03:52+0200</time>
      </trkpt>
      <trkpt lat="45.47554" lon="2.89631">
        <ele>1233.228957</ele>
        <time>2021-07-07T15:03:55+0200</time>
      </trkpt>
      <trkpt lat="45.47549" lon="2.8963">
        <ele>1232.884585</ele>
        <time>2021-07-07T15:03:57+0200</time>
      </trkpt>
      <trkpt lat="45.47546" lon="2.89624">
        <ele>1232.443373</ele>
        <time>2021-07-07T15:03:59+0200</time>
      </trkpt>
      <trkpt lat="45.47541" lon="2.89625">
        <ele>1232.21825</ele>
        <time>2021-07-07T15:04:01+0200</time>
      </trkpt>
      <trkpt lat="45.47535" lon="2.89624">
        <ele>1232.344272</ele>
        <time>2021-07-07T15:04:03+0200</time>
      </trkpt>
      <trkpt lat="45.47529" lon="2.89624">
        <ele>1232.047319</ele>
        <time>2021-07-07T15:04:05+0200</time>
      </trkpt>
      <trkpt lat="45.47523" lon="2.89625">
        <ele>1231.186381</ele>
        <time>2021-07-07T15:04:07+0200</time>
      </trkpt>
      <trkpt lat="45.47518" lon="2.89621">
        <ele>1230.910426</ele>
        <time>2021-07-07T15:04:09+0200</time>
      </trkpt>
      <trkpt lat="45.47514" lon="2.89615">
        <ele>1230.74089</ele>
        <time>2021-07-07T15:04:11+0200</time>
      </trkpt>
      <trkpt lat="45.4751" lon="2.89612">
        <ele>1230.361246</ele>
        <time>2021-07-07T15:04:13+0200</time>
      </trkpt>
      <trkpt lat="45.47503" lon="2.89611">
        <ele>1229.802843</ele>
        <time>2021-07-07T15:04:15+0200</time>
      </trkpt>
      <trkpt lat="45.47498" lon="2.89618">
        <ele>1230.037373</ele>
        <time>2021-07-07T15:04:17+0200</time>
      </trkpt>
      <trkpt lat="45.47492" lon="2.89617">
        <ele>1230.016881</ele>
        <time>2021-07-07T15:04:19+0200</time>
      </trkpt>
      <trkpt lat="45.47486" lon="2.89619">
        <ele>1229.930975</ele>
        <time>2021-07-07T15:04:21+0200</time>
      </trkpt>
      <trkpt lat="45.47479" lon="2.8962">
        <ele>1230.031547</ele>
        <time>2021-07-07T15:04:23+0200</time>
      </trkpt>
      <trkpt lat="45.47472" lon="2.8962">
        <ele>1230.265529</ele>
        <time>2021-07-07T15:04:25+0200</time>
      </trkpt>
      <trkpt lat="45.47465" lon="2.89622">
        <ele>1230.066553</ele>
        <time>2021-07-07T15:04:27+0200</time>
      </trkpt>
      <trkpt lat="45.47457" lon="2.89622">
        <ele>1229.815422</ele>
        <time>2021-07-07T15:04:29+0200</time>
      </trkpt>
      <trkpt lat="45.47449" lon="2.89622">
        <ele>1230.085769</ele>
        <time>2021-07-07T15:04:31+0200</time>
      </trkpt>
      <trkpt lat="45.47442" lon="2.8962">
        <ele>1230.551252</ele>
        <time>2021-07-07T15:04:33+0200</time>
      </trkpt>
      <trkpt lat="45.47434" lon="2.89619">
        <ele>1230.7114</ele>
        <time>2021-07-07T15:04:35+0200</time>
      </trkpt>
      <trkpt lat="45.47427" lon="2.89617">
        <ele>1230.998039</ele>
        <time>2021-07-07T15:04:37+0200</time>
      </trkpt>
      <trkpt lat="45.47419" lon="2.89616">
        <ele>1231.117569</ele>
        <time>2021-07-07T15:04:39+0200</time>
      </trkpt>
      <trkpt lat="45.47412" lon="2.89615">
        <ele>1231.352716</ele>
        <time>2021-07-07T15:04:41+0200</time>
      </trkpt>
      <trkpt lat="45.47405" lon="2.89614">
        <ele>1231.642535</ele>
        <time>2021-07-07T15:04:43+0200</time>
      </trkpt>
      <trkpt lat="45.47398" lon="2.89612">
        <ele>1231.994132</ele>
        <time>2021-07-07T15:04:45+0200</time>
      </trkpt>
      <trkpt lat="45.47391" lon="2.89609">
        <ele>1232.312864</ele>
        <time>2021-07-07T15:04:47+0200</time>
      </trkpt>
      <trkpt lat="45.47384" lon="2.89606">
        <ele>1232.611614</ele>
        <time>2021-07-07T15:04:49+0200</time>
      </trkpt>
      <trkpt lat="45.47376" lon="2.89604">
        <ele>1232.961007</ele>
        <time>2021-07-07T15:04:51+0200</time>
      </trkpt>
      <trkpt lat="45.47369" lon="2.89604">
        <ele>1233.450586</ele>
        <time>2021-07-07T15:04:53+0200</time>
      </trkpt>
      <trkpt lat="45.47363" lon="2.89604">
        <ele>1233.818756</ele>
        <time>2021-07-07T15:04:55+0200</time>
      </trkpt>
      <trkpt lat="45.47356" lon="2.89603">
        <ele>1234.169078</ele>
        <time>2021-07-07T15:04:57+0200</time>
      </trkpt>
      <trkpt lat="45.47351" lon="2.89602">
        <ele>1233.63628</ele>
        <time>2021-07-07T15:04:59+0200</time>
      </trkpt>
      <trkpt lat="45.47344" lon="2.89603">
        <ele>1233.618977</ele>
        <time>2021-07-07T15:05:01+0200</time>
      </trkpt>
      <trkpt lat="45.47336" lon="2.89601">
        <ele>1233.960895</ele>
        <time>2021-07-07T15:05:03+0200</time>
      </trkpt>
      <trkpt lat="45.4733" lon="2.89603">
        <ele>1234.482916</ele>
        <time>2021-07-07T15:05:05+0200</time>
      </trkpt>
      <trkpt lat="45.47323" lon="2.89605">
        <ele>1234.675051</ele>
        <time>2021-07-07T15:05:07+0200</time>
      </trkpt>
      <trkpt lat="45.47316" lon="2.89603">
        <ele>1235.236596</ele>
        <time>2021-07-07T15:05:09+0200</time>
      </trkpt>
      <trkpt lat="45.4731" lon="2.89599">
        <ele>1236.041565</ele>
        <time>2021-07-07T15:05:11+0200</time>
      </trkpt>
      <trkpt lat="45.47305" lon="2.89598">
        <ele>1235.966885</ele>
        <time>2021-07-07T15:05:13+0200</time>
      </trkpt>
      <trkpt lat="45.47298" lon="2.89595">
        <ele>1235.76317</ele>
        <time>2021-07-07T15:05:15+0200</time>
      </trkpt>
      <trkpt lat="45.4729" lon="2.89593">
        <ele>1235.496296</ele>
        <time>2021-07-07T15:05:17+0200</time>
      </trkpt>
      <trkpt lat="45.47281" lon="2.8959">
        <ele>1235.218483</ele>
        <time>2021-07-07T15:05:19+0200</time>
      </trkpt>
      <trkpt lat="45.47277" lon="2.89588">
        <ele>1235.020559</ele>
        <time>2021-07-07T15:05:20+0200</time>
      </trkpt>
      <trkpt lat="45.47272" lon="2.89587">
        <ele>1234.97078</ele>
        <time>2021-07-07T15:05:21+0200</time>
      </trkpt>
      <trkpt lat="45.47268" lon="2.89585">
        <ele>1234.809146</ele>
        <time>2021-07-07T15:05:22+0200</time>
      </trkpt>
      <trkpt lat="45.47263" lon="2.89584">
        <ele>1234.806325</ele>
        <time>2021-07-07T15:05:23+0200</time>
      </trkpt>
      <trkpt lat="45.47258" lon="2.89584">
        <ele>1234.63565</ele>
        <time>2021-07-07T15:05:24+0200</time>
      </trkpt>
      <trkpt lat="45.47253" lon="2.89585">
        <ele>1234.378208</ele>
        <time>2021-07-07T15:05:25+0200</time>
      </trkpt>
      <trkpt lat="45.47248" lon="2.89586">
        <ele>1234.045673</ele>
        <time>2021-07-07T15:05:26+0200</time>
      </trkpt>
      <trkpt lat="45.47243" lon="2.89588">
        <ele>1233.798608</ele>
        <time>2021-07-07T15:05:27+0200</time>
      </trkpt>
      <trkpt lat="45.47237" lon="2.89589">
        <ele>1233.804344</ele>
        <time>2021-07-07T15:05:28+0200</time>
      </trkpt>
      <trkpt lat="45.47231" lon="2.8959">
        <ele>1233.748316</ele>
        <time>2021-07-07T15:05:29+0200</time>
      </trkpt>
      <trkpt lat="45.47225" lon="2.8959">
        <ele>1233.677071</ele>
        <time>2021-07-07T15:05:30+0200</time>
      </trkpt>
      <trkpt lat="45.47219" lon="2.89589">
        <ele>1233.548726</ele>
        <time>2021-07-07T15:05:31+0200</time>
      </trkpt>
      <trkpt lat="45.47213" lon="2.89587">
        <ele>1233.237436</ele>
        <time>2021-07-07T15:05:32+0200</time>
      </trkpt>
      <trkpt lat="45.47207" lon="2.89589">
        <ele>1232.793221</ele>
        <time>2021-07-07T15:05:33+0200</time>
      </trkpt>
      <trkpt lat="45.47201" lon="2.89591">
        <ele>1232.711343</ele>
        <time>2021-07-07T15:05:34+0200</time>
      </trkpt>
      <trkpt lat="45.47197" lon="2.89595">
        <ele>1232.573148</ele>
        <time>2021-07-07T15:05:35+0200</time>
      </trkpt>
      <trkpt lat="45.47192" lon="2.896">
        <ele>1232.325592</ele>
        <time>2021-07-07T15:05:36+0200</time>
      </trkpt>
      <trkpt lat="45.47187" lon="2.89603">
        <ele>1232.463656</ele>
        <time>2021-07-07T15:05:37+0200</time>
      </trkpt>
      <trkpt lat="45.47183" lon="2.89605">
        <ele>1232.725963</ele>
        <time>2021-07-07T15:05:38+0200</time>
      </trkpt>
      <trkpt lat="45.47175" lon="2.89611">
        <ele>1232.113259</ele>
        <time>2021-07-07T15:05:40+0200</time>
      </trkpt>
      <trkpt lat="45.4717" lon="2.89613">
        <ele>1231.383574</ele>
        <time>2021-07-07T15:05:41+0200</time>
      </trkpt>
      <trkpt lat="45.47165" lon="2.89616">
        <ele>1230.770839</ele>
        <time>2021-07-07T15:05:42+0200</time>
      </trkpt>
      <trkpt lat="45.47159" lon="2.89619">
        <ele>1230.455404</ele>
        <time>2021-07-07T15:05:43+0200</time>
      </trkpt>
      <trkpt lat="45.47152" lon="2.89621">
        <ele>1230.496779</ele>
        <time>2021-07-07T15:05:44+0200</time>
      </trkpt>
      <trkpt lat="45.47146" lon="2.89625">
        <ele>1230.124266</ele>
        <time>2021-07-07T15:05:45+0200</time>
      </trkpt>
      <trkpt lat="45.47139" lon="2.89629">
        <ele>1229.628216</ele>
        <time>2021-07-07T15:05:46+0200</time>
      </trkpt>
      <trkpt lat="45.47133" lon="2.89633">
        <ele>1228.768693</ele>
        <time>2021-07-07T15:05:47+0200</time>
      </trkpt>
      <trkpt lat="45.47126" lon="2.89637">
        <ele>1229.233547</ele>
        <time>2021-07-07T15:05:48+0200</time>
      </trkpt>
      <trkpt lat="45.4712" lon="2.89645">
        <ele>1228.440628</ele>
        <time>2021-07-07T15:05:49+0200</time>
      </trkpt>
      <trkpt lat="45.47116" lon="2.89654">
        <ele>1228.451567</ele>
        <time>2021-07-07T15:05:50+0200</time>
      </trkpt>
      <trkpt lat="45.47111" lon="2.89661">
        <ele>1228.452606</ele>
        <time>2021-07-07T15:05:51+0200</time>
      </trkpt>
      <trkpt lat="45.47107" lon="2.89666">
        <ele>1227.922802</ele>
        <time>2021-07-07T15:05:52+0200</time>
      </trkpt>
      <trkpt lat="45.47104" lon="2.89673">
        <ele>1227.61506</ele>
        <time>2021-07-07T15:05:53+0200</time>
      </trkpt>
      <trkpt lat="45.471" lon="2.89678">
        <ele>1227.165295</ele>
        <time>2021-07-07T15:05:54+0200</time>
      </trkpt>
      <trkpt lat="45.47097" lon="2.89684">
        <ele>1227.086887</ele>
        <time>2021-07-07T15:05:55+0200</time>
      </trkpt>
      <trkpt lat="45.47093" lon="2.89691">
        <ele>1227.080661</ele>
        <time>2021-07-07T15:05:57+0200</time>
      </trkpt>
      <trkpt lat="45.47087" lon="2.89691">
        <ele>1226.350485</ele>
        <time>2021-07-07T15:06:53+0200</time>
      </trkpt>
      <trkpt lat="45.47081" lon="2.89692">
        <ele>1225.800492</ele>
        <time>2021-07-07T15:06:57+0200</time>
      </trkpt>
      <trkpt lat="45.47075" lon="2.8969">
        <ele>1224.822827</ele>
        <time>2021-07-07T15:07:16+0200</time>
      </trkpt>
      <trkpt lat="45.4707" lon="2.89689">
        <ele>1224.711324</ele>
        <time>2021-07-07T15:07:18+0200</time>
      </trkpt>
      <trkpt lat="45.47064" lon="2.89694">
        <ele>1224.632444</ele>
        <time>2021-07-07T15:07:26+0200</time>
      </trkpt>
      <trkpt lat="45.4706" lon="2.89698">
        <ele>1223.543805</ele>
        <time>2021-07-07T15:07:28+0200</time>
      </trkpt>
      <trkpt lat="45.47055" lon="2.89698">
        <ele>1223.180015</ele>
        <time>2021-07-07T15:07:30+0200</time>
      </trkpt>
      <trkpt lat="45.47049" lon="2.89701">
        <ele>1223.231087</ele>
        <time>2021-07-07T15:07:49+0200</time>
      </trkpt>
      <trkpt lat="45.47044" lon="2.89702">
        <ele>1223.100405</ele>
        <time>2021-07-07T15:07:51+0200</time>
      </trkpt>
      <trkpt lat="45.47037" lon="2.89704">
        <ele>1222.222917</ele>
        <time>2021-07-07T15:07:53+0200</time>
      </trkpt>
      <trkpt lat="45.47032" lon="2.89705">
        <ele>1222.018257</ele>
        <time>2021-07-07T15:07:54+0200</time>
      </trkpt>
      <trkpt lat="45.47025" lon="2.89709">
        <ele>1221.139323</ele>
        <time>2021-07-07T15:07:56+0200</time>
      </trkpt>
      <trkpt lat="45.4702" lon="2.89711">
        <ele>1220.738025</ele>
        <time>2021-07-07T15:07:57+0200</time>
      </trkpt>
      <trkpt lat="45.47016" lon="2.89713">
        <ele>1220.364618</ele>
        <time>2021-07-07T15:07:58+0200</time>
      </trkpt>
      <trkpt lat="45.4701" lon="2.89713">
        <ele>1219.9289</ele>
        <time>2021-07-07T15:07:59+0200</time>
      </trkpt>
      <trkpt lat="45.47005" lon="2.89715">
        <ele>1219.401698</ele>
        <time>2021-07-07T15:08:00+0200</time>
      </trkpt>
      <trkpt lat="45.47" lon="2.89718">
        <ele>1218.970042</ele>
        <time>2021-07-07T15:08:01+0200</time>
      </trkpt>
      <trkpt lat="45.46994" lon="2.89719">
        <ele>1218.306824</ele>
        <time>2021-07-07T15:08:02+0200</time>
      </trkpt>
      <trkpt lat="45.46989" lon="2.89721">
        <ele>1217.771004</ele>
        <time>2021-07-07T15:08:03+0200</time>
      </trkpt>
      <trkpt lat="45.4698" lon="2.89725">
        <ele>1216.581487</ele>
        <time>2021-07-07T15:08:05+0200</time>
      </trkpt>
      <trkpt lat="45.46975" lon="2.89726">
        <ele>1215.91913</ele>
        <time>2021-07-07T15:08:06+0200</time>
      </trkpt>
      <trkpt lat="45.46969" lon="2.89729">
        <ele>1215.376026</ele>
        <time>2021-07-07T15:08:07+0200</time>
      </trkpt>
      <trkpt lat="45.46963" lon="2.89732">
        <ele>1214.704342</ele>
        <time>2021-07-07T15:08:08+0200</time>
      </trkpt>
      <trkpt lat="45.46956" lon="2.89736">
        <ele>1213.414902</ele>
        <time>2021-07-07T15:08:09+0200</time>
      </trkpt>
      <trkpt lat="45.46949" lon="2.89738">
        <ele>1213.106878</ele>
        <time>2021-07-07T15:08:10+0200</time>
      </trkpt>
      <trkpt lat="45.46942" lon="2.8974">
        <ele>1212.169049</ele>
        <time>2021-07-07T15:08:11+0200</time>
      </trkpt>
      <trkpt lat="45.46934" lon="2.89742">
        <ele>1211.15715</ele>
        <time>2021-07-07T15:08:12+0200</time>
      </trkpt>
      <trkpt lat="45.46925" lon="2.89742">
        <ele>1210.709159</ele>
        <time>2021-07-07T15:08:13+0200</time>
      </trkpt>
      <trkpt lat="45.46916" lon="2.89742">
        <ele>1209.075431</ele>
        <time>2021-07-07T15:08:14+0200</time>
      </trkpt>
      <trkpt lat="45.46906" lon="2.89742">
        <ele>1207.574748</ele>
        <time>2021-07-07T15:08:15+0200</time>
      </trkpt>
      <trkpt lat="45.46896" lon="2.89745">
        <ele>1205.867359</ele>
        <time>2021-07-07T15:08:16+0200</time>
      </trkpt>
      <trkpt lat="45.46886" lon="2.89748">
        <ele>1205.337037</ele>
        <time>2021-07-07T15:08:17+0200</time>
      </trkpt>
      <trkpt lat="45.46877" lon="2.89752">
        <ele>1204.616397</ele>
        <time>2021-07-07T15:08:18+0200</time>
      </trkpt>
      <trkpt lat="45.46867" lon="2.89756">
        <ele>1203.107615</ele>
        <time>2021-07-07T15:08:19+0200</time>
      </trkpt>
      <trkpt lat="45.46857" lon="2.89758">
        <ele>1202.829155</ele>
        <time>2021-07-07T15:08:20+0200</time>
      </trkpt>
      <trkpt lat="45.46848" lon="2.89763">
        <ele>1202.242349</ele>
        <time>2021-07-07T15:08:21+0200</time>
      </trkpt>
      <trkpt lat="45.46838" lon="2.89765">
        <ele>1201.68429</ele>
        <time>2021-07-07T15:08:22+0200</time>
      </trkpt>
      <trkpt lat="45.46829" lon="2.89767">
        <ele>1200.688053</ele>
        <time>2021-07-07T15:08:23+0200</time>
      </trkpt>
      <trkpt lat="45.46819" lon="2.89768">
        <ele>1199.699003</ele>
        <time>2021-07-07T15:08:24+0200</time>
      </trkpt>
      <trkpt lat="45.46809" lon="2.8977">
        <ele>1198.665727</ele>
        <time>2021-07-07T15:08:25+0200</time>
      </trkpt>
      <trkpt lat="45.46799" lon="2.89773">
        <ele>1198.056562</ele>
        <time>2021-07-07T15:08:26+0200</time>
      </trkpt>
      <trkpt lat="45.4679" lon="2.89778">
        <ele>1197.286325</ele>
        <time>2021-07-07T15:08:27+0200</time>
      </trkpt>
      <trkpt lat="45.4678" lon="2.89781">
        <ele>1196.175533</ele>
        <time>2021-07-07T15:08:28+0200</time>
      </trkpt>
      <trkpt lat="45.4677" lon="2.89785">
        <ele>1195.984172</ele>
        <time>2021-07-07T15:08:29+0200</time>
      </trkpt>
      <trkpt lat="45.46761" lon="2.89789">
        <ele>1194.851068</ele>
        <time>2021-07-07T15:08:30+0200</time>
      </trkpt>
      <trkpt lat="45.46754" lon="2.89793">
        <ele>1193.751148</ele>
        <time>2021-07-07T15:08:31+0200</time>
      </trkpt>
      <trkpt lat="45.46746" lon="2.89799">
        <ele>1192.706394</ele>
        <time>2021-07-07T15:08:32+0200</time>
      </trkpt>
      <trkpt lat="45.4674" lon="2.89801">
        <ele>1191.69646</ele>
        <time>2021-07-07T15:08:33+0200</time>
      </trkpt>
      <trkpt lat="45.46731" lon="2.89804">
        <ele>1190.264734</ele>
        <time>2021-07-07T15:08:35+0200</time>
      </trkpt>
      <trkpt lat="45.46725" lon="2.89807">
        <ele>1189.231594</ele>
        <time>2021-07-07T15:08:36+0200</time>
      </trkpt>
      <trkpt lat="45.46719" lon="2.89811">
        <ele>1188.551903</ele>
        <time>2021-07-07T15:08:37+0200</time>
      </trkpt>
      <trkpt lat="45.46713" lon="2.89818">
        <ele>1188.466279</ele>
        <time>2021-07-07T15:08:38+0200</time>
      </trkpt>
      <trkpt lat="45.46708" lon="2.89825">
        <ele>1187.630403</ele>
        <time>2021-07-07T15:08:39+0200</time>
      </trkpt>
      <trkpt lat="45.46702" lon="2.89832">
        <ele>1186.554696</ele>
        <time>2021-07-07T15:08:40+0200</time>
      </trkpt>
      <trkpt lat="45.46695" lon="2.89839">
        <ele>1185.061487</ele>
        <time>2021-07-07T15:08:41+0200</time>
      </trkpt>
      <trkpt lat="45.46688" lon="2.89845">
        <ele>1185.018652</ele>
        <time>2021-07-07T15:08:42+0200</time>
      </trkpt>
      <trkpt lat="45.46681" lon="2.89849">
        <ele>1184.035656</ele>
        <time>2021-07-07T15:08:43+0200</time>
      </trkpt>
      <trkpt lat="45.46677" lon="2.89854">
        <ele>1184.189886</ele>
        <time>2021-07-07T15:09:28+0200</time>
      </trkpt>
      <trkpt lat="45.46674" lon="2.89859">
        <ele>1183.829658</ele>
        <time>2021-07-07T15:09:30+0200</time>
      </trkpt>
      <trkpt lat="45.4667" lon="2.89866">
        <ele>1184.422946</ele>
        <time>2021-07-07T15:09:32+0200</time>
      </trkpt>
      <trkpt lat="45.46665" lon="2.89871">
        <ele>1185.016685</ele>
        <time>2021-07-07T15:09:34+0200</time>
      </trkpt>
      <trkpt lat="45.46658" lon="2.89874">
        <ele>1185.392226</ele>
        <time>2021-07-07T15:09:36+0200</time>
      </trkpt>
      <trkpt lat="45.46652" lon="2.89877">
        <ele>1185.732894</ele>
        <time>2021-07-07T15:09:38+0200</time>
      </trkpt>
      <trkpt lat="45.46647" lon="2.89876">
        <ele>1185.621726</ele>
        <time>2021-07-07T15:09:40+0200</time>
      </trkpt>
      <trkpt lat="45.4664" lon="2.89873">
        <ele>1184.481208</ele>
        <time>2021-07-07T15:09:42+0200</time>
      </trkpt>
      <trkpt lat="45.46631" lon="2.89871">
        <ele>1183.786958</ele>
        <time>2021-07-07T15:09:44+0200</time>
      </trkpt>
      <trkpt lat="45.46626" lon="2.89871">
        <ele>1183.168195</ele>
        <time>2021-07-07T15:09:45+0200</time>
      </trkpt>
      <trkpt lat="45.46621" lon="2.8987">
        <ele>1183.48469</ele>
        <time>2021-07-07T15:09:46+0200</time>
      </trkpt>
      <trkpt lat="45.46615" lon="2.89869">
        <ele>1183.359357</ele>
        <time>2021-07-07T15:09:47+0200</time>
      </trkpt>
      <trkpt lat="45.46609" lon="2.89868">
        <ele>1183.314195</ele>
        <time>2021-07-07T15:09:48+0200</time>
      </trkpt>
      <trkpt lat="45.46601" lon="2.89868">
        <ele>1182.890044</ele>
        <time>2021-07-07T15:09:50+0200</time>
      </trkpt>
      <trkpt lat="45.46596" lon="2.89866">
        <ele>1182.666409</ele>
        <time>2021-07-07T15:09:51+0200</time>
      </trkpt>
      <trkpt lat="45.46589" lon="2.89866">
        <ele>1183.020899</ele>
        <time>2021-07-07T15:09:53+0200</time>
      </trkpt>
      <trkpt lat="45.46583" lon="2.89865">
        <ele>1183.221292</ele>
        <time>2021-07-07T15:09:55+0200</time>
      </trkpt>
      <trkpt lat="45.46577" lon="2.89868">
        <ele>1183.239254</ele>
        <time>2021-07-07T15:09:57+0200</time>
      </trkpt>
      <trkpt lat="45.46571" lon="2.89869">
        <ele>1183.651204</ele>
        <time>2021-07-07T15:09:59+0200</time>
      </trkpt>
      <trkpt lat="45.46565" lon="2.89872">
        <ele>1183.636011</ele>
        <time>2021-07-07T15:10:01+0200</time>
      </trkpt>
      <trkpt lat="45.46559" lon="2.89875">
        <ele>1183.924186</ele>
        <time>2021-07-07T15:10:03+0200</time>
      </trkpt>
      <trkpt lat="45.46552" lon="2.89878">
        <ele>1184.440815</ele>
        <time>2021-07-07T15:10:05+0200</time>
      </trkpt>
      <trkpt lat="45.46545" lon="2.8988">
        <ele>1184.535687</ele>
        <time>2021-07-07T15:10:07+0200</time>
      </trkpt>
      <trkpt lat="45.46538" lon="2.89882">
        <ele>1184.802564</ele>
        <time>2021-07-07T15:10:09+0200</time>
      </trkpt>
      <trkpt lat="45.4653" lon="2.89884">
        <ele>1184.642281</ele>
        <time>2021-07-07T15:10:11+0200</time>
      </trkpt>
      <trkpt lat="45.46523" lon="2.89887">
        <ele>1184.291725</ele>
        <time>2021-07-07T15:10:13+0200</time>
      </trkpt>
      <trkpt lat="45.46516" lon="2.89891">
        <ele>1184.013911</ele>
        <time>2021-07-07T15:10:15+0200</time>
      </trkpt>
      <trkpt lat="45.46508" lon="2.89894">
        <ele>1183.493161</ele>
        <time>2021-07-07T15:10:17+0200</time>
      </trkpt>
      <trkpt lat="45.46501" lon="2.89898">
        <ele>1184.695658</ele>
        <time>2021-07-07T15:10:19+0200</time>
      </trkpt>
      <trkpt lat="45.46496" lon="2.89901">
        <ele>1184.825877</ele>
        <time>2021-07-07T15:10:21+0200</time>
      </trkpt>
      <trkpt lat="45.4649" lon="2.89904">
        <ele>1184.940701</ele>
        <time>2021-07-07T15:10:23+0200</time>
      </trkpt>
      <trkpt lat="45.46485" lon="2.89908">
        <ele>1185.447289</ele>
        <time>2021-07-07T15:10:25+0200</time>
      </trkpt>
      <trkpt lat="45.46479" lon="2.89913">
        <ele>1185.408398</ele>
        <time>2021-07-07T15:10:27+0200</time>
      </trkpt>
      <trkpt lat="45.46474" lon="2.89917">
        <ele>1185.290276</ele>
        <time>2021-07-07T15:10:29+0200</time>
      </trkpt>
      <trkpt lat="45.46469" lon="2.89921">
        <ele>1185.508895</ele>
        <time>2021-07-07T15:10:31+0200</time>
      </trkpt>
      <trkpt lat="45.46463" lon="2.89927">
        <ele>1185.96481</ele>
        <time>2021-07-07T15:10:33+0200</time>
      </trkpt>
      <trkpt lat="45.46458" lon="2.89931">
        <ele>1186.450226</ele>
        <time>2021-07-07T15:10:35+0200</time>
      </trkpt>
      <trkpt lat="45.46452" lon="2.89934">
        <ele>1187.028126</ele>
        <time>2021-07-07T15:10:37+0200</time>
      </trkpt>
      <trkpt lat="45.46445" lon="2.89938">
        <ele>1187.486664</ele>
        <time>2021-07-07T15:10:39+0200</time>
      </trkpt>
      <trkpt lat="45.46438" lon="2.89943">
        <ele>1186.941758</ele>
        <time>2021-07-07T15:10:41+0200</time>
      </trkpt>
      <trkpt lat="45.46431" lon="2.89948">
        <ele>1185.989583</ele>
        <time>2021-07-07T15:10:43+0200</time>
      </trkpt>
      <trkpt lat="45.46423" lon="2.89956">
        <ele>1185.766011</ele>
        <time>2021-07-07T15:10:45+0200</time>
      </trkpt>
      <trkpt lat="45.46417" lon="2.89962">
        <ele>1186.3468</ele>
        <time>2021-07-07T15:10:47+0200</time>
      </trkpt>
      <trkpt lat="45.4641" lon="2.8997">
        <ele>1187.358416</ele>
        <time>2021-07-07T15:10:49+0200</time>
      </trkpt>
      <trkpt lat="45.46406" lon="2.89975">
        <ele>1187.525477</ele>
        <time>2021-07-07T15:10:50+0200</time>
      </trkpt>
      <trkpt lat="45.46403" lon="2.89979">
        <ele>1188.113935</ele>
        <time>2021-07-07T15:10:51+0200</time>
      </trkpt>
      <trkpt lat="45.46398" lon="2.89984">
        <ele>1187.764278</ele>
        <time>2021-07-07T15:10:52+0200</time>
      </trkpt>
      <trkpt lat="45.46393" lon="2.89989">
        <ele>1187.449694</ele>
        <time>2021-07-07T15:10:53+0200</time>
      </trkpt>
      <trkpt lat="45.46391" lon="2.89995">
        <ele>1187.310996</ele>
        <time>2021-07-07T15:10:54+0200</time>
      </trkpt>
      <trkpt lat="45.4639" lon="2.90002">
        <ele>1187.142639</ele>
        <time>2021-07-07T15:10:55+0200</time>
      </trkpt>
      <trkpt lat="45.46388" lon="2.90009">
        <ele>1187.36677</ele>
        <time>2021-07-07T15:10:56+0200</time>
      </trkpt>
      <trkpt lat="45.46382" lon="2.90018">
        <ele>1187.764527</ele>
        <time>2021-07-07T15:10:58+0200</time>
      </trkpt>
      <trkpt lat="45.46377" lon="2.90028">
        <ele>1188.265131</ele>
        <time>2021-07-07T15:11:00+0200</time>
      </trkpt>
      <trkpt lat="45.46374" lon="2.90038">
        <ele>1188.613288</ele>
        <time>2021-07-07T15:11:02+0200</time>
      </trkpt>
      <trkpt lat="45.46369" lon="2.90047">
        <ele>1189.039966</ele>
        <time>2021-07-07T15:11:04+0200</time>
      </trkpt>
      <trkpt lat="45.46364" lon="2.90056">
        <ele>1189.260026</ele>
        <time>2021-07-07T15:11:06+0200</time>
      </trkpt>
      <trkpt lat="45.46359" lon="2.90067">
        <ele>1189.408883</ele>
        <time>2021-07-07T15:11:08+0200</time>
      </trkpt>
      <trkpt lat="45.46355" lon="2.90076">
        <ele>1190.299545</ele>
        <time>2021-07-07T15:11:10+0200</time>
      </trkpt>
      <trkpt lat="45.46351" lon="2.90087">
        <ele>1190.604388</ele>
        <time>2021-07-07T15:11:12+0200</time>
      </trkpt>
      <trkpt lat="45.46349" lon="2.90097">
        <ele>1191.648685</ele>
        <time>2021-07-07T15:11:14+0200</time>
      </trkpt>
      <trkpt lat="45.46345" lon="2.90107">
        <ele>1191.623591</ele>
        <time>2021-07-07T15:11:16+0200</time>
      </trkpt>
      <trkpt lat="45.46341" lon="2.90118">
        <ele>1191.440507</ele>
        <time>2021-07-07T15:11:18+0200</time>
      </trkpt>
      <trkpt lat="45.46339" lon="2.90125">
        <ele>1191.985995</ele>
        <time>2021-07-07T15:11:19+0200</time>
      </trkpt>
      <trkpt lat="45.46337" lon="2.90138">
        <ele>1192.13239</ele>
        <time>2021-07-07T15:11:21+0200</time>
      </trkpt>
      <trkpt lat="45.46335" lon="2.90144">
        <ele>1191.965318</ele>
        <time>2021-07-07T15:11:22+0200</time>
      </trkpt>
      <trkpt lat="45.46334" lon="2.90151">
        <ele>1192.670908</ele>
        <time>2021-07-07T15:11:23+0200</time>
      </trkpt>
      <trkpt lat="45.46332" lon="2.90157">
        <ele>1192.271463</ele>
        <time>2021-07-07T15:11:24+0200</time>
      </trkpt>
      <trkpt lat="45.46329" lon="2.90164">
        <ele>1192.054892</ele>
        <time>2021-07-07T15:11:25+0200</time>
      </trkpt>
      <trkpt lat="45.46327" lon="2.9017">
        <ele>1191.976579</ele>
        <time>2021-07-07T15:11:26+0200</time>
      </trkpt>
      <trkpt lat="45.46325" lon="2.90177">
        <ele>1191.752769</ele>
        <time>2021-07-07T15:11:27+0200</time>
      </trkpt>
      <trkpt lat="45.46323" lon="2.90184">
        <ele>1191.435551</ele>
        <time>2021-07-07T15:11:28+0200</time>
      </trkpt>
      <trkpt lat="45.46322" lon="2.90191">
        <ele>1191.416913</ele>
        <time>2021-07-07T15:11:29+0200</time>
      </trkpt>
      <trkpt lat="45.4632" lon="2.90198">
        <ele>1191.515741</ele>
        <time>2021-07-07T15:11:30+0200</time>
      </trkpt>
      <trkpt lat="45.46319" lon="2.90206">
        <ele>1191.50637</ele>
        <time>2021-07-07T15:11:31+0200</time>
      </trkpt>
      <trkpt lat="45.46317" lon="2.90213">
        <ele>1191.141943</ele>
        <time>2021-07-07T15:11:32+0200</time>
      </trkpt>
      <trkpt lat="45.46314" lon="2.90219">
        <ele>1190.649947</ele>
        <time>2021-07-07T15:11:33+0200</time>
      </trkpt>
      <trkpt lat="45.46311" lon="2.90227">
        <ele>1190.590342</ele>
        <time>2021-07-07T15:11:34+0200</time>
      </trkpt>
      <trkpt lat="45.46307" lon="2.90232">
        <ele>1189.95631</ele>
        <time>2021-07-07T15:11:35+0200</time>
      </trkpt>
      <trkpt lat="45.46303" lon="2.90238">
        <ele>1189.620508</ele>
        <time>2021-07-07T15:11:36+0200</time>
      </trkpt>
      <trkpt lat="45.463" lon="2.90244">
        <ele>1189.045248</ele>
        <time>2021-07-07T15:11:37+0200</time>
      </trkpt>
      <trkpt lat="45.46296" lon="2.9025">
        <ele>1188.431924</ele>
        <time>2021-07-07T15:11:38+0200</time>
      </trkpt>
      <trkpt lat="45.46293" lon="2.90257">
        <ele>1187.9068</ele>
        <time>2021-07-07T15:11:39+0200</time>
      </trkpt>
      <trkpt lat="45.46289" lon="2.90262">
        <ele>1187.783792</ele>
        <time>2021-07-07T15:11:40+0200</time>
      </trkpt>
      <trkpt lat="45.46285" lon="2.90268">
        <ele>1187.556823</ele>
        <time>2021-07-07T15:11:41+0200</time>
      </trkpt>
      <trkpt lat="45.46281" lon="2.90272">
        <ele>1187.406848</ele>
        <time>2021-07-07T15:11:42+0200</time>
      </trkpt>
      <trkpt lat="45.46278" lon="2.90279">
        <ele>1187.211912</ele>
        <time>2021-07-07T15:11:43+0200</time>
      </trkpt>
      <trkpt lat="45.46274" lon="2.90284">
        <ele>1187.188511</ele>
        <time>2021-07-07T15:11:44+0200</time>
      </trkpt>
      <trkpt lat="45.46271" lon="2.90289">
        <ele>1187.020559</ele>
        <time>2021-07-07T15:11:45+0200</time>
      </trkpt>
      <trkpt lat="45.46267" lon="2.90294">
        <ele>1186.834885</ele>
        <time>2021-07-07T15:11:46+0200</time>
      </trkpt>
      <trkpt lat="45.46263" lon="2.90298">
        <ele>1186.928496</ele>
        <time>2021-07-07T15:11:47+0200</time>
      </trkpt>
      <trkpt lat="45.46258" lon="2.90301">
        <ele>1187.181952</ele>
        <time>2021-07-07T15:11:48+0200</time>
      </trkpt>
      <trkpt lat="45.46254" lon="2.90302">
        <ele>1187.069194</ele>
        <time>2021-07-07T15:11:49+0200</time>
      </trkpt>
      <trkpt lat="45.46249" lon="2.90305">
        <ele>1186.839363</ele>
        <time>2021-07-07T15:11:50+0200</time>
      </trkpt>
      <trkpt lat="45.4624" lon="2.90307">
        <ele>1186.471291</ele>
        <time>2021-07-07T15:11:52+0200</time>
      </trkpt>
      <trkpt lat="45.46235" lon="2.90308">
        <ele>1186.472527</ele>
        <time>2021-07-07T15:11:53+0200</time>
      </trkpt>
      <trkpt lat="45.46231" lon="2.9031">
        <ele>1186.458486</ele>
        <time>2021-07-07T15:11:54+0200</time>
      </trkpt>
      <trkpt lat="45.46226" lon="2.90311">
        <ele>1186.594078</ele>
        <time>2021-07-07T15:11:55+0200</time>
      </trkpt>
      <trkpt lat="45.46221" lon="2.90313">
        <ele>1186.514076</ele>
        <time>2021-07-07T15:11:56+0200</time>
      </trkpt>
      <trkpt lat="45.46217" lon="2.90313">
        <ele>1186.427521</ele>
        <time>2021-07-07T15:11:57+0200</time>
      </trkpt>
      <trkpt lat="45.46212" lon="2.90313">
        <ele>1186.82596</ele>
        <time>2021-07-07T15:11:58+0200</time>
      </trkpt>
      <trkpt lat="45.46206" lon="2.90313">
        <ele>1186.467825</ele>
        <time>2021-07-07T15:11:59+0200</time>
      </trkpt>
      <trkpt lat="45.462" lon="2.90312">
        <ele>1185.906787</ele>
        <time>2021-07-07T15:12:00+0200</time>
      </trkpt>
      <trkpt lat="45.46195" lon="2.9031">
        <ele>1185.595897</ele>
        <time>2021-07-07T15:12:01+0200</time>
      </trkpt>
      <trkpt lat="45.4619" lon="2.90307">
        <ele>1185.128325</ele>
        <time>2021-07-07T15:12:02+0200</time>
      </trkpt>
      <trkpt lat="45.46184" lon="2.90303">
        <ele>1184.685185</ele>
        <time>2021-07-07T15:12:03+0200</time>
      </trkpt>
      <trkpt lat="45.46179" lon="2.903">
        <ele>1184.653812</ele>
        <time>2021-07-07T15:12:04+0200</time>
      </trkpt>
      <trkpt lat="45.46174" lon="2.90297">
        <ele>1184.373303</ele>
        <time>2021-07-07T15:12:05+0200</time>
      </trkpt>
      <trkpt lat="45.46168" lon="2.90294">
        <ele>1184.25897</ele>
        <time>2021-07-07T15:12:06+0200</time>
      </trkpt>
      <trkpt lat="45.46163" lon="2.9029">
        <ele>1184.156276</ele>
        <time>2021-07-07T15:12:07+0200</time>
      </trkpt>
      <trkpt lat="45.46159" lon="2.90287">
        <ele>1184.170183</ele>
        <time>2021-07-07T15:12:08+0200</time>
      </trkpt>
      <trkpt lat="45.46154" lon="2.90284">
        <ele>1184.282337</ele>
        <time>2021-07-07T15:12:09+0200</time>
      </trkpt>
      <trkpt lat="45.46147" lon="2.90285">
        <ele>1184.252592</ele>
        <time>2021-07-07T15:12:11+0200</time>
      </trkpt>
      <trkpt lat="45.46141" lon="2.90295">
        <ele>1185.048933</ele>
        <time>2021-07-07T15:12:13+0200</time>
      </trkpt>
      <trkpt lat="45.4614" lon="2.90305">
        <ele>1186.164259</ele>
        <time>2021-07-07T15:12:15+0200</time>
      </trkpt>
      <trkpt lat="45.4614" lon="2.90313">
        <ele>1187.655739</ele>
        <time>2021-07-07T15:12:17+0200</time>
      </trkpt>
      <trkpt lat="45.46142" lon="2.90322">
        <ele>1188.790006</ele>
        <time>2021-07-07T15:12:19+0200</time>
      </trkpt>
      <trkpt lat="45.46143" lon="2.90328">
        <ele>1189.560961</ele>
        <time>2021-07-07T15:12:21+0200</time>
      </trkpt>
      <trkpt lat="45.46146" lon="2.90339">
        <ele>1189.505334</ele>
        <time>2021-07-07T15:12:23+0200</time>
      </trkpt>
      <trkpt lat="45.46147" lon="2.90347">
        <ele>1190.222087</ele>
        <time>2021-07-07T15:12:25+0200</time>
      </trkpt>
      <trkpt lat="45.46148" lon="2.90357">
        <ele>1190.855424</ele>
        <time>2021-07-07T15:12:27+0200</time>
      </trkpt>
      <trkpt lat="45.46149" lon="2.90365">
        <ele>1191.967644</ele>
        <time>2021-07-07T15:12:29+0200</time>
      </trkpt>
      <trkpt lat="45.46149" lon="2.90375">
        <ele>1192.838694</ele>
        <time>2021-07-07T15:12:31+0200</time>
      </trkpt>
      <trkpt lat="45.4615" lon="2.90387">
        <ele>1193.974566</ele>
        <time>2021-07-07T15:12:33+0200</time>
      </trkpt>
      <trkpt lat="45.4615" lon="2.90394">
        <ele>1193.910941</ele>
        <time>2021-07-07T15:12:34+0200</time>
      </trkpt>
      <trkpt lat="45.4615" lon="2.90401">
        <ele>1193.618332</ele>
        <time>2021-07-07T15:12:35+0200</time>
      </trkpt>
      <trkpt lat="45.4615" lon="2.90409">
        <ele>1193.760799</ele>
        <time>2021-07-07T15:12:36+0200</time>
      </trkpt>
      <trkpt lat="45.4615" lon="2.90418">
        <ele>1193.312356</ele>
        <time>2021-07-07T15:12:37+0200</time>
      </trkpt>
      <trkpt lat="45.46149" lon="2.90426">
        <ele>1193.638388</ele>
        <time>2021-07-07T15:12:38+0200</time>
      </trkpt>
      <trkpt lat="45.46149" lon="2.90434">
        <ele>1193.221368</ele>
        <time>2021-07-07T15:12:39+0200</time>
      </trkpt>
      <trkpt lat="45.4615" lon="2.90442">
        <ele>1193.677722</ele>
        <time>2021-07-07T15:12:40+0200</time>
      </trkpt>
      <trkpt lat="45.4615" lon="2.90449">
        <ele>1193.819867</ele>
        <time>2021-07-07T15:12:41+0200</time>
      </trkpt>
      <trkpt lat="45.4615" lon="2.90457">
        <ele>1193.903598</ele>
        <time>2021-07-07T15:12:42+0200</time>
      </trkpt>
      <trkpt lat="45.4615" lon="2.90465">
        <ele>1193.70944</ele>
        <time>2021-07-07T15:12:43+0200</time>
      </trkpt>
      <trkpt lat="45.46153" lon="2.90479">
        <ele>1193.524883</ele>
        <time>2021-07-07T15:12:44+0200</time>
      </trkpt>
      <trkpt lat="45.46154" lon="2.9049">
        <ele>1193.085643</ele>
        <time>2021-07-07T15:12:45+0200</time>
      </trkpt>
      <trkpt lat="45.46155" lon="2.90502">
        <ele>1192.541582</ele>
        <time>2021-07-07T15:12:46+0200</time>
      </trkpt>
      <trkpt lat="45.46154" lon="2.90513">
        <ele>1191.813242</ele>
        <time>2021-07-07T15:12:47+0200</time>
      </trkpt>
      <trkpt lat="45.46154" lon="2.90526">
        <ele>1190.56434</ele>
        <time>2021-07-07T15:12:48+0200</time>
      </trkpt>
      <trkpt lat="45.46154" lon="2.90539">
        <ele>1189.205091</ele>
        <time>2021-07-07T15:12:49+0200</time>
      </trkpt>
      <trkpt lat="45.46155" lon="2.90554">
        <ele>1187.452388</ele>
        <time>2021-07-07T15:12:50+0200</time>
      </trkpt>
      <trkpt lat="45.46154" lon="2.9057">
        <ele>1186.033632</ele>
        <time>2021-07-07T15:12:51+0200</time>
      </trkpt>
      <trkpt lat="45.46154" lon="2.90587">
        <ele>1183.983443</ele>
        <time>2021-07-07T15:12:52+0200</time>
      </trkpt>
      <trkpt lat="45.46153" lon="2.90606">
        <ele>1181.359076</ele>
        <time>2021-07-07T15:12:53+0200</time>
      </trkpt>
      <trkpt lat="45.46152" lon="2.90624">
        <ele>1178.619303</ele>
        <time>2021-07-07T15:12:54+0200</time>
      </trkpt>
      <trkpt lat="45.46152" lon="2.90645">
        <ele>1175.31899</ele>
        <time>2021-07-07T15:12:55+0200</time>
      </trkpt>
      <trkpt lat="45.4615" lon="2.90665">
        <ele>1171.936484</ele>
        <time>2021-07-07T15:12:56+0200</time>
      </trkpt>
      <trkpt lat="45.46151" lon="2.90688">
        <ele>1169.338119</ele>
        <time>2021-07-07T15:12:57+0200</time>
      </trkpt>
      <trkpt lat="45.4615" lon="2.90707">
        <ele>1166.258145</ele>
        <time>2021-07-07T15:12:58+0200</time>
      </trkpt>
      <trkpt lat="45.46151" lon="2.90722">
        <ele>1164.569601</ele>
        <time>2021-07-07T15:12:59+0200</time>
      </trkpt>
      <trkpt lat="45.46152" lon="2.90734">
        <ele>1162.931667</ele>
        <time>2021-07-07T15:13:00+0200</time>
      </trkpt>
      <trkpt lat="45.46155" lon="2.90744">
        <ele>1161.786498</ele>
        <time>2021-07-07T15:13:01+0200</time>
      </trkpt>
      <trkpt lat="45.46158" lon="2.9075">
        <ele>1160.82748</ele>
        <time>2021-07-07T15:13:02+0200</time>
      </trkpt>
      <trkpt lat="45.4616" lon="2.90762">
        <ele>1159.986291</ele>
        <time>2021-07-07T15:13:04+0200</time>
      </trkpt>
      <trkpt lat="45.46154" lon="2.90768">
        <ele>1159.634009</ele>
        <time>2021-07-07T15:13:06+0200</time>
      </trkpt>
      <trkpt lat="45.46152" lon="2.90774">
        <ele>1161.396063</ele>
        <time>2021-07-07T15:13:09+0200</time>
      </trkpt>
      <trkpt lat="45.46148" lon="2.90778">
        <ele>1161.966357</ele>
        <time>2021-07-07T15:13:14+0200</time>
      </trkpt>
      <trkpt lat="45.46144" lon="2.90783">
        <ele>1162.358258</ele>
        <time>2021-07-07T15:13:17+0200</time>
      </trkpt>
      <trkpt lat="45.46141" lon="2.9079">
        <ele>1164.033428</ele>
        <time>2021-07-07T15:13:20+0200</time>
      </trkpt>
      <trkpt lat="45.46139" lon="2.90796">
        <ele>1165.27809</ele>
        <time>2021-07-07T15:13:23+0200</time>
      </trkpt>
      <trkpt lat="45.46135" lon="2.90801">
        <ele>1166.915161</ele>
        <time>2021-07-07T15:13:26+0200</time>
      </trkpt>
      <trkpt lat="45.46131" lon="2.90808">
        <ele>1167.849756</ele>
        <time>2021-07-07T15:13:29+0200</time>
      </trkpt>
      <trkpt lat="45.46126" lon="2.90814">
        <ele>1168.888113</ele>
        <time>2021-07-07T15:13:32+0200</time>
      </trkpt>
      <trkpt lat="45.46122" lon="2.90821">
        <ele>1169.69819</ele>
        <time>2021-07-07T15:13:35+0200</time>
      </trkpt>
      <trkpt lat="45.46119" lon="2.90827">
        <ele>1170.894914</ele>
        <time>2021-07-07T15:13:38+0200</time>
      </trkpt>
      <trkpt lat="45.46114" lon="2.90833">
        <ele>1170.506366</ele>
        <time>2021-07-07T15:13:41+0200</time>
      </trkpt>
      <trkpt lat="45.4611" lon="2.90838">
        <ele>1171.334202</ele>
        <time>2021-07-07T15:13:44+0200</time>
      </trkpt>
      <trkpt lat="45.46107" lon="2.90845">
        <ele>1171.787308</ele>
        <time>2021-07-07T15:13:47+0200</time>
      </trkpt>
      <trkpt lat="45.46103" lon="2.9085">
        <ele>1172.570491</ele>
        <time>2021-07-07T15:13:50+0200</time>
      </trkpt>
      <trkpt lat="45.46101" lon="2.90856">
        <ele>1173.159088</ele>
        <time>2021-07-07T15:13:53+0200</time>
      </trkpt>
      <trkpt lat="45.46098" lon="2.90861">
        <ele>1172.982224</ele>
        <time>2021-07-07T15:13:55+0200</time>
      </trkpt>
      <trkpt lat="45.46093" lon="2.90868">
        <ele>1172.924804</ele>
        <time>2021-07-07T15:13:58+0200</time>
      </trkpt>
      <trkpt lat="45.4609" lon="2.90873">
        <ele>1173.554581</ele>
        <time>2021-07-07T15:14:01+0200</time>
      </trkpt>
      <trkpt lat="45.46087" lon="2.90879">
        <ele>1174.354181</ele>
        <time>2021-07-07T15:14:04+0200</time>
      </trkpt>
      <trkpt lat="45.46083" lon="2.90886">
        <ele>1175.268952</ele>
        <time>2021-07-07T15:14:08+0200</time>
      </trkpt>
      <trkpt lat="45.4608" lon="2.90893">
        <ele>1175.640672</ele>
        <time>2021-07-07T15:14:11+0200</time>
      </trkpt>
      <trkpt lat="45.46077" lon="2.90897">
        <ele>1176.376024</ele>
        <time>2021-07-07T15:14:14+0200</time>
      </trkpt>
      <trkpt lat="45.46074" lon="2.90903">
        <ele>1176.825189</ele>
        <time>2021-07-07T15:14:17+0200</time>
      </trkpt>
      <trkpt lat="45.4607" lon="2.90909">
        <ele>1177.005068</ele>
        <time>2021-07-07T15:14:20+0200</time>
      </trkpt>
      <trkpt lat="45.46065" lon="2.90915">
        <ele>1176.458576</ele>
        <time>2021-07-07T15:14:24+0200</time>
      </trkpt>
      <trkpt lat="45.46063" lon="2.90921">
        <ele>1178.454749</ele>
        <time>2021-07-07T15:14:27+0200</time>
      </trkpt>
      <trkpt lat="45.4606" lon="2.90927">
        <ele>1178.825202</ele>
        <time>2021-07-07T15:14:30+0200</time>
      </trkpt>
      <trkpt lat="45.46056" lon="2.90932">
        <ele>1180.08114</ele>
        <time>2021-07-07T15:14:33+0200</time>
      </trkpt>
      <trkpt lat="45.46053" lon="2.9094">
        <ele>1179.844605</ele>
        <time>2021-07-07T15:14:36+0200</time>
      </trkpt>
      <trkpt lat="45.46049" lon="2.90944">
        <ele>1180.920778</ele>
        <time>2021-07-07T15:14:39+0200</time>
      </trkpt>
      <trkpt lat="45.46044" lon="2.90947">
        <ele>1180.733153</ele>
        <time>2021-07-07T15:14:42+0200</time>
      </trkpt>
      <trkpt lat="45.46038" lon="2.9095">
        <ele>1180.759608</ele>
        <time>2021-07-07T15:14:45+0200</time>
      </trkpt>
      <trkpt lat="45.46032" lon="2.90952">
        <ele>1181.052977</ele>
        <time>2021-07-07T15:14:48+0200</time>
      </trkpt>
      <trkpt lat="45.46027" lon="2.90956">
        <ele>1181.632066</ele>
        <time>2021-07-07T15:14:51+0200</time>
      </trkpt>
      <trkpt lat="45.46023" lon="2.90958">
        <ele>1181.847426</ele>
        <time>2021-07-07T15:14:53+0200</time>
      </trkpt>
      <trkpt lat="45.46019" lon="2.90962">
        <ele>1182.799219</ele>
        <time>2021-07-07T15:14:56+0200</time>
      </trkpt>
      <trkpt lat="45.46013" lon="2.90967">
        <ele>1183.163135</ele>
        <time>2021-07-07T15:14:59+0200</time>
      </trkpt>
      <trkpt lat="45.46008" lon="2.9097">
        <ele>1183.507127</ele>
        <time>2021-07-07T15:15:01+0200</time>
      </trkpt>
      <trkpt lat="45.46004" lon="2.90973">
        <ele>1183.875405</ele>
        <time>2021-07-07T15:15:03+0200</time>
      </trkpt>
      <trkpt lat="45.45999" lon="2.90977">
        <ele>1184.080145</ele>
        <time>2021-07-07T15:15:05+0200</time>
      </trkpt>
      <trkpt lat="45.45994" lon="2.9098">
        <ele>1184.463247</ele>
        <time>2021-07-07T15:15:07+0200</time>
      </trkpt>
      <trkpt lat="45.4599" lon="2.90985">
        <ele>1185.378688</ele>
        <time>2021-07-07T15:15:09+0200</time>
      </trkpt>
      <trkpt lat="45.45985" lon="2.90988">
        <ele>1185.864949</ele>
        <time>2021-07-07T15:15:11+0200</time>
      </trkpt>
      <trkpt lat="45.45981" lon="2.90992">
        <ele>1186.407126</ele>
        <time>2021-07-07T15:15:13+0200</time>
      </trkpt>
      <trkpt lat="45.45976" lon="2.90994">
        <ele>1186.487146</ele>
        <time>2021-07-07T15:15:15+0200</time>
      </trkpt>
      <trkpt lat="45.45971" lon="2.90997">
        <ele>1186.144539</ele>
        <time>2021-07-07T15:15:17+0200</time>
      </trkpt>
      <trkpt lat="45.45966" lon="2.90999">
        <ele>1186.641036</ele>
        <time>2021-07-07T15:15:19+0200</time>
      </trkpt>
      <trkpt lat="45.45961" lon="2.91001">
        <ele>1186.640389</ele>
        <time>2021-07-07T15:15:21+0200</time>
      </trkpt>
      <trkpt lat="45.45956" lon="2.91002">
        <ele>1186.896431</ele>
        <time>2021-07-07T15:15:23+0200</time>
      </trkpt>
      <trkpt lat="45.4595" lon="2.91003">
        <ele>1186.753374</ele>
        <time>2021-07-07T15:15:25+0200</time>
      </trkpt>
      <trkpt lat="45.45945" lon="2.91003">
        <ele>1186.74159</ele>
        <time>2021-07-07T15:15:27+0200</time>
      </trkpt>
      <trkpt lat="45.45939" lon="2.91006">
        <ele>1186.52167</ele>
        <time>2021-07-07T15:15:29+0200</time>
      </trkpt>
      <trkpt lat="45.45932" lon="2.91007">
        <ele>1186.142903</ele>
        <time>2021-07-07T15:15:32+0200</time>
      </trkpt>
      <trkpt lat="45.45926" lon="2.91009">
        <ele>1186.655873</ele>
        <time>2021-07-07T15:15:34+0200</time>
      </trkpt>
      <trkpt lat="45.45921" lon="2.91008">
        <ele>1186.782843</ele>
        <time>2021-07-07T15:15:36+0200</time>
      </trkpt>
      <trkpt lat="45.45916" lon="2.91008">
        <ele>1188.189203</ele>
        <time>2021-07-07T15:15:38+0200</time>
      </trkpt>
      <trkpt lat="45.4591" lon="2.91009">
        <ele>1188.876779</ele>
        <time>2021-07-07T15:15:40+0200</time>
      </trkpt>
      <trkpt lat="45.45903" lon="2.91008">
        <ele>1189.52053</ele>
        <time>2021-07-07T15:15:42+0200</time>
      </trkpt>
      <trkpt lat="45.45897" lon="2.91008">
        <ele>1190.132794</ele>
        <time>2021-07-07T15:15:44+0200</time>
      </trkpt>
      <trkpt lat="45.45892" lon="2.91009">
        <ele>1190.137102</ele>
        <time>2021-07-07T15:15:46+0200</time>
      </trkpt>
      <trkpt lat="45.45887" lon="2.91008">
        <ele>1190.522999</ele>
        <time>2021-07-07T15:15:48+0200</time>
      </trkpt>
      <trkpt lat="45.45882" lon="2.91008">
        <ele>1191.308025</ele>
        <time>2021-07-07T15:15:50+0200</time>
      </trkpt>
      <trkpt lat="45.45877" lon="2.91007">
        <ele>1191.088283</ele>
        <time>2021-07-07T15:15:52+0200</time>
      </trkpt>
      <trkpt lat="45.45872" lon="2.91007">
        <ele>1191.814877</ele>
        <time>2021-07-07T15:15:54+0200</time>
      </trkpt>
      <trkpt lat="45.45868" lon="2.9101">
        <ele>1192.104716</ele>
        <time>2021-07-07T15:15:56+0200</time>
      </trkpt>
      <trkpt lat="45.45862" lon="2.91007">
        <ele>1192.334107</ele>
        <time>2021-07-07T15:15:58+0200</time>
      </trkpt>
      <trkpt lat="45.45856" lon="2.91007">
        <ele>1193.055233</ele>
        <time>2021-07-07T15:16:01+0200</time>
      </trkpt>
      <trkpt lat="45.45852" lon="2.91013">
        <ele>1191.238677</ele>
        <time>2021-07-07T15:16:14+0200</time>
      </trkpt>
      <trkpt lat="45.45853" lon="2.9102">
        <ele>1190.252744</ele>
        <time>2021-07-07T15:16:22+0200</time>
      </trkpt>
      <trkpt lat="45.45852" lon="2.91027">
        <ele>1189.123437</ele>
        <time>2021-07-07T15:16:33+0200</time>
      </trkpt>
      <trkpt lat="45.45849" lon="2.91022">
        <ele>1189.344962</ele>
        <time>2021-07-07T15:17:10+0200</time>
      </trkpt>
      <trkpt lat="45.45854" lon="2.91024">
        <ele>1189.602946</ele>
        <time>2021-07-07T15:17:34+0200</time>
      </trkpt>
      <trkpt lat="45.45848" lon="2.91024">
        <ele>1189.879549</ele>
        <time>2021-07-07T15:17:53+0200</time>
      </trkpt>
      <trkpt lat="45.45851" lon="2.91018">
        <ele>1189.753728</ele>
        <time>2021-07-07T15:18:29+0200</time>
      </trkpt>
      <trkpt lat="45.45855" lon="2.91013">
        <ele>1190.388777</ele>
        <time>2021-07-07T15:18:34+0200</time>
      </trkpt>
      <trkpt lat="45.45858" lon="2.91018">
        <ele>1190.474672</ele>
        <time>2021-07-07T15:19:01+0200</time>
      </trkpt>
      <trkpt lat="45.45854" lon="2.91023">
        <ele>1189.702075</ele>
        <time>2021-07-07T15:19:19+0200</time>
      </trkpt>
      <trkpt lat="45.45857" lon="2.9103">
        <ele>1188.439913</ele>
        <time>2021-07-07T15:19:35+0200</time>
      </trkpt>
      <trkpt lat="45.45858" lon="2.91022">
        <ele>1189.061831</ele>
        <time>2021-07-07T15:19:44+0200</time>
      </trkpt>
      <trkpt lat="45.45852" lon="2.91021">
        <ele>1189.991358</ele>
        <time>2021-07-07T15:20:07+0200</time>
      </trkpt>
      <trkpt lat="45.45855" lon="2.91016">
        <ele>1191.033787</ele>
        <time>2021-07-07T15:20:22+0200</time>
      </trkpt>
      <trkpt lat="45.45854" lon="2.91009">
        <ele>1191.913577</ele>
        <time>2021-07-07T15:20:38+0200</time>
      </trkpt>
      <trkpt lat="45.45851" lon="2.91015">
        <ele>1191.420838</ele>
        <time>2021-07-07T15:20:55+0200</time>
      </trkpt>
      <trkpt lat="45.45848" lon="2.91021">
        <ele>1190.335497</ele>
        <time>2021-07-07T15:21:02+0200</time>
      </trkpt>
      <trkpt lat="45.45846" lon="2.91028">
        <ele>1188.402545</ele>
        <time>2021-07-07T15:21:25+0200</time>
      </trkpt>
      <trkpt lat="45.45839" lon="2.91032">
        <ele>1187.210753</ele>
        <time>2021-07-07T15:21:27+0200</time>
      </trkpt>
      <trkpt lat="45.45832" lon="2.91038">
        <ele>1186.897642</ele>
        <time>2021-07-07T15:21:29+0200</time>
      </trkpt>
      <trkpt lat="45.45827" lon="2.91042">
        <ele>1187.125232</ele>
        <time>2021-07-07T15:21:30+0200</time>
      </trkpt>
      <trkpt lat="45.45822" lon="2.91043">
        <ele>1186.658378</ele>
        <time>2021-07-07T15:21:31+0200</time>
      </trkpt>
      <trkpt lat="45.45817" lon="2.91046">
        <ele>1185.845209</ele>
        <time>2021-07-07T15:21:32+0200</time>
      </trkpt>
      <trkpt lat="45.45812" lon="2.91048">
        <ele>1185.433133</ele>
        <time>2021-07-07T15:21:33+0200</time>
      </trkpt>
      <trkpt lat="45.45805" lon="2.9105">
        <ele>1184.792636</ele>
        <time>2021-07-07T15:21:34+0200</time>
      </trkpt>
      <trkpt lat="45.45799" lon="2.91052">
        <ele>1184.732589</ele>
        <time>2021-07-07T15:21:35+0200</time>
      </trkpt>
      <trkpt lat="45.45793" lon="2.91051">
        <ele>1184.331968</ele>
        <time>2021-07-07T15:21:36+0200</time>
      </trkpt>
      <trkpt lat="45.45789" lon="2.91051">
        <ele>1184.233135</ele>
        <time>2021-07-07T15:21:37+0200</time>
      </trkpt>
      <trkpt lat="45.45781" lon="2.91054">
        <ele>1183.792213</ele>
        <time>2021-07-07T15:21:39+0200</time>
      </trkpt>
      <trkpt lat="45.45772" lon="2.91053">
        <ele>1182.593393</ele>
        <time>2021-07-07T15:21:41+0200</time>
      </trkpt>
      <trkpt lat="45.45768" lon="2.91055">
        <ele>1182.205697</ele>
        <time>2021-07-07T15:21:42+0200</time>
      </trkpt>
      <trkpt lat="45.45763" lon="2.91058">
        <ele>1181.779536</ele>
        <time>2021-07-07T15:21:43+0200</time>
      </trkpt>
      <trkpt lat="45.45759" lon="2.91062">
        <ele>1180.804121</ele>
        <time>2021-07-07T15:21:44+0200</time>
      </trkpt>
      <trkpt lat="45.45752" lon="2.91065">
        <ele>1177.894701</ele>
        <time>2021-07-07T15:21:46+0200</time>
      </trkpt>
      <trkpt lat="45.45747" lon="2.91072">
        <ele>1176.102834</ele>
        <time>2021-07-07T15:21:48+0200</time>
      </trkpt>
      <trkpt lat="45.45742" lon="2.91075">
        <ele>1175.053326</ele>
        <time>2021-07-07T15:21:49+0200</time>
      </trkpt>
      <trkpt lat="45.45739" lon="2.91081">
        <ele>1174.274077</ele>
        <time>2021-07-07T15:21:50+0200</time>
      </trkpt>
      <trkpt lat="45.45736" lon="2.91086">
        <ele>1173.15672</ele>
        <time>2021-07-07T15:21:51+0200</time>
      </trkpt>
      <trkpt lat="45.45731" lon="2.91092">
        <ele>1172.005901</ele>
        <time>2021-07-07T15:21:52+0200</time>
      </trkpt>
      <trkpt lat="45.45726" lon="2.91098">
        <ele>1169.251739</ele>
        <time>2021-07-07T15:21:54+0200</time>
      </trkpt>
      <trkpt lat="45.45718" lon="2.91107">
        <ele>1168.156495</ele>
        <time>2021-07-07T15:21:56+0200</time>
      </trkpt>
      <trkpt lat="45.45713" lon="2.91112">
        <ele>1167.569621</ele>
        <time>2021-07-07T15:21:58+0200</time>
      </trkpt>
      <trkpt lat="45.4571" lon="2.91117">
        <ele>1168.410075</ele>
        <time>2021-07-07T15:22:00+0200</time>
      </trkpt>
      <trkpt lat="45.45707" lon="2.91125">
        <ele>1169.13112</ele>
        <time>2021-07-07T15:22:02+0200</time>
      </trkpt>
      <trkpt lat="45.45705" lon="2.91134">
        <ele>1169.655571</ele>
        <time>2021-07-07T15:22:04+0200</time>
      </trkpt>
      <trkpt lat="45.45701" lon="2.9114">
        <ele>1170.388041</ele>
        <time>2021-07-07T15:22:05+0200</time>
      </trkpt>
      <trkpt lat="45.45699" lon="2.91147">
        <ele>1171.14843</ele>
        <time>2021-07-07T15:22:06+0200</time>
      </trkpt>
      <trkpt lat="45.45696" lon="2.91154">
        <ele>1172.24858</ele>
        <time>2021-07-07T15:22:08+0200</time>
      </trkpt>
      <trkpt lat="45.45692" lon="2.91159">
        <ele>1172.340637</ele>
        <time>2021-07-07T15:22:10+0200</time>
      </trkpt>
      <trkpt lat="45.4569" lon="2.91166">
        <ele>1172.666192</ele>
        <time>2021-07-07T15:22:12+0200</time>
      </trkpt>
      <trkpt lat="45.45687" lon="2.91171">
        <ele>1172.804719</ele>
        <time>2021-07-07T15:22:14+0200</time>
      </trkpt>
      <trkpt lat="45.45685" lon="2.91178">
        <ele>1173.198876</ele>
        <time>2021-07-07T15:22:17+0200</time>
      </trkpt>
      <trkpt lat="45.45682" lon="2.91184">
        <ele>1173.053238</ele>
        <time>2021-07-07T15:22:19+0200</time>
      </trkpt>
      <trkpt lat="45.45679" lon="2.9119">
        <ele>1172.564826</ele>
        <time>2021-07-07T15:22:25+0200</time>
      </trkpt>
      <trkpt lat="45.4568" lon="2.91196">
        <ele>1172.1895</ele>
        <time>2021-07-07T15:22:32+0200</time>
      </trkpt>
      <trkpt lat="45.45673" lon="2.91198">
        <ele>1172.87207</ele>
        <time>2021-07-07T15:23:02+0200</time>
      </trkpt>
      <trkpt lat="45.45672" lon="2.91205">
        <ele>1173.684466</ele>
        <time>2021-07-07T15:23:04+0200</time>
      </trkpt>
      <trkpt lat="45.45666" lon="2.91209">
        <ele>1173.430409</ele>
        <time>2021-07-07T15:23:06+0200</time>
      </trkpt>
      <trkpt lat="45.45662" lon="2.91222">
        <ele>1173.692263</ele>
        <time>2021-07-07T15:23:08+0200</time>
      </trkpt>
      <trkpt lat="45.45658" lon="2.9123">
        <ele>1172.761796</ele>
        <time>2021-07-07T15:23:09+0200</time>
      </trkpt>
      <trkpt lat="45.45654" lon="2.91237">
        <ele>1172.532446</ele>
        <time>2021-07-07T15:23:10+0200</time>
      </trkpt>
      <trkpt lat="45.45649" lon="2.91245">
        <ele>1172.877148</ele>
        <time>2021-07-07T15:23:11+0200</time>
      </trkpt>
      <trkpt lat="45.45644" lon="2.9125">
        <ele>1173.841111</ele>
        <time>2021-07-07T15:23:12+0200</time>
      </trkpt>
      <trkpt lat="45.45638" lon="2.91258">
        <ele>1175.096094</ele>
        <time>2021-07-07T15:23:14+0200</time>
      </trkpt>
      <trkpt lat="45.45635" lon="2.91268">
        <ele>1175.411762</ele>
        <time>2021-07-07T15:23:16+0200</time>
      </trkpt>
      <trkpt lat="45.45629" lon="2.91277">
        <ele>1175.591556</ele>
        <time>2021-07-07T15:23:19+0200</time>
      </trkpt>
      <trkpt lat="45.45625" lon="2.91283">
        <ele>1175.358672</ele>
        <time>2021-07-07T15:23:21+0200</time>
      </trkpt>
      <trkpt lat="45.45621" lon="2.9129">
        <ele>1175.873354</ele>
        <time>2021-07-07T15:23:23+0200</time>
      </trkpt>
      <trkpt lat="45.45619" lon="2.91297">
        <ele>1176.449941</ele>
        <time>2021-07-07T15:23:25+0200</time>
      </trkpt>
      <trkpt lat="45.45614" lon="2.91304">
        <ele>1176.953759</ele>
        <time>2021-07-07T15:23:28+0200</time>
      </trkpt>
      <trkpt lat="45.45609" lon="2.91309">
        <ele>1177.789667</ele>
        <time>2021-07-07T15:23:31+0200</time>
      </trkpt>
      <trkpt lat="45.45607" lon="2.91316">
        <ele>1178.32307</ele>
        <time>2021-07-07T15:23:33+0200</time>
      </trkpt>
      <trkpt lat="45.45604" lon="2.91322">
        <ele>1177.929418</ele>
        <time>2021-07-07T15:23:35+0200</time>
      </trkpt>
      <trkpt lat="45.45601" lon="2.91326">
        <ele>1177.714181</ele>
        <time>2021-07-07T15:23:37+0200</time>
      </trkpt>
      <trkpt lat="45.45597" lon="2.91333">
        <ele>1177.820514</ele>
        <time>2021-07-07T15:23:40+0200</time>
      </trkpt>
      <trkpt lat="45.45593" lon="2.9134">
        <ele>1176.801663</ele>
        <time>2021-07-07T15:23:43+0200</time>
      </trkpt>
      <trkpt lat="45.45589" lon="2.91344">
        <ele>1176.431382</ele>
        <time>2021-07-07T15:23:45+0200</time>
      </trkpt>
      <trkpt lat="45.45587" lon="2.9135">
        <ele>1175.813434</ele>
        <time>2021-07-07T15:23:47+0200</time>
      </trkpt>
      <trkpt lat="45.45583" lon="2.91355">
        <ele>1175.462669</ele>
        <time>2021-07-07T15:23:49+0200</time>
      </trkpt>
      <trkpt lat="45.45579" lon="2.91363">
        <ele>1175.073642</ele>
        <time>2021-07-07T15:23:51+0200</time>
      </trkpt>
      <trkpt lat="45.45572" lon="2.91374">
        <ele>1174.214666</ele>
        <time>2021-07-07T15:23:53+0200</time>
      </trkpt>
      <trkpt lat="45.45569" lon="2.91381">
        <ele>1173.953429</ele>
        <time>2021-07-07T15:23:54+0200</time>
      </trkpt>
      <trkpt lat="45.45565" lon="2.91391">
        <ele>1173.603564</ele>
        <time>2021-07-07T15:23:55+0200</time>
      </trkpt>
      <trkpt lat="45.45562" lon="2.91401">
        <ele>1173.652753</ele>
        <time>2021-07-07T15:23:56+0200</time>
      </trkpt>
      <trkpt lat="45.4556" lon="2.91407">
        <ele>1173.861783</ele>
        <time>2021-07-07T15:23:57+0200</time>
      </trkpt>
      <trkpt lat="45.45555" lon="2.91416">
        <ele>1174.443798</ele>
        <time>2021-07-07T15:23:59+0200</time>
      </trkpt>
      <trkpt lat="45.45551" lon="2.91422">
        <ele>1175.337611</ele>
        <time>2021-07-07T15:24:01+0200</time>
      </trkpt>
      <trkpt lat="45.45547" lon="2.9143">
        <ele>1175.408779</ele>
        <time>2021-07-07T15:24:04+0200</time>
      </trkpt>
      <trkpt lat="45.45542" lon="2.9144">
        <ele>1174.922795</ele>
        <time>2021-07-07T15:24:06+0200</time>
      </trkpt>
      <trkpt lat="45.45537" lon="2.91448">
        <ele>1174.549946</ele>
        <time>2021-07-07T15:24:07+0200</time>
      </trkpt>
      <trkpt lat="45.45532" lon="2.91457">
        <ele>1174.025947</ele>
        <time>2021-07-07T15:24:08+0200</time>
      </trkpt>
      <trkpt lat="45.45526" lon="2.9146">
        <ele>1173.613454</ele>
        <time>2021-07-07T15:24:09+0200</time>
      </trkpt>
      <trkpt lat="45.45517" lon="2.91467">
        <ele>1173.321836</ele>
        <time>2021-07-07T15:24:11+0200</time>
      </trkpt>
      <trkpt lat="45.45515" lon="2.91474">
        <ele>1173.858465</ele>
        <time>2021-07-07T15:24:13+0200</time>
      </trkpt>
      <trkpt lat="45.45513" lon="2.9148">
        <ele>1174.058607</ele>
        <time>2021-07-07T15:24:15+0200</time>
      </trkpt>
      <trkpt lat="45.45511" lon="2.91488">
        <ele>1173.705832</ele>
        <time>2021-07-07T15:24:17+0200</time>
      </trkpt>
      <trkpt lat="45.45516" lon="2.91493">
        <ele>1173.583802</ele>
        <time>2021-07-07T15:24:19+0200</time>
      </trkpt>
      <trkpt lat="45.4552" lon="2.91498">
        <ele>1172.990206</ele>
        <time>2021-07-07T15:24:20+0200</time>
      </trkpt>
      <trkpt lat="45.45526" lon="2.91504">
        <ele>1172.551862</ele>
        <time>2021-07-07T15:24:22+0200</time>
      </trkpt>
      <trkpt lat="45.45525" lon="2.91511">
        <ele>1172.890766</ele>
        <time>2021-07-07T15:24:25+0200</time>
      </trkpt>
      <trkpt lat="45.4552" lon="2.91511">
        <ele>1173.33895</ele>
        <time>2021-07-07T15:24:29+0200</time>
      </trkpt>
      <trkpt lat="45.45514" lon="2.91512">
        <ele>1173.07839</ele>
        <time>2021-07-07T15:24:32+0200</time>
      </trkpt>
      <trkpt lat="45.45506" lon="2.91511">
        <ele>1173.279681</ele>
        <time>2021-07-07T15:24:35+0200</time>
      </trkpt>
      <trkpt lat="45.45501" lon="2.91514">
        <ele>1173.183651</ele>
        <time>2021-07-07T15:24:37+0200</time>
      </trkpt>
      <trkpt lat="45.45496" lon="2.91514">
        <ele>1173.927087</ele>
        <time>2021-07-07T15:24:39+0200</time>
      </trkpt>
      <trkpt lat="45.45491" lon="2.91515">
        <ele>1174.023937</ele>
        <time>2021-07-07T15:24:41+0200</time>
      </trkpt>
      <trkpt lat="45.45486" lon="2.91516">
        <ele>1173.308733</ele>
        <time>2021-07-07T15:24:43+0200</time>
      </trkpt>
      <trkpt lat="45.45481" lon="2.91517">
        <ele>1173.017894</ele>
        <time>2021-07-07T15:24:44+0200</time>
      </trkpt>
      <trkpt lat="45.45476" lon="2.91517">
        <ele>1172.649482</ele>
        <time>2021-07-07T15:24:45+0200</time>
      </trkpt>
      <trkpt lat="45.4547" lon="2.91518">
        <ele>1172.738204</ele>
        <time>2021-07-07T15:24:46+0200</time>
      </trkpt>
      <trkpt lat="45.45464" lon="2.91514">
        <ele>1172.654062</ele>
        <time>2021-07-07T15:24:48+0200</time>
      </trkpt>
      <trkpt lat="45.45462" lon="2.91506">
        <ele>1171.715398</ele>
        <time>2021-07-07T15:24:52+0200</time>
      </trkpt>
      <trkpt lat="45.45464" lon="2.91499">
        <ele>1171.46108</ele>
        <time>2021-07-07T15:24:54+0200</time>
      </trkpt>
      <trkpt lat="45.45458" lon="2.91492">
        <ele>1172.209939</ele>
        <time>2021-07-07T15:24:57+0200</time>
      </trkpt>
      <trkpt lat="45.45453" lon="2.91491">
        <ele>1172.299259</ele>
        <time>2021-07-07T15:25:00+0200</time>
      </trkpt>
      <trkpt lat="45.45446" lon="2.91496">
        <ele>1172.780031</ele>
        <time>2021-07-07T15:25:03+0200</time>
      </trkpt>
      <trkpt lat="45.4544" lon="2.91495">
        <ele>1172.219836</ele>
        <time>2021-07-07T15:25:04+0200</time>
      </trkpt>
      <trkpt lat="45.45435" lon="2.91491">
        <ele>1172.020031</ele>
        <time>2021-07-07T15:25:05+0200</time>
      </trkpt>
      <trkpt lat="45.4543" lon="2.91488">
        <ele>1172.046448</ele>
        <time>2021-07-07T15:25:07+0200</time>
      </trkpt>
      <trkpt lat="45.45425" lon="2.9149">
        <ele>1172.408355</ele>
        <time>2021-07-07T15:25:08+0200</time>
      </trkpt>
      <trkpt lat="45.45418" lon="2.9149">
        <ele>1172.279334</ele>
        <time>2021-07-07T15:25:10+0200</time>
      </trkpt>
      <trkpt lat="45.45412" lon="2.91489">
        <ele>1171.950327</ele>
        <time>2021-07-07T15:25:11+0200</time>
      </trkpt>
      <trkpt lat="45.45405" lon="2.91489">
        <ele>1171.071965</ele>
        <time>2021-07-07T15:25:13+0200</time>
      </trkpt>
      <trkpt lat="45.45398" lon="2.91492">
        <ele>1171.277472</ele>
        <time>2021-07-07T15:25:15+0200</time>
      </trkpt>
      <trkpt lat="45.4539" lon="2.91491">
        <ele>1171.238772</ele>
        <time>2021-07-07T15:25:17+0200</time>
      </trkpt>
      <trkpt lat="45.45384" lon="2.91487">
        <ele>1170.838568</ele>
        <time>2021-07-07T15:25:19+0200</time>
      </trkpt>
      <trkpt lat="45.45379" lon="2.91486">
        <ele>1170.45991</ele>
        <time>2021-07-07T15:25:20+0200</time>
      </trkpt>
      <trkpt lat="45.45373" lon="2.91481">
        <ele>1170.333253</ele>
        <time>2021-07-07T15:25:22+0200</time>
      </trkpt>
      <trkpt lat="45.45369" lon="2.91477">
        <ele>1170.321632</ele>
        <time>2021-07-07T15:25:23+0200</time>
      </trkpt>
      <trkpt lat="45.45361" lon="2.91472">
        <ele>1169.809487</ele>
        <time>2021-07-07T15:25:25+0200</time>
      </trkpt>
      <trkpt lat="45.45356" lon="2.91469">
        <ele>1170.281835</ele>
        <time>2021-07-07T15:25:27+0200</time>
      </trkpt>
      <trkpt lat="45.4535" lon="2.91465">
        <ele>1170.718039</ele>
        <time>2021-07-07T15:25:29+0200</time>
      </trkpt>
      <trkpt lat="45.45345" lon="2.91461">
        <ele>1170.297809</ele>
        <time>2021-07-07T15:25:31+0200</time>
      </trkpt>
      <trkpt lat="45.45342" lon="2.91453">
        <ele>1170.794184</ele>
        <time>2021-07-07T15:25:33+0200</time>
      </trkpt>
      <trkpt lat="45.45339" lon="2.91446">
        <ele>1170.5675</ele>
        <time>2021-07-07T15:25:35+0200</time>
      </trkpt>
      <trkpt lat="45.45333" lon="2.91445">
        <ele>1170.135024</ele>
        <time>2021-07-07T15:25:37+0200</time>
      </trkpt>
      <trkpt lat="45.45324" lon="2.91443">
        <ele>1169.817626</ele>
        <time>2021-07-07T15:25:39+0200</time>
      </trkpt>
      <trkpt lat="45.4532" lon="2.91443">
        <ele>1169.048403</ele>
        <time>2021-07-07T15:25:40+0200</time>
      </trkpt>
      <trkpt lat="45.4531" lon="2.91444">
        <ele>1168.638853</ele>
        <time>2021-07-07T15:25:42+0200</time>
      </trkpt>
      <trkpt lat="45.45302" lon="2.91443">
        <ele>1168.016761</ele>
        <time>2021-07-07T15:25:44+0200</time>
      </trkpt>
      <trkpt lat="45.45295" lon="2.91444">
        <ele>1167.149528</ele>
        <time>2021-07-07T15:25:46+0200</time>
      </trkpt>
      <trkpt lat="45.45288" lon="2.91442">
        <ele>1167.769028</ele>
        <time>2021-07-07T15:25:48+0200</time>
      </trkpt>
      <trkpt lat="45.45282" lon="2.91442">
        <ele>1168.192892</ele>
        <time>2021-07-07T15:25:50+0200</time>
      </trkpt>
      <trkpt lat="45.45275" lon="2.91443">
        <ele>1168.872907</ele>
        <time>2021-07-07T15:25:52+0200</time>
      </trkpt>
      <trkpt lat="45.45268" lon="2.91444">
        <ele>1169.285083</ele>
        <time>2021-07-07T15:25:54+0200</time>
      </trkpt>
      <trkpt lat="45.45263" lon="2.91442">
        <ele>1169.390759</ele>
        <time>2021-07-07T15:25:56+0200</time>
      </trkpt>
      <trkpt lat="45.45257" lon="2.9144">
        <ele>1168.296176</ele>
        <time>2021-07-07T15:25:59+0200</time>
      </trkpt>
      <trkpt lat="45.45252" lon="2.9144">
        <ele>1168.379357</ele>
        <time>2021-07-07T15:26:01+0200</time>
      </trkpt>
      <trkpt lat="45.45247" lon="2.91438">
        <ele>1168.231269</ele>
        <time>2021-07-07T15:26:03+0200</time>
      </trkpt>
      <trkpt lat="45.45241" lon="2.91434">
        <ele>1168.196557</ele>
        <time>2021-07-07T15:26:05+0200</time>
      </trkpt>
      <trkpt lat="45.45236" lon="2.91431">
        <ele>1168.353962</ele>
        <time>2021-07-07T15:26:06+0200</time>
      </trkpt>
      <trkpt lat="45.45232" lon="2.91427">
        <ele>1168.75192</ele>
        <time>2021-07-07T15:26:09+0200</time>
      </trkpt>
      <trkpt lat="45.45227" lon="2.91421">
        <ele>1169.972192</ele>
        <time>2021-07-07T15:26:12+0200</time>
      </trkpt>
      <trkpt lat="45.45223" lon="2.91416">
        <ele>1170.406595</ele>
        <time>2021-07-07T15:26:15+0200</time>
      </trkpt>
      <trkpt lat="45.45217" lon="2.91411">
        <ele>1170.18497</ele>
        <time>2021-07-07T15:26:17+0200</time>
      </trkpt>
      <trkpt lat="45.45213" lon="2.91407">
        <ele>1169.926328</ele>
        <time>2021-07-07T15:26:19+0200</time>
      </trkpt>
      <trkpt lat="45.45207" lon="2.91403">
        <ele>1169.621873</ele>
        <time>2021-07-07T15:26:21+0200</time>
      </trkpt>
      <trkpt lat="45.45201" lon="2.91395">
        <ele>1169.341656</ele>
        <time>2021-07-07T15:26:23+0200</time>
      </trkpt>
      <trkpt lat="45.45197" lon="2.9139">
        <ele>1169.387549</ele>
        <time>2021-07-07T15:26:24+0200</time>
      </trkpt>
      <trkpt lat="45.45192" lon="2.91382">
        <ele>1169.542565</ele>
        <time>2021-07-07T15:26:25+0200</time>
      </trkpt>
      <trkpt lat="45.45187" lon="2.91376">
        <ele>1169.780756</ele>
        <time>2021-07-07T15:26:26+0200</time>
      </trkpt>
      <trkpt lat="45.45181" lon="2.91373">
        <ele>1169.934646</ele>
        <time>2021-07-07T15:26:27+0200</time>
      </trkpt>
      <trkpt lat="45.45176" lon="2.9137">
        <ele>1170.540794</ele>
        <time>2021-07-07T15:26:28+0200</time>
      </trkpt>
      <trkpt lat="45.45169" lon="2.91369">
        <ele>1172.237693</ele>
        <time>2021-07-07T15:26:30+0200</time>
      </trkpt>
      <trkpt lat="45.4516" lon="2.91368">
        <ele>1173.575916</ele>
        <time>2021-07-07T15:26:32+0200</time>
      </trkpt>
      <trkpt lat="45.45155" lon="2.91363">
        <ele>1173.5915</ele>
        <time>2021-07-07T15:26:34+0200</time>
      </trkpt>
      <trkpt lat="45.45149" lon="2.91363">
        <ele>1172.256296</ele>
        <time>2021-07-07T15:26:38+0200</time>
      </trkpt>
      <trkpt lat="45.45143" lon="2.9136">
        <ele>1171.889183</ele>
        <time>2021-07-07T15:26:41+0200</time>
      </trkpt>
      <trkpt lat="45.45138" lon="2.91359">
        <ele>1170.603765</ele>
        <time>2021-07-07T15:26:45+0200</time>
      </trkpt>
      <trkpt lat="45.45133" lon="2.91357">
        <ele>1170.067072</ele>
        <time>2021-07-07T15:26:48+0200</time>
      </trkpt>
      <trkpt lat="45.45128" lon="2.91356">
        <ele>1170.637652</ele>
        <time>2021-07-07T15:26:50+0200</time>
      </trkpt>
      <trkpt lat="45.45123" lon="2.91355">
        <ele>1171.755557</ele>
        <time>2021-07-07T15:26:57+0200</time>
      </trkpt>
      <trkpt lat="45.45118" lon="2.91359">
        <ele>1170.737233</ele>
        <time>2021-07-07T15:27:08+0200</time>
      </trkpt>
      <trkpt lat="45.45113" lon="2.91361">
        <ele>1170.634183</ele>
        <time>2021-07-07T15:27:11+0200</time>
      </trkpt>
      <trkpt lat="45.45109" lon="2.91366">
        <ele>1171.469082</ele>
        <time>2021-07-07T15:27:14+0200</time>
      </trkpt>
      <trkpt lat="45.45104" lon="2.91369">
        <ele>1172.008418</ele>
        <time>2021-07-07T15:27:17+0200</time>
      </trkpt>
      <trkpt lat="45.451" lon="2.91374">
        <ele>1170.93924</ele>
        <time>2021-07-07T15:27:21+0200</time>
      </trkpt>
      <trkpt lat="45.45096" lon="2.91377">
        <ele>1170.28331</ele>
        <time>2021-07-07T15:27:23+0200</time>
      </trkpt>
      <trkpt lat="45.45092" lon="2.91382">
        <ele>1171.351062</ele>
        <time>2021-07-07T15:27:26+0200</time>
      </trkpt>
      <trkpt lat="45.45087" lon="2.91385">
        <ele>1170.541131</ele>
        <time>2021-07-07T15:27:28+0200</time>
      </trkpt>
      <trkpt lat="45.45082" lon="2.9139">
        <ele>1169.692977</ele>
        <time>2021-07-07T15:27:31+0200</time>
      </trkpt>
      <trkpt lat="45.45079" lon="2.91396">
        <ele>1168.886069</ele>
        <time>2021-07-07T15:27:33+0200</time>
      </trkpt>
      <trkpt lat="45.45072" lon="2.91403">
        <ele>1168.741718</ele>
        <time>2021-07-07T15:27:35+0200</time>
      </trkpt>
      <trkpt lat="45.45067" lon="2.91407">
        <ele>1168.402459</ele>
        <time>2021-07-07T15:27:37+0200</time>
      </trkpt>
      <trkpt lat="45.45063" lon="2.91411">
        <ele>1168.225091</ele>
        <time>2021-07-07T15:27:38+0200</time>
      </trkpt>
      <trkpt lat="45.45059" lon="2.91417">
        <ele>1169.200625</ele>
        <time>2021-07-07T15:27:40+0200</time>
      </trkpt>
      <trkpt lat="45.45055" lon="2.91424">
        <ele>1169.171354</ele>
        <time>2021-07-07T15:27:42+0200</time>
      </trkpt>
      <trkpt lat="45.45047" lon="2.91433">
        <ele>1168.511598</ele>
        <time>2021-07-07T15:27:44+0200</time>
      </trkpt>
      <trkpt lat="45.45041" lon="2.91436">
        <ele>1168.490432</ele>
        <time>2021-07-07T15:27:46+0200</time>
      </trkpt>
      <trkpt lat="45.45038" lon="2.91441">
        <ele>1170.069673</ele>
        <time>2021-07-07T15:28:23+0200</time>
      </trkpt>
      <trkpt lat="45.4504" lon="2.91434">
        <ele>1169.95967</ele>
        <time>2021-07-07T15:28:37+0200</time>
      </trkpt>
      <trkpt lat="45.45039" lon="2.91428">
        <ele>1170.38461</ele>
        <time>2021-07-07T15:28:41+0200</time>
      </trkpt>
      <trkpt lat="45.45038" lon="2.91421">
        <ele>1170.666719</ele>
        <time>2021-07-07T15:28:45+0200</time>
      </trkpt>
      <trkpt lat="45.45035" lon="2.91416">
        <ele>1170.65877</ele>
        <time>2021-07-07T15:28:50+0200</time>
      </trkpt>
      <trkpt lat="45.45033" lon="2.91422">
        <ele>1169.63063</ele>
        <time>2021-07-07T15:28:56+0200</time>
      </trkpt>
      <trkpt lat="45.45032" lon="2.9143">
        <ele>1169.558713</ele>
        <time>2021-07-07T15:29:00+0200</time>
      </trkpt>
      <trkpt lat="45.45033" lon="2.91437">
        <ele>1170.322129</ele>
        <time>2021-07-07T15:29:05+0200</time>
      </trkpt>
      <trkpt lat="45.45032" lon="2.91445">
        <ele>1170.537883</ele>
        <time>2021-07-07T15:29:11+0200</time>
      </trkpt>
      <trkpt lat="45.45029" lon="2.91449">
        <ele>1169.914501</ele>
        <time>2021-07-07T15:29:15+0200</time>
      </trkpt>
      <trkpt lat="45.45024" lon="2.91451">
        <ele>1169.625438</ele>
        <time>2021-07-07T15:29:19+0200</time>
      </trkpt>
      <trkpt lat="45.45019" lon="2.91454">
        <ele>1169.518863</ele>
        <time>2021-07-07T15:29:22+0200</time>
      </trkpt>
      <trkpt lat="45.45014" lon="2.91457">
        <ele>1169.510611</ele>
        <time>2021-07-07T15:29:25+0200</time>
      </trkpt>
      <trkpt lat="45.45009" lon="2.9146">
        <ele>1168.707008</ele>
        <time>2021-07-07T15:29:27+0200</time>
      </trkpt>
      <trkpt lat="45.45004" lon="2.91466">
        <ele>1167.771815</ele>
        <time>2021-07-07T15:29:30+0200</time>
      </trkpt>
      <trkpt lat="45.45001" lon="2.91475">
        <ele>1166.687612</ele>
        <time>2021-07-07T15:29:32+0200</time>
      </trkpt>
      <trkpt lat="45.44997" lon="2.9148">
        <ele>1166.31882</ele>
        <time>2021-07-07T15:29:34+0200</time>
      </trkpt>
      <trkpt lat="45.44992" lon="2.91488">
        <ele>1165.297656</ele>
        <time>2021-07-07T15:29:36+0200</time>
      </trkpt>
      <trkpt lat="45.44986" lon="2.91496">
        <ele>1164.968094</ele>
        <time>2021-07-07T15:29:38+0200</time>
      </trkpt>
      <trkpt lat="45.44982" lon="2.91501">
        <ele>1164.480012</ele>
        <time>2021-07-07T15:29:39+0200</time>
      </trkpt>
      <trkpt lat="45.44976" lon="2.91505">
        <ele>1163.509366</ele>
        <time>2021-07-07T15:29:41+0200</time>
      </trkpt>
      <trkpt lat="45.44969" lon="2.91508">
        <ele>1162.015899</ele>
        <time>2021-07-07T15:29:43+0200</time>
      </trkpt>
      <trkpt lat="45.44964" lon="2.91509">
        <ele>1161.446834</ele>
        <time>2021-07-07T15:29:44+0200</time>
      </trkpt>
      <trkpt lat="45.44958" lon="2.91512">
        <ele>1160.195292</ele>
        <time>2021-07-07T15:29:45+0200</time>
      </trkpt>
      <trkpt lat="45.44952" lon="2.91513">
        <ele>1159.006813</ele>
        <time>2021-07-07T15:29:46+0200</time>
      </trkpt>
      <trkpt lat="45.44945" lon="2.91516">
        <ele>1158.229259</ele>
        <time>2021-07-07T15:29:47+0200</time>
      </trkpt>
      <trkpt lat="45.44941" lon="2.91524">
        <ele>1156.895812</ele>
        <time>2021-07-07T15:29:48+0200</time>
      </trkpt>
      <trkpt lat="45.44936" lon="2.91532">
        <ele>1156.444974</ele>
        <time>2021-07-07T15:29:49+0200</time>
      </trkpt>
      <trkpt lat="45.44932" lon="2.9154">
        <ele>1155.861456</ele>
        <time>2021-07-07T15:29:50+0200</time>
      </trkpt>
      <trkpt lat="45.44928" lon="2.91548">
        <ele>1155.182193</ele>
        <time>2021-07-07T15:29:51+0200</time>
      </trkpt>
      <trkpt lat="45.44922" lon="2.91553">
        <ele>1154.419642</ele>
        <time>2021-07-07T15:29:52+0200</time>
      </trkpt>
      <trkpt lat="45.44915" lon="2.91559">
        <ele>1153.833664</ele>
        <time>2021-07-07T15:29:53+0200</time>
      </trkpt>
      <trkpt lat="45.44907" lon="2.91564">
        <ele>1153.071871</ele>
        <time>2021-07-07T15:29:54+0200</time>
      </trkpt>
      <trkpt lat="45.449" lon="2.9157">
        <ele>1152.405894</ele>
        <time>2021-07-07T15:29:55+0200</time>
      </trkpt>
      <trkpt lat="45.44893" lon="2.91578">
        <ele>1151.811362</ele>
        <time>2021-07-07T15:29:56+0200</time>
      </trkpt>
      <trkpt lat="45.44887" lon="2.91587">
        <ele>1150.963011</ele>
        <time>2021-07-07T15:29:57+0200</time>
      </trkpt>
      <trkpt lat="45.4488" lon="2.91595">
        <ele>1149.261974</ele>
        <time>2021-07-07T15:29:58+0200</time>
      </trkpt>
      <trkpt lat="45.44873" lon="2.91605">
        <ele>1148.491886</ele>
        <time>2021-07-07T15:29:59+0200</time>
      </trkpt>
      <trkpt lat="45.44868" lon="2.91615">
        <ele>1147.564906</ele>
        <time>2021-07-07T15:30:00+0200</time>
      </trkpt>
      <trkpt lat="45.44859" lon="2.91623">
        <ele>1147.022735</ele>
        <time>2021-07-07T15:30:01+0200</time>
      </trkpt>
      <trkpt lat="45.44853" lon="2.91631">
        <ele>1146.369719</ele>
        <time>2021-07-07T15:30:02+0200</time>
      </trkpt>
      <trkpt lat="45.44846" lon="2.91634">
        <ele>1145.730479</ele>
        <time>2021-07-07T15:30:03+0200</time>
      </trkpt>
      <trkpt lat="45.44841" lon="2.91633">
        <ele>1145.725369</ele>
        <time>2021-07-07T15:30:04+0200</time>
      </trkpt>
      <trkpt lat="45.44837" lon="2.91632">
        <ele>1145.835498</ele>
        <time>2021-07-07T15:30:05+0200</time>
      </trkpt>
      <trkpt lat="45.44832" lon="2.91631">
        <ele>1145.687182</ele>
        <time>2021-07-07T15:30:06+0200</time>
      </trkpt>
      <trkpt lat="45.44827" lon="2.91628">
        <ele>1145.175525</ele>
        <time>2021-07-07T15:30:07+0200</time>
      </trkpt>
      <trkpt lat="45.44821" lon="2.91619">
        <ele>1144.790161</ele>
        <time>2021-07-07T15:30:09+0200</time>
      </trkpt>
      <trkpt lat="45.44816" lon="2.91615">
        <ele>1144.126248</ele>
        <time>2021-07-07T15:30:10+0200</time>
      </trkpt>
      <trkpt lat="45.44811" lon="2.9161">
        <ele>1143.243308</ele>
        <time>2021-07-07T15:30:11+0200</time>
      </trkpt>
      <trkpt lat="45.44806" lon="2.91605">
        <ele>1142.428387</ele>
        <time>2021-07-07T15:30:12+0200</time>
      </trkpt>
      <trkpt lat="45.448" lon="2.916">
        <ele>1141.682168</ele>
        <time>2021-07-07T15:30:13+0200</time>
      </trkpt>
      <trkpt lat="45.44793" lon="2.91594">
        <ele>1141.003743</ele>
        <time>2021-07-07T15:30:14+0200</time>
      </trkpt>
      <trkpt lat="45.44786" lon="2.91587">
        <ele>1140.279311</ele>
        <time>2021-07-07T15:30:15+0200</time>
      </trkpt>
      <trkpt lat="45.4478" lon="2.91581">
        <ele>1139.252227</ele>
        <time>2021-07-07T15:30:16+0200</time>
      </trkpt>
      <trkpt lat="45.44772" lon="2.91576">
        <ele>1138.255736</ele>
        <time>2021-07-07T15:30:17+0200</time>
      </trkpt>
      <trkpt lat="45.44764" lon="2.91571">
        <ele>1137.440117</ele>
        <time>2021-07-07T15:30:18+0200</time>
      </trkpt>
      <trkpt lat="45.44756" lon="2.91567">
        <ele>1136.720789</ele>
        <time>2021-07-07T15:30:19+0200</time>
      </trkpt>
      <trkpt lat="45.44747" lon="2.91564">
        <ele>1136.596265</ele>
        <time>2021-07-07T15:30:20+0200</time>
      </trkpt>
      <trkpt lat="45.44739" lon="2.91562">
        <ele>1136.632092</ele>
        <time>2021-07-07T15:30:21+0200</time>
      </trkpt>
      <trkpt lat="45.44731" lon="2.9156">
        <ele>1136.027765</ele>
        <time>2021-07-07T15:30:22+0200</time>
      </trkpt>
      <trkpt lat="45.44724" lon="2.91559">
        <ele>1135.851683</ele>
        <time>2021-07-07T15:30:23+0200</time>
      </trkpt>
      <trkpt lat="45.44717" lon="2.91556">
        <ele>1135.546065</ele>
        <time>2021-07-07T15:30:24+0200</time>
      </trkpt>
      <trkpt lat="45.4471" lon="2.91551">
        <ele>1135.493818</ele>
        <time>2021-07-07T15:30:25+0200</time>
      </trkpt>
      <trkpt lat="45.44705" lon="2.91544">
        <ele>1135.400107</ele>
        <time>2021-07-07T15:30:26+0200</time>
      </trkpt>
      <trkpt lat="45.44699" lon="2.91538">
        <ele>1135.147493</ele>
        <time>2021-07-07T15:30:27+0200</time>
      </trkpt>
      <trkpt lat="45.44694" lon="2.91531">
        <ele>1135.039601</ele>
        <time>2021-07-07T15:30:28+0200</time>
      </trkpt>
      <trkpt lat="45.44689" lon="2.91525">
        <ele>1135.414114</ele>
        <time>2021-07-07T15:30:29+0200</time>
      </trkpt>
      <trkpt lat="45.44683" lon="2.91519">
        <ele>1135.526212</ele>
        <time>2021-07-07T15:30:30+0200</time>
      </trkpt>
      <trkpt lat="45.44678" lon="2.91513">
        <ele>1135.169325</ele>
        <time>2021-07-07T15:30:31+0200</time>
      </trkpt>
      <trkpt lat="45.44673" lon="2.91506">
        <ele>1134.720946</ele>
        <time>2021-07-07T15:30:32+0200</time>
      </trkpt>
      <trkpt lat="45.44669" lon="2.91499">
        <ele>1134.390473</ele>
        <time>2021-07-07T15:30:33+0200</time>
      </trkpt>
      <trkpt lat="45.44665" lon="2.9149">
        <ele>1133.528798</ele>
        <time>2021-07-07T15:30:34+0200</time>
      </trkpt>
      <trkpt lat="45.4466" lon="2.91482">
        <ele>1133.180559</ele>
        <time>2021-07-07T15:30:35+0200</time>
      </trkpt>
      <trkpt lat="45.44653" lon="2.91474">
        <ele>1132.319263</ele>
        <time>2021-07-07T15:30:36+0200</time>
      </trkpt>
      <trkpt lat="45.44645" lon="2.91467">
        <ele>1131.177488</ele>
        <time>2021-07-07T15:30:37+0200</time>
      </trkpt>
      <trkpt lat="45.44637" lon="2.91456">
        <ele>1129.814771</ele>
        <time>2021-07-07T15:30:38+0200</time>
      </trkpt>
      <trkpt lat="45.4463" lon="2.91445">
        <ele>1128.4368</ele>
        <time>2021-07-07T15:30:39+0200</time>
      </trkpt>
      <trkpt lat="45.44622" lon="2.91436">
        <ele>1127.051731</ele>
        <time>2021-07-07T15:30:40+0200</time>
      </trkpt>
      <trkpt lat="45.44615" lon="2.9143">
        <ele>1126.398162</ele>
        <time>2021-07-07T15:30:41+0200</time>
      </trkpt>
      <trkpt lat="45.44606" lon="2.91426">
        <ele>1126.000415</ele>
        <time>2021-07-07T15:30:42+0200</time>
      </trkpt>
      <trkpt lat="45.44596" lon="2.91427">
        <ele>1125.38308</ele>
        <time>2021-07-07T15:30:43+0200</time>
      </trkpt>
      <trkpt lat="45.44587" lon="2.91431">
        <ele>1124.256686</ele>
        <time>2021-07-07T15:30:44+0200</time>
      </trkpt>
      <trkpt lat="45.4458" lon="2.91436">
        <ele>1123.343992</ele>
        <time>2021-07-07T15:30:45+0200</time>
      </trkpt>
      <trkpt lat="45.44575" lon="2.91442">
        <ele>1121.813475</ele>
        <time>2021-07-07T15:30:46+0200</time>
      </trkpt>
      <trkpt lat="45.44571" lon="2.91449">
        <ele>1121.405277</ele>
        <time>2021-07-07T15:30:47+0200</time>
      </trkpt>
      <trkpt lat="45.44566" lon="2.91458">
        <ele>1120.218087</ele>
        <time>2021-07-07T15:30:48+0200</time>
      </trkpt>
      <trkpt lat="45.44562" lon="2.91466">
        <ele>1119.216367</ele>
        <time>2021-07-07T15:30:49+0200</time>
      </trkpt>
      <trkpt lat="45.44558" lon="2.91473">
        <ele>1118.210458</ele>
        <time>2021-07-07T15:30:50+0200</time>
      </trkpt>
      <trkpt lat="45.44552" lon="2.91475">
        <ele>1117.202739</ele>
        <time>2021-07-07T15:30:51+0200</time>
      </trkpt>
      <trkpt lat="45.44546" lon="2.91471">
        <ele>1115.302617</ele>
        <time>2021-07-07T15:30:52+0200</time>
      </trkpt>
      <trkpt lat="45.4454" lon="2.91468">
        <ele>1114.767076</ele>
        <time>2021-07-07T15:30:53+0200</time>
      </trkpt>
      <trkpt lat="45.44533" lon="2.91465">
        <ele>1113.937108</ele>
        <time>2021-07-07T15:30:54+0200</time>
      </trkpt>
      <trkpt lat="45.44525" lon="2.91463">
        <ele>1113.336546</ele>
        <time>2021-07-07T15:30:55+0200</time>
      </trkpt>
      <trkpt lat="45.44518" lon="2.91463">
        <ele>1112.851189</ele>
        <time>2021-07-07T15:30:56+0200</time>
      </trkpt>
      <trkpt lat="45.44511" lon="2.91463">
        <ele>1112.557056</ele>
        <time>2021-07-07T15:30:57+0200</time>
      </trkpt>
      <trkpt lat="45.44502" lon="2.91462">
        <ele>1111.850671</ele>
        <time>2021-07-07T15:30:58+0200</time>
      </trkpt>
      <trkpt lat="45.44492" lon="2.91463">
        <ele>1111.506987</ele>
        <time>2021-07-07T15:30:59+0200</time>
      </trkpt>
      <trkpt lat="45.44483" lon="2.91464">
        <ele>1110.921134</ele>
        <time>2021-07-07T15:31:00+0200</time>
      </trkpt>
      <trkpt lat="45.44475" lon="2.91467">
        <ele>1110.443952</ele>
        <time>2021-07-07T15:31:01+0200</time>
      </trkpt>
      <trkpt lat="45.44467" lon="2.9147">
        <ele>1110.21437</ele>
        <time>2021-07-07T15:31:02+0200</time>
      </trkpt>
      <trkpt lat="45.44458" lon="2.9147">
        <ele>1109.811487</ele>
        <time>2021-07-07T15:31:03+0200</time>
      </trkpt>
      <trkpt lat="45.4445" lon="2.91471">
        <ele>1109.195883</ele>
        <time>2021-07-07T15:31:04+0200</time>
      </trkpt>
      <trkpt lat="45.44442" lon="2.91473">
        <ele>1108.700933</ele>
        <time>2021-07-07T15:31:05+0200</time>
      </trkpt>
      <trkpt lat="45.44438" lon="2.91477">
        <ele>1108.313704</ele>
        <time>2021-07-07T15:31:06+0200</time>
      </trkpt>
      <trkpt lat="45.44433" lon="2.91489">
        <ele>1108.027148</ele>
        <time>2021-07-07T15:31:08+0200</time>
      </trkpt>
      <trkpt lat="45.44431" lon="2.91496">
        <ele>1108.11543</ele>
        <time>2021-07-07T15:31:09+0200</time>
      </trkpt>
      <trkpt lat="45.4443" lon="2.91505">
        <ele>1108.246551</ele>
        <time>2021-07-07T15:31:10+0200</time>
      </trkpt>
      <trkpt lat="45.4443" lon="2.91512">
        <ele>1108.397053</ele>
        <time>2021-07-07T15:31:11+0200</time>
      </trkpt>
      <trkpt lat="45.44431" lon="2.9152">
        <ele>1108.815652</ele>
        <time>2021-07-07T15:31:12+0200</time>
      </trkpt>
      <trkpt lat="45.4443" lon="2.91532">
        <ele>1108.51972</ele>
        <time>2021-07-07T15:31:14+0200</time>
      </trkpt>
      <trkpt lat="45.44427" lon="2.91542">
        <ele>1108.021636</ele>
        <time>2021-07-07T15:31:16+0200</time>
      </trkpt>
      <trkpt lat="45.44423" lon="2.91551">
        <ele>1107.278295</ele>
        <time>2021-07-07T15:31:18+0200</time>
      </trkpt>
      <trkpt lat="45.44418" lon="2.91557">
        <ele>1107.237441</ele>
        <time>2021-07-07T15:31:20+0200</time>
      </trkpt>
      <trkpt lat="45.44413" lon="2.91562">
        <ele>1107.846241</ele>
        <time>2021-07-07T15:31:22+0200</time>
      </trkpt>
      <trkpt lat="45.44407" lon="2.91568">
        <ele>1107.957125</ele>
        <time>2021-07-07T15:31:24+0200</time>
      </trkpt>
      <trkpt lat="45.44401" lon="2.91573">
        <ele>1108.493004</ele>
        <time>2021-07-07T15:31:26+0200</time>
      </trkpt>
      <trkpt lat="45.44397" lon="2.9158">
        <ele>1109.069004</ele>
        <time>2021-07-07T15:31:28+0200</time>
      </trkpt>
      <trkpt lat="45.44391" lon="2.91584">
        <ele>1109.690684</ele>
        <time>2021-07-07T15:31:30+0200</time>
      </trkpt>
      <trkpt lat="45.44385" lon="2.91587">
        <ele>1110.236925</ele>
        <time>2021-07-07T15:31:32+0200</time>
      </trkpt>
      <trkpt lat="45.4438" lon="2.9159">
        <ele>1111.344938</ele>
        <time>2021-07-07T15:31:34+0200</time>
      </trkpt>
      <trkpt lat="45.44375" lon="2.91591">
        <ele>1112.540993</ele>
        <time>2021-07-07T15:31:36+0200</time>
      </trkpt>
      <trkpt lat="45.44368" lon="2.91592">
        <ele>1113.688243</ele>
        <time>2021-07-07T15:31:39+0200</time>
      </trkpt>
      <trkpt lat="45.44362" lon="2.91594">
        <ele>1113.181492</ele>
        <time>2021-07-07T15:31:42+0200</time>
      </trkpt>
      <trkpt lat="45.44356" lon="2.91598">
        <ele>1113.054112</ele>
        <time>2021-07-07T15:31:45+0200</time>
      </trkpt>
      <trkpt lat="45.44351" lon="2.91601">
        <ele>1113.199835</ele>
        <time>2021-07-07T15:31:47+0200</time>
      </trkpt>
      <trkpt lat="45.44345" lon="2.91607">
        <ele>1113.410478</ele>
        <time>2021-07-07T15:31:49+0200</time>
      </trkpt>
      <trkpt lat="45.44341" lon="2.91616">
        <ele>1112.554443</ele>
        <time>2021-07-07T15:31:51+0200</time>
      </trkpt>
      <trkpt lat="45.44336" lon="2.91624">
        <ele>1112.165037</ele>
        <time>2021-07-07T15:31:53+0200</time>
      </trkpt>
      <trkpt lat="45.44333" lon="2.91629">
        <ele>1111.345199</ele>
        <time>2021-07-07T15:31:54+0200</time>
      </trkpt>
      <trkpt lat="45.44329" lon="2.91632">
        <ele>1110.066999</ele>
        <time>2021-07-07T15:31:55+0200</time>
      </trkpt>
      <trkpt lat="45.44321" lon="2.91636">
        <ele>1107.628788</ele>
        <time>2021-07-07T15:31:57+0200</time>
      </trkpt>
      <trkpt lat="45.44315" lon="2.91637">
        <ele>1105.546481</ele>
        <time>2021-07-07T15:32:00+0200</time>
      </trkpt>
      <trkpt lat="45.44311" lon="2.91638">
        <ele>1105.142889</ele>
        <time>2021-07-07T15:32:02+0200</time>
      </trkpt>
      <trkpt lat="45.44304" lon="2.9164">
        <ele>1104.53786</ele>
        <time>2021-07-07T15:32:05+0200</time>
      </trkpt>
      <trkpt lat="45.44294" lon="2.91641">
        <ele>1106.075216</ele>
        <time>2021-07-07T15:32:07+0200</time>
      </trkpt>
      <trkpt lat="45.44284" lon="2.91641">
        <ele>1106.656655</ele>
        <time>2021-07-07T15:32:09+0200</time>
      </trkpt>
      <trkpt lat="45.44277" lon="2.91642">
        <ele>1107.029219</ele>
        <time>2021-07-07T15:32:10+0200</time>
      </trkpt>
      <trkpt lat="45.44271" lon="2.91643">
        <ele>1106.622952</ele>
        <time>2021-07-07T15:32:11+0200</time>
      </trkpt>
      <trkpt lat="45.44265" lon="2.91645">
        <ele>1106.51671</ele>
        <time>2021-07-07T15:32:12+0200</time>
      </trkpt>
      <trkpt lat="45.4426" lon="2.91648">
        <ele>1105.885073</ele>
        <time>2021-07-07T15:32:13+0200</time>
      </trkpt>
      <trkpt lat="45.44254" lon="2.9165">
        <ele>1105.828516</ele>
        <time>2021-07-07T15:32:14+0200</time>
      </trkpt>
      <trkpt lat="45.4425" lon="2.91653">
        <ele>1106.131913</ele>
        <time>2021-07-07T15:32:15+0200</time>
      </trkpt>
      <trkpt lat="45.44243" lon="2.91658">
        <ele>1106.257334</ele>
        <time>2021-07-07T15:32:16+0200</time>
      </trkpt>
      <trkpt lat="45.44239" lon="2.91663">
        <ele>1106.314864</ele>
        <time>2021-07-07T15:32:17+0200</time>
      </trkpt>
      <trkpt lat="45.44233" lon="2.91669">
        <ele>1105.435386</ele>
        <time>2021-07-07T15:32:18+0200</time>
      </trkpt>
      <trkpt lat="45.44227" lon="2.91675">
        <ele>1104.146047</ele>
        <time>2021-07-07T15:32:19+0200</time>
      </trkpt>
      <trkpt lat="45.4422" lon="2.9168">
        <ele>1102.609927</ele>
        <time>2021-07-07T15:32:20+0200</time>
      </trkpt>
      <trkpt lat="45.44212" lon="2.91684">
        <ele>1100.504605</ele>
        <time>2021-07-07T15:32:21+0200</time>
      </trkpt>
      <trkpt lat="45.44203" lon="2.91686">
        <ele>1098.381063</ele>
        <time>2021-07-07T15:32:22+0200</time>
      </trkpt>
      <trkpt lat="45.44194" lon="2.91686">
        <ele>1097.436082</ele>
        <time>2021-07-07T15:32:23+0200</time>
      </trkpt>
      <trkpt lat="45.44184" lon="2.91686">
        <ele>1097.152105</ele>
        <time>2021-07-07T15:32:24+0200</time>
      </trkpt>
      <trkpt lat="45.44173" lon="2.91689">
        <ele>1096.11096</ele>
        <time>2021-07-07T15:32:25+0200</time>
      </trkpt>
      <trkpt lat="45.44164" lon="2.91693">
        <ele>1094.711922</ele>
        <time>2021-07-07T15:32:26+0200</time>
      </trkpt>
      <trkpt lat="45.44152" lon="2.91696">
        <ele>1092.947904</ele>
        <time>2021-07-07T15:32:27+0200</time>
      </trkpt>
      <trkpt lat="45.4414" lon="2.91697">
        <ele>1090.447917</ele>
        <time>2021-07-07T15:32:28+0200</time>
      </trkpt>
      <trkpt lat="45.44127" lon="2.91697">
        <ele>1088.696194</ele>
        <time>2021-07-07T15:32:29+0200</time>
      </trkpt>
      <trkpt lat="45.44113" lon="2.91696">
        <ele>1086.066667</ele>
        <time>2021-07-07T15:32:30+0200</time>
      </trkpt>
      <trkpt lat="45.441" lon="2.91693">
        <ele>1083.564497</ele>
        <time>2021-07-07T15:32:31+0200</time>
      </trkpt>
      <trkpt lat="45.44086" lon="2.91687">
        <ele>1081.37339</ele>
        <time>2021-07-07T15:32:32+0200</time>
      </trkpt>
      <trkpt lat="45.44072" lon="2.9168">
        <ele>1079.580418</ele>
        <time>2021-07-07T15:32:33+0200</time>
      </trkpt>
      <trkpt lat="45.44057" lon="2.91674">
        <ele>1078.12545</ele>
        <time>2021-07-07T15:32:34+0200</time>
      </trkpt>
      <trkpt lat="45.44042" lon="2.91668">
        <ele>1076.910305</ele>
        <time>2021-07-07T15:32:35+0200</time>
      </trkpt>
      <trkpt lat="45.44028" lon="2.9166">
        <ele>1075.780567</ele>
        <time>2021-07-07T15:32:36+0200</time>
      </trkpt>
      <trkpt lat="45.44014" lon="2.91653">
        <ele>1074.235374</ele>
        <time>2021-07-07T15:32:37+0200</time>
      </trkpt>
      <trkpt lat="45.44" lon="2.91642">
        <ele>1072.580976</ele>
        <time>2021-07-07T15:32:38+0200</time>
      </trkpt>
      <trkpt lat="45.43986" lon="2.91632">
        <ele>1070.976461</ele>
        <time>2021-07-07T15:32:39+0200</time>
      </trkpt>
      <trkpt lat="45.43972" lon="2.91623">
        <ele>1069.574256</ele>
        <time>2021-07-07T15:32:40+0200</time>
      </trkpt>
      <trkpt lat="45.43957" lon="2.91614">
        <ele>1067.723384</ele>
        <time>2021-07-07T15:32:41+0200</time>
      </trkpt>
      <trkpt lat="45.43943" lon="2.91604">
        <ele>1066.115879</ele>
        <time>2021-07-07T15:32:42+0200</time>
      </trkpt>
      <trkpt lat="45.43929" lon="2.91595">
        <ele>1063.490334</ele>
        <time>2021-07-07T15:32:43+0200</time>
      </trkpt>
      <trkpt lat="45.43914" lon="2.91585">
        <ele>1060.903957</ele>
        <time>2021-07-07T15:32:44+0200</time>
      </trkpt>
      <trkpt lat="45.439" lon="2.91576">
        <ele>1057.997535</ele>
        <time>2021-07-07T15:32:45+0200</time>
      </trkpt>
      <trkpt lat="45.43888" lon="2.91563">
        <ele>1055.381024</ele>
        <time>2021-07-07T15:32:46+0200</time>
      </trkpt>
      <trkpt lat="45.43871" lon="2.91555">
        <ele>1053.954009</ele>
        <time>2021-07-07T15:32:47+0200</time>
      </trkpt>
      <trkpt lat="45.43855" lon="2.91549">
        <ele>1053.067317</ele>
        <time>2021-07-07T15:32:48+0200</time>
      </trkpt>
      <trkpt lat="45.43841" lon="2.91543">
        <ele>1051.851232</ele>
        <time>2021-07-07T15:32:49+0200</time>
      </trkpt>
      <trkpt lat="45.43831" lon="2.9154">
        <ele>1050.638856</ele>
        <time>2021-07-07T15:32:50+0200</time>
      </trkpt>
      <trkpt lat="45.43819" lon="2.91538">
        <ele>1049.791961</ele>
        <time>2021-07-07T15:32:51+0200</time>
      </trkpt>
      <trkpt lat="45.43806" lon="2.91538">
        <ele>1049.018403</ele>
        <time>2021-07-07T15:32:52+0200</time>
      </trkpt>
      <trkpt lat="45.43796" lon="2.91541">
        <ele>1048.346836</ele>
        <time>2021-07-07T15:32:53+0200</time>
      </trkpt>
      <trkpt lat="45.43788" lon="2.91542">
        <ele>1048.551072</ele>
        <time>2021-07-07T15:32:54+0200</time>
      </trkpt>
      <trkpt lat="45.43781" lon="2.91541">
        <ele>1049.533995</ele>
        <time>2021-07-07T15:32:56+0200</time>
      </trkpt>
      <trkpt lat="45.43777" lon="2.91546">
        <ele>1050.528586</ele>
        <time>2021-07-07T15:33:45+0200</time>
      </trkpt>
      <trkpt lat="45.4378" lon="2.91551">
        <ele>1049.602907</ele>
        <time>2021-07-07T15:33:52+0200</time>
      </trkpt>
      <trkpt lat="45.43785" lon="2.91549">
        <ele>1049.17331</ele>
        <time>2021-07-07T15:33:55+0200</time>
      </trkpt>
      <trkpt lat="45.43791" lon="2.9155">
        <ele>1049.497346</ele>
        <time>2021-07-07T15:33:57+0200</time>
      </trkpt>
      <trkpt lat="45.43797" lon="2.91554">
        <ele>1050.128519</ele>
        <time>2021-07-07T15:34:00+0200</time>
      </trkpt>
      <trkpt lat="45.43799" lon="2.91562">
        <ele>1049.868147</ele>
        <time>2021-07-07T15:34:02+0200</time>
      </trkpt>
      <trkpt lat="45.43805" lon="2.91572">
        <ele>1048.355528</ele>
        <time>2021-07-07T15:34:04+0200</time>
      </trkpt>
      <trkpt lat="45.4381" lon="2.91575">
        <ele>1047.277477</ele>
        <time>2021-07-07T15:34:05+0200</time>
      </trkpt>
      <trkpt lat="45.43816" lon="2.91577">
        <ele>1045.920402</ele>
        <time>2021-07-07T15:34:06+0200</time>
      </trkpt>
      <trkpt lat="45.43824" lon="2.9158">
        <ele>1044.701552</ele>
        <time>2021-07-07T15:34:07+0200</time>
      </trkpt>
      <trkpt lat="45.43831" lon="2.91584">
        <ele>1043.651703</ele>
        <time>2021-07-07T15:34:08+0200</time>
      </trkpt>
      <trkpt lat="45.43837" lon="2.9159">
        <ele>1042.416868</ele>
        <time>2021-07-07T15:34:09+0200</time>
      </trkpt>
      <trkpt lat="45.43842" lon="2.91593">
        <ele>1041.524424</ele>
        <time>2021-07-07T15:34:10+0200</time>
      </trkpt>
      <trkpt lat="45.43846" lon="2.91602">
        <ele>1040.324826</ele>
        <time>2021-07-07T15:34:12+0200</time>
      </trkpt>
      <trkpt lat="45.43839" lon="2.91605">
        <ele>1039.70622</ele>
        <time>2021-07-07T15:34:14+0200</time>
      </trkpt>
      <trkpt lat="45.43834" lon="2.91597">
        <ele>1038.998076</ele>
        <time>2021-07-07T15:34:16+0200</time>
      </trkpt>
      <trkpt lat="45.43829" lon="2.91597">
        <ele>1039.208038</ele>
        <time>2021-07-07T15:34:18+0200</time>
      </trkpt>
      <trkpt lat="45.43824" lon="2.91595">
        <ele>1039.484583</ele>
        <time>2021-07-07T15:34:20+0200</time>
      </trkpt>
      <trkpt lat="45.43818" lon="2.91595">
        <ele>1039.721356</ele>
        <time>2021-07-07T15:34:22+0200</time>
      </trkpt>
      <trkpt lat="45.43811" lon="2.91597">
        <ele>1039.560317</ele>
        <time>2021-07-07T15:34:24+0200</time>
      </trkpt>
      <trkpt lat="45.43807" lon="2.91598">
        <ele>1039.399951</ele>
        <time>2021-07-07T15:34:26+0200</time>
      </trkpt>
      <trkpt lat="45.43802" lon="2.916">
        <ele>1039.224302</ele>
        <time>2021-07-07T15:34:28+0200</time>
      </trkpt>
      <trkpt lat="45.43796" lon="2.91603">
        <ele>1039.93189</ele>
        <time>2021-07-07T15:34:30+0200</time>
      </trkpt>
      <trkpt lat="45.43791" lon="2.91606">
        <ele>1040.785637</ele>
        <time>2021-07-07T15:34:32+0200</time>
      </trkpt>
      <trkpt lat="45.43785" lon="2.9161">
        <ele>1041.231377</ele>
        <time>2021-07-07T15:34:34+0200</time>
      </trkpt>
      <trkpt lat="45.4378" lon="2.91613">
        <ele>1041.960437</ele>
        <time>2021-07-07T15:34:36+0200</time>
      </trkpt>
      <trkpt lat="45.43774" lon="2.91616">
        <ele>1042.534255</ele>
        <time>2021-07-07T15:34:38+0200</time>
      </trkpt>
      <trkpt lat="45.43769" lon="2.91619">
        <ele>1043.087079</ele>
        <time>2021-07-07T15:34:40+0200</time>
      </trkpt>
      <trkpt lat="45.43764" lon="2.91621">
        <ele>1043.57584</ele>
        <time>2021-07-07T15:34:42+0200</time>
      </trkpt>
      <trkpt lat="45.4376" lon="2.91622">
        <ele>1043.965712</ele>
        <time>2021-07-07T15:34:44+0200</time>
      </trkpt>
      <trkpt lat="45.43755" lon="2.91622">
        <ele>1044.954942</ele>
        <time>2021-07-07T15:34:46+0200</time>
      </trkpt>
      <trkpt lat="45.43748" lon="2.91622">
        <ele>1045.736723</ele>
        <time>2021-07-07T15:34:49+0200</time>
      </trkpt>
      <trkpt lat="45.43742" lon="2.91621">
        <ele>1046.066806</ele>
        <time>2021-07-07T15:34:51+0200</time>
      </trkpt>
      <trkpt lat="45.43738" lon="2.9162">
        <ele>1046.522849</ele>
        <time>2021-07-07T15:34:53+0200</time>
      </trkpt>
      <trkpt lat="45.43731" lon="2.91617">
        <ele>1046.940975</ele>
        <time>2021-07-07T15:34:56+0200</time>
      </trkpt>
      <trkpt lat="45.43725" lon="2.91614">
        <ele>1046.921402</ele>
        <time>2021-07-07T15:34:59+0200</time>
      </trkpt>
      <trkpt lat="45.4372" lon="2.91611">
        <ele>1046.894987</ele>
        <time>2021-07-07T15:35:02+0200</time>
      </trkpt>
      <trkpt lat="45.43714" lon="2.91607">
        <ele>1047.31535</ele>
        <time>2021-07-07T15:35:05+0200</time>
      </trkpt>
      <trkpt lat="45.4371" lon="2.91602">
        <ele>1047.41551</ele>
        <time>2021-07-07T15:35:07+0200</time>
      </trkpt>
      <trkpt lat="45.43706" lon="2.91599">
        <ele>1047.874783</ele>
        <time>2021-07-07T15:35:09+0200</time>
      </trkpt>
      <trkpt lat="45.43702" lon="2.91594">
        <ele>1048.017127</ele>
        <time>2021-07-07T15:35:11+0200</time>
      </trkpt>
      <trkpt lat="45.43697" lon="2.91589">
        <ele>1048.582066</ele>
        <time>2021-07-07T15:35:13+0200</time>
      </trkpt>
      <trkpt lat="45.43692" lon="2.91584">
        <ele>1048.911097</ele>
        <time>2021-07-07T15:35:16+0200</time>
      </trkpt>
      <trkpt lat="45.43689" lon="2.91579">
        <ele>1049.185155</ele>
        <time>2021-07-07T15:35:18+0200</time>
      </trkpt>
      <trkpt lat="45.43685" lon="2.91576">
        <ele>1049.030375</ele>
        <time>2021-07-07T15:35:20+0200</time>
      </trkpt>
      <trkpt lat="45.43679" lon="2.91569">
        <ele>1049.578645</ele>
        <time>2021-07-07T15:35:23+0200</time>
      </trkpt>
      <trkpt lat="45.43675" lon="2.91564">
        <ele>1049.926595</ele>
        <time>2021-07-07T15:35:25+0200</time>
      </trkpt>
      <trkpt lat="45.43671" lon="2.9156">
        <ele>1050.347686</ele>
        <time>2021-07-07T15:35:27+0200</time>
      </trkpt>
      <trkpt lat="45.43666" lon="2.91556">
        <ele>1050.723939</ele>
        <time>2021-07-07T15:35:29+0200</time>
      </trkpt>
      <trkpt lat="45.43662" lon="2.91552">
        <ele>1050.79159</ele>
        <time>2021-07-07T15:35:31+0200</time>
      </trkpt>
      <trkpt lat="45.43658" lon="2.91545">
        <ele>1051.281208</ele>
        <time>2021-07-07T15:35:33+0200</time>
      </trkpt>
      <trkpt lat="45.43654" lon="2.91541">
        <ele>1051.857289</ele>
        <time>2021-07-07T15:35:35+0200</time>
      </trkpt>
      <trkpt lat="45.4365" lon="2.91536">
        <ele>1052.220281</ele>
        <time>2021-07-07T15:35:37+0200</time>
      </trkpt>
      <trkpt lat="45.43645" lon="2.9153">
        <ele>1052.108189</ele>
        <time>2021-07-07T15:35:40+0200</time>
      </trkpt>
      <trkpt lat="45.43641" lon="2.91525">
        <ele>1052.191661</ele>
        <time>2021-07-07T15:35:42+0200</time>
      </trkpt>
      <trkpt lat="45.43636" lon="2.9152">
        <ele>1052.530128</ele>
        <time>2021-07-07T15:35:44+0200</time>
      </trkpt>
      <trkpt lat="45.43632" lon="2.91515">
        <ele>1052.739522</ele>
        <time>2021-07-07T15:35:46+0200</time>
      </trkpt>
      <trkpt lat="45.43627" lon="2.91511">
        <ele>1052.562921</ele>
        <time>2021-07-07T15:35:48+0200</time>
      </trkpt>
      <trkpt lat="45.43622" lon="2.91506">
        <ele>1052.90143</ele>
        <time>2021-07-07T15:35:50+0200</time>
      </trkpt>
      <trkpt lat="45.43618" lon="2.91501">
        <ele>1053.640979</ele>
        <time>2021-07-07T15:35:52+0200</time>
      </trkpt>
      <trkpt lat="45.43613" lon="2.91496">
        <ele>1054.324663</ele>
        <time>2021-07-07T15:35:54+0200</time>
      </trkpt>
      <trkpt lat="45.43609" lon="2.91491">
        <ele>1055.007206</ele>
        <time>2021-07-07T15:35:56+0200</time>
      </trkpt>
      <trkpt lat="45.43604" lon="2.91486">
        <ele>1055.390373</ele>
        <time>2021-07-07T15:35:58+0200</time>
      </trkpt>
      <trkpt lat="45.43599" lon="2.91481">
        <ele>1055.522798</ele>
        <time>2021-07-07T15:36:00+0200</time>
      </trkpt>
      <trkpt lat="45.43595" lon="2.91476">
        <ele>1056.220001</ele>
        <time>2021-07-07T15:36:02+0200</time>
      </trkpt>
      <trkpt lat="45.4359" lon="2.91472">
        <ele>1056.752086</ele>
        <time>2021-07-07T15:36:04+0200</time>
      </trkpt>
      <trkpt lat="45.43586" lon="2.91467">
        <ele>1057.201724</ele>
        <time>2021-07-07T15:36:06+0200</time>
      </trkpt>
      <trkpt lat="45.43581" lon="2.91463">
        <ele>1057.462767</ele>
        <time>2021-07-07T15:36:08+0200</time>
      </trkpt>
      <trkpt lat="45.43577" lon="2.91458">
        <ele>1057.512561</ele>
        <time>2021-07-07T15:36:10+0200</time>
      </trkpt>
      <trkpt lat="45.43572" lon="2.91453">
        <ele>1057.935593</ele>
        <time>2021-07-07T15:36:12+0200</time>
      </trkpt>
      <trkpt lat="45.43567" lon="2.91447">
        <ele>1058.214979</ele>
        <time>2021-07-07T15:36:14+0200</time>
      </trkpt>
      <trkpt lat="45.43562" lon="2.91441">
        <ele>1058.358536</ele>
        <time>2021-07-07T15:36:16+0200</time>
      </trkpt>
      <trkpt lat="45.43557" lon="2.91436">
        <ele>1058.569718</ele>
        <time>2021-07-07T15:36:18+0200</time>
      </trkpt>
      <trkpt lat="45.43552" lon="2.9143">
        <ele>1058.354438</ele>
        <time>2021-07-07T15:36:20+0200</time>
      </trkpt>
      <trkpt lat="45.43547" lon="2.91425">
        <ele>1058.85096</ele>
        <time>2021-07-07T15:36:22+0200</time>
      </trkpt>
      <trkpt lat="45.43543" lon="2.91421">
        <ele>1058.971277</ele>
        <time>2021-07-07T15:36:24+0200</time>
      </trkpt>
      <trkpt lat="45.43538" lon="2.91418">
        <ele>1059.94534</ele>
        <time>2021-07-07T15:36:26+0200</time>
      </trkpt>
      <trkpt lat="45.43533" lon="2.91411">
        <ele>1060.417232</ele>
        <time>2021-07-07T15:36:28+0200</time>
      </trkpt>
      <trkpt lat="45.43528" lon="2.91405">
        <ele>1060.29078</ele>
        <time>2021-07-07T15:36:30+0200</time>
      </trkpt>
      <trkpt lat="45.43523" lon="2.91399">
        <ele>1060.678793</ele>
        <time>2021-07-07T15:36:32+0200</time>
      </trkpt>
      <trkpt lat="45.43518" lon="2.91394">
        <ele>1060.999071</ele>
        <time>2021-07-07T15:36:34+0200</time>
      </trkpt>
      <trkpt lat="45.43512" lon="2.91391">
        <ele>1061.533809</ele>
        <time>2021-07-07T15:36:36+0200</time>
      </trkpt>
      <trkpt lat="45.43505" lon="2.91389">
        <ele>1062.063764</ele>
        <time>2021-07-07T15:36:38+0200</time>
      </trkpt>
      <trkpt lat="45.43499" lon="2.91388">
        <ele>1062.002665</ele>
        <time>2021-07-07T15:36:40+0200</time>
      </trkpt>
      <trkpt lat="45.43493" lon="2.91385">
        <ele>1062.499941</ele>
        <time>2021-07-07T15:36:42+0200</time>
      </trkpt>
      <trkpt lat="45.43487" lon="2.91385">
        <ele>1063.150284</ele>
        <time>2021-07-07T15:36:44+0200</time>
      </trkpt>
      <trkpt lat="45.43481" lon="2.91384">
        <ele>1063.280789</ele>
        <time>2021-07-07T15:36:46+0200</time>
      </trkpt>
      <trkpt lat="45.43474" lon="2.91385">
        <ele>1063.247051</ele>
        <time>2021-07-07T15:36:48+0200</time>
      </trkpt>
      <trkpt lat="45.43468" lon="2.91386">
        <ele>1063.474865</ele>
        <time>2021-07-07T15:36:50+0200</time>
      </trkpt>
      <trkpt lat="45.43463" lon="2.91388">
        <ele>1063.493952</ele>
        <time>2021-07-07T15:36:52+0200</time>
      </trkpt>
      <trkpt lat="45.43457" lon="2.91388">
        <ele>1063.778481</ele>
        <time>2021-07-07T15:36:54+0200</time>
      </trkpt>
      <trkpt lat="45.43451" lon="2.91389">
        <ele>1063.976468</ele>
        <time>2021-07-07T15:36:56+0200</time>
      </trkpt>
      <trkpt lat="45.43445" lon="2.9139">
        <ele>1064.215656</ele>
        <time>2021-07-07T15:36:58+0200</time>
      </trkpt>
      <trkpt lat="45.43439" lon="2.91389">
        <ele>1064.565021</ele>
        <time>2021-07-07T15:37:00+0200</time>
      </trkpt>
      <trkpt lat="45.43433" lon="2.91388">
        <ele>1064.899254</ele>
        <time>2021-07-07T15:37:02+0200</time>
      </trkpt>
      <trkpt lat="45.43427" lon="2.91389">
        <ele>1065.475189</ele>
        <time>2021-07-07T15:37:04+0200</time>
      </trkpt>
      <trkpt lat="45.43421" lon="2.91388">
        <ele>1065.867591</ele>
        <time>2021-07-07T15:37:06+0200</time>
      </trkpt>
      <trkpt lat="45.43415" lon="2.91387">
        <ele>1066.215074</ele>
        <time>2021-07-07T15:37:08+0200</time>
      </trkpt>
      <trkpt lat="45.43409" lon="2.91386">
        <ele>1066.686213</ele>
        <time>2021-07-07T15:37:10+0200</time>
      </trkpt>
      <trkpt lat="45.43403" lon="2.91386">
        <ele>1067.013101</ele>
        <time>2021-07-07T15:37:12+0200</time>
      </trkpt>
      <trkpt lat="45.43397" lon="2.91385">
        <ele>1067.367264</ele>
        <time>2021-07-07T15:37:14+0200</time>
      </trkpt>
      <trkpt lat="45.43391" lon="2.91385">
        <ele>1067.810218</ele>
        <time>2021-07-07T15:37:16+0200</time>
      </trkpt>
      <trkpt lat="45.43385" lon="2.91384">
        <ele>1068.547397</ele>
        <time>2021-07-07T15:37:18+0200</time>
      </trkpt>
      <trkpt lat="45.4338" lon="2.91382">
        <ele>1068.998191</ele>
        <time>2021-07-07T15:37:20+0200</time>
      </trkpt>
      <trkpt lat="45.43374" lon="2.91381">
        <ele>1069.031238</ele>
        <time>2021-07-07T15:37:22+0200</time>
      </trkpt>
      <trkpt lat="45.43369" lon="2.9138">
        <ele>1069.272481</ele>
        <time>2021-07-07T15:37:24+0200</time>
      </trkpt>
      <trkpt lat="45.43363" lon="2.91378">
        <ele>1069.166841</ele>
        <time>2021-07-07T15:37:26+0200</time>
      </trkpt>
      <trkpt lat="45.43358" lon="2.91376">
        <ele>1069.631242</ele>
        <time>2021-07-07T15:37:28+0200</time>
      </trkpt>
      <trkpt lat="45.43353" lon="2.91372">
        <ele>1070.013224</ele>
        <time>2021-07-07T15:37:30+0200</time>
      </trkpt>
      <trkpt lat="45.43348" lon="2.9137">
        <ele>1070.421158</ele>
        <time>2021-07-07T15:37:32+0200</time>
      </trkpt>
      <trkpt lat="45.43343" lon="2.91365">
        <ele>1071.283608</ele>
        <time>2021-07-07T15:37:34+0200</time>
      </trkpt>
      <trkpt lat="45.43337" lon="2.9136">
        <ele>1071.949993</ele>
        <time>2021-07-07T15:37:36+0200</time>
      </trkpt>
      <trkpt lat="45.43332" lon="2.91356">
        <ele>1072.633515</ele>
        <time>2021-07-07T15:37:38+0200</time>
      </trkpt>
      <trkpt lat="45.43327" lon="2.91351">
        <ele>1072.928011</ele>
        <time>2021-07-07T15:37:40+0200</time>
      </trkpt>
      <trkpt lat="45.43321" lon="2.91346">
        <ele>1073.767931</ele>
        <time>2021-07-07T15:37:42+0200</time>
      </trkpt>
      <trkpt lat="45.43317" lon="2.91343">
        <ele>1074.103725</ele>
        <time>2021-07-07T15:37:44+0200</time>
      </trkpt>
      <trkpt lat="45.43312" lon="2.91338">
        <ele>1074.897699</ele>
        <time>2021-07-07T15:37:46+0200</time>
      </trkpt>
      <trkpt lat="45.43307" lon="2.91334">
        <ele>1075.108179</ele>
        <time>2021-07-07T15:37:48+0200</time>
      </trkpt>
      <trkpt lat="45.43303" lon="2.91329">
        <ele>1075.445959</ele>
        <time>2021-07-07T15:37:50+0200</time>
      </trkpt>
      <trkpt lat="45.43298" lon="2.91324">
        <ele>1075.621318</ele>
        <time>2021-07-07T15:37:52+0200</time>
      </trkpt>
      <trkpt lat="45.43293" lon="2.91319">
        <ele>1076.822908</ele>
        <time>2021-07-07T15:37:54+0200</time>
      </trkpt>
      <trkpt lat="45.43288" lon="2.91315">
        <ele>1077.466529</ele>
        <time>2021-07-07T15:37:56+0200</time>
      </trkpt>
      <trkpt lat="45.43282" lon="2.91311">
        <ele>1078.192379</ele>
        <time>2021-07-07T15:37:58+0200</time>
      </trkpt>
      <trkpt lat="45.43278" lon="2.91307">
        <ele>1078.611264</ele>
        <time>2021-07-07T15:38:00+0200</time>
      </trkpt>
      <trkpt lat="45.43273" lon="2.91302">
        <ele>1078.667018</ele>
        <time>2021-07-07T15:38:02+0200</time>
      </trkpt>
      <trkpt lat="45.43269" lon="2.91299">
        <ele>1078.832626</ele>
        <time>2021-07-07T15:38:04+0200</time>
      </trkpt>
      <trkpt lat="45.43264" lon="2.91297">
        <ele>1078.637754</ele>
        <time>2021-07-07T15:38:06+0200</time>
      </trkpt>
      <trkpt lat="45.43258" lon="2.91295">
        <ele>1078.05889</ele>
        <time>2021-07-07T15:38:09+0200</time>
      </trkpt>
      <trkpt lat="45.43253" lon="2.91292">
        <ele>1077.627671</ele>
        <time>2021-07-07T15:38:13+0200</time>
      </trkpt>
      <trkpt lat="45.43248" lon="2.91298">
        <ele>1076.554961</ele>
        <time>2021-07-07T15:40:37+0200</time>
      </trkpt>
      <trkpt lat="45.43239" lon="2.91299">
        <ele>1076.659211</ele>
        <time>2021-07-07T15:40:39+0200</time>
      </trkpt>
      <trkpt lat="45.43235" lon="2.91301">
        <ele>1076.67928</ele>
        <time>2021-07-07T15:40:40+0200</time>
      </trkpt>
      <trkpt lat="45.4323" lon="2.91303">
        <ele>1076.376045</ele>
        <time>2021-07-07T15:40:41+0200</time>
      </trkpt>
      <trkpt lat="45.43224" lon="2.91304">
        <ele>1076.415565</ele>
        <time>2021-07-07T15:40:42+0200</time>
      </trkpt>
      <trkpt lat="45.43219" lon="2.91306">
        <ele>1076.072636</ele>
        <time>2021-07-07T15:40:43+0200</time>
      </trkpt>
      <trkpt lat="45.43215" lon="2.91307">
        <ele>1075.982507</ele>
        <time>2021-07-07T15:40:44+0200</time>
      </trkpt>
      <trkpt lat="45.43209" lon="2.91309">
        <ele>1075.654649</ele>
        <time>2021-07-07T15:40:45+0200</time>
      </trkpt>
      <trkpt lat="45.43205" lon="2.91311">
        <ele>1075.422146</ele>
        <time>2021-07-07T15:40:46+0200</time>
      </trkpt>
      <trkpt lat="45.432" lon="2.91312">
        <ele>1075.304486</ele>
        <time>2021-07-07T15:40:47+0200</time>
      </trkpt>
      <trkpt lat="45.43196" lon="2.91314">
        <ele>1075.038318</ele>
        <time>2021-07-07T15:40:48+0200</time>
      </trkpt>
      <trkpt lat="45.43188" lon="2.91317">
        <ele>1074.932928</ele>
        <time>2021-07-07T15:40:50+0200</time>
      </trkpt>
      <trkpt lat="45.43181" lon="2.91317">
        <ele>1075.08893</ele>
        <time>2021-07-07T15:40:52+0200</time>
      </trkpt>
      <trkpt lat="45.43174" lon="2.9132">
        <ele>1075.00681</ele>
        <time>2021-07-07T15:40:54+0200</time>
      </trkpt>
      <trkpt lat="45.43167" lon="2.91323">
        <ele>1074.619217</ele>
        <time>2021-07-07T15:40:56+0200</time>
      </trkpt>
      <trkpt lat="45.43159" lon="2.91325">
        <ele>1074.745908</ele>
        <time>2021-07-07T15:40:58+0200</time>
      </trkpt>
      <trkpt lat="45.43152" lon="2.91327">
        <ele>1074.758191</ele>
        <time>2021-07-07T15:41:00+0200</time>
      </trkpt>
      <trkpt lat="45.43144" lon="2.9133">
        <ele>1074.982208</ele>
        <time>2021-07-07T15:41:02+0200</time>
      </trkpt>
      <trkpt lat="45.43137" lon="2.91332">
        <ele>1075.23655</ele>
        <time>2021-07-07T15:41:04+0200</time>
      </trkpt>
      <trkpt lat="45.43129" lon="2.91333">
        <ele>1076.08098</ele>
        <time>2021-07-07T15:41:06+0200</time>
      </trkpt>
      <trkpt lat="45.43122" lon="2.91336">
        <ele>1076.365494</ele>
        <time>2021-07-07T15:41:08+0200</time>
      </trkpt>
      <trkpt lat="45.43115" lon="2.91337">
        <ele>1077.054313</ele>
        <time>2021-07-07T15:41:10+0200</time>
      </trkpt>
      <trkpt lat="45.43109" lon="2.91338">
        <ele>1077.751693</ele>
        <time>2021-07-07T15:41:12+0200</time>
      </trkpt>
      <trkpt lat="45.43103" lon="2.91339">
        <ele>1078.86053</ele>
        <time>2021-07-07T15:41:14+0200</time>
      </trkpt>
      <trkpt lat="45.43097" lon="2.9134">
        <ele>1078.714741</ele>
        <time>2021-07-07T15:41:16+0200</time>
      </trkpt>
      <trkpt lat="45.43092" lon="2.91343">
        <ele>1079.188289</ele>
        <time>2021-07-07T15:41:18+0200</time>
      </trkpt>
      <trkpt lat="45.43086" lon="2.91345">
        <ele>1079.638315</ele>
        <time>2021-07-07T15:41:20+0200</time>
      </trkpt>
      <trkpt lat="45.43081" lon="2.91347">
        <ele>1080.28592</ele>
        <time>2021-07-07T15:41:22+0200</time>
      </trkpt>
      <trkpt lat="45.43076" lon="2.91347">
        <ele>1080.667274</ele>
        <time>2021-07-07T15:41:24+0200</time>
      </trkpt>
      <trkpt lat="45.43071" lon="2.91349">
        <ele>1080.759875</ele>
        <time>2021-07-07T15:41:26+0200</time>
      </trkpt>
      <trkpt lat="45.43066" lon="2.9135">
        <ele>1081.385602</ele>
        <time>2021-07-07T15:41:28+0200</time>
      </trkpt>
      <trkpt lat="45.43061" lon="2.91353">
        <ele>1082.131204</ele>
        <time>2021-07-07T15:41:30+0200</time>
      </trkpt>
      <trkpt lat="45.43056" lon="2.91354">
        <ele>1081.860745</ele>
        <time>2021-07-07T15:41:32+0200</time>
      </trkpt>
      <trkpt lat="45.43052" lon="2.91355">
        <ele>1082.500751</ele>
        <time>2021-07-07T15:41:34+0200</time>
      </trkpt>
      <trkpt lat="45.43047" lon="2.91356">
        <ele>1083.414991</ele>
        <time>2021-07-07T15:41:36+0200</time>
      </trkpt>
      <trkpt lat="45.43041" lon="2.91358">
        <ele>1084.554701</ele>
        <time>2021-07-07T15:41:39+0200</time>
      </trkpt>
      <trkpt lat="45.43036" lon="2.91359">
        <ele>1085.252332</ele>
        <time>2021-07-07T15:41:41+0200</time>
      </trkpt>
      <trkpt lat="45.4303" lon="2.91361">
        <ele>1086.149449</ele>
        <time>2021-07-07T15:41:44+0200</time>
      </trkpt>
      <trkpt lat="45.43024" lon="2.91365">
        <ele>1086.857124</ele>
        <time>2021-07-07T15:41:47+0200</time>
      </trkpt>
      <trkpt lat="45.4302" lon="2.91371">
        <ele>1087.617935</ele>
        <time>2021-07-07T15:41:50+0200</time>
      </trkpt>
      <trkpt lat="45.43015" lon="2.91377">
        <ele>1087.906562</ele>
        <time>2021-07-07T15:41:53+0200</time>
      </trkpt>
      <trkpt lat="45.43012" lon="2.91384">
        <ele>1088.404186</ele>
        <time>2021-07-07T15:41:56+0200</time>
      </trkpt>
      <trkpt lat="45.4301" lon="2.91393">
        <ele>1089.316972</ele>
        <time>2021-07-07T15:41:59+0200</time>
      </trkpt>
      <trkpt lat="45.43006" lon="2.914">
        <ele>1090.19788</ele>
        <time>2021-07-07T15:42:02+0200</time>
      </trkpt>
      <trkpt lat="45.43002" lon="2.91407">
        <ele>1090.563968</ele>
        <time>2021-07-07T15:42:05+0200</time>
      </trkpt>
      <trkpt lat="45.42999" lon="2.91413">
        <ele>1091.515679</ele>
        <time>2021-07-07T15:42:08+0200</time>
      </trkpt>
      <trkpt lat="45.42993" lon="2.91416">
        <ele>1092.088928</ele>
        <time>2021-07-07T15:42:11+0200</time>
      </trkpt>
      <trkpt lat="45.42988" lon="2.91414">
        <ele>1092.694709</ele>
        <time>2021-07-07T15:42:13+0200</time>
      </trkpt>
      <trkpt lat="45.42982" lon="2.91414">
        <ele>1093.072838</ele>
        <time>2021-07-07T15:42:16+0200</time>
      </trkpt>
      <trkpt lat="45.42975" lon="2.91413">
        <ele>1094.052495</ele>
        <time>2021-07-07T15:42:19+0200</time>
      </trkpt>
      <trkpt lat="45.42969" lon="2.91411">
        <ele>1094.633571</ele>
        <time>2021-07-07T15:42:22+0200</time>
      </trkpt>
      <trkpt lat="45.42963" lon="2.91409">
        <ele>1095.729916</ele>
        <time>2021-07-07T15:42:25+0200</time>
      </trkpt>
      <trkpt lat="45.42958" lon="2.91405">
        <ele>1096.097202</ele>
        <time>2021-07-07T15:42:28+0200</time>
      </trkpt>
      <trkpt lat="45.42954" lon="2.914">
        <ele>1096.439542</ele>
        <time>2021-07-07T15:42:31+0200</time>
      </trkpt>
      <trkpt lat="45.4295" lon="2.91394">
        <ele>1097.304239</ele>
        <time>2021-07-07T15:42:34+0200</time>
      </trkpt>
      <trkpt lat="45.42947" lon="2.91388">
        <ele>1098.400216</ele>
        <time>2021-07-07T15:42:36+0200</time>
      </trkpt>
      <trkpt lat="45.42944" lon="2.91382">
        <ele>1099.362549</ele>
        <time>2021-07-07T15:42:39+0200</time>
      </trkpt>
      <trkpt lat="45.42942" lon="2.91373">
        <ele>1100.173726</ele>
        <time>2021-07-07T15:42:42+0200</time>
      </trkpt>
      <trkpt lat="45.42939" lon="2.91366">
        <ele>1101.151277</ele>
        <time>2021-07-07T15:42:45+0200</time>
      </trkpt>
      <trkpt lat="45.42936" lon="2.91361">
        <ele>1102.175576</ele>
        <time>2021-07-07T15:42:47+0200</time>
      </trkpt>
      <trkpt lat="45.42933" lon="2.91355">
        <ele>1102.932952</ele>
        <time>2021-07-07T15:42:49+0200</time>
      </trkpt>
      <trkpt lat="45.4293" lon="2.9135">
        <ele>1103.780689</ele>
        <time>2021-07-07T15:42:51+0200</time>
      </trkpt>
      <trkpt lat="45.42926" lon="2.91342">
        <ele>1104.595758</ele>
        <time>2021-07-07T15:42:54+0200</time>
      </trkpt>
      <trkpt lat="45.42921" lon="2.91338">
        <ele>1105.239325</ele>
        <time>2021-07-07T15:42:57+0200</time>
      </trkpt>
      <trkpt lat="45.42916" lon="2.91335">
        <ele>1105.351606</ele>
        <time>2021-07-07T15:43:00+0200</time>
      </trkpt>
      <trkpt lat="45.4291" lon="2.91332">
        <ele>1106.310828</ele>
        <time>2021-07-07T15:43:03+0200</time>
      </trkpt>
      <trkpt lat="45.42905" lon="2.91329">
        <ele>1106.619874</ele>
        <time>2021-07-07T15:43:06+0200</time>
      </trkpt>
      <trkpt lat="45.429" lon="2.91328">
        <ele>1107.23029</ele>
        <time>2021-07-07T15:43:08+0200</time>
      </trkpt>
      <trkpt lat="45.42894" lon="2.91327">
        <ele>1108.266935</ele>
        <time>2021-07-07T15:43:11+0200</time>
      </trkpt>
      <trkpt lat="45.42888" lon="2.91325">
        <ele>1109.134263</ele>
        <time>2021-07-07T15:43:14+0200</time>
      </trkpt>
      <trkpt lat="45.42882" lon="2.91325">
        <ele>1109.681551</ele>
        <time>2021-07-07T15:43:17+0200</time>
      </trkpt>
      <trkpt lat="45.42876" lon="2.91324">
        <ele>1110.837667</ele>
        <time>2021-07-07T15:43:20+0200</time>
      </trkpt>
      <trkpt lat="45.4287" lon="2.91324">
        <ele>1111.870567</ele>
        <time>2021-07-07T15:43:23+0200</time>
      </trkpt>
      <trkpt lat="45.42863" lon="2.91322">
        <ele>1112.602588</ele>
        <time>2021-07-07T15:43:26+0200</time>
      </trkpt>
      <trkpt lat="45.42859" lon="2.91321">
        <ele>1113.337333</ele>
        <time>2021-07-07T15:43:28+0200</time>
      </trkpt>
      <trkpt lat="45.42853" lon="2.9132">
        <ele>1114.418617</ele>
        <time>2021-07-07T15:43:31+0200</time>
      </trkpt>
      <trkpt lat="45.42848" lon="2.91321">
        <ele>1115.199424</ele>
        <time>2021-07-07T15:43:34+0200</time>
      </trkpt>
      <trkpt lat="45.42842" lon="2.91322">
        <ele>1115.984581</ele>
        <time>2021-07-07T15:43:37+0200</time>
      </trkpt>
      <trkpt lat="45.42836" lon="2.91324">
        <ele>1116.657943</ele>
        <time>2021-07-07T15:43:40+0200</time>
      </trkpt>
      <trkpt lat="45.42832" lon="2.91325">
        <ele>1117.409597</ele>
        <time>2021-07-07T15:43:42+0200</time>
      </trkpt>
      <trkpt lat="45.42826" lon="2.91326">
        <ele>1118.267066</ele>
        <time>2021-07-07T15:43:45+0200</time>
      </trkpt>
      <trkpt lat="45.4282" lon="2.91328">
        <ele>1119.52784</ele>
        <time>2021-07-07T15:43:48+0200</time>
      </trkpt>
      <trkpt lat="45.42815" lon="2.91332">
        <ele>1120.269826</ele>
        <time>2021-07-07T15:43:51+0200</time>
      </trkpt>
      <trkpt lat="45.42809" lon="2.91335">
        <ele>1120.951418</ele>
        <time>2021-07-07T15:43:54+0200</time>
      </trkpt>
      <trkpt lat="45.42805" lon="2.91339">
        <ele>1121.710885</ele>
        <time>2021-07-07T15:43:57+0200</time>
      </trkpt>
      <trkpt lat="45.42799" lon="2.91341">
        <ele>1122.357037</ele>
        <time>2021-07-07T15:44:00+0200</time>
      </trkpt>
      <trkpt lat="45.42794" lon="2.91345">
        <ele>1122.749774</ele>
        <time>2021-07-07T15:44:03+0200</time>
      </trkpt>
      <trkpt lat="45.42789" lon="2.91349">
        <ele>1123.040013</ele>
        <time>2021-07-07T15:44:06+0200</time>
      </trkpt>
      <trkpt lat="45.42783" lon="2.91351">
        <ele>1123.130898</ele>
        <time>2021-07-07T15:44:09+0200</time>
      </trkpt>
      <trkpt lat="45.42778" lon="2.91352">
        <ele>1123.44299</ele>
        <time>2021-07-07T15:44:12+0200</time>
      </trkpt>
      <trkpt lat="45.42773" lon="2.91352">
        <ele>1123.953881</ele>
        <time>2021-07-07T15:44:14+0200</time>
      </trkpt>
      <trkpt lat="45.42767" lon="2.91352">
        <ele>1125.097006</ele>
        <time>2021-07-07T15:44:17+0200</time>
      </trkpt>
      <trkpt lat="45.42761" lon="2.91353">
        <ele>1125.274705</ele>
        <time>2021-07-07T15:44:20+0200</time>
      </trkpt>
      <trkpt lat="45.42756" lon="2.91354">
        <ele>1125.283605</ele>
        <time>2021-07-07T15:44:22+0200</time>
      </trkpt>
      <trkpt lat="45.42752" lon="2.91358">
        <ele>1126.004523</ele>
        <time>2021-07-07T15:44:24+0200</time>
      </trkpt>
      <trkpt lat="45.42748" lon="2.91363">
        <ele>1126.320105</ele>
        <time>2021-07-07T15:44:26+0200</time>
      </trkpt>
      <trkpt lat="45.42745" lon="2.91369">
        <ele>1125.99062</ele>
        <time>2021-07-07T15:44:28+0200</time>
      </trkpt>
      <trkpt lat="45.42741" lon="2.91376">
        <ele>1125.592969</ele>
        <time>2021-07-07T15:44:30+0200</time>
      </trkpt>
      <trkpt lat="45.42738" lon="2.91384">
        <ele>1126.021513</ele>
        <time>2021-07-07T15:44:32+0200</time>
      </trkpt>
      <trkpt lat="45.42735" lon="2.91392">
        <ele>1126.190107</ele>
        <time>2021-07-07T15:44:34+0200</time>
      </trkpt>
      <trkpt lat="45.42732" lon="2.914">
        <ele>1126.389283</ele>
        <time>2021-07-07T15:44:36+0200</time>
      </trkpt>
      <trkpt lat="45.4273" lon="2.91408">
        <ele>1126.327084</ele>
        <time>2021-07-07T15:44:38+0200</time>
      </trkpt>
      <trkpt lat="45.42729" lon="2.91416">
        <ele>1126.56826</ele>
        <time>2021-07-07T15:44:40+0200</time>
      </trkpt>
      <trkpt lat="45.42728" lon="2.91425">
        <ele>1126.645412</ele>
        <time>2021-07-07T15:44:42+0200</time>
      </trkpt>
      <trkpt lat="45.42726" lon="2.91432">
        <ele>1127.65597</ele>
        <time>2021-07-07T15:44:44+0200</time>
      </trkpt>
      <trkpt lat="45.42725" lon="2.91441">
        <ele>1128.526788</ele>
        <time>2021-07-07T15:44:46+0200</time>
      </trkpt>
      <trkpt lat="45.42725" lon="2.91449">
        <ele>1129.897045</ele>
        <time>2021-07-07T15:44:48+0200</time>
      </trkpt>
      <trkpt lat="45.42725" lon="2.91457">
        <ele>1131.290183</ele>
        <time>2021-07-07T15:44:50+0200</time>
      </trkpt>
      <trkpt lat="45.42724" lon="2.91463">
        <ele>1132.706366</ele>
        <time>2021-07-07T15:44:52+0200</time>
      </trkpt>
      <trkpt lat="45.42724" lon="2.91472">
        <ele>1133.259153</ele>
        <time>2021-07-07T15:44:54+0200</time>
      </trkpt>
      <trkpt lat="45.42724" lon="2.91479">
        <ele>1133.812771</ele>
        <time>2021-07-07T15:44:56+0200</time>
      </trkpt>
      <trkpt lat="45.42725" lon="2.91487">
        <ele>1134.38256</ele>
        <time>2021-07-07T15:44:59+0200</time>
      </trkpt>
      <trkpt lat="45.42725" lon="2.91494">
        <ele>1135.16796</ele>
        <time>2021-07-07T15:45:01+0200</time>
      </trkpt>
      <trkpt lat="45.42724" lon="2.91503">
        <ele>1135.3921</ele>
        <time>2021-07-07T15:45:04+0200</time>
      </trkpt>
      <trkpt lat="45.42723" lon="2.91512">
        <ele>1136.103514</ele>
        <time>2021-07-07T15:45:07+0200</time>
      </trkpt>
      <trkpt lat="45.42722" lon="2.91521">
        <ele>1137.291922</ele>
        <time>2021-07-07T15:45:10+0200</time>
      </trkpt>
      <trkpt lat="45.42721" lon="2.91528">
        <ele>1137.781655</ele>
        <time>2021-07-07T15:45:12+0200</time>
      </trkpt>
      <trkpt lat="45.4272" lon="2.91534">
        <ele>1138.106673</ele>
        <time>2021-07-07T15:45:14+0200</time>
      </trkpt>
      <trkpt lat="45.42718" lon="2.91542">
        <ele>1138.976919</ele>
        <time>2021-07-07T15:45:17+0200</time>
      </trkpt>
      <trkpt lat="45.42716" lon="2.91548">
        <ele>1139.481896</ele>
        <time>2021-07-07T15:45:19+0200</time>
      </trkpt>
      <trkpt lat="45.42715" lon="2.91556">
        <ele>1140.178503</ele>
        <time>2021-07-07T15:45:22+0200</time>
      </trkpt>
      <trkpt lat="45.42713" lon="2.91564">
        <ele>1140.915535</ele>
        <time>2021-07-07T15:45:25+0200</time>
      </trkpt>
      <trkpt lat="45.4271" lon="2.91571">
        <ele>1141.795568</ele>
        <time>2021-07-07T15:45:28+0200</time>
      </trkpt>
      <trkpt lat="45.42706" lon="2.91578">
        <ele>1142.804275</ele>
        <time>2021-07-07T15:45:31+0200</time>
      </trkpt>
      <trkpt lat="45.42703" lon="2.91583">
        <ele>1143.841</ele>
        <time>2021-07-07T15:45:33+0200</time>
      </trkpt>
      <trkpt lat="45.42698" lon="2.91588">
        <ele>1145.160401</ele>
        <time>2021-07-07T15:45:36+0200</time>
      </trkpt>
      <trkpt lat="45.42693" lon="2.91592">
        <ele>1146.183707</ele>
        <time>2021-07-07T15:45:39+0200</time>
      </trkpt>
      <trkpt lat="45.42688" lon="2.91594">
        <ele>1146.993611</ele>
        <time>2021-07-07T15:45:42+0200</time>
      </trkpt>
      <trkpt lat="45.42682" lon="2.91594">
        <ele>1146.956099</ele>
        <time>2021-07-07T15:45:45+0200</time>
      </trkpt>
      <trkpt lat="45.42675" lon="2.91596">
        <ele>1147.404513</ele>
        <time>2021-07-07T15:45:48+0200</time>
      </trkpt>
      <trkpt lat="45.42671" lon="2.91597">
        <ele>1147.797968</ele>
        <time>2021-07-07T15:45:50+0200</time>
      </trkpt>
      <trkpt lat="45.42665" lon="2.91598">
        <ele>1148.48811</ele>
        <time>2021-07-07T15:45:53+0200</time>
      </trkpt>
      <trkpt lat="45.42659" lon="2.91596">
        <ele>1148.801617</ele>
        <time>2021-07-07T15:45:56+0200</time>
      </trkpt>
      <trkpt lat="45.42653" lon="2.91595">
        <ele>1149.419015</ele>
        <time>2021-07-07T15:45:59+0200</time>
      </trkpt>
      <trkpt lat="45.42647" lon="2.91594">
        <ele>1150.193988</ele>
        <time>2021-07-07T15:46:02+0200</time>
      </trkpt>
      <trkpt lat="45.42641" lon="2.91593">
        <ele>1150.869114</ele>
        <time>2021-07-07T15:46:05+0200</time>
      </trkpt>
      <trkpt lat="45.42634" lon="2.91591">
        <ele>1151.306996</ele>
        <time>2021-07-07T15:46:08+0200</time>
      </trkpt>
      <trkpt lat="45.42628" lon="2.91589">
        <ele>1151.801514</ele>
        <time>2021-07-07T15:46:11+0200</time>
      </trkpt>
      <trkpt lat="45.42622" lon="2.91588">
        <ele>1152.64408</ele>
        <time>2021-07-07T15:46:14+0200</time>
      </trkpt>
      <trkpt lat="45.42615" lon="2.91587">
        <ele>1153.221875</ele>
        <time>2021-07-07T15:46:17+0200</time>
      </trkpt>
      <trkpt lat="45.42609" lon="2.91585">
        <ele>1154.113969</ele>
        <time>2021-07-07T15:46:20+0200</time>
      </trkpt>
      <trkpt lat="45.42603" lon="2.91586">
        <ele>1154.841181</ele>
        <time>2021-07-07T15:46:23+0200</time>
      </trkpt>
      <trkpt lat="45.42597" lon="2.91583">
        <ele>1155.178262</ele>
        <time>2021-07-07T15:46:26+0200</time>
      </trkpt>
      <trkpt lat="45.42592" lon="2.91582">
        <ele>1155.808593</ele>
        <time>2021-07-07T15:46:29+0200</time>
      </trkpt>
      <trkpt lat="45.42585" lon="2.91581">
        <ele>1156.892856</ele>
        <time>2021-07-07T15:46:32+0200</time>
      </trkpt>
      <trkpt lat="45.42579" lon="2.91581">
        <ele>1157.568169</ele>
        <time>2021-07-07T15:46:35+0200</time>
      </trkpt>
      <trkpt lat="45.42573" lon="2.9158">
        <ele>1158.065427</ele>
        <time>2021-07-07T15:46:38+0200</time>
      </trkpt>
      <trkpt lat="45.42568" lon="2.91578">
        <ele>1158.47116</ele>
        <time>2021-07-07T15:46:40+0200</time>
      </trkpt>
      <trkpt lat="45.42563" lon="2.91578">
        <ele>1158.99126</ele>
        <time>2021-07-07T15:46:42+0200</time>
      </trkpt>
      <trkpt lat="45.42559" lon="2.91577">
        <ele>1159.051381</ele>
        <time>2021-07-07T15:46:44+0200</time>
      </trkpt>
      <trkpt lat="45.42553" lon="2.91576">
        <ele>1159.294744</ele>
        <time>2021-07-07T15:46:46+0200</time>
      </trkpt>
      <trkpt lat="45.42549" lon="2.91575">
        <ele>1159.70637</ele>
        <time>2021-07-07T15:46:48+0200</time>
      </trkpt>
      <trkpt lat="45.42543" lon="2.91575">
        <ele>1159.767844</ele>
        <time>2021-07-07T15:46:50+0200</time>
      </trkpt>
      <trkpt lat="45.42538" lon="2.91574">
        <ele>1160.016436</ele>
        <time>2021-07-07T15:46:52+0200</time>
      </trkpt>
      <trkpt lat="45.42532" lon="2.91573">
        <ele>1160.307487</ele>
        <time>2021-07-07T15:46:54+0200</time>
      </trkpt>
      <trkpt lat="45.42527" lon="2.91572">
        <ele>1160.875469</ele>
        <time>2021-07-07T15:46:56+0200</time>
      </trkpt>
      <trkpt lat="45.42521" lon="2.91572">
        <ele>1161.480234</ele>
        <time>2021-07-07T15:46:58+0200</time>
      </trkpt>
      <trkpt lat="45.42515" lon="2.91571">
        <ele>1162.019675</ele>
        <time>2021-07-07T15:47:00+0200</time>
      </trkpt>
      <trkpt lat="45.4251" lon="2.91571">
        <ele>1162.837364</ele>
        <time>2021-07-07T15:47:02+0200</time>
      </trkpt>
      <trkpt lat="45.42504" lon="2.91571">
        <ele>1162.968053</ele>
        <time>2021-07-07T15:47:04+0200</time>
      </trkpt>
      <trkpt lat="45.42499" lon="2.9157">
        <ele>1163.082512</ele>
        <time>2021-07-07T15:47:06+0200</time>
      </trkpt>
      <trkpt lat="45.42493" lon="2.91569">
        <ele>1163.08356</ele>
        <time>2021-07-07T15:47:08+0200</time>
      </trkpt>
      <trkpt lat="45.42487" lon="2.91568">
        <ele>1163.229512</ele>
        <time>2021-07-07T15:47:10+0200</time>
      </trkpt>
      <trkpt lat="45.42481" lon="2.91567">
        <ele>1163.604786</ele>
        <time>2021-07-07T15:47:12+0200</time>
      </trkpt>
      <trkpt lat="45.42476" lon="2.91567">
        <ele>1163.792166</ele>
        <time>2021-07-07T15:47:14+0200</time>
      </trkpt>
      <trkpt lat="45.4247" lon="2.91566">
        <ele>1163.593604</ele>
        <time>2021-07-07T15:47:16+0200</time>
      </trkpt>
      <trkpt lat="45.42465" lon="2.91565">
        <ele>1163.823244</ele>
        <time>2021-07-07T15:47:18+0200</time>
      </trkpt>
      <trkpt lat="45.42459" lon="2.91565">
        <ele>1163.891631</ele>
        <time>2021-07-07T15:47:20+0200</time>
      </trkpt>
      <trkpt lat="45.42454" lon="2.91562">
        <ele>1164.053535</ele>
        <time>2021-07-07T15:47:22+0200</time>
      </trkpt>
      <trkpt lat="45.42449" lon="2.91561">
        <ele>1164.470498</ele>
        <time>2021-07-07T15:47:24+0200</time>
      </trkpt>
      <trkpt lat="45.42444" lon="2.9156">
        <ele>1164.804259</ele>
        <time>2021-07-07T15:47:26+0200</time>
      </trkpt>
      <trkpt lat="45.42439" lon="2.9156">
        <ele>1165.143275</ele>
        <time>2021-07-07T15:47:28+0200</time>
      </trkpt>
      <trkpt lat="45.42434" lon="2.91561">
        <ele>1165.443214</ele>
        <time>2021-07-07T15:47:30+0200</time>
      </trkpt>
      <trkpt lat="45.42429" lon="2.91562">
        <ele>1165.930959</ele>
        <time>2021-07-07T15:47:32+0200</time>
      </trkpt>
      <trkpt lat="45.42424" lon="2.91561">
        <ele>1166.782152</ele>
        <time>2021-07-07T15:47:34+0200</time>
      </trkpt>
      <trkpt lat="45.42418" lon="2.91561">
        <ele>1168.257726</ele>
        <time>2021-07-07T15:47:37+0200</time>
      </trkpt>
      <trkpt lat="45.42412" lon="2.9156">
        <ele>1169.214031</ele>
        <time>2021-07-07T15:47:40+0200</time>
      </trkpt>
      <trkpt lat="45.42405" lon="2.91561">
        <ele>1168.945257</ele>
        <time>2021-07-07T15:47:43+0200</time>
      </trkpt>
      <trkpt lat="45.42398" lon="2.91562">
        <ele>1169.473221</ele>
        <time>2021-07-07T15:47:46+0200</time>
      </trkpt>
      <trkpt lat="45.42394" lon="2.91561">
        <ele>1169.621131</ele>
        <time>2021-07-07T15:47:48+0200</time>
      </trkpt>
      <trkpt lat="45.42388" lon="2.91563">
        <ele>1171.180548</ele>
        <time>2021-07-07T15:47:51+0200</time>
      </trkpt>
      <trkpt lat="45.42381" lon="2.91565">
        <ele>1170.948236</ele>
        <time>2021-07-07T15:47:54+0200</time>
      </trkpt>
      <trkpt lat="45.42374" lon="2.91566">
        <ele>1170.61969</ele>
        <time>2021-07-07T15:47:57+0200</time>
      </trkpt>
      <trkpt lat="45.4237" lon="2.91566">
        <ele>1171.999048</ele>
        <time>2021-07-07T15:48:00+0200</time>
      </trkpt>
      <trkpt lat="45.42364" lon="2.91565">
        <ele>1172.611846</ele>
        <time>2021-07-07T15:48:03+0200</time>
      </trkpt>
      <trkpt lat="45.42358" lon="2.91562">
        <ele>1173.477292</ele>
        <time>2021-07-07T15:48:06+0200</time>
      </trkpt>
      <trkpt lat="45.42353" lon="2.91562">
        <ele>1174.321602</ele>
        <time>2021-07-07T15:48:10+0200</time>
      </trkpt>
      <trkpt lat="45.42348" lon="2.91563">
        <ele>1175.549352</ele>
        <time>2021-07-07T15:48:13+0200</time>
      </trkpt>
      <trkpt lat="45.42345" lon="2.91569">
        <ele>1175.60448</ele>
        <time>2021-07-07T15:48:16+0200</time>
      </trkpt>
      <trkpt lat="45.4234" lon="2.91574">
        <ele>1176.319745</ele>
        <time>2021-07-07T15:48:19+0200</time>
      </trkpt>
      <trkpt lat="45.42336" lon="2.9158">
        <ele>1176.303636</ele>
        <time>2021-07-07T15:48:22+0200</time>
      </trkpt>
      <trkpt lat="45.42336" lon="2.91587">
        <ele>1176.131953</ele>
        <time>2021-07-07T15:48:25+0200</time>
      </trkpt>
      <trkpt lat="45.42339" lon="2.91592">
        <ele>1174.571605</ele>
        <time>2021-07-07T15:48:34+0200</time>
      </trkpt>
      <trkpt lat="45.42336" lon="2.91588">
        <ele>1174.196622</ele>
        <time>2021-07-07T15:48:50+0200</time>
      </trkpt>
      <trkpt lat="45.4234" lon="2.91586">
        <ele>1174.17527</ele>
        <time>2021-07-07T15:49:27+0200</time>
      </trkpt>
      <trkpt lat="45.42335" lon="2.91586">
        <ele>1174.389784</ele>
        <time>2021-07-07T15:49:58+0200</time>
      </trkpt>
      <trkpt lat="45.42339" lon="2.91589">
        <ele>1174.464624</ele>
        <time>2021-07-07T15:50:44+0200</time>
      </trkpt>
      <trkpt lat="45.42339" lon="2.91597">
        <ele>1176.206218</ele>
        <time>2021-07-07T15:52:26+0200</time>
      </trkpt>
      <trkpt lat="45.42341" lon="2.91606">
        <ele>1176.083025</ele>
        <time>2021-07-07T15:52:30+0200</time>
      </trkpt>
      <trkpt lat="45.42344" lon="2.91611">
        <ele>1175.541407</ele>
        <time>2021-07-07T15:52:32+0200</time>
      </trkpt>
      <trkpt lat="45.42346" lon="2.91618">
        <ele>1175.555008</ele>
        <time>2021-07-07T15:52:34+0200</time>
      </trkpt>
      <trkpt lat="45.4235" lon="2.91626">
        <ele>1175.346587</ele>
        <time>2021-07-07T15:52:36+0200</time>
      </trkpt>
      <trkpt lat="45.42355" lon="2.91632">
        <ele>1175.591803</ele>
        <time>2021-07-07T15:52:38+0200</time>
      </trkpt>
      <trkpt lat="45.42359" lon="2.9164">
        <ele>1174.997861</ele>
        <time>2021-07-07T15:52:40+0200</time>
      </trkpt>
      <trkpt lat="45.42362" lon="2.91645">
        <ele>1174.923682</ele>
        <time>2021-07-07T15:52:41+0200</time>
      </trkpt>
      <trkpt lat="45.42364" lon="2.91651">
        <ele>1175.354706</ele>
        <time>2021-07-07T15:52:42+0200</time>
      </trkpt>
      <trkpt lat="45.42367" lon="2.91657">
        <ele>1175.637963</ele>
        <time>2021-07-07T15:52:43+0200</time>
      </trkpt>
      <trkpt lat="45.42372" lon="2.91667">
        <ele>1175.973117</ele>
        <time>2021-07-07T15:52:45+0200</time>
      </trkpt>
      <trkpt lat="45.42377" lon="2.91676">
        <ele>1176.536189</ele>
        <time>2021-07-07T15:52:47+0200</time>
      </trkpt>
      <trkpt lat="45.42381" lon="2.91686">
        <ele>1177.250031</ele>
        <time>2021-07-07T15:52:49+0200</time>
      </trkpt>
      <trkpt lat="45.42387" lon="2.91692">
        <ele>1178.362248</ele>
        <time>2021-07-07T15:52:51+0200</time>
      </trkpt>
      <trkpt lat="45.4239" lon="2.91699">
        <ele>1178.658026</ele>
        <time>2021-07-07T15:52:53+0200</time>
      </trkpt>
      <trkpt lat="45.42395" lon="2.91707">
        <ele>1179.023138</ele>
        <time>2021-07-07T15:52:55+0200</time>
      </trkpt>
      <trkpt lat="45.42401" lon="2.91713">
        <ele>1178.95954</ele>
        <time>2021-07-07T15:52:57+0200</time>
      </trkpt>
      <trkpt lat="45.42407" lon="2.91719">
        <ele>1178.704371</ele>
        <time>2021-07-07T15:52:59+0200</time>
      </trkpt>
      <trkpt lat="45.42414" lon="2.91727">
        <ele>1179.077171</ele>
        <time>2021-07-07T15:53:01+0200</time>
      </trkpt>
      <trkpt lat="45.4242" lon="2.91735">
        <ele>1178.833429</ele>
        <time>2021-07-07T15:53:03+0200</time>
      </trkpt>
      <trkpt lat="45.42425" lon="2.91744">
        <ele>1179.156108</ele>
        <time>2021-07-07T15:53:05+0200</time>
      </trkpt>
      <trkpt lat="45.42429" lon="2.91754">
        <ele>1179.264674</ele>
        <time>2021-07-07T15:53:07+0200</time>
      </trkpt>
      <trkpt lat="45.42434" lon="2.91762">
        <ele>1179.311006</ele>
        <time>2021-07-07T15:53:09+0200</time>
      </trkpt>
      <trkpt lat="45.42439" lon="2.9177">
        <ele>1179.210334</ele>
        <time>2021-07-07T15:53:11+0200</time>
      </trkpt>
      <trkpt lat="45.42445" lon="2.91778">
        <ele>1178.963504</ele>
        <time>2021-07-07T15:53:13+0200</time>
      </trkpt>
      <trkpt lat="45.42451" lon="2.91787">
        <ele>1178.450645</ele>
        <time>2021-07-07T15:53:15+0200</time>
      </trkpt>
      <trkpt lat="45.42454" lon="2.91792">
        <ele>1178.237035</ele>
        <time>2021-07-07T15:53:16+0200</time>
      </trkpt>
      <trkpt lat="45.42457" lon="2.91797">
        <ele>1178.080982</ele>
        <time>2021-07-07T15:53:17+0200</time>
      </trkpt>
      <trkpt lat="45.4246" lon="2.91802">
        <ele>1178.12387</ele>
        <time>2021-07-07T15:53:18+0200</time>
      </trkpt>
      <trkpt lat="45.42462" lon="2.91808">
        <ele>1178.109325</ele>
        <time>2021-07-07T15:53:19+0200</time>
      </trkpt>
      <trkpt lat="45.42465" lon="2.91814">
        <ele>1178.156371</ele>
        <time>2021-07-07T15:53:20+0200</time>
      </trkpt>
      <trkpt lat="45.42468" lon="2.9182">
        <ele>1178.049975</ele>
        <time>2021-07-07T15:53:21+0200</time>
      </trkpt>
      <trkpt lat="45.42471" lon="2.91826">
        <ele>1178.025202</ele>
        <time>2021-07-07T15:53:22+0200</time>
      </trkpt>
      <trkpt lat="45.42473" lon="2.91832">
        <ele>1177.869884</ele>
        <time>2021-07-07T15:53:23+0200</time>
      </trkpt>
      <trkpt lat="45.42476" lon="2.91839">
        <ele>1177.709021</ele>
        <time>2021-07-07T15:53:24+0200</time>
      </trkpt>
      <trkpt lat="45.42479" lon="2.91845">
        <ele>1177.837195</ele>
        <time>2021-07-07T15:53:25+0200</time>
      </trkpt>
      <trkpt lat="45.42483" lon="2.91851">
        <ele>1177.411629</ele>
        <time>2021-07-07T15:53:26+0200</time>
      </trkpt>
      <trkpt lat="45.42485" lon="2.91858">
        <ele>1177.30646</ele>
        <time>2021-07-07T15:53:27+0200</time>
      </trkpt>
      <trkpt lat="45.42488" lon="2.91865">
        <ele>1177.185961</ele>
        <time>2021-07-07T15:53:28+0200</time>
      </trkpt>
      <trkpt lat="45.42491" lon="2.91872">
        <ele>1176.926963</ele>
        <time>2021-07-07T15:53:29+0200</time>
      </trkpt>
      <trkpt lat="45.42494" lon="2.91879">
        <ele>1176.858027</ele>
        <time>2021-07-07T15:53:30+0200</time>
      </trkpt>
      <trkpt lat="45.42497" lon="2.91886">
        <ele>1176.823125</ele>
        <time>2021-07-07T15:53:31+0200</time>
      </trkpt>
      <trkpt lat="45.425" lon="2.91894">
        <ele>1176.598168</ele>
        <time>2021-07-07T15:53:32+0200</time>
      </trkpt>
      <trkpt lat="45.42504" lon="2.91901">
        <ele>1176.295895</ele>
        <time>2021-07-07T15:53:33+0200</time>
      </trkpt>
      <trkpt lat="45.42507" lon="2.91908">
        <ele>1176.196759</ele>
        <time>2021-07-07T15:53:34+0200</time>
      </trkpt>
      <trkpt lat="45.4251" lon="2.91916">
        <ele>1176.220321</ele>
        <time>2021-07-07T15:53:35+0200</time>
      </trkpt>
      <trkpt lat="45.42513" lon="2.91924">
        <ele>1176.093755</ele>
        <time>2021-07-07T15:53:36+0200</time>
      </trkpt>
      <trkpt lat="45.42516" lon="2.91932">
        <ele>1175.9663</ele>
        <time>2021-07-07T15:53:37+0200</time>
      </trkpt>
      <trkpt lat="45.42519" lon="2.91939">
        <ele>1175.802044</ele>
        <time>2021-07-07T15:53:38+0200</time>
      </trkpt>
      <trkpt lat="45.42522" lon="2.91946">
        <ele>1175.595672</ele>
        <time>2021-07-07T15:53:39+0200</time>
      </trkpt>
      <trkpt lat="45.42525" lon="2.91954">
        <ele>1175.606304</ele>
        <time>2021-07-07T15:53:40+0200</time>
      </trkpt>
      <trkpt lat="45.42527" lon="2.91962">
        <ele>1175.219867</ele>
        <time>2021-07-07T15:53:41+0200</time>
      </trkpt>
      <trkpt lat="45.4253" lon="2.91969">
        <ele>1174.976938</ele>
        <time>2021-07-07T15:53:42+0200</time>
      </trkpt>
      <trkpt lat="45.42533" lon="2.91977">
        <ele>1174.915019</ele>
        <time>2021-07-07T15:53:43+0200</time>
      </trkpt>
      <trkpt lat="45.42536" lon="2.91985">
        <ele>1174.955318</ele>
        <time>2021-07-07T15:53:44+0200</time>
      </trkpt>
      <trkpt lat="45.42539" lon="2.91993">
        <ele>1174.77852</ele>
        <time>2021-07-07T15:53:45+0200</time>
      </trkpt>
      <trkpt lat="45.42541" lon="2.92001">
        <ele>1174.545762</ele>
        <time>2021-07-07T15:53:46+0200</time>
      </trkpt>
      <trkpt lat="45.42544" lon="2.9201">
        <ele>1174.310998</ele>
        <time>2021-07-07T15:53:47+0200</time>
      </trkpt>
      <trkpt lat="45.42547" lon="2.92019">
        <ele>1173.975574</ele>
        <time>2021-07-07T15:53:48+0200</time>
      </trkpt>
      <trkpt lat="45.42549" lon="2.92029">
        <ele>1173.867501</ele>
        <time>2021-07-07T15:53:49+0200</time>
      </trkpt>
      <trkpt lat="45.42552" lon="2.92037">
        <ele>1173.51841</ele>
        <time>2021-07-07T15:53:50+0200</time>
      </trkpt>
      <trkpt lat="45.42555" lon="2.92046">
        <ele>1173.210086</ele>
        <time>2021-07-07T15:53:51+0200</time>
      </trkpt>
      <trkpt lat="45.42559" lon="2.92055">
        <ele>1172.81737</ele>
        <time>2021-07-07T15:53:52+0200</time>
      </trkpt>
      <trkpt lat="45.42562" lon="2.92065">
        <ele>1172.332049</ele>
        <time>2021-07-07T15:53:53+0200</time>
      </trkpt>
      <trkpt lat="45.42564" lon="2.92074">
        <ele>1172.145939</ele>
        <time>2021-07-07T15:53:54+0200</time>
      </trkpt>
      <trkpt lat="45.42567" lon="2.92085">
        <ele>1171.649948</ele>
        <time>2021-07-07T15:53:55+0200</time>
      </trkpt>
      <trkpt lat="45.4257" lon="2.92094">
        <ele>1171.4212</ele>
        <time>2021-07-07T15:53:56+0200</time>
      </trkpt>
      <trkpt lat="45.42573" lon="2.92104">
        <ele>1171.154614</ele>
        <time>2021-07-07T15:53:57+0200</time>
      </trkpt>
      <trkpt lat="45.42576" lon="2.92113">
        <ele>1170.97741</ele>
        <time>2021-07-07T15:53:58+0200</time>
      </trkpt>
      <trkpt lat="45.42579" lon="2.92123">
        <ele>1170.793425</ele>
        <time>2021-07-07T15:53:59+0200</time>
      </trkpt>
      <trkpt lat="45.42582" lon="2.92133">
        <ele>1170.348923</ele>
        <time>2021-07-07T15:54:00+0200</time>
      </trkpt>
      <trkpt lat="45.42586" lon="2.92144">
        <ele>1170.158303</ele>
        <time>2021-07-07T15:54:01+0200</time>
      </trkpt>
      <trkpt lat="45.42589" lon="2.92154">
        <ele>1169.928558</ele>
        <time>2021-07-07T15:54:02+0200</time>
      </trkpt>
      <trkpt lat="45.42592" lon="2.92164">
        <ele>1169.662566</ele>
        <time>2021-07-07T15:54:03+0200</time>
      </trkpt>
      <trkpt lat="45.42595" lon="2.92174">
        <ele>1169.471478</ele>
        <time>2021-07-07T15:54:04+0200</time>
      </trkpt>
      <trkpt lat="45.42599" lon="2.92185">
        <ele>1169.160117</ele>
        <time>2021-07-07T15:54:05+0200</time>
      </trkpt>
      <trkpt lat="45.42602" lon="2.92195">
        <ele>1168.965036</ele>
        <time>2021-07-07T15:54:06+0200</time>
      </trkpt>
      <trkpt lat="45.42606" lon="2.92206">
        <ele>1168.60007</ele>
        <time>2021-07-07T15:54:07+0200</time>
      </trkpt>
      <trkpt lat="45.42609" lon="2.92217">
        <ele>1168.203042</ele>
        <time>2021-07-07T15:54:08+0200</time>
      </trkpt>
      <trkpt lat="45.42613" lon="2.92227">
        <ele>1168.090215</ele>
        <time>2021-07-07T15:54:09+0200</time>
      </trkpt>
      <trkpt lat="45.42616" lon="2.92239">
        <ele>1167.829357</ele>
        <time>2021-07-07T15:54:10+0200</time>
      </trkpt>
      <trkpt lat="45.42619" lon="2.9225">
        <ele>1167.671332</ele>
        <time>2021-07-07T15:54:11+0200</time>
      </trkpt>
      <trkpt lat="45.42623" lon="2.92262">
        <ele>1167.250136</ele>
        <time>2021-07-07T15:54:12+0200</time>
      </trkpt>
      <trkpt lat="45.42627" lon="2.92273">
        <ele>1166.957056</ele>
        <time>2021-07-07T15:54:13+0200</time>
      </trkpt>
      <trkpt lat="45.42631" lon="2.92283">
        <ele>1166.701201</ele>
        <time>2021-07-07T15:54:14+0200</time>
      </trkpt>
      <trkpt lat="45.42635" lon="2.92295">
        <ele>1166.324283</ele>
        <time>2021-07-07T15:54:15+0200</time>
      </trkpt>
      <trkpt lat="45.42639" lon="2.92306">
        <ele>1166.048264</ele>
        <time>2021-07-07T15:54:16+0200</time>
      </trkpt>
      <trkpt lat="45.42642" lon="2.92317">
        <ele>1166.087555</ele>
        <time>2021-07-07T15:54:17+0200</time>
      </trkpt>
      <trkpt lat="45.42646" lon="2.92328">
        <ele>1165.830286</ele>
        <time>2021-07-07T15:54:18+0200</time>
      </trkpt>
      <trkpt lat="45.42648" lon="2.9234">
        <ele>1166.001792</ele>
        <time>2021-07-07T15:54:19+0200</time>
      </trkpt>
      <trkpt lat="45.42651" lon="2.92351">
        <ele>1166.053291</ele>
        <time>2021-07-07T15:54:20+0200</time>
      </trkpt>
      <trkpt lat="45.42653" lon="2.92361">
        <ele>1166.251941</ele>
        <time>2021-07-07T15:54:21+0200</time>
      </trkpt>
      <trkpt lat="45.42656" lon="2.92371">
        <ele>1166.315756</ele>
        <time>2021-07-07T15:54:22+0200</time>
      </trkpt>
      <trkpt lat="45.42658" lon="2.92381">
        <ele>1166.453184</ele>
        <time>2021-07-07T15:54:23+0200</time>
      </trkpt>
      <trkpt lat="45.42661" lon="2.92392">
        <ele>1166.417654</ele>
        <time>2021-07-07T15:54:24+0200</time>
      </trkpt>
      <trkpt lat="45.42661" lon="2.92403">
        <ele>1166.682152</ele>
        <time>2021-07-07T15:54:25+0200</time>
      </trkpt>
      <trkpt lat="45.42661" lon="2.92412">
        <ele>1166.893009</ele>
        <time>2021-07-07T15:54:26+0200</time>
      </trkpt>
      <trkpt lat="45.4266" lon="2.92422">
        <ele>1167.111565</ele>
        <time>2021-07-07T15:54:27+0200</time>
      </trkpt>
      <trkpt lat="45.4266" lon="2.92432">
        <ele>1167.123375</ele>
        <time>2021-07-07T15:54:28+0200</time>
      </trkpt>
      <trkpt lat="45.42659" lon="2.92441">
        <ele>1167.020541</ele>
        <time>2021-07-07T15:54:29+0200</time>
      </trkpt>
      <trkpt lat="45.42658" lon="2.92451">
        <ele>1167.36924</ele>
        <time>2021-07-07T15:54:30+0200</time>
      </trkpt>
      <trkpt lat="45.42656" lon="2.92461">
        <ele>1167.71962</ele>
        <time>2021-07-07T15:54:31+0200</time>
      </trkpt>
      <trkpt lat="45.42656" lon="2.9247">
        <ele>1167.997016</ele>
        <time>2021-07-07T15:54:32+0200</time>
      </trkpt>
      <trkpt lat="45.42657" lon="2.92479">
        <ele>1168.204422</ele>
        <time>2021-07-07T15:54:33+0200</time>
      </trkpt>
      <trkpt lat="45.42657" lon="2.92488">
        <ele>1168.216207</ele>
        <time>2021-07-07T15:54:34+0200</time>
      </trkpt>
      <trkpt lat="45.42658" lon="2.92497">
        <ele>1168.359622</ele>
        <time>2021-07-07T15:54:35+0200</time>
      </trkpt>
      <trkpt lat="45.42659" lon="2.92505">
        <ele>1168.652794</ele>
        <time>2021-07-07T15:54:36+0200</time>
      </trkpt>
      <trkpt lat="45.4266" lon="2.92513">
        <ele>1168.718964</ele>
        <time>2021-07-07T15:54:37+0200</time>
      </trkpt>
      <trkpt lat="45.42661" lon="2.92521">
        <ele>1168.822423</ele>
        <time>2021-07-07T15:54:38+0200</time>
      </trkpt>
      <trkpt lat="45.42663" lon="2.92528">
        <ele>1169.050117</ele>
        <time>2021-07-07T15:54:39+0200</time>
      </trkpt>
      <trkpt lat="45.42663" lon="2.92536">
        <ele>1169.422448</ele>
        <time>2021-07-07T15:54:40+0200</time>
      </trkpt>
      <trkpt lat="45.42664" lon="2.92543">
        <ele>1169.552271</ele>
        <time>2021-07-07T15:54:41+0200</time>
      </trkpt>
      <trkpt lat="45.42665" lon="2.9255">
        <ele>1169.539354</ele>
        <time>2021-07-07T15:54:42+0200</time>
      </trkpt>
      <trkpt lat="45.42667" lon="2.92557">
        <ele>1169.746023</ele>
        <time>2021-07-07T15:54:43+0200</time>
      </trkpt>
      <trkpt lat="45.42668" lon="2.92564">
        <ele>1169.993758</ele>
        <time>2021-07-07T15:54:44+0200</time>
      </trkpt>
      <trkpt lat="45.42669" lon="2.92571">
        <ele>1169.923384</ele>
        <time>2021-07-07T15:54:45+0200</time>
      </trkpt>
      <trkpt lat="45.4267" lon="2.92577">
        <ele>1170.140868</ele>
        <time>2021-07-07T15:54:46+0200</time>
      </trkpt>
      <trkpt lat="45.42672" lon="2.92589">
        <ele>1170.569181</ele>
        <time>2021-07-07T15:54:48+0200</time>
      </trkpt>
      <trkpt lat="45.42673" lon="2.92599">
        <ele>1171.244642</ele>
        <time>2021-07-07T15:54:50+0200</time>
      </trkpt>
      <trkpt lat="45.42674" lon="2.9261">
        <ele>1171.552655</ele>
        <time>2021-07-07T15:54:52+0200</time>
      </trkpt>
      <trkpt lat="45.42675" lon="2.92621">
        <ele>1171.824534</ele>
        <time>2021-07-07T15:54:54+0200</time>
      </trkpt>
      <trkpt lat="45.42676" lon="2.92633">
        <ele>1171.757671</ele>
        <time>2021-07-07T15:54:56+0200</time>
      </trkpt>
      <trkpt lat="45.42676" lon="2.92646">
        <ele>1171.986678</ele>
        <time>2021-07-07T15:54:58+0200</time>
      </trkpt>
      <trkpt lat="45.42677" lon="2.92653">
        <ele>1172.130993</ele>
        <time>2021-07-07T15:54:59+0200</time>
      </trkpt>
      <trkpt lat="45.42677" lon="2.9266">
        <ele>1172.21612</ele>
        <time>2021-07-07T15:55:00+0200</time>
      </trkpt>
      <trkpt lat="45.42678" lon="2.92667">
        <ele>1172.437273</ele>
        <time>2021-07-07T15:55:01+0200</time>
      </trkpt>
      <trkpt lat="45.42679" lon="2.92674">
        <ele>1172.512318</ele>
        <time>2021-07-07T15:55:02+0200</time>
      </trkpt>
      <trkpt lat="45.42679" lon="2.92681">
        <ele>1172.636776</ele>
        <time>2021-07-07T15:55:03+0200</time>
      </trkpt>
      <trkpt lat="45.4268" lon="2.92689">
        <ele>1172.688536</ele>
        <time>2021-07-07T15:55:04+0200</time>
      </trkpt>
      <trkpt lat="45.4268" lon="2.92696">
        <ele>1172.836908</ele>
        <time>2021-07-07T15:55:05+0200</time>
      </trkpt>
      <trkpt lat="45.42681" lon="2.92703">
        <ele>1172.647827</ele>
        <time>2021-07-07T15:55:06+0200</time>
      </trkpt>
      <trkpt lat="45.42682" lon="2.92711">
        <ele>1172.602402</ele>
        <time>2021-07-07T15:55:07+0200</time>
      </trkpt>
      <trkpt lat="45.42683" lon="2.92719">
        <ele>1172.477559</ele>
        <time>2021-07-07T15:55:08+0200</time>
      </trkpt>
      <trkpt lat="45.42684" lon="2.92726">
        <ele>1172.451838</ele>
        <time>2021-07-07T15:55:09+0200</time>
      </trkpt>
      <trkpt lat="45.42684" lon="2.92734">
        <ele>1172.55302</ele>
        <time>2021-07-07T15:55:10+0200</time>
      </trkpt>
      <trkpt lat="45.42685" lon="2.92742">
        <ele>1172.411594</ele>
        <time>2021-07-07T15:55:11+0200</time>
      </trkpt>
      <trkpt lat="45.42685" lon="2.92751">
        <ele>1172.310286</ele>
        <time>2021-07-07T15:55:12+0200</time>
      </trkpt>
      <trkpt lat="45.42686" lon="2.92759">
        <ele>1172.136476</ele>
        <time>2021-07-07T15:55:13+0200</time>
      </trkpt>
      <trkpt lat="45.42686" lon="2.92766">
        <ele>1172.24739</ele>
        <time>2021-07-07T15:55:14+0200</time>
      </trkpt>
      <trkpt lat="45.42687" lon="2.92774">
        <ele>1172.108795</ele>
        <time>2021-07-07T15:55:15+0200</time>
      </trkpt>
      <trkpt lat="45.42688" lon="2.92782">
        <ele>1172.097713</ele>
        <time>2021-07-07T15:55:16+0200</time>
      </trkpt>
      <trkpt lat="45.42689" lon="2.92791">
        <ele>1172.162492</ele>
        <time>2021-07-07T15:55:17+0200</time>
      </trkpt>
      <trkpt lat="45.42689" lon="2.92799">
        <ele>1172.093047</ele>
        <time>2021-07-07T15:55:18+0200</time>
      </trkpt>
      <trkpt lat="45.4269" lon="2.92807">
        <ele>1172.054218</ele>
        <time>2021-07-07T15:55:19+0200</time>
      </trkpt>
      <trkpt lat="45.4269" lon="2.92815">
        <ele>1172.165169</ele>
        <time>2021-07-07T15:55:20+0200</time>
      </trkpt>
      <trkpt lat="45.42691" lon="2.92823">
        <ele>1172.193288</ele>
        <time>2021-07-07T15:55:21+0200</time>
      </trkpt>
      <trkpt lat="45.42692" lon="2.9283">
        <ele>1172.415639</ele>
        <time>2021-07-07T15:55:22+0200</time>
      </trkpt>
      <trkpt lat="45.42693" lon="2.92838">
        <ele>1172.445439</ele>
        <time>2021-07-07T15:55:23+0200</time>
      </trkpt>
      <trkpt lat="45.42695" lon="2.92845">
        <ele>1172.581593</ele>
        <time>2021-07-07T15:55:24+0200</time>
      </trkpt>
      <trkpt lat="45.42696" lon="2.92852">
        <ele>1172.808919</ele>
        <time>2021-07-07T15:55:25+0200</time>
      </trkpt>
      <trkpt lat="45.42697" lon="2.92859">
        <ele>1173.087742</ele>
        <time>2021-07-07T15:55:26+0200</time>
      </trkpt>
      <trkpt lat="45.42698" lon="2.92867">
        <ele>1173.231307</ele>
        <time>2021-07-07T15:55:27+0200</time>
      </trkpt>
      <trkpt lat="45.42699" lon="2.92876">
        <ele>1173.37586</ele>
        <time>2021-07-07T15:55:28+0200</time>
      </trkpt>
      <trkpt lat="45.427" lon="2.92883">
        <ele>1173.274609</ele>
        <time>2021-07-07T15:55:29+0200</time>
      </trkpt>
      <trkpt lat="45.427" lon="2.92891">
        <ele>1173.312083</ele>
        <time>2021-07-07T15:55:30+0200</time>
      </trkpt>
      <trkpt lat="45.42701" lon="2.92897">
        <ele>1173.364003</ele>
        <time>2021-07-07T15:55:31+0200</time>
      </trkpt>
      <trkpt lat="45.42702" lon="2.92904">
        <ele>1173.159298</ele>
        <time>2021-07-07T15:55:32+0200</time>
      </trkpt>
      <trkpt lat="45.42703" lon="2.92911">
        <ele>1173.269804</ele>
        <time>2021-07-07T15:55:33+0200</time>
      </trkpt>
      <trkpt lat="45.42704" lon="2.92917">
        <ele>1173.233217</ele>
        <time>2021-07-07T15:55:34+0200</time>
      </trkpt>
      <trkpt lat="45.42705" lon="2.92925">
        <ele>1173.366072</ele>
        <time>2021-07-07T15:55:35+0200</time>
      </trkpt>
      <trkpt lat="45.42706" lon="2.92932">
        <ele>1173.407954</ele>
        <time>2021-07-07T15:55:36+0200</time>
      </trkpt>
      <trkpt lat="45.42707" lon="2.92939">
        <ele>1173.283976</ele>
        <time>2021-07-07T15:55:37+0200</time>
      </trkpt>
      <trkpt lat="45.42707" lon="2.92946">
        <ele>1173.568257</ele>
        <time>2021-07-07T15:55:38+0200</time>
      </trkpt>
      <trkpt lat="45.42708" lon="2.92954">
        <ele>1173.296378</ele>
        <time>2021-07-07T15:55:39+0200</time>
      </trkpt>
      <trkpt lat="45.42709" lon="2.92961">
        <ele>1172.984663</ele>
        <time>2021-07-07T15:55:40+0200</time>
      </trkpt>
      <trkpt lat="45.42709" lon="2.92969">
        <ele>1172.920602</ele>
        <time>2021-07-07T15:55:41+0200</time>
      </trkpt>
      <trkpt lat="45.42709" lon="2.92976">
        <ele>1172.882237</ele>
        <time>2021-07-07T15:55:42+0200</time>
      </trkpt>
      <trkpt lat="45.4271" lon="2.92984">
        <ele>1172.805546</ele>
        <time>2021-07-07T15:55:43+0200</time>
      </trkpt>
      <trkpt lat="45.4271" lon="2.92992">
        <ele>1172.820475</ele>
        <time>2021-07-07T15:55:44+0200</time>
      </trkpt>
      <trkpt lat="45.4271" lon="2.93001">
        <ele>1172.809695</ele>
        <time>2021-07-07T15:55:45+0200</time>
      </trkpt>
      <trkpt lat="45.4271" lon="2.93009">
        <ele>1172.751168</ele>
        <time>2021-07-07T15:55:46+0200</time>
      </trkpt>
      <trkpt lat="45.4271" lon="2.93017">
        <ele>1172.763862</ele>
        <time>2021-07-07T15:55:47+0200</time>
      </trkpt>
      <trkpt lat="45.4271" lon="2.93025">
        <ele>1172.812749</ele>
        <time>2021-07-07T15:55:48+0200</time>
      </trkpt>
      <trkpt lat="45.4271" lon="2.93034">
        <ele>1172.781119</ele>
        <time>2021-07-07T15:55:49+0200</time>
      </trkpt>
      <trkpt lat="45.4271" lon="2.93043">
        <ele>1172.790689</ele>
        <time>2021-07-07T15:55:50+0200</time>
      </trkpt>
      <trkpt lat="45.4271" lon="2.93051">
        <ele>1172.738948</ele>
        <time>2021-07-07T15:55:51+0200</time>
      </trkpt>
      <trkpt lat="45.4271" lon="2.9306">
        <ele>1172.695624</ele>
        <time>2021-07-07T15:55:52+0200</time>
      </trkpt>
      <trkpt lat="45.42711" lon="2.93069">
        <ele>1172.56403</ele>
        <time>2021-07-07T15:55:53+0200</time>
      </trkpt>
      <trkpt lat="45.42711" lon="2.93077">
        <ele>1172.5526</ele>
        <time>2021-07-07T15:55:54+0200</time>
      </trkpt>
      <trkpt lat="45.42713" lon="2.93085">
        <ele>1172.458331</ele>
        <time>2021-07-07T15:55:55+0200</time>
      </trkpt>
      <trkpt lat="45.42715" lon="2.93094">
        <ele>1172.73904</ele>
        <time>2021-07-07T15:55:56+0200</time>
      </trkpt>
      <trkpt lat="45.42717" lon="2.93103">
        <ele>1172.940577</ele>
        <time>2021-07-07T15:55:57+0200</time>
      </trkpt>
      <trkpt lat="45.42718" lon="2.93112">
        <ele>1172.970624</ele>
        <time>2021-07-07T15:55:58+0200</time>
      </trkpt>
      <trkpt lat="45.42721" lon="2.93119">
        <ele>1173.001076</ele>
        <time>2021-07-07T15:55:59+0200</time>
      </trkpt>
      <trkpt lat="45.42723" lon="2.93127">
        <ele>1173.399767</ele>
        <time>2021-07-07T15:56:00+0200</time>
      </trkpt>
      <trkpt lat="45.42726" lon="2.93136">
        <ele>1173.406657</ele>
        <time>2021-07-07T15:56:01+0200</time>
      </trkpt>
      <trkpt lat="45.42728" lon="2.93143">
        <ele>1173.448285</ele>
        <time>2021-07-07T15:56:02+0200</time>
      </trkpt>
      <trkpt lat="45.4273" lon="2.93152">
        <ele>1173.170248</ele>
        <time>2021-07-07T15:56:03+0200</time>
      </trkpt>
      <trkpt lat="45.42732" lon="2.9316">
        <ele>1173.316756</ele>
        <time>2021-07-07T15:56:04+0200</time>
      </trkpt>
      <trkpt lat="45.42734" lon="2.93168">
        <ele>1173.26747</ele>
        <time>2021-07-07T15:56:05+0200</time>
      </trkpt>
      <trkpt lat="45.42736" lon="2.93176">
        <ele>1173.39539</ele>
        <time>2021-07-07T15:56:06+0200</time>
      </trkpt>
      <trkpt lat="45.42738" lon="2.93183">
        <ele>1173.463908</ele>
        <time>2021-07-07T15:56:07+0200</time>
      </trkpt>
      <trkpt lat="45.4274" lon="2.93191">
        <ele>1173.50688</ele>
        <time>2021-07-07T15:56:08+0200</time>
      </trkpt>
      <trkpt lat="45.42741" lon="2.93199">
        <ele>1173.599479</ele>
        <time>2021-07-07T15:56:09+0200</time>
      </trkpt>
      <trkpt lat="45.42743" lon="2.93207">
        <ele>1173.76207</ele>
        <time>2021-07-07T15:56:10+0200</time>
      </trkpt>
      <trkpt lat="45.42745" lon="2.93215">
        <ele>1173.961327</ele>
        <time>2021-07-07T15:56:11+0200</time>
      </trkpt>
      <trkpt lat="45.42747" lon="2.93222">
        <ele>1174.262298</ele>
        <time>2021-07-07T15:56:12+0200</time>
      </trkpt>
      <trkpt lat="45.42749" lon="2.93228">
        <ele>1174.346961</ele>
        <time>2021-07-07T15:56:13+0200</time>
      </trkpt>
      <trkpt lat="45.42751" lon="2.93234">
        <ele>1174.607128</ele>
        <time>2021-07-07T15:56:14+0200</time>
      </trkpt>
      <trkpt lat="45.42753" lon="2.9324">
        <ele>1174.908061</ele>
        <time>2021-07-07T15:56:15+0200</time>
      </trkpt>
      <trkpt lat="45.42754" lon="2.93246">
        <ele>1174.770512</ele>
        <time>2021-07-07T15:56:16+0200</time>
      </trkpt>
      <trkpt lat="45.42756" lon="2.93253">
        <ele>1175.12902</ele>
        <time>2021-07-07T15:56:17+0200</time>
      </trkpt>
      <trkpt lat="45.42758" lon="2.93259">
        <ele>1175.489214</ele>
        <time>2021-07-07T15:56:18+0200</time>
      </trkpt>
      <trkpt lat="45.42761" lon="2.93271">
        <ele>1175.288824</ele>
        <time>2021-07-07T15:56:20+0200</time>
      </trkpt>
      <trkpt lat="45.42765" lon="2.93282">
        <ele>1174.972575</ele>
        <time>2021-07-07T15:56:22+0200</time>
      </trkpt>
      <trkpt lat="45.42768" lon="2.93291">
        <ele>1174.518974</ele>
        <time>2021-07-07T15:56:24+0200</time>
      </trkpt>
      <trkpt lat="45.4277" lon="2.93301">
        <ele>1174.558511</ele>
        <time>2021-07-07T15:56:26+0200</time>
      </trkpt>
      <trkpt lat="45.42773" lon="2.93311">
        <ele>1174.554075</ele>
        <time>2021-07-07T15:56:28+0200</time>
      </trkpt>
      <trkpt lat="45.42776" lon="2.9332">
        <ele>1174.874634</ele>
        <time>2021-07-07T15:56:30+0200</time>
      </trkpt>
      <trkpt lat="45.42778" lon="2.93331">
        <ele>1174.273985</ele>
        <time>2021-07-07T15:56:32+0200</time>
      </trkpt>
      <trkpt lat="45.42778" lon="2.93338">
        <ele>1173.846951</ele>
        <time>2021-07-07T15:56:33+0200</time>
      </trkpt>
      <trkpt lat="45.42777" lon="2.93345">
        <ele>1173.42269</ele>
        <time>2021-07-07T15:56:34+0200</time>
      </trkpt>
      <trkpt lat="45.42772" lon="2.93352">
        <ele>1173.742461</ele>
        <time>2021-07-07T15:56:36+0200</time>
      </trkpt>
      <trkpt lat="45.42768" lon="2.93354">
        <ele>1174.513842</ele>
        <time>2021-07-07T15:56:39+0200</time>
      </trkpt>
      <trkpt lat="45.42763" lon="2.93354">
        <ele>1174.592129</ele>
        <time>2021-07-07T15:57:26+0200</time>
      </trkpt>
      <trkpt lat="45.4276" lon="2.93359">
        <ele>1174.637294</ele>
        <time>2021-07-07T15:57:28+0200</time>
      </trkpt>
      <trkpt lat="45.42756" lon="2.93363">
        <ele>1174.960213</ele>
        <time>2021-07-07T15:57:30+0200</time>
      </trkpt>
      <trkpt lat="45.42752" lon="2.93366">
        <ele>1175.551694</ele>
        <time>2021-07-07T15:57:32+0200</time>
      </trkpt>
      <trkpt lat="45.42747" lon="2.9337">
        <ele>1176.248638</ele>
        <time>2021-07-07T15:57:35+0200</time>
      </trkpt>
      <trkpt lat="45.42743" lon="2.93375">
        <ele>1176.40888</ele>
        <time>2021-07-07T15:57:37+0200</time>
      </trkpt>
      <trkpt lat="45.4274" lon="2.93379">
        <ele>1176.780701</ele>
        <time>2021-07-07T15:57:39+0200</time>
      </trkpt>
      <trkpt lat="45.42735" lon="2.93381">
        <ele>1176.888138</ele>
        <time>2021-07-07T15:57:41+0200</time>
      </trkpt>
      <trkpt lat="45.4273" lon="2.93387">
        <ele>1177.435522</ele>
        <time>2021-07-07T15:57:44+0200</time>
      </trkpt>
      <trkpt lat="45.42726" lon="2.93391">
        <ele>1178.283827</ele>
        <time>2021-07-07T15:57:46+0200</time>
      </trkpt>
      <trkpt lat="45.42721" lon="2.93398">
        <ele>1179.052066</ele>
        <time>2021-07-07T15:57:49+0200</time>
      </trkpt>
      <trkpt lat="45.42718" lon="2.93403">
        <ele>1179.600874</ele>
        <time>2021-07-07T15:57:51+0200</time>
      </trkpt>
      <trkpt lat="45.42715" lon="2.93408">
        <ele>1179.858859</ele>
        <time>2021-07-07T15:57:53+0200</time>
      </trkpt>
      <trkpt lat="45.42711" lon="2.93415">
        <ele>1180.974167</ele>
        <time>2021-07-07T15:57:56+0200</time>
      </trkpt>
      <trkpt lat="45.42708" lon="2.93424">
        <ele>1181.848231</ele>
        <time>2021-07-07T15:57:59+0200</time>
      </trkpt>
      <trkpt lat="45.42705" lon="2.9343">
        <ele>1182.206648</ele>
        <time>2021-07-07T15:58:01+0200</time>
      </trkpt>
      <trkpt lat="45.42703" lon="2.93438">
        <ele>1182.553715</ele>
        <time>2021-07-07T15:58:03+0200</time>
      </trkpt>
      <trkpt lat="45.42702" lon="2.93445">
        <ele>1182.824577</ele>
        <time>2021-07-07T15:58:05+0200</time>
      </trkpt>
      <trkpt lat="45.427" lon="2.93453">
        <ele>1182.723157</ele>
        <time>2021-07-07T15:58:07+0200</time>
      </trkpt>
      <trkpt lat="45.42698" lon="2.9346">
        <ele>1183.054019</ele>
        <time>2021-07-07T15:58:09+0200</time>
      </trkpt>
      <trkpt lat="45.42695" lon="2.93468">
        <ele>1183.004628</ele>
        <time>2021-07-07T15:58:11+0200</time>
      </trkpt>
      <trkpt lat="45.42693" lon="2.93477">
        <ele>1182.95349</ele>
        <time>2021-07-07T15:58:13+0200</time>
      </trkpt>
      <trkpt lat="45.4269" lon="2.93487">
        <ele>1182.687769</ele>
        <time>2021-07-07T15:58:15+0200</time>
      </trkpt>
      <trkpt lat="45.42687" lon="2.93497">
        <ele>1182.594915</ele>
        <time>2021-07-07T15:58:17+0200</time>
      </trkpt>
      <trkpt lat="45.42685" lon="2.93503">
        <ele>1182.826827</ele>
        <time>2021-07-07T15:58:18+0200</time>
      </trkpt>
      <trkpt lat="45.42682" lon="2.93516">
        <ele>1182.599466</ele>
        <time>2021-07-07T15:58:20+0200</time>
      </trkpt>
      <trkpt lat="45.4268" lon="2.93522">
        <ele>1182.45211</ele>
        <time>2021-07-07T15:58:21+0200</time>
      </trkpt>
      <trkpt lat="45.42678" lon="2.93529">
        <ele>1182.301697</ele>
        <time>2021-07-07T15:58:22+0200</time>
      </trkpt>
      <trkpt lat="45.42676" lon="2.93536">
        <ele>1182.224549</ele>
        <time>2021-07-07T15:58:23+0200</time>
      </trkpt>
      <trkpt lat="45.42675" lon="2.93542">
        <ele>1182.141075</ele>
        <time>2021-07-07T15:58:24+0200</time>
      </trkpt>
      <trkpt lat="45.42672" lon="2.93548">
        <ele>1182.165844</ele>
        <time>2021-07-07T15:58:25+0200</time>
      </trkpt>
      <trkpt lat="45.4267" lon="2.93555">
        <ele>1181.968283</ele>
        <time>2021-07-07T15:58:26+0200</time>
      </trkpt>
      <trkpt lat="45.42669" lon="2.93562">
        <ele>1182.079395</ele>
        <time>2021-07-07T15:58:27+0200</time>
      </trkpt>
      <trkpt lat="45.42666" lon="2.93569">
        <ele>1182.353236</ele>
        <time>2021-07-07T15:58:28+0200</time>
      </trkpt>
      <trkpt lat="45.42665" lon="2.93576">
        <ele>1182.489132</ele>
        <time>2021-07-07T15:58:29+0200</time>
      </trkpt>
      <trkpt lat="45.42663" lon="2.93583">
        <ele>1182.675545</ele>
        <time>2021-07-07T15:58:30+0200</time>
      </trkpt>
      <trkpt lat="45.4266" lon="2.93595">
        <ele>1183.386961</ele>
        <time>2021-07-07T15:58:32+0200</time>
      </trkpt>
      <trkpt lat="45.42657" lon="2.93605">
        <ele>1184.572182</ele>
        <time>2021-07-07T15:58:34+0200</time>
      </trkpt>
      <trkpt lat="45.42655" lon="2.93614">
        <ele>1185.192878</ele>
        <time>2021-07-07T15:58:36+0200</time>
      </trkpt>
      <trkpt lat="45.42654" lon="2.93623">
        <ele>1185.741931</ele>
        <time>2021-07-07T15:58:38+0200</time>
      </trkpt>
      <trkpt lat="45.42652" lon="2.93632">
        <ele>1185.749763</ele>
        <time>2021-07-07T15:58:40+0200</time>
      </trkpt>
      <trkpt lat="45.42649" lon="2.93642">
        <ele>1186.042793</ele>
        <time>2021-07-07T15:58:42+0200</time>
      </trkpt>
      <trkpt lat="45.42646" lon="2.93651">
        <ele>1186.196007</ele>
        <time>2021-07-07T15:58:44+0200</time>
      </trkpt>
      <trkpt lat="45.42644" lon="2.93661">
        <ele>1186.341486</ele>
        <time>2021-07-07T15:58:46+0200</time>
      </trkpt>
      <trkpt lat="45.42641" lon="2.93673">
        <ele>1186.342218</ele>
        <time>2021-07-07T15:58:48+0200</time>
      </trkpt>
      <trkpt lat="45.42639" lon="2.93683">
        <ele>1186.350188</ele>
        <time>2021-07-07T15:58:49+0200</time>
      </trkpt>
      <trkpt lat="45.42637" lon="2.9369">
        <ele>1186.113342</ele>
        <time>2021-07-07T15:58:50+0200</time>
      </trkpt>
      <trkpt lat="45.42633" lon="2.937">
        <ele>1185.892255</ele>
        <time>2021-07-07T15:58:52+0200</time>
      </trkpt>
      <trkpt lat="45.42631" lon="2.93707">
        <ele>1185.638829</ele>
        <time>2021-07-07T15:58:53+0200</time>
      </trkpt>
      <trkpt lat="45.42629" lon="2.93713">
        <ele>1185.394968</ele>
        <time>2021-07-07T15:58:54+0200</time>
      </trkpt>
      <trkpt lat="45.42627" lon="2.93719">
        <ele>1185.191047</ele>
        <time>2021-07-07T15:58:55+0200</time>
      </trkpt>
      <trkpt lat="45.42625" lon="2.93726">
        <ele>1185.145427</ele>
        <time>2021-07-07T15:58:56+0200</time>
      </trkpt>
      <trkpt lat="45.42623" lon="2.93734">
        <ele>1184.972754</ele>
        <time>2021-07-07T15:58:57+0200</time>
      </trkpt>
      <trkpt lat="45.4262" lon="2.93741">
        <ele>1184.696857</ele>
        <time>2021-07-07T15:58:58+0200</time>
      </trkpt>
      <trkpt lat="45.42618" lon="2.93748">
        <ele>1184.534772</ele>
        <time>2021-07-07T15:58:59+0200</time>
      </trkpt>
      <trkpt lat="45.42615" lon="2.93755">
        <ele>1184.423576</ele>
        <time>2021-07-07T15:59:01+0200</time>
      </trkpt>
      <trkpt lat="45.42612" lon="2.93763">
        <ele>1184.232568</ele>
        <time>2021-07-07T15:59:02+0200</time>
      </trkpt>
      <trkpt lat="45.4261" lon="2.9377">
        <ele>1184.130086</ele>
        <time>2021-07-07T15:59:03+0200</time>
      </trkpt>
      <trkpt lat="45.42607" lon="2.93777">
        <ele>1183.98991</ele>
        <time>2021-07-07T15:59:04+0200</time>
      </trkpt>
      <trkpt lat="45.42604" lon="2.93784">
        <ele>1184.307313</ele>
        <time>2021-07-07T15:59:05+0200</time>
      </trkpt>
      <trkpt lat="45.42601" lon="2.93791">
        <ele>1184.126879</ele>
        <time>2021-07-07T15:59:06+0200</time>
      </trkpt>
      <trkpt lat="45.42598" lon="2.93799">
        <ele>1184.002123</ele>
        <time>2021-07-07T15:59:07+0200</time>
      </trkpt>
      <trkpt lat="45.42595" lon="2.93805">
        <ele>1183.95286</ele>
        <time>2021-07-07T15:59:08+0200</time>
      </trkpt>
      <trkpt lat="45.42591" lon="2.9381">
        <ele>1184.251279</ele>
        <time>2021-07-07T15:59:09+0200</time>
      </trkpt>
      <trkpt lat="45.42587" lon="2.93816">
        <ele>1184.197234</ele>
        <time>2021-07-07T15:59:10+0200</time>
      </trkpt>
      <trkpt lat="45.42584" lon="2.93821">
        <ele>1184.680316</ele>
        <time>2021-07-07T15:59:11+0200</time>
      </trkpt>
      <trkpt lat="45.42582" lon="2.93827">
        <ele>1184.847652</ele>
        <time>2021-07-07T15:59:12+0200</time>
      </trkpt>
      <trkpt lat="45.42579" lon="2.93833">
        <ele>1185.145972</ele>
        <time>2021-07-07T15:59:13+0200</time>
      </trkpt>
      <trkpt lat="45.42576" lon="2.93838">
        <ele>1185.418365</ele>
        <time>2021-07-07T15:59:14+0200</time>
      </trkpt>
      <trkpt lat="45.4257" lon="2.93847">
        <ele>1186.042213</ele>
        <time>2021-07-07T15:59:16+0200</time>
      </trkpt>
      <trkpt lat="45.42564" lon="2.93854">
        <ele>1186.519469</ele>
        <time>2021-07-07T15:59:18+0200</time>
      </trkpt>
      <trkpt lat="45.42558" lon="2.9386">
        <ele>1186.786551</ele>
        <time>2021-07-07T15:59:20+0200</time>
      </trkpt>
      <trkpt lat="45.42552" lon="2.93864">
        <ele>1187.003595</ele>
        <time>2021-07-07T15:59:22+0200</time>
      </trkpt>
      <trkpt lat="45.42546" lon="2.93868">
        <ele>1187.439626</ele>
        <time>2021-07-07T15:59:24+0200</time>
      </trkpt>
      <trkpt lat="45.42538" lon="2.93873">
        <ele>1186.549971</ele>
        <time>2021-07-07T15:59:26+0200</time>
      </trkpt>
      <trkpt lat="45.42532" lon="2.93876">
        <ele>1187.014115</ele>
        <time>2021-07-07T15:59:28+0200</time>
      </trkpt>
      <trkpt lat="45.42527" lon="2.93879">
        <ele>1187.015148</ele>
        <time>2021-07-07T15:59:29+0200</time>
      </trkpt>
      <trkpt lat="45.42523" lon="2.93881">
        <ele>1187.038449</ele>
        <time>2021-07-07T15:59:30+0200</time>
      </trkpt>
      <trkpt lat="45.42519" lon="2.93884">
        <ele>1186.739357</ele>
        <time>2021-07-07T15:59:31+0200</time>
      </trkpt>
      <trkpt lat="45.42514" lon="2.93887">
        <ele>1186.463801</ele>
        <time>2021-07-07T15:59:32+0200</time>
      </trkpt>
      <trkpt lat="45.42508" lon="2.9389">
        <ele>1186.214865</ele>
        <time>2021-07-07T15:59:33+0200</time>
      </trkpt>
      <trkpt lat="45.42502" lon="2.93893">
        <ele>1186.085216</ele>
        <time>2021-07-07T15:59:34+0200</time>
      </trkpt>
      <trkpt lat="45.42496" lon="2.93896">
        <ele>1185.885551</ele>
        <time>2021-07-07T15:59:35+0200</time>
      </trkpt>
      <trkpt lat="45.42491" lon="2.93902">
        <ele>1185.456943</ele>
        <time>2021-07-07T15:59:36+0200</time>
      </trkpt>
      <trkpt lat="45.42486" lon="2.93908">
        <ele>1185.33055</ele>
        <time>2021-07-07T15:59:37+0200</time>
      </trkpt>
      <trkpt lat="45.42481" lon="2.93913">
        <ele>1185.220146</ele>
        <time>2021-07-07T15:59:38+0200</time>
      </trkpt>
      <trkpt lat="45.42475" lon="2.93918">
        <ele>1184.912825</ele>
        <time>2021-07-07T15:59:39+0200</time>
      </trkpt>
      <trkpt lat="45.42469" lon="2.93923">
        <ele>1184.354981</ele>
        <time>2021-07-07T15:59:40+0200</time>
      </trkpt>
      <trkpt lat="45.42464" lon="2.9393">
        <ele>1184.270582</ele>
        <time>2021-07-07T15:59:41+0200</time>
      </trkpt>
      <trkpt lat="45.42458" lon="2.93936">
        <ele>1184.221633</ele>
        <time>2021-07-07T15:59:42+0200</time>
      </trkpt>
      <trkpt lat="45.42453" lon="2.93943">
        <ele>1184.24261</ele>
        <time>2021-07-07T15:59:43+0200</time>
      </trkpt>
      <trkpt lat="45.42448" lon="2.9395">
        <ele>1184.233329</ele>
        <time>2021-07-07T15:59:44+0200</time>
      </trkpt>
      <trkpt lat="45.42443" lon="2.93956">
        <ele>1184.423902</ele>
        <time>2021-07-07T15:59:45+0200</time>
      </trkpt>
      <trkpt lat="45.42438" lon="2.93962">
        <ele>1184.814409</ele>
        <time>2021-07-07T15:59:46+0200</time>
      </trkpt>
      <trkpt lat="45.42433" lon="2.93969">
        <ele>1185.083949</ele>
        <time>2021-07-07T15:59:47+0200</time>
      </trkpt>
      <trkpt lat="45.42429" lon="2.93975">
        <ele>1185.265775</ele>
        <time>2021-07-07T15:59:48+0200</time>
      </trkpt>
      <trkpt lat="45.42424" lon="2.9398">
        <ele>1185.62154</ele>
        <time>2021-07-07T15:59:49+0200</time>
      </trkpt>
      <trkpt lat="45.4242" lon="2.93985">
        <ele>1186.226204</ele>
        <time>2021-07-07T15:59:50+0200</time>
      </trkpt>
      <trkpt lat="45.42416" lon="2.9399">
        <ele>1186.756098</ele>
        <time>2021-07-07T15:59:51+0200</time>
      </trkpt>
      <trkpt lat="45.42412" lon="2.93994">
        <ele>1187.320158</ele>
        <time>2021-07-07T15:59:52+0200</time>
      </trkpt>
      <trkpt lat="45.42408" lon="2.93997">
        <ele>1188.0213</ele>
        <time>2021-07-07T15:59:53+0200</time>
      </trkpt>
      <trkpt lat="45.42402" lon="2.94003">
        <ele>1188.542628</ele>
        <time>2021-07-07T15:59:55+0200</time>
      </trkpt>
      <trkpt lat="45.42396" lon="2.9401">
        <ele>1188.861482</ele>
        <time>2021-07-07T15:59:57+0200</time>
      </trkpt>
      <trkpt lat="45.42389" lon="2.94017">
        <ele>1188.951991</ele>
        <time>2021-07-07T15:59:59+0200</time>
      </trkpt>
      <trkpt lat="45.42382" lon="2.94024">
        <ele>1188.809076</ele>
        <time>2021-07-07T16:00:01+0200</time>
      </trkpt>
      <trkpt lat="45.42375" lon="2.94031">
        <ele>1188.632179</ele>
        <time>2021-07-07T16:00:03+0200</time>
      </trkpt>
      <trkpt lat="45.42371" lon="2.94035">
        <ele>1188.353862</ele>
        <time>2021-07-07T16:00:04+0200</time>
      </trkpt>
      <trkpt lat="45.42367" lon="2.9404">
        <ele>1188.322641</ele>
        <time>2021-07-07T16:00:05+0200</time>
      </trkpt>
      <trkpt lat="45.42364" lon="2.94045">
        <ele>1188.398597</ele>
        <time>2021-07-07T16:00:06+0200</time>
      </trkpt>
      <trkpt lat="45.42359" lon="2.94049">
        <ele>1188.242229</ele>
        <time>2021-07-07T16:00:07+0200</time>
      </trkpt>
      <trkpt lat="45.42355" lon="2.94054">
        <ele>1187.893098</ele>
        <time>2021-07-07T16:00:08+0200</time>
      </trkpt>
      <trkpt lat="45.4235" lon="2.94059">
        <ele>1188.013493</ele>
        <time>2021-07-07T16:00:09+0200</time>
      </trkpt>
      <trkpt lat="45.42345" lon="2.94064">
        <ele>1188.162885</ele>
        <time>2021-07-07T16:00:10+0200</time>
      </trkpt>
      <trkpt lat="45.4234" lon="2.94069">
        <ele>1187.814313</ele>
        <time>2021-07-07T16:00:11+0200</time>
      </trkpt>
      <trkpt lat="45.42335" lon="2.94074">
        <ele>1188.000487</ele>
        <time>2021-07-07T16:00:12+0200</time>
      </trkpt>
      <trkpt lat="45.4233" lon="2.94078">
        <ele>1187.983761</ele>
        <time>2021-07-07T16:00:13+0200</time>
      </trkpt>
      <trkpt lat="45.42325" lon="2.94083">
        <ele>1188.145327</ele>
        <time>2021-07-07T16:00:14+0200</time>
      </trkpt>
      <trkpt lat="45.42321" lon="2.94088">
        <ele>1188.109468</ele>
        <time>2021-07-07T16:00:15+0200</time>
      </trkpt>
      <trkpt lat="45.42316" lon="2.94093">
        <ele>1188.247246</ele>
        <time>2021-07-07T16:00:16+0200</time>
      </trkpt>
      <trkpt lat="45.42312" lon="2.94098">
        <ele>1188.380276</ele>
        <time>2021-07-07T16:00:17+0200</time>
      </trkpt>
      <trkpt lat="45.42307" lon="2.94102">
        <ele>1188.3533</ele>
        <time>2021-07-07T16:00:18+0200</time>
      </trkpt>
      <trkpt lat="45.42303" lon="2.94107">
        <ele>1188.497735</ele>
        <time>2021-07-07T16:00:19+0200</time>
      </trkpt>
      <trkpt lat="45.42299" lon="2.94111">
        <ele>1188.261329</ele>
        <time>2021-07-07T16:00:20+0200</time>
      </trkpt>
      <trkpt lat="45.42294" lon="2.94117">
        <ele>1188.469913</ele>
        <time>2021-07-07T16:00:21+0200</time>
      </trkpt>
      <trkpt lat="45.4229" lon="2.94121">
        <ele>1188.438046</ele>
        <time>2021-07-07T16:00:22+0200</time>
      </trkpt>
      <trkpt lat="45.42286" lon="2.94126">
        <ele>1188.188961</ele>
        <time>2021-07-07T16:00:23+0200</time>
      </trkpt>
      <trkpt lat="45.42282" lon="2.94129">
        <ele>1188.175037</ele>
        <time>2021-07-07T16:00:24+0200</time>
      </trkpt>
      <trkpt lat="45.42278" lon="2.94134">
        <ele>1188.12757</ele>
        <time>2021-07-07T16:00:25+0200</time>
      </trkpt>
      <trkpt lat="45.42274" lon="2.94138">
        <ele>1187.932378</ele>
        <time>2021-07-07T16:00:26+0200</time>
      </trkpt>
      <trkpt lat="45.42269" lon="2.94144">
        <ele>1187.762148</ele>
        <time>2021-07-07T16:00:27+0200</time>
      </trkpt>
      <trkpt lat="45.42265" lon="2.94148">
        <ele>1187.545245</ele>
        <time>2021-07-07T16:00:28+0200</time>
      </trkpt>
      <trkpt lat="45.42261" lon="2.94155">
        <ele>1187.422656</ele>
        <time>2021-07-07T16:00:29+0200</time>
      </trkpt>
      <trkpt lat="45.42258" lon="2.94161">
        <ele>1187.480162</ele>
        <time>2021-07-07T16:00:30+0200</time>
      </trkpt>
      <trkpt lat="45.42254" lon="2.94165">
        <ele>1187.508392</ele>
        <time>2021-07-07T16:00:31+0200</time>
      </trkpt>
      <trkpt lat="45.42249" lon="2.94171">
        <ele>1187.376899</ele>
        <time>2021-07-07T16:00:32+0200</time>
      </trkpt>
      <trkpt lat="45.42246" lon="2.94177">
        <ele>1187.426998</ele>
        <time>2021-07-07T16:00:33+0200</time>
      </trkpt>
      <trkpt lat="45.42242" lon="2.94182">
        <ele>1187.653227</ele>
        <time>2021-07-07T16:00:34+0200</time>
      </trkpt>
      <trkpt lat="45.42238" lon="2.94188">
        <ele>1187.737671</ele>
        <time>2021-07-07T16:00:35+0200</time>
      </trkpt>
      <trkpt lat="45.42235" lon="2.94194">
        <ele>1187.817603</ele>
        <time>2021-07-07T16:00:36+0200</time>
      </trkpt>
      <trkpt lat="45.42231" lon="2.94199">
        <ele>1187.80509</ele>
        <time>2021-07-07T16:00:37+0200</time>
      </trkpt>
      <trkpt lat="45.42228" lon="2.94204">
        <ele>1187.861733</ele>
        <time>2021-07-07T16:00:38+0200</time>
      </trkpt>
      <trkpt lat="45.42225" lon="2.9421">
        <ele>1187.806306</ele>
        <time>2021-07-07T16:00:39+0200</time>
      </trkpt>
      <trkpt lat="45.42221" lon="2.94215">
        <ele>1187.976433</ele>
        <time>2021-07-07T16:00:40+0200</time>
      </trkpt>
      <trkpt lat="45.42218" lon="2.94221">
        <ele>1188.047808</ele>
        <time>2021-07-07T16:00:41+0200</time>
      </trkpt>
      <trkpt lat="45.42214" lon="2.94226">
        <ele>1188.096339</ele>
        <time>2021-07-07T16:00:42+0200</time>
      </trkpt>
      <trkpt lat="45.4221" lon="2.9423">
        <ele>1187.816074</ele>
        <time>2021-07-07T16:00:43+0200</time>
      </trkpt>
      <trkpt lat="45.42207" lon="2.94236">
        <ele>1188.045038</ele>
        <time>2021-07-07T16:00:44+0200</time>
      </trkpt>
      <trkpt lat="45.42205" lon="2.94241">
        <ele>1188.379795</ele>
        <time>2021-07-07T16:00:45+0200</time>
      </trkpt>
      <trkpt lat="45.42201" lon="2.94247">
        <ele>1188.348848</ele>
        <time>2021-07-07T16:00:46+0200</time>
      </trkpt>
      <trkpt lat="45.42198" lon="2.94252">
        <ele>1188.282583</ele>
        <time>2021-07-07T16:00:47+0200</time>
      </trkpt>
      <trkpt lat="45.42195" lon="2.94258">
        <ele>1188.210111</ele>
        <time>2021-07-07T16:00:48+0200</time>
      </trkpt>
      <trkpt lat="45.42191" lon="2.94262">
        <ele>1188.177116</ele>
        <time>2021-07-07T16:00:49+0200</time>
      </trkpt>
      <trkpt lat="45.42188" lon="2.94267">
        <ele>1188.241844</ele>
        <time>2021-07-07T16:00:50+0200</time>
      </trkpt>
      <trkpt lat="45.42184" lon="2.94272">
        <ele>1188.339155</ele>
        <time>2021-07-07T16:00:51+0200</time>
      </trkpt>
      <trkpt lat="45.42181" lon="2.94277">
        <ele>1188.389354</ele>
        <time>2021-07-07T16:00:52+0200</time>
      </trkpt>
      <trkpt lat="45.42175" lon="2.94287">
        <ele>1188.748554</ele>
        <time>2021-07-07T16:00:53+0200</time>
      </trkpt>
      <trkpt lat="45.42173" lon="2.94293">
        <ele>1189.043687</ele>
        <time>2021-07-07T16:00:55+0200</time>
      </trkpt>
      <trkpt lat="45.4217" lon="2.94298">
        <ele>1189.096939</ele>
        <time>2021-07-07T16:00:56+0200</time>
      </trkpt>
      <trkpt lat="45.42163" lon="2.94306">
        <ele>1190.069962</ele>
        <time>2021-07-07T16:00:58+0200</time>
      </trkpt>
      <trkpt lat="45.42159" lon="2.94311">
        <ele>1190.092347</ele>
        <time>2021-07-07T16:00:59+0200</time>
      </trkpt>
      <trkpt lat="45.42157" lon="2.94316">
        <ele>1190.051692</ele>
        <time>2021-07-07T16:01:00+0200</time>
      </trkpt>
      <trkpt lat="45.42153" lon="2.94321">
        <ele>1190.104712</ele>
        <time>2021-07-07T16:01:01+0200</time>
      </trkpt>
      <trkpt lat="45.4215" lon="2.94326">
        <ele>1189.995845</ele>
        <time>2021-07-07T16:01:02+0200</time>
      </trkpt>
      <trkpt lat="45.42147" lon="2.94331">
        <ele>1189.982635</ele>
        <time>2021-07-07T16:01:03+0200</time>
      </trkpt>
      <trkpt lat="45.42144" lon="2.94336">
        <ele>1190.074589</ele>
        <time>2021-07-07T16:01:04+0200</time>
      </trkpt>
      <trkpt lat="45.42138" lon="2.94345">
        <ele>1190.032603</ele>
        <time>2021-07-07T16:01:06+0200</time>
      </trkpt>
      <trkpt lat="45.42133" lon="2.94354">
        <ele>1190.171007</ele>
        <time>2021-07-07T16:01:08+0200</time>
      </trkpt>
      <trkpt lat="45.42128" lon="2.94362">
        <ele>1189.953119</ele>
        <time>2021-07-07T16:01:10+0200</time>
      </trkpt>
      <trkpt lat="45.42124" lon="2.94371">
        <ele>1189.782245</ele>
        <time>2021-07-07T16:01:12+0200</time>
      </trkpt>
      <trkpt lat="45.4212" lon="2.94381">
        <ele>1189.5783</ele>
        <time>2021-07-07T16:01:14+0200</time>
      </trkpt>
      <trkpt lat="45.42116" lon="2.94392">
        <ele>1189.516922</ele>
        <time>2021-07-07T16:01:16+0200</time>
      </trkpt>
      <trkpt lat="45.42111" lon="2.94404">
        <ele>1189.559072</ele>
        <time>2021-07-07T16:01:18+0200</time>
      </trkpt>
      <trkpt lat="45.42108" lon="2.94411">
        <ele>1189.468709</ele>
        <time>2021-07-07T16:01:19+0200</time>
      </trkpt>
      <trkpt lat="45.42105" lon="2.94418">
        <ele>1189.239669</ele>
        <time>2021-07-07T16:01:20+0200</time>
      </trkpt>
      <trkpt lat="45.42101" lon="2.94426">
        <ele>1188.869439</ele>
        <time>2021-07-07T16:01:21+0200</time>
      </trkpt>
      <trkpt lat="45.42098" lon="2.94434">
        <ele>1188.388974</ele>
        <time>2021-07-07T16:01:22+0200</time>
      </trkpt>
      <trkpt lat="45.42094" lon="2.94443">
        <ele>1187.834102</ele>
        <time>2021-07-07T16:01:23+0200</time>
      </trkpt>
      <trkpt lat="45.42091" lon="2.94454">
        <ele>1186.855762</ele>
        <time>2021-07-07T16:01:24+0200</time>
      </trkpt>
      <trkpt lat="45.42087" lon="2.94467">
        <ele>1185.759581</ele>
        <time>2021-07-07T16:01:25+0200</time>
      </trkpt>
      <trkpt lat="45.42086" lon="2.94481">
        <ele>1184.705953</ele>
        <time>2021-07-07T16:01:26+0200</time>
      </trkpt>
      <trkpt lat="45.42086" lon="2.94497">
        <ele>1183.680217</ele>
        <time>2021-07-07T16:01:27+0200</time>
      </trkpt>
      <trkpt lat="45.42089" lon="2.94513">
        <ele>1182.892874</ele>
        <time>2021-07-07T16:01:28+0200</time>
      </trkpt>
      <trkpt lat="45.4209" lon="2.94529">
        <ele>1182.25736</ele>
        <time>2021-07-07T16:01:29+0200</time>
      </trkpt>
      <trkpt lat="45.42091" lon="2.94547">
        <ele>1181.360282</ele>
        <time>2021-07-07T16:01:30+0200</time>
      </trkpt>
      <trkpt lat="45.42091" lon="2.94564">
        <ele>1180.777728</ele>
        <time>2021-07-07T16:01:31+0200</time>
      </trkpt>
      <trkpt lat="45.42089" lon="2.94582">
        <ele>1180.081069</ele>
        <time>2021-07-07T16:01:32+0200</time>
      </trkpt>
      <trkpt lat="45.42088" lon="2.94599">
        <ele>1179.233381</ele>
        <time>2021-07-07T16:01:33+0200</time>
      </trkpt>
      <trkpt lat="45.42089" lon="2.94617">
        <ele>1178.507773</ele>
        <time>2021-07-07T16:01:34+0200</time>
      </trkpt>
      <trkpt lat="45.4209" lon="2.94635">
        <ele>1177.695075</ele>
        <time>2021-07-07T16:01:35+0200</time>
      </trkpt>
      <trkpt lat="45.42091" lon="2.94654">
        <ele>1176.859677</ele>
        <time>2021-07-07T16:01:36+0200</time>
      </trkpt>
      <trkpt lat="45.42091" lon="2.94673">
        <ele>1175.921355</ele>
        <time>2021-07-07T16:01:37+0200</time>
      </trkpt>
      <trkpt lat="45.4209" lon="2.94691">
        <ele>1174.762424</ele>
        <time>2021-07-07T16:01:38+0200</time>
      </trkpt>
      <trkpt lat="45.42087" lon="2.9471">
        <ele>1173.36258</ele>
        <time>2021-07-07T16:01:39+0200</time>
      </trkpt>
      <trkpt lat="45.42082" lon="2.9473">
        <ele>1172.264141</ele>
        <time>2021-07-07T16:01:40+0200</time>
      </trkpt>
      <trkpt lat="45.42078" lon="2.94749">
        <ele>1171.067952</ele>
        <time>2021-07-07T16:01:41+0200</time>
      </trkpt>
      <trkpt lat="45.42073" lon="2.94768">
        <ele>1169.669333</ele>
        <time>2021-07-07T16:01:42+0200</time>
      </trkpt>
      <trkpt lat="45.42069" lon="2.94788">
        <ele>1168.716179</ele>
        <time>2021-07-07T16:01:43+0200</time>
      </trkpt>
      <trkpt lat="45.42064" lon="2.94808">
        <ele>1167.921053</ele>
        <time>2021-07-07T16:01:44+0200</time>
      </trkpt>
      <trkpt lat="45.4206" lon="2.94827">
        <ele>1166.920327</ele>
        <time>2021-07-07T16:01:45+0200</time>
      </trkpt>
      <trkpt lat="45.42056" lon="2.94847">
        <ele>1165.835063</ele>
        <time>2021-07-07T16:01:46+0200</time>
      </trkpt>
      <trkpt lat="45.42053" lon="2.94867">
        <ele>1164.472446</ele>
        <time>2021-07-07T16:01:47+0200</time>
      </trkpt>
      <trkpt lat="45.42048" lon="2.94887">
        <ele>1162.88921</ele>
        <time>2021-07-07T16:01:48+0200</time>
      </trkpt>
      <trkpt lat="45.42043" lon="2.94907">
        <ele>1161.38325</ele>
        <time>2021-07-07T16:01:49+0200</time>
      </trkpt>
      <trkpt lat="45.42036" lon="2.94926">
        <ele>1160.413586</ele>
        <time>2021-07-07T16:01:50+0200</time>
      </trkpt>
      <trkpt lat="45.42031" lon="2.94946">
        <ele>1160.034954</ele>
        <time>2021-07-07T16:01:51+0200</time>
      </trkpt>
      <trkpt lat="45.42025" lon="2.94964">
        <ele>1159.48649</ele>
        <time>2021-07-07T16:01:52+0200</time>
      </trkpt>
      <trkpt lat="45.42016" lon="2.94978">
        <ele>1160.580363</ele>
        <time>2021-07-07T16:01:53+0200</time>
      </trkpt>
      <trkpt lat="45.42003" lon="2.94982">
        <ele>1164.445223</ele>
        <time>2021-07-07T16:01:54+0200</time>
      </trkpt>
      <trkpt lat="45.41992" lon="2.94988">
        <ele>1165.395533</ele>
        <time>2021-07-07T16:01:55+0200</time>
      </trkpt>
      <trkpt lat="45.41982" lon="2.94992">
        <ele>1166.345543</ele>
        <time>2021-07-07T16:01:56+0200</time>
      </trkpt>
      <trkpt lat="45.41975" lon="2.94998">
        <ele>1167.262333</ele>
        <time>2021-07-07T16:01:57+0200</time>
      </trkpt>
      <trkpt lat="45.41968" lon="2.95006">
        <ele>1168.120657</ele>
        <time>2021-07-07T16:01:58+0200</time>
      </trkpt>
      <trkpt lat="45.41963" lon="2.95015">
        <ele>1168.962023</ele>
        <time>2021-07-07T16:01:59+0200</time>
      </trkpt>
      <trkpt lat="45.41959" lon="2.95023">
        <ele>1169.691129</ele>
        <time>2021-07-07T16:02:00+0200</time>
      </trkpt>
      <trkpt lat="45.41956" lon="2.9503">
        <ele>1170.316763</ele>
        <time>2021-07-07T16:02:01+0200</time>
      </trkpt>
      <trkpt lat="45.41953" lon="2.95037">
        <ele>1170.911073</ele>
        <time>2021-07-07T16:02:02+0200</time>
      </trkpt>
      <trkpt lat="45.4195" lon="2.95044">
        <ele>1171.460931</ele>
        <time>2021-07-07T16:02:03+0200</time>
      </trkpt>
      <trkpt lat="45.41948" lon="2.9505">
        <ele>1172.083305</ele>
        <time>2021-07-07T16:02:04+0200</time>
      </trkpt>
      <trkpt lat="45.41946" lon="2.95058">
        <ele>1173.177405</ele>
        <time>2021-07-07T16:02:06+0200</time>
      </trkpt>
      <trkpt lat="45.41945" lon="2.95066">
        <ele>1173.963531</ele>
        <time>2021-07-07T16:02:09+0200</time>
      </trkpt>
      <trkpt lat="45.41945" lon="2.95072">
        <ele>1173.844851</ele>
        <time>2021-07-07T16:02:14+0200</time>
      </trkpt>
      <trkpt lat="45.41944" lon="2.95079">
        <ele>1173.771517</ele>
        <time>2021-07-07T16:02:41+0200</time>
      </trkpt>
      <trkpt lat="45.41942" lon="2.95086">
        <ele>1175.005959</ele>
        <time>2021-07-07T16:03:38+0200</time>
      </trkpt>
      <trkpt lat="45.41939" lon="2.95093">
        <ele>1175.214598</ele>
        <time>2021-07-07T16:03:41+0200</time>
      </trkpt>
      <trkpt lat="45.41936" lon="2.951">
        <ele>1175.181353</ele>
        <time>2021-07-07T16:03:43+0200</time>
      </trkpt>
      <trkpt lat="45.41933" lon="2.95106">
        <ele>1175.709501</ele>
        <time>2021-07-07T16:03:45+0200</time>
      </trkpt>
      <trkpt lat="45.41929" lon="2.95112">
        <ele>1175.664039</ele>
        <time>2021-07-07T16:03:47+0200</time>
      </trkpt>
      <trkpt lat="45.41927" lon="2.95118">
        <ele>1175.738413</ele>
        <time>2021-07-07T16:03:49+0200</time>
      </trkpt>
      <trkpt lat="45.41924" lon="2.95123">
        <ele>1176.09526</ele>
        <time>2021-07-07T16:03:51+0200</time>
      </trkpt>
      <trkpt lat="45.41921" lon="2.9513">
        <ele>1176.636088</ele>
        <time>2021-07-07T16:03:53+0200</time>
      </trkpt>
      <trkpt lat="45.41918" lon="2.95136">
        <ele>1177.070073</ele>
        <time>2021-07-07T16:03:55+0200</time>
      </trkpt>
      <trkpt lat="45.41915" lon="2.95142">
        <ele>1177.25248</ele>
        <time>2021-07-07T16:03:57+0200</time>
      </trkpt>
      <trkpt lat="45.41912" lon="2.9515">
        <ele>1177.758246</ele>
        <time>2021-07-07T16:03:59+0200</time>
      </trkpt>
      <trkpt lat="45.41909" lon="2.95157">
        <ele>1178.051812</ele>
        <time>2021-07-07T16:04:01+0200</time>
      </trkpt>
      <trkpt lat="45.41906" lon="2.95164">
        <ele>1178.738359</ele>
        <time>2021-07-07T16:04:03+0200</time>
      </trkpt>
      <trkpt lat="45.41904" lon="2.95171">
        <ele>1178.907845</ele>
        <time>2021-07-07T16:04:05+0200</time>
      </trkpt>
      <trkpt lat="45.41901" lon="2.95178">
        <ele>1179.621692</ele>
        <time>2021-07-07T16:04:07+0200</time>
      </trkpt>
      <trkpt lat="45.419" lon="2.95186">
        <ele>1180.013033</ele>
        <time>2021-07-07T16:04:09+0200</time>
      </trkpt>
      <trkpt lat="45.41898" lon="2.95195">
        <ele>1180.303179</ele>
        <time>2021-07-07T16:04:11+0200</time>
      </trkpt>
      <trkpt lat="45.41897" lon="2.95204">
        <ele>1180.747847</ele>
        <time>2021-07-07T16:04:13+0200</time>
      </trkpt>
      <trkpt lat="45.41896" lon="2.95213">
        <ele>1181.093162</ele>
        <time>2021-07-07T16:04:15+0200</time>
      </trkpt>
      <trkpt lat="45.41894" lon="2.95223">
        <ele>1181.109121</ele>
        <time>2021-07-07T16:04:17+0200</time>
      </trkpt>
      <trkpt lat="45.41893" lon="2.95231">
        <ele>1181.36681</ele>
        <time>2021-07-07T16:04:19+0200</time>
      </trkpt>
      <trkpt lat="45.41892" lon="2.95239">
        <ele>1181.329417</ele>
        <time>2021-07-07T16:04:21+0200</time>
      </trkpt>
      <trkpt lat="45.41892" lon="2.95247">
        <ele>1181.642786</ele>
        <time>2021-07-07T16:04:23+0200</time>
      </trkpt>
      <trkpt lat="45.4189" lon="2.95255">
        <ele>1182.297854</ele>
        <time>2021-07-07T16:04:25+0200</time>
      </trkpt>
      <trkpt lat="45.41889" lon="2.95263">
        <ele>1182.836868</ele>
        <time>2021-07-07T16:04:27+0200</time>
      </trkpt>
      <trkpt lat="45.41887" lon="2.95273">
        <ele>1183.029655</ele>
        <time>2021-07-07T16:04:29+0200</time>
      </trkpt>
      <trkpt lat="45.41885" lon="2.95281">
        <ele>1183.461434</ele>
        <time>2021-07-07T16:04:31+0200</time>
      </trkpt>
      <trkpt lat="45.41882" lon="2.95289">
        <ele>1184.175505</ele>
        <time>2021-07-07T16:04:33+0200</time>
      </trkpt>
      <trkpt lat="45.41879" lon="2.95296">
        <ele>1184.212505</ele>
        <time>2021-07-07T16:04:35+0200</time>
      </trkpt>
      <trkpt lat="45.41876" lon="2.95303">
        <ele>1184.501831</ele>
        <time>2021-07-07T16:04:37+0200</time>
      </trkpt>
      <trkpt lat="45.41873" lon="2.9531">
        <ele>1184.552604</ele>
        <time>2021-07-07T16:04:39+0200</time>
      </trkpt>
      <trkpt lat="45.4187" lon="2.95317">
        <ele>1185.093063</ele>
        <time>2021-07-07T16:04:41+0200</time>
      </trkpt>
      <trkpt lat="45.41867" lon="2.95324">
        <ele>1185.708867</ele>
        <time>2021-07-07T16:04:43+0200</time>
      </trkpt>
      <trkpt lat="45.41863" lon="2.95331">
        <ele>1186.388244</ele>
        <time>2021-07-07T16:04:45+0200</time>
      </trkpt>
      <trkpt lat="45.4186" lon="2.95338">
        <ele>1187.100276</ele>
        <time>2021-07-07T16:04:47+0200</time>
      </trkpt>
      <trkpt lat="45.41857" lon="2.95346">
        <ele>1187.364511</ele>
        <time>2021-07-07T16:04:49+0200</time>
      </trkpt>
      <trkpt lat="45.41855" lon="2.95355">
        <ele>1187.565405</ele>
        <time>2021-07-07T16:04:51+0200</time>
      </trkpt>
      <trkpt lat="45.41852" lon="2.95364">
        <ele>1187.690249</ele>
        <time>2021-07-07T16:04:53+0200</time>
      </trkpt>
      <trkpt lat="45.4185" lon="2.95373">
        <ele>1188.001509</ele>
        <time>2021-07-07T16:04:55+0200</time>
      </trkpt>
      <trkpt lat="45.41848" lon="2.95382">
        <ele>1188.250311</ele>
        <time>2021-07-07T16:04:57+0200</time>
      </trkpt>
      <trkpt lat="45.41846" lon="2.9539">
        <ele>1188.866682</ele>
        <time>2021-07-07T16:04:59+0200</time>
      </trkpt>
      <trkpt lat="45.41844" lon="2.954">
        <ele>1189.271248</ele>
        <time>2021-07-07T16:05:01+0200</time>
      </trkpt>
      <trkpt lat="45.41842" lon="2.95409">
        <ele>1189.51851</ele>
        <time>2021-07-07T16:05:03+0200</time>
      </trkpt>
      <trkpt lat="45.41839" lon="2.95417">
        <ele>1189.799618</ele>
        <time>2021-07-07T16:05:05+0200</time>
      </trkpt>
      <trkpt lat="45.41836" lon="2.95424">
        <ele>1190.071492</ele>
        <time>2021-07-07T16:05:07+0200</time>
      </trkpt>
      <trkpt lat="45.41832" lon="2.95432">
        <ele>1190.44138</ele>
        <time>2021-07-07T16:05:09+0200</time>
      </trkpt>
      <trkpt lat="45.41827" lon="2.9544">
        <ele>1191.016867</ele>
        <time>2021-07-07T16:05:11+0200</time>
      </trkpt>
      <trkpt lat="45.41822" lon="2.95445">
        <ele>1191.419666</ele>
        <time>2021-07-07T16:05:13+0200</time>
      </trkpt>
      <trkpt lat="45.41816" lon="2.9545">
        <ele>1191.874416</ele>
        <time>2021-07-07T16:05:15+0200</time>
      </trkpt>
      <trkpt lat="45.4181" lon="2.95454">
        <ele>1192.167058</ele>
        <time>2021-07-07T16:05:17+0200</time>
      </trkpt>
      <trkpt lat="45.41803" lon="2.95456">
        <ele>1192.456002</ele>
        <time>2021-07-07T16:05:19+0200</time>
      </trkpt>
      <trkpt lat="45.41797" lon="2.95457">
        <ele>1192.919287</ele>
        <time>2021-07-07T16:05:21+0200</time>
      </trkpt>
      <trkpt lat="45.41791" lon="2.95459">
        <ele>1193.502356</ele>
        <time>2021-07-07T16:05:23+0200</time>
      </trkpt>
      <trkpt lat="45.41786" lon="2.9546">
        <ele>1193.71146</ele>
        <time>2021-07-07T16:05:25+0200</time>
      </trkpt>
      <trkpt lat="45.41779" lon="2.95461">
        <ele>1193.819682</ele>
        <time>2021-07-07T16:05:27+0200</time>
      </trkpt>
      <trkpt lat="45.41772" lon="2.95463">
        <ele>1194.047721</ele>
        <time>2021-07-07T16:05:29+0200</time>
      </trkpt>
      <trkpt lat="45.41766" lon="2.95464">
        <ele>1194.464872</ele>
        <time>2021-07-07T16:05:31+0200</time>
      </trkpt>
      <trkpt lat="45.4176" lon="2.95465">
        <ele>1194.89898</ele>
        <time>2021-07-07T16:05:33+0200</time>
      </trkpt>
      <trkpt lat="45.41754" lon="2.95466">
        <ele>1195.196044</ele>
        <time>2021-07-07T16:05:35+0200</time>
      </trkpt>
      <trkpt lat="45.41748" lon="2.95469">
        <ele>1195.557675</ele>
        <time>2021-07-07T16:05:37+0200</time>
      </trkpt>
      <trkpt lat="45.41742" lon="2.95471">
        <ele>1196.2233</ele>
        <time>2021-07-07T16:05:39+0200</time>
      </trkpt>
      <trkpt lat="45.41736" lon="2.95475">
        <ele>1196.823937</ele>
        <time>2021-07-07T16:05:41+0200</time>
      </trkpt>
      <trkpt lat="45.4173" lon="2.95477">
        <ele>1197.082642</ele>
        <time>2021-07-07T16:05:43+0200</time>
      </trkpt>
      <trkpt lat="45.41725" lon="2.95482">
        <ele>1197.478766</ele>
        <time>2021-07-07T16:05:45+0200</time>
      </trkpt>
      <trkpt lat="45.4172" lon="2.95486">
        <ele>1198.23269</ele>
        <time>2021-07-07T16:05:47+0200</time>
      </trkpt>
      <trkpt lat="45.41714" lon="2.95489">
        <ele>1198.541645</ele>
        <time>2021-07-07T16:05:49+0200</time>
      </trkpt>
      <trkpt lat="45.41708" lon="2.95493">
        <ele>1198.760842</ele>
        <time>2021-07-07T16:05:51+0200</time>
      </trkpt>
      <trkpt lat="45.41703" lon="2.95496">
        <ele>1199.335062</ele>
        <time>2021-07-07T16:05:53+0200</time>
      </trkpt>
      <trkpt lat="45.41697" lon="2.95499">
        <ele>1199.418593</ele>
        <time>2021-07-07T16:05:55+0200</time>
      </trkpt>
      <trkpt lat="45.41692" lon="2.95503">
        <ele>1199.768363</ele>
        <time>2021-07-07T16:05:57+0200</time>
      </trkpt>
      <trkpt lat="45.41687" lon="2.95507">
        <ele>1199.96771</ele>
        <time>2021-07-07T16:05:59+0200</time>
      </trkpt>
      <trkpt lat="45.41682" lon="2.95511">
        <ele>1200.507358</ele>
        <time>2021-07-07T16:06:01+0200</time>
      </trkpt>
      <trkpt lat="45.41677" lon="2.95516">
        <ele>1201.020682</ele>
        <time>2021-07-07T16:06:03+0200</time>
      </trkpt>
      <trkpt lat="45.41673" lon="2.95523">
        <ele>1201.28341</ele>
        <time>2021-07-07T16:06:05+0200</time>
      </trkpt>
      <trkpt lat="45.41668" lon="2.95528">
        <ele>1201.740856</ele>
        <time>2021-07-07T16:06:07+0200</time>
      </trkpt>
      <trkpt lat="45.41662" lon="2.95532">
        <ele>1201.756061</ele>
        <time>2021-07-07T16:06:09+0200</time>
      </trkpt>
      <trkpt lat="45.41657" lon="2.95535">
        <ele>1202.466245</ele>
        <time>2021-07-07T16:06:11+0200</time>
      </trkpt>
      <trkpt lat="45.41651" lon="2.95539">
        <ele>1203.146463</ele>
        <time>2021-07-07T16:06:13+0200</time>
      </trkpt>
      <trkpt lat="45.41645" lon="2.95541">
        <ele>1203.357919</ele>
        <time>2021-07-07T16:06:15+0200</time>
      </trkpt>
      <trkpt lat="45.41639" lon="2.95543">
        <ele>1203.860161</ele>
        <time>2021-07-07T16:06:17+0200</time>
      </trkpt>
      <trkpt lat="45.41632" lon="2.95546">
        <ele>1204.128846</ele>
        <time>2021-07-07T16:06:19+0200</time>
      </trkpt>
      <trkpt lat="45.41626" lon="2.95546">
        <ele>1204.415827</ele>
        <time>2021-07-07T16:06:21+0200</time>
      </trkpt>
      <trkpt lat="45.4162" lon="2.95546">
        <ele>1204.778545</ele>
        <time>2021-07-07T16:06:23+0200</time>
      </trkpt>
      <trkpt lat="45.41615" lon="2.9555">
        <ele>1205.210483</ele>
        <time>2021-07-07T16:06:25+0200</time>
      </trkpt>
      <trkpt lat="45.41609" lon="2.9555">
        <ele>1205.523627</ele>
        <time>2021-07-07T16:06:27+0200</time>
      </trkpt>
      <trkpt lat="45.41604" lon="2.95552">
        <ele>1205.967875</ele>
        <time>2021-07-07T16:06:29+0200</time>
      </trkpt>
      <trkpt lat="45.41598" lon="2.95554">
        <ele>1206.278833</ele>
        <time>2021-07-07T16:06:31+0200</time>
      </trkpt>
      <trkpt lat="45.41592" lon="2.95556">
        <ele>1207.106019</ele>
        <time>2021-07-07T16:06:33+0200</time>
      </trkpt>
      <trkpt lat="45.41588" lon="2.95559">
        <ele>1207.541208</ele>
        <time>2021-07-07T16:06:35+0200</time>
      </trkpt>
      <trkpt lat="45.41583" lon="2.95561">
        <ele>1207.979177</ele>
        <time>2021-07-07T16:06:37+0200</time>
      </trkpt>
      <trkpt lat="45.41578" lon="2.95565">
        <ele>1208.282423</ele>
        <time>2021-07-07T16:06:39+0200</time>
      </trkpt>
      <trkpt lat="45.41574" lon="2.95568">
        <ele>1208.702655</ele>
        <time>2021-07-07T16:06:41+0200</time>
      </trkpt>
      <trkpt lat="45.4157" lon="2.95571">
        <ele>1208.764075</ele>
        <time>2021-07-07T16:06:43+0200</time>
      </trkpt>
      <trkpt lat="45.41567" lon="2.95577">
        <ele>1209.16015</ele>
        <time>2021-07-07T16:06:45+0200</time>
      </trkpt>
      <trkpt lat="45.41564" lon="2.95582">
        <ele>1209.50826</ele>
        <time>2021-07-07T16:06:47+0200</time>
      </trkpt>
      <trkpt lat="45.41561" lon="2.95588">
        <ele>1209.982892</ele>
        <time>2021-07-07T16:06:49+0200</time>
      </trkpt>
      <trkpt lat="45.41557" lon="2.95594">
        <ele>1210.429732</ele>
        <time>2021-07-07T16:06:51+0200</time>
      </trkpt>
      <trkpt lat="45.41554" lon="2.95601">
        <ele>1210.656436</ele>
        <time>2021-07-07T16:06:53+0200</time>
      </trkpt>
      <trkpt lat="45.41551" lon="2.95607">
        <ele>1211.089864</ele>
        <time>2021-07-07T16:06:55+0200</time>
      </trkpt>
      <trkpt lat="45.41549" lon="2.95615">
        <ele>1211.274299</ele>
        <time>2021-07-07T16:06:57+0200</time>
      </trkpt>
      <trkpt lat="45.41547" lon="2.95621">
        <ele>1211.472578</ele>
        <time>2021-07-07T16:06:59+0200</time>
      </trkpt>
      <trkpt lat="45.41545" lon="2.95628">
        <ele>1212.13136</ele>
        <time>2021-07-07T16:07:01+0200</time>
      </trkpt>
      <trkpt lat="45.41543" lon="2.95634">
        <ele>1212.437667</ele>
        <time>2021-07-07T16:07:03+0200</time>
      </trkpt>
      <trkpt lat="45.41539" lon="2.95642">
        <ele>1213.575803</ele>
        <time>2021-07-07T16:07:06+0200</time>
      </trkpt>
      <trkpt lat="45.41535" lon="2.95646">
        <ele>1213.712236</ele>
        <time>2021-07-07T16:07:08+0200</time>
      </trkpt>
      <trkpt lat="45.4153" lon="2.95645">
        <ele>1214.787135</ele>
        <time>2021-07-07T16:07:10+0200</time>
      </trkpt>
      <trkpt lat="45.41525" lon="2.95642">
        <ele>1215.675922</ele>
        <time>2021-07-07T16:07:13+0200</time>
      </trkpt>
      <trkpt lat="45.41519" lon="2.95639">
        <ele>1216.827156</ele>
        <time>2021-07-07T16:07:16+0200</time>
      </trkpt>
      <trkpt lat="45.41516" lon="2.95635">
        <ele>1216.629898</ele>
        <time>2021-07-07T16:07:18+0200</time>
      </trkpt>
      <trkpt lat="45.41511" lon="2.95632">
        <ele>1217.082558</ele>
        <time>2021-07-07T16:07:20+0200</time>
      </trkpt>
      <trkpt lat="45.41507" lon="2.95626">
        <ele>1217.638871</ele>
        <time>2021-07-07T16:07:22+0200</time>
      </trkpt>
      <trkpt lat="45.41502" lon="2.95621">
        <ele>1218.05363</ele>
        <time>2021-07-07T16:07:24+0200</time>
      </trkpt>
      <trkpt lat="45.41498" lon="2.95615">
        <ele>1217.856386</ele>
        <time>2021-07-07T16:07:26+0200</time>
      </trkpt>
      <trkpt lat="45.41493" lon="2.9561">
        <ele>1217.740783</ele>
        <time>2021-07-07T16:07:28+0200</time>
      </trkpt>
      <trkpt lat="45.41489" lon="2.95604">
        <ele>1218.057928</ele>
        <time>2021-07-07T16:07:30+0200</time>
      </trkpt>
      <trkpt lat="45.41483" lon="2.95599">
        <ele>1217.976158</ele>
        <time>2021-07-07T16:07:32+0200</time>
      </trkpt>
      <trkpt lat="45.41478" lon="2.95593">
        <ele>1218.357173</ele>
        <time>2021-07-07T16:07:34+0200</time>
      </trkpt>
      <trkpt lat="45.41473" lon="2.95588">
        <ele>1218.232245</ele>
        <time>2021-07-07T16:07:36+0200</time>
      </trkpt>
      <trkpt lat="45.41469" lon="2.95583">
        <ele>1218.475069</ele>
        <time>2021-07-07T16:07:38+0200</time>
      </trkpt>
      <trkpt lat="45.41464" lon="2.95577">
        <ele>1218.451803</ele>
        <time>2021-07-07T16:07:40+0200</time>
      </trkpt>
      <trkpt lat="45.41459" lon="2.95571">
        <ele>1218.904541</ele>
        <time>2021-07-07T16:07:42+0200</time>
      </trkpt>
      <trkpt lat="45.41454" lon="2.95565">
        <ele>1219.694679</ele>
        <time>2021-07-07T16:07:44+0200</time>
      </trkpt>
      <trkpt lat="45.41448" lon="2.95558">
        <ele>1220.044375</ele>
        <time>2021-07-07T16:07:46+0200</time>
      </trkpt>
      <trkpt lat="45.41443" lon="2.95554">
        <ele>1220.200334</ele>
        <time>2021-07-07T16:07:48+0200</time>
      </trkpt>
      <trkpt lat="45.41439" lon="2.95548">
        <ele>1220.40082</ele>
        <time>2021-07-07T16:07:50+0200</time>
      </trkpt>
      <trkpt lat="45.41434" lon="2.95544">
        <ele>1221.25452</ele>
        <time>2021-07-07T16:07:52+0200</time>
      </trkpt>
      <trkpt lat="45.41429" lon="2.95538">
        <ele>1221.777192</ele>
        <time>2021-07-07T16:07:54+0200</time>
      </trkpt>
      <trkpt lat="45.41424" lon="2.95534">
        <ele>1222.070314</ele>
        <time>2021-07-07T16:07:56+0200</time>
      </trkpt>
      <trkpt lat="45.41419" lon="2.95527">
        <ele>1222.291979</ele>
        <time>2021-07-07T16:07:58+0200</time>
      </trkpt>
      <trkpt lat="45.41415" lon="2.95521">
        <ele>1222.895434</ele>
        <time>2021-07-07T16:08:00+0200</time>
      </trkpt>
      <trkpt lat="45.4141" lon="2.95514">
        <ele>1223.271532</ele>
        <time>2021-07-07T16:08:02+0200</time>
      </trkpt>
      <trkpt lat="45.41407" lon="2.95507">
        <ele>1224.120239</ele>
        <time>2021-07-07T16:08:04+0200</time>
      </trkpt>
      <trkpt lat="45.41403" lon="2.955">
        <ele>1224.104991</ele>
        <time>2021-07-07T16:08:06+0200</time>
      </trkpt>
      <trkpt lat="45.41399" lon="2.95492">
        <ele>1224.284013</ele>
        <time>2021-07-07T16:08:08+0200</time>
      </trkpt>
      <trkpt lat="45.41394" lon="2.95484">
        <ele>1224.471452</ele>
        <time>2021-07-07T16:08:10+0200</time>
      </trkpt>
      <trkpt lat="45.41391" lon="2.95477">
        <ele>1224.854561</ele>
        <time>2021-07-07T16:08:12+0200</time>
      </trkpt>
      <trkpt lat="45.41388" lon="2.95469">
        <ele>1225.113911</ele>
        <time>2021-07-07T16:08:14+0200</time>
      </trkpt>
      <trkpt lat="45.41384" lon="2.95462">
        <ele>1225.504568</ele>
        <time>2021-07-07T16:08:16+0200</time>
      </trkpt>
      <trkpt lat="45.41381" lon="2.95454">
        <ele>1225.909334</ele>
        <time>2021-07-07T16:08:18+0200</time>
      </trkpt>
      <trkpt lat="45.41378" lon="2.95449">
        <ele>1226.683469</ele>
        <time>2021-07-07T16:08:20+0200</time>
      </trkpt>
      <trkpt lat="45.41374" lon="2.95443">
        <ele>1226.845386</ele>
        <time>2021-07-07T16:08:22+0200</time>
      </trkpt>
      <trkpt lat="45.4137" lon="2.95433">
        <ele>1227.116764</ele>
        <time>2021-07-07T16:08:24+0200</time>
      </trkpt>
      <trkpt lat="45.41366" lon="2.95426">
        <ele>1227.703847</ele>
        <time>2021-07-07T16:08:26+0200</time>
      </trkpt>
      <trkpt lat="45.41362" lon="2.95419">
        <ele>1228.425886</ele>
        <time>2021-07-07T16:08:28+0200</time>
      </trkpt>
      <trkpt lat="45.41359" lon="2.95411">
        <ele>1228.443649</ele>
        <time>2021-07-07T16:08:30+0200</time>
      </trkpt>
      <trkpt lat="45.41355" lon="2.95404">
        <ele>1228.264035</ele>
        <time>2021-07-07T16:08:32+0200</time>
      </trkpt>
      <trkpt lat="45.41352" lon="2.95396">
        <ele>1228.2165</ele>
        <time>2021-07-07T16:08:34+0200</time>
      </trkpt>
      <trkpt lat="45.41347" lon="2.9539">
        <ele>1228.074013</ele>
        <time>2021-07-07T16:08:36+0200</time>
      </trkpt>
      <trkpt lat="45.41343" lon="2.95383">
        <ele>1227.969466</ele>
        <time>2021-07-07T16:08:38+0200</time>
      </trkpt>
      <trkpt lat="45.41339" lon="2.95375">
        <ele>1228.558953</ele>
        <time>2021-07-07T16:08:40+0200</time>
      </trkpt>
      <trkpt lat="45.41335" lon="2.95367">
        <ele>1228.695218</ele>
        <time>2021-07-07T16:08:42+0200</time>
      </trkpt>
      <trkpt lat="45.41331" lon="2.95359">
        <ele>1229.105328</ele>
        <time>2021-07-07T16:08:44+0200</time>
      </trkpt>
      <trkpt lat="45.41327" lon="2.95352">
        <ele>1229.407652</ele>
        <time>2021-07-07T16:08:46+0200</time>
      </trkpt>
      <trkpt lat="45.41323" lon="2.95343">
        <ele>1229.446132</ele>
        <time>2021-07-07T16:08:48+0200</time>
      </trkpt>
      <trkpt lat="45.41319" lon="2.95335">
        <ele>1229.330765</ele>
        <time>2021-07-07T16:08:50+0200</time>
      </trkpt>
      <trkpt lat="45.41314" lon="2.95326">
        <ele>1228.908223</ele>
        <time>2021-07-07T16:08:52+0200</time>
      </trkpt>
      <trkpt lat="45.4131" lon="2.95318">
        <ele>1228.796257</ele>
        <time>2021-07-07T16:08:54+0200</time>
      </trkpt>
      <trkpt lat="45.41305" lon="2.95308">
        <ele>1228.481214</ele>
        <time>2021-07-07T16:08:56+0200</time>
      </trkpt>
      <trkpt lat="45.41302" lon="2.95303">
        <ele>1228.297433</ele>
        <time>2021-07-07T16:08:57+0200</time>
      </trkpt>
      <trkpt lat="45.41298" lon="2.95297">
        <ele>1228.133668</ele>
        <time>2021-07-07T16:08:58+0200</time>
      </trkpt>
      <trkpt lat="45.41295" lon="2.95291">
        <ele>1227.705741</ele>
        <time>2021-07-07T16:08:59+0200</time>
      </trkpt>
      <trkpt lat="45.41292" lon="2.95286">
        <ele>1227.761769</ele>
        <time>2021-07-07T16:09:00+0200</time>
      </trkpt>
      <trkpt lat="45.41288" lon="2.9528">
        <ele>1227.868712</ele>
        <time>2021-07-07T16:09:01+0200</time>
      </trkpt>
      <trkpt lat="45.41283" lon="2.95274">
        <ele>1227.830952</ele>
        <time>2021-07-07T16:09:02+0200</time>
      </trkpt>
      <trkpt lat="45.41279" lon="2.95268">
        <ele>1227.673504</ele>
        <time>2021-07-07T16:09:03+0200</time>
      </trkpt>
      <trkpt lat="45.41274" lon="2.95262">
        <ele>1227.456935</ele>
        <time>2021-07-07T16:09:04+0200</time>
      </trkpt>
      <trkpt lat="45.41269" lon="2.95256">
        <ele>1227.162837</ele>
        <time>2021-07-07T16:09:05+0200</time>
      </trkpt>
      <trkpt lat="45.41264" lon="2.9525">
        <ele>1226.771856</ele>
        <time>2021-07-07T16:09:06+0200</time>
      </trkpt>
      <trkpt lat="45.41259" lon="2.95243">
        <ele>1226.347685</ele>
        <time>2021-07-07T16:09:07+0200</time>
      </trkpt>
      <trkpt lat="45.41253" lon="2.95237">
        <ele>1226.028392</ele>
        <time>2021-07-07T16:09:08+0200</time>
      </trkpt>
      <trkpt lat="45.41248" lon="2.95231">
        <ele>1225.994487</ele>
        <time>2021-07-07T16:09:09+0200</time>
      </trkpt>
      <trkpt lat="45.41242" lon="2.95226">
        <ele>1225.947743</ele>
        <time>2021-07-07T16:09:10+0200</time>
      </trkpt>
      <trkpt lat="45.41237" lon="2.95221">
        <ele>1225.75543</ele>
        <time>2021-07-07T16:09:11+0200</time>
      </trkpt>
      <trkpt lat="45.41232" lon="2.95215">
        <ele>1225.707792</ele>
        <time>2021-07-07T16:09:12+0200</time>
      </trkpt>
      <trkpt lat="45.41227" lon="2.9521">
        <ele>1225.916136</ele>
        <time>2021-07-07T16:09:13+0200</time>
      </trkpt>
      <trkpt lat="45.41221" lon="2.95206">
        <ele>1226.287448</ele>
        <time>2021-07-07T16:09:14+0200</time>
      </trkpt>
      <trkpt lat="45.41217" lon="2.95202">
        <ele>1226.158379</ele>
        <time>2021-07-07T16:09:15+0200</time>
      </trkpt>
      <trkpt lat="45.41212" lon="2.95197">
        <ele>1226.328261</ele>
        <time>2021-07-07T16:09:16+0200</time>
      </trkpt>
      <trkpt lat="45.41209" lon="2.95193">
        <ele>1226.473539</ele>
        <time>2021-07-07T16:09:17+0200</time>
      </trkpt>
      <trkpt lat="45.41205" lon="2.95189">
        <ele>1226.378655</ele>
        <time>2021-07-07T16:09:18+0200</time>
      </trkpt>
      <trkpt lat="45.41201" lon="2.95186">
        <ele>1226.39754</ele>
        <time>2021-07-07T16:09:19+0200</time>
      </trkpt>
      <trkpt lat="45.41197" lon="2.95182">
        <ele>1226.677384</ele>
        <time>2021-07-07T16:09:20+0200</time>
      </trkpt>
      <trkpt lat="45.41193" lon="2.95179">
        <ele>1226.839748</ele>
        <time>2021-07-07T16:09:21+0200</time>
      </trkpt>
      <trkpt lat="45.41185" lon="2.95173">
        <ele>1227.002214</ele>
        <time>2021-07-07T16:09:23+0200</time>
      </trkpt>
      <trkpt lat="45.41177" lon="2.95165">
        <ele>1226.907599</ele>
        <time>2021-07-07T16:09:25+0200</time>
      </trkpt>
      <trkpt lat="45.41174" lon="2.95161">
        <ele>1226.979163</ele>
        <time>2021-07-07T16:09:26+0200</time>
      </trkpt>
      <trkpt lat="45.41172" lon="2.95155">
        <ele>1226.649145</ele>
        <time>2021-07-07T16:09:27+0200</time>
      </trkpt>
      <trkpt lat="45.4117" lon="2.95149">
        <ele>1226.046738</ele>
        <time>2021-07-07T16:09:28+0200</time>
      </trkpt>
      <trkpt lat="45.41168" lon="2.95142">
        <ele>1225.708401</ele>
        <time>2021-07-07T16:09:29+0200</time>
      </trkpt>
      <trkpt lat="45.41167" lon="2.95135">
        <ele>1225.156602</ele>
        <time>2021-07-07T16:09:30+0200</time>
      </trkpt>
      <trkpt lat="45.41166" lon="2.95126">
        <ele>1224.641217</ele>
        <time>2021-07-07T16:09:31+0200</time>
      </trkpt>
      <trkpt lat="45.41164" lon="2.95118">
        <ele>1223.891988</ele>
        <time>2021-07-07T16:09:32+0200</time>
      </trkpt>
      <trkpt lat="45.41162" lon="2.95109">
        <ele>1223.08429</ele>
        <time>2021-07-07T16:09:33+0200</time>
      </trkpt>
      <trkpt lat="45.41161" lon="2.95099">
        <ele>1222.089732</ele>
        <time>2021-07-07T16:09:34+0200</time>
      </trkpt>
      <trkpt lat="45.41159" lon="2.95089">
        <ele>1221.232331</ele>
        <time>2021-07-07T16:09:35+0200</time>
      </trkpt>
      <trkpt lat="45.41158" lon="2.95077">
        <ele>1220.295149</ele>
        <time>2021-07-07T16:09:36+0200</time>
      </trkpt>
      <trkpt lat="45.41156" lon="2.95065">
        <ele>1219.181134</ele>
        <time>2021-07-07T16:09:37+0200</time>
      </trkpt>
      <trkpt lat="45.41154" lon="2.95052">
        <ele>1218.116413</ele>
        <time>2021-07-07T16:09:38+0200</time>
      </trkpt>
      <trkpt lat="45.41152" lon="2.95038">
        <ele>1217.040492</ele>
        <time>2021-07-07T16:09:39+0200</time>
      </trkpt>
      <trkpt lat="45.4115" lon="2.95024">
        <ele>1215.942629</ele>
        <time>2021-07-07T16:09:40+0200</time>
      </trkpt>
      <trkpt lat="45.41149" lon="2.95009">
        <ele>1215.440712</ele>
        <time>2021-07-07T16:09:41+0200</time>
      </trkpt>
      <trkpt lat="45.41146" lon="2.94995">
        <ele>1214.854068</ele>
        <time>2021-07-07T16:09:42+0200</time>
      </trkpt>
      <trkpt lat="45.41144" lon="2.94981">
        <ele>1214.278843</ele>
        <time>2021-07-07T16:09:43+0200</time>
      </trkpt>
      <trkpt lat="45.41143" lon="2.94968">
        <ele>1214.138219</ele>
        <time>2021-07-07T16:09:44+0200</time>
      </trkpt>
      <trkpt lat="45.41141" lon="2.94955">
        <ele>1214.30598</ele>
        <time>2021-07-07T16:09:45+0200</time>
      </trkpt>
      <trkpt lat="45.4114" lon="2.94943">
        <ele>1213.942974</ele>
        <time>2021-07-07T16:09:46+0200</time>
      </trkpt>
      <trkpt lat="45.4114" lon="2.9493">
        <ele>1213.563193</ele>
        <time>2021-07-07T16:09:47+0200</time>
      </trkpt>
      <trkpt lat="45.41142" lon="2.94919">
        <ele>1213.276375</ele>
        <time>2021-07-07T16:09:48+0200</time>
      </trkpt>
      <trkpt lat="45.41146" lon="2.94909">
        <ele>1212.976681</ele>
        <time>2021-07-07T16:09:49+0200</time>
      </trkpt>
      <trkpt lat="45.41151" lon="2.94899">
        <ele>1213.070512</ele>
        <time>2021-07-07T16:09:50+0200</time>
      </trkpt>
      <trkpt lat="45.41154" lon="2.9489">
        <ele>1213.02788</ele>
        <time>2021-07-07T16:09:51+0200</time>
      </trkpt>
      <trkpt lat="45.41157" lon="2.94881">
        <ele>1213.08477</ele>
        <time>2021-07-07T16:09:52+0200</time>
      </trkpt>
      <trkpt lat="45.41161" lon="2.94873">
        <ele>1213.060181</ele>
        <time>2021-07-07T16:09:53+0200</time>
      </trkpt>
      <trkpt lat="45.41163" lon="2.94864">
        <ele>1212.967618</ele>
        <time>2021-07-07T16:09:54+0200</time>
      </trkpt>
      <trkpt lat="45.41165" lon="2.94856">
        <ele>1213.00837</ele>
        <time>2021-07-07T16:09:55+0200</time>
      </trkpt>
      <trkpt lat="45.41167" lon="2.94849">
        <ele>1213.131919</ele>
        <time>2021-07-07T16:09:56+0200</time>
      </trkpt>
      <trkpt lat="45.41169" lon="2.94842">
        <ele>1213.077194</ele>
        <time>2021-07-07T16:09:57+0200</time>
      </trkpt>
      <trkpt lat="45.41171" lon="2.94835">
        <ele>1212.919296</ele>
        <time>2021-07-07T16:09:58+0200</time>
      </trkpt>
      <trkpt lat="45.41172" lon="2.94828">
        <ele>1212.845696</ele>
        <time>2021-07-07T16:09:59+0200</time>
      </trkpt>
      <trkpt lat="45.41174" lon="2.94822">
        <ele>1212.926942</ele>
        <time>2021-07-07T16:10:00+0200</time>
      </trkpt>
      <trkpt lat="45.41176" lon="2.94815">
        <ele>1212.96091</ele>
        <time>2021-07-07T16:10:01+0200</time>
      </trkpt>
      <trkpt lat="45.41177" lon="2.94808">
        <ele>1212.852821</ele>
        <time>2021-07-07T16:10:02+0200</time>
      </trkpt>
      <trkpt lat="45.41179" lon="2.94801">
        <ele>1212.835915</ele>
        <time>2021-07-07T16:10:03+0200</time>
      </trkpt>
      <trkpt lat="45.4118" lon="2.94794">
        <ele>1212.907722</ele>
        <time>2021-07-07T16:10:04+0200</time>
      </trkpt>
      <trkpt lat="45.41182" lon="2.94788">
        <ele>1212.700153</ele>
        <time>2021-07-07T16:10:05+0200</time>
      </trkpt>
      <trkpt lat="45.41184" lon="2.94781">
        <ele>1212.590766</ele>
        <time>2021-07-07T16:10:06+0200</time>
      </trkpt>
      <trkpt lat="45.41185" lon="2.94774">
        <ele>1212.341707</ele>
        <time>2021-07-07T16:10:07+0200</time>
      </trkpt>
      <trkpt lat="45.41186" lon="2.94767">
        <ele>1212.1328</ele>
        <time>2021-07-07T16:10:08+0200</time>
      </trkpt>
      <trkpt lat="45.41188" lon="2.94761">
        <ele>1212.052066</ele>
        <time>2021-07-07T16:10:09+0200</time>
      </trkpt>
      <trkpt lat="45.4119" lon="2.94754">
        <ele>1212.030106</ele>
        <time>2021-07-07T16:10:10+0200</time>
      </trkpt>
      <trkpt lat="45.41191" lon="2.94747">
        <ele>1212.024192</ele>
        <time>2021-07-07T16:10:11+0200</time>
      </trkpt>
      <trkpt lat="45.41193" lon="2.9474">
        <ele>1212.02729</ele>
        <time>2021-07-07T16:10:12+0200</time>
      </trkpt>
      <trkpt lat="45.41195" lon="2.94733">
        <ele>1211.772787</ele>
        <time>2021-07-07T16:10:13+0200</time>
      </trkpt>
      <trkpt lat="45.41197" lon="2.94726">
        <ele>1211.469349</ele>
        <time>2021-07-07T16:10:14+0200</time>
      </trkpt>
      <trkpt lat="45.412" lon="2.94718">
        <ele>1211.181196</ele>
        <time>2021-07-07T16:10:15+0200</time>
      </trkpt>
      <trkpt lat="45.41202" lon="2.94712">
        <ele>1211.099121</ele>
        <time>2021-07-07T16:10:16+0200</time>
      </trkpt>
      <trkpt lat="45.41204" lon="2.94705">
        <ele>1211.022466</ele>
        <time>2021-07-07T16:10:17+0200</time>
      </trkpt>
      <trkpt lat="45.41207" lon="2.94698">
        <ele>1211.130718</ele>
        <time>2021-07-07T16:10:18+0200</time>
      </trkpt>
      <trkpt lat="45.41209" lon="2.94692">
        <ele>1210.958931</ele>
        <time>2021-07-07T16:10:19+0200</time>
      </trkpt>
      <trkpt lat="45.41213" lon="2.94681">
        <ele>1210.756219</ele>
        <time>2021-07-07T16:10:21+0200</time>
      </trkpt>
      <trkpt lat="45.41217" lon="2.94672">
        <ele>1210.637534</ele>
        <time>2021-07-07T16:10:23+0200</time>
      </trkpt>
      <trkpt lat="45.41214" lon="2.94668">
        <ele>1211.211714</ele>
        <time>2021-07-07T16:10:30+0200</time>
      </trkpt>
      <trkpt lat="45.41209" lon="2.94666">
        <ele>1212.054068</ele>
        <time>2021-07-07T16:10:34+0200</time>
      </trkpt>
      <trkpt lat="45.41205" lon="2.94663">
        <ele>1212.721435</ele>
        <time>2021-07-07T16:10:37+0200</time>
      </trkpt>
      <trkpt lat="45.412" lon="2.94658">
        <ele>1213.17607</ele>
        <time>2021-07-07T16:10:40+0200</time>
      </trkpt>
      <trkpt lat="45.41195" lon="2.94654">
        <ele>1214.523269</ele>
        <time>2021-07-07T16:10:43+0200</time>
      </trkpt>
      <trkpt lat="45.4119" lon="2.94649">
        <ele>1215.666481</ele>
        <time>2021-07-07T16:10:46+0200</time>
      </trkpt>
      <trkpt lat="45.41185" lon="2.94646">
        <ele>1215.946757</ele>
        <time>2021-07-07T16:10:49+0200</time>
      </trkpt>
      <trkpt lat="45.41181" lon="2.94642">
        <ele>1217.172512</ele>
        <time>2021-07-07T16:10:52+0200</time>
      </trkpt>
      <trkpt lat="45.41176" lon="2.94639">
        <ele>1217.496113</ele>
        <time>2021-07-07T16:10:55+0200</time>
      </trkpt>
      <trkpt lat="45.41171" lon="2.94636">
        <ele>1218.806525</ele>
        <time>2021-07-07T16:10:59+0200</time>
      </trkpt>
      <trkpt lat="45.41166" lon="2.94632">
        <ele>1219.000955</ele>
        <time>2021-07-07T16:11:02+0200</time>
      </trkpt>
      <trkpt lat="45.41162" lon="2.9463">
        <ele>1219.636291</ele>
        <time>2021-07-07T16:11:05+0200</time>
      </trkpt>
      <trkpt lat="45.41157" lon="2.94627">
        <ele>1220.143651</ele>
        <time>2021-07-07T16:11:08+0200</time>
      </trkpt>
      <trkpt lat="45.41153" lon="2.94623">
        <ele>1220.990466</ele>
        <time>2021-07-07T16:11:11+0200</time>
      </trkpt>
      <trkpt lat="45.41149" lon="2.94621">
        <ele>1221.963251</ele>
        <time>2021-07-07T16:11:15+0200</time>
      </trkpt>
      <trkpt lat="45.41144" lon="2.94618">
        <ele>1223.030557</ele>
        <time>2021-07-07T16:11:18+0200</time>
      </trkpt>
      <trkpt lat="45.41139" lon="2.94613">
        <ele>1223.683656</ele>
        <time>2021-07-07T16:11:22+0200</time>
      </trkpt>
      <trkpt lat="45.41134" lon="2.94611">
        <ele>1224.637811</ele>
        <time>2021-07-07T16:11:27+0200</time>
      </trkpt>
      <trkpt lat="45.41129" lon="2.94607">
        <ele>1225.254526</ele>
        <time>2021-07-07T16:11:30+0200</time>
      </trkpt>
      <trkpt lat="45.41124" lon="2.94603">
        <ele>1226.034675</ele>
        <time>2021-07-07T16:11:34+0200</time>
      </trkpt>
      <trkpt lat="45.4112" lon="2.94599">
        <ele>1227.211961</ele>
        <time>2021-07-07T16:11:38+0200</time>
      </trkpt>
      <trkpt lat="45.41116" lon="2.94596">
        <ele>1227.719652</ele>
        <time>2021-07-07T16:11:41+0200</time>
      </trkpt>
      <trkpt lat="45.41111" lon="2.94593">
        <ele>1228.892219</ele>
        <time>2021-07-07T16:11:45+0200</time>
      </trkpt>
      <trkpt lat="45.41107" lon="2.9459">
        <ele>1230.005987</ele>
        <time>2021-07-07T16:11:48+0200</time>
      </trkpt>
      <trkpt lat="45.41103" lon="2.94587">
        <ele>1230.195983</ele>
        <time>2021-07-07T16:11:52+0200</time>
      </trkpt>
      <trkpt lat="45.41098" lon="2.94584">
        <ele>1231.051817</ele>
        <time>2021-07-07T16:11:56+0200</time>
      </trkpt>
      <trkpt lat="45.41094" lon="2.94579">
        <ele>1231.813398</ele>
        <time>2021-07-07T16:12:00+0200</time>
      </trkpt>
      <trkpt lat="45.41089" lon="2.94576">
        <ele>1232.976191</ele>
        <time>2021-07-07T16:12:04+0200</time>
      </trkpt>
      <trkpt lat="45.41085" lon="2.94572">
        <ele>1234.187272</ele>
        <time>2021-07-07T16:12:09+0200</time>
      </trkpt>
      <trkpt lat="45.4108" lon="2.9457">
        <ele>1235.155498</ele>
        <time>2021-07-07T16:12:12+0200</time>
      </trkpt>
      <trkpt lat="45.41075" lon="2.94567">
        <ele>1235.601666</ele>
        <time>2021-07-07T16:12:16+0200</time>
      </trkpt>
      <trkpt lat="45.41071" lon="2.94564">
        <ele>1235.826742</ele>
        <time>2021-07-07T16:12:20+0200</time>
      </trkpt>
      <trkpt lat="45.41066" lon="2.94561">
        <ele>1236.265533</ele>
        <time>2021-07-07T16:12:24+0200</time>
      </trkpt>
      <trkpt lat="45.41062" lon="2.94557">
        <ele>1236.747222</ele>
        <time>2021-07-07T16:12:28+0200</time>
      </trkpt>
      <trkpt lat="45.41056" lon="2.94557">
        <ele>1237.078989</ele>
        <time>2021-07-07T16:15:29+0200</time>
      </trkpt>
      <trkpt lat="45.41051" lon="2.94554">
        <ele>1237.737991</ele>
        <time>2021-07-07T16:15:32+0200</time>
      </trkpt>
      <trkpt lat="45.41045" lon="2.94551">
        <ele>1238.394185</ele>
        <time>2021-07-07T16:15:35+0200</time>
      </trkpt>
      <trkpt lat="45.41039" lon="2.94548">
        <ele>1239.513215</ele>
        <time>2021-07-07T16:15:38+0200</time>
      </trkpt>
      <trkpt lat="45.41034" lon="2.94543">
        <ele>1240.363052</ele>
        <time>2021-07-07T16:15:41+0200</time>
      </trkpt>
      <trkpt lat="45.41029" lon="2.9454">
        <ele>1240.518754</ele>
        <time>2021-07-07T16:15:44+0200</time>
      </trkpt>
      <trkpt lat="45.41025" lon="2.94538">
        <ele>1240.67974</ele>
        <time>2021-07-07T16:15:47+0200</time>
      </trkpt>
      <trkpt lat="45.4102" lon="2.94535">
        <ele>1240.864693</ele>
        <time>2021-07-07T16:15:50+0200</time>
      </trkpt>
      <trkpt lat="45.41015" lon="2.94531">
        <ele>1241.168953</ele>
        <time>2021-07-07T16:15:53+0200</time>
      </trkpt>
      <trkpt lat="45.4101" lon="2.94527">
        <ele>1240.462437</ele>
        <time>2021-07-07T16:15:56+0200</time>
      </trkpt>
      <trkpt lat="45.41004" lon="2.94523">
        <ele>1241.252024</ele>
        <time>2021-07-07T16:15:59+0200</time>
      </trkpt>
      <trkpt lat="45.41" lon="2.9452">
        <ele>1241.22641</ele>
        <time>2021-07-07T16:16:01+0200</time>
      </trkpt>
      <trkpt lat="45.40996" lon="2.94516">
        <ele>1241.236318</ele>
        <time>2021-07-07T16:16:03+0200</time>
      </trkpt>
      <trkpt lat="45.4099" lon="2.94512">
        <ele>1242.131347</ele>
        <time>2021-07-07T16:16:06+0200</time>
      </trkpt>
      <trkpt lat="45.40984" lon="2.94509">
        <ele>1242.838591</ele>
        <time>2021-07-07T16:16:09+0200</time>
      </trkpt>
      <trkpt lat="45.40981" lon="2.94505">
        <ele>1243.235048</ele>
        <time>2021-07-07T16:16:11+0200</time>
      </trkpt>
      <trkpt lat="45.40975" lon="2.94501">
        <ele>1243.760827</ele>
        <time>2021-07-07T16:16:14+0200</time>
      </trkpt>
      <trkpt lat="45.40971" lon="2.94497">
        <ele>1243.445325</ele>
        <time>2021-07-07T16:16:16+0200</time>
      </trkpt>
      <trkpt lat="45.40966" lon="2.94493">
        <ele>1243.598171</ele>
        <time>2021-07-07T16:16:18+0200</time>
      </trkpt>
      <trkpt lat="45.4096" lon="2.94489">
        <ele>1244.2342</ele>
        <time>2021-07-07T16:16:21+0200</time>
      </trkpt>
      <trkpt lat="45.40956" lon="2.94486">
        <ele>1244.503619</ele>
        <time>2021-07-07T16:16:23+0200</time>
      </trkpt>
      <trkpt lat="45.40952" lon="2.94483">
        <ele>1244.868126</ele>
        <time>2021-07-07T16:16:25+0200</time>
      </trkpt>
      <trkpt lat="45.40947" lon="2.9448">
        <ele>1245.122827</ele>
        <time>2021-07-07T16:16:27+0200</time>
      </trkpt>
      <trkpt lat="45.40941" lon="2.94476">
        <ele>1245.465155</ele>
        <time>2021-07-07T16:16:30+0200</time>
      </trkpt>
      <trkpt lat="45.40936" lon="2.94472">
        <ele>1245.618651</ele>
        <time>2021-07-07T16:16:32+0200</time>
      </trkpt>
      <trkpt lat="45.40932" lon="2.94469">
        <ele>1245.7685</ele>
        <time>2021-07-07T16:16:34+0200</time>
      </trkpt>
      <trkpt lat="45.40927" lon="2.94466">
        <ele>1246.065158</ele>
        <time>2021-07-07T16:16:36+0200</time>
      </trkpt>
      <trkpt lat="45.40923" lon="2.94462">
        <ele>1246.530221</ele>
        <time>2021-07-07T16:16:38+0200</time>
      </trkpt>
      <trkpt lat="45.40919" lon="2.94459">
        <ele>1247.118651</ele>
        <time>2021-07-07T16:16:40+0200</time>
      </trkpt>
      <trkpt lat="45.40914" lon="2.94456">
        <ele>1247.405918</ele>
        <time>2021-07-07T16:16:42+0200</time>
      </trkpt>
      <trkpt lat="45.40909" lon="2.94453">
        <ele>1247.683003</ele>
        <time>2021-07-07T16:16:44+0200</time>
      </trkpt>
      <trkpt lat="45.40904" lon="2.9445">
        <ele>1247.832027</ele>
        <time>2021-07-07T16:16:46+0200</time>
      </trkpt>
      <trkpt lat="45.40898" lon="2.94446">
        <ele>1247.932505</ele>
        <time>2021-07-07T16:16:48+0200</time>
      </trkpt>
      <trkpt lat="45.40893" lon="2.94442">
        <ele>1248.324017</ele>
        <time>2021-07-07T16:16:50+0200</time>
      </trkpt>
      <trkpt lat="45.40888" lon="2.94439">
        <ele>1248.654456</ele>
        <time>2021-07-07T16:16:52+0200</time>
      </trkpt>
      <trkpt lat="45.40883" lon="2.94435">
        <ele>1248.538318</ele>
        <time>2021-07-07T16:16:54+0200</time>
      </trkpt>
      <trkpt lat="45.40878" lon="2.94431">
        <ele>1248.68198</ele>
        <time>2021-07-07T16:16:56+0200</time>
      </trkpt>
      <trkpt lat="45.40873" lon="2.94426">
        <ele>1248.887766</ele>
        <time>2021-07-07T16:16:58+0200</time>
      </trkpt>
      <trkpt lat="45.40867" lon="2.94422">
        <ele>1248.915964</ele>
        <time>2021-07-07T16:17:00+0200</time>
      </trkpt>
      <trkpt lat="45.40862" lon="2.94418">
        <ele>1249.273144</ele>
        <time>2021-07-07T16:17:02+0200</time>
      </trkpt>
      <trkpt lat="45.40856" lon="2.94414">
        <ele>1249.342627</ele>
        <time>2021-07-07T16:17:04+0200</time>
      </trkpt>
      <trkpt lat="45.4085" lon="2.9441">
        <ele>1249.461561</ele>
        <time>2021-07-07T16:17:06+0200</time>
      </trkpt>
      <trkpt lat="45.40844" lon="2.94406">
        <ele>1249.518371</ele>
        <time>2021-07-07T16:17:08+0200</time>
      </trkpt>
      <trkpt lat="45.40838" lon="2.94402">
        <ele>1249.700268</ele>
        <time>2021-07-07T16:17:10+0200</time>
      </trkpt>
      <trkpt lat="45.40831" lon="2.94397">
        <ele>1249.850294</ele>
        <time>2021-07-07T16:17:12+0200</time>
      </trkpt>
      <trkpt lat="45.40825" lon="2.94392">
        <ele>1250.023981</ele>
        <time>2021-07-07T16:17:14+0200</time>
      </trkpt>
      <trkpt lat="45.40819" lon="2.94388">
        <ele>1250.382368</ele>
        <time>2021-07-07T16:17:16+0200</time>
      </trkpt>
      <trkpt lat="45.40813" lon="2.94384">
        <ele>1250.262176</ele>
        <time>2021-07-07T16:17:18+0200</time>
      </trkpt>
      <trkpt lat="45.40808" lon="2.9438">
        <ele>1250.721826</ele>
        <time>2021-07-07T16:17:20+0200</time>
      </trkpt>
      <trkpt lat="45.40803" lon="2.94377">
        <ele>1251.616185</ele>
        <time>2021-07-07T16:17:22+0200</time>
      </trkpt>
      <trkpt lat="45.40799" lon="2.94373">
        <ele>1252.211744</ele>
        <time>2021-07-07T16:17:24+0200</time>
      </trkpt>
      <trkpt lat="45.40793" lon="2.94369">
        <ele>1252.425769</ele>
        <time>2021-07-07T16:17:26+0200</time>
      </trkpt>
      <trkpt lat="45.40788" lon="2.94365">
        <ele>1252.967376</ele>
        <time>2021-07-07T16:17:28+0200</time>
      </trkpt>
      <trkpt lat="45.40783" lon="2.94361">
        <ele>1253.647978</ele>
        <time>2021-07-07T16:17:30+0200</time>
      </trkpt>
      <trkpt lat="45.40778" lon="2.94358">
        <ele>1254.078738</ele>
        <time>2021-07-07T16:17:32+0200</time>
      </trkpt>
      <trkpt lat="45.40773" lon="2.94355">
        <ele>1254.680865</ele>
        <time>2021-07-07T16:17:34+0200</time>
      </trkpt>
      <trkpt lat="45.40768" lon="2.94351">
        <ele>1255.011169</ele>
        <time>2021-07-07T16:17:36+0200</time>
      </trkpt>
      <trkpt lat="45.40763" lon="2.94347">
        <ele>1254.686464</ele>
        <time>2021-07-07T16:17:38+0200</time>
      </trkpt>
      <trkpt lat="45.40757" lon="2.94343">
        <ele>1254.299321</ele>
        <time>2021-07-07T16:17:40+0200</time>
      </trkpt>
      <trkpt lat="45.40752" lon="2.94339">
        <ele>1254.411384</ele>
        <time>2021-07-07T16:17:42+0200</time>
      </trkpt>
      <trkpt lat="45.40746" lon="2.94335">
        <ele>1254.546448</ele>
        <time>2021-07-07T16:17:44+0200</time>
      </trkpt>
      <trkpt lat="45.40741" lon="2.94332">
        <ele>1254.850683</ele>
        <time>2021-07-07T16:17:46+0200</time>
      </trkpt>
      <trkpt lat="45.40736" lon="2.94328">
        <ele>1255.357994</ele>
        <time>2021-07-07T16:17:48+0200</time>
      </trkpt>
      <trkpt lat="45.40732" lon="2.94325">
        <ele>1256.053044</ele>
        <time>2021-07-07T16:17:50+0200</time>
      </trkpt>
      <trkpt lat="45.40727" lon="2.94321">
        <ele>1256.531009</ele>
        <time>2021-07-07T16:17:52+0200</time>
      </trkpt>
      <trkpt lat="45.40722" lon="2.94318">
        <ele>1257.413823</ele>
        <time>2021-07-07T16:17:54+0200</time>
      </trkpt>
      <trkpt lat="45.40718" lon="2.94315">
        <ele>1257.881757</ele>
        <time>2021-07-07T16:17:56+0200</time>
      </trkpt>
      <trkpt lat="45.40713" lon="2.94311">
        <ele>1258.576529</ele>
        <time>2021-07-07T16:17:59+0200</time>
      </trkpt>
      <trkpt lat="45.40708" lon="2.94308">
        <ele>1259.398234</ele>
        <time>2021-07-07T16:18:02+0200</time>
      </trkpt>
      <trkpt lat="45.40704" lon="2.94305">
        <ele>1259.596907</ele>
        <time>2021-07-07T16:18:04+0200</time>
      </trkpt>
      <trkpt lat="45.40699" lon="2.94302">
        <ele>1260.034032</ele>
        <time>2021-07-07T16:18:07+0200</time>
      </trkpt>
      <trkpt lat="45.40693" lon="2.94298">
        <ele>1260.211074</ele>
        <time>2021-07-07T16:18:10+0200</time>
      </trkpt>
      <trkpt lat="45.40688" lon="2.94293">
        <ele>1261.387502</ele>
        <time>2021-07-07T16:18:13+0200</time>
      </trkpt>
      <trkpt lat="45.40682" lon="2.94289">
        <ele>1262.206517</ele>
        <time>2021-07-07T16:18:16+0200</time>
      </trkpt>
      <trkpt lat="45.40677" lon="2.94285">
        <ele>1263.008537</ele>
        <time>2021-07-07T16:18:19+0200</time>
      </trkpt>
      <trkpt lat="45.40671" lon="2.94281">
        <ele>1263.905936</ele>
        <time>2021-07-07T16:18:22+0200</time>
      </trkpt>
      <trkpt lat="45.40666" lon="2.94277">
        <ele>1264.578752</ele>
        <time>2021-07-07T16:18:25+0200</time>
      </trkpt>
      <trkpt lat="45.40659" lon="2.94274">
        <ele>1264.942983</ele>
        <time>2021-07-07T16:18:28+0200</time>
      </trkpt>
      <trkpt lat="45.40655" lon="2.9427">
        <ele>1265.468888</ele>
        <time>2021-07-07T16:18:30+0200</time>
      </trkpt>
      <trkpt lat="45.4065" lon="2.94264">
        <ele>1266.261183</ele>
        <time>2021-07-07T16:18:33+0200</time>
      </trkpt>
      <trkpt lat="45.40645" lon="2.94261">
        <ele>1266.574136</ele>
        <time>2021-07-07T16:18:35+0200</time>
      </trkpt>
      <trkpt lat="45.40638" lon="2.94258">
        <ele>1267.20141</ele>
        <time>2021-07-07T16:18:38+0200</time>
      </trkpt>
      <trkpt lat="45.40633" lon="2.94254">
        <ele>1267.34066</ele>
        <time>2021-07-07T16:18:40+0200</time>
      </trkpt>
      <trkpt lat="45.40628" lon="2.94251">
        <ele>1267.239168</ele>
        <time>2021-07-07T16:18:42+0200</time>
      </trkpt>
      <trkpt lat="45.40621" lon="2.94247">
        <ele>1267.501088</ele>
        <time>2021-07-07T16:18:44+0200</time>
      </trkpt>
      <trkpt lat="45.40616" lon="2.94243">
        <ele>1268.057441</ele>
        <time>2021-07-07T16:18:46+0200</time>
      </trkpt>
      <trkpt lat="45.4061" lon="2.94239">
        <ele>1268.060264</ele>
        <time>2021-07-07T16:18:48+0200</time>
      </trkpt>
      <trkpt lat="45.40605" lon="2.94235">
        <ele>1268.310366</ele>
        <time>2021-07-07T16:18:50+0200</time>
      </trkpt>
      <trkpt lat="45.40599" lon="2.94231">
        <ele>1268.758831</ele>
        <time>2021-07-07T16:18:52+0200</time>
      </trkpt>
      <trkpt lat="45.40594" lon="2.94227">
        <ele>1269.40138</ele>
        <time>2021-07-07T16:18:54+0200</time>
      </trkpt>
      <trkpt lat="45.40589" lon="2.94224">
        <ele>1269.770663</ele>
        <time>2021-07-07T16:18:56+0200</time>
      </trkpt>
      <trkpt lat="45.40584" lon="2.94219">
        <ele>1270.235134</ele>
        <time>2021-07-07T16:18:58+0200</time>
      </trkpt>
      <trkpt lat="45.4058" lon="2.94216">
        <ele>1270.883109</ele>
        <time>2021-07-07T16:19:00+0200</time>
      </trkpt>
      <trkpt lat="45.40575" lon="2.94213">
        <ele>1271.141775</ele>
        <time>2021-07-07T16:19:02+0200</time>
      </trkpt>
      <trkpt lat="45.40571" lon="2.94209">
        <ele>1271.143791</ele>
        <time>2021-07-07T16:19:04+0200</time>
      </trkpt>
      <trkpt lat="45.40567" lon="2.94206">
        <ele>1271.077318</ele>
        <time>2021-07-07T16:19:06+0200</time>
      </trkpt>
      <trkpt lat="45.40562" lon="2.94202">
        <ele>1271.165051</ele>
        <time>2021-07-07T16:19:08+0200</time>
      </trkpt>
      <trkpt lat="45.40557" lon="2.94199">
        <ele>1271.330752</ele>
        <time>2021-07-07T16:19:10+0200</time>
      </trkpt>
      <trkpt lat="45.40553" lon="2.94195">
        <ele>1271.50107</ele>
        <time>2021-07-07T16:19:12+0200</time>
      </trkpt>
      <trkpt lat="45.40548" lon="2.94191">
        <ele>1271.519764</ele>
        <time>2021-07-07T16:19:14+0200</time>
      </trkpt>
      <trkpt lat="45.40542" lon="2.94187">
        <ele>1271.365696</ele>
        <time>2021-07-07T16:19:16+0200</time>
      </trkpt>
      <trkpt lat="45.40537" lon="2.94182">
        <ele>1271.476633</ele>
        <time>2021-07-07T16:19:18+0200</time>
      </trkpt>
      <trkpt lat="45.4053" lon="2.94176">
        <ele>1271.242492</ele>
        <time>2021-07-07T16:19:20+0200</time>
      </trkpt>
      <trkpt lat="45.40523" lon="2.94171">
        <ele>1270.75795</ele>
        <time>2021-07-07T16:19:22+0200</time>
      </trkpt>
      <trkpt lat="45.40515" lon="2.94166">
        <ele>1269.742526</ele>
        <time>2021-07-07T16:19:24+0200</time>
      </trkpt>
      <trkpt lat="45.4051" lon="2.94163">
        <ele>1269.053802</ele>
        <time>2021-07-07T16:19:26+0200</time>
      </trkpt>
      <trkpt lat="45.40509" lon="2.94156">
        <ele>1268.539925</ele>
        <time>2021-07-07T16:19:41+0200</time>
      </trkpt>
      <trkpt lat="45.40504" lon="2.94157">
        <ele>1268.612807</ele>
        <time>2021-07-07T16:19:54+0200</time>
      </trkpt>
      <trkpt lat="45.405" lon="2.94161">
        <ele>1268.108295</ele>
        <time>2021-07-07T16:19:56+0200</time>
      </trkpt>
      <trkpt lat="45.40495" lon="2.94161">
        <ele>1268.173718</ele>
        <time>2021-07-07T16:21:13+0200</time>
      </trkpt>
      <trkpt lat="45.40491" lon="2.94166">
        <ele>1267.667471</ele>
        <time>2021-07-07T16:21:15+0200</time>
      </trkpt>
      <trkpt lat="45.40486" lon="2.94169">
        <ele>1266.805802</ele>
        <time>2021-07-07T16:21:17+0200</time>
      </trkpt>
      <trkpt lat="45.4048" lon="2.94175">
        <ele>1266.437229</ele>
        <time>2021-07-07T16:21:19+0200</time>
      </trkpt>
      <trkpt lat="45.40473" lon="2.94184">
        <ele>1265.364716</ele>
        <time>2021-07-07T16:21:21+0200</time>
      </trkpt>
      <trkpt lat="45.40469" lon="2.94188">
        <ele>1265.139527</ele>
        <time>2021-07-07T16:21:22+0200</time>
      </trkpt>
      <trkpt lat="45.40464" lon="2.94193">
        <ele>1264.75583</ele>
        <time>2021-07-07T16:21:23+0200</time>
      </trkpt>
      <trkpt lat="45.4046" lon="2.94198">
        <ele>1264.528976</ele>
        <time>2021-07-07T16:21:24+0200</time>
      </trkpt>
      <trkpt lat="45.40455" lon="2.94204">
        <ele>1263.861181</ele>
        <time>2021-07-07T16:21:25+0200</time>
      </trkpt>
      <trkpt lat="45.4045" lon="2.94211">
        <ele>1262.842162</ele>
        <time>2021-07-07T16:21:26+0200</time>
      </trkpt>
      <trkpt lat="45.40445" lon="2.9422">
        <ele>1261.86734</ele>
        <time>2021-07-07T16:21:27+0200</time>
      </trkpt>
      <trkpt lat="45.40438" lon="2.94229">
        <ele>1260.553746</ele>
        <time>2021-07-07T16:21:28+0200</time>
      </trkpt>
      <trkpt lat="45.40431" lon="2.94238">
        <ele>1259.353251</ele>
        <time>2021-07-07T16:21:29+0200</time>
      </trkpt>
      <trkpt lat="45.40424" lon="2.94248">
        <ele>1258.194901</ele>
        <time>2021-07-07T16:21:30+0200</time>
      </trkpt>
      <trkpt lat="45.40417" lon="2.94258">
        <ele>1256.997896</ele>
        <time>2021-07-07T16:21:31+0200</time>
      </trkpt>
      <trkpt lat="45.4041" lon="2.94268">
        <ele>1255.923279</ele>
        <time>2021-07-07T16:21:32+0200</time>
      </trkpt>
      <trkpt lat="45.40402" lon="2.94278">
        <ele>1254.860993</ele>
        <time>2021-07-07T16:21:33+0200</time>
      </trkpt>
      <trkpt lat="45.40394" lon="2.94289">
        <ele>1253.797022</ele>
        <time>2021-07-07T16:21:34+0200</time>
      </trkpt>
      <trkpt lat="45.40387" lon="2.94297">
        <ele>1252.062013</ele>
        <time>2021-07-07T16:21:35+0200</time>
      </trkpt>
      <trkpt lat="45.40381" lon="2.94305">
        <ele>1250.701659</ele>
        <time>2021-07-07T16:21:36+0200</time>
      </trkpt>
      <trkpt lat="45.40377" lon="2.9431">
        <ele>1249.599134</ele>
        <time>2021-07-07T16:21:37+0200</time>
      </trkpt>
      <trkpt lat="45.40372" lon="2.94315">
        <ele>1248.885496</ele>
        <time>2021-07-07T16:21:38+0200</time>
      </trkpt>
      <trkpt lat="45.40366" lon="2.94317">
        <ele>1248.690388</ele>
        <time>2021-07-07T16:21:39+0200</time>
      </trkpt>
      <trkpt lat="45.40358" lon="2.94315">
        <ele>1248.422057</ele>
        <time>2021-07-07T16:21:40+0200</time>
      </trkpt>
      <trkpt lat="45.40353" lon="2.9431">
        <ele>1248.28688</ele>
        <time>2021-07-07T16:21:41+0200</time>
      </trkpt>
      <trkpt lat="45.4035" lon="2.94303">
        <ele>1248.235512</ele>
        <time>2021-07-07T16:21:42+0200</time>
      </trkpt>
      <trkpt lat="45.40347" lon="2.94296">
        <ele>1248.261264</ele>
        <time>2021-07-07T16:21:43+0200</time>
      </trkpt>
      <trkpt lat="45.40344" lon="2.94284">
        <ele>1248.36643</ele>
        <time>2021-07-07T16:21:45+0200</time>
      </trkpt>
      <trkpt lat="45.4034" lon="2.94275">
        <ele>1248.402933</ele>
        <time>2021-07-07T16:21:47+0200</time>
      </trkpt>
      <trkpt lat="45.40337" lon="2.94265">
        <ele>1248.196346</ele>
        <time>2021-07-07T16:21:49+0200</time>
      </trkpt>
      <trkpt lat="45.40333" lon="2.94255">
        <ele>1247.943178</ele>
        <time>2021-07-07T16:21:51+0200</time>
      </trkpt>
      <trkpt lat="45.40328" lon="2.94246">
        <ele>1248.280593</ele>
        <time>2021-07-07T16:21:53+0200</time>
      </trkpt>
      <trkpt lat="45.40324" lon="2.94237">
        <ele>1248.275801</ele>
        <time>2021-07-07T16:21:55+0200</time>
      </trkpt>
      <trkpt lat="45.40321" lon="2.94227">
        <ele>1248.954072</ele>
        <time>2021-07-07T16:21:57+0200</time>
      </trkpt>
      <trkpt lat="45.40317" lon="2.94219">
        <ele>1248.957302</ele>
        <time>2021-07-07T16:21:59+0200</time>
      </trkpt>
      <trkpt lat="45.40313" lon="2.9421">
        <ele>1249.503634</ele>
        <time>2021-07-07T16:22:01+0200</time>
      </trkpt>
      <trkpt lat="45.4031" lon="2.94201">
        <ele>1249.739985</ele>
        <time>2021-07-07T16:22:03+0200</time>
      </trkpt>
      <trkpt lat="45.40306" lon="2.94192">
        <ele>1249.702303</ele>
        <time>2021-07-07T16:22:05+0200</time>
      </trkpt>
      <trkpt lat="45.40302" lon="2.94183">
        <ele>1249.974679</ele>
        <time>2021-07-07T16:22:07+0200</time>
      </trkpt>
      <trkpt lat="45.40298" lon="2.94173">
        <ele>1250.205005</ele>
        <time>2021-07-07T16:22:09+0200</time>
      </trkpt>
      <trkpt lat="45.40293" lon="2.94164">
        <ele>1249.997284</ele>
        <time>2021-07-07T16:22:11+0200</time>
      </trkpt>
      <trkpt lat="45.40289" lon="2.94154">
        <ele>1249.554714</ele>
        <time>2021-07-07T16:22:13+0200</time>
      </trkpt>
      <trkpt lat="45.40284" lon="2.94145">
        <ele>1249.580463</ele>
        <time>2021-07-07T16:22:15+0200</time>
      </trkpt>
      <trkpt lat="45.40281" lon="2.9414">
        <ele>1249.311314</ele>
        <time>2021-07-07T16:22:16+0200</time>
      </trkpt>
      <trkpt lat="45.40276" lon="2.94129">
        <ele>1248.904092</ele>
        <time>2021-07-07T16:22:18+0200</time>
      </trkpt>
      <trkpt lat="45.40271" lon="2.94119">
        <ele>1248.746901</ele>
        <time>2021-07-07T16:22:20+0200</time>
      </trkpt>
      <trkpt lat="45.40268" lon="2.94113">
        <ele>1248.554691</ele>
        <time>2021-07-07T16:22:21+0200</time>
      </trkpt>
      <trkpt lat="45.40265" lon="2.94107">
        <ele>1248.538295</ele>
        <time>2021-07-07T16:22:22+0200</time>
      </trkpt>
      <trkpt lat="45.40263" lon="2.941">
        <ele>1248.897654</ele>
        <time>2021-07-07T16:22:23+0200</time>
      </trkpt>
      <trkpt lat="45.40261" lon="2.94095">
        <ele>1248.940423</ele>
        <time>2021-07-07T16:22:24+0200</time>
      </trkpt>
      <trkpt lat="45.40257" lon="2.94083">
        <ele>1248.81257</ele>
        <time>2021-07-07T16:22:26+0200</time>
      </trkpt>
      <trkpt lat="45.40255" lon="2.94077">
        <ele>1248.867229</ele>
        <time>2021-07-07T16:22:27+0200</time>
      </trkpt>
      <trkpt lat="45.40253" lon="2.94071">
        <ele>1248.868598</ele>
        <time>2021-07-07T16:22:28+0200</time>
      </trkpt>
      <trkpt lat="45.40249" lon="2.94059">
        <ele>1248.417018</ele>
        <time>2021-07-07T16:22:30+0200</time>
      </trkpt>
      <trkpt lat="45.40247" lon="2.94053">
        <ele>1248.2089</ele>
        <time>2021-07-07T16:22:31+0200</time>
      </trkpt>
      <trkpt lat="45.40244" lon="2.94045">
        <ele>1247.905135</ele>
        <time>2021-07-07T16:22:32+0200</time>
      </trkpt>
      <trkpt lat="45.40242" lon="2.94037">
        <ele>1247.249324</ele>
        <time>2021-07-07T16:22:33+0200</time>
      </trkpt>
      <trkpt lat="45.40239" lon="2.9403">
        <ele>1246.735302</ele>
        <time>2021-07-07T16:22:34+0200</time>
      </trkpt>
      <trkpt lat="45.40236" lon="2.94021">
        <ele>1246.439417</ele>
        <time>2021-07-07T16:22:35+0200</time>
      </trkpt>
      <trkpt lat="45.40233" lon="2.94013">
        <ele>1245.745851</ele>
        <time>2021-07-07T16:22:36+0200</time>
      </trkpt>
      <trkpt lat="45.4023" lon="2.94004">
        <ele>1245.347354</ele>
        <time>2021-07-07T16:22:37+0200</time>
      </trkpt>
      <trkpt lat="45.40226" lon="2.93995">
        <ele>1245.077186</ele>
        <time>2021-07-07T16:22:38+0200</time>
      </trkpt>
      <trkpt lat="45.40223" lon="2.93986">
        <ele>1244.882578</ele>
        <time>2021-07-07T16:22:39+0200</time>
      </trkpt>
      <trkpt lat="45.40219" lon="2.93976">
        <ele>1244.721993</ele>
        <time>2021-07-07T16:22:40+0200</time>
      </trkpt>
      <trkpt lat="45.40215" lon="2.93967">
        <ele>1243.986704</ele>
        <time>2021-07-07T16:22:41+0200</time>
      </trkpt>
      <trkpt lat="45.40211" lon="2.93957">
        <ele>1243.673909</ele>
        <time>2021-07-07T16:22:42+0200</time>
      </trkpt>
      <trkpt lat="45.40207" lon="2.93948">
        <ele>1242.757517</ele>
        <time>2021-07-07T16:22:43+0200</time>
      </trkpt>
      <trkpt lat="45.40203" lon="2.93938">
        <ele>1241.735776</ele>
        <time>2021-07-07T16:22:44+0200</time>
      </trkpt>
      <trkpt lat="45.40198" lon="2.93929">
        <ele>1241.521489</ele>
        <time>2021-07-07T16:22:45+0200</time>
      </trkpt>
      <trkpt lat="45.40195" lon="2.93918">
        <ele>1240.850111</ele>
        <time>2021-07-07T16:22:46+0200</time>
      </trkpt>
      <trkpt lat="45.40191" lon="2.93908">
        <ele>1239.987356</ele>
        <time>2021-07-07T16:22:47+0200</time>
      </trkpt>
      <trkpt lat="45.40188" lon="2.93899">
        <ele>1239.226509</ele>
        <time>2021-07-07T16:22:48+0200</time>
      </trkpt>
      <trkpt lat="45.40186" lon="2.93891">
        <ele>1237.703249</ele>
        <time>2021-07-07T16:22:50+0200</time>
      </trkpt>
      <trkpt lat="45.40187" lon="2.93901">
        <ele>1240.127465</ele>
        <time>2021-07-07T16:22:51+0200</time>
      </trkpt>
      <trkpt lat="45.40184" lon="2.93897">
        <ele>1239.346344</ele>
        <time>2021-07-07T16:22:54+0200</time>
      </trkpt>
      <trkpt lat="45.4018" lon="2.9389">
        <ele>1238.577152</ele>
        <time>2021-07-07T16:22:57+0200</time>
      </trkpt>
      <trkpt lat="45.40179" lon="2.93884">
        <ele>1238.007217</ele>
        <time>2021-07-07T16:22:59+0200</time>
      </trkpt>
      <trkpt lat="45.40177" lon="2.93878">
        <ele>1237.544897</ele>
        <time>2021-07-07T16:23:01+0200</time>
      </trkpt>
      <trkpt lat="45.40173" lon="2.93868">
        <ele>1237.481392</ele>
        <time>2021-07-07T16:23:03+0200</time>
      </trkpt>
      <trkpt lat="45.4017" lon="2.93862">
        <ele>1237.376522</ele>
        <time>2021-07-07T16:23:04+0200</time>
      </trkpt>
      <trkpt lat="45.40167" lon="2.93852">
        <ele>1237.301967</ele>
        <time>2021-07-07T16:23:06+0200</time>
      </trkpt>
      <trkpt lat="45.40163" lon="2.93846">
        <ele>1237.12778</ele>
        <time>2021-07-07T16:23:08+0200</time>
      </trkpt>
      <trkpt lat="45.40157" lon="2.93831">
        <ele>1238.822327</ele>
        <time>2021-07-07T16:23:10+0200</time>
      </trkpt>
      <trkpt lat="45.40152" lon="2.93824">
        <ele>1238.264841</ele>
        <time>2021-07-07T16:23:12+0200</time>
      </trkpt>
      <trkpt lat="45.40149" lon="2.93814">
        <ele>1236.868305</ele>
        <time>2021-07-07T16:23:14+0200</time>
      </trkpt>
      <trkpt lat="45.40149" lon="2.93806">
        <ele>1236.258136</ele>
        <time>2021-07-07T16:23:15+0200</time>
      </trkpt>
      <trkpt lat="45.40149" lon="2.93791">
        <ele>1235.002691</ele>
        <time>2021-07-07T16:23:17+0200</time>
      </trkpt>
      <trkpt lat="45.40146" lon="2.93782">
        <ele>1235.312357</ele>
        <time>2021-07-07T16:23:18+0200</time>
      </trkpt>
      <trkpt lat="45.40144" lon="2.93774">
        <ele>1234.676861</ele>
        <time>2021-07-07T16:23:19+0200</time>
      </trkpt>
      <trkpt lat="45.40142" lon="2.93765">
        <ele>1234.190665</ele>
        <time>2021-07-07T16:23:20+0200</time>
      </trkpt>
      <trkpt lat="45.40139" lon="2.93752">
        <ele>1233.542421</ele>
        <time>2021-07-07T16:23:21+0200</time>
      </trkpt>
      <trkpt lat="45.40137" lon="2.9374">
        <ele>1233.023201</ele>
        <time>2021-07-07T16:23:22+0200</time>
      </trkpt>
      <trkpt lat="45.40135" lon="2.93731">
        <ele>1231.821185</ele>
        <time>2021-07-07T16:23:23+0200</time>
      </trkpt>
      <trkpt lat="45.40132" lon="2.93717">
        <ele>1230.594377</ele>
        <time>2021-07-07T16:23:24+0200</time>
      </trkpt>
      <trkpt lat="45.4013" lon="2.93703">
        <ele>1229.307891</ele>
        <time>2021-07-07T16:23:25+0200</time>
      </trkpt>
      <trkpt lat="45.40127" lon="2.93688">
        <ele>1228.266478</ele>
        <time>2021-07-07T16:23:26+0200</time>
      </trkpt>
      <trkpt lat="45.40124" lon="2.93677">
        <ele>1226.942584</ele>
        <time>2021-07-07T16:23:27+0200</time>
      </trkpt>
      <trkpt lat="45.40122" lon="2.9367">
        <ele>1225.692171</ele>
        <time>2021-07-07T16:23:28+0200</time>
      </trkpt>
      <trkpt lat="45.4012" lon="2.93659">
        <ele>1224.902435</ele>
        <time>2021-07-07T16:23:29+0200</time>
      </trkpt>
      <trkpt lat="45.40118" lon="2.93648">
        <ele>1223.723315</ele>
        <time>2021-07-07T16:23:30+0200</time>
      </trkpt>
      <trkpt lat="45.40115" lon="2.93641">
        <ele>1223.323834</ele>
        <time>2021-07-07T16:23:31+0200</time>
      </trkpt>
      <trkpt lat="45.40113" lon="2.93633">
        <ele>1222.806928</ele>
        <time>2021-07-07T16:23:33+0200</time>
      </trkpt>
      <trkpt lat="45.40113" lon="2.93626">
        <ele>1221.625755</ele>
        <time>2021-07-07T16:23:39+0200</time>
      </trkpt>
      <trkpt lat="45.40111" lon="2.93617">
        <ele>1222.484742</ele>
        <time>2021-07-07T16:23:42+0200</time>
      </trkpt>
      <trkpt lat="45.40107" lon="2.9361">
        <ele>1222.25053</ele>
        <time>2021-07-07T16:23:45+0200</time>
      </trkpt>
      <trkpt lat="45.40102" lon="2.93604">
        <ele>1220.689896</ele>
        <time>2021-07-07T16:23:49+0200</time>
      </trkpt>
      <trkpt lat="45.40097" lon="2.93599">
        <ele>1220.393424</ele>
        <time>2021-07-07T16:23:52+0200</time>
      </trkpt>
      <trkpt lat="45.40092" lon="2.93595">
        <ele>1219.843327</ele>
        <time>2021-07-07T16:23:57+0200</time>
      </trkpt>
      <trkpt lat="45.40086" lon="2.93594">
        <ele>1219.04296</ele>
        <time>2021-07-07T16:24:00+0200</time>
      </trkpt>
      <trkpt lat="45.4008" lon="2.93595">
        <ele>1218.341022</ele>
        <time>2021-07-07T16:24:04+0200</time>
      </trkpt>
      <trkpt lat="45.40077" lon="2.93604">
        <ele>1217.496404</ele>
        <time>2021-07-07T16:24:08+0200</time>
      </trkpt>
      <trkpt lat="45.40072" lon="2.93601">
        <ele>1217.674806</ele>
        <time>2021-07-07T16:24:11+0200</time>
      </trkpt>
      <trkpt lat="45.40072" lon="2.93594">
        <ele>1216.2544</ele>
        <time>2021-07-07T16:24:19+0200</time>
      </trkpt>
      <trkpt lat="45.40075" lon="2.93599">
        <ele>1216.179548</ele>
        <time>2021-07-07T16:24:27+0200</time>
      </trkpt>
      <trkpt lat="45.40072" lon="2.93594">
        <ele>1217.335254</ele>
        <time>2021-07-07T16:24:33+0200</time>
      </trkpt>
      <trkpt lat="45.40071" lon="2.93588">
        <ele>1216.79464</ele>
        <time>2021-07-07T16:24:41+0200</time>
      </trkpt>
      <trkpt lat="45.40066" lon="2.9359">
        <ele>1217.201677</ele>
        <time>2021-07-07T16:24:46+0200</time>
      </trkpt>
      <trkpt lat="45.4006" lon="2.93588">
        <ele>1217.537846</ele>
        <time>2021-07-07T16:24:49+0200</time>
      </trkpt>
      <trkpt lat="45.40056" lon="2.93586">
        <ele>1215.897283</ele>
        <time>2021-07-07T16:24:52+0200</time>
      </trkpt>
      <trkpt lat="45.4005" lon="2.93581">
        <ele>1215.203685</ele>
        <time>2021-07-07T16:24:54+0200</time>
      </trkpt>
      <trkpt lat="45.40046" lon="2.93575">
        <ele>1214.660531</ele>
        <time>2021-07-07T16:24:55+0200</time>
      </trkpt>
      <trkpt lat="45.40041" lon="2.93569">
        <ele>1215.122385</ele>
        <time>2021-07-07T16:24:57+0200</time>
      </trkpt>
      <trkpt lat="45.40036" lon="2.93564">
        <ele>1213.024434</ele>
        <time>2021-07-07T16:24:59+0200</time>
      </trkpt>
      <trkpt lat="45.40028" lon="2.9356">
        <ele>1211.185967</ele>
        <time>2021-07-07T16:25:01+0200</time>
      </trkpt>
      <trkpt lat="45.40023" lon="2.93559">
        <ele>1209.894314</ele>
        <time>2021-07-07T16:25:02+0200</time>
      </trkpt>
      <trkpt lat="45.40017" lon="2.93562">
        <ele>1208.832825</ele>
        <time>2021-07-07T16:25:03+0200</time>
      </trkpt>
      <trkpt lat="45.40011" lon="2.93565">
        <ele>1207.986611</ele>
        <time>2021-07-07T16:25:04+0200</time>
      </trkpt>
      <trkpt lat="45.40006" lon="2.93561">
        <ele>1207.202425</ele>
        <time>2021-07-07T16:25:05+0200</time>
      </trkpt>
      <trkpt lat="45.40004" lon="2.93555">
        <ele>1206.440055</ele>
        <time>2021-07-07T16:25:06+0200</time>
      </trkpt>
      <trkpt lat="45.4001" lon="2.93553">
        <ele>1206.951612</ele>
        <time>2021-07-07T16:25:08+0200</time>
      </trkpt>
      <trkpt lat="45.40009" lon="2.93545">
        <ele>1206.741431</ele>
        <time>2021-07-07T16:25:09+0200</time>
      </trkpt>
      <trkpt lat="45.40006" lon="2.93539">
        <ele>1206.398497</ele>
        <time>2021-07-07T16:25:10+0200</time>
      </trkpt>
      <trkpt lat="45.40003" lon="2.93529">
        <ele>1205.950201</ele>
        <time>2021-07-07T16:25:12+0200</time>
      </trkpt>
      <trkpt lat="45.40004" lon="2.93519">
        <ele>1205.738394</ele>
        <time>2021-07-07T16:25:14+0200</time>
      </trkpt>
      <trkpt lat="45.40008" lon="2.93508">
        <ele>1205.94363</ele>
        <time>2021-07-07T16:25:16+0200</time>
      </trkpt>
      <trkpt lat="45.40011" lon="2.935">
        <ele>1206.050058</ele>
        <time>2021-07-07T16:25:17+0200</time>
      </trkpt>
      <trkpt lat="45.40014" lon="2.93492">
        <ele>1206.107852</ele>
        <time>2021-07-07T16:25:18+0200</time>
      </trkpt>
      <trkpt lat="45.40015" lon="2.93484">
        <ele>1205.955782</ele>
        <time>2021-07-07T16:25:19+0200</time>
      </trkpt>
      <trkpt lat="45.40014" lon="2.93477">
        <ele>1206.093705</ele>
        <time>2021-07-07T16:25:20+0200</time>
      </trkpt>
      <trkpt lat="45.40016" lon="2.93468">
        <ele>1205.829318</ele>
        <time>2021-07-07T16:25:22+0200</time>
      </trkpt>
      <trkpt lat="45.40017" lon="2.93458">
        <ele>1205.836351</ele>
        <time>2021-07-07T16:25:24+0200</time>
      </trkpt>
      <trkpt lat="45.40017" lon="2.93451">
        <ele>1205.241974</ele>
        <time>2021-07-07T16:25:25+0200</time>
      </trkpt>
      <trkpt lat="45.40015" lon="2.9343">
        <ele>1204.938825</ele>
        <time>2021-07-07T16:25:27+0200</time>
      </trkpt>
      <trkpt lat="45.4001" lon="2.93426">
        <ele>1204.573667</ele>
        <time>2021-07-07T16:25:29+0200</time>
      </trkpt>
      <trkpt lat="45.40004" lon="2.93423">
        <ele>1203.521099</ele>
        <time>2021-07-07T16:25:31+0200</time>
      </trkpt>
      <trkpt lat="45.39999" lon="2.93419">
        <ele>1203.066473</ele>
        <time>2021-07-07T16:25:33+0200</time>
      </trkpt>
      <trkpt lat="45.39994" lon="2.93413">
        <ele>1202.959414</ele>
        <time>2021-07-07T16:25:35+0200</time>
      </trkpt>
      <trkpt lat="45.39989" lon="2.93409">
        <ele>1203.792074</ele>
        <time>2021-07-07T16:25:37+0200</time>
      </trkpt>
      <trkpt lat="45.39984" lon="2.93405">
        <ele>1204.416807</ele>
        <time>2021-07-07T16:25:39+0200</time>
      </trkpt>
      <trkpt lat="45.39979" lon="2.93402">
        <ele>1204.590873</ele>
        <time>2021-07-07T16:25:41+0200</time>
      </trkpt>
      <trkpt lat="45.39973" lon="2.93399">
        <ele>1204.483088</ele>
        <time>2021-07-07T16:25:43+0200</time>
      </trkpt>
      <trkpt lat="45.39967" lon="2.93395">
        <ele>1204.059649</ele>
        <time>2021-07-07T16:25:45+0200</time>
      </trkpt>
      <trkpt lat="45.3996" lon="2.93392">
        <ele>1204.213996</ele>
        <time>2021-07-07T16:25:47+0200</time>
      </trkpt>
      <trkpt lat="45.39952" lon="2.93389">
        <ele>1204.651002</ele>
        <time>2021-07-07T16:25:49+0200</time>
      </trkpt>
      <trkpt lat="45.39944" lon="2.93386">
        <ele>1204.536426</ele>
        <time>2021-07-07T16:25:51+0200</time>
      </trkpt>
      <trkpt lat="45.39937" lon="2.93384">
        <ele>1204.609536</ele>
        <time>2021-07-07T16:25:53+0200</time>
      </trkpt>
      <trkpt lat="45.3993" lon="2.93385">
        <ele>1205.23837</ele>
        <time>2021-07-07T16:25:55+0200</time>
      </trkpt>
      <trkpt lat="45.39923" lon="2.93384">
        <ele>1205.512201</ele>
        <time>2021-07-07T16:25:57+0200</time>
      </trkpt>
      <trkpt lat="45.39916" lon="2.93382">
        <ele>1206.06976</ele>
        <time>2021-07-07T16:25:59+0200</time>
      </trkpt>
      <trkpt lat="45.39909" lon="2.9338">
        <ele>1206.791796</ele>
        <time>2021-07-07T16:26:01+0200</time>
      </trkpt>
      <trkpt lat="45.39901" lon="2.93378">
        <ele>1207.095088</ele>
        <time>2021-07-07T16:26:03+0200</time>
      </trkpt>
      <trkpt lat="45.39895" lon="2.93375">
        <ele>1207.152605</ele>
        <time>2021-07-07T16:26:05+0200</time>
      </trkpt>
      <trkpt lat="45.39889" lon="2.9337">
        <ele>1207.129051</ele>
        <time>2021-07-07T16:26:07+0200</time>
      </trkpt>
      <trkpt lat="45.39883" lon="2.93364">
        <ele>1207.158586</ele>
        <time>2021-07-07T16:26:09+0200</time>
      </trkpt>
      <trkpt lat="45.39877" lon="2.93356">
        <ele>1207.033522</ele>
        <time>2021-07-07T16:26:11+0200</time>
      </trkpt>
      <trkpt lat="45.39871" lon="2.93348">
        <ele>1206.801185</ele>
        <time>2021-07-07T16:26:13+0200</time>
      </trkpt>
      <trkpt lat="45.39865" lon="2.93339">
        <ele>1206.598015</ele>
        <time>2021-07-07T16:26:15+0200</time>
      </trkpt>
      <trkpt lat="45.39861" lon="2.93335">
        <ele>1206.665393</ele>
        <time>2021-07-07T16:26:16+0200</time>
      </trkpt>
      <trkpt lat="45.39855" lon="2.93327">
        <ele>1207.31377</ele>
        <time>2021-07-07T16:26:18+0200</time>
      </trkpt>
      <trkpt lat="45.39849" lon="2.9332">
        <ele>1207.754431</ele>
        <time>2021-07-07T16:26:20+0200</time>
      </trkpt>
      <trkpt lat="45.39843" lon="2.93311">
        <ele>1207.514247</ele>
        <time>2021-07-07T16:26:22+0200</time>
      </trkpt>
      <trkpt lat="45.39837" lon="2.93305">
        <ele>1207.603113</ele>
        <time>2021-07-07T16:26:24+0200</time>
      </trkpt>
      <trkpt lat="45.39832" lon="2.93298">
        <ele>1207.768617</ele>
        <time>2021-07-07T16:26:26+0200</time>
      </trkpt>
      <trkpt lat="45.39827" lon="2.93292">
        <ele>1208.285421</ele>
        <time>2021-07-07T16:26:28+0200</time>
      </trkpt>
      <trkpt lat="45.39823" lon="2.93288">
        <ele>1208.808494</ele>
        <time>2021-07-07T16:26:30+0200</time>
      </trkpt>
      <trkpt lat="45.3982" lon="2.93282">
        <ele>1209.117085</ele>
        <time>2021-07-07T16:26:32+0200</time>
      </trkpt>
      <trkpt lat="45.39815" lon="2.93278">
        <ele>1208.991925</ele>
        <time>2021-07-07T16:26:34+0200</time>
      </trkpt>
      <trkpt lat="45.39812" lon="2.93273">
        <ele>1209.180517</ele>
        <time>2021-07-07T16:26:36+0200</time>
      </trkpt>
      <trkpt lat="45.39808" lon="2.93268">
        <ele>1209.303888</ele>
        <time>2021-07-07T16:26:38+0200</time>
      </trkpt>
      <trkpt lat="45.39804" lon="2.93261">
        <ele>1209.664172</ele>
        <time>2021-07-07T16:26:40+0200</time>
      </trkpt>
      <trkpt lat="45.39799" lon="2.93255">
        <ele>1209.451684</ele>
        <time>2021-07-07T16:26:42+0200</time>
      </trkpt>
      <trkpt lat="45.39795" lon="2.93249">
        <ele>1209.293602</ele>
        <time>2021-07-07T16:26:44+0200</time>
      </trkpt>
      <trkpt lat="45.3979" lon="2.93243">
        <ele>1208.882749</ele>
        <time>2021-07-07T16:26:46+0200</time>
      </trkpt>
      <trkpt lat="45.39785" lon="2.93236">
        <ele>1209.12409</ele>
        <time>2021-07-07T16:26:48+0200</time>
      </trkpt>
      <trkpt lat="45.3978" lon="2.93229">
        <ele>1209.321417</ele>
        <time>2021-07-07T16:26:50+0200</time>
      </trkpt>
      <trkpt lat="45.39774" lon="2.93223">
        <ele>1209.042582</ele>
        <time>2021-07-07T16:26:52+0200</time>
      </trkpt>
      <trkpt lat="45.39768" lon="2.93215">
        <ele>1208.767085</ele>
        <time>2021-07-07T16:26:54+0200</time>
      </trkpt>
      <trkpt lat="45.39762" lon="2.93207">
        <ele>1208.59442</ele>
        <time>2021-07-07T16:26:56+0200</time>
      </trkpt>
      <trkpt lat="45.39756" lon="2.932">
        <ele>1208.170698</ele>
        <time>2021-07-07T16:26:58+0200</time>
      </trkpt>
      <trkpt lat="45.3975" lon="2.93192">
        <ele>1208.871852</ele>
        <time>2021-07-07T16:27:00+0200</time>
      </trkpt>
      <trkpt lat="45.39744" lon="2.93185">
        <ele>1209.003214</ele>
        <time>2021-07-07T16:27:02+0200</time>
      </trkpt>
      <trkpt lat="45.39737" lon="2.93179">
        <ele>1208.893684</ele>
        <time>2021-07-07T16:27:04+0200</time>
      </trkpt>
      <trkpt lat="45.39731" lon="2.93172">
        <ele>1209.264065</ele>
        <time>2021-07-07T16:27:06+0200</time>
      </trkpt>
      <trkpt lat="45.39726" lon="2.93167">
        <ele>1209.410903</ele>
        <time>2021-07-07T16:27:08+0200</time>
      </trkpt>
      <trkpt lat="45.39721" lon="2.93162">
        <ele>1209.572429</ele>
        <time>2021-07-07T16:27:10+0200</time>
      </trkpt>
      <trkpt lat="45.39716" lon="2.93156">
        <ele>1210.515184</ele>
        <time>2021-07-07T16:27:12+0200</time>
      </trkpt>
      <trkpt lat="45.39712" lon="2.93153">
        <ele>1210.77135</ele>
        <time>2021-07-07T16:27:14+0200</time>
      </trkpt>
      <trkpt lat="45.39707" lon="2.93149">
        <ele>1211.154918</ele>
        <time>2021-07-07T16:27:16+0200</time>
      </trkpt>
      <trkpt lat="45.39703" lon="2.93146">
        <ele>1211.837763</ele>
        <time>2021-07-07T16:27:18+0200</time>
      </trkpt>
      <trkpt lat="45.39698" lon="2.93141">
        <ele>1213.159615</ele>
        <time>2021-07-07T16:27:21+0200</time>
      </trkpt>
      <trkpt lat="45.39694" lon="2.93137">
        <ele>1214.272133</ele>
        <time>2021-07-07T16:27:24+0200</time>
      </trkpt>
      <trkpt lat="45.39689" lon="2.93133">
        <ele>1215.099341</ele>
        <time>2021-07-07T16:27:27+0200</time>
      </trkpt>
      <trkpt lat="45.39685" lon="2.93127">
        <ele>1216.565807</ele>
        <time>2021-07-07T16:27:30+0200</time>
      </trkpt>
      <trkpt lat="45.39681" lon="2.93122">
        <ele>1216.536575</ele>
        <time>2021-07-07T16:27:33+0200</time>
      </trkpt>
      <trkpt lat="45.39677" lon="2.93117">
        <ele>1217.034787</ele>
        <time>2021-07-07T16:27:36+0200</time>
      </trkpt>
      <trkpt lat="45.39673" lon="2.93113">
        <ele>1216.903091</ele>
        <time>2021-07-07T16:27:39+0200</time>
      </trkpt>
      <trkpt lat="45.39668" lon="2.9311">
        <ele>1217.633101</ele>
        <time>2021-07-07T16:27:42+0200</time>
      </trkpt>
      <trkpt lat="45.39664" lon="2.93106">
        <ele>1217.719242</ele>
        <time>2021-07-07T16:27:45+0200</time>
      </trkpt>
      <trkpt lat="45.39659" lon="2.93104">
        <ele>1218.451666</ele>
        <time>2021-07-07T16:27:48+0200</time>
      </trkpt>
      <trkpt lat="45.39653" lon="2.93102">
        <ele>1218.88937</ele>
        <time>2021-07-07T16:27:51+0200</time>
      </trkpt>
      <trkpt lat="45.39649" lon="2.931">
        <ele>1219.187428</ele>
        <time>2021-07-07T16:27:53+0200</time>
      </trkpt>
      <trkpt lat="45.39645" lon="2.93097">
        <ele>1219.582475</ele>
        <time>2021-07-07T16:27:55+0200</time>
      </trkpt>
      <trkpt lat="45.39638" lon="2.93094">
        <ele>1219.580026</ele>
        <time>2021-07-07T16:27:58+0200</time>
      </trkpt>
      <trkpt lat="45.39632" lon="2.93091">
        <ele>1219.621602</ele>
        <time>2021-07-07T16:28:00+0200</time>
      </trkpt>
      <trkpt lat="45.39625" lon="2.93089">
        <ele>1220.072179</ele>
        <time>2021-07-07T16:28:02+0200</time>
      </trkpt>
      <trkpt lat="45.39618" lon="2.93087">
        <ele>1219.820302</ele>
        <time>2021-07-07T16:28:04+0200</time>
      </trkpt>
      <trkpt lat="45.39611" lon="2.93084">
        <ele>1219.805085</ele>
        <time>2021-07-07T16:28:06+0200</time>
      </trkpt>
      <trkpt lat="45.39604" lon="2.93082">
        <ele>1219.731433</ele>
        <time>2021-07-07T16:28:08+0200</time>
      </trkpt>
      <trkpt lat="45.39597" lon="2.93079">
        <ele>1219.688063</ele>
        <time>2021-07-07T16:28:10+0200</time>
      </trkpt>
      <trkpt lat="45.39591" lon="2.93077">
        <ele>1219.584217</ele>
        <time>2021-07-07T16:28:12+0200</time>
      </trkpt>
      <trkpt lat="45.39584" lon="2.93075">
        <ele>1219.647578</ele>
        <time>2021-07-07T16:28:14+0200</time>
      </trkpt>
      <trkpt lat="45.39577" lon="2.93071">
        <ele>1219.646729</ele>
        <time>2021-07-07T16:28:16+0200</time>
      </trkpt>
      <trkpt lat="45.3957" lon="2.93068">
        <ele>1219.332033</ele>
        <time>2021-07-07T16:28:18+0200</time>
      </trkpt>
      <trkpt lat="45.39561" lon="2.93064">
        <ele>1218.914081</ele>
        <time>2021-07-07T16:28:20+0200</time>
      </trkpt>
      <trkpt lat="45.39554" lon="2.93059">
        <ele>1218.702054</ele>
        <time>2021-07-07T16:28:22+0200</time>
      </trkpt>
      <trkpt lat="45.39547" lon="2.93054">
        <ele>1218.979628</ele>
        <time>2021-07-07T16:28:24+0200</time>
      </trkpt>
      <trkpt lat="45.3954" lon="2.9305">
        <ele>1219.229014</ele>
        <time>2021-07-07T16:28:26+0200</time>
      </trkpt>
      <trkpt lat="45.39535" lon="2.93043">
        <ele>1219.136146</ele>
        <time>2021-07-07T16:28:28+0200</time>
      </trkpt>
      <trkpt lat="45.39532" lon="2.93035">
        <ele>1219.210276</ele>
        <time>2021-07-07T16:28:30+0200</time>
      </trkpt>
      <trkpt lat="45.39529" lon="2.93027">
        <ele>1218.782368</ele>
        <time>2021-07-07T16:28:32+0200</time>
      </trkpt>
      <trkpt lat="45.39526" lon="2.93018">
        <ele>1218.571914</ele>
        <time>2021-07-07T16:28:34+0200</time>
      </trkpt>
      <trkpt lat="45.39524" lon="2.93012">
        <ele>1218.344455</ele>
        <time>2021-07-07T16:28:35+0200</time>
      </trkpt>
      <trkpt lat="45.39522" lon="2.93004">
        <ele>1217.694907</ele>
        <time>2021-07-07T16:28:36+0200</time>
      </trkpt>
      <trkpt lat="45.39519" lon="2.92997">
        <ele>1216.819396</ele>
        <time>2021-07-07T16:28:37+0200</time>
      </trkpt>
      <trkpt lat="45.39517" lon="2.92989">
        <ele>1216.560692</ele>
        <time>2021-07-07T16:28:38+0200</time>
      </trkpt>
      <trkpt lat="45.39513" lon="2.92984">
        <ele>1216.011305</ele>
        <time>2021-07-07T16:28:39+0200</time>
      </trkpt>
      <trkpt lat="45.39508" lon="2.9298">
        <ele>1216.055453</ele>
        <time>2021-07-07T16:28:40+0200</time>
      </trkpt>
      <trkpt lat="45.39503" lon="2.92979">
        <ele>1216.143682</ele>
        <time>2021-07-07T16:28:41+0200</time>
      </trkpt>
      <trkpt lat="45.39496" lon="2.9298">
        <ele>1216.867458</ele>
        <time>2021-07-07T16:28:43+0200</time>
      </trkpt>
      <trkpt lat="45.39491" lon="2.92981">
        <ele>1217.192653</ele>
        <time>2021-07-07T16:28:45+0200</time>
      </trkpt>
      <trkpt lat="45.39485" lon="2.92982">
        <ele>1218.074275</ele>
        <time>2021-07-07T16:28:48+0200</time>
      </trkpt>
      <trkpt lat="45.39479" lon="2.92981">
        <ele>1218.618573</ele>
        <time>2021-07-07T16:28:51+0200</time>
      </trkpt>
      <trkpt lat="45.39475" lon="2.92981">
        <ele>1219.176211</ele>
        <time>2021-07-07T16:28:54+0200</time>
      </trkpt>
      <trkpt lat="45.39469" lon="2.92979">
        <ele>1219.253001</ele>
        <time>2021-07-07T16:28:57+0200</time>
      </trkpt>
      <trkpt lat="45.39465" lon="2.92978">
        <ele>1219.137905</ele>
        <time>2021-07-07T16:28:59+0200</time>
      </trkpt>
      <trkpt lat="45.39459" lon="2.92975">
        <ele>1218.86044</ele>
        <time>2021-07-07T16:29:01+0200</time>
      </trkpt>
      <trkpt lat="45.39454" lon="2.92973">
        <ele>1219.174675</ele>
        <time>2021-07-07T16:29:03+0200</time>
      </trkpt>
      <trkpt lat="45.39449" lon="2.92972">
        <ele>1219.532195</ele>
        <time>2021-07-07T16:29:05+0200</time>
      </trkpt>
      <trkpt lat="45.39443" lon="2.92968">
        <ele>1220.065918</ele>
        <time>2021-07-07T16:29:07+0200</time>
      </trkpt>
      <trkpt lat="45.39438" lon="2.92966">
        <ele>1220.378553</ele>
        <time>2021-07-07T16:29:09+0200</time>
      </trkpt>
      <trkpt lat="45.39432" lon="2.92963">
        <ele>1220.666966</ele>
        <time>2021-07-07T16:29:11+0200</time>
      </trkpt>
      <trkpt lat="45.39426" lon="2.9296">
        <ele>1220.520799</ele>
        <time>2021-07-07T16:29:13+0200</time>
      </trkpt>
      <trkpt lat="45.39421" lon="2.92958">
        <ele>1220.628663</ele>
        <time>2021-07-07T16:29:15+0200</time>
      </trkpt>
      <trkpt lat="45.39415" lon="2.92955">
        <ele>1220.509589</ele>
        <time>2021-07-07T16:29:17+0200</time>
      </trkpt>
      <trkpt lat="45.39409" lon="2.92953">
        <ele>1220.923663</ele>
        <time>2021-07-07T16:29:19+0200</time>
      </trkpt>
      <trkpt lat="45.39403" lon="2.92949">
        <ele>1221.026583</ele>
        <time>2021-07-07T16:29:21+0200</time>
      </trkpt>
      <trkpt lat="45.39397" lon="2.92946">
        <ele>1221.01208</ele>
        <time>2021-07-07T16:29:23+0200</time>
      </trkpt>
      <trkpt lat="45.39392" lon="2.92943">
        <ele>1221.163418</ele>
        <time>2021-07-07T16:29:26+0200</time>
      </trkpt>
      <trkpt lat="45.39386" lon="2.92946">
        <ele>1221.049575</ele>
        <time>2021-07-07T16:29:29+0200</time>
      </trkpt>
      <trkpt lat="45.39381" lon="2.92945">
        <ele>1220.392205</ele>
        <time>2021-07-07T16:29:33+0200</time>
      </trkpt>
      <trkpt lat="45.39378" lon="2.92938">
        <ele>1220.635785</ele>
        <time>2021-07-07T16:30:19+0200</time>
      </trkpt>
      <trkpt lat="45.39372" lon="2.92932">
        <ele>1220.291168</ele>
        <time>2021-07-07T16:30:21+0200</time>
      </trkpt>
      <trkpt lat="45.39365" lon="2.92924">
        <ele>1220.086089</ele>
        <time>2021-07-07T16:30:23+0200</time>
      </trkpt>
      <trkpt lat="45.39359" lon="2.92916">
        <ele>1219.915088</ele>
        <time>2021-07-07T16:30:25+0200</time>
      </trkpt>
      <trkpt lat="45.39355" lon="2.92911">
        <ele>1219.994759</ele>
        <time>2021-07-07T16:30:26+0200</time>
      </trkpt>
      <trkpt lat="45.39352" lon="2.92906">
        <ele>1219.839145</ele>
        <time>2021-07-07T16:30:27+0200</time>
      </trkpt>
      <trkpt lat="45.39348" lon="2.92902">
        <ele>1219.534962</ele>
        <time>2021-07-07T16:30:28+0200</time>
      </trkpt>
      <trkpt lat="45.39345" lon="2.92897">
        <ele>1219.338791</ele>
        <time>2021-07-07T16:30:29+0200</time>
      </trkpt>
      <trkpt lat="45.39341" lon="2.92892">
        <ele>1219.121994</ele>
        <time>2021-07-07T16:30:30+0200</time>
      </trkpt>
      <trkpt lat="45.39337" lon="2.92887">
        <ele>1219.035121</ele>
        <time>2021-07-07T16:30:31+0200</time>
      </trkpt>
      <trkpt lat="45.39334" lon="2.92882">
        <ele>1218.903051</ele>
        <time>2021-07-07T16:30:32+0200</time>
      </trkpt>
      <trkpt lat="45.3933" lon="2.92876">
        <ele>1218.964044</ele>
        <time>2021-07-07T16:30:33+0200</time>
      </trkpt>
      <trkpt lat="45.39325" lon="2.9287">
        <ele>1218.77187</ele>
        <time>2021-07-07T16:30:34+0200</time>
      </trkpt>
      <trkpt lat="45.39321" lon="2.92864">
        <ele>1218.421186</ele>
        <time>2021-07-07T16:30:35+0200</time>
      </trkpt>
      <trkpt lat="45.39316" lon="2.92858">
        <ele>1218.27032</ele>
        <time>2021-07-07T16:30:36+0200</time>
      </trkpt>
      <trkpt lat="45.39312" lon="2.92852">
        <ele>1218.014682</ele>
        <time>2021-07-07T16:30:37+0200</time>
      </trkpt>
      <trkpt lat="45.39307" lon="2.92846">
        <ele>1217.677285</ele>
        <time>2021-07-07T16:30:38+0200</time>
      </trkpt>
      <trkpt lat="45.39302" lon="2.92839">
        <ele>1217.42155</ele>
        <time>2021-07-07T16:30:39+0200</time>
      </trkpt>
      <trkpt lat="45.39297" lon="2.92833">
        <ele>1217.289068</ele>
        <time>2021-07-07T16:30:40+0200</time>
      </trkpt>
      <trkpt lat="45.39292" lon="2.92827">
        <ele>1217.273637</ele>
        <time>2021-07-07T16:30:41+0200</time>
      </trkpt>
      <trkpt lat="45.39287" lon="2.92821">
        <ele>1217.224417</ele>
        <time>2021-07-07T16:30:42+0200</time>
      </trkpt>
      <trkpt lat="45.39282" lon="2.92815">
        <ele>1217.302463</ele>
        <time>2021-07-07T16:30:43+0200</time>
      </trkpt>
      <trkpt lat="45.39278" lon="2.92809">
        <ele>1217.413029</ele>
        <time>2021-07-07T16:30:44+0200</time>
      </trkpt>
      <trkpt lat="45.39273" lon="2.92803">
        <ele>1217.53035</ele>
        <time>2021-07-07T16:30:45+0200</time>
      </trkpt>
      <trkpt lat="45.39269" lon="2.92797">
        <ele>1217.524435</ele>
        <time>2021-07-07T16:30:46+0200</time>
      </trkpt>
      <trkpt lat="45.39264" lon="2.92792">
        <ele>1217.505641</ele>
        <time>2021-07-07T16:30:47+0200</time>
      </trkpt>
      <trkpt lat="45.3926" lon="2.92786">
        <ele>1217.47988</ele>
        <time>2021-07-07T16:30:48+0200</time>
      </trkpt>
      <trkpt lat="45.39256" lon="2.9278">
        <ele>1217.391785</ele>
        <time>2021-07-07T16:30:49+0200</time>
      </trkpt>
      <trkpt lat="45.39251" lon="2.92774">
        <ele>1217.320354</ele>
        <time>2021-07-07T16:30:50+0200</time>
      </trkpt>
      <trkpt lat="45.39246" lon="2.92768">
        <ele>1217.279948</ele>
        <time>2021-07-07T16:30:51+0200</time>
      </trkpt>
      <trkpt lat="45.39241" lon="2.92762">
        <ele>1217.014686</ele>
        <time>2021-07-07T16:30:52+0200</time>
      </trkpt>
      <trkpt lat="45.39236" lon="2.92756">
        <ele>1216.722745</ele>
        <time>2021-07-07T16:30:53+0200</time>
      </trkpt>
      <trkpt lat="45.39232" lon="2.92749">
        <ele>1216.52749</ele>
        <time>2021-07-07T16:30:54+0200</time>
      </trkpt>
      <trkpt lat="45.39227" lon="2.92743">
        <ele>1216.344673</ele>
        <time>2021-07-07T16:30:55+0200</time>
      </trkpt>
      <trkpt lat="45.39222" lon="2.92736">
        <ele>1216.339729</ele>
        <time>2021-07-07T16:30:56+0200</time>
      </trkpt>
      <trkpt lat="45.39218" lon="2.92728">
        <ele>1216.487667</ele>
        <time>2021-07-07T16:30:57+0200</time>
      </trkpt>
      <trkpt lat="45.39213" lon="2.92721">
        <ele>1216.617997</ele>
        <time>2021-07-07T16:30:58+0200</time>
      </trkpt>
      <trkpt lat="45.39209" lon="2.92715">
        <ele>1216.734165</ele>
        <time>2021-07-07T16:30:59+0200</time>
      </trkpt>
      <trkpt lat="45.39205" lon="2.92709">
        <ele>1216.7948</ele>
        <time>2021-07-07T16:31:00+0200</time>
      </trkpt>
      <trkpt lat="45.39201" lon="2.92702">
        <ele>1216.823231</ele>
        <time>2021-07-07T16:31:01+0200</time>
      </trkpt>
      <trkpt lat="45.39197" lon="2.92696">
        <ele>1216.857085</ele>
        <time>2021-07-07T16:31:02+0200</time>
      </trkpt>
      <trkpt lat="45.39192" lon="2.9269">
        <ele>1216.782425</ele>
        <time>2021-07-07T16:31:03+0200</time>
      </trkpt>
      <trkpt lat="45.39188" lon="2.92684">
        <ele>1216.691737</ele>
        <time>2021-07-07T16:31:04+0200</time>
      </trkpt>
      <trkpt lat="45.39183" lon="2.92679">
        <ele>1216.702018</ele>
        <time>2021-07-07T16:31:05+0200</time>
      </trkpt>
      <trkpt lat="45.39178" lon="2.92674">
        <ele>1216.384132</ele>
        <time>2021-07-07T16:31:06+0200</time>
      </trkpt>
      <trkpt lat="45.39172" lon="2.92669">
        <ele>1216.192424</ele>
        <time>2021-07-07T16:31:07+0200</time>
      </trkpt>
      <trkpt lat="45.39167" lon="2.92663">
        <ele>1216.01696</ele>
        <time>2021-07-07T16:31:08+0200</time>
      </trkpt>
      <trkpt lat="45.39162" lon="2.92658">
        <ele>1215.981311</ele>
        <time>2021-07-07T16:31:09+0200</time>
      </trkpt>
      <trkpt lat="45.39156" lon="2.92653">
        <ele>1215.88865</ele>
        <time>2021-07-07T16:31:10+0200</time>
      </trkpt>
      <trkpt lat="45.39151" lon="2.92648">
        <ele>1215.832469</ele>
        <time>2021-07-07T16:31:11+0200</time>
      </trkpt>
      <trkpt lat="45.39145" lon="2.92643">
        <ele>1215.623776</ele>
        <time>2021-07-07T16:31:12+0200</time>
      </trkpt>
      <trkpt lat="45.3914" lon="2.92637">
        <ele>1215.564374</ele>
        <time>2021-07-07T16:31:13+0200</time>
      </trkpt>
      <trkpt lat="45.39135" lon="2.92631">
        <ele>1215.559562</ele>
        <time>2021-07-07T16:31:14+0200</time>
      </trkpt>
      <trkpt lat="45.3913" lon="2.92625">
        <ele>1215.700919</ele>
        <time>2021-07-07T16:31:15+0200</time>
      </trkpt>
      <trkpt lat="45.39125" lon="2.92618">
        <ele>1215.788831</ele>
        <time>2021-07-07T16:31:16+0200</time>
      </trkpt>
      <trkpt lat="45.39121" lon="2.92612">
        <ele>1215.831528</ele>
        <time>2021-07-07T16:31:17+0200</time>
      </trkpt>
      <trkpt lat="45.39116" lon="2.92606">
        <ele>1215.826004</ele>
        <time>2021-07-07T16:31:18+0200</time>
      </trkpt>
      <trkpt lat="45.39111" lon="2.926">
        <ele>1215.861278</ele>
        <time>2021-07-07T16:31:19+0200</time>
      </trkpt>
      <trkpt lat="45.39106" lon="2.92594">
        <ele>1215.892956</ele>
        <time>2021-07-07T16:31:20+0200</time>
      </trkpt>
      <trkpt lat="45.39102" lon="2.92588">
        <ele>1215.939745</ele>
        <time>2021-07-07T16:31:21+0200</time>
      </trkpt>
      <trkpt lat="45.39097" lon="2.92582">
        <ele>1215.985454</ele>
        <time>2021-07-07T16:31:22+0200</time>
      </trkpt>
      <trkpt lat="45.39092" lon="2.92576">
        <ele>1216.145851</ele>
        <time>2021-07-07T16:31:23+0200</time>
      </trkpt>
      <trkpt lat="45.39088" lon="2.92571">
        <ele>1216.335745</ele>
        <time>2021-07-07T16:31:24+0200</time>
      </trkpt>
      <trkpt lat="45.39083" lon="2.92565">
        <ele>1216.568987</ele>
        <time>2021-07-07T16:31:25+0200</time>
      </trkpt>
      <trkpt lat="45.39079" lon="2.92559">
        <ele>1216.674364</ele>
        <time>2021-07-07T16:31:26+0200</time>
      </trkpt>
      <trkpt lat="45.39075" lon="2.92554">
        <ele>1216.727892</ele>
        <time>2021-07-07T16:31:27+0200</time>
      </trkpt>
      <trkpt lat="45.3907" lon="2.92548">
        <ele>1216.626421</ele>
        <time>2021-07-07T16:31:28+0200</time>
      </trkpt>
      <trkpt lat="45.39066" lon="2.92542">
        <ele>1216.595286</ele>
        <time>2021-07-07T16:31:29+0200</time>
      </trkpt>
      <trkpt lat="45.39062" lon="2.92537">
        <ele>1216.294192</ele>
        <time>2021-07-07T16:31:30+0200</time>
      </trkpt>
      <trkpt lat="45.39058" lon="2.92531">
        <ele>1216.091863</ele>
        <time>2021-07-07T16:31:31+0200</time>
      </trkpt>
      <trkpt lat="45.39053" lon="2.92526">
        <ele>1215.869112</ele>
        <time>2021-07-07T16:31:32+0200</time>
      </trkpt>
      <trkpt lat="45.39048" lon="2.9252">
        <ele>1215.558088</ele>
        <time>2021-07-07T16:31:33+0200</time>
      </trkpt>
      <trkpt lat="45.39044" lon="2.92515">
        <ele>1215.788387</ele>
        <time>2021-07-07T16:31:34+0200</time>
      </trkpt>
      <trkpt lat="45.3904" lon="2.9251">
        <ele>1215.565064</ele>
        <time>2021-07-07T16:31:35+0200</time>
      </trkpt>
      <trkpt lat="45.39036" lon="2.92504">
        <ele>1215.320902</ele>
        <time>2021-07-07T16:31:36+0200</time>
      </trkpt>
      <trkpt lat="45.39032" lon="2.92498">
        <ele>1214.825857</ele>
        <time>2021-07-07T16:31:37+0200</time>
      </trkpt>
      <trkpt lat="45.39028" lon="2.92492">
        <ele>1214.482949</ele>
        <time>2021-07-07T16:31:38+0200</time>
      </trkpt>
      <trkpt lat="45.39024" lon="2.92486">
        <ele>1214.273675</ele>
        <time>2021-07-07T16:31:39+0200</time>
      </trkpt>
      <trkpt lat="45.39019" lon="2.92481">
        <ele>1214.131466</ele>
        <time>2021-07-07T16:31:40+0200</time>
      </trkpt>
      <trkpt lat="45.39015" lon="2.92475">
        <ele>1213.952655</ele>
        <time>2021-07-07T16:31:41+0200</time>
      </trkpt>
      <trkpt lat="45.3901" lon="2.9247">
        <ele>1213.714777</ele>
        <time>2021-07-07T16:31:42+0200</time>
      </trkpt>
      <trkpt lat="45.39005" lon="2.92466">
        <ele>1213.351643</ele>
        <time>2021-07-07T16:31:43+0200</time>
      </trkpt>
      <trkpt lat="45.39" lon="2.92461">
        <ele>1213.056643</ele>
        <time>2021-07-07T16:31:44+0200</time>
      </trkpt>
      <trkpt lat="45.38995" lon="2.92456">
        <ele>1212.662789</ele>
        <time>2021-07-07T16:31:45+0200</time>
      </trkpt>
      <trkpt lat="45.38989" lon="2.92451">
        <ele>1212.21578</ele>
        <time>2021-07-07T16:31:46+0200</time>
      </trkpt>
      <trkpt lat="45.38983" lon="2.92447">
        <ele>1211.894146</ele>
        <time>2021-07-07T16:31:47+0200</time>
      </trkpt>
      <trkpt lat="45.38978" lon="2.92442">
        <ele>1211.28466</ele>
        <time>2021-07-07T16:31:48+0200</time>
      </trkpt>
      <trkpt lat="45.38972" lon="2.92438">
        <ele>1210.888387</ele>
        <time>2021-07-07T16:31:49+0200</time>
      </trkpt>
      <trkpt lat="45.38965" lon="2.92433">
        <ele>1210.530804</ele>
        <time>2021-07-07T16:31:50+0200</time>
      </trkpt>
      <trkpt lat="45.38958" lon="2.92428">
        <ele>1210.323159</ele>
        <time>2021-07-07T16:31:51+0200</time>
      </trkpt>
      <trkpt lat="45.38951" lon="2.92423">
        <ele>1209.813295</ele>
        <time>2021-07-07T16:31:52+0200</time>
      </trkpt>
      <trkpt lat="45.38944" lon="2.92419">
        <ele>1209.189076</ele>
        <time>2021-07-07T16:31:53+0200</time>
      </trkpt>
      <trkpt lat="45.38936" lon="2.92414">
        <ele>1208.398773</ele>
        <time>2021-07-07T16:31:54+0200</time>
      </trkpt>
      <trkpt lat="45.38928" lon="2.9241">
        <ele>1207.839925</ele>
        <time>2021-07-07T16:31:55+0200</time>
      </trkpt>
      <trkpt lat="45.3892" lon="2.92407">
        <ele>1207.267035</ele>
        <time>2021-07-07T16:31:56+0200</time>
      </trkpt>
      <trkpt lat="45.38912" lon="2.92407">
        <ele>1206.849714</ele>
        <time>2021-07-07T16:31:57+0200</time>
      </trkpt>
      <trkpt lat="45.38904" lon="2.92409">
        <ele>1206.373983</ele>
        <time>2021-07-07T16:31:58+0200</time>
      </trkpt>
      <trkpt lat="45.38896" lon="2.92414">
        <ele>1205.988091</ele>
        <time>2021-07-07T16:31:59+0200</time>
      </trkpt>
      <trkpt lat="45.38889" lon="2.92422">
        <ele>1205.684925</ele>
        <time>2021-07-07T16:32:00+0200</time>
      </trkpt>
      <trkpt lat="45.38882" lon="2.92426">
        <ele>1205.549844</ele>
        <time>2021-07-07T16:32:01+0200</time>
      </trkpt>
      <trkpt lat="45.38874" lon="2.92428">
        <ele>1205.282673</ele>
        <time>2021-07-07T16:32:02+0200</time>
      </trkpt>
      <trkpt lat="45.38866" lon="2.92426">
        <ele>1204.99763</ele>
        <time>2021-07-07T16:32:03+0200</time>
      </trkpt>
      <trkpt lat="45.38858" lon="2.92425">
        <ele>1204.626186</ele>
        <time>2021-07-07T16:32:04+0200</time>
      </trkpt>
      <trkpt lat="45.38855" lon="2.92407">
        <ele>1205.473976</ele>
        <time>2021-07-07T16:32:05+0200</time>
      </trkpt>
      <trkpt lat="45.38851" lon="2.92397">
        <ele>1205.219214</ele>
        <time>2021-07-07T16:32:06+0200</time>
      </trkpt>
      <trkpt lat="45.38847" lon="2.92388">
        <ele>1205.240308</ele>
        <time>2021-07-07T16:32:07+0200</time>
      </trkpt>
      <trkpt lat="45.38847" lon="2.92377">
        <ele>1205.184675</ele>
        <time>2021-07-07T16:32:08+0200</time>
      </trkpt>
      <trkpt lat="45.38851" lon="2.92367">
        <ele>1205.302971</ele>
        <time>2021-07-07T16:32:09+0200</time>
      </trkpt>
      <trkpt lat="45.38855" lon="2.92359">
        <ele>1205.049644</ele>
        <time>2021-07-07T16:32:10+0200</time>
      </trkpt>
      <trkpt lat="45.38859" lon="2.92351">
        <ele>1205.29806</ele>
        <time>2021-07-07T16:32:11+0200</time>
      </trkpt>
      <trkpt lat="45.38862" lon="2.92344">
        <ele>1205.361377</ele>
        <time>2021-07-07T16:32:12+0200</time>
      </trkpt>
      <trkpt lat="45.38865" lon="2.92337">
        <ele>1205.50378</ele>
        <time>2021-07-07T16:32:13+0200</time>
      </trkpt>
      <trkpt lat="45.38867" lon="2.92328">
        <ele>1205.774696</ele>
        <time>2021-07-07T16:32:15+0200</time>
      </trkpt>
      <trkpt lat="45.3887" lon="2.9232">
        <ele>1206.023033</ele>
        <time>2021-07-07T16:32:17+0200</time>
      </trkpt>
      <trkpt lat="45.38872" lon="2.92313">
        <ele>1206.701991</ele>
        <time>2021-07-07T16:32:21+0200</time>
      </trkpt>
      <trkpt lat="45.38874" lon="2.92303">
        <ele>1207.594866</ele>
        <time>2021-07-07T16:32:24+0200</time>
      </trkpt>
      <trkpt lat="45.38876" lon="2.92296">
        <ele>1208.127066</ele>
        <time>2021-07-07T16:32:26+0200</time>
      </trkpt>
      <trkpt lat="45.38877" lon="2.92289">
        <ele>1208.773277</ele>
        <time>2021-07-07T16:32:28+0200</time>
      </trkpt>
      <trkpt lat="45.38876" lon="2.92282">
        <ele>1209.120636</ele>
        <time>2021-07-07T16:32:30+0200</time>
      </trkpt>
      <trkpt lat="45.38874" lon="2.92276">
        <ele>1210.032145</ele>
        <time>2021-07-07T16:32:32+0200</time>
      </trkpt>
      <trkpt lat="45.38871" lon="2.9227">
        <ele>1211.627626</ele>
        <time>2021-07-07T16:32:34+0200</time>
      </trkpt>
      <trkpt lat="45.38869" lon="2.92264">
        <ele>1213.178164</ele>
        <time>2021-07-07T16:32:36+0200</time>
      </trkpt>
      <trkpt lat="45.38866" lon="2.92258">
        <ele>1213.199652</ele>
        <time>2021-07-07T16:32:39+0200</time>
      </trkpt>
      <trkpt lat="45.38864" lon="2.92251">
        <ele>1213.468673</ele>
        <time>2021-07-07T16:32:42+0200</time>
      </trkpt>
      <trkpt lat="45.38862" lon="2.92258">
        <ele>1212.774825</ele>
        <time>2021-07-07T16:33:08+0200</time>
      </trkpt>
      <trkpt lat="45.38867" lon="2.92259">
        <ele>1212.612381</ele>
        <time>2021-07-07T16:33:13+0200</time>
      </trkpt>
    </trkseg>
  </trk>
</gpx>